<?xml version="1.0" encoding="utf-8"?>
<gpx xmlns:xsi="http://www.w3.org/2001/XMLSchema-instance" xmlns:xsd="http://www.w3.org/2001/XMLSchema" version="1.1" creator="Shapelink.com" xmlns="http://www.topografix.com/GPX/1/1" xmlns:gpxtpx="http://www.garmin.com/xmlschemas/TrackPointExtension/v1">
  <metadata>
    <name>Sykling 60.63 km, 2013-06-02</name>
    <desc></desc>
    <author><name>Mikael Blom</name></author> 
    <time>2013-06-02T08:27:03Z</time>
  </metadata>
  <trk>
    <name>Sykling 60.63 km, 2013-06-02</name>
    <trkseg>
      <trkpt lat="59.9787263" lon="17.7392303">
        <ele>49.1646</ele>
        <time>2013-06-02T08:27:03Z</time>
      </trkpt>
      <trkpt lat="59.9786801" lon="17.7392171">
        <ele>47.7225</ele>
        <time>2013-06-02T08:27:04Z</time>
      </trkpt>
      <trkpt lat="59.9786334" lon="17.7392092">
        <ele>48.684</ele>
        <time>2013-06-02T08:27:05Z</time>
      </trkpt>
      <trkpt lat="59.9785849" lon="17.7392081">
        <ele>49.1646</ele>
        <time>2013-06-02T08:27:06Z</time>
      </trkpt>
      <trkpt lat="59.9785499" lon="17.7392037">
        <ele>52.0486</ele>
        <time>2013-06-02T08:27:07Z</time>
      </trkpt>
      <trkpt lat="59.9785169" lon="17.7391973">
        <ele>55.8938</ele>
        <time>2013-06-02T08:27:08Z</time>
      </trkpt>
      <trkpt lat="59.9784943" lon="17.739186">
        <ele>60.7003</ele>
        <time>2013-06-02T08:27:09Z</time>
      </trkpt>
      <trkpt lat="59.9784669" lon="17.7391694">
        <ele>64.5457</ele>
        <time>2013-06-02T08:27:10Z</time>
      </trkpt>
      <trkpt lat="59.9784273" lon="17.7391554">
        <ele>67.4297</ele>
        <time>2013-06-02T08:27:11Z</time>
      </trkpt>
      <trkpt lat="59.9783787" lon="17.7391469">
        <ele>68.8716</ele>
        <time>2013-06-02T08:27:12Z</time>
      </trkpt>
      <trkpt lat="59.9783283" lon="17.7391355">
        <ele>70.3135</ele>
        <time>2013-06-02T08:27:13Z</time>
      </trkpt>
      <trkpt lat="59.9782684" lon="17.7391265">
        <ele>70.7942</ele>
        <time>2013-06-02T08:27:14Z</time>
      </trkpt>
      <trkpt lat="59.9782264" lon="17.7391081">
        <ele>73.6782</ele>
        <time>2013-06-02T08:27:15Z</time>
      </trkpt>
      <trkpt lat="59.9781709" lon="17.7390793">
        <ele>73.6782</ele>
        <time>2013-06-02T08:27:16Z</time>
      </trkpt>
      <trkpt lat="59.9781237" lon="17.7390457">
        <ele>74.6395</ele>
        <time>2013-06-02T08:27:17Z</time>
      </trkpt>
      <trkpt lat="59.9780517" lon="17.7389767">
        <ele>74.1588</ele>
        <time>2013-06-02T08:27:18Z</time>
      </trkpt>
      <trkpt lat="59.9779896" lon="17.7389197">
        <ele>74.6395</ele>
        <time>2013-06-02T08:27:19Z</time>
      </trkpt>
      <trkpt lat="59.9779477" lon="17.7388994">
        <ele>76.5621</ele>
        <time>2013-06-02T08:27:20Z</time>
      </trkpt>
      <trkpt lat="59.9778952" lon="17.7388886">
        <ele>78.9655</ele>
        <time>2013-06-02T08:27:21Z</time>
      </trkpt>
      <trkpt lat="59.9778305" lon="17.7388865">
        <ele>78.4847</ele>
        <time>2013-06-02T08:27:22Z</time>
      </trkpt>
      <trkpt lat="59.9777472" lon="17.7388912">
        <ele>76.0814</ele>
        <time>2013-06-02T08:27:23Z</time>
      </trkpt>
      <trkpt lat="59.9776662" lon="17.7389052">
        <ele>73.6782</ele>
        <time>2013-06-02T08:27:24Z</time>
      </trkpt>
      <trkpt lat="59.9775929" lon="17.7389271">
        <ele>73.1976</ele>
        <time>2013-06-02T08:27:25Z</time>
      </trkpt>
      <trkpt lat="59.9775077" lon="17.7389518">
        <ele>70.3135</ele>
        <time>2013-06-02T08:27:26Z</time>
      </trkpt>
      <trkpt lat="59.9774161" lon="17.7389861">
        <ele>67.4297</ele>
        <time>2013-06-02T08:27:27Z</time>
      </trkpt>
      <trkpt lat="59.9773349" lon="17.7390206">
        <ele>65.5071</ele>
        <time>2013-06-02T08:27:28Z</time>
      </trkpt>
      <trkpt lat="59.9772474" lon="17.7390592">
        <ele>64.0651</ele>
        <time>2013-06-02T08:27:29Z</time>
      </trkpt>
      <trkpt lat="59.9771524" lon="17.7391041">
        <ele>62.1423</ele>
        <time>2013-06-02T08:27:30Z</time>
      </trkpt>
      <trkpt lat="59.9770697" lon="17.7391545">
        <ele>61.6617</ele>
        <time>2013-06-02T08:27:31Z</time>
      </trkpt>
      <trkpt lat="59.9769645" lon="17.7392028">
        <ele>58.7777</ele>
        <time>2013-06-02T08:27:32Z</time>
      </trkpt>
      <trkpt lat="59.9768719" lon="17.739246">
        <ele>56.3745</ele>
        <time>2013-06-02T08:27:33Z</time>
      </trkpt>
      <trkpt lat="59.9767915" lon="17.7392886">
        <ele>55.4131</ele>
        <time>2013-06-02T08:27:34Z</time>
      </trkpt>
      <trkpt lat="59.976711" lon="17.7393438">
        <ele>54.4518</ele>
        <time>2013-06-02T08:27:35Z</time>
      </trkpt>
      <trkpt lat="59.9766307" lon="17.739407">
        <ele>53.9712</ele>
        <time>2013-06-02T08:27:36Z</time>
      </trkpt>
      <trkpt lat="59.9765557" lon="17.7394864">
        <ele>52.5292</ele>
        <time>2013-06-02T08:27:37Z</time>
      </trkpt>
      <trkpt lat="59.9764867" lon="17.7395694">
        <ele>50.126</ele>
        <time>2013-06-02T08:27:38Z</time>
      </trkpt>
      <trkpt lat="59.9764258" lon="17.7396324">
        <ele>48.684</ele>
        <time>2013-06-02T08:27:39Z</time>
      </trkpt>
      <trkpt lat="59.9763621" lon="17.7396645">
        <ele>47.2418</ele>
        <time>2013-06-02T08:27:40Z</time>
      </trkpt>
      <trkpt lat="59.9762984" lon="17.7396634">
        <ele>46.2806</ele>
        <time>2013-06-02T08:27:41Z</time>
      </trkpt>
      <trkpt lat="59.9762344" lon="17.7396257">
        <ele>45.3192</ele>
        <time>2013-06-02T08:27:42Z</time>
      </trkpt>
      <trkpt lat="59.976172" lon="17.7395491">
        <ele>43.3966</ele>
        <time>2013-06-02T08:27:43Z</time>
      </trkpt>
      <trkpt lat="59.9761112" lon="17.7394495">
        <ele>41.474</ele>
        <time>2013-06-02T08:27:44Z</time>
      </trkpt>
      <trkpt lat="59.9760474" lon="17.7393389">
        <ele>40.0321</ele>
        <time>2013-06-02T08:27:45Z</time>
      </trkpt>
      <trkpt lat="59.9759801" lon="17.7392231">
        <ele>39.0707</ele>
        <time>2013-06-02T08:27:46Z</time>
      </trkpt>
      <trkpt lat="59.9759109" lon="17.7391026">
        <ele>37.6287</ele>
        <time>2013-06-02T08:27:47Z</time>
      </trkpt>
      <trkpt lat="59.9758404" lon="17.7389787">
        <ele>36.6675</ele>
        <time>2013-06-02T08:27:48Z</time>
      </trkpt>
      <trkpt lat="59.9757669" lon="17.7388513">
        <ele>35.7061</ele>
        <time>2013-06-02T08:27:49Z</time>
      </trkpt>
      <trkpt lat="59.9756927" lon="17.7387294">
        <ele>34.7449</ele>
        <time>2013-06-02T08:27:50Z</time>
      </trkpt>
      <trkpt lat="59.9756204" lon="17.7386075">
        <ele>33.3029</ele>
        <time>2013-06-02T08:27:51Z</time>
      </trkpt>
      <trkpt lat="59.9755489" lon="17.7384882">
        <ele>32.3416</ele>
        <time>2013-06-02T08:27:52Z</time>
      </trkpt>
      <trkpt lat="59.9754778" lon="17.7383721">
        <ele>31.8607</ele>
        <time>2013-06-02T08:27:53Z</time>
      </trkpt>
      <trkpt lat="59.9754088" lon="17.7382575">
        <ele>30.8995</ele>
        <time>2013-06-02T08:27:54Z</time>
      </trkpt>
      <trkpt lat="59.9753407" lon="17.7381448">
        <ele>30.4188</ele>
        <time>2013-06-02T08:27:55Z</time>
      </trkpt>
      <trkpt lat="59.9752737" lon="17.7380344">
        <ele>29.9381</ele>
        <time>2013-06-02T08:27:56Z</time>
      </trkpt>
      <trkpt lat="59.975208" lon="17.7379241">
        <ele>29.9381</ele>
        <time>2013-06-02T08:27:57Z</time>
      </trkpt>
      <trkpt lat="59.9751432" lon="17.737813">
        <ele>29.4575</ele>
        <time>2013-06-02T08:27:58Z</time>
      </trkpt>
      <trkpt lat="59.9750789" lon="17.7377002">
        <ele>28.9769</ele>
        <time>2013-06-02T08:27:59Z</time>
      </trkpt>
      <trkpt lat="59.9750151" lon="17.7375854">
        <ele>28.4962</ele>
        <time>2013-06-02T08:28:00Z</time>
      </trkpt>
      <trkpt lat="59.9749526" lon="17.7374672">
        <ele>28.4962</ele>
        <time>2013-06-02T08:28:01Z</time>
      </trkpt>
      <trkpt lat="59.974892" lon="17.7373429">
        <ele>28.0155</ele>
        <time>2013-06-02T08:28:02Z</time>
      </trkpt>
      <trkpt lat="59.9748335" lon="17.7372118">
        <ele>28.0155</ele>
        <time>2013-06-02T08:28:03Z</time>
      </trkpt>
      <trkpt lat="59.9747776" lon="17.7370725">
        <ele>28.0155</ele>
        <time>2013-06-02T08:28:04Z</time>
      </trkpt>
      <trkpt lat="59.9747245" lon="17.7369263">
        <ele>28.0155</ele>
        <time>2013-06-02T08:28:05Z</time>
      </trkpt>
      <trkpt lat="59.9746729" lon="17.736776">
        <ele>28.0155</ele>
        <time>2013-06-02T08:28:06Z</time>
      </trkpt>
      <trkpt lat="59.9746248" lon="17.7366218">
        <ele>28.0155</ele>
        <time>2013-06-02T08:28:07Z</time>
      </trkpt>
      <trkpt lat="59.974581" lon="17.7364638">
        <ele>28.0155</ele>
        <time>2013-06-02T08:28:08Z</time>
      </trkpt>
      <trkpt lat="59.9745341" lon="17.7362991">
        <ele>27.0543</ele>
        <time>2013-06-02T08:28:09Z</time>
      </trkpt>
      <trkpt lat="59.974492" lon="17.7361296">
        <ele>26.0929</ele>
        <time>2013-06-02T08:28:10Z</time>
      </trkpt>
      <trkpt lat="59.974466" lon="17.7359555">
        <ele>26.5736</ele>
        <time>2013-06-02T08:28:11Z</time>
      </trkpt>
      <trkpt lat="59.9744283" lon="17.7357781">
        <ele>25.6123</ele>
        <time>2013-06-02T08:28:12Z</time>
      </trkpt>
      <trkpt lat="59.9743956" lon="17.7355985">
        <ele>25.1317</ele>
        <time>2013-06-02T08:28:13Z</time>
      </trkpt>
      <trkpt lat="59.9743663" lon="17.7354148">
        <ele>24.651</ele>
        <time>2013-06-02T08:28:14Z</time>
      </trkpt>
      <trkpt lat="59.9743429" lon="17.735228">
        <ele>24.1703</ele>
        <time>2013-06-02T08:28:15Z</time>
      </trkpt>
      <trkpt lat="59.9743245" lon="17.7350393">
        <ele>23.6896</ele>
        <time>2013-06-02T08:28:16Z</time>
      </trkpt>
      <trkpt lat="59.97431" lon="17.7348476">
        <ele>23.209</ele>
        <time>2013-06-02T08:28:17Z</time>
      </trkpt>
      <trkpt lat="59.9743003" lon="17.7346495">
        <ele>23.6896</ele>
        <time>2013-06-02T08:28:18Z</time>
      </trkpt>
      <trkpt lat="59.9743047" lon="17.734453">
        <ele>24.1703</ele>
        <time>2013-06-02T08:28:19Z</time>
      </trkpt>
      <trkpt lat="59.9743165" lon="17.7342649">
        <ele>25.1317</ele>
        <time>2013-06-02T08:28:20Z</time>
      </trkpt>
      <trkpt lat="59.9743176" lon="17.7340743">
        <ele>24.651</ele>
        <time>2013-06-02T08:28:21Z</time>
      </trkpt>
      <trkpt lat="59.9743289" lon="17.7338821">
        <ele>25.6123</ele>
        <time>2013-06-02T08:28:22Z</time>
      </trkpt>
      <trkpt lat="59.9743373" lon="17.7336853">
        <ele>26.0929</ele>
        <time>2013-06-02T08:28:23Z</time>
      </trkpt>
      <trkpt lat="59.9743461" lon="17.7334867">
        <ele>26.5736</ele>
        <time>2013-06-02T08:28:24Z</time>
      </trkpt>
      <trkpt lat="59.974351" lon="17.7332905">
        <ele>26.0929</ele>
        <time>2013-06-02T08:28:25Z</time>
      </trkpt>
      <trkpt lat="59.9743547" lon="17.7331015">
        <ele>25.6123</ele>
        <time>2013-06-02T08:28:26Z</time>
      </trkpt>
      <trkpt lat="59.9743567" lon="17.7329149">
        <ele>25.1317</ele>
        <time>2013-06-02T08:28:27Z</time>
      </trkpt>
      <trkpt lat="59.9743614" lon="17.7327277">
        <ele>25.1317</ele>
        <time>2013-06-02T08:28:28Z</time>
      </trkpt>
      <trkpt lat="59.9743619" lon="17.7325449">
        <ele>25.1317</ele>
        <time>2013-06-02T08:28:29Z</time>
      </trkpt>
      <trkpt lat="59.974359" lon="17.7323652">
        <ele>25.1317</ele>
        <time>2013-06-02T08:28:30Z</time>
      </trkpt>
      <trkpt lat="59.9743547" lon="17.7321927">
        <ele>25.1317</ele>
        <time>2013-06-02T08:28:31Z</time>
      </trkpt>
      <trkpt lat="59.9743497" lon="17.7320193">
        <ele>25.1317</ele>
        <time>2013-06-02T08:28:32Z</time>
      </trkpt>
      <trkpt lat="59.9743444" lon="17.7318452">
        <ele>25.1317</ele>
        <time>2013-06-02T08:28:33Z</time>
      </trkpt>
      <trkpt lat="59.974339" lon="17.731672">
        <ele>24.651</ele>
        <time>2013-06-02T08:28:34Z</time>
      </trkpt>
      <trkpt lat="59.974337" lon="17.7314992">
        <ele>24.651</ele>
        <time>2013-06-02T08:28:35Z</time>
      </trkpt>
      <trkpt lat="59.9743391" lon="17.7313276">
        <ele>24.1703</ele>
        <time>2013-06-02T08:28:36Z</time>
      </trkpt>
      <trkpt lat="59.974344" lon="17.7311578">
        <ele>24.1703</ele>
        <time>2013-06-02T08:28:37Z</time>
      </trkpt>
      <trkpt lat="59.9743511" lon="17.73099">
        <ele>24.1703</ele>
        <time>2013-06-02T08:28:38Z</time>
      </trkpt>
      <trkpt lat="59.97436" lon="17.7308226">
        <ele>24.1703</ele>
        <time>2013-06-02T08:28:39Z</time>
      </trkpt>
      <trkpt lat="59.9743708" lon="17.7306557">
        <ele>24.1703</ele>
        <time>2013-06-02T08:28:40Z</time>
      </trkpt>
      <trkpt lat="59.9743862" lon="17.7304979">
        <ele>23.6896</ele>
        <time>2013-06-02T08:28:41Z</time>
      </trkpt>
      <trkpt lat="59.9744025" lon="17.7303412">
        <ele>23.6896</ele>
        <time>2013-06-02T08:28:42Z</time>
      </trkpt>
      <trkpt lat="59.9744181" lon="17.7301881">
        <ele>23.6896</ele>
        <time>2013-06-02T08:28:43Z</time>
      </trkpt>
      <trkpt lat="59.974432" lon="17.7300353">
        <ele>23.6896</ele>
        <time>2013-06-02T08:28:44Z</time>
      </trkpt>
      <trkpt lat="59.9744444" lon="17.7298834">
        <ele>23.6896</ele>
        <time>2013-06-02T08:28:45Z</time>
      </trkpt>
      <trkpt lat="59.9744542" lon="17.7297317">
        <ele>23.6896</ele>
        <time>2013-06-02T08:28:46Z</time>
      </trkpt>
      <trkpt lat="59.9744619" lon="17.7295801">
        <ele>23.209</ele>
        <time>2013-06-02T08:28:47Z</time>
      </trkpt>
      <trkpt lat="59.9744665" lon="17.7294275">
        <ele>23.209</ele>
        <time>2013-06-02T08:28:48Z</time>
      </trkpt>
      <trkpt lat="59.9744662" lon="17.7292765">
        <ele>23.209</ele>
        <time>2013-06-02T08:28:49Z</time>
      </trkpt>
      <trkpt lat="59.974464" lon="17.7291252">
        <ele>23.209</ele>
        <time>2013-06-02T08:28:50Z</time>
      </trkpt>
      <trkpt lat="59.9744625" lon="17.7289723">
        <ele>23.209</ele>
        <time>2013-06-02T08:28:51Z</time>
      </trkpt>
      <trkpt lat="59.9744594" lon="17.7288205">
        <ele>23.209</ele>
        <time>2013-06-02T08:28:52Z</time>
      </trkpt>
      <trkpt lat="59.9744573" lon="17.7286656">
        <ele>23.209</ele>
        <time>2013-06-02T08:28:53Z</time>
      </trkpt>
      <trkpt lat="59.9744553" lon="17.7285117">
        <ele>23.209</ele>
        <time>2013-06-02T08:28:54Z</time>
      </trkpt>
      <trkpt lat="59.9744533" lon="17.728357">
        <ele>23.6896</ele>
        <time>2013-06-02T08:28:55Z</time>
      </trkpt>
      <trkpt lat="59.9744506" lon="17.7282031">
        <ele>24.651</ele>
        <time>2013-06-02T08:28:56Z</time>
      </trkpt>
      <trkpt lat="59.9744468" lon="17.7280501">
        <ele>25.1317</ele>
        <time>2013-06-02T08:28:57Z</time>
      </trkpt>
      <trkpt lat="59.9744437" lon="17.7278962">
        <ele>25.6123</ele>
        <time>2013-06-02T08:28:58Z</time>
      </trkpt>
      <trkpt lat="59.9744426" lon="17.727741">
        <ele>26.0929</ele>
        <time>2013-06-02T08:28:59Z</time>
      </trkpt>
      <trkpt lat="59.974446" lon="17.7276013">
        <ele>26.5736</ele>
        <time>2013-06-02T08:29:00Z</time>
      </trkpt>
      <trkpt lat="59.9744569" lon="17.7274516">
        <ele>27.0543</ele>
        <time>2013-06-02T08:29:01Z</time>
      </trkpt>
      <trkpt lat="59.9744578" lon="17.7273016">
        <ele>27.5349</ele>
        <time>2013-06-02T08:29:02Z</time>
      </trkpt>
      <trkpt lat="59.9744556" lon="17.7271577">
        <ele>28.0155</ele>
        <time>2013-06-02T08:29:03Z</time>
      </trkpt>
      <trkpt lat="59.9744553" lon="17.7270158">
        <ele>28.0155</ele>
        <time>2013-06-02T08:29:04Z</time>
      </trkpt>
      <trkpt lat="59.9744528" lon="17.7268796">
        <ele>28.4962</ele>
        <time>2013-06-02T08:29:05Z</time>
      </trkpt>
      <trkpt lat="59.9744506" lon="17.7267445">
        <ele>28.4962</ele>
        <time>2013-06-02T08:29:06Z</time>
      </trkpt>
      <trkpt lat="59.974446" lon="17.7266179">
        <ele>28.4962</ele>
        <time>2013-06-02T08:29:07Z</time>
      </trkpt>
      <trkpt lat="59.9744455" lon="17.7264926">
        <ele>28.4962</ele>
        <time>2013-06-02T08:29:08Z</time>
      </trkpt>
      <trkpt lat="59.9744449" lon="17.7263622">
        <ele>28.4962</ele>
        <time>2013-06-02T08:29:09Z</time>
      </trkpt>
      <trkpt lat="59.9744375" lon="17.7262242">
        <ele>28.9769</ele>
        <time>2013-06-02T08:29:10Z</time>
      </trkpt>
      <trkpt lat="59.9744279" lon="17.7260742">
        <ele>29.9381</ele>
        <time>2013-06-02T08:29:11Z</time>
      </trkpt>
      <trkpt lat="59.9744074" lon="17.7258999">
        <ele>31.8607</ele>
        <time>2013-06-02T08:29:12Z</time>
      </trkpt>
      <trkpt lat="59.9743998" lon="17.7257753">
        <ele>32.3416</ele>
        <time>2013-06-02T08:29:13Z</time>
      </trkpt>
      <trkpt lat="59.9743896" lon="17.7256373">
        <ele>32.3416</ele>
        <time>2013-06-02T08:29:14Z</time>
      </trkpt>
      <trkpt lat="59.9743727" lon="17.7254919">
        <ele>32.3416</ele>
        <time>2013-06-02T08:29:15Z</time>
      </trkpt>
      <trkpt lat="59.9743532" lon="17.725355">
        <ele>32.3416</ele>
        <time>2013-06-02T08:29:16Z</time>
      </trkpt>
      <trkpt lat="59.9743363" lon="17.7252183">
        <ele>32.3416</ele>
        <time>2013-06-02T08:29:17Z</time>
      </trkpt>
      <trkpt lat="59.974318" lon="17.7250729">
        <ele>32.8223</ele>
        <time>2013-06-02T08:29:18Z</time>
      </trkpt>
      <trkpt lat="59.9742978" lon="17.7249304">
        <ele>32.8223</ele>
        <time>2013-06-02T08:29:19Z</time>
      </trkpt>
      <trkpt lat="59.9742766" lon="17.7247885">
        <ele>32.8223</ele>
        <time>2013-06-02T08:29:20Z</time>
      </trkpt>
      <trkpt lat="59.9742533" lon="17.7246475">
        <ele>32.3416</ele>
        <time>2013-06-02T08:29:21Z</time>
      </trkpt>
      <trkpt lat="59.9742304" lon="17.7245045">
        <ele>31.8607</ele>
        <time>2013-06-02T08:29:22Z</time>
      </trkpt>
      <trkpt lat="59.9742087" lon="17.7243562">
        <ele>31.8607</ele>
        <time>2013-06-02T08:29:23Z</time>
      </trkpt>
      <trkpt lat="59.9741875" lon="17.7242082">
        <ele>31.8607</ele>
        <time>2013-06-02T08:29:24Z</time>
      </trkpt>
      <trkpt lat="59.9741642" lon="17.7240616">
        <ele>31.3801</ele>
        <time>2013-06-02T08:29:25Z</time>
      </trkpt>
      <trkpt lat="59.9741404" lon="17.7239144">
        <ele>31.3801</ele>
        <time>2013-06-02T08:29:26Z</time>
      </trkpt>
      <trkpt lat="59.9741185" lon="17.7237667">
        <ele>31.3801</ele>
        <time>2013-06-02T08:29:27Z</time>
      </trkpt>
      <trkpt lat="59.9740984" lon="17.7236175">
        <ele>31.3801</ele>
        <time>2013-06-02T08:29:28Z</time>
      </trkpt>
      <trkpt lat="59.9740782" lon="17.7234683">
        <ele>31.3801</ele>
        <time>2013-06-02T08:29:29Z</time>
      </trkpt>
      <trkpt lat="59.9740554" lon="17.7233205">
        <ele>31.3801</ele>
        <time>2013-06-02T08:29:30Z</time>
      </trkpt>
      <trkpt lat="59.9740298" lon="17.7231753">
        <ele>31.3801</ele>
        <time>2013-06-02T08:29:31Z</time>
      </trkpt>
      <trkpt lat="59.9740052" lon="17.7230281">
        <ele>31.3801</ele>
        <time>2013-06-02T08:29:32Z</time>
      </trkpt>
      <trkpt lat="59.9739746" lon="17.7228866">
        <ele>31.3801</ele>
        <time>2013-06-02T08:29:33Z</time>
      </trkpt>
      <trkpt lat="59.9739409" lon="17.7227462">
        <ele>31.3801</ele>
        <time>2013-06-02T08:29:34Z</time>
      </trkpt>
      <trkpt lat="59.9739098" lon="17.7226044">
        <ele>31.3801</ele>
        <time>2013-06-02T08:29:35Z</time>
      </trkpt>
      <trkpt lat="59.9738745" lon="17.7224662">
        <ele>31.3801</ele>
        <time>2013-06-02T08:29:36Z</time>
      </trkpt>
      <trkpt lat="59.9738357" lon="17.7223315">
        <ele>31.3801</ele>
        <time>2013-06-02T08:29:37Z</time>
      </trkpt>
      <trkpt lat="59.9737954" lon="17.7221986">
        <ele>30.8995</ele>
        <time>2013-06-02T08:29:38Z</time>
      </trkpt>
      <trkpt lat="59.9737528" lon="17.722066">
        <ele>31.3801</ele>
        <time>2013-06-02T08:29:39Z</time>
      </trkpt>
      <trkpt lat="59.9737077" lon="17.7219378">
        <ele>31.3801</ele>
        <time>2013-06-02T08:29:40Z</time>
      </trkpt>
      <trkpt lat="59.9736603" lon="17.7218041">
        <ele>31.8607</ele>
        <time>2013-06-02T08:29:41Z</time>
      </trkpt>
      <trkpt lat="59.9736114" lon="17.721674">
        <ele>32.3416</ele>
        <time>2013-06-02T08:29:42Z</time>
      </trkpt>
      <trkpt lat="59.9735602" lon="17.7215482">
        <ele>32.8223</ele>
        <time>2013-06-02T08:29:43Z</time>
      </trkpt>
      <trkpt lat="59.9735066" lon="17.7214284">
        <ele>32.8223</ele>
        <time>2013-06-02T08:29:44Z</time>
      </trkpt>
      <trkpt lat="59.9734503" lon="17.7213151">
        <ele>33.3029</ele>
        <time>2013-06-02T08:29:45Z</time>
      </trkpt>
      <trkpt lat="59.9733939" lon="17.7212031">
        <ele>33.3029</ele>
        <time>2013-06-02T08:29:46Z</time>
      </trkpt>
      <trkpt lat="59.9733374" lon="17.7210923">
        <ele>33.7834</ele>
        <time>2013-06-02T08:29:47Z</time>
      </trkpt>
      <trkpt lat="59.9732803" lon="17.720985">
        <ele>33.7834</ele>
        <time>2013-06-02T08:29:48Z</time>
      </trkpt>
      <trkpt lat="59.9732224" lon="17.7208816">
        <ele>33.7834</ele>
        <time>2013-06-02T08:29:49Z</time>
      </trkpt>
      <trkpt lat="59.9731033" lon="17.7206895">
        <ele>33.7834</ele>
        <time>2013-06-02T08:29:51Z</time>
      </trkpt>
      <trkpt lat="59.9730411" lon="17.7206038">
        <ele>33.7834</ele>
        <time>2013-06-02T08:29:52Z</time>
      </trkpt>
      <trkpt lat="59.9729777" lon="17.7205221">
        <ele>33.7834</ele>
        <time>2013-06-02T08:29:53Z</time>
      </trkpt>
      <trkpt lat="59.9729131" lon="17.7204454">
        <ele>34.2642</ele>
        <time>2013-06-02T08:29:54Z</time>
      </trkpt>
      <trkpt lat="59.9728477" lon="17.7203742">
        <ele>33.7834</ele>
        <time>2013-06-02T08:29:55Z</time>
      </trkpt>
      <trkpt lat="59.9727811" lon="17.720305">
        <ele>33.7834</ele>
        <time>2013-06-02T08:29:56Z</time>
      </trkpt>
      <trkpt lat="59.9727141" lon="17.720237">
        <ele>33.3029</ele>
        <time>2013-06-02T08:29:57Z</time>
      </trkpt>
      <trkpt lat="59.9726462" lon="17.7201708">
        <ele>32.8223</ele>
        <time>2013-06-02T08:29:58Z</time>
      </trkpt>
      <trkpt lat="59.9725775" lon="17.7201065">
        <ele>32.8223</ele>
        <time>2013-06-02T08:29:59Z</time>
      </trkpt>
      <trkpt lat="59.9725089" lon="17.720042">
        <ele>32.8223</ele>
        <time>2013-06-02T08:30:00Z</time>
      </trkpt>
      <trkpt lat="59.9724398" lon="17.7199776">
        <ele>32.8223</ele>
        <time>2013-06-02T08:30:01Z</time>
      </trkpt>
      <trkpt lat="59.9723703" lon="17.7199159">
        <ele>32.8223</ele>
        <time>2013-06-02T08:30:02Z</time>
      </trkpt>
      <trkpt lat="59.9723005" lon="17.7198549">
        <ele>32.8223</ele>
        <time>2013-06-02T08:30:03Z</time>
      </trkpt>
      <trkpt lat="59.9722299" lon="17.7197925">
        <ele>33.3029</ele>
        <time>2013-06-02T08:30:04Z</time>
      </trkpt>
      <trkpt lat="59.9721599" lon="17.7197303">
        <ele>33.3029</ele>
        <time>2013-06-02T08:30:05Z</time>
      </trkpt>
      <trkpt lat="59.9720905" lon="17.7196694">
        <ele>33.7834</ele>
        <time>2013-06-02T08:30:06Z</time>
      </trkpt>
      <trkpt lat="59.9720212" lon="17.7196094">
        <ele>34.2642</ele>
        <time>2013-06-02T08:30:07Z</time>
      </trkpt>
      <trkpt lat="59.9719523" lon="17.7195485">
        <ele>34.2642</ele>
        <time>2013-06-02T08:30:08Z</time>
      </trkpt>
      <trkpt lat="59.9718838" lon="17.7194866">
        <ele>34.7449</ele>
        <time>2013-06-02T08:30:09Z</time>
      </trkpt>
      <trkpt lat="59.9718151" lon="17.7194245">
        <ele>35.2255</ele>
        <time>2013-06-02T08:30:10Z</time>
      </trkpt>
      <trkpt lat="59.9717461" lon="17.7193634">
        <ele>35.2255</ele>
        <time>2013-06-02T08:30:11Z</time>
      </trkpt>
      <trkpt lat="59.971676" lon="17.719303">
        <ele>35.7061</ele>
        <time>2013-06-02T08:30:12Z</time>
      </trkpt>
      <trkpt lat="59.971606" lon="17.7192396">
        <ele>35.7061</ele>
        <time>2013-06-02T08:30:13Z</time>
      </trkpt>
      <trkpt lat="59.9715358" lon="17.7191737">
        <ele>36.1868</ele>
        <time>2013-06-02T08:30:14Z</time>
      </trkpt>
      <trkpt lat="59.9714652" lon="17.7191084">
        <ele>36.1868</ele>
        <time>2013-06-02T08:30:15Z</time>
      </trkpt>
      <trkpt lat="59.9713944" lon="17.7190431">
        <ele>36.6675</ele>
        <time>2013-06-02T08:30:16Z</time>
      </trkpt>
      <trkpt lat="59.9713238" lon="17.7189795">
        <ele>36.6675</ele>
        <time>2013-06-02T08:30:17Z</time>
      </trkpt>
      <trkpt lat="59.9712529" lon="17.7189183">
        <ele>37.1481</ele>
        <time>2013-06-02T08:30:18Z</time>
      </trkpt>
      <trkpt lat="59.9711825" lon="17.7188561">
        <ele>37.1481</ele>
        <time>2013-06-02T08:30:19Z</time>
      </trkpt>
      <trkpt lat="59.9711131" lon="17.7187925">
        <ele>37.6287</ele>
        <time>2013-06-02T08:30:20Z</time>
      </trkpt>
      <trkpt lat="59.9710442" lon="17.7187292">
        <ele>37.6287</ele>
        <time>2013-06-02T08:30:21Z</time>
      </trkpt>
      <trkpt lat="59.9709747" lon="17.7186674">
        <ele>38.1094</ele>
        <time>2013-06-02T08:30:22Z</time>
      </trkpt>
      <trkpt lat="59.9709044" lon="17.7186065">
        <ele>38.5901</ele>
        <time>2013-06-02T08:30:23Z</time>
      </trkpt>
      <trkpt lat="59.970834" lon="17.7185448">
        <ele>38.5901</ele>
        <time>2013-06-02T08:30:24Z</time>
      </trkpt>
      <trkpt lat="59.9707634" lon="17.7184806">
        <ele>38.5901</ele>
        <time>2013-06-02T08:30:25Z</time>
      </trkpt>
      <trkpt lat="59.9706928" lon="17.7184137">
        <ele>38.5901</ele>
        <time>2013-06-02T08:30:26Z</time>
      </trkpt>
      <trkpt lat="59.970623" lon="17.7183481">
        <ele>39.0707</ele>
        <time>2013-06-02T08:30:27Z</time>
      </trkpt>
      <trkpt lat="59.9705535" lon="17.7182897">
        <ele>38.1094</ele>
        <time>2013-06-02T08:30:28Z</time>
      </trkpt>
      <trkpt lat="59.970484" lon="17.7182297">
        <ele>38.5901</ele>
        <time>2013-06-02T08:30:29Z</time>
      </trkpt>
      <trkpt lat="59.9704152" lon="17.718166">
        <ele>38.5901</ele>
        <time>2013-06-02T08:30:30Z</time>
      </trkpt>
      <trkpt lat="59.9703464" lon="17.7181012">
        <ele>39.0707</ele>
        <time>2013-06-02T08:30:31Z</time>
      </trkpt>
      <trkpt lat="59.9702763" lon="17.7180408">
        <ele>38.1094</ele>
        <time>2013-06-02T08:30:32Z</time>
      </trkpt>
      <trkpt lat="59.9702054" lon="17.7179827">
        <ele>37.6287</ele>
        <time>2013-06-02T08:30:33Z</time>
      </trkpt>
      <trkpt lat="59.9701344" lon="17.7179228">
        <ele>37.1481</ele>
        <time>2013-06-02T08:30:34Z</time>
      </trkpt>
      <trkpt lat="59.9700642" lon="17.7178614">
        <ele>36.6675</ele>
        <time>2013-06-02T08:30:35Z</time>
      </trkpt>
      <trkpt lat="59.9699952" lon="17.7177999">
        <ele>36.1868</ele>
        <time>2013-06-02T08:30:36Z</time>
      </trkpt>
      <trkpt lat="59.9699267" lon="17.7177391">
        <ele>35.7061</ele>
        <time>2013-06-02T08:30:37Z</time>
      </trkpt>
      <trkpt lat="59.9698581" lon="17.7176813">
        <ele>35.7061</ele>
        <time>2013-06-02T08:30:38Z</time>
      </trkpt>
      <trkpt lat="59.9697889" lon="17.7176282">
        <ele>35.2255</ele>
        <time>2013-06-02T08:30:39Z</time>
      </trkpt>
      <trkpt lat="59.9697199" lon="17.7175755">
        <ele>35.2255</ele>
        <time>2013-06-02T08:30:40Z</time>
      </trkpt>
      <trkpt lat="59.9696513" lon="17.7175237">
        <ele>35.2255</ele>
        <time>2013-06-02T08:30:41Z</time>
      </trkpt>
      <trkpt lat="59.9695824" lon="17.717477">
        <ele>34.7449</ele>
        <time>2013-06-02T08:30:42Z</time>
      </trkpt>
      <trkpt lat="59.969514" lon="17.7174337">
        <ele>34.7449</ele>
        <time>2013-06-02T08:30:43Z</time>
      </trkpt>
      <trkpt lat="59.9694466" lon="17.7173947">
        <ele>34.2642</ele>
        <time>2013-06-02T08:30:44Z</time>
      </trkpt>
      <trkpt lat="59.9693787" lon="17.7173601">
        <ele>33.7834</ele>
        <time>2013-06-02T08:30:45Z</time>
      </trkpt>
      <trkpt lat="59.9693103" lon="17.7173275">
        <ele>33.7834</ele>
        <time>2013-06-02T08:30:46Z</time>
      </trkpt>
      <trkpt lat="59.9692413" lon="17.7172969">
        <ele>33.3029</ele>
        <time>2013-06-02T08:30:47Z</time>
      </trkpt>
      <trkpt lat="59.9691717" lon="17.7172684">
        <ele>32.8223</ele>
        <time>2013-06-02T08:30:48Z</time>
      </trkpt>
      <trkpt lat="59.9691015" lon="17.7172421">
        <ele>32.8223</ele>
        <time>2013-06-02T08:30:49Z</time>
      </trkpt>
      <trkpt lat="59.9690306" lon="17.7172159">
        <ele>32.3416</ele>
        <time>2013-06-02T08:30:50Z</time>
      </trkpt>
      <trkpt lat="59.9689587" lon="17.7171871">
        <ele>32.3416</ele>
        <time>2013-06-02T08:30:51Z</time>
      </trkpt>
      <trkpt lat="59.9688861" lon="17.717158">
        <ele>31.8607</ele>
        <time>2013-06-02T08:30:52Z</time>
      </trkpt>
      <trkpt lat="59.9688131" lon="17.7171296">
        <ele>31.8607</ele>
        <time>2013-06-02T08:30:53Z</time>
      </trkpt>
      <trkpt lat="59.9687396" lon="17.7171">
        <ele>31.8607</ele>
        <time>2013-06-02T08:30:54Z</time>
      </trkpt>
      <trkpt lat="59.968665" lon="17.717068">
        <ele>31.3801</ele>
        <time>2013-06-02T08:30:55Z</time>
      </trkpt>
      <trkpt lat="59.9685893" lon="17.7170322">
        <ele>31.3801</ele>
        <time>2013-06-02T08:30:56Z</time>
      </trkpt>
      <trkpt lat="59.9685127" lon="17.7169909">
        <ele>31.3801</ele>
        <time>2013-06-02T08:30:57Z</time>
      </trkpt>
      <trkpt lat="59.9684353" lon="17.716943">
        <ele>30.8995</ele>
        <time>2013-06-02T08:30:58Z</time>
      </trkpt>
      <trkpt lat="59.9683584" lon="17.7168808">
        <ele>30.4188</ele>
        <time>2013-06-02T08:30:59Z</time>
      </trkpt>
      <trkpt lat="59.9682806" lon="17.7168091">
        <ele>29.9381</ele>
        <time>2013-06-02T08:31:00Z</time>
      </trkpt>
      <trkpt lat="59.9682029" lon="17.7167262">
        <ele>29.4575</ele>
        <time>2013-06-02T08:31:01Z</time>
      </trkpt>
      <trkpt lat="59.9681258" lon="17.7166309">
        <ele>28.9769</ele>
        <time>2013-06-02T08:31:02Z</time>
      </trkpt>
      <trkpt lat="59.9680504" lon="17.7165211">
        <ele>28.4962</ele>
        <time>2013-06-02T08:31:03Z</time>
      </trkpt>
      <trkpt lat="59.9679761" lon="17.7163987">
        <ele>28.0155</ele>
        <time>2013-06-02T08:31:04Z</time>
      </trkpt>
      <trkpt lat="59.9679035" lon="17.7162641">
        <ele>27.0543</ele>
        <time>2013-06-02T08:31:05Z</time>
      </trkpt>
      <trkpt lat="59.9678352" lon="17.7161118">
        <ele>26.5736</ele>
        <time>2013-06-02T08:31:06Z</time>
      </trkpt>
      <trkpt lat="59.9677717" lon="17.715945">
        <ele>25.1317</ele>
        <time>2013-06-02T08:31:07Z</time>
      </trkpt>
      <trkpt lat="59.9677122" lon="17.7157673">
        <ele>24.1703</ele>
        <time>2013-06-02T08:31:08Z</time>
      </trkpt>
      <trkpt lat="59.9676588" lon="17.7155802">
        <ele>22.7283</ele>
        <time>2013-06-02T08:31:09Z</time>
      </trkpt>
      <trkpt lat="59.9676134" lon="17.7153876">
        <ele>22.7283</ele>
        <time>2013-06-02T08:31:10Z</time>
      </trkpt>
      <trkpt lat="59.96757" lon="17.7151891">
        <ele>22.2476</ele>
        <time>2013-06-02T08:31:11Z</time>
      </trkpt>
      <trkpt lat="59.9675357" lon="17.7149788">
        <ele>21.2864</ele>
        <time>2013-06-02T08:31:12Z</time>
      </trkpt>
      <trkpt lat="59.967504" lon="17.714772">
        <ele>20.325</ele>
        <time>2013-06-02T08:31:13Z</time>
      </trkpt>
      <trkpt lat="59.9674787" lon="17.7145701">
        <ele>19.8444</ele>
        <time>2013-06-02T08:31:14Z</time>
      </trkpt>
      <trkpt lat="59.9674574" lon="17.7143743">
        <ele>19.8444</ele>
        <time>2013-06-02T08:31:15Z</time>
      </trkpt>
      <trkpt lat="59.9674343" lon="17.7141882">
        <ele>20.325</ele>
        <time>2013-06-02T08:31:16Z</time>
      </trkpt>
      <trkpt lat="59.9674135" lon="17.7140132">
        <ele>21.767</ele>
        <time>2013-06-02T08:31:17Z</time>
      </trkpt>
      <trkpt lat="59.9673927" lon="17.7138468">
        <ele>22.2476</ele>
        <time>2013-06-02T08:31:18Z</time>
      </trkpt>
      <trkpt lat="59.9673746" lon="17.7136883">
        <ele>22.7283</ele>
        <time>2013-06-02T08:31:19Z</time>
      </trkpt>
      <trkpt lat="59.967357" lon="17.7135346">
        <ele>22.7283</ele>
        <time>2013-06-02T08:31:20Z</time>
      </trkpt>
      <trkpt lat="59.9673393" lon="17.7133892">
        <ele>23.209</ele>
        <time>2013-06-02T08:31:21Z</time>
      </trkpt>
      <trkpt lat="59.9673177" lon="17.7132526">
        <ele>23.6896</ele>
        <time>2013-06-02T08:31:22Z</time>
      </trkpt>
      <trkpt lat="59.9673005" lon="17.7131229">
        <ele>24.1703</ele>
        <time>2013-06-02T08:31:23Z</time>
      </trkpt>
      <trkpt lat="59.9672742" lon="17.7129998">
        <ele>24.651</ele>
        <time>2013-06-02T08:31:24Z</time>
      </trkpt>
      <trkpt lat="59.9672444" lon="17.7128789">
        <ele>24.651</ele>
        <time>2013-06-02T08:31:25Z</time>
      </trkpt>
      <trkpt lat="59.9672124" lon="17.7127602">
        <ele>24.651</ele>
        <time>2013-06-02T08:31:26Z</time>
      </trkpt>
      <trkpt lat="59.9671799" lon="17.7126422">
        <ele>24.651</ele>
        <time>2013-06-02T08:31:27Z</time>
      </trkpt>
      <trkpt lat="59.967146" lon="17.7125254">
        <ele>24.1703</ele>
        <time>2013-06-02T08:31:28Z</time>
      </trkpt>
      <trkpt lat="59.9671094" lon="17.7124112">
        <ele>24.1703</ele>
        <time>2013-06-02T08:31:29Z</time>
      </trkpt>
      <trkpt lat="59.9670716" lon="17.7123002">
        <ele>24.1703</ele>
        <time>2013-06-02T08:31:30Z</time>
      </trkpt>
      <trkpt lat="59.9670398" lon="17.7121883">
        <ele>23.6896</ele>
        <time>2013-06-02T08:31:31Z</time>
      </trkpt>
      <trkpt lat="59.9669992" lon="17.7120796">
        <ele>23.6896</ele>
        <time>2013-06-02T08:31:32Z</time>
      </trkpt>
      <trkpt lat="59.9669572" lon="17.7119716">
        <ele>23.6896</ele>
        <time>2013-06-02T08:31:33Z</time>
      </trkpt>
      <trkpt lat="59.966913" lon="17.7118662">
        <ele>23.6896</ele>
        <time>2013-06-02T08:31:34Z</time>
      </trkpt>
      <trkpt lat="59.9668742" lon="17.7117561">
        <ele>23.6896</ele>
        <time>2013-06-02T08:31:35Z</time>
      </trkpt>
      <trkpt lat="59.9668312" lon="17.7116464">
        <ele>24.1703</ele>
        <time>2013-06-02T08:31:36Z</time>
      </trkpt>
      <trkpt lat="59.9667882" lon="17.7115328">
        <ele>23.6896</ele>
        <time>2013-06-02T08:31:37Z</time>
      </trkpt>
      <trkpt lat="59.9667455" lon="17.7114189">
        <ele>23.6896</ele>
        <time>2013-06-02T08:31:38Z</time>
      </trkpt>
      <trkpt lat="59.9667037" lon="17.7113046">
        <ele>24.1703</ele>
        <time>2013-06-02T08:31:39Z</time>
      </trkpt>
      <trkpt lat="59.9666637" lon="17.7111873">
        <ele>24.1703</ele>
        <time>2013-06-02T08:31:40Z</time>
      </trkpt>
      <trkpt lat="59.9666254" lon="17.7110684">
        <ele>24.1703</ele>
        <time>2013-06-02T08:31:41Z</time>
      </trkpt>
      <trkpt lat="59.9665884" lon="17.7109456">
        <ele>24.651</ele>
        <time>2013-06-02T08:31:42Z</time>
      </trkpt>
      <trkpt lat="59.9665484" lon="17.7108229">
        <ele>24.651</ele>
        <time>2013-06-02T08:31:43Z</time>
      </trkpt>
      <trkpt lat="59.9665129" lon="17.7106978">
        <ele>25.1317</ele>
        <time>2013-06-02T08:31:44Z</time>
      </trkpt>
      <trkpt lat="59.9664722" lon="17.7105715">
        <ele>25.1317</ele>
        <time>2013-06-02T08:31:45Z</time>
      </trkpt>
      <trkpt lat="59.9664355" lon="17.7104409">
        <ele>24.651</ele>
        <time>2013-06-02T08:31:46Z</time>
      </trkpt>
      <trkpt lat="59.9663977" lon="17.7103078">
        <ele>24.651</ele>
        <time>2013-06-02T08:31:47Z</time>
      </trkpt>
      <trkpt lat="59.9663617" lon="17.7101737">
        <ele>24.651</ele>
        <time>2013-06-02T08:31:48Z</time>
      </trkpt>
      <trkpt lat="59.9663268" lon="17.7100344">
        <ele>24.651</ele>
        <time>2013-06-02T08:31:49Z</time>
      </trkpt>
      <trkpt lat="59.9662928" lon="17.709893">
        <ele>24.651</ele>
        <time>2013-06-02T08:31:50Z</time>
      </trkpt>
      <trkpt lat="59.9662571" lon="17.7097502">
        <ele>24.651</ele>
        <time>2013-06-02T08:31:51Z</time>
      </trkpt>
      <trkpt lat="59.9662184" lon="17.7096079">
        <ele>24.1703</ele>
        <time>2013-06-02T08:31:52Z</time>
      </trkpt>
      <trkpt lat="59.9661769" lon="17.7094656">
        <ele>24.1703</ele>
        <time>2013-06-02T08:31:53Z</time>
      </trkpt>
      <trkpt lat="59.9661324" lon="17.7093243">
        <ele>23.6896</ele>
        <time>2013-06-02T08:31:54Z</time>
      </trkpt>
      <trkpt lat="59.9660889" lon="17.7091807">
        <ele>23.6896</ele>
        <time>2013-06-02T08:31:55Z</time>
      </trkpt>
      <trkpt lat="59.966045" lon="17.7090362">
        <ele>23.209</ele>
        <time>2013-06-02T08:31:56Z</time>
      </trkpt>
      <trkpt lat="59.9659993" lon="17.7088916">
        <ele>23.209</ele>
        <time>2013-06-02T08:31:57Z</time>
      </trkpt>
      <trkpt lat="59.9659504" lon="17.7087517">
        <ele>23.6896</ele>
        <time>2013-06-02T08:31:58Z</time>
      </trkpt>
      <trkpt lat="59.9658988" lon="17.7086177">
        <ele>23.6896</ele>
        <time>2013-06-02T08:31:59Z</time>
      </trkpt>
      <trkpt lat="59.9658455" lon="17.7084891">
        <ele>23.6896</ele>
        <time>2013-06-02T08:32:00Z</time>
      </trkpt>
      <trkpt lat="59.9657884" lon="17.708368">
        <ele>23.6896</ele>
        <time>2013-06-02T08:32:01Z</time>
      </trkpt>
      <trkpt lat="59.9657273" lon="17.7082566">
        <ele>23.6896</ele>
        <time>2013-06-02T08:32:02Z</time>
      </trkpt>
      <trkpt lat="59.9656615" lon="17.7081552">
        <ele>23.6896</ele>
        <time>2013-06-02T08:32:03Z</time>
      </trkpt>
      <trkpt lat="59.9655932" lon="17.7080643">
        <ele>24.1703</ele>
        <time>2013-06-02T08:32:04Z</time>
      </trkpt>
      <trkpt lat="59.9655217" lon="17.7079863">
        <ele>24.1703</ele>
        <time>2013-06-02T08:32:05Z</time>
      </trkpt>
      <trkpt lat="59.965448" lon="17.7079197">
        <ele>24.1703</ele>
        <time>2013-06-02T08:32:06Z</time>
      </trkpt>
      <trkpt lat="59.9653726" lon="17.7078577">
        <ele>24.651</ele>
        <time>2013-06-02T08:32:07Z</time>
      </trkpt>
      <trkpt lat="59.965297" lon="17.7077965">
        <ele>24.651</ele>
        <time>2013-06-02T08:32:08Z</time>
      </trkpt>
      <trkpt lat="59.9652212" lon="17.7077353">
        <ele>24.651</ele>
        <time>2013-06-02T08:32:09Z</time>
      </trkpt>
      <trkpt lat="59.9651445" lon="17.7076734">
        <ele>25.1317</ele>
        <time>2013-06-02T08:32:10Z</time>
      </trkpt>
      <trkpt lat="59.9650684" lon="17.7076134">
        <ele>25.1317</ele>
        <time>2013-06-02T08:32:11Z</time>
      </trkpt>
      <trkpt lat="59.9649919" lon="17.7075553">
        <ele>25.6123</ele>
        <time>2013-06-02T08:32:12Z</time>
      </trkpt>
      <trkpt lat="59.9649155" lon="17.707497">
        <ele>26.0929</ele>
        <time>2013-06-02T08:32:13Z</time>
      </trkpt>
      <trkpt lat="59.9648389" lon="17.7074392">
        <ele>26.5736</ele>
        <time>2013-06-02T08:32:14Z</time>
      </trkpt>
      <trkpt lat="59.9647631" lon="17.7073838">
        <ele>27.0543</ele>
        <time>2013-06-02T08:32:15Z</time>
      </trkpt>
      <trkpt lat="59.9646864" lon="17.7073297">
        <ele>27.5349</ele>
        <time>2013-06-02T08:32:16Z</time>
      </trkpt>
      <trkpt lat="59.9646094" lon="17.707281">
        <ele>28.4962</ele>
        <time>2013-06-02T08:32:17Z</time>
      </trkpt>
      <trkpt lat="59.9645333" lon="17.7072351">
        <ele>28.4962</ele>
        <time>2013-06-02T08:32:18Z</time>
      </trkpt>
      <trkpt lat="59.9644566" lon="17.7071971">
        <ele>28.9769</ele>
        <time>2013-06-02T08:32:19Z</time>
      </trkpt>
      <trkpt lat="59.964379" lon="17.7071724">
        <ele>29.4575</ele>
        <time>2013-06-02T08:32:20Z</time>
      </trkpt>
      <trkpt lat="59.9643014" lon="17.7071522">
        <ele>29.9381</ele>
        <time>2013-06-02T08:32:21Z</time>
      </trkpt>
      <trkpt lat="59.9642239" lon="17.7071329">
        <ele>31.3801</ele>
        <time>2013-06-02T08:32:22Z</time>
      </trkpt>
      <trkpt lat="59.9641453" lon="17.7071144">
        <ele>31.8607</ele>
        <time>2013-06-02T08:32:23Z</time>
      </trkpt>
      <trkpt lat="59.964067" lon="17.7070978">
        <ele>31.8607</ele>
        <time>2013-06-02T08:32:24Z</time>
      </trkpt>
      <trkpt lat="59.9639892" lon="17.7070838">
        <ele>32.3416</ele>
        <time>2013-06-02T08:32:25Z</time>
      </trkpt>
      <trkpt lat="59.9639122" lon="17.7070679">
        <ele>32.3416</ele>
        <time>2013-06-02T08:32:26Z</time>
      </trkpt>
      <trkpt lat="59.9638357" lon="17.7070511">
        <ele>32.8223</ele>
        <time>2013-06-02T08:32:27Z</time>
      </trkpt>
      <trkpt lat="59.9637563" lon="17.7070414">
        <ele>33.7834</ele>
        <time>2013-06-02T08:32:28Z</time>
      </trkpt>
      <trkpt lat="59.9636772" lon="17.7070375">
        <ele>33.7834</ele>
        <time>2013-06-02T08:32:29Z</time>
      </trkpt>
      <trkpt lat="59.9636004" lon="17.7070336">
        <ele>33.7834</ele>
        <time>2013-06-02T08:32:30Z</time>
      </trkpt>
      <trkpt lat="59.9635232" lon="17.7070311">
        <ele>33.7834</ele>
        <time>2013-06-02T08:32:31Z</time>
      </trkpt>
      <trkpt lat="59.9634454" lon="17.7070346">
        <ele>33.3029</ele>
        <time>2013-06-02T08:32:32Z</time>
      </trkpt>
      <trkpt lat="59.9633678" lon="17.7070367">
        <ele>33.3029</ele>
        <time>2013-06-02T08:32:33Z</time>
      </trkpt>
      <trkpt lat="59.9632891" lon="17.7070414">
        <ele>32.8223</ele>
        <time>2013-06-02T08:32:34Z</time>
      </trkpt>
      <trkpt lat="59.9632102" lon="17.7070463">
        <ele>32.3416</ele>
        <time>2013-06-02T08:32:35Z</time>
      </trkpt>
      <trkpt lat="59.9631306" lon="17.7070518">
        <ele>30.8995</ele>
        <time>2013-06-02T08:32:36Z</time>
      </trkpt>
      <trkpt lat="59.9630552" lon="17.7070512">
        <ele>30.8995</ele>
        <time>2013-06-02T08:32:37Z</time>
      </trkpt>
      <trkpt lat="59.9629797" lon="17.7070481">
        <ele>30.8995</ele>
        <time>2013-06-02T08:32:38Z</time>
      </trkpt>
      <trkpt lat="59.9629048" lon="17.7070465">
        <ele>31.3801</ele>
        <time>2013-06-02T08:32:39Z</time>
      </trkpt>
      <trkpt lat="59.9628304" lon="17.7070424">
        <ele>31.3801</ele>
        <time>2013-06-02T08:32:40Z</time>
      </trkpt>
      <trkpt lat="59.9627585" lon="17.7070336">
        <ele>30.8995</ele>
        <time>2013-06-02T08:32:41Z</time>
      </trkpt>
      <trkpt lat="59.9626877" lon="17.7070216">
        <ele>30.4188</ele>
        <time>2013-06-02T08:32:42Z</time>
      </trkpt>
      <trkpt lat="59.9626149" lon="17.707005">
        <ele>28.9769</ele>
        <time>2013-06-02T08:32:43Z</time>
      </trkpt>
      <trkpt lat="59.9625457" lon="17.7069808">
        <ele>28.4962</ele>
        <time>2013-06-02T08:32:44Z</time>
      </trkpt>
      <trkpt lat="59.9624759" lon="17.7069508">
        <ele>28.0155</ele>
        <time>2013-06-02T08:32:45Z</time>
      </trkpt>
      <trkpt lat="59.9624068" lon="17.7069197">
        <ele>27.0543</ele>
        <time>2013-06-02T08:32:46Z</time>
      </trkpt>
      <trkpt lat="59.9623381" lon="17.7068889">
        <ele>27.0543</ele>
        <time>2013-06-02T08:32:47Z</time>
      </trkpt>
      <trkpt lat="59.9622691" lon="17.7068544">
        <ele>27.0543</ele>
        <time>2013-06-02T08:32:48Z</time>
      </trkpt>
      <trkpt lat="59.9621997" lon="17.7068146">
        <ele>27.0543</ele>
        <time>2013-06-02T08:32:49Z</time>
      </trkpt>
      <trkpt lat="59.9621287" lon="17.7067709">
        <ele>27.5349</ele>
        <time>2013-06-02T08:32:50Z</time>
      </trkpt>
      <trkpt lat="59.9620568" lon="17.7067248">
        <ele>27.5349</ele>
        <time>2013-06-02T08:32:51Z</time>
      </trkpt>
      <trkpt lat="59.961984" lon="17.7066797">
        <ele>28.0155</ele>
        <time>2013-06-02T08:32:52Z</time>
      </trkpt>
      <trkpt lat="59.9619102" lon="17.7066342">
        <ele>28.4962</ele>
        <time>2013-06-02T08:32:53Z</time>
      </trkpt>
      <trkpt lat="59.9618384" lon="17.7065818">
        <ele>28.9769</ele>
        <time>2013-06-02T08:32:54Z</time>
      </trkpt>
      <trkpt lat="59.9617678" lon="17.7065222">
        <ele>28.9769</ele>
        <time>2013-06-02T08:32:55Z</time>
      </trkpt>
      <trkpt lat="59.9616983" lon="17.7064553">
        <ele>29.4575</ele>
        <time>2013-06-02T08:32:56Z</time>
      </trkpt>
      <trkpt lat="59.9616307" lon="17.7063778">
        <ele>29.4575</ele>
        <time>2013-06-02T08:32:57Z</time>
      </trkpt>
      <trkpt lat="59.9615652" lon="17.7062892">
        <ele>29.4575</ele>
        <time>2013-06-02T08:32:58Z</time>
      </trkpt>
      <trkpt lat="59.9615025" lon="17.7061918">
        <ele>28.9769</ele>
        <time>2013-06-02T08:32:59Z</time>
      </trkpt>
      <trkpt lat="59.9614445" lon="17.7060876">
        <ele>29.4575</ele>
        <time>2013-06-02T08:33:00Z</time>
      </trkpt>
      <trkpt lat="59.9613885" lon="17.7059774">
        <ele>29.9381</ele>
        <time>2013-06-02T08:33:01Z</time>
      </trkpt>
      <trkpt lat="59.9613294" lon="17.7058671">
        <ele>29.9381</ele>
        <time>2013-06-02T08:33:02Z</time>
      </trkpt>
      <trkpt lat="59.9612662" lon="17.705762">
        <ele>29.9381</ele>
        <time>2013-06-02T08:33:03Z</time>
      </trkpt>
      <trkpt lat="59.9612071" lon="17.7056536">
        <ele>29.4575</ele>
        <time>2013-06-02T08:33:04Z</time>
      </trkpt>
      <trkpt lat="59.9611485" lon="17.7055462">
        <ele>29.9381</ele>
        <time>2013-06-02T08:33:05Z</time>
      </trkpt>
      <trkpt lat="59.9610878" lon="17.7054388">
        <ele>29.9381</ele>
        <time>2013-06-02T08:33:06Z</time>
      </trkpt>
      <trkpt lat="59.9610258" lon="17.7053379">
        <ele>29.4575</ele>
        <time>2013-06-02T08:33:07Z</time>
      </trkpt>
      <trkpt lat="59.9609616" lon="17.7052397">
        <ele>29.4575</ele>
        <time>2013-06-02T08:33:08Z</time>
      </trkpt>
      <trkpt lat="59.9608974" lon="17.7051422">
        <ele>29.4575</ele>
        <time>2013-06-02T08:33:09Z</time>
      </trkpt>
      <trkpt lat="59.9608332" lon="17.7050499">
        <ele>29.9381</ele>
        <time>2013-06-02T08:33:10Z</time>
      </trkpt>
      <trkpt lat="59.9607689" lon="17.7049584">
        <ele>29.9381</ele>
        <time>2013-06-02T08:33:11Z</time>
      </trkpt>
      <trkpt lat="59.9607026" lon="17.7048736">
        <ele>29.9381</ele>
        <time>2013-06-02T08:33:12Z</time>
      </trkpt>
      <trkpt lat="59.9606384" lon="17.7047871">
        <ele>29.9381</ele>
        <time>2013-06-02T08:33:13Z</time>
      </trkpt>
      <trkpt lat="59.960573" lon="17.704704">
        <ele>29.9381</ele>
        <time>2013-06-02T08:33:14Z</time>
      </trkpt>
      <trkpt lat="59.9605068" lon="17.7046241">
        <ele>29.4575</ele>
        <time>2013-06-02T08:33:15Z</time>
      </trkpt>
      <trkpt lat="59.9604403" lon="17.7045447">
        <ele>29.9381</ele>
        <time>2013-06-02T08:33:16Z</time>
      </trkpt>
      <trkpt lat="59.9603731" lon="17.7044668">
        <ele>29.9381</ele>
        <time>2013-06-02T08:33:17Z</time>
      </trkpt>
      <trkpt lat="59.9603062" lon="17.7043893">
        <ele>29.9381</ele>
        <time>2013-06-02T08:33:18Z</time>
      </trkpt>
      <trkpt lat="59.9602407" lon="17.7043102">
        <ele>30.4188</ele>
        <time>2013-06-02T08:33:19Z</time>
      </trkpt>
      <trkpt lat="59.9601773" lon="17.7042269">
        <ele>30.4188</ele>
        <time>2013-06-02T08:33:20Z</time>
      </trkpt>
      <trkpt lat="59.9601197" lon="17.7041338">
        <ele>30.8995</ele>
        <time>2013-06-02T08:33:21Z</time>
      </trkpt>
      <trkpt lat="59.9600659" lon="17.7040339">
        <ele>31.3801</ele>
        <time>2013-06-02T08:33:22Z</time>
      </trkpt>
      <trkpt lat="59.9600159" lon="17.7039193">
        <ele>31.8607</ele>
        <time>2013-06-02T08:33:23Z</time>
      </trkpt>
      <trkpt lat="59.9599706" lon="17.7037961">
        <ele>32.8223</ele>
        <time>2013-06-02T08:33:24Z</time>
      </trkpt>
      <trkpt lat="59.9599293" lon="17.7036691">
        <ele>32.8223</ele>
        <time>2013-06-02T08:33:25Z</time>
      </trkpt>
      <trkpt lat="59.9598914" lon="17.7035399">
        <ele>33.7834</ele>
        <time>2013-06-02T08:33:26Z</time>
      </trkpt>
      <trkpt lat="59.9598462" lon="17.7034146">
        <ele>34.2642</ele>
        <time>2013-06-02T08:33:27Z</time>
      </trkpt>
      <trkpt lat="59.9598054" lon="17.7032874">
        <ele>34.2642</ele>
        <time>2013-06-02T08:33:28Z</time>
      </trkpt>
      <trkpt lat="59.959764" lon="17.7031623">
        <ele>34.7449</ele>
        <time>2013-06-02T08:33:29Z</time>
      </trkpt>
      <trkpt lat="59.9597226" lon="17.7030461">
        <ele>34.2642</ele>
        <time>2013-06-02T08:33:30Z</time>
      </trkpt>
      <trkpt lat="59.9596836" lon="17.7029251">
        <ele>34.7449</ele>
        <time>2013-06-02T08:33:31Z</time>
      </trkpt>
      <trkpt lat="59.9596443" lon="17.7028052">
        <ele>35.2255</ele>
        <time>2013-06-02T08:33:32Z</time>
      </trkpt>
      <trkpt lat="59.9596064" lon="17.7026802">
        <ele>35.2255</ele>
        <time>2013-06-02T08:33:33Z</time>
      </trkpt>
      <trkpt lat="59.9595713" lon="17.7025597">
        <ele>35.2255</ele>
        <time>2013-06-02T08:33:34Z</time>
      </trkpt>
      <trkpt lat="59.9595377" lon="17.7024315">
        <ele>35.2255</ele>
        <time>2013-06-02T08:33:35Z</time>
      </trkpt>
      <trkpt lat="59.9595024" lon="17.702298">
        <ele>34.7449</ele>
        <time>2013-06-02T08:33:36Z</time>
      </trkpt>
      <trkpt lat="59.9594685" lon="17.7021627">
        <ele>34.7449</ele>
        <time>2013-06-02T08:33:37Z</time>
      </trkpt>
      <trkpt lat="59.9594329" lon="17.7020291">
        <ele>34.2642</ele>
        <time>2013-06-02T08:33:38Z</time>
      </trkpt>
      <trkpt lat="59.959395" lon="17.7018892">
        <ele>34.7449</ele>
        <time>2013-06-02T08:33:39Z</time>
      </trkpt>
      <trkpt lat="59.9593627" lon="17.7017489">
        <ele>34.7449</ele>
        <time>2013-06-02T08:33:40Z</time>
      </trkpt>
      <trkpt lat="59.9593308" lon="17.7016079">
        <ele>35.2255</ele>
        <time>2013-06-02T08:33:41Z</time>
      </trkpt>
      <trkpt lat="59.9593026" lon="17.7014634">
        <ele>35.7061</ele>
        <time>2013-06-02T08:33:42Z</time>
      </trkpt>
      <trkpt lat="59.9592824" lon="17.7013143">
        <ele>36.1868</ele>
        <time>2013-06-02T08:33:43Z</time>
      </trkpt>
      <trkpt lat="59.9592604" lon="17.7011656">
        <ele>36.1868</ele>
        <time>2013-06-02T08:33:44Z</time>
      </trkpt>
      <trkpt lat="59.9592408" lon="17.7010138">
        <ele>36.1868</ele>
        <time>2013-06-02T08:33:45Z</time>
      </trkpt>
      <trkpt lat="59.9592247" lon="17.7008621">
        <ele>35.7061</ele>
        <time>2013-06-02T08:33:46Z</time>
      </trkpt>
      <trkpt lat="59.9592095" lon="17.7007071">
        <ele>35.7061</ele>
        <time>2013-06-02T08:33:47Z</time>
      </trkpt>
      <trkpt lat="59.9591956" lon="17.7005459">
        <ele>35.2255</ele>
        <time>2013-06-02T08:33:48Z</time>
      </trkpt>
      <trkpt lat="59.9591823" lon="17.7003778">
        <ele>35.7061</ele>
        <time>2013-06-02T08:33:49Z</time>
      </trkpt>
      <trkpt lat="59.9591673" lon="17.7002139">
        <ele>35.7061</ele>
        <time>2013-06-02T08:33:50Z</time>
      </trkpt>
      <trkpt lat="59.9591517" lon="17.7000533">
        <ele>36.1868</ele>
        <time>2013-06-02T08:33:51Z</time>
      </trkpt>
      <trkpt lat="59.9591365" lon="17.6998939">
        <ele>36.1868</ele>
        <time>2013-06-02T08:33:52Z</time>
      </trkpt>
      <trkpt lat="59.9591211" lon="17.6997349">
        <ele>36.1868</ele>
        <time>2013-06-02T08:33:53Z</time>
      </trkpt>
      <trkpt lat="59.9591072" lon="17.6995769">
        <ele>36.1868</ele>
        <time>2013-06-02T08:33:54Z</time>
      </trkpt>
      <trkpt lat="59.9590963" lon="17.6994173">
        <ele>36.1868</ele>
        <time>2013-06-02T08:33:55Z</time>
      </trkpt>
      <trkpt lat="59.9590871" lon="17.699266">
        <ele>36.1868</ele>
        <time>2013-06-02T08:33:56Z</time>
      </trkpt>
      <trkpt lat="59.9590795" lon="17.6991156">
        <ele>36.1868</ele>
        <time>2013-06-02T08:33:57Z</time>
      </trkpt>
      <trkpt lat="59.9590735" lon="17.6989654">
        <ele>36.1868</ele>
        <time>2013-06-02T08:33:58Z</time>
      </trkpt>
      <trkpt lat="59.9590721" lon="17.6988174">
        <ele>36.1868</ele>
        <time>2013-06-02T08:33:59Z</time>
      </trkpt>
      <trkpt lat="59.959073" lon="17.6986686">
        <ele>36.1868</ele>
        <time>2013-06-02T08:34:00Z</time>
      </trkpt>
      <trkpt lat="59.959074" lon="17.6985214">
        <ele>36.1868</ele>
        <time>2013-06-02T08:34:01Z</time>
      </trkpt>
      <trkpt lat="59.9590714" lon="17.698375">
        <ele>34.2642</ele>
        <time>2013-06-02T08:34:02Z</time>
      </trkpt>
      <trkpt lat="59.9590668" lon="17.698231">
        <ele>32.8223</ele>
        <time>2013-06-02T08:34:03Z</time>
      </trkpt>
      <trkpt lat="59.9590605" lon="17.6980839">
        <ele>31.8607</ele>
        <time>2013-06-02T08:34:04Z</time>
      </trkpt>
      <trkpt lat="59.9590486" lon="17.697939">
        <ele>30.8995</ele>
        <time>2013-06-02T08:34:05Z</time>
      </trkpt>
      <trkpt lat="59.959032" lon="17.6977931">
        <ele>29.9381</ele>
        <time>2013-06-02T08:34:06Z</time>
      </trkpt>
      <trkpt lat="59.959012" lon="17.6976463">
        <ele>28.9769</ele>
        <time>2013-06-02T08:34:07Z</time>
      </trkpt>
      <trkpt lat="59.9589891" lon="17.697497">
        <ele>28.4962</ele>
        <time>2013-06-02T08:34:08Z</time>
      </trkpt>
      <trkpt lat="59.9589635" lon="17.6973441">
        <ele>28.4962</ele>
        <time>2013-06-02T08:34:09Z</time>
      </trkpt>
      <trkpt lat="59.9589347" lon="17.6971897">
        <ele>28.4962</ele>
        <time>2013-06-02T08:34:10Z</time>
      </trkpt>
      <trkpt lat="59.9589031" lon="17.6970361">
        <ele>28.4962</ele>
        <time>2013-06-02T08:34:11Z</time>
      </trkpt>
      <trkpt lat="59.9588693" lon="17.696884">
        <ele>28.0155</ele>
        <time>2013-06-02T08:34:12Z</time>
      </trkpt>
      <trkpt lat="59.9588353" lon="17.6967338">
        <ele>28.4962</ele>
        <time>2013-06-02T08:34:13Z</time>
      </trkpt>
      <trkpt lat="59.9587991" lon="17.6965873">
        <ele>28.4962</ele>
        <time>2013-06-02T08:34:14Z</time>
      </trkpt>
      <trkpt lat="59.9587578" lon="17.6964443">
        <ele>28.9769</ele>
        <time>2013-06-02T08:34:15Z</time>
      </trkpt>
      <trkpt lat="59.9587187" lon="17.6963036">
        <ele>28.9769</ele>
        <time>2013-06-02T08:34:16Z</time>
      </trkpt>
      <trkpt lat="59.9586679" lon="17.6961697">
        <ele>29.9381</ele>
        <time>2013-06-02T08:34:17Z</time>
      </trkpt>
      <trkpt lat="59.9586161" lon="17.6960321">
        <ele>30.4188</ele>
        <time>2013-06-02T08:34:18Z</time>
      </trkpt>
      <trkpt lat="59.9585621" lon="17.6958934">
        <ele>30.8995</ele>
        <time>2013-06-02T08:34:19Z</time>
      </trkpt>
      <trkpt lat="59.9585081" lon="17.6957554">
        <ele>30.8995</ele>
        <time>2013-06-02T08:34:20Z</time>
      </trkpt>
      <trkpt lat="59.9584503" lon="17.6956213">
        <ele>30.8995</ele>
        <time>2013-06-02T08:34:21Z</time>
      </trkpt>
      <trkpt lat="59.9583921" lon="17.6954867">
        <ele>31.3801</ele>
        <time>2013-06-02T08:34:22Z</time>
      </trkpt>
      <trkpt lat="59.958338" lon="17.6953479">
        <ele>31.3801</ele>
        <time>2013-06-02T08:34:23Z</time>
      </trkpt>
      <trkpt lat="59.9582842" lon="17.6952085">
        <ele>31.8607</ele>
        <time>2013-06-02T08:34:24Z</time>
      </trkpt>
      <trkpt lat="59.9582316" lon="17.6950668">
        <ele>31.8607</ele>
        <time>2013-06-02T08:34:25Z</time>
      </trkpt>
      <trkpt lat="59.9581799" lon="17.6949236">
        <ele>32.3416</ele>
        <time>2013-06-02T08:34:26Z</time>
      </trkpt>
      <trkpt lat="59.9581281" lon="17.6947809">
        <ele>32.3416</ele>
        <time>2013-06-02T08:34:27Z</time>
      </trkpt>
      <trkpt lat="59.9580744" lon="17.6946397">
        <ele>32.3416</ele>
        <time>2013-06-02T08:34:28Z</time>
      </trkpt>
      <trkpt lat="59.9580219" lon="17.6944965">
        <ele>32.3416</ele>
        <time>2013-06-02T08:34:29Z</time>
      </trkpt>
      <trkpt lat="59.9579696" lon="17.694352">
        <ele>32.3416</ele>
        <time>2013-06-02T08:34:30Z</time>
      </trkpt>
      <trkpt lat="59.9579166" lon="17.6942083">
        <ele>32.3416</ele>
        <time>2013-06-02T08:34:31Z</time>
      </trkpt>
      <trkpt lat="59.957865" lon="17.6940621">
        <ele>32.3416</ele>
        <time>2013-06-02T08:34:32Z</time>
      </trkpt>
      <trkpt lat="59.9578132" lon="17.6939151">
        <ele>32.3416</ele>
        <time>2013-06-02T08:34:33Z</time>
      </trkpt>
      <trkpt lat="59.9577612" lon="17.6937685">
        <ele>32.3416</ele>
        <time>2013-06-02T08:34:34Z</time>
      </trkpt>
      <trkpt lat="59.95771" lon="17.6936217">
        <ele>32.3416</ele>
        <time>2013-06-02T08:34:35Z</time>
      </trkpt>
      <trkpt lat="59.9576589" lon="17.6934755">
        <ele>32.3416</ele>
        <time>2013-06-02T08:34:36Z</time>
      </trkpt>
      <trkpt lat="59.9576059" lon="17.6933317">
        <ele>32.3416</ele>
        <time>2013-06-02T08:34:37Z</time>
      </trkpt>
      <trkpt lat="59.9575529" lon="17.6931888">
        <ele>32.3416</ele>
        <time>2013-06-02T08:34:38Z</time>
      </trkpt>
      <trkpt lat="59.9575002" lon="17.6930484">
        <ele>32.3416</ele>
        <time>2013-06-02T08:34:39Z</time>
      </trkpt>
      <trkpt lat="59.9574489" lon="17.6929085">
        <ele>32.8223</ele>
        <time>2013-06-02T08:34:40Z</time>
      </trkpt>
      <trkpt lat="59.9573977" lon="17.6927697">
        <ele>32.8223</ele>
        <time>2013-06-02T08:34:41Z</time>
      </trkpt>
      <trkpt lat="59.9573469" lon="17.6926308">
        <ele>33.3029</ele>
        <time>2013-06-02T08:34:42Z</time>
      </trkpt>
      <trkpt lat="59.9572973" lon="17.6924898">
        <ele>33.3029</ele>
        <time>2013-06-02T08:34:43Z</time>
      </trkpt>
      <trkpt lat="59.9572495" lon="17.6923475">
        <ele>33.7834</ele>
        <time>2013-06-02T08:34:44Z</time>
      </trkpt>
      <trkpt lat="59.9572009" lon="17.6922066">
        <ele>34.2642</ele>
        <time>2013-06-02T08:34:45Z</time>
      </trkpt>
      <trkpt lat="59.9571523" lon="17.6920651">
        <ele>34.2642</ele>
        <time>2013-06-02T08:34:46Z</time>
      </trkpt>
      <trkpt lat="59.9571045" lon="17.6919231">
        <ele>34.2642</ele>
        <time>2013-06-02T08:34:47Z</time>
      </trkpt>
      <trkpt lat="59.9570574" lon="17.6917812">
        <ele>34.7449</ele>
        <time>2013-06-02T08:34:48Z</time>
      </trkpt>
      <trkpt lat="59.9570113" lon="17.6916385">
        <ele>34.2642</ele>
        <time>2013-06-02T08:34:49Z</time>
      </trkpt>
      <trkpt lat="59.9569651" lon="17.6914947">
        <ele>34.2642</ele>
        <time>2013-06-02T08:34:50Z</time>
      </trkpt>
      <trkpt lat="59.9569175" lon="17.691353">
        <ele>35.2255</ele>
        <time>2013-06-02T08:34:51Z</time>
      </trkpt>
      <trkpt lat="59.9568689" lon="17.6912149">
        <ele>35.7061</ele>
        <time>2013-06-02T08:34:52Z</time>
      </trkpt>
      <trkpt lat="59.9568207" lon="17.6910833">
        <ele>36.1868</ele>
        <time>2013-06-02T08:34:53Z</time>
      </trkpt>
      <trkpt lat="59.9567752" lon="17.6909538">
        <ele>36.6675</ele>
        <time>2013-06-02T08:34:54Z</time>
      </trkpt>
      <trkpt lat="59.9567345" lon="17.6908308">
        <ele>37.1481</ele>
        <time>2013-06-02T08:34:55Z</time>
      </trkpt>
      <trkpt lat="59.9566963" lon="17.6907183">
        <ele>37.1481</ele>
        <time>2013-06-02T08:34:56Z</time>
      </trkpt>
      <trkpt lat="59.9566443" lon="17.6905951">
        <ele>38.1094</ele>
        <time>2013-06-02T08:34:57Z</time>
      </trkpt>
      <trkpt lat="59.9565957" lon="17.6904749">
        <ele>38.5901</ele>
        <time>2013-06-02T08:34:58Z</time>
      </trkpt>
      <trkpt lat="59.9565685" lon="17.6903735">
        <ele>38.5901</ele>
        <time>2013-06-02T08:34:59Z</time>
      </trkpt>
      <trkpt lat="59.9565312" lon="17.6902672">
        <ele>38.5901</ele>
        <time>2013-06-02T08:35:00Z</time>
      </trkpt>
      <trkpt lat="59.9564864" lon="17.6901584">
        <ele>37.6287</ele>
        <time>2013-06-02T08:35:01Z</time>
      </trkpt>
      <trkpt lat="59.9564491" lon="17.690047">
        <ele>37.1481</ele>
        <time>2013-06-02T08:35:02Z</time>
      </trkpt>
      <trkpt lat="59.9564162" lon="17.6899315">
        <ele>36.6675</ele>
        <time>2013-06-02T08:35:03Z</time>
      </trkpt>
      <trkpt lat="59.9563831" lon="17.6898119">
        <ele>36.6675</ele>
        <time>2013-06-02T08:35:04Z</time>
      </trkpt>
      <trkpt lat="59.9563522" lon="17.6896863">
        <ele>36.1868</ele>
        <time>2013-06-02T08:35:05Z</time>
      </trkpt>
      <trkpt lat="59.9563233" lon="17.6895565">
        <ele>36.1868</ele>
        <time>2013-06-02T08:35:06Z</time>
      </trkpt>
      <trkpt lat="59.956296" lon="17.6894236">
        <ele>35.7061</ele>
        <time>2013-06-02T08:35:07Z</time>
      </trkpt>
      <trkpt lat="59.9562695" lon="17.6892886">
        <ele>35.2255</ele>
        <time>2013-06-02T08:35:08Z</time>
      </trkpt>
      <trkpt lat="59.9562389" lon="17.6891549">
        <ele>35.2255</ele>
        <time>2013-06-02T08:35:09Z</time>
      </trkpt>
      <trkpt lat="59.9562036" lon="17.6890249">
        <ele>35.2255</ele>
        <time>2013-06-02T08:35:10Z</time>
      </trkpt>
      <trkpt lat="59.9561626" lon="17.6889022">
        <ele>34.7449</ele>
        <time>2013-06-02T08:35:11Z</time>
      </trkpt>
      <trkpt lat="59.956113" lon="17.6887878">
        <ele>34.2642</ele>
        <time>2013-06-02T08:35:12Z</time>
      </trkpt>
      <trkpt lat="59.9560696" lon="17.6886681">
        <ele>34.2642</ele>
        <time>2013-06-02T08:35:13Z</time>
      </trkpt>
      <trkpt lat="59.9560321" lon="17.6885344">
        <ele>33.7834</ele>
        <time>2013-06-02T08:35:14Z</time>
      </trkpt>
      <trkpt lat="59.9560016" lon="17.6883903">
        <ele>33.7834</ele>
        <time>2013-06-02T08:35:15Z</time>
      </trkpt>
      <trkpt lat="59.9559763" lon="17.688241">
        <ele>33.7834</ele>
        <time>2013-06-02T08:35:16Z</time>
      </trkpt>
      <trkpt lat="59.9559531" lon="17.6880889">
        <ele>33.3029</ele>
        <time>2013-06-02T08:35:17Z</time>
      </trkpt>
      <trkpt lat="59.9559287" lon="17.6879356">
        <ele>33.3029</ele>
        <time>2013-06-02T08:35:18Z</time>
      </trkpt>
      <trkpt lat="59.9559033" lon="17.6877796">
        <ele>32.8223</ele>
        <time>2013-06-02T08:35:19Z</time>
      </trkpt>
      <trkpt lat="59.9558774" lon="17.6876237">
        <ele>32.8223</ele>
        <time>2013-06-02T08:35:20Z</time>
      </trkpt>
      <trkpt lat="59.9558523" lon="17.6874688">
        <ele>32.8223</ele>
        <time>2013-06-02T08:35:21Z</time>
      </trkpt>
      <trkpt lat="59.9558285" lon="17.6873139">
        <ele>32.8223</ele>
        <time>2013-06-02T08:35:22Z</time>
      </trkpt>
      <trkpt lat="59.9558041" lon="17.68716">
        <ele>32.8223</ele>
        <time>2013-06-02T08:35:23Z</time>
      </trkpt>
      <trkpt lat="59.95578" lon="17.6870066">
        <ele>32.8223</ele>
        <time>2013-06-02T08:35:24Z</time>
      </trkpt>
      <trkpt lat="59.9557567" lon="17.6868529">
        <ele>32.8223</ele>
        <time>2013-06-02T08:35:25Z</time>
      </trkpt>
      <trkpt lat="59.9557353" lon="17.6866969">
        <ele>32.8223</ele>
        <time>2013-06-02T08:35:26Z</time>
      </trkpt>
      <trkpt lat="59.9557137" lon="17.6865397">
        <ele>32.8223</ele>
        <time>2013-06-02T08:35:27Z</time>
      </trkpt>
      <trkpt lat="59.9556914" lon="17.686383">
        <ele>32.8223</ele>
        <time>2013-06-02T08:35:28Z</time>
      </trkpt>
      <trkpt lat="59.9556723" lon="17.6862258">
        <ele>33.3029</ele>
        <time>2013-06-02T08:35:29Z</time>
      </trkpt>
      <trkpt lat="59.9556488" lon="17.6860677">
        <ele>33.3029</ele>
        <time>2013-06-02T08:35:30Z</time>
      </trkpt>
      <trkpt lat="59.9556256" lon="17.685908">
        <ele>33.3029</ele>
        <time>2013-06-02T08:35:31Z</time>
      </trkpt>
      <trkpt lat="59.9556029" lon="17.6857461">
        <ele>33.3029</ele>
        <time>2013-06-02T08:35:32Z</time>
      </trkpt>
      <trkpt lat="59.9555804" lon="17.6855836">
        <ele>33.3029</ele>
        <time>2013-06-02T08:35:33Z</time>
      </trkpt>
      <trkpt lat="59.9555567" lon="17.68542">
        <ele>33.3029</ele>
        <time>2013-06-02T08:35:34Z</time>
      </trkpt>
      <trkpt lat="59.9555328" lon="17.6852554">
        <ele>33.3029</ele>
        <time>2013-06-02T08:35:35Z</time>
      </trkpt>
      <trkpt lat="59.9555083" lon="17.6850897">
        <ele>33.3029</ele>
        <time>2013-06-02T08:35:36Z</time>
      </trkpt>
      <trkpt lat="59.9554814" lon="17.6849252">
        <ele>33.3029</ele>
        <time>2013-06-02T08:35:37Z</time>
      </trkpt>
      <trkpt lat="59.9554519" lon="17.6847633">
        <ele>33.3029</ele>
        <time>2013-06-02T08:35:38Z</time>
      </trkpt>
      <trkpt lat="59.9554231" lon="17.6846005">
        <ele>33.3029</ele>
        <time>2013-06-02T08:35:39Z</time>
      </trkpt>
      <trkpt lat="59.9553977" lon="17.684435">
        <ele>32.8223</ele>
        <time>2013-06-02T08:35:40Z</time>
      </trkpt>
      <trkpt lat="59.9553733" lon="17.6842692">
        <ele>32.8223</ele>
        <time>2013-06-02T08:35:41Z</time>
      </trkpt>
      <trkpt lat="59.9553464" lon="17.6841054">
        <ele>32.8223</ele>
        <time>2013-06-02T08:35:42Z</time>
      </trkpt>
      <trkpt lat="59.9553172" lon="17.6839431">
        <ele>32.8223</ele>
        <time>2013-06-02T08:35:43Z</time>
      </trkpt>
      <trkpt lat="59.9552854" lon="17.6837832">
        <ele>32.8223</ele>
        <time>2013-06-02T08:35:44Z</time>
      </trkpt>
      <trkpt lat="59.9552519" lon="17.6836263">
        <ele>33.3029</ele>
        <time>2013-06-02T08:35:45Z</time>
      </trkpt>
      <trkpt lat="59.955217" lon="17.683472">
        <ele>33.3029</ele>
        <time>2013-06-02T08:35:46Z</time>
      </trkpt>
      <trkpt lat="59.9551812" lon="17.6833195">
        <ele>33.3029</ele>
        <time>2013-06-02T08:35:47Z</time>
      </trkpt>
      <trkpt lat="59.9551445" lon="17.6831692">
        <ele>33.3029</ele>
        <time>2013-06-02T08:35:48Z</time>
      </trkpt>
      <trkpt lat="59.9551064" lon="17.6830211">
        <ele>33.3029</ele>
        <time>2013-06-02T08:35:49Z</time>
      </trkpt>
      <trkpt lat="59.9550666" lon="17.6828757">
        <ele>33.7834</ele>
        <time>2013-06-02T08:35:50Z</time>
      </trkpt>
      <trkpt lat="59.9550263" lon="17.6827321">
        <ele>34.2642</ele>
        <time>2013-06-02T08:35:51Z</time>
      </trkpt>
      <trkpt lat="59.9549857" lon="17.6825866">
        <ele>34.2642</ele>
        <time>2013-06-02T08:35:52Z</time>
      </trkpt>
      <trkpt lat="59.9549437" lon="17.6824419">
        <ele>34.7449</ele>
        <time>2013-06-02T08:35:53Z</time>
      </trkpt>
      <trkpt lat="59.9549014" lon="17.6822982">
        <ele>35.2255</ele>
        <time>2013-06-02T08:35:54Z</time>
      </trkpt>
      <trkpt lat="59.9548578" lon="17.6821581">
        <ele>34.7449</ele>
        <time>2013-06-02T08:35:55Z</time>
      </trkpt>
      <trkpt lat="59.9548072" lon="17.6820298">
        <ele>35.2255</ele>
        <time>2013-06-02T08:35:56Z</time>
      </trkpt>
      <trkpt lat="59.9547462" lon="17.681926">
        <ele>35.2255</ele>
        <time>2013-06-02T08:35:57Z</time>
      </trkpt>
      <trkpt lat="59.9546816" lon="17.6818372">
        <ele>35.2255</ele>
        <time>2013-06-02T08:35:58Z</time>
      </trkpt>
      <trkpt lat="59.9546218" lon="17.6817274">
        <ele>35.2255</ele>
        <time>2013-06-02T08:35:59Z</time>
      </trkpt>
      <trkpt lat="59.9545714" lon="17.6815976">
        <ele>35.2255</ele>
        <time>2013-06-02T08:36:00Z</time>
      </trkpt>
      <trkpt lat="59.9545263" lon="17.6814589">
        <ele>35.2255</ele>
        <time>2013-06-02T08:36:01Z</time>
      </trkpt>
      <trkpt lat="59.9544807" lon="17.6813184">
        <ele>35.7061</ele>
        <time>2013-06-02T08:36:02Z</time>
      </trkpt>
      <trkpt lat="59.9544353" lon="17.6811719">
        <ele>35.7061</ele>
        <time>2013-06-02T08:36:03Z</time>
      </trkpt>
      <trkpt lat="59.9543938" lon="17.6810175">
        <ele>35.7061</ele>
        <time>2013-06-02T08:36:04Z</time>
      </trkpt>
      <trkpt lat="59.9543499" lon="17.6808633">
        <ele>35.7061</ele>
        <time>2013-06-02T08:36:05Z</time>
      </trkpt>
      <trkpt lat="59.9543037" lon="17.6807146">
        <ele>35.7061</ele>
        <time>2013-06-02T08:36:06Z</time>
      </trkpt>
      <trkpt lat="59.9542565" lon="17.6805695">
        <ele>35.7061</ele>
        <time>2013-06-02T08:36:07Z</time>
      </trkpt>
      <trkpt lat="59.9542081" lon="17.680424">
        <ele>35.7061</ele>
        <time>2013-06-02T08:36:08Z</time>
      </trkpt>
      <trkpt lat="59.9541596" lon="17.6802773">
        <ele>35.7061</ele>
        <time>2013-06-02T08:36:09Z</time>
      </trkpt>
      <trkpt lat="59.9541106" lon="17.6801302">
        <ele>35.7061</ele>
        <time>2013-06-02T08:36:10Z</time>
      </trkpt>
      <trkpt lat="59.9540627" lon="17.6799826">
        <ele>35.7061</ele>
        <time>2013-06-02T08:36:11Z</time>
      </trkpt>
      <trkpt lat="59.954012" lon="17.6798374">
        <ele>35.7061</ele>
        <time>2013-06-02T08:36:12Z</time>
      </trkpt>
      <trkpt lat="59.9539655" lon="17.6796899">
        <ele>35.7061</ele>
        <time>2013-06-02T08:36:13Z</time>
      </trkpt>
      <trkpt lat="59.9539182" lon="17.6795436">
        <ele>36.1868</ele>
        <time>2013-06-02T08:36:14Z</time>
      </trkpt>
      <trkpt lat="59.953872" lon="17.6793962">
        <ele>36.1868</ele>
        <time>2013-06-02T08:36:15Z</time>
      </trkpt>
      <trkpt lat="59.9538279" lon="17.6792468">
        <ele>36.1868</ele>
        <time>2013-06-02T08:36:16Z</time>
      </trkpt>
      <trkpt lat="59.9537837" lon="17.6790989">
        <ele>36.6675</ele>
        <time>2013-06-02T08:36:17Z</time>
      </trkpt>
      <trkpt lat="59.9537381" lon="17.6789544">
        <ele>36.6675</ele>
        <time>2013-06-02T08:36:18Z</time>
      </trkpt>
      <trkpt lat="59.9536907" lon="17.6788159">
        <ele>36.6675</ele>
        <time>2013-06-02T08:36:19Z</time>
      </trkpt>
      <trkpt lat="59.9536428" lon="17.6786773">
        <ele>37.1481</ele>
        <time>2013-06-02T08:36:20Z</time>
      </trkpt>
      <trkpt lat="59.9535949" lon="17.6785413">
        <ele>37.6287</ele>
        <time>2013-06-02T08:36:21Z</time>
      </trkpt>
      <trkpt lat="59.9535475" lon="17.6784078">
        <ele>37.6287</ele>
        <time>2013-06-02T08:36:22Z</time>
      </trkpt>
      <trkpt lat="59.9535039" lon="17.6782691">
        <ele>37.6287</ele>
        <time>2013-06-02T08:36:23Z</time>
      </trkpt>
      <trkpt lat="59.9534601" lon="17.6781286">
        <ele>38.1094</ele>
        <time>2013-06-02T08:36:24Z</time>
      </trkpt>
      <trkpt lat="59.9534137" lon="17.6779918">
        <ele>37.6287</ele>
        <time>2013-06-02T08:36:25Z</time>
      </trkpt>
      <trkpt lat="59.9533666" lon="17.6778527">
        <ele>37.1481</ele>
        <time>2013-06-02T08:36:26Z</time>
      </trkpt>
      <trkpt lat="59.9533194" lon="17.6777189">
        <ele>36.6675</ele>
        <time>2013-06-02T08:36:27Z</time>
      </trkpt>
      <trkpt lat="59.9532709" lon="17.6775858">
        <ele>36.1868</ele>
        <time>2013-06-02T08:36:28Z</time>
      </trkpt>
      <trkpt lat="59.95322" lon="17.6774495">
        <ele>36.1868</ele>
        <time>2013-06-02T08:36:29Z</time>
      </trkpt>
      <trkpt lat="59.9531685" lon="17.6773107">
        <ele>35.7061</ele>
        <time>2013-06-02T08:36:30Z</time>
      </trkpt>
      <trkpt lat="59.953118" lon="17.6771739">
        <ele>35.2255</ele>
        <time>2013-06-02T08:36:31Z</time>
      </trkpt>
      <trkpt lat="59.9530673" lon="17.6770362">
        <ele>35.2255</ele>
        <time>2013-06-02T08:36:32Z</time>
      </trkpt>
      <trkpt lat="59.9530142" lon="17.6768989">
        <ele>34.7449</ele>
        <time>2013-06-02T08:36:33Z</time>
      </trkpt>
      <trkpt lat="59.9529599" lon="17.6767642">
        <ele>34.2642</ele>
        <time>2013-06-02T08:36:34Z</time>
      </trkpt>
      <trkpt lat="59.9529039" lon="17.6766274">
        <ele>34.7449</ele>
        <time>2013-06-02T08:36:35Z</time>
      </trkpt>
      <trkpt lat="59.9528465" lon="17.6764946">
        <ele>34.7449</ele>
        <time>2013-06-02T08:36:36Z</time>
      </trkpt>
      <trkpt lat="59.952792" lon="17.6763621">
        <ele>34.7449</ele>
        <time>2013-06-02T08:36:37Z</time>
      </trkpt>
      <trkpt lat="59.9527434" lon="17.6762263">
        <ele>34.7449</ele>
        <time>2013-06-02T08:36:38Z</time>
      </trkpt>
      <trkpt lat="59.9526977" lon="17.6760887">
        <ele>34.2642</ele>
        <time>2013-06-02T08:36:39Z</time>
      </trkpt>
      <trkpt lat="59.9526505" lon="17.6759514">
        <ele>34.2642</ele>
        <time>2013-06-02T08:36:40Z</time>
      </trkpt>
      <trkpt lat="59.9526014" lon="17.6758177">
        <ele>34.7449</ele>
        <time>2013-06-02T08:36:41Z</time>
      </trkpt>
      <trkpt lat="59.9525517" lon="17.6756892">
        <ele>34.7449</ele>
        <time>2013-06-02T08:36:42Z</time>
      </trkpt>
      <trkpt lat="59.9525011" lon="17.675566">
        <ele>35.2255</ele>
        <time>2013-06-02T08:36:43Z</time>
      </trkpt>
      <trkpt lat="59.9524528" lon="17.6754457">
        <ele>35.7061</ele>
        <time>2013-06-02T08:36:44Z</time>
      </trkpt>
      <trkpt lat="59.9524083" lon="17.6753276">
        <ele>36.1868</ele>
        <time>2013-06-02T08:36:45Z</time>
      </trkpt>
      <trkpt lat="59.9523675" lon="17.6752112">
        <ele>36.1868</ele>
        <time>2013-06-02T08:36:46Z</time>
      </trkpt>
      <trkpt lat="59.9523324" lon="17.6750937">
        <ele>36.1868</ele>
        <time>2013-06-02T08:36:47Z</time>
      </trkpt>
      <trkpt lat="59.9523029" lon="17.6749729">
        <ele>36.1868</ele>
        <time>2013-06-02T08:36:48Z</time>
      </trkpt>
      <trkpt lat="59.9522765" lon="17.6748476">
        <ele>36.1868</ele>
        <time>2013-06-02T08:36:49Z</time>
      </trkpt>
      <trkpt lat="59.9522534" lon="17.674715">
        <ele>35.7061</ele>
        <time>2013-06-02T08:36:50Z</time>
      </trkpt>
      <trkpt lat="59.952229" lon="17.6745711">
        <ele>35.2255</ele>
        <time>2013-06-02T08:36:51Z</time>
      </trkpt>
      <trkpt lat="59.9522031" lon="17.6744162">
        <ele>34.7449</ele>
        <time>2013-06-02T08:36:52Z</time>
      </trkpt>
      <trkpt lat="59.9521701" lon="17.6742309">
        <ele>34.2642</ele>
        <time>2013-06-02T08:36:53Z</time>
      </trkpt>
      <trkpt lat="59.9521337" lon="17.6740714">
        <ele>34.7449</ele>
        <time>2013-06-02T08:36:54Z</time>
      </trkpt>
      <trkpt lat="59.9520985" lon="17.6739125">
        <ele>34.7449</ele>
        <time>2013-06-02T08:36:55Z</time>
      </trkpt>
      <trkpt lat="59.9520726" lon="17.6737483">
        <ele>34.7449</ele>
        <time>2013-06-02T08:36:56Z</time>
      </trkpt>
      <trkpt lat="59.9520434" lon="17.6735808">
        <ele>34.7449</ele>
        <time>2013-06-02T08:36:57Z</time>
      </trkpt>
      <trkpt lat="59.9520145" lon="17.673411">
        <ele>34.2642</ele>
        <time>2013-06-02T08:36:58Z</time>
      </trkpt>
      <trkpt lat="59.9519861" lon="17.6732389">
        <ele>34.2642</ele>
        <time>2013-06-02T08:36:59Z</time>
      </trkpt>
      <trkpt lat="59.9519584" lon="17.6730626">
        <ele>34.2642</ele>
        <time>2013-06-02T08:37:00Z</time>
      </trkpt>
      <trkpt lat="59.9519322" lon="17.6728822">
        <ele>34.2642</ele>
        <time>2013-06-02T08:37:01Z</time>
      </trkpt>
      <trkpt lat="59.9519068" lon="17.6727056">
        <ele>34.2642</ele>
        <time>2013-06-02T08:37:02Z</time>
      </trkpt>
      <trkpt lat="59.9518851" lon="17.6725273">
        <ele>34.2642</ele>
        <time>2013-06-02T08:37:03Z</time>
      </trkpt>
      <trkpt lat="59.9518662" lon="17.672347">
        <ele>34.2642</ele>
        <time>2013-06-02T08:37:04Z</time>
      </trkpt>
      <trkpt lat="59.9518483" lon="17.6721657">
        <ele>34.2642</ele>
        <time>2013-06-02T08:37:05Z</time>
      </trkpt>
      <trkpt lat="59.9518328" lon="17.6719814">
        <ele>33.7834</ele>
        <time>2013-06-02T08:37:06Z</time>
      </trkpt>
      <trkpt lat="59.951824" lon="17.6718068">
        <ele>33.3029</ele>
        <time>2013-06-02T08:37:07Z</time>
      </trkpt>
      <trkpt lat="59.951818" lon="17.6716305">
        <ele>33.3029</ele>
        <time>2013-06-02T08:37:08Z</time>
      </trkpt>
      <trkpt lat="59.9518131" lon="17.6714509">
        <ele>32.3416</ele>
        <time>2013-06-02T08:37:09Z</time>
      </trkpt>
      <trkpt lat="59.9517971" lon="17.671266">
        <ele>31.3801</ele>
        <time>2013-06-02T08:37:10Z</time>
      </trkpt>
      <trkpt lat="59.9517695" lon="17.6710827">
        <ele>30.4188</ele>
        <time>2013-06-02T08:37:11Z</time>
      </trkpt>
      <trkpt lat="59.9517442" lon="17.6708896">
        <ele>30.4188</ele>
        <time>2013-06-02T08:37:12Z</time>
      </trkpt>
      <trkpt lat="59.9517297" lon="17.6706903">
        <ele>28.0155</ele>
        <time>2013-06-02T08:37:13Z</time>
      </trkpt>
      <trkpt lat="59.9517395" lon="17.6704983">
        <ele>27.5349</ele>
        <time>2013-06-02T08:37:14Z</time>
      </trkpt>
      <trkpt lat="59.9517545" lon="17.6703003">
        <ele>26.5736</ele>
        <time>2013-06-02T08:37:15Z</time>
      </trkpt>
      <trkpt lat="59.9517684" lon="17.6700993">
        <ele>25.1317</ele>
        <time>2013-06-02T08:37:16Z</time>
      </trkpt>
      <trkpt lat="59.951781" lon="17.6698971">
        <ele>23.209</ele>
        <time>2013-06-02T08:37:17Z</time>
      </trkpt>
      <trkpt lat="59.9517929" lon="17.6696975">
        <ele>21.767</ele>
        <time>2013-06-02T08:37:18Z</time>
      </trkpt>
      <trkpt lat="59.9518039" lon="17.6695022">
        <ele>21.767</ele>
        <time>2013-06-02T08:37:19Z</time>
      </trkpt>
      <trkpt lat="59.9518141" lon="17.669308">
        <ele>21.767</ele>
        <time>2013-06-02T08:37:20Z</time>
      </trkpt>
      <trkpt lat="59.9518227" lon="17.6691188">
        <ele>22.2476</ele>
        <time>2013-06-02T08:37:21Z</time>
      </trkpt>
      <trkpt lat="59.9518251" lon="17.6689348">
        <ele>22.2476</ele>
        <time>2013-06-02T08:37:22Z</time>
      </trkpt>
      <trkpt lat="59.9518173" lon="17.668754">
        <ele>22.2476</ele>
        <time>2013-06-02T08:37:23Z</time>
      </trkpt>
      <trkpt lat="59.951797" lon="17.6685772">
        <ele>22.2476</ele>
        <time>2013-06-02T08:37:24Z</time>
      </trkpt>
      <trkpt lat="59.951765" lon="17.668407">
        <ele>22.2476</ele>
        <time>2013-06-02T08:37:25Z</time>
      </trkpt>
      <trkpt lat="59.9517235" lon="17.6682547">
        <ele>21.767</ele>
        <time>2013-06-02T08:37:26Z</time>
      </trkpt>
      <trkpt lat="59.9516679" lon="17.6681217">
        <ele>21.2864</ele>
        <time>2013-06-02T08:37:27Z</time>
      </trkpt>
      <trkpt lat="59.951595" lon="17.6680311">
        <ele>20.8057</ele>
        <time>2013-06-02T08:37:28Z</time>
      </trkpt>
      <trkpt lat="59.9515105" lon="17.667993">
        <ele>21.2864</ele>
        <time>2013-06-02T08:37:29Z</time>
      </trkpt>
      <trkpt lat="59.9514225" lon="17.6680034">
        <ele>20.8057</ele>
        <time>2013-06-02T08:37:30Z</time>
      </trkpt>
      <trkpt lat="59.9513318" lon="17.6680229">
        <ele>21.2864</ele>
        <time>2013-06-02T08:37:31Z</time>
      </trkpt>
      <trkpt lat="59.9512426" lon="17.6680483">
        <ele>21.2864</ele>
        <time>2013-06-02T08:37:32Z</time>
      </trkpt>
      <trkpt lat="59.951155" lon="17.6680793">
        <ele>21.767</ele>
        <time>2013-06-02T08:37:33Z</time>
      </trkpt>
      <trkpt lat="59.9510682" lon="17.6681109">
        <ele>21.767</ele>
        <time>2013-06-02T08:37:34Z</time>
      </trkpt>
      <trkpt lat="59.9509823" lon="17.6681394">
        <ele>22.2476</ele>
        <time>2013-06-02T08:37:35Z</time>
      </trkpt>
      <trkpt lat="59.950897" lon="17.6681663">
        <ele>22.2476</ele>
        <time>2013-06-02T08:37:36Z</time>
      </trkpt>
      <trkpt lat="59.9508117" lon="17.6681915">
        <ele>22.2476</ele>
        <time>2013-06-02T08:37:37Z</time>
      </trkpt>
      <trkpt lat="59.9507271" lon="17.6682117">
        <ele>22.7283</ele>
        <time>2013-06-02T08:37:38Z</time>
      </trkpt>
      <trkpt lat="59.950643" lon="17.6682253">
        <ele>22.7283</ele>
        <time>2013-06-02T08:37:39Z</time>
      </trkpt>
      <trkpt lat="59.9505586" lon="17.6682331">
        <ele>22.7283</ele>
        <time>2013-06-02T08:37:40Z</time>
      </trkpt>
      <trkpt lat="59.950474" lon="17.6682357">
        <ele>23.209</ele>
        <time>2013-06-02T08:37:41Z</time>
      </trkpt>
      <trkpt lat="59.9503887" lon="17.6682347">
        <ele>23.209</ele>
        <time>2013-06-02T08:37:42Z</time>
      </trkpt>
      <trkpt lat="59.950303" lon="17.668229">
        <ele>23.209</ele>
        <time>2013-06-02T08:37:43Z</time>
      </trkpt>
      <trkpt lat="59.9502181" lon="17.6682168">
        <ele>23.209</ele>
        <time>2013-06-02T08:37:44Z</time>
      </trkpt>
      <trkpt lat="59.9501333" lon="17.668199">
        <ele>23.209</ele>
        <time>2013-06-02T08:37:45Z</time>
      </trkpt>
      <trkpt lat="59.9500486" lon="17.6681772">
        <ele>23.6896</ele>
        <time>2013-06-02T08:37:46Z</time>
      </trkpt>
      <trkpt lat="59.9499632" lon="17.6681527">
        <ele>23.6896</ele>
        <time>2013-06-02T08:37:47Z</time>
      </trkpt>
      <trkpt lat="59.9498777" lon="17.6681236">
        <ele>23.6896</ele>
        <time>2013-06-02T08:37:48Z</time>
      </trkpt>
      <trkpt lat="59.9497933" lon="17.6680873">
        <ele>23.6896</ele>
        <time>2013-06-02T08:37:49Z</time>
      </trkpt>
      <trkpt lat="59.949709" lon="17.6680483">
        <ele>23.6896</ele>
        <time>2013-06-02T08:37:50Z</time>
      </trkpt>
      <trkpt lat="59.9496245" lon="17.6680092">
        <ele>23.6896</ele>
        <time>2013-06-02T08:37:51Z</time>
      </trkpt>
      <trkpt lat="59.9495405" lon="17.6679683">
        <ele>23.6896</ele>
        <time>2013-06-02T08:37:52Z</time>
      </trkpt>
      <trkpt lat="59.9494573" lon="17.667926">
        <ele>23.6896</ele>
        <time>2013-06-02T08:37:53Z</time>
      </trkpt>
      <trkpt lat="59.9493744" lon="17.667882">
        <ele>23.6896</ele>
        <time>2013-06-02T08:37:54Z</time>
      </trkpt>
      <trkpt lat="59.949291" lon="17.6678363">
        <ele>24.1703</ele>
        <time>2013-06-02T08:37:55Z</time>
      </trkpt>
      <trkpt lat="59.9492069" lon="17.6677891">
        <ele>24.1703</ele>
        <time>2013-06-02T08:37:56Z</time>
      </trkpt>
      <trkpt lat="59.9491224" lon="17.6677405">
        <ele>24.1703</ele>
        <time>2013-06-02T08:37:57Z</time>
      </trkpt>
      <trkpt lat="59.9490379" lon="17.6676912">
        <ele>24.1703</ele>
        <time>2013-06-02T08:37:58Z</time>
      </trkpt>
      <trkpt lat="59.9489541" lon="17.6676416">
        <ele>24.1703</ele>
        <time>2013-06-02T08:37:59Z</time>
      </trkpt>
      <trkpt lat="59.9488713" lon="17.6675918">
        <ele>24.1703</ele>
        <time>2013-06-02T08:38:00Z</time>
      </trkpt>
      <trkpt lat="59.9487884" lon="17.667543">
        <ele>24.1703</ele>
        <time>2013-06-02T08:38:01Z</time>
      </trkpt>
      <trkpt lat="59.948705" lon="17.6674959">
        <ele>24.1703</ele>
        <time>2013-06-02T08:38:02Z</time>
      </trkpt>
      <trkpt lat="59.9486212" lon="17.6674508">
        <ele>24.1703</ele>
        <time>2013-06-02T08:38:03Z</time>
      </trkpt>
      <trkpt lat="59.9485377" lon="17.6674058">
        <ele>24.1703</ele>
        <time>2013-06-02T08:38:04Z</time>
      </trkpt>
      <trkpt lat="59.9484543" lon="17.6673619">
        <ele>24.1703</ele>
        <time>2013-06-02T08:38:05Z</time>
      </trkpt>
      <trkpt lat="59.9483715" lon="17.6673177">
        <ele>24.1703</ele>
        <time>2013-06-02T08:38:06Z</time>
      </trkpt>
      <trkpt lat="59.9482892" lon="17.6672722">
        <ele>24.1703</ele>
        <time>2013-06-02T08:38:07Z</time>
      </trkpt>
      <trkpt lat="59.9482072" lon="17.6672257">
        <ele>24.1703</ele>
        <time>2013-06-02T08:38:08Z</time>
      </trkpt>
      <trkpt lat="59.9481257" lon="17.6671789">
        <ele>24.1703</ele>
        <time>2013-06-02T08:38:09Z</time>
      </trkpt>
      <trkpt lat="59.9480444" lon="17.6671322">
        <ele>24.1703</ele>
        <time>2013-06-02T08:38:10Z</time>
      </trkpt>
      <trkpt lat="59.9479632" lon="17.6670866">
        <ele>24.1703</ele>
        <time>2013-06-02T08:38:11Z</time>
      </trkpt>
      <trkpt lat="59.9478814" lon="17.6670438">
        <ele>24.1703</ele>
        <time>2013-06-02T08:38:12Z</time>
      </trkpt>
      <trkpt lat="59.9477985" lon="17.6670028">
        <ele>24.1703</ele>
        <time>2013-06-02T08:38:13Z</time>
      </trkpt>
      <trkpt lat="59.9477156" lon="17.6669619">
        <ele>24.1703</ele>
        <time>2013-06-02T08:38:14Z</time>
      </trkpt>
      <trkpt lat="59.9476336" lon="17.6669205">
        <ele>24.1703</ele>
        <time>2013-06-02T08:38:15Z</time>
      </trkpt>
      <trkpt lat="59.9475523" lon="17.666878">
        <ele>24.1703</ele>
        <time>2013-06-02T08:38:16Z</time>
      </trkpt>
      <trkpt lat="59.9474706" lon="17.6668353">
        <ele>24.1703</ele>
        <time>2013-06-02T08:38:17Z</time>
      </trkpt>
      <trkpt lat="59.9473887" lon="17.6667955">
        <ele>24.1703</ele>
        <time>2013-06-02T08:38:18Z</time>
      </trkpt>
      <trkpt lat="59.9473059" lon="17.6667593">
        <ele>24.651</ele>
        <time>2013-06-02T08:38:19Z</time>
      </trkpt>
      <trkpt lat="59.9472226" lon="17.6667237">
        <ele>24.651</ele>
        <time>2013-06-02T08:38:20Z</time>
      </trkpt>
      <trkpt lat="59.947139" lon="17.6666874">
        <ele>24.651</ele>
        <time>2013-06-02T08:38:21Z</time>
      </trkpt>
      <trkpt lat="59.947055" lon="17.6666519">
        <ele>24.651</ele>
        <time>2013-06-02T08:38:22Z</time>
      </trkpt>
      <trkpt lat="59.9469712" lon="17.6666179">
        <ele>24.651</ele>
        <time>2013-06-02T08:38:23Z</time>
      </trkpt>
      <trkpt lat="59.9468883" lon="17.6665853">
        <ele>24.651</ele>
        <time>2013-06-02T08:38:24Z</time>
      </trkpt>
      <trkpt lat="59.9468051" lon="17.6665599">
        <ele>24.651</ele>
        <time>2013-06-02T08:38:25Z</time>
      </trkpt>
      <trkpt lat="59.9467226" lon="17.6665405">
        <ele>25.1317</ele>
        <time>2013-06-02T08:38:26Z</time>
      </trkpt>
      <trkpt lat="59.9466385" lon="17.6665298">
        <ele>25.1317</ele>
        <time>2013-06-02T08:38:27Z</time>
      </trkpt>
      <trkpt lat="59.9465536" lon="17.6665169">
        <ele>25.1317</ele>
        <time>2013-06-02T08:38:28Z</time>
      </trkpt>
      <trkpt lat="59.9464692" lon="17.6664952">
        <ele>25.1317</ele>
        <time>2013-06-02T08:38:29Z</time>
      </trkpt>
      <trkpt lat="59.9463846" lon="17.6664631">
        <ele>25.6123</ele>
        <time>2013-06-02T08:38:30Z</time>
      </trkpt>
      <trkpt lat="59.9463014" lon="17.6664201">
        <ele>25.6123</ele>
        <time>2013-06-02T08:38:31Z</time>
      </trkpt>
      <trkpt lat="59.94622" lon="17.6663697">
        <ele>25.6123</ele>
        <time>2013-06-02T08:38:32Z</time>
      </trkpt>
      <trkpt lat="59.9461386" lon="17.6663212">
        <ele>26.0929</ele>
        <time>2013-06-02T08:38:33Z</time>
      </trkpt>
      <trkpt lat="59.946056" lon="17.6662816">
        <ele>26.0929</ele>
        <time>2013-06-02T08:38:34Z</time>
      </trkpt>
      <trkpt lat="59.9459741" lon="17.666246">
        <ele>26.0929</ele>
        <time>2013-06-02T08:38:35Z</time>
      </trkpt>
      <trkpt lat="59.9458906" lon="17.6662154">
        <ele>26.5736</ele>
        <time>2013-06-02T08:38:36Z</time>
      </trkpt>
      <trkpt lat="59.9458052" lon="17.6661885">
        <ele>26.5736</ele>
        <time>2013-06-02T08:38:37Z</time>
      </trkpt>
      <trkpt lat="59.9457191" lon="17.6661635">
        <ele>26.5736</ele>
        <time>2013-06-02T08:38:38Z</time>
      </trkpt>
      <trkpt lat="59.9456336" lon="17.6661367">
        <ele>27.0543</ele>
        <time>2013-06-02T08:38:39Z</time>
      </trkpt>
      <trkpt lat="59.9455483" lon="17.6661072">
        <ele>27.0543</ele>
        <time>2013-06-02T08:38:40Z</time>
      </trkpt>
      <trkpt lat="59.9454631" lon="17.6660776">
        <ele>27.5349</ele>
        <time>2013-06-02T08:38:41Z</time>
      </trkpt>
      <trkpt lat="59.9453783" lon="17.6660477">
        <ele>27.5349</ele>
        <time>2013-06-02T08:38:42Z</time>
      </trkpt>
      <trkpt lat="59.9452943" lon="17.666017">
        <ele>28.0155</ele>
        <time>2013-06-02T08:38:43Z</time>
      </trkpt>
      <trkpt lat="59.9452111" lon="17.665984">
        <ele>28.0155</ele>
        <time>2013-06-02T08:38:44Z</time>
      </trkpt>
      <trkpt lat="59.9451295" lon="17.66595">
        <ele>28.0155</ele>
        <time>2013-06-02T08:38:45Z</time>
      </trkpt>
      <trkpt lat="59.9450479" lon="17.665916">
        <ele>28.4962</ele>
        <time>2013-06-02T08:38:46Z</time>
      </trkpt>
      <trkpt lat="59.9449665" lon="17.6658824">
        <ele>28.4962</ele>
        <time>2013-06-02T08:38:47Z</time>
      </trkpt>
      <trkpt lat="59.9448852" lon="17.6658506">
        <ele>28.4962</ele>
        <time>2013-06-02T08:38:48Z</time>
      </trkpt>
      <trkpt lat="59.9448044" lon="17.6658186">
        <ele>28.9769</ele>
        <time>2013-06-02T08:38:49Z</time>
      </trkpt>
      <trkpt lat="59.9447236" lon="17.6657859">
        <ele>28.9769</ele>
        <time>2013-06-02T08:38:50Z</time>
      </trkpt>
      <trkpt lat="59.9446427" lon="17.6657534">
        <ele>28.9769</ele>
        <time>2013-06-02T08:38:51Z</time>
      </trkpt>
      <trkpt lat="59.9445609" lon="17.6657196">
        <ele>29.4575</ele>
        <time>2013-06-02T08:38:52Z</time>
      </trkpt>
      <trkpt lat="59.944478" lon="17.6656858">
        <ele>29.4575</ele>
        <time>2013-06-02T08:38:53Z</time>
      </trkpt>
      <trkpt lat="59.9443948" lon="17.6656524">
        <ele>29.4575</ele>
        <time>2013-06-02T08:38:54Z</time>
      </trkpt>
      <trkpt lat="59.9443118" lon="17.6656181">
        <ele>29.9381</ele>
        <time>2013-06-02T08:38:55Z</time>
      </trkpt>
      <trkpt lat="59.9442284" lon="17.6655831">
        <ele>29.9381</ele>
        <time>2013-06-02T08:38:56Z</time>
      </trkpt>
      <trkpt lat="59.9441455" lon="17.6655473">
        <ele>29.9381</ele>
        <time>2013-06-02T08:38:57Z</time>
      </trkpt>
      <trkpt lat="59.9440631" lon="17.6655084">
        <ele>29.9381</ele>
        <time>2013-06-02T08:38:58Z</time>
      </trkpt>
      <trkpt lat="59.9439812" lon="17.6654675">
        <ele>30.4188</ele>
        <time>2013-06-02T08:38:59Z</time>
      </trkpt>
      <trkpt lat="59.9438997" lon="17.6654246">
        <ele>30.4188</ele>
        <time>2013-06-02T08:39:00Z</time>
      </trkpt>
      <trkpt lat="59.9438198" lon="17.6653782">
        <ele>30.8995</ele>
        <time>2013-06-02T08:39:01Z</time>
      </trkpt>
      <trkpt lat="59.9437412" lon="17.6653281">
        <ele>30.8995</ele>
        <time>2013-06-02T08:39:02Z</time>
      </trkpt>
      <trkpt lat="59.9436637" lon="17.6652758">
        <ele>30.8995</ele>
        <time>2013-06-02T08:39:03Z</time>
      </trkpt>
      <trkpt lat="59.9435867" lon="17.6652228">
        <ele>30.8995</ele>
        <time>2013-06-02T08:39:04Z</time>
      </trkpt>
      <trkpt lat="59.9435104" lon="17.6651691">
        <ele>31.3801</ele>
        <time>2013-06-02T08:39:05Z</time>
      </trkpt>
      <trkpt lat="59.9434351" lon="17.6651135">
        <ele>31.3801</ele>
        <time>2013-06-02T08:39:06Z</time>
      </trkpt>
      <trkpt lat="59.9433602" lon="17.6650539">
        <ele>31.3801</ele>
        <time>2013-06-02T08:39:07Z</time>
      </trkpt>
      <trkpt lat="59.9432856" lon="17.6649913">
        <ele>31.8607</ele>
        <time>2013-06-02T08:39:08Z</time>
      </trkpt>
      <trkpt lat="59.94321" lon="17.664928">
        <ele>31.8607</ele>
        <time>2013-06-02T08:39:09Z</time>
      </trkpt>
      <trkpt lat="59.9431341" lon="17.6648625">
        <ele>31.8607</ele>
        <time>2013-06-02T08:39:10Z</time>
      </trkpt>
      <trkpt lat="59.9430586" lon="17.6647935">
        <ele>31.8607</ele>
        <time>2013-06-02T08:39:11Z</time>
      </trkpt>
      <trkpt lat="59.9429841" lon="17.6647225">
        <ele>31.8607</ele>
        <time>2013-06-02T08:39:12Z</time>
      </trkpt>
      <trkpt lat="59.9429114" lon="17.6646503">
        <ele>31.8607</ele>
        <time>2013-06-02T08:39:13Z</time>
      </trkpt>
      <trkpt lat="59.9428402" lon="17.6645754">
        <ele>31.8607</ele>
        <time>2013-06-02T08:39:14Z</time>
      </trkpt>
      <trkpt lat="59.9427698" lon="17.6644986">
        <ele>31.8607</ele>
        <time>2013-06-02T08:39:15Z</time>
      </trkpt>
      <trkpt lat="59.9426996" lon="17.6644201">
        <ele>32.3416</ele>
        <time>2013-06-02T08:39:16Z</time>
      </trkpt>
      <trkpt lat="59.9426299" lon="17.66434">
        <ele>32.3416</ele>
        <time>2013-06-02T08:39:17Z</time>
      </trkpt>
      <trkpt lat="59.9425615" lon="17.6642572">
        <ele>32.3416</ele>
        <time>2013-06-02T08:39:18Z</time>
      </trkpt>
      <trkpt lat="59.9424941" lon="17.6641724">
        <ele>31.8607</ele>
        <time>2013-06-02T08:39:19Z</time>
      </trkpt>
      <trkpt lat="59.9424267" lon="17.6640876">
        <ele>31.8607</ele>
        <time>2013-06-02T08:39:20Z</time>
      </trkpt>
      <trkpt lat="59.9423592" lon="17.6640007">
        <ele>31.8607</ele>
        <time>2013-06-02T08:39:21Z</time>
      </trkpt>
      <trkpt lat="59.9422916" lon="17.6639102">
        <ele>31.8607</ele>
        <time>2013-06-02T08:39:22Z</time>
      </trkpt>
      <trkpt lat="59.9422242" lon="17.6638189">
        <ele>31.8607</ele>
        <time>2013-06-02T08:39:23Z</time>
      </trkpt>
      <trkpt lat="59.9421577" lon="17.6637272">
        <ele>31.8607</ele>
        <time>2013-06-02T08:39:24Z</time>
      </trkpt>
      <trkpt lat="59.942092" lon="17.6636346">
        <ele>31.8607</ele>
        <time>2013-06-02T08:39:25Z</time>
      </trkpt>
      <trkpt lat="59.9420279" lon="17.6635393">
        <ele>31.8607</ele>
        <time>2013-06-02T08:39:26Z</time>
      </trkpt>
      <trkpt lat="59.9419647" lon="17.663442">
        <ele>31.8607</ele>
        <time>2013-06-02T08:39:27Z</time>
      </trkpt>
      <trkpt lat="59.9419016" lon="17.6633437">
        <ele>31.3801</ele>
        <time>2013-06-02T08:39:28Z</time>
      </trkpt>
      <trkpt lat="59.9418391" lon="17.6632414">
        <ele>31.3801</ele>
        <time>2013-06-02T08:39:29Z</time>
      </trkpt>
      <trkpt lat="59.9417772" lon="17.6631328">
        <ele>31.3801</ele>
        <time>2013-06-02T08:39:30Z</time>
      </trkpt>
      <trkpt lat="59.9417161" lon="17.6630178">
        <ele>31.3801</ele>
        <time>2013-06-02T08:39:31Z</time>
      </trkpt>
      <trkpt lat="59.9416564" lon="17.6628976">
        <ele>31.3801</ele>
        <time>2013-06-02T08:39:32Z</time>
      </trkpt>
      <trkpt lat="59.9415954" lon="17.6627777">
        <ele>30.8995</ele>
        <time>2013-06-02T08:39:33Z</time>
      </trkpt>
      <trkpt lat="59.9415312" lon="17.6626612">
        <ele>30.8995</ele>
        <time>2013-06-02T08:39:34Z</time>
      </trkpt>
      <trkpt lat="59.9414638" lon="17.6625514">
        <ele>30.8995</ele>
        <time>2013-06-02T08:39:35Z</time>
      </trkpt>
      <trkpt lat="59.9413908" lon="17.6624525">
        <ele>30.4188</ele>
        <time>2013-06-02T08:39:36Z</time>
      </trkpt>
      <trkpt lat="59.9413135" lon="17.6623619">
        <ele>30.4188</ele>
        <time>2013-06-02T08:39:37Z</time>
      </trkpt>
      <trkpt lat="59.9412302" lon="17.6622823">
        <ele>30.4188</ele>
        <time>2013-06-02T08:39:38Z</time>
      </trkpt>
      <trkpt lat="59.9411455" lon="17.6622174">
        <ele>30.4188</ele>
        <time>2013-06-02T08:39:39Z</time>
      </trkpt>
      <trkpt lat="59.9410595" lon="17.6621654">
        <ele>30.4188</ele>
        <time>2013-06-02T08:39:40Z</time>
      </trkpt>
      <trkpt lat="59.9409716" lon="17.6621253">
        <ele>30.4188</ele>
        <time>2013-06-02T08:39:41Z</time>
      </trkpt>
      <trkpt lat="59.9408825" lon="17.6621004">
        <ele>29.9381</ele>
        <time>2013-06-02T08:39:42Z</time>
      </trkpt>
      <trkpt lat="59.9407932" lon="17.66209">
        <ele>30.4188</ele>
        <time>2013-06-02T08:39:43Z</time>
      </trkpt>
      <trkpt lat="59.9407042" lon="17.6620775">
        <ele>29.9381</ele>
        <time>2013-06-02T08:39:44Z</time>
      </trkpt>
      <trkpt lat="59.9406168" lon="17.6620342">
        <ele>29.9381</ele>
        <time>2013-06-02T08:39:45Z</time>
      </trkpt>
      <trkpt lat="59.9405391" lon="17.661947">
        <ele>29.9381</ele>
        <time>2013-06-02T08:39:46Z</time>
      </trkpt>
      <trkpt lat="59.9404722" lon="17.6618206">
        <ele>29.9381</ele>
        <time>2013-06-02T08:39:47Z</time>
      </trkpt>
      <trkpt lat="59.9404225" lon="17.6616611">
        <ele>29.4575</ele>
        <time>2013-06-02T08:39:48Z</time>
      </trkpt>
      <trkpt lat="59.9403914" lon="17.6614793">
        <ele>29.4575</ele>
        <time>2013-06-02T08:39:49Z</time>
      </trkpt>
      <trkpt lat="59.9403744" lon="17.6612853">
        <ele>28.9769</ele>
        <time>2013-06-02T08:39:50Z</time>
      </trkpt>
      <trkpt lat="59.940377" lon="17.6610864">
        <ele>28.9769</ele>
        <time>2013-06-02T08:39:51Z</time>
      </trkpt>
      <trkpt lat="59.9404035" lon="17.6608955">
        <ele>28.4962</ele>
        <time>2013-06-02T08:39:52Z</time>
      </trkpt>
      <trkpt lat="59.9404452" lon="17.66072">
        <ele>28.9769</ele>
        <time>2013-06-02T08:39:53Z</time>
      </trkpt>
      <trkpt lat="59.9404852" lon="17.6605495">
        <ele>29.4575</ele>
        <time>2013-06-02T08:39:54Z</time>
      </trkpt>
      <trkpt lat="59.9405179" lon="17.6603848">
        <ele>28.9769</ele>
        <time>2013-06-02T08:39:55Z</time>
      </trkpt>
      <trkpt lat="59.9405338" lon="17.6602273">
        <ele>28.4962</ele>
        <time>2013-06-02T08:39:56Z</time>
      </trkpt>
      <trkpt lat="59.940526" lon="17.6600501">
        <ele>28.4962</ele>
        <time>2013-06-02T08:39:57Z</time>
      </trkpt>
      <trkpt lat="59.9404798" lon="17.6598964">
        <ele>29.9381</ele>
        <time>2013-06-02T08:39:58Z</time>
      </trkpt>
      <trkpt lat="59.9404526" lon="17.6597553">
        <ele>30.4188</ele>
        <time>2013-06-02T08:39:59Z</time>
      </trkpt>
      <trkpt lat="59.9404092" lon="17.6596066">
        <ele>30.4188</ele>
        <time>2013-06-02T08:40:00Z</time>
      </trkpt>
      <trkpt lat="59.9403667" lon="17.6594636">
        <ele>30.8995</ele>
        <time>2013-06-02T08:40:01Z</time>
      </trkpt>
      <trkpt lat="59.9403296" lon="17.65932">
        <ele>30.4188</ele>
        <time>2013-06-02T08:40:02Z</time>
      </trkpt>
      <trkpt lat="59.9402987" lon="17.6591602">
        <ele>29.9381</ele>
        <time>2013-06-02T08:40:03Z</time>
      </trkpt>
      <trkpt lat="59.9402676" lon="17.6589934">
        <ele>29.9381</ele>
        <time>2013-06-02T08:40:04Z</time>
      </trkpt>
      <trkpt lat="59.9402344" lon="17.6588266">
        <ele>29.4575</ele>
        <time>2013-06-02T08:40:05Z</time>
      </trkpt>
      <trkpt lat="59.9401991" lon="17.6586612">
        <ele>29.9381</ele>
        <time>2013-06-02T08:40:06Z</time>
      </trkpt>
      <trkpt lat="59.9401616" lon="17.6584975">
        <ele>29.9381</ele>
        <time>2013-06-02T08:40:07Z</time>
      </trkpt>
      <trkpt lat="59.9401246" lon="17.6583351">
        <ele>29.9381</ele>
        <time>2013-06-02T08:40:08Z</time>
      </trkpt>
      <trkpt lat="59.940089" lon="17.6581738">
        <ele>30.4188</ele>
        <time>2013-06-02T08:40:09Z</time>
      </trkpt>
      <trkpt lat="59.9400548" lon="17.6580133">
        <ele>30.4188</ele>
        <time>2013-06-02T08:40:10Z</time>
      </trkpt>
      <trkpt lat="59.9400211" lon="17.6578553">
        <ele>30.8995</ele>
        <time>2013-06-02T08:40:11Z</time>
      </trkpt>
      <trkpt lat="59.939987" lon="17.6576998">
        <ele>30.8995</ele>
        <time>2013-06-02T08:40:12Z</time>
      </trkpt>
      <trkpt lat="59.9399535" lon="17.6575453">
        <ele>31.3801</ele>
        <time>2013-06-02T08:40:13Z</time>
      </trkpt>
      <trkpt lat="59.9399209" lon="17.657391">
        <ele>31.3801</ele>
        <time>2013-06-02T08:40:14Z</time>
      </trkpt>
      <trkpt lat="59.9398911" lon="17.6572377">
        <ele>31.8607</ele>
        <time>2013-06-02T08:40:15Z</time>
      </trkpt>
      <trkpt lat="59.93986" lon="17.6570853">
        <ele>32.3416</ele>
        <time>2013-06-02T08:40:16Z</time>
      </trkpt>
      <trkpt lat="59.939828" lon="17.6569343">
        <ele>32.3416</ele>
        <time>2013-06-02T08:40:17Z</time>
      </trkpt>
      <trkpt lat="59.9397961" lon="17.6567839">
        <ele>32.8223</ele>
        <time>2013-06-02T08:40:18Z</time>
      </trkpt>
      <trkpt lat="59.9397656" lon="17.6566323">
        <ele>32.8223</ele>
        <time>2013-06-02T08:40:19Z</time>
      </trkpt>
      <trkpt lat="59.9397355" lon="17.6564799">
        <ele>33.3029</ele>
        <time>2013-06-02T08:40:20Z</time>
      </trkpt>
      <trkpt lat="59.9397051" lon="17.656327">
        <ele>33.3029</ele>
        <time>2013-06-02T08:40:21Z</time>
      </trkpt>
      <trkpt lat="59.9396759" lon="17.6561734">
        <ele>33.3029</ele>
        <time>2013-06-02T08:40:22Z</time>
      </trkpt>
      <trkpt lat="59.9396469" lon="17.6560193">
        <ele>33.7834</ele>
        <time>2013-06-02T08:40:23Z</time>
      </trkpt>
      <trkpt lat="59.9396181" lon="17.6558649">
        <ele>33.7834</ele>
        <time>2013-06-02T08:40:24Z</time>
      </trkpt>
      <trkpt lat="59.9395878" lon="17.6557123">
        <ele>33.7834</ele>
        <time>2013-06-02T08:40:25Z</time>
      </trkpt>
      <trkpt lat="59.9395559" lon="17.6555645">
        <ele>33.7834</ele>
        <time>2013-06-02T08:40:26Z</time>
      </trkpt>
      <trkpt lat="59.9395248" lon="17.6554125">
        <ele>33.7834</ele>
        <time>2013-06-02T08:40:27Z</time>
      </trkpt>
      <trkpt lat="59.9394946" lon="17.6552593">
        <ele>33.7834</ele>
        <time>2013-06-02T08:40:28Z</time>
      </trkpt>
      <trkpt lat="59.9394637" lon="17.6551056">
        <ele>33.7834</ele>
        <time>2013-06-02T08:40:29Z</time>
      </trkpt>
      <trkpt lat="59.9394331" lon="17.6549507">
        <ele>33.7834</ele>
        <time>2013-06-02T08:40:30Z</time>
      </trkpt>
      <trkpt lat="59.939403" lon="17.6547965">
        <ele>33.7834</ele>
        <time>2013-06-02T08:40:31Z</time>
      </trkpt>
      <trkpt lat="59.939372" lon="17.654642">
        <ele>34.2642</ele>
        <time>2013-06-02T08:40:32Z</time>
      </trkpt>
      <trkpt lat="59.9393405" lon="17.6544863">
        <ele>34.2642</ele>
        <time>2013-06-02T08:40:33Z</time>
      </trkpt>
      <trkpt lat="59.9393081" lon="17.6543321">
        <ele>34.2642</ele>
        <time>2013-06-02T08:40:34Z</time>
      </trkpt>
      <trkpt lat="59.9392742" lon="17.6541783">
        <ele>34.2642</ele>
        <time>2013-06-02T08:40:35Z</time>
      </trkpt>
      <trkpt lat="59.9392397" lon="17.6540242">
        <ele>34.2642</ele>
        <time>2013-06-02T08:40:36Z</time>
      </trkpt>
      <trkpt lat="59.9392057" lon="17.6538691">
        <ele>33.7834</ele>
        <time>2013-06-02T08:40:37Z</time>
      </trkpt>
      <trkpt lat="59.9391722" lon="17.6537097">
        <ele>34.2642</ele>
        <time>2013-06-02T08:40:38Z</time>
      </trkpt>
      <trkpt lat="59.9391395" lon="17.6535496">
        <ele>34.2642</ele>
        <time>2013-06-02T08:40:39Z</time>
      </trkpt>
      <trkpt lat="59.9391062" lon="17.6533916">
        <ele>34.2642</ele>
        <time>2013-06-02T08:40:40Z</time>
      </trkpt>
      <trkpt lat="59.9390709" lon="17.6532329">
        <ele>34.2642</ele>
        <time>2013-06-02T08:40:41Z</time>
      </trkpt>
      <trkpt lat="59.9390352" lon="17.6530729">
        <ele>34.2642</ele>
        <time>2013-06-02T08:40:42Z</time>
      </trkpt>
      <trkpt lat="59.9389983" lon="17.6529119">
        <ele>34.2642</ele>
        <time>2013-06-02T08:40:43Z</time>
      </trkpt>
      <trkpt lat="59.9389593" lon="17.6527528">
        <ele>34.2642</ele>
        <time>2013-06-02T08:40:44Z</time>
      </trkpt>
      <trkpt lat="59.9389196" lon="17.6525969">
        <ele>34.2642</ele>
        <time>2013-06-02T08:40:45Z</time>
      </trkpt>
      <trkpt lat="59.9388789" lon="17.6524411">
        <ele>34.2642</ele>
        <time>2013-06-02T08:40:46Z</time>
      </trkpt>
      <trkpt lat="59.938837" lon="17.6522809">
        <ele>34.7449</ele>
        <time>2013-06-02T08:40:47Z</time>
      </trkpt>
      <trkpt lat="59.9387944" lon="17.6521249">
        <ele>34.7449</ele>
        <time>2013-06-02T08:40:48Z</time>
      </trkpt>
      <trkpt lat="59.9387505" lon="17.6519743">
        <ele>34.7449</ele>
        <time>2013-06-02T08:40:49Z</time>
      </trkpt>
      <trkpt lat="59.9387063" lon="17.6518237">
        <ele>34.7449</ele>
        <time>2013-06-02T08:40:50Z</time>
      </trkpt>
      <trkpt lat="59.9386613" lon="17.6516739">
        <ele>34.7449</ele>
        <time>2013-06-02T08:40:51Z</time>
      </trkpt>
      <trkpt lat="59.9386156" lon="17.6515237">
        <ele>34.7449</ele>
        <time>2013-06-02T08:40:52Z</time>
      </trkpt>
      <trkpt lat="59.9385679" lon="17.6513739">
        <ele>34.7449</ele>
        <time>2013-06-02T08:40:53Z</time>
      </trkpt>
      <trkpt lat="59.9385187" lon="17.6512258">
        <ele>34.7449</ele>
        <time>2013-06-02T08:40:54Z</time>
      </trkpt>
      <trkpt lat="59.938468" lon="17.6510796">
        <ele>34.7449</ele>
        <time>2013-06-02T08:40:55Z</time>
      </trkpt>
      <trkpt lat="59.9384138" lon="17.6509379">
        <ele>34.7449</ele>
        <time>2013-06-02T08:40:56Z</time>
      </trkpt>
      <trkpt lat="59.9383562" lon="17.6508026">
        <ele>35.2255</ele>
        <time>2013-06-02T08:40:57Z</time>
      </trkpt>
      <trkpt lat="59.9382939" lon="17.6506734">
        <ele>35.2255</ele>
        <time>2013-06-02T08:40:58Z</time>
      </trkpt>
      <trkpt lat="59.9382345" lon="17.6505379">
        <ele>35.7061</ele>
        <time>2013-06-02T08:40:59Z</time>
      </trkpt>
      <trkpt lat="59.9381825" lon="17.6503952">
        <ele>35.7061</ele>
        <time>2013-06-02T08:41:00Z</time>
      </trkpt>
      <trkpt lat="59.9381328" lon="17.6502526">
        <ele>36.1868</ele>
        <time>2013-06-02T08:41:01Z</time>
      </trkpt>
      <trkpt lat="59.938083" lon="17.6501104">
        <ele>36.1868</ele>
        <time>2013-06-02T08:41:02Z</time>
      </trkpt>
      <trkpt lat="59.9380319" lon="17.6499708">
        <ele>36.6675</ele>
        <time>2013-06-02T08:41:03Z</time>
      </trkpt>
      <trkpt lat="59.9379799" lon="17.6498373">
        <ele>36.6675</ele>
        <time>2013-06-02T08:41:04Z</time>
      </trkpt>
      <trkpt lat="59.9379262" lon="17.6497084">
        <ele>36.6675</ele>
        <time>2013-06-02T08:41:05Z</time>
      </trkpt>
      <trkpt lat="59.9378722" lon="17.6495804">
        <ele>36.6675</ele>
        <time>2013-06-02T08:41:06Z</time>
      </trkpt>
      <trkpt lat="59.9378207" lon="17.6494475">
        <ele>36.6675</ele>
        <time>2013-06-02T08:41:07Z</time>
      </trkpt>
      <trkpt lat="59.9377704" lon="17.6493113">
        <ele>37.1481</ele>
        <time>2013-06-02T08:41:08Z</time>
      </trkpt>
      <trkpt lat="59.9377231" lon="17.6491775">
        <ele>37.1481</ele>
        <time>2013-06-02T08:41:09Z</time>
      </trkpt>
      <trkpt lat="59.9376693" lon="17.6490543">
        <ele>37.1481</ele>
        <time>2013-06-02T08:41:10Z</time>
      </trkpt>
      <trkpt lat="59.937616" lon="17.64893">
        <ele>37.1481</ele>
        <time>2013-06-02T08:41:11Z</time>
      </trkpt>
      <trkpt lat="59.9375666" lon="17.6488015">
        <ele>37.1481</ele>
        <time>2013-06-02T08:41:12Z</time>
      </trkpt>
      <trkpt lat="59.9375186" lon="17.6486756">
        <ele>37.1481</ele>
        <time>2013-06-02T08:41:13Z</time>
      </trkpt>
      <trkpt lat="59.9374693" lon="17.6485555">
        <ele>37.6287</ele>
        <time>2013-06-02T08:41:14Z</time>
      </trkpt>
      <trkpt lat="59.9374221" lon="17.6484352">
        <ele>37.6287</ele>
        <time>2013-06-02T08:41:15Z</time>
      </trkpt>
      <trkpt lat="59.937376" lon="17.6483146">
        <ele>37.6287</ele>
        <time>2013-06-02T08:41:16Z</time>
      </trkpt>
      <trkpt lat="59.9373229" lon="17.6481989">
        <ele>37.6287</ele>
        <time>2013-06-02T08:41:17Z</time>
      </trkpt>
      <trkpt lat="59.9372594" lon="17.6480955">
        <ele>38.1094</ele>
        <time>2013-06-02T08:41:18Z</time>
      </trkpt>
      <trkpt lat="59.9371936" lon="17.6480067">
        <ele>38.1094</ele>
        <time>2013-06-02T08:41:19Z</time>
      </trkpt>
      <trkpt lat="59.9371266" lon="17.6479281">
        <ele>37.6287</ele>
        <time>2013-06-02T08:41:20Z</time>
      </trkpt>
      <trkpt lat="59.9370592" lon="17.6478516">
        <ele>37.6287</ele>
        <time>2013-06-02T08:41:21Z</time>
      </trkpt>
      <trkpt lat="59.9369923" lon="17.6477706">
        <ele>37.1481</ele>
        <time>2013-06-02T08:41:22Z</time>
      </trkpt>
      <trkpt lat="59.9369245" lon="17.6476886">
        <ele>36.6675</ele>
        <time>2013-06-02T08:41:23Z</time>
      </trkpt>
      <trkpt lat="59.9368561" lon="17.6476085">
        <ele>36.6675</ele>
        <time>2013-06-02T08:41:24Z</time>
      </trkpt>
      <trkpt lat="59.9367869" lon="17.6475271">
        <ele>36.6675</ele>
        <time>2013-06-02T08:41:25Z</time>
      </trkpt>
      <trkpt lat="59.936717" lon="17.6474391">
        <ele>36.6675</ele>
        <time>2013-06-02T08:41:26Z</time>
      </trkpt>
      <trkpt lat="59.9366473" lon="17.647345">
        <ele>36.6675</ele>
        <time>2013-06-02T08:41:27Z</time>
      </trkpt>
      <trkpt lat="59.9365759" lon="17.6472507">
        <ele>36.6675</ele>
        <time>2013-06-02T08:41:28Z</time>
      </trkpt>
      <trkpt lat="59.9365028" lon="17.6471575">
        <ele>36.6675</ele>
        <time>2013-06-02T08:41:29Z</time>
      </trkpt>
      <trkpt lat="59.9364302" lon="17.6470657">
        <ele>36.6675</ele>
        <time>2013-06-02T08:41:30Z</time>
      </trkpt>
      <trkpt lat="59.9363577" lon="17.6469774">
        <ele>36.6675</ele>
        <time>2013-06-02T08:41:31Z</time>
      </trkpt>
      <trkpt lat="59.9362862" lon="17.6468925">
        <ele>36.1868</ele>
        <time>2013-06-02T08:41:32Z</time>
      </trkpt>
      <trkpt lat="59.9362174" lon="17.6467999">
        <ele>36.1868</ele>
        <time>2013-06-02T08:41:33Z</time>
      </trkpt>
      <trkpt lat="59.9361489" lon="17.6467067">
        <ele>36.1868</ele>
        <time>2013-06-02T08:41:34Z</time>
      </trkpt>
      <trkpt lat="59.936076" lon="17.646619">
        <ele>36.1868</ele>
        <time>2013-06-02T08:41:35Z</time>
      </trkpt>
      <trkpt lat="59.936006" lon="17.6465392">
        <ele>36.1868</ele>
        <time>2013-06-02T08:41:36Z</time>
      </trkpt>
      <trkpt lat="59.9359374" lon="17.6464623">
        <ele>35.7061</ele>
        <time>2013-06-02T08:41:37Z</time>
      </trkpt>
      <trkpt lat="59.9358739" lon="17.6463832">
        <ele>35.2255</ele>
        <time>2013-06-02T08:41:38Z</time>
      </trkpt>
      <trkpt lat="59.9358112" lon="17.6463057">
        <ele>35.7061</ele>
        <time>2013-06-02T08:41:39Z</time>
      </trkpt>
      <trkpt lat="59.9357463" lon="17.6462266">
        <ele>35.2255</ele>
        <time>2013-06-02T08:41:40Z</time>
      </trkpt>
      <trkpt lat="59.9356807" lon="17.6461441">
        <ele>35.2255</ele>
        <time>2013-06-02T08:41:41Z</time>
      </trkpt>
      <trkpt lat="59.9356139" lon="17.6460612">
        <ele>35.2255</ele>
        <time>2013-06-02T08:41:42Z</time>
      </trkpt>
      <trkpt lat="59.935548" lon="17.6459777">
        <ele>34.7449</ele>
        <time>2013-06-02T08:41:43Z</time>
      </trkpt>
      <trkpt lat="59.9354807" lon="17.6458969">
        <ele>34.7449</ele>
        <time>2013-06-02T08:41:44Z</time>
      </trkpt>
      <trkpt lat="59.9354113" lon="17.6458223">
        <ele>34.7449</ele>
        <time>2013-06-02T08:41:45Z</time>
      </trkpt>
      <trkpt lat="59.9353412" lon="17.6457497">
        <ele>34.7449</ele>
        <time>2013-06-02T08:41:46Z</time>
      </trkpt>
      <trkpt lat="59.9352718" lon="17.6456737">
        <ele>34.2642</ele>
        <time>2013-06-02T08:41:47Z</time>
      </trkpt>
      <trkpt lat="59.9352029" lon="17.6455913">
        <ele>34.2642</ele>
        <time>2013-06-02T08:41:48Z</time>
      </trkpt>
      <trkpt lat="59.9351347" lon="17.6455058">
        <ele>34.2642</ele>
        <time>2013-06-02T08:41:49Z</time>
      </trkpt>
      <trkpt lat="59.9350666" lon="17.6454216">
        <ele>33.7834</ele>
        <time>2013-06-02T08:41:50Z</time>
      </trkpt>
      <trkpt lat="59.9349979" lon="17.6453415">
        <ele>33.7834</ele>
        <time>2013-06-02T08:41:51Z</time>
      </trkpt>
      <trkpt lat="59.9349301" lon="17.6452617">
        <ele>33.7834</ele>
        <time>2013-06-02T08:41:52Z</time>
      </trkpt>
      <trkpt lat="59.9348637" lon="17.6451792">
        <ele>33.7834</ele>
        <time>2013-06-02T08:41:53Z</time>
      </trkpt>
      <trkpt lat="59.9347984" lon="17.6450929">
        <ele>33.7834</ele>
        <time>2013-06-02T08:41:54Z</time>
      </trkpt>
      <trkpt lat="59.9347333" lon="17.645002">
        <ele>33.3029</ele>
        <time>2013-06-02T08:41:55Z</time>
      </trkpt>
      <trkpt lat="59.9346662" lon="17.6449131">
        <ele>33.3029</ele>
        <time>2013-06-02T08:41:56Z</time>
      </trkpt>
      <trkpt lat="59.9346012" lon="17.6448238">
        <ele>32.8223</ele>
        <time>2013-06-02T08:41:57Z</time>
      </trkpt>
      <trkpt lat="59.9345338" lon="17.6447354">
        <ele>32.3416</ele>
        <time>2013-06-02T08:41:58Z</time>
      </trkpt>
      <trkpt lat="59.9344683" lon="17.6446381">
        <ele>32.3416</ele>
        <time>2013-06-02T08:41:59Z</time>
      </trkpt>
      <trkpt lat="59.9344043" lon="17.6445295">
        <ele>31.3801</ele>
        <time>2013-06-02T08:42:00Z</time>
      </trkpt>
      <trkpt lat="59.9343359" lon="17.6444179">
        <ele>30.8995</ele>
        <time>2013-06-02T08:42:01Z</time>
      </trkpt>
      <trkpt lat="59.9342603" lon="17.644311">
        <ele>30.8995</ele>
        <time>2013-06-02T08:42:02Z</time>
      </trkpt>
      <trkpt lat="59.9341814" lon="17.6442088">
        <ele>30.8995</ele>
        <time>2013-06-02T08:42:03Z</time>
      </trkpt>
      <trkpt lat="59.9341012" lon="17.6441079">
        <ele>30.4188</ele>
        <time>2013-06-02T08:42:04Z</time>
      </trkpt>
      <trkpt lat="59.9340208" lon="17.6440074">
        <ele>30.4188</ele>
        <time>2013-06-02T08:42:05Z</time>
      </trkpt>
      <trkpt lat="59.9339386" lon="17.6439115">
        <ele>30.4188</ele>
        <time>2013-06-02T08:42:06Z</time>
      </trkpt>
      <trkpt lat="59.9338537" lon="17.6438229">
        <ele>30.4188</ele>
        <time>2013-06-02T08:42:07Z</time>
      </trkpt>
      <trkpt lat="59.933766" lon="17.6437406">
        <ele>30.4188</ele>
        <time>2013-06-02T08:42:08Z</time>
      </trkpt>
      <trkpt lat="59.9336768" lon="17.6436587">
        <ele>29.9381</ele>
        <time>2013-06-02T08:42:09Z</time>
      </trkpt>
      <trkpt lat="59.933589" lon="17.643566">
        <ele>29.9381</ele>
        <time>2013-06-02T08:42:10Z</time>
      </trkpt>
      <trkpt lat="59.9335014" lon="17.6434619">
        <ele>29.9381</ele>
        <time>2013-06-02T08:42:11Z</time>
      </trkpt>
      <trkpt lat="59.9334135" lon="17.6433474">
        <ele>29.4575</ele>
        <time>2013-06-02T08:42:12Z</time>
      </trkpt>
      <trkpt lat="59.9333268" lon="17.6432205">
        <ele>28.4962</ele>
        <time>2013-06-02T08:42:13Z</time>
      </trkpt>
      <trkpt lat="59.9332392" lon="17.6430832">
        <ele>28.0155</ele>
        <time>2013-06-02T08:42:14Z</time>
      </trkpt>
      <trkpt lat="59.9331488" lon="17.6429437">
        <ele>27.0543</ele>
        <time>2013-06-02T08:42:15Z</time>
      </trkpt>
      <trkpt lat="59.9330558" lon="17.6428069">
        <ele>26.0929</ele>
        <time>2013-06-02T08:42:16Z</time>
      </trkpt>
      <trkpt lat="59.9329601" lon="17.6426758">
        <ele>25.6123</ele>
        <time>2013-06-02T08:42:17Z</time>
      </trkpt>
      <trkpt lat="59.9328675" lon="17.6425387">
        <ele>25.1317</ele>
        <time>2013-06-02T08:42:18Z</time>
      </trkpt>
      <trkpt lat="59.9327803" lon="17.6423902">
        <ele>24.1703</ele>
        <time>2013-06-02T08:42:19Z</time>
      </trkpt>
      <trkpt lat="59.9326918" lon="17.6422446">
        <ele>23.6896</ele>
        <time>2013-06-02T08:42:20Z</time>
      </trkpt>
      <trkpt lat="59.9325962" lon="17.6421161">
        <ele>23.209</ele>
        <time>2013-06-02T08:42:21Z</time>
      </trkpt>
      <trkpt lat="59.9324952" lon="17.6420043">
        <ele>23.209</ele>
        <time>2013-06-02T08:42:22Z</time>
      </trkpt>
      <trkpt lat="59.9323916" lon="17.6419026">
        <ele>23.209</ele>
        <time>2013-06-02T08:42:23Z</time>
      </trkpt>
      <trkpt lat="59.9322882" lon="17.6418072">
        <ele>22.7283</ele>
        <time>2013-06-02T08:42:24Z</time>
      </trkpt>
      <trkpt lat="59.9321877" lon="17.6417146">
        <ele>22.7283</ele>
        <time>2013-06-02T08:42:25Z</time>
      </trkpt>
      <trkpt lat="59.9320902" lon="17.641624">
        <ele>23.209</ele>
        <time>2013-06-02T08:42:26Z</time>
      </trkpt>
      <trkpt lat="59.9319936" lon="17.6415398">
        <ele>23.209</ele>
        <time>2013-06-02T08:42:27Z</time>
      </trkpt>
      <trkpt lat="59.9318938" lon="17.641465">
        <ele>23.209</ele>
        <time>2013-06-02T08:42:28Z</time>
      </trkpt>
      <trkpt lat="59.9317909" lon="17.641396">
        <ele>23.209</ele>
        <time>2013-06-02T08:42:29Z</time>
      </trkpt>
      <trkpt lat="59.9316893" lon="17.6413276">
        <ele>23.209</ele>
        <time>2013-06-02T08:42:30Z</time>
      </trkpt>
      <trkpt lat="59.9315896" lon="17.6412603">
        <ele>23.209</ele>
        <time>2013-06-02T08:42:31Z</time>
      </trkpt>
      <trkpt lat="59.9314922" lon="17.6411941">
        <ele>23.209</ele>
        <time>2013-06-02T08:42:32Z</time>
      </trkpt>
      <trkpt lat="59.9313976" lon="17.6411247">
        <ele>23.209</ele>
        <time>2013-06-02T08:42:33Z</time>
      </trkpt>
      <trkpt lat="59.9313033" lon="17.641053">
        <ele>23.209</ele>
        <time>2013-06-02T08:42:34Z</time>
      </trkpt>
      <trkpt lat="59.9312054" lon="17.6409805">
        <ele>22.7283</ele>
        <time>2013-06-02T08:42:35Z</time>
      </trkpt>
      <trkpt lat="59.9311033" lon="17.6409068">
        <ele>22.2476</ele>
        <time>2013-06-02T08:42:36Z</time>
      </trkpt>
      <trkpt lat="59.9309979" lon="17.6408361">
        <ele>21.767</ele>
        <time>2013-06-02T08:42:37Z</time>
      </trkpt>
      <trkpt lat="59.9308902" lon="17.6407816">
        <ele>22.2476</ele>
        <time>2013-06-02T08:42:38Z</time>
      </trkpt>
      <trkpt lat="59.9307804" lon="17.6407521">
        <ele>22.2476</ele>
        <time>2013-06-02T08:42:39Z</time>
      </trkpt>
      <trkpt lat="59.9306724" lon="17.6407471">
        <ele>22.2476</ele>
        <time>2013-06-02T08:42:40Z</time>
      </trkpt>
      <trkpt lat="59.9305638" lon="17.6407578">
        <ele>21.767</ele>
        <time>2013-06-02T08:42:41Z</time>
      </trkpt>
      <trkpt lat="59.9304538" lon="17.6407717">
        <ele>21.2864</ele>
        <time>2013-06-02T08:42:42Z</time>
      </trkpt>
      <trkpt lat="59.9303422" lon="17.640777">
        <ele>20.8057</ele>
        <time>2013-06-02T08:42:43Z</time>
      </trkpt>
      <trkpt lat="59.9302301" lon="17.640775">
        <ele>20.325</ele>
        <time>2013-06-02T08:42:44Z</time>
      </trkpt>
      <trkpt lat="59.9301182" lon="17.6407728">
        <ele>20.325</ele>
        <time>2013-06-02T08:42:45Z</time>
      </trkpt>
      <trkpt lat="59.9300034" lon="17.6407849">
        <ele>19.8444</ele>
        <time>2013-06-02T08:42:46Z</time>
      </trkpt>
      <trkpt lat="59.9298923" lon="17.640788">
        <ele>19.8444</ele>
        <time>2013-06-02T08:42:47Z</time>
      </trkpt>
      <trkpt lat="59.9297848" lon="17.6407998">
        <ele>19.8444</ele>
        <time>2013-06-02T08:42:48Z</time>
      </trkpt>
      <trkpt lat="59.9296793" lon="17.6408148">
        <ele>19.3638</ele>
        <time>2013-06-02T08:42:49Z</time>
      </trkpt>
      <trkpt lat="59.9295734" lon="17.6408355">
        <ele>19.3638</ele>
        <time>2013-06-02T08:42:50Z</time>
      </trkpt>
      <trkpt lat="59.9294676" lon="17.6408569">
        <ele>18.8831</ele>
        <time>2013-06-02T08:42:51Z</time>
      </trkpt>
      <trkpt lat="59.9293625" lon="17.6408728">
        <ele>18.4023</ele>
        <time>2013-06-02T08:42:52Z</time>
      </trkpt>
      <trkpt lat="59.9292585" lon="17.640884">
        <ele>18.4023</ele>
        <time>2013-06-02T08:42:53Z</time>
      </trkpt>
      <trkpt lat="59.9291556" lon="17.6408899">
        <ele>18.4023</ele>
        <time>2013-06-02T08:42:54Z</time>
      </trkpt>
      <trkpt lat="59.9290538" lon="17.6408949">
        <ele>17.9218</ele>
        <time>2013-06-02T08:42:55Z</time>
      </trkpt>
      <trkpt lat="59.9289538" lon="17.6409043">
        <ele>17.9218</ele>
        <time>2013-06-02T08:42:56Z</time>
      </trkpt>
      <trkpt lat="59.9288554" lon="17.6409189">
        <ele>17.9218</ele>
        <time>2013-06-02T08:42:57Z</time>
      </trkpt>
      <trkpt lat="59.9287586" lon="17.6409371">
        <ele>17.9218</ele>
        <time>2013-06-02T08:42:58Z</time>
      </trkpt>
      <trkpt lat="59.928664" lon="17.6409589">
        <ele>17.9218</ele>
        <time>2013-06-02T08:42:59Z</time>
      </trkpt>
      <trkpt lat="59.9285709" lon="17.6409809">
        <ele>17.4412</ele>
        <time>2013-06-02T08:43:00Z</time>
      </trkpt>
      <trkpt lat="59.9284777" lon="17.6409947">
        <ele>17.4412</ele>
        <time>2013-06-02T08:43:01Z</time>
      </trkpt>
      <trkpt lat="59.9283838" lon="17.6410044">
        <ele>17.4412</ele>
        <time>2013-06-02T08:43:02Z</time>
      </trkpt>
      <trkpt lat="59.92829" lon="17.6410153">
        <ele>17.4412</ele>
        <time>2013-06-02T08:43:03Z</time>
      </trkpt>
      <trkpt lat="59.9281968" lon="17.6410267">
        <ele>16.9604</ele>
        <time>2013-06-02T08:43:04Z</time>
      </trkpt>
      <trkpt lat="59.9281043" lon="17.6410372">
        <ele>16.9604</ele>
        <time>2013-06-02T08:43:05Z</time>
      </trkpt>
      <trkpt lat="59.9280121" lon="17.6410464">
        <ele>16.9604</ele>
        <time>2013-06-02T08:43:06Z</time>
      </trkpt>
      <trkpt lat="59.9279198" lon="17.6410551">
        <ele>16.9604</ele>
        <time>2013-06-02T08:43:07Z</time>
      </trkpt>
      <trkpt lat="59.9278276" lon="17.6410662">
        <ele>16.4797</ele>
        <time>2013-06-02T08:43:08Z</time>
      </trkpt>
      <trkpt lat="59.9277349" lon="17.6410773">
        <ele>16.4797</ele>
        <time>2013-06-02T08:43:09Z</time>
      </trkpt>
      <trkpt lat="59.9276418" lon="17.6410871">
        <ele>16.4797</ele>
        <time>2013-06-02T08:43:10Z</time>
      </trkpt>
      <trkpt lat="59.9275486" lon="17.6410976">
        <ele>16.4797</ele>
        <time>2013-06-02T08:43:11Z</time>
      </trkpt>
      <trkpt lat="59.9274557" lon="17.641108">
        <ele>16.4797</ele>
        <time>2013-06-02T08:43:12Z</time>
      </trkpt>
      <trkpt lat="59.927363" lon="17.6411153">
        <ele>16.4797</ele>
        <time>2013-06-02T08:43:13Z</time>
      </trkpt>
      <trkpt lat="59.9272702" lon="17.6411199">
        <ele>16.4797</ele>
        <time>2013-06-02T08:43:14Z</time>
      </trkpt>
      <trkpt lat="59.9271776" lon="17.6411267">
        <ele>15.999</ele>
        <time>2013-06-02T08:43:15Z</time>
      </trkpt>
      <trkpt lat="59.9270853" lon="17.6411363">
        <ele>15.999</ele>
        <time>2013-06-02T08:43:16Z</time>
      </trkpt>
      <trkpt lat="59.9269926" lon="17.6411448">
        <ele>15.999</ele>
        <time>2013-06-02T08:43:17Z</time>
      </trkpt>
      <trkpt lat="59.9268997" lon="17.6411529">
        <ele>15.999</ele>
        <time>2013-06-02T08:43:18Z</time>
      </trkpt>
      <trkpt lat="59.9268067" lon="17.6411614">
        <ele>15.5184</ele>
        <time>2013-06-02T08:43:19Z</time>
      </trkpt>
      <trkpt lat="59.9267142" lon="17.6411716">
        <ele>15.5184</ele>
        <time>2013-06-02T08:43:20Z</time>
      </trkpt>
      <trkpt lat="59.9266216" lon="17.6411824">
        <ele>15.5184</ele>
        <time>2013-06-02T08:43:21Z</time>
      </trkpt>
      <trkpt lat="59.9265281" lon="17.6411943">
        <ele>15.5184</ele>
        <time>2013-06-02T08:43:22Z</time>
      </trkpt>
      <trkpt lat="59.9264342" lon="17.641208">
        <ele>15.5184</ele>
        <time>2013-06-02T08:43:23Z</time>
      </trkpt>
      <trkpt lat="59.92634" lon="17.6412193">
        <ele>15.5184</ele>
        <time>2013-06-02T08:43:24Z</time>
      </trkpt>
      <trkpt lat="59.9262461" lon="17.6412292">
        <ele>15.5184</ele>
        <time>2013-06-02T08:43:25Z</time>
      </trkpt>
      <trkpt lat="59.9261529" lon="17.6412417">
        <ele>15.5184</ele>
        <time>2013-06-02T08:43:26Z</time>
      </trkpt>
      <trkpt lat="59.9260603" lon="17.6412568">
        <ele>15.5184</ele>
        <time>2013-06-02T08:43:27Z</time>
      </trkpt>
      <trkpt lat="59.9259689" lon="17.6412729">
        <ele>15.999</ele>
        <time>2013-06-02T08:43:28Z</time>
      </trkpt>
      <trkpt lat="59.9258784" lon="17.6412873">
        <ele>15.999</ele>
        <time>2013-06-02T08:43:29Z</time>
      </trkpt>
      <trkpt lat="59.9257882" lon="17.6412998">
        <ele>15.999</ele>
        <time>2013-06-02T08:43:30Z</time>
      </trkpt>
      <trkpt lat="59.9256986" lon="17.6413117">
        <ele>15.999</ele>
        <time>2013-06-02T08:43:31Z</time>
      </trkpt>
      <trkpt lat="59.9256094" lon="17.6413244">
        <ele>15.999</ele>
        <time>2013-06-02T08:43:32Z</time>
      </trkpt>
      <trkpt lat="59.9255203" lon="17.641336">
        <ele>15.999</ele>
        <time>2013-06-02T08:43:33Z</time>
      </trkpt>
      <trkpt lat="59.9254313" lon="17.6413432">
        <ele>15.999</ele>
        <time>2013-06-02T08:43:34Z</time>
      </trkpt>
      <trkpt lat="59.9253431" lon="17.6413483">
        <ele>16.4797</ele>
        <time>2013-06-02T08:43:35Z</time>
      </trkpt>
      <trkpt lat="59.9252552" lon="17.6413531">
        <ele>16.4797</ele>
        <time>2013-06-02T08:43:36Z</time>
      </trkpt>
      <trkpt lat="59.9251672" lon="17.6413556">
        <ele>16.4797</ele>
        <time>2013-06-02T08:43:37Z</time>
      </trkpt>
      <trkpt lat="59.9250794" lon="17.6413567">
        <ele>16.4797</ele>
        <time>2013-06-02T08:43:38Z</time>
      </trkpt>
      <trkpt lat="59.9249926" lon="17.6413598">
        <ele>16.4797</ele>
        <time>2013-06-02T08:43:39Z</time>
      </trkpt>
      <trkpt lat="59.9249071" lon="17.6413663">
        <ele>16.4797</ele>
        <time>2013-06-02T08:43:40Z</time>
      </trkpt>
      <trkpt lat="59.9248225" lon="17.6413772">
        <ele>16.4797</ele>
        <time>2013-06-02T08:43:41Z</time>
      </trkpt>
      <trkpt lat="59.9247388" lon="17.641394">
        <ele>16.4797</ele>
        <time>2013-06-02T08:43:42Z</time>
      </trkpt>
      <trkpt lat="59.9246555" lon="17.6414146">
        <ele>16.9604</ele>
        <time>2013-06-02T08:43:43Z</time>
      </trkpt>
      <trkpt lat="59.9245723" lon="17.6414332">
        <ele>16.9604</ele>
        <time>2013-06-02T08:43:44Z</time>
      </trkpt>
      <trkpt lat="59.924488" lon="17.6414461">
        <ele>16.9604</ele>
        <time>2013-06-02T08:43:45Z</time>
      </trkpt>
      <trkpt lat="59.9244031" lon="17.6414568">
        <ele>16.9604</ele>
        <time>2013-06-02T08:43:46Z</time>
      </trkpt>
      <trkpt lat="59.9243181" lon="17.6414674">
        <ele>16.9604</ele>
        <time>2013-06-02T08:43:47Z</time>
      </trkpt>
      <trkpt lat="59.9242327" lon="17.6414742">
        <ele>16.9604</ele>
        <time>2013-06-02T08:43:48Z</time>
      </trkpt>
      <trkpt lat="59.9241466" lon="17.6414779">
        <ele>16.9604</ele>
        <time>2013-06-02T08:43:49Z</time>
      </trkpt>
      <trkpt lat="59.92406" lon="17.6414819">
        <ele>16.9604</ele>
        <time>2013-06-02T08:43:50Z</time>
      </trkpt>
      <trkpt lat="59.9239731" lon="17.6414898">
        <ele>16.9604</ele>
        <time>2013-06-02T08:43:51Z</time>
      </trkpt>
      <trkpt lat="59.9238864" lon="17.6415007">
        <ele>16.9604</ele>
        <time>2013-06-02T08:43:52Z</time>
      </trkpt>
      <trkpt lat="59.9237996" lon="17.6415121">
        <ele>16.9604</ele>
        <time>2013-06-02T08:43:53Z</time>
      </trkpt>
      <trkpt lat="59.9237131" lon="17.6415243">
        <ele>17.4412</ele>
        <time>2013-06-02T08:43:54Z</time>
      </trkpt>
      <trkpt lat="59.9236276" lon="17.6415363">
        <ele>17.4412</ele>
        <time>2013-06-02T08:43:55Z</time>
      </trkpt>
      <trkpt lat="59.9235433" lon="17.6415476">
        <ele>17.9218</ele>
        <time>2013-06-02T08:43:56Z</time>
      </trkpt>
      <trkpt lat="59.9234608" lon="17.6415591">
        <ele>17.9218</ele>
        <time>2013-06-02T08:43:57Z</time>
      </trkpt>
      <trkpt lat="59.9233795" lon="17.6415701">
        <ele>18.4023</ele>
        <time>2013-06-02T08:43:58Z</time>
      </trkpt>
      <trkpt lat="59.9232996" lon="17.6415821">
        <ele>18.4023</ele>
        <time>2013-06-02T08:43:59Z</time>
      </trkpt>
      <trkpt lat="59.9232208" lon="17.6415953">
        <ele>18.4023</ele>
        <time>2013-06-02T08:44:00Z</time>
      </trkpt>
      <trkpt lat="59.9231426" lon="17.6416074">
        <ele>18.4023</ele>
        <time>2013-06-02T08:44:01Z</time>
      </trkpt>
      <trkpt lat="59.923065" lon="17.6416187">
        <ele>18.8831</ele>
        <time>2013-06-02T08:44:02Z</time>
      </trkpt>
      <trkpt lat="59.9229879" lon="17.6416271">
        <ele>18.8831</ele>
        <time>2013-06-02T08:44:03Z</time>
      </trkpt>
      <trkpt lat="59.9229131" lon="17.6416339">
        <ele>18.8831</ele>
        <time>2013-06-02T08:44:04Z</time>
      </trkpt>
      <trkpt lat="59.9228423" lon="17.6416408">
        <ele>19.3638</ele>
        <time>2013-06-02T08:44:05Z</time>
      </trkpt>
      <trkpt lat="59.9227761" lon="17.6416426">
        <ele>19.3638</ele>
        <time>2013-06-02T08:44:06Z</time>
      </trkpt>
      <trkpt lat="59.9227148" lon="17.6416453">
        <ele>19.3638</ele>
        <time>2013-06-02T08:44:07Z</time>
      </trkpt>
      <trkpt lat="59.9226578" lon="17.6416533">
        <ele>19.8444</ele>
        <time>2013-06-02T08:44:08Z</time>
      </trkpt>
      <trkpt lat="59.9226051" lon="17.6416665">
        <ele>19.3638</ele>
        <time>2013-06-02T08:44:09Z</time>
      </trkpt>
      <trkpt lat="59.92255" lon="17.6416798">
        <ele>19.8444</ele>
        <time>2013-06-02T08:44:10Z</time>
      </trkpt>
      <trkpt lat="59.9224888" lon="17.6416877">
        <ele>20.325</ele>
        <time>2013-06-02T08:44:11Z</time>
      </trkpt>
      <trkpt lat="59.9224223" lon="17.6416961">
        <ele>20.325</ele>
        <time>2013-06-02T08:44:12Z</time>
      </trkpt>
      <trkpt lat="59.9223511" lon="17.6417059">
        <ele>20.8057</ele>
        <time>2013-06-02T08:44:13Z</time>
      </trkpt>
      <trkpt lat="59.9222777" lon="17.6417152">
        <ele>20.8057</ele>
        <time>2013-06-02T08:44:14Z</time>
      </trkpt>
      <trkpt lat="59.9222053" lon="17.6417235">
        <ele>21.2864</ele>
        <time>2013-06-02T08:44:15Z</time>
      </trkpt>
      <trkpt lat="59.9221319" lon="17.6417313">
        <ele>21.767</ele>
        <time>2013-06-02T08:44:16Z</time>
      </trkpt>
      <trkpt lat="59.9220595" lon="17.6417341">
        <ele>21.767</ele>
        <time>2013-06-02T08:44:17Z</time>
      </trkpt>
      <trkpt lat="59.9219869" lon="17.6417405">
        <ele>22.2476</ele>
        <time>2013-06-02T08:44:18Z</time>
      </trkpt>
      <trkpt lat="59.9219151" lon="17.6417507">
        <ele>22.7283</ele>
        <time>2013-06-02T08:44:19Z</time>
      </trkpt>
      <trkpt lat="59.9218441" lon="17.6417623">
        <ele>22.7283</ele>
        <time>2013-06-02T08:44:20Z</time>
      </trkpt>
      <trkpt lat="59.921773" lon="17.6417726">
        <ele>23.209</ele>
        <time>2013-06-02T08:44:21Z</time>
      </trkpt>
      <trkpt lat="59.9217036" lon="17.6417846">
        <ele>23.209</ele>
        <time>2013-06-02T08:44:22Z</time>
      </trkpt>
      <trkpt lat="59.9215991" lon="17.6418924">
        <ele>23.6896</ele>
        <time>2013-06-02T08:44:23Z</time>
      </trkpt>
      <trkpt lat="59.9215254" lon="17.6418908">
        <ele>24.1703</ele>
        <time>2013-06-02T08:44:24Z</time>
      </trkpt>
      <trkpt lat="59.9214493" lon="17.6418954">
        <ele>24.651</ele>
        <time>2013-06-02T08:44:25Z</time>
      </trkpt>
      <trkpt lat="59.9213723" lon="17.6418923">
        <ele>24.651</ele>
        <time>2013-06-02T08:44:26Z</time>
      </trkpt>
      <trkpt lat="59.9212982" lon="17.6418919">
        <ele>25.1317</ele>
        <time>2013-06-02T08:44:27Z</time>
      </trkpt>
      <trkpt lat="59.9212268" lon="17.6418954">
        <ele>25.1317</ele>
        <time>2013-06-02T08:44:28Z</time>
      </trkpt>
      <trkpt lat="59.9211525" lon="17.6418891">
        <ele>25.1317</ele>
        <time>2013-06-02T08:44:29Z</time>
      </trkpt>
      <trkpt lat="59.9210744" lon="17.641889">
        <ele>25.1317</ele>
        <time>2013-06-02T08:44:30Z</time>
      </trkpt>
      <trkpt lat="59.9209964" lon="17.6418898">
        <ele>24.651</ele>
        <time>2013-06-02T08:44:31Z</time>
      </trkpt>
      <trkpt lat="59.9209234" lon="17.6418912">
        <ele>25.1317</ele>
        <time>2013-06-02T08:44:32Z</time>
      </trkpt>
      <trkpt lat="59.9208545" lon="17.6418942">
        <ele>24.651</ele>
        <time>2013-06-02T08:44:33Z</time>
      </trkpt>
      <trkpt lat="59.9207899" lon="17.6418937">
        <ele>23.6896</ele>
        <time>2013-06-02T08:44:34Z</time>
      </trkpt>
      <trkpt lat="59.9207334" lon="17.6418949">
        <ele>23.6896</ele>
        <time>2013-06-02T08:44:35Z</time>
      </trkpt>
      <trkpt lat="59.9206791" lon="17.6419016">
        <ele>23.6896</ele>
        <time>2013-06-02T08:44:36Z</time>
      </trkpt>
      <trkpt lat="59.9206227" lon="17.6419073">
        <ele>23.6896</ele>
        <time>2013-06-02T08:44:37Z</time>
      </trkpt>
      <trkpt lat="59.9205624" lon="17.641909">
        <ele>23.6896</ele>
        <time>2013-06-02T08:44:38Z</time>
      </trkpt>
      <trkpt lat="59.920499" lon="17.641909">
        <ele>23.6896</ele>
        <time>2013-06-02T08:44:39Z</time>
      </trkpt>
      <trkpt lat="59.9204341" lon="17.6419095">
        <ele>23.6896</ele>
        <time>2013-06-02T08:44:40Z</time>
      </trkpt>
      <trkpt lat="59.9203662" lon="17.6419116">
        <ele>23.6896</ele>
        <time>2013-06-02T08:44:41Z</time>
      </trkpt>
      <trkpt lat="59.9202956" lon="17.6419171">
        <ele>23.6896</ele>
        <time>2013-06-02T08:44:42Z</time>
      </trkpt>
      <trkpt lat="59.9202242" lon="17.6419237">
        <ele>24.1703</ele>
        <time>2013-06-02T08:44:43Z</time>
      </trkpt>
      <trkpt lat="59.9201528" lon="17.6419294">
        <ele>23.6896</ele>
        <time>2013-06-02T08:44:44Z</time>
      </trkpt>
      <trkpt lat="59.9200807" lon="17.6419348">
        <ele>23.6896</ele>
        <time>2013-06-02T08:44:45Z</time>
      </trkpt>
      <trkpt lat="59.920007" lon="17.6419401">
        <ele>23.6896</ele>
        <time>2013-06-02T08:44:46Z</time>
      </trkpt>
      <trkpt lat="59.9199312" lon="17.6419485">
        <ele>23.6896</ele>
        <time>2013-06-02T08:44:47Z</time>
      </trkpt>
      <trkpt lat="59.9198554" lon="17.6419623">
        <ele>23.6896</ele>
        <time>2013-06-02T08:44:48Z</time>
      </trkpt>
      <trkpt lat="59.9197809" lon="17.6419827">
        <ele>23.209</ele>
        <time>2013-06-02T08:44:49Z</time>
      </trkpt>
      <trkpt lat="59.9197057" lon="17.6420087">
        <ele>23.209</ele>
        <time>2013-06-02T08:44:50Z</time>
      </trkpt>
      <trkpt lat="59.9196296" lon="17.6420309">
        <ele>23.209</ele>
        <time>2013-06-02T08:44:51Z</time>
      </trkpt>
      <trkpt lat="59.9195529" lon="17.6420431">
        <ele>23.209</ele>
        <time>2013-06-02T08:44:52Z</time>
      </trkpt>
      <trkpt lat="59.9194762" lon="17.6420512">
        <ele>23.209</ele>
        <time>2013-06-02T08:44:53Z</time>
      </trkpt>
      <trkpt lat="59.9193987" lon="17.6420631">
        <ele>23.209</ele>
        <time>2013-06-02T08:44:54Z</time>
      </trkpt>
      <trkpt lat="59.9193235" lon="17.6420689">
        <ele>23.209</ele>
        <time>2013-06-02T08:44:55Z</time>
      </trkpt>
      <trkpt lat="59.9192474" lon="17.6420756">
        <ele>23.209</ele>
        <time>2013-06-02T08:44:56Z</time>
      </trkpt>
      <trkpt lat="59.9191703" lon="17.6420814">
        <ele>23.209</ele>
        <time>2013-06-02T08:44:57Z</time>
      </trkpt>
      <trkpt lat="59.9190931" lon="17.6420865">
        <ele>23.209</ele>
        <time>2013-06-02T08:44:58Z</time>
      </trkpt>
      <trkpt lat="59.9190158" lon="17.6420922">
        <ele>22.7283</ele>
        <time>2013-06-02T08:44:59Z</time>
      </trkpt>
      <trkpt lat="59.9189392" lon="17.6420984">
        <ele>22.7283</ele>
        <time>2013-06-02T08:45:00Z</time>
      </trkpt>
      <trkpt lat="59.9188614" lon="17.6421068">
        <ele>22.7283</ele>
        <time>2013-06-02T08:45:01Z</time>
      </trkpt>
      <trkpt lat="59.9187831" lon="17.6421148">
        <ele>22.7283</ele>
        <time>2013-06-02T08:45:02Z</time>
      </trkpt>
      <trkpt lat="59.9187044" lon="17.6421228">
        <ele>22.7283</ele>
        <time>2013-06-02T08:45:03Z</time>
      </trkpt>
      <trkpt lat="59.9186251" lon="17.6421302">
        <ele>22.7283</ele>
        <time>2013-06-02T08:45:04Z</time>
      </trkpt>
      <trkpt lat="59.918545" lon="17.6421372">
        <ele>22.2476</ele>
        <time>2013-06-02T08:45:05Z</time>
      </trkpt>
      <trkpt lat="59.9184646" lon="17.6421467">
        <ele>22.2476</ele>
        <time>2013-06-02T08:45:06Z</time>
      </trkpt>
      <trkpt lat="59.9183834" lon="17.6421554">
        <ele>22.2476</ele>
        <time>2013-06-02T08:45:07Z</time>
      </trkpt>
      <trkpt lat="59.9183019" lon="17.6421596">
        <ele>22.2476</ele>
        <time>2013-06-02T08:45:08Z</time>
      </trkpt>
      <trkpt lat="59.9182176" lon="17.6421658">
        <ele>22.2476</ele>
        <time>2013-06-02T08:45:09Z</time>
      </trkpt>
      <trkpt lat="59.9181308" lon="17.6421761">
        <ele>22.2476</ele>
        <time>2013-06-02T08:45:10Z</time>
      </trkpt>
      <trkpt lat="59.9180409" lon="17.642187">
        <ele>21.767</ele>
        <time>2013-06-02T08:45:11Z</time>
      </trkpt>
      <trkpt lat="59.9179487" lon="17.6421947">
        <ele>21.767</ele>
        <time>2013-06-02T08:45:12Z</time>
      </trkpt>
      <trkpt lat="59.9178549" lon="17.6422015">
        <ele>21.767</ele>
        <time>2013-06-02T08:45:13Z</time>
      </trkpt>
      <trkpt lat="59.9177601" lon="17.6422084">
        <ele>21.767</ele>
        <time>2013-06-02T08:45:14Z</time>
      </trkpt>
      <trkpt lat="59.9176648" lon="17.6422127">
        <ele>21.767</ele>
        <time>2013-06-02T08:45:15Z</time>
      </trkpt>
      <trkpt lat="59.917569" lon="17.6422145">
        <ele>21.767</ele>
        <time>2013-06-02T08:45:16Z</time>
      </trkpt>
      <trkpt lat="59.917473" lon="17.6422174">
        <ele>21.767</ele>
        <time>2013-06-02T08:45:17Z</time>
      </trkpt>
      <trkpt lat="59.9173766" lon="17.6422198">
        <ele>21.767</ele>
        <time>2013-06-02T08:45:18Z</time>
      </trkpt>
      <trkpt lat="59.9172805" lon="17.6422206">
        <ele>21.767</ele>
        <time>2013-06-02T08:45:19Z</time>
      </trkpt>
      <trkpt lat="59.9171845" lon="17.6422249">
        <ele>21.2864</ele>
        <time>2013-06-02T08:45:20Z</time>
      </trkpt>
      <trkpt lat="59.9170898" lon="17.6422428">
        <ele>21.2864</ele>
        <time>2013-06-02T08:45:21Z</time>
      </trkpt>
      <trkpt lat="59.9169971" lon="17.6422713">
        <ele>21.2864</ele>
        <time>2013-06-02T08:45:22Z</time>
      </trkpt>
      <trkpt lat="59.9169068" lon="17.6422947">
        <ele>20.8057</ele>
        <time>2013-06-02T08:45:23Z</time>
      </trkpt>
      <trkpt lat="59.9168174" lon="17.642312">
        <ele>20.8057</ele>
        <time>2013-06-02T08:45:24Z</time>
      </trkpt>
      <trkpt lat="59.9167291" lon="17.6423277">
        <ele>20.8057</ele>
        <time>2013-06-02T08:45:25Z</time>
      </trkpt>
      <trkpt lat="59.9166418" lon="17.6423404">
        <ele>20.325</ele>
        <time>2013-06-02T08:45:26Z</time>
      </trkpt>
      <trkpt lat="59.9165568" lon="17.6423519">
        <ele>20.325</ele>
        <time>2013-06-02T08:45:27Z</time>
      </trkpt>
      <trkpt lat="59.9164738" lon="17.6423647">
        <ele>20.325</ele>
        <time>2013-06-02T08:45:28Z</time>
      </trkpt>
      <trkpt lat="59.9163917" lon="17.6423766">
        <ele>19.8444</ele>
        <time>2013-06-02T08:45:29Z</time>
      </trkpt>
      <trkpt lat="59.9163097" lon="17.6423875">
        <ele>19.8444</ele>
        <time>2013-06-02T08:45:30Z</time>
      </trkpt>
      <trkpt lat="59.916228" lon="17.6423966">
        <ele>19.3638</ele>
        <time>2013-06-02T08:45:31Z</time>
      </trkpt>
      <trkpt lat="59.916146" lon="17.6424016">
        <ele>18.8831</ele>
        <time>2013-06-02T08:45:32Z</time>
      </trkpt>
      <trkpt lat="59.916064" lon="17.6424042">
        <ele>18.8831</ele>
        <time>2013-06-02T08:45:33Z</time>
      </trkpt>
      <trkpt lat="59.9159796" lon="17.6424059">
        <ele>18.8831</ele>
        <time>2013-06-02T08:45:34Z</time>
      </trkpt>
      <trkpt lat="59.9158936" lon="17.6424072">
        <ele>18.4023</ele>
        <time>2013-06-02T08:45:35Z</time>
      </trkpt>
      <trkpt lat="59.9158072" lon="17.6424093">
        <ele>18.4023</ele>
        <time>2013-06-02T08:45:36Z</time>
      </trkpt>
      <trkpt lat="59.9157206" lon="17.6424133">
        <ele>18.4023</ele>
        <time>2013-06-02T08:45:37Z</time>
      </trkpt>
      <trkpt lat="59.9156337" lon="17.6424223">
        <ele>17.9218</ele>
        <time>2013-06-02T08:45:38Z</time>
      </trkpt>
      <trkpt lat="59.915547" lon="17.6424378">
        <ele>17.9218</ele>
        <time>2013-06-02T08:45:39Z</time>
      </trkpt>
      <trkpt lat="59.9154585" lon="17.6424574">
        <ele>17.9218</ele>
        <time>2013-06-02T08:45:40Z</time>
      </trkpt>
      <trkpt lat="59.9153711" lon="17.6424834">
        <ele>17.9218</ele>
        <time>2013-06-02T08:45:41Z</time>
      </trkpt>
      <trkpt lat="59.9152856" lon="17.6425284">
        <ele>17.4412</ele>
        <time>2013-06-02T08:45:42Z</time>
      </trkpt>
      <trkpt lat="59.9152059" lon="17.6425796">
        <ele>17.4412</ele>
        <time>2013-06-02T08:45:43Z</time>
      </trkpt>
      <trkpt lat="59.9151311" lon="17.6426183">
        <ele>17.4412</ele>
        <time>2013-06-02T08:45:44Z</time>
      </trkpt>
      <trkpt lat="59.9150576" lon="17.6426579">
        <ele>17.4412</ele>
        <time>2013-06-02T08:45:45Z</time>
      </trkpt>
      <trkpt lat="59.9149815" lon="17.6426787">
        <ele>16.9604</ele>
        <time>2013-06-02T08:45:46Z</time>
      </trkpt>
      <trkpt lat="59.914905" lon="17.642686">
        <ele>16.9604</ele>
        <time>2013-06-02T08:45:47Z</time>
      </trkpt>
      <trkpt lat="59.9148246" lon="17.64269">
        <ele>16.4797</ele>
        <time>2013-06-02T08:45:48Z</time>
      </trkpt>
      <trkpt lat="59.9147443" lon="17.6427033">
        <ele>16.9604</ele>
        <time>2013-06-02T08:45:49Z</time>
      </trkpt>
      <trkpt lat="59.9146636" lon="17.6427212">
        <ele>16.9604</ele>
        <time>2013-06-02T08:45:50Z</time>
      </trkpt>
      <trkpt lat="59.9145853" lon="17.6427347">
        <ele>16.9604</ele>
        <time>2013-06-02T08:45:51Z</time>
      </trkpt>
      <trkpt lat="59.91451" lon="17.6427432">
        <ele>15.999</ele>
        <time>2013-06-02T08:45:52Z</time>
      </trkpt>
      <trkpt lat="59.9144371" lon="17.6427564">
        <ele>15.999</ele>
        <time>2013-06-02T08:45:53Z</time>
      </trkpt>
      <trkpt lat="59.9143661" lon="17.6427694">
        <ele>16.4797</ele>
        <time>2013-06-02T08:45:54Z</time>
      </trkpt>
      <trkpt lat="59.9142972" lon="17.6427889">
        <ele>16.9604</ele>
        <time>2013-06-02T08:45:55Z</time>
      </trkpt>
      <trkpt lat="59.9142259" lon="17.6428013">
        <ele>17.9218</ele>
        <time>2013-06-02T08:45:56Z</time>
      </trkpt>
      <trkpt lat="59.9141522" lon="17.6428086">
        <ele>18.4023</ele>
        <time>2013-06-02T08:45:57Z</time>
      </trkpt>
      <trkpt lat="59.9140807" lon="17.6428344">
        <ele>18.8831</ele>
        <time>2013-06-02T08:45:58Z</time>
      </trkpt>
      <trkpt lat="59.91401" lon="17.64285">
        <ele>18.8831</ele>
        <time>2013-06-02T08:45:59Z</time>
      </trkpt>
      <trkpt lat="59.9139413" lon="17.642872">
        <ele>19.8444</ele>
        <time>2013-06-02T08:46:00Z</time>
      </trkpt>
      <trkpt lat="59.9138703" lon="17.6429051">
        <ele>21.2864</ele>
        <time>2013-06-02T08:46:01Z</time>
      </trkpt>
      <trkpt lat="59.9137994" lon="17.6429288">
        <ele>22.7283</ele>
        <time>2013-06-02T08:46:02Z</time>
      </trkpt>
      <trkpt lat="59.913734" lon="17.6429314">
        <ele>22.7283</ele>
        <time>2013-06-02T08:46:03Z</time>
      </trkpt>
      <trkpt lat="59.9136602" lon="17.6429506">
        <ele>23.209</ele>
        <time>2013-06-02T08:46:04Z</time>
      </trkpt>
      <trkpt lat="59.9135892" lon="17.6429667">
        <ele>23.6896</ele>
        <time>2013-06-02T08:46:05Z</time>
      </trkpt>
      <trkpt lat="59.913518" lon="17.6429835">
        <ele>24.1703</ele>
        <time>2013-06-02T08:46:06Z</time>
      </trkpt>
      <trkpt lat="59.9134485" lon="17.6429962">
        <ele>24.651</ele>
        <time>2013-06-02T08:46:07Z</time>
      </trkpt>
      <trkpt lat="59.9133767" lon="17.6430095">
        <ele>24.651</ele>
        <time>2013-06-02T08:46:08Z</time>
      </trkpt>
      <trkpt lat="59.9133042" lon="17.6430334">
        <ele>25.1317</ele>
        <time>2013-06-02T08:46:09Z</time>
      </trkpt>
      <trkpt lat="59.9132328" lon="17.6430584">
        <ele>25.6123</ele>
        <time>2013-06-02T08:46:10Z</time>
      </trkpt>
      <trkpt lat="59.9131592" lon="17.6430859">
        <ele>26.0929</ele>
        <time>2013-06-02T08:46:11Z</time>
      </trkpt>
      <trkpt lat="59.9130872" lon="17.6431033">
        <ele>27.0543</ele>
        <time>2013-06-02T08:46:12Z</time>
      </trkpt>
      <trkpt lat="59.9130178" lon="17.6431161">
        <ele>27.5349</ele>
        <time>2013-06-02T08:46:13Z</time>
      </trkpt>
      <trkpt lat="59.9129466" lon="17.6431261">
        <ele>28.0155</ele>
        <time>2013-06-02T08:46:14Z</time>
      </trkpt>
      <trkpt lat="59.9128733" lon="17.6431416">
        <ele>28.4962</ele>
        <time>2013-06-02T08:46:15Z</time>
      </trkpt>
      <trkpt lat="59.912798" lon="17.6431495">
        <ele>28.9769</ele>
        <time>2013-06-02T08:46:16Z</time>
      </trkpt>
      <trkpt lat="59.9127266" lon="17.6431345">
        <ele>28.9769</ele>
        <time>2013-06-02T08:46:17Z</time>
      </trkpt>
      <trkpt lat="59.9126501" lon="17.6431027">
        <ele>28.9769</ele>
        <time>2013-06-02T08:46:18Z</time>
      </trkpt>
      <trkpt lat="59.9125645" lon="17.6430707">
        <ele>28.4962</ele>
        <time>2013-06-02T08:46:19Z</time>
      </trkpt>
      <trkpt lat="59.9124785" lon="17.6430545">
        <ele>28.0155</ele>
        <time>2013-06-02T08:46:20Z</time>
      </trkpt>
      <trkpt lat="59.9123935" lon="17.64306">
        <ele>28.0155</ele>
        <time>2013-06-02T08:46:21Z</time>
      </trkpt>
      <trkpt lat="59.9123084" lon="17.643078">
        <ele>28.0155</ele>
        <time>2013-06-02T08:46:22Z</time>
      </trkpt>
      <trkpt lat="59.9122242" lon="17.6431003">
        <ele>28.0155</ele>
        <time>2013-06-02T08:46:23Z</time>
      </trkpt>
      <trkpt lat="59.9121422" lon="17.6431266">
        <ele>28.0155</ele>
        <time>2013-06-02T08:46:24Z</time>
      </trkpt>
      <trkpt lat="59.9120631" lon="17.6431506">
        <ele>28.4962</ele>
        <time>2013-06-02T08:46:25Z</time>
      </trkpt>
      <trkpt lat="59.9119874" lon="17.6431726">
        <ele>28.4962</ele>
        <time>2013-06-02T08:46:26Z</time>
      </trkpt>
      <trkpt lat="59.9119126" lon="17.6431964">
        <ele>28.9769</ele>
        <time>2013-06-02T08:46:27Z</time>
      </trkpt>
      <trkpt lat="59.9118393" lon="17.6432148">
        <ele>28.9769</ele>
        <time>2013-06-02T08:46:28Z</time>
      </trkpt>
      <trkpt lat="59.9117625" lon="17.6432308">
        <ele>28.9769</ele>
        <time>2013-06-02T08:46:29Z</time>
      </trkpt>
      <trkpt lat="59.9116861" lon="17.6432447">
        <ele>28.9769</ele>
        <time>2013-06-02T08:46:30Z</time>
      </trkpt>
      <trkpt lat="59.9116096" lon="17.6432582">
        <ele>28.9769</ele>
        <time>2013-06-02T08:46:31Z</time>
      </trkpt>
      <trkpt lat="59.9115326" lon="17.6432715">
        <ele>28.9769</ele>
        <time>2013-06-02T08:46:32Z</time>
      </trkpt>
      <trkpt lat="59.911457" lon="17.6432848">
        <ele>28.9769</ele>
        <time>2013-06-02T08:46:33Z</time>
      </trkpt>
      <trkpt lat="59.9113819" lon="17.6433008">
        <ele>28.9769</ele>
        <time>2013-06-02T08:46:34Z</time>
      </trkpt>
      <trkpt lat="59.911306" lon="17.6433199">
        <ele>28.9769</ele>
        <time>2013-06-02T08:46:35Z</time>
      </trkpt>
      <trkpt lat="59.9112257" lon="17.6433425">
        <ele>28.4962</ele>
        <time>2013-06-02T08:46:36Z</time>
      </trkpt>
      <trkpt lat="59.9111462" lon="17.6433608">
        <ele>28.4962</ele>
        <time>2013-06-02T08:46:37Z</time>
      </trkpt>
      <trkpt lat="59.9110672" lon="17.6433741">
        <ele>28.4962</ele>
        <time>2013-06-02T08:46:38Z</time>
      </trkpt>
      <trkpt lat="59.9109882" lon="17.6433866">
        <ele>28.4962</ele>
        <time>2013-06-02T08:46:39Z</time>
      </trkpt>
      <trkpt lat="59.9109092" lon="17.6434001">
        <ele>28.4962</ele>
        <time>2013-06-02T08:46:40Z</time>
      </trkpt>
      <trkpt lat="59.9108293" lon="17.6434132">
        <ele>28.0155</ele>
        <time>2013-06-02T08:46:41Z</time>
      </trkpt>
      <trkpt lat="59.9107483" lon="17.6434261">
        <ele>28.0155</ele>
        <time>2013-06-02T08:46:42Z</time>
      </trkpt>
      <trkpt lat="59.9106674" lon="17.6434405">
        <ele>28.0155</ele>
        <time>2013-06-02T08:46:43Z</time>
      </trkpt>
      <trkpt lat="59.9105902" lon="17.6434616">
        <ele>28.0155</ele>
        <time>2013-06-02T08:46:44Z</time>
      </trkpt>
      <trkpt lat="59.9105179" lon="17.6435002">
        <ele>28.0155</ele>
        <time>2013-06-02T08:46:45Z</time>
      </trkpt>
      <trkpt lat="59.9104539" lon="17.6435621">
        <ele>28.4962</ele>
        <time>2013-06-02T08:46:46Z</time>
      </trkpt>
      <trkpt lat="59.9103926" lon="17.6436157">
        <ele>28.4962</ele>
        <time>2013-06-02T08:46:47Z</time>
      </trkpt>
      <trkpt lat="59.910327" lon="17.6436399">
        <ele>28.0155</ele>
        <time>2013-06-02T08:46:48Z</time>
      </trkpt>
      <trkpt lat="59.9102584" lon="17.6436499">
        <ele>28.0155</ele>
        <time>2013-06-02T08:46:49Z</time>
      </trkpt>
      <trkpt lat="59.9101872" lon="17.643656">
        <ele>28.0155</ele>
        <time>2013-06-02T08:46:50Z</time>
      </trkpt>
      <trkpt lat="59.9101143" lon="17.6436643">
        <ele>28.0155</ele>
        <time>2013-06-02T08:46:51Z</time>
      </trkpt>
      <trkpt lat="59.9100383" lon="17.6436794">
        <ele>28.0155</ele>
        <time>2013-06-02T08:46:52Z</time>
      </trkpt>
      <trkpt lat="59.9099599" lon="17.6436971">
        <ele>28.0155</ele>
        <time>2013-06-02T08:46:53Z</time>
      </trkpt>
      <trkpt lat="59.9098801" lon="17.6437121">
        <ele>28.0155</ele>
        <time>2013-06-02T08:46:54Z</time>
      </trkpt>
      <trkpt lat="59.9097995" lon="17.6437238">
        <ele>28.0155</ele>
        <time>2013-06-02T08:46:55Z</time>
      </trkpt>
      <trkpt lat="59.9097184" lon="17.6437349">
        <ele>28.0155</ele>
        <time>2013-06-02T08:46:56Z</time>
      </trkpt>
      <trkpt lat="59.9096357" lon="17.6437458">
        <ele>28.0155</ele>
        <time>2013-06-02T08:46:57Z</time>
      </trkpt>
      <trkpt lat="59.9095517" lon="17.6437562">
        <ele>28.0155</ele>
        <time>2013-06-02T08:46:58Z</time>
      </trkpt>
      <trkpt lat="59.9094668" lon="17.6437673">
        <ele>28.0155</ele>
        <time>2013-06-02T08:46:59Z</time>
      </trkpt>
      <trkpt lat="59.9093814" lon="17.643778">
        <ele>28.0155</ele>
        <time>2013-06-02T08:47:00Z</time>
      </trkpt>
      <trkpt lat="59.9092965" lon="17.6437867">
        <ele>28.0155</ele>
        <time>2013-06-02T08:47:01Z</time>
      </trkpt>
      <trkpt lat="59.9092119" lon="17.6437944">
        <ele>28.0155</ele>
        <time>2013-06-02T08:47:02Z</time>
      </trkpt>
      <trkpt lat="59.9091262" lon="17.6438009">
        <ele>28.0155</ele>
        <time>2013-06-02T08:47:03Z</time>
      </trkpt>
      <trkpt lat="59.9090398" lon="17.6438048">
        <ele>28.0155</ele>
        <time>2013-06-02T08:47:04Z</time>
      </trkpt>
      <trkpt lat="59.9089528" lon="17.6438093">
        <ele>28.0155</ele>
        <time>2013-06-02T08:47:05Z</time>
      </trkpt>
      <trkpt lat="59.9088654" lon="17.6438111">
        <ele>28.0155</ele>
        <time>2013-06-02T08:47:06Z</time>
      </trkpt>
      <trkpt lat="59.9087777" lon="17.6438136">
        <ele>28.0155</ele>
        <time>2013-06-02T08:47:07Z</time>
      </trkpt>
      <trkpt lat="59.9086898" lon="17.643814">
        <ele>27.5349</ele>
        <time>2013-06-02T08:47:08Z</time>
      </trkpt>
      <trkpt lat="59.9086017" lon="17.643813">
        <ele>27.5349</ele>
        <time>2013-06-02T08:47:09Z</time>
      </trkpt>
      <trkpt lat="59.9085129" lon="17.643809">
        <ele>27.0543</ele>
        <time>2013-06-02T08:47:10Z</time>
      </trkpt>
      <trkpt lat="59.9084228" lon="17.6438098">
        <ele>27.0543</ele>
        <time>2013-06-02T08:47:11Z</time>
      </trkpt>
      <trkpt lat="59.908333" lon="17.6438072">
        <ele>27.5349</ele>
        <time>2013-06-02T08:47:12Z</time>
      </trkpt>
      <trkpt lat="59.9082423" lon="17.6438061">
        <ele>27.0543</ele>
        <time>2013-06-02T08:47:13Z</time>
      </trkpt>
      <trkpt lat="59.9081521" lon="17.6437986">
        <ele>27.0543</ele>
        <time>2013-06-02T08:47:14Z</time>
      </trkpt>
      <trkpt lat="59.9080612" lon="17.6437891">
        <ele>27.0543</ele>
        <time>2013-06-02T08:47:15Z</time>
      </trkpt>
      <trkpt lat="59.9079682" lon="17.6437794">
        <ele>27.0543</ele>
        <time>2013-06-02T08:47:16Z</time>
      </trkpt>
      <trkpt lat="59.9078751" lon="17.6437694">
        <ele>27.0543</ele>
        <time>2013-06-02T08:47:17Z</time>
      </trkpt>
      <trkpt lat="59.9077815" lon="17.6437576">
        <ele>27.0543</ele>
        <time>2013-06-02T08:47:18Z</time>
      </trkpt>
      <trkpt lat="59.9076877" lon="17.6437437">
        <ele>27.0543</ele>
        <time>2013-06-02T08:47:19Z</time>
      </trkpt>
      <trkpt lat="59.9075936" lon="17.6437298">
        <ele>26.5736</ele>
        <time>2013-06-02T08:47:20Z</time>
      </trkpt>
      <trkpt lat="59.9074989" lon="17.6437141">
        <ele>26.5736</ele>
        <time>2013-06-02T08:47:21Z</time>
      </trkpt>
      <trkpt lat="59.9074036" lon="17.6436964">
        <ele>26.5736</ele>
        <time>2013-06-02T08:47:22Z</time>
      </trkpt>
      <trkpt lat="59.907308" lon="17.6436775">
        <ele>26.0929</ele>
        <time>2013-06-02T08:47:23Z</time>
      </trkpt>
      <trkpt lat="59.9072115" lon="17.6436573">
        <ele>26.0929</ele>
        <time>2013-06-02T08:47:24Z</time>
      </trkpt>
      <trkpt lat="59.9071148" lon="17.6436347">
        <ele>25.6123</ele>
        <time>2013-06-02T08:47:25Z</time>
      </trkpt>
      <trkpt lat="59.9070176" lon="17.6436105">
        <ele>25.6123</ele>
        <time>2013-06-02T08:47:26Z</time>
      </trkpt>
      <trkpt lat="59.9069214" lon="17.6435867">
        <ele>25.6123</ele>
        <time>2013-06-02T08:47:27Z</time>
      </trkpt>
      <trkpt lat="59.9068253" lon="17.6435629">
        <ele>25.1317</ele>
        <time>2013-06-02T08:47:28Z</time>
      </trkpt>
      <trkpt lat="59.9067291" lon="17.6435376">
        <ele>25.1317</ele>
        <time>2013-06-02T08:47:29Z</time>
      </trkpt>
      <trkpt lat="59.9066333" lon="17.6435086">
        <ele>24.651</ele>
        <time>2013-06-02T08:47:30Z</time>
      </trkpt>
      <trkpt lat="59.9065372" lon="17.6434769">
        <ele>24.1703</ele>
        <time>2013-06-02T08:47:31Z</time>
      </trkpt>
      <trkpt lat="59.9064395" lon="17.6434452">
        <ele>24.1703</ele>
        <time>2013-06-02T08:47:32Z</time>
      </trkpt>
      <trkpt lat="59.9063412" lon="17.6434119">
        <ele>24.1703</ele>
        <time>2013-06-02T08:47:33Z</time>
      </trkpt>
      <trkpt lat="59.9062412" lon="17.6433786">
        <ele>23.6896</ele>
        <time>2013-06-02T08:47:34Z</time>
      </trkpt>
      <trkpt lat="59.9061416" lon="17.6433433">
        <ele>23.6896</ele>
        <time>2013-06-02T08:47:35Z</time>
      </trkpt>
      <trkpt lat="59.9060418" lon="17.6433053">
        <ele>23.209</ele>
        <time>2013-06-02T08:47:36Z</time>
      </trkpt>
      <trkpt lat="59.905942" lon="17.643264">
        <ele>23.209</ele>
        <time>2013-06-02T08:47:37Z</time>
      </trkpt>
      <trkpt lat="59.9058419" lon="17.6432241">
        <ele>22.7283</ele>
        <time>2013-06-02T08:47:38Z</time>
      </trkpt>
      <trkpt lat="59.9057418" lon="17.6431852">
        <ele>22.7283</ele>
        <time>2013-06-02T08:47:39Z</time>
      </trkpt>
      <trkpt lat="59.9056431" lon="17.6431443">
        <ele>22.7283</ele>
        <time>2013-06-02T08:47:40Z</time>
      </trkpt>
      <trkpt lat="59.905546" lon="17.6431051">
        <ele>22.7283</ele>
        <time>2013-06-02T08:47:41Z</time>
      </trkpt>
      <trkpt lat="59.9054494" lon="17.6430718">
        <ele>22.7283</ele>
        <time>2013-06-02T08:47:42Z</time>
      </trkpt>
      <trkpt lat="59.9053534" lon="17.6430376">
        <ele>22.2476</ele>
        <time>2013-06-02T08:47:43Z</time>
      </trkpt>
      <trkpt lat="59.9052588" lon="17.6429977">
        <ele>22.2476</ele>
        <time>2013-06-02T08:47:44Z</time>
      </trkpt>
      <trkpt lat="59.9051642" lon="17.6429562">
        <ele>22.2476</ele>
        <time>2013-06-02T08:47:45Z</time>
      </trkpt>
      <trkpt lat="59.9050698" lon="17.6429138">
        <ele>22.2476</ele>
        <time>2013-06-02T08:47:46Z</time>
      </trkpt>
      <trkpt lat="59.9049756" lon="17.6428717">
        <ele>21.767</ele>
        <time>2013-06-02T08:47:47Z</time>
      </trkpt>
      <trkpt lat="59.9048813" lon="17.6428269">
        <ele>21.767</ele>
        <time>2013-06-02T08:47:48Z</time>
      </trkpt>
      <trkpt lat="59.904788" lon="17.6427781">
        <ele>21.767</ele>
        <time>2013-06-02T08:47:49Z</time>
      </trkpt>
      <trkpt lat="59.9046942" lon="17.6427307">
        <ele>21.2864</ele>
        <time>2013-06-02T08:47:50Z</time>
      </trkpt>
      <trkpt lat="59.9046005" lon="17.6426806">
        <ele>21.2864</ele>
        <time>2013-06-02T08:47:51Z</time>
      </trkpt>
      <trkpt lat="59.904507" lon="17.6426282">
        <ele>21.2864</ele>
        <time>2013-06-02T08:47:52Z</time>
      </trkpt>
      <trkpt lat="59.904414" lon="17.6425765">
        <ele>21.2864</ele>
        <time>2013-06-02T08:47:53Z</time>
      </trkpt>
      <trkpt lat="59.9043193" lon="17.6425257">
        <ele>21.767</ele>
        <time>2013-06-02T08:47:54Z</time>
      </trkpt>
      <trkpt lat="59.9042249" lon="17.6424782">
        <ele>21.767</ele>
        <time>2013-06-02T08:47:55Z</time>
      </trkpt>
      <trkpt lat="59.9041308" lon="17.6424327">
        <ele>22.2476</ele>
        <time>2013-06-02T08:47:56Z</time>
      </trkpt>
      <trkpt lat="59.904038" lon="17.6423873">
        <ele>22.2476</ele>
        <time>2013-06-02T08:47:57Z</time>
      </trkpt>
      <trkpt lat="59.9039464" lon="17.6423414">
        <ele>22.2476</ele>
        <time>2013-06-02T08:47:58Z</time>
      </trkpt>
      <trkpt lat="59.9038562" lon="17.6422983">
        <ele>22.7283</ele>
        <time>2013-06-02T08:47:59Z</time>
      </trkpt>
      <trkpt lat="59.9037675" lon="17.6422571">
        <ele>22.7283</ele>
        <time>2013-06-02T08:48:00Z</time>
      </trkpt>
      <trkpt lat="59.9036811" lon="17.6422167">
        <ele>22.7283</ele>
        <time>2013-06-02T08:48:01Z</time>
      </trkpt>
      <trkpt lat="59.903598" lon="17.6421759">
        <ele>22.7283</ele>
        <time>2013-06-02T08:48:02Z</time>
      </trkpt>
      <trkpt lat="59.9035168" lon="17.6421336">
        <ele>22.2476</ele>
        <time>2013-06-02T08:48:03Z</time>
      </trkpt>
      <trkpt lat="59.9034351" lon="17.6420902">
        <ele>22.2476</ele>
        <time>2013-06-02T08:48:04Z</time>
      </trkpt>
      <trkpt lat="59.9033517" lon="17.6420487">
        <ele>22.2476</ele>
        <time>2013-06-02T08:48:05Z</time>
      </trkpt>
      <trkpt lat="59.9032672" lon="17.6420079">
        <ele>21.767</ele>
        <time>2013-06-02T08:48:06Z</time>
      </trkpt>
      <trkpt lat="59.9031833" lon="17.6419662">
        <ele>21.767</ele>
        <time>2013-06-02T08:48:07Z</time>
      </trkpt>
      <trkpt lat="59.9030999" lon="17.6419235">
        <ele>21.767</ele>
        <time>2013-06-02T08:48:08Z</time>
      </trkpt>
      <trkpt lat="59.9030166" lon="17.6418802">
        <ele>21.767</ele>
        <time>2013-06-02T08:48:09Z</time>
      </trkpt>
      <trkpt lat="59.9029338" lon="17.6418351">
        <ele>21.767</ele>
        <time>2013-06-02T08:48:10Z</time>
      </trkpt>
      <trkpt lat="59.9028511" lon="17.6417891">
        <ele>21.767</ele>
        <time>2013-06-02T08:48:11Z</time>
      </trkpt>
      <trkpt lat="59.9027683" lon="17.6417429">
        <ele>21.767</ele>
        <time>2013-06-02T08:48:12Z</time>
      </trkpt>
      <trkpt lat="59.9026855" lon="17.6416956">
        <ele>21.767</ele>
        <time>2013-06-02T08:48:13Z</time>
      </trkpt>
      <trkpt lat="59.9026031" lon="17.6416473">
        <ele>21.767</ele>
        <time>2013-06-02T08:48:14Z</time>
      </trkpt>
      <trkpt lat="59.9025212" lon="17.6415956">
        <ele>21.767</ele>
        <time>2013-06-02T08:48:15Z</time>
      </trkpt>
      <trkpt lat="59.9024394" lon="17.6415414">
        <ele>21.767</ele>
        <time>2013-06-02T08:48:16Z</time>
      </trkpt>
      <trkpt lat="59.902358" lon="17.6414857">
        <ele>21.2864</ele>
        <time>2013-06-02T08:48:17Z</time>
      </trkpt>
      <trkpt lat="59.9022767" lon="17.6414286">
        <ele>21.2864</ele>
        <time>2013-06-02T08:48:18Z</time>
      </trkpt>
      <trkpt lat="59.9021954" lon="17.6413691">
        <ele>21.2864</ele>
        <time>2013-06-02T08:48:19Z</time>
      </trkpt>
      <trkpt lat="59.9021142" lon="17.6413084">
        <ele>21.2864</ele>
        <time>2013-06-02T08:48:20Z</time>
      </trkpt>
      <trkpt lat="59.9020334" lon="17.6412463">
        <ele>21.2864</ele>
        <time>2013-06-02T08:48:21Z</time>
      </trkpt>
      <trkpt lat="59.901953" lon="17.6411831">
        <ele>21.2864</ele>
        <time>2013-06-02T08:48:22Z</time>
      </trkpt>
      <trkpt lat="59.9018729" lon="17.6411194">
        <ele>21.2864</ele>
        <time>2013-06-02T08:48:23Z</time>
      </trkpt>
      <trkpt lat="59.9017935" lon="17.6410542">
        <ele>21.2864</ele>
        <time>2013-06-02T08:48:24Z</time>
      </trkpt>
      <trkpt lat="59.9017156" lon="17.6409874">
        <ele>21.2864</ele>
        <time>2013-06-02T08:48:25Z</time>
      </trkpt>
      <trkpt lat="59.9016407" lon="17.6409195">
        <ele>21.2864</ele>
        <time>2013-06-02T08:48:26Z</time>
      </trkpt>
      <trkpt lat="59.9015666" lon="17.6408538">
        <ele>21.767</ele>
        <time>2013-06-02T08:48:27Z</time>
      </trkpt>
      <trkpt lat="59.9014946" lon="17.6407848">
        <ele>21.2864</ele>
        <time>2013-06-02T08:48:28Z</time>
      </trkpt>
      <trkpt lat="59.9014238" lon="17.6407113">
        <ele>20.8057</ele>
        <time>2013-06-02T08:48:29Z</time>
      </trkpt>
      <trkpt lat="59.9013522" lon="17.6406387">
        <ele>20.8057</ele>
        <time>2013-06-02T08:48:30Z</time>
      </trkpt>
      <trkpt lat="59.9012796" lon="17.6405662">
        <ele>20.8057</ele>
        <time>2013-06-02T08:48:31Z</time>
      </trkpt>
      <trkpt lat="59.9012076" lon="17.6404938">
        <ele>21.2864</ele>
        <time>2013-06-02T08:48:32Z</time>
      </trkpt>
      <trkpt lat="59.9011354" lon="17.6404246">
        <ele>21.2864</ele>
        <time>2013-06-02T08:48:33Z</time>
      </trkpt>
      <trkpt lat="59.9010635" lon="17.6403554">
        <ele>21.767</ele>
        <time>2013-06-02T08:48:34Z</time>
      </trkpt>
      <trkpt lat="59.9009919" lon="17.6402845">
        <ele>21.767</ele>
        <time>2013-06-02T08:48:35Z</time>
      </trkpt>
      <trkpt lat="59.9009196" lon="17.6402149">
        <ele>22.2476</ele>
        <time>2013-06-02T08:48:36Z</time>
      </trkpt>
      <trkpt lat="59.9008477" lon="17.6401443">
        <ele>22.2476</ele>
        <time>2013-06-02T08:48:37Z</time>
      </trkpt>
      <trkpt lat="59.900775" lon="17.6400755">
        <ele>22.2476</ele>
        <time>2013-06-02T08:48:38Z</time>
      </trkpt>
      <trkpt lat="59.9007036" lon="17.6400056">
        <ele>22.2476</ele>
        <time>2013-06-02T08:48:39Z</time>
      </trkpt>
      <trkpt lat="59.9006321" lon="17.6399373">
        <ele>22.7283</ele>
        <time>2013-06-02T08:48:40Z</time>
      </trkpt>
      <trkpt lat="59.9005608" lon="17.6398699">
        <ele>22.7283</ele>
        <time>2013-06-02T08:48:41Z</time>
      </trkpt>
      <trkpt lat="59.9004897" lon="17.6398033">
        <ele>22.7283</ele>
        <time>2013-06-02T08:48:42Z</time>
      </trkpt>
      <trkpt lat="59.9004195" lon="17.639734">
        <ele>22.7283</ele>
        <time>2013-06-02T08:48:43Z</time>
      </trkpt>
      <trkpt lat="59.9003499" lon="17.6396644">
        <ele>22.7283</ele>
        <time>2013-06-02T08:48:44Z</time>
      </trkpt>
      <trkpt lat="59.9002809" lon="17.6395939">
        <ele>23.209</ele>
        <time>2013-06-02T08:48:45Z</time>
      </trkpt>
      <trkpt lat="59.9002124" lon="17.6395219">
        <ele>23.6896</ele>
        <time>2013-06-02T08:48:46Z</time>
      </trkpt>
      <trkpt lat="59.9001437" lon="17.6394514">
        <ele>23.6896</ele>
        <time>2013-06-02T08:48:47Z</time>
      </trkpt>
      <trkpt lat="59.9000742" lon="17.6393826">
        <ele>24.1703</ele>
        <time>2013-06-02T08:48:48Z</time>
      </trkpt>
      <trkpt lat="59.9000047" lon="17.6393156">
        <ele>24.1703</ele>
        <time>2013-06-02T08:48:49Z</time>
      </trkpt>
      <trkpt lat="59.8999359" lon="17.6392472">
        <ele>24.1703</ele>
        <time>2013-06-02T08:48:50Z</time>
      </trkpt>
      <trkpt lat="59.8998681" lon="17.6391758">
        <ele>24.651</ele>
        <time>2013-06-02T08:48:51Z</time>
      </trkpt>
      <trkpt lat="59.8998007" lon="17.6391036">
        <ele>24.651</ele>
        <time>2013-06-02T08:48:52Z</time>
      </trkpt>
      <trkpt lat="59.8997332" lon="17.6390321">
        <ele>24.651</ele>
        <time>2013-06-02T08:48:53Z</time>
      </trkpt>
      <trkpt lat="59.8996656" lon="17.6389627">
        <ele>24.1703</ele>
        <time>2013-06-02T08:48:54Z</time>
      </trkpt>
      <trkpt lat="59.8995987" lon="17.6388928">
        <ele>24.1703</ele>
        <time>2013-06-02T08:48:55Z</time>
      </trkpt>
      <trkpt lat="59.8995308" lon="17.6388225">
        <ele>23.6896</ele>
        <time>2013-06-02T08:48:56Z</time>
      </trkpt>
      <trkpt lat="59.8994638" lon="17.6387525">
        <ele>23.6896</ele>
        <time>2013-06-02T08:48:57Z</time>
      </trkpt>
      <trkpt lat="59.8993993" lon="17.6386893">
        <ele>23.6896</ele>
        <time>2013-06-02T08:48:58Z</time>
      </trkpt>
      <trkpt lat="59.8993375" lon="17.6386252">
        <ele>23.209</ele>
        <time>2013-06-02T08:48:59Z</time>
      </trkpt>
      <trkpt lat="59.8992765" lon="17.6385604">
        <ele>23.209</ele>
        <time>2013-06-02T08:49:00Z</time>
      </trkpt>
      <trkpt lat="59.8992164" lon="17.6384943">
        <ele>23.209</ele>
        <time>2013-06-02T08:49:01Z</time>
      </trkpt>
      <trkpt lat="59.8991554" lon="17.6384289">
        <ele>22.7283</ele>
        <time>2013-06-02T08:49:02Z</time>
      </trkpt>
      <trkpt lat="59.899095" lon="17.6383684">
        <ele>22.7283</ele>
        <time>2013-06-02T08:49:03Z</time>
      </trkpt>
      <trkpt lat="59.899033" lon="17.6383073">
        <ele>22.7283</ele>
        <time>2013-06-02T08:49:04Z</time>
      </trkpt>
      <trkpt lat="59.8989687" lon="17.6382492">
        <ele>23.209</ele>
        <time>2013-06-02T08:49:05Z</time>
      </trkpt>
      <trkpt lat="59.8989044" lon="17.6381972">
        <ele>23.209</ele>
        <time>2013-06-02T08:49:06Z</time>
      </trkpt>
      <trkpt lat="59.8988337" lon="17.6381606">
        <ele>23.6896</ele>
        <time>2013-06-02T08:49:07Z</time>
      </trkpt>
      <trkpt lat="59.8987585" lon="17.6381492">
        <ele>23.6896</ele>
        <time>2013-06-02T08:49:08Z</time>
      </trkpt>
      <trkpt lat="59.8986798" lon="17.6381557">
        <ele>23.6896</ele>
        <time>2013-06-02T08:49:09Z</time>
      </trkpt>
      <trkpt lat="59.8985995" lon="17.6381512">
        <ele>24.1703</ele>
        <time>2013-06-02T08:49:10Z</time>
      </trkpt>
      <trkpt lat="59.8985229" lon="17.6381195">
        <ele>24.1703</ele>
        <time>2013-06-02T08:49:11Z</time>
      </trkpt>
      <trkpt lat="59.898449" lon="17.6380681">
        <ele>23.6896</ele>
        <time>2013-06-02T08:49:12Z</time>
      </trkpt>
      <trkpt lat="59.8983788" lon="17.6380067">
        <ele>23.6896</ele>
        <time>2013-06-02T08:49:13Z</time>
      </trkpt>
      <trkpt lat="59.8983097" lon="17.6379435">
        <ele>23.209</ele>
        <time>2013-06-02T08:49:14Z</time>
      </trkpt>
      <trkpt lat="59.8982395" lon="17.6378853">
        <ele>23.209</ele>
        <time>2013-06-02T08:49:15Z</time>
      </trkpt>
      <trkpt lat="59.8981695" lon="17.6378279">
        <ele>23.209</ele>
        <time>2013-06-02T08:49:16Z</time>
      </trkpt>
      <trkpt lat="59.8981001" lon="17.6377684">
        <ele>23.209</ele>
        <time>2013-06-02T08:49:17Z</time>
      </trkpt>
      <trkpt lat="59.8980322" lon="17.6377021">
        <ele>23.6896</ele>
        <time>2013-06-02T08:49:18Z</time>
      </trkpt>
      <trkpt lat="59.8979675" lon="17.6376247">
        <ele>23.6896</ele>
        <time>2013-06-02T08:49:19Z</time>
      </trkpt>
      <trkpt lat="59.8979073" lon="17.637533">
        <ele>23.209</ele>
        <time>2013-06-02T08:49:20Z</time>
      </trkpt>
      <trkpt lat="59.8978515" lon="17.6374296">
        <ele>23.209</ele>
        <time>2013-06-02T08:49:21Z</time>
      </trkpt>
      <trkpt lat="59.897796" lon="17.6373269">
        <ele>23.6896</ele>
        <time>2013-06-02T08:49:22Z</time>
      </trkpt>
      <trkpt lat="59.897738" lon="17.6372331">
        <ele>24.1703</ele>
        <time>2013-06-02T08:49:23Z</time>
      </trkpt>
      <trkpt lat="59.8976764" lon="17.6371559">
        <ele>24.651</ele>
        <time>2013-06-02T08:49:24Z</time>
      </trkpt>
      <trkpt lat="59.897611" lon="17.637094">
        <ele>24.651</ele>
        <time>2013-06-02T08:49:25Z</time>
      </trkpt>
      <trkpt lat="59.8975423" lon="17.6370423">
        <ele>25.1317</ele>
        <time>2013-06-02T08:49:26Z</time>
      </trkpt>
      <trkpt lat="59.8974724" lon="17.636995">
        <ele>25.6123</ele>
        <time>2013-06-02T08:49:27Z</time>
      </trkpt>
      <trkpt lat="59.8974019" lon="17.6369525">
        <ele>25.6123</ele>
        <time>2013-06-02T08:49:28Z</time>
      </trkpt>
      <trkpt lat="59.8973302" lon="17.6369157">
        <ele>26.5736</ele>
        <time>2013-06-02T08:49:29Z</time>
      </trkpt>
      <trkpt lat="59.8972593" lon="17.6368845">
        <ele>27.0543</ele>
        <time>2013-06-02T08:49:30Z</time>
      </trkpt>
      <trkpt lat="59.8971892" lon="17.6368575">
        <ele>27.5349</ele>
        <time>2013-06-02T08:49:31Z</time>
      </trkpt>
      <trkpt lat="59.89712" lon="17.6368307">
        <ele>28.0155</ele>
        <time>2013-06-02T08:49:32Z</time>
      </trkpt>
      <trkpt lat="59.897052" lon="17.6368028">
        <ele>28.4962</ele>
        <time>2013-06-02T08:49:33Z</time>
      </trkpt>
      <trkpt lat="59.8969853" lon="17.6367661">
        <ele>28.4962</ele>
        <time>2013-06-02T08:49:34Z</time>
      </trkpt>
      <trkpt lat="59.8969221" lon="17.6367137">
        <ele>28.9769</ele>
        <time>2013-06-02T08:49:35Z</time>
      </trkpt>
      <trkpt lat="59.8968605" lon="17.6366587">
        <ele>28.9769</ele>
        <time>2013-06-02T08:49:36Z</time>
      </trkpt>
      <trkpt lat="59.8967969" lon="17.6366157">
        <ele>28.9769</ele>
        <time>2013-06-02T08:49:37Z</time>
      </trkpt>
      <trkpt lat="59.8967326" lon="17.6365817">
        <ele>29.4575</ele>
        <time>2013-06-02T08:49:38Z</time>
      </trkpt>
      <trkpt lat="59.8966668" lon="17.6365528">
        <ele>29.4575</ele>
        <time>2013-06-02T08:49:39Z</time>
      </trkpt>
      <trkpt lat="59.8965958" lon="17.6365288">
        <ele>29.4575</ele>
        <time>2013-06-02T08:49:40Z</time>
      </trkpt>
      <trkpt lat="59.8965257" lon="17.6365168">
        <ele>29.4575</ele>
        <time>2013-06-02T08:49:41Z</time>
      </trkpt>
      <trkpt lat="59.8964555" lon="17.6364991">
        <ele>29.9381</ele>
        <time>2013-06-02T08:49:42Z</time>
      </trkpt>
      <trkpt lat="59.8963855" lon="17.6364773">
        <ele>29.9381</ele>
        <time>2013-06-02T08:49:43Z</time>
      </trkpt>
      <trkpt lat="59.8963151" lon="17.6364553">
        <ele>29.9381</ele>
        <time>2013-06-02T08:49:44Z</time>
      </trkpt>
      <trkpt lat="59.8962414" lon="17.636432">
        <ele>29.9381</ele>
        <time>2013-06-02T08:49:45Z</time>
      </trkpt>
      <trkpt lat="59.8961677" lon="17.636404">
        <ele>29.9381</ele>
        <time>2013-06-02T08:49:46Z</time>
      </trkpt>
      <trkpt lat="59.8960952" lon="17.6363743">
        <ele>29.9381</ele>
        <time>2013-06-02T08:49:47Z</time>
      </trkpt>
      <trkpt lat="59.8960218" lon="17.636348">
        <ele>29.9381</ele>
        <time>2013-06-02T08:49:48Z</time>
      </trkpt>
      <trkpt lat="59.8959481" lon="17.6363299">
        <ele>29.9381</ele>
        <time>2013-06-02T08:49:49Z</time>
      </trkpt>
      <trkpt lat="59.8958752" lon="17.6363232">
        <ele>30.4188</ele>
        <time>2013-06-02T08:49:50Z</time>
      </trkpt>
      <trkpt lat="59.8958021" lon="17.6363238">
        <ele>30.4188</ele>
        <time>2013-06-02T08:49:51Z</time>
      </trkpt>
      <trkpt lat="59.8957281" lon="17.6363323">
        <ele>30.4188</ele>
        <time>2013-06-02T08:49:52Z</time>
      </trkpt>
      <trkpt lat="59.8956531" lon="17.6363514">
        <ele>29.9381</ele>
        <time>2013-06-02T08:49:53Z</time>
      </trkpt>
      <trkpt lat="59.8955777" lon="17.6363781">
        <ele>30.4188</ele>
        <time>2013-06-02T08:49:54Z</time>
      </trkpt>
      <trkpt lat="59.8955022" lon="17.6364158">
        <ele>30.4188</ele>
        <time>2013-06-02T08:49:55Z</time>
      </trkpt>
      <trkpt lat="59.8954261" lon="17.6364573">
        <ele>30.8995</ele>
        <time>2013-06-02T08:49:56Z</time>
      </trkpt>
      <trkpt lat="59.8953531" lon="17.6364968">
        <ele>30.8995</ele>
        <time>2013-06-02T08:49:57Z</time>
      </trkpt>
      <trkpt lat="59.8952816" lon="17.636541">
        <ele>30.8995</ele>
        <time>2013-06-02T08:49:58Z</time>
      </trkpt>
      <trkpt lat="59.8952061" lon="17.6365914">
        <ele>30.4188</ele>
        <time>2013-06-02T08:49:59Z</time>
      </trkpt>
      <trkpt lat="59.8951296" lon="17.6366437">
        <ele>30.4188</ele>
        <time>2013-06-02T08:50:00Z</time>
      </trkpt>
      <trkpt lat="59.8950506" lon="17.6367032">
        <ele>30.4188</ele>
        <time>2013-06-02T08:50:01Z</time>
      </trkpt>
      <trkpt lat="59.8949714" lon="17.6367586">
        <ele>30.4188</ele>
        <time>2013-06-02T08:50:02Z</time>
      </trkpt>
      <trkpt lat="59.8948931" lon="17.6368131">
        <ele>30.4188</ele>
        <time>2013-06-02T08:50:03Z</time>
      </trkpt>
      <trkpt lat="59.8948134" lon="17.6368588">
        <ele>30.8995</ele>
        <time>2013-06-02T08:50:04Z</time>
      </trkpt>
      <trkpt lat="59.8947341" lon="17.636906">
        <ele>30.8995</ele>
        <time>2013-06-02T08:50:05Z</time>
      </trkpt>
      <trkpt lat="59.8946557" lon="17.6369624">
        <ele>30.8995</ele>
        <time>2013-06-02T08:50:06Z</time>
      </trkpt>
      <trkpt lat="59.8945824" lon="17.637007">
        <ele>30.8995</ele>
        <time>2013-06-02T08:50:07Z</time>
      </trkpt>
      <trkpt lat="59.8945025" lon="17.637064">
        <ele>30.8995</ele>
        <time>2013-06-02T08:50:08Z</time>
      </trkpt>
      <trkpt lat="59.8944284" lon="17.6371157">
        <ele>30.8995</ele>
        <time>2013-06-02T08:50:09Z</time>
      </trkpt>
      <trkpt lat="59.8943575" lon="17.6371619">
        <ele>31.3801</ele>
        <time>2013-06-02T08:50:10Z</time>
      </trkpt>
      <trkpt lat="59.8942822" lon="17.637209">
        <ele>31.3801</ele>
        <time>2013-06-02T08:50:11Z</time>
      </trkpt>
      <trkpt lat="59.8942074" lon="17.6372551">
        <ele>30.8995</ele>
        <time>2013-06-02T08:50:12Z</time>
      </trkpt>
      <trkpt lat="59.8941345" lon="17.6373043">
        <ele>31.3801</ele>
        <time>2013-06-02T08:50:13Z</time>
      </trkpt>
      <trkpt lat="59.8940611" lon="17.6373591">
        <ele>31.8607</ele>
        <time>2013-06-02T08:50:14Z</time>
      </trkpt>
      <trkpt lat="59.8939865" lon="17.6374124">
        <ele>31.8607</ele>
        <time>2013-06-02T08:50:15Z</time>
      </trkpt>
      <trkpt lat="59.8939093" lon="17.6374686">
        <ele>31.8607</ele>
        <time>2013-06-02T08:50:16Z</time>
      </trkpt>
      <trkpt lat="59.8938313" lon="17.6375291">
        <ele>31.8607</ele>
        <time>2013-06-02T08:50:17Z</time>
      </trkpt>
      <trkpt lat="59.893752" lon="17.6375926">
        <ele>31.3801</ele>
        <time>2013-06-02T08:50:18Z</time>
      </trkpt>
      <trkpt lat="59.8936711" lon="17.6376576">
        <ele>31.8607</ele>
        <time>2013-06-02T08:50:19Z</time>
      </trkpt>
      <trkpt lat="59.8935899" lon="17.6377156">
        <ele>31.8607</ele>
        <time>2013-06-02T08:50:20Z</time>
      </trkpt>
      <trkpt lat="59.8935106" lon="17.6377734">
        <ele>31.8607</ele>
        <time>2013-06-02T08:50:21Z</time>
      </trkpt>
      <trkpt lat="59.893438" lon="17.6378138">
        <ele>31.3801</ele>
        <time>2013-06-02T08:50:22Z</time>
      </trkpt>
      <trkpt lat="59.8933618" lon="17.6378636">
        <ele>30.8995</ele>
        <time>2013-06-02T08:50:23Z</time>
      </trkpt>
      <trkpt lat="59.8932891" lon="17.6379092">
        <ele>31.3801</ele>
        <time>2013-06-02T08:50:24Z</time>
      </trkpt>
      <trkpt lat="59.8932116" lon="17.6379523">
        <ele>31.8607</ele>
        <time>2013-06-02T08:50:25Z</time>
      </trkpt>
      <trkpt lat="59.8931345" lon="17.6380088">
        <ele>31.3801</ele>
        <time>2013-06-02T08:50:26Z</time>
      </trkpt>
      <trkpt lat="59.8930609" lon="17.6380533">
        <ele>31.3801</ele>
        <time>2013-06-02T08:50:27Z</time>
      </trkpt>
      <trkpt lat="59.8929893" lon="17.638087">
        <ele>30.8995</ele>
        <time>2013-06-02T08:50:28Z</time>
      </trkpt>
      <trkpt lat="59.8929138" lon="17.6381191">
        <ele>30.8995</ele>
        <time>2013-06-02T08:50:29Z</time>
      </trkpt>
      <trkpt lat="59.8928386" lon="17.6381456">
        <ele>30.8995</ele>
        <time>2013-06-02T08:50:30Z</time>
      </trkpt>
      <trkpt lat="59.8927659" lon="17.6381586">
        <ele>30.8995</ele>
        <time>2013-06-02T08:50:31Z</time>
      </trkpt>
      <trkpt lat="59.8926979" lon="17.638175">
        <ele>30.4188</ele>
        <time>2013-06-02T08:50:32Z</time>
      </trkpt>
      <trkpt lat="59.8926407" lon="17.6382062">
        <ele>30.4188</ele>
        <time>2013-06-02T08:50:33Z</time>
      </trkpt>
      <trkpt lat="59.8926034" lon="17.6383064">
        <ele>29.9381</ele>
        <time>2013-06-02T08:50:34Z</time>
      </trkpt>
      <trkpt lat="59.8925984" lon="17.638422">
        <ele>29.4575</ele>
        <time>2013-06-02T08:50:35Z</time>
      </trkpt>
      <trkpt lat="59.8926071" lon="17.6385282">
        <ele>29.4575</ele>
        <time>2013-06-02T08:50:36Z</time>
      </trkpt>
      <trkpt lat="59.8926282" lon="17.6386287">
        <ele>29.4575</ele>
        <time>2013-06-02T08:50:37Z</time>
      </trkpt>
      <trkpt lat="59.8926469" lon="17.6387304">
        <ele>29.4575</ele>
        <time>2013-06-02T08:50:38Z</time>
      </trkpt>
      <trkpt lat="59.8926658" lon="17.6388441">
        <ele>29.4575</ele>
        <time>2013-06-02T08:50:39Z</time>
      </trkpt>
      <trkpt lat="59.8926686" lon="17.6389589">
        <ele>29.4575</ele>
        <time>2013-06-02T08:50:40Z</time>
      </trkpt>
      <trkpt lat="59.8926667" lon="17.6390795">
        <ele>29.4575</ele>
        <time>2013-06-02T08:50:41Z</time>
      </trkpt>
      <trkpt lat="59.8926639" lon="17.6392039">
        <ele>29.4575</ele>
        <time>2013-06-02T08:50:42Z</time>
      </trkpt>
      <trkpt lat="59.8926745" lon="17.6393349">
        <ele>29.9381</ele>
        <time>2013-06-02T08:50:43Z</time>
      </trkpt>
      <trkpt lat="59.8926817" lon="17.6394675">
        <ele>29.9381</ele>
        <time>2013-06-02T08:50:44Z</time>
      </trkpt>
      <trkpt lat="59.8926791" lon="17.6395997">
        <ele>30.4188</ele>
        <time>2013-06-02T08:50:45Z</time>
      </trkpt>
      <trkpt lat="59.8926756" lon="17.6397337">
        <ele>29.9381</ele>
        <time>2013-06-02T08:50:46Z</time>
      </trkpt>
      <trkpt lat="59.892673" lon="17.6398699">
        <ele>29.9381</ele>
        <time>2013-06-02T08:50:47Z</time>
      </trkpt>
      <trkpt lat="59.8926703" lon="17.6400078">
        <ele>29.9381</ele>
        <time>2013-06-02T08:50:48Z</time>
      </trkpt>
      <trkpt lat="59.8926739" lon="17.6401497">
        <ele>30.4188</ele>
        <time>2013-06-02T08:50:49Z</time>
      </trkpt>
      <trkpt lat="59.892677" lon="17.6402949">
        <ele>30.4188</ele>
        <time>2013-06-02T08:50:50Z</time>
      </trkpt>
      <trkpt lat="59.8926772" lon="17.6404435">
        <ele>30.4188</ele>
        <time>2013-06-02T08:50:51Z</time>
      </trkpt>
      <trkpt lat="59.8926744" lon="17.6405925">
        <ele>30.4188</ele>
        <time>2013-06-02T08:50:52Z</time>
      </trkpt>
      <trkpt lat="59.8926691" lon="17.6407409">
        <ele>30.4188</ele>
        <time>2013-06-02T08:50:53Z</time>
      </trkpt>
      <trkpt lat="59.8926627" lon="17.6408911">
        <ele>30.8995</ele>
        <time>2013-06-02T08:50:54Z</time>
      </trkpt>
      <trkpt lat="59.8926553" lon="17.6410425">
        <ele>30.4188</ele>
        <time>2013-06-02T08:50:55Z</time>
      </trkpt>
      <trkpt lat="59.8926479" lon="17.6411933">
        <ele>30.4188</ele>
        <time>2013-06-02T08:50:56Z</time>
      </trkpt>
      <trkpt lat="59.8926403" lon="17.6413449">
        <ele>30.4188</ele>
        <time>2013-06-02T08:50:57Z</time>
      </trkpt>
      <trkpt lat="59.8926326" lon="17.641497">
        <ele>30.4188</ele>
        <time>2013-06-02T08:50:58Z</time>
      </trkpt>
      <trkpt lat="59.8926243" lon="17.6416493">
        <ele>30.4188</ele>
        <time>2013-06-02T08:50:59Z</time>
      </trkpt>
      <trkpt lat="59.8926155" lon="17.6418022">
        <ele>30.4188</ele>
        <time>2013-06-02T08:51:00Z</time>
      </trkpt>
      <trkpt lat="59.892605" lon="17.6419538">
        <ele>30.4188</ele>
        <time>2013-06-02T08:51:01Z</time>
      </trkpt>
      <trkpt lat="59.8925925" lon="17.6421051">
        <ele>30.8995</ele>
        <time>2013-06-02T08:51:02Z</time>
      </trkpt>
      <trkpt lat="59.8925811" lon="17.6422533">
        <ele>31.3801</ele>
        <time>2013-06-02T08:51:03Z</time>
      </trkpt>
      <trkpt lat="59.8925719" lon="17.6424032">
        <ele>31.8607</ele>
        <time>2013-06-02T08:51:04Z</time>
      </trkpt>
      <trkpt lat="59.8925621" lon="17.6425522">
        <ele>31.8607</ele>
        <time>2013-06-02T08:51:05Z</time>
      </trkpt>
      <trkpt lat="59.8925522" lon="17.6427025">
        <ele>32.3416</ele>
        <time>2013-06-02T08:51:06Z</time>
      </trkpt>
      <trkpt lat="59.892546" lon="17.6428562">
        <ele>32.8223</ele>
        <time>2013-06-02T08:51:07Z</time>
      </trkpt>
      <trkpt lat="59.8925372" lon="17.6430136">
        <ele>33.3029</ele>
        <time>2013-06-02T08:51:08Z</time>
      </trkpt>
      <trkpt lat="59.8925262" lon="17.6431737">
        <ele>33.3029</ele>
        <time>2013-06-02T08:51:09Z</time>
      </trkpt>
      <trkpt lat="59.8925113" lon="17.6433306">
        <ele>33.3029</ele>
        <time>2013-06-02T08:51:10Z</time>
      </trkpt>
      <trkpt lat="59.8924961" lon="17.6434837">
        <ele>33.3029</ele>
        <time>2013-06-02T08:51:11Z</time>
      </trkpt>
      <trkpt lat="59.8924808" lon="17.6436369">
        <ele>33.3029</ele>
        <time>2013-06-02T08:51:12Z</time>
      </trkpt>
      <trkpt lat="59.8924678" lon="17.6437895">
        <ele>33.3029</ele>
        <time>2013-06-02T08:51:13Z</time>
      </trkpt>
      <trkpt lat="59.8924551" lon="17.6439426">
        <ele>33.7834</ele>
        <time>2013-06-02T08:51:14Z</time>
      </trkpt>
      <trkpt lat="59.8924402" lon="17.644096">
        <ele>33.7834</ele>
        <time>2013-06-02T08:51:15Z</time>
      </trkpt>
      <trkpt lat="59.8924238" lon="17.6442503">
        <ele>34.2642</ele>
        <time>2013-06-02T08:51:16Z</time>
      </trkpt>
      <trkpt lat="59.8924076" lon="17.6444056">
        <ele>34.2642</ele>
        <time>2013-06-02T08:51:17Z</time>
      </trkpt>
      <trkpt lat="59.8923911" lon="17.6445629">
        <ele>34.2642</ele>
        <time>2013-06-02T08:51:18Z</time>
      </trkpt>
      <trkpt lat="59.892376" lon="17.644722">
        <ele>34.2642</ele>
        <time>2013-06-02T08:51:19Z</time>
      </trkpt>
      <trkpt lat="59.8923607" lon="17.6448815">
        <ele>34.7449</ele>
        <time>2013-06-02T08:51:20Z</time>
      </trkpt>
      <trkpt lat="59.892345" lon="17.6450397">
        <ele>34.7449</ele>
        <time>2013-06-02T08:51:21Z</time>
      </trkpt>
      <trkpt lat="59.8923305" lon="17.6451987">
        <ele>34.7449</ele>
        <time>2013-06-02T08:51:22Z</time>
      </trkpt>
      <trkpt lat="59.8923156" lon="17.6453617">
        <ele>34.7449</ele>
        <time>2013-06-02T08:51:23Z</time>
      </trkpt>
      <trkpt lat="59.8923" lon="17.6455272">
        <ele>34.7449</ele>
        <time>2013-06-02T08:51:24Z</time>
      </trkpt>
      <trkpt lat="59.8922843" lon="17.6456929">
        <ele>34.2642</ele>
        <time>2013-06-02T08:51:25Z</time>
      </trkpt>
      <trkpt lat="59.8922687" lon="17.6458577">
        <ele>34.2642</ele>
        <time>2013-06-02T08:51:26Z</time>
      </trkpt>
      <trkpt lat="59.8922526" lon="17.6460234">
        <ele>34.2642</ele>
        <time>2013-06-02T08:51:27Z</time>
      </trkpt>
      <trkpt lat="59.8922366" lon="17.6461908">
        <ele>34.2642</ele>
        <time>2013-06-02T08:51:28Z</time>
      </trkpt>
      <trkpt lat="59.89222" lon="17.6463589">
        <ele>34.2642</ele>
        <time>2013-06-02T08:51:29Z</time>
      </trkpt>
      <trkpt lat="59.8922015" lon="17.6465263">
        <ele>34.2642</ele>
        <time>2013-06-02T08:51:30Z</time>
      </trkpt>
      <trkpt lat="59.8921821" lon="17.6466925">
        <ele>34.2642</ele>
        <time>2013-06-02T08:51:31Z</time>
      </trkpt>
      <trkpt lat="59.8921623" lon="17.6468569">
        <ele>34.2642</ele>
        <time>2013-06-02T08:51:32Z</time>
      </trkpt>
      <trkpt lat="59.8921403" lon="17.6470189">
        <ele>34.2642</ele>
        <time>2013-06-02T08:51:33Z</time>
      </trkpt>
      <trkpt lat="59.8921186" lon="17.6471787">
        <ele>34.2642</ele>
        <time>2013-06-02T08:51:34Z</time>
      </trkpt>
      <trkpt lat="59.8920974" lon="17.6473379">
        <ele>34.7449</ele>
        <time>2013-06-02T08:51:35Z</time>
      </trkpt>
      <trkpt lat="59.8920747" lon="17.6475106">
        <ele>34.7449</ele>
        <time>2013-06-02T08:51:36Z</time>
      </trkpt>
      <trkpt lat="59.8920501" lon="17.6476691">
        <ele>34.7449</ele>
        <time>2013-06-02T08:51:37Z</time>
      </trkpt>
      <trkpt lat="59.8920223" lon="17.6478223">
        <ele>34.7449</ele>
        <time>2013-06-02T08:51:38Z</time>
      </trkpt>
      <trkpt lat="59.8919849" lon="17.6479695">
        <ele>35.2255</ele>
        <time>2013-06-02T08:51:39Z</time>
      </trkpt>
      <trkpt lat="59.8919504" lon="17.6481204">
        <ele>35.2255</ele>
        <time>2013-06-02T08:51:40Z</time>
      </trkpt>
      <trkpt lat="59.8919274" lon="17.6482762">
        <ele>34.7449</ele>
        <time>2013-06-02T08:51:41Z</time>
      </trkpt>
      <trkpt lat="59.8919047" lon="17.6484316">
        <ele>35.2255</ele>
        <time>2013-06-02T08:51:42Z</time>
      </trkpt>
      <trkpt lat="59.8918784" lon="17.6485834">
        <ele>35.2255</ele>
        <time>2013-06-02T08:51:43Z</time>
      </trkpt>
      <trkpt lat="59.891855" lon="17.6487355">
        <ele>35.2255</ele>
        <time>2013-06-02T08:51:44Z</time>
      </trkpt>
      <trkpt lat="59.8918292" lon="17.6488914">
        <ele>35.7061</ele>
        <time>2013-06-02T08:51:45Z</time>
      </trkpt>
      <trkpt lat="59.8918021" lon="17.6490497">
        <ele>35.7061</ele>
        <time>2013-06-02T08:51:46Z</time>
      </trkpt>
      <trkpt lat="59.8917752" lon="17.6492064">
        <ele>35.7061</ele>
        <time>2013-06-02T08:51:47Z</time>
      </trkpt>
      <trkpt lat="59.8917471" lon="17.6493642">
        <ele>36.1868</ele>
        <time>2013-06-02T08:51:48Z</time>
      </trkpt>
      <trkpt lat="59.8917147" lon="17.64952">
        <ele>35.7061</ele>
        <time>2013-06-02T08:51:49Z</time>
      </trkpt>
      <trkpt lat="59.8916764" lon="17.6496745">
        <ele>35.7061</ele>
        <time>2013-06-02T08:51:50Z</time>
      </trkpt>
      <trkpt lat="59.8916395" lon="17.6498301">
        <ele>35.7061</ele>
        <time>2013-06-02T08:51:51Z</time>
      </trkpt>
      <trkpt lat="59.8916017" lon="17.649985">
        <ele>36.1868</ele>
        <time>2013-06-02T08:51:52Z</time>
      </trkpt>
      <trkpt lat="59.8915628" lon="17.650139">
        <ele>37.1481</ele>
        <time>2013-06-02T08:51:53Z</time>
      </trkpt>
      <trkpt lat="59.8915223" lon="17.6502903">
        <ele>37.6287</ele>
        <time>2013-06-02T08:51:54Z</time>
      </trkpt>
      <trkpt lat="59.8914794" lon="17.6504367">
        <ele>37.6287</ele>
        <time>2013-06-02T08:51:55Z</time>
      </trkpt>
      <trkpt lat="59.8914348" lon="17.6505793">
        <ele>37.1481</ele>
        <time>2013-06-02T08:51:56Z</time>
      </trkpt>
      <trkpt lat="59.8913889" lon="17.6507187">
        <ele>37.1481</ele>
        <time>2013-06-02T08:51:57Z</time>
      </trkpt>
      <trkpt lat="59.8913428" lon="17.6508579">
        <ele>37.1481</ele>
        <time>2013-06-02T08:51:58Z</time>
      </trkpt>
      <trkpt lat="59.8912964" lon="17.6509978">
        <ele>37.1481</ele>
        <time>2013-06-02T08:51:59Z</time>
      </trkpt>
      <trkpt lat="59.8912479" lon="17.6511367">
        <ele>37.1481</ele>
        <time>2013-06-02T08:52:00Z</time>
      </trkpt>
      <trkpt lat="59.8912007" lon="17.6512712">
        <ele>36.6675</ele>
        <time>2013-06-02T08:52:01Z</time>
      </trkpt>
      <trkpt lat="59.8911531" lon="17.6514065">
        <ele>36.1868</ele>
        <time>2013-06-02T08:52:02Z</time>
      </trkpt>
      <trkpt lat="59.8911048" lon="17.6515436">
        <ele>35.7061</ele>
        <time>2013-06-02T08:52:03Z</time>
      </trkpt>
      <trkpt lat="59.8910565" lon="17.6516796">
        <ele>35.7061</ele>
        <time>2013-06-02T08:52:04Z</time>
      </trkpt>
      <trkpt lat="59.8910033" lon="17.6518117">
        <ele>35.7061</ele>
        <time>2013-06-02T08:52:05Z</time>
      </trkpt>
      <trkpt lat="59.8909503" lon="17.6519427">
        <ele>35.7061</ele>
        <time>2013-06-02T08:52:06Z</time>
      </trkpt>
      <trkpt lat="59.8908998" lon="17.6520774">
        <ele>35.7061</ele>
        <time>2013-06-02T08:52:07Z</time>
      </trkpt>
      <trkpt lat="59.8908511" lon="17.6522151">
        <ele>35.7061</ele>
        <time>2013-06-02T08:52:08Z</time>
      </trkpt>
      <trkpt lat="59.8907978" lon="17.6523482">
        <ele>36.1868</ele>
        <time>2013-06-02T08:52:09Z</time>
      </trkpt>
      <trkpt lat="59.8907438" lon="17.6524798">
        <ele>35.7061</ele>
        <time>2013-06-02T08:52:10Z</time>
      </trkpt>
      <trkpt lat="59.890694" lon="17.6526151">
        <ele>35.7061</ele>
        <time>2013-06-02T08:52:11Z</time>
      </trkpt>
      <trkpt lat="59.8906445" lon="17.6527504">
        <ele>35.2255</ele>
        <time>2013-06-02T08:52:12Z</time>
      </trkpt>
      <trkpt lat="59.8905932" lon="17.6528861">
        <ele>35.2255</ele>
        <time>2013-06-02T08:52:13Z</time>
      </trkpt>
      <trkpt lat="59.8905461" lon="17.6530228">
        <ele>35.2255</ele>
        <time>2013-06-02T08:52:14Z</time>
      </trkpt>
      <trkpt lat="59.8904956" lon="17.6531586">
        <ele>34.7449</ele>
        <time>2013-06-02T08:52:15Z</time>
      </trkpt>
      <trkpt lat="59.8904455" lon="17.6532959">
        <ele>35.2255</ele>
        <time>2013-06-02T08:52:16Z</time>
      </trkpt>
      <trkpt lat="59.8903957" lon="17.6534356">
        <ele>34.7449</ele>
        <time>2013-06-02T08:52:17Z</time>
      </trkpt>
      <trkpt lat="59.8903463" lon="17.6535779">
        <ele>34.7449</ele>
        <time>2013-06-02T08:52:18Z</time>
      </trkpt>
      <trkpt lat="59.8902955" lon="17.6537189">
        <ele>34.7449</ele>
        <time>2013-06-02T08:52:19Z</time>
      </trkpt>
      <trkpt lat="59.8902439" lon="17.6538589">
        <ele>34.7449</ele>
        <time>2013-06-02T08:52:20Z</time>
      </trkpt>
      <trkpt lat="59.890192" lon="17.6540003">
        <ele>34.7449</ele>
        <time>2013-06-02T08:52:21Z</time>
      </trkpt>
      <trkpt lat="59.8901417" lon="17.654134">
        <ele>33.7834</ele>
        <time>2013-06-02T08:52:22Z</time>
      </trkpt>
      <trkpt lat="59.8900926" lon="17.6542716">
        <ele>32.8223</ele>
        <time>2013-06-02T08:52:23Z</time>
      </trkpt>
      <trkpt lat="59.8900414" lon="17.6544143">
        <ele>32.3416</ele>
        <time>2013-06-02T08:52:24Z</time>
      </trkpt>
      <trkpt lat="59.8899901" lon="17.6545559">
        <ele>31.8607</ele>
        <time>2013-06-02T08:52:25Z</time>
      </trkpt>
      <trkpt lat="59.8899364" lon="17.6546989">
        <ele>31.3801</ele>
        <time>2013-06-02T08:52:26Z</time>
      </trkpt>
      <trkpt lat="59.8898835" lon="17.654841">
        <ele>30.8995</ele>
        <time>2013-06-02T08:52:27Z</time>
      </trkpt>
      <trkpt lat="59.8898314" lon="17.6549828">
        <ele>30.8995</ele>
        <time>2013-06-02T08:52:28Z</time>
      </trkpt>
      <trkpt lat="59.8897794" lon="17.6551223">
        <ele>30.4188</ele>
        <time>2013-06-02T08:52:29Z</time>
      </trkpt>
      <trkpt lat="59.8897248" lon="17.6552614">
        <ele>29.9381</ele>
        <time>2013-06-02T08:52:30Z</time>
      </trkpt>
      <trkpt lat="59.8896729" lon="17.6554047">
        <ele>29.9381</ele>
        <time>2013-06-02T08:52:31Z</time>
      </trkpt>
      <trkpt lat="59.8896212" lon="17.6555512">
        <ele>29.9381</ele>
        <time>2013-06-02T08:52:32Z</time>
      </trkpt>
      <trkpt lat="59.8895684" lon="17.6556973">
        <ele>29.4575</ele>
        <time>2013-06-02T08:52:33Z</time>
      </trkpt>
      <trkpt lat="59.8895161" lon="17.6558426">
        <ele>29.4575</ele>
        <time>2013-06-02T08:52:34Z</time>
      </trkpt>
      <trkpt lat="59.8894633" lon="17.6559877">
        <ele>29.4575</ele>
        <time>2013-06-02T08:52:35Z</time>
      </trkpt>
      <trkpt lat="59.8894106" lon="17.6561328">
        <ele>29.4575</ele>
        <time>2013-06-02T08:52:36Z</time>
      </trkpt>
      <trkpt lat="59.8893581" lon="17.6562778">
        <ele>29.4575</ele>
        <time>2013-06-02T08:52:37Z</time>
      </trkpt>
      <trkpt lat="59.8893038" lon="17.6564213">
        <ele>29.4575</ele>
        <time>2013-06-02T08:52:38Z</time>
      </trkpt>
      <trkpt lat="59.8892508" lon="17.6565654">
        <ele>29.4575</ele>
        <time>2013-06-02T08:52:39Z</time>
      </trkpt>
      <trkpt lat="59.8891966" lon="17.6567101">
        <ele>28.9769</ele>
        <time>2013-06-02T08:52:40Z</time>
      </trkpt>
      <trkpt lat="59.8891428" lon="17.656855">
        <ele>28.9769</ele>
        <time>2013-06-02T08:52:41Z</time>
      </trkpt>
      <trkpt lat="59.8890891" lon="17.6570006">
        <ele>28.9769</ele>
        <time>2013-06-02T08:52:42Z</time>
      </trkpt>
      <trkpt lat="59.8890357" lon="17.6571446">
        <ele>28.9769</ele>
        <time>2013-06-02T08:52:43Z</time>
      </trkpt>
      <trkpt lat="59.8889822" lon="17.6572889">
        <ele>28.4962</ele>
        <time>2013-06-02T08:52:44Z</time>
      </trkpt>
      <trkpt lat="59.8889302" lon="17.6574348">
        <ele>28.4962</ele>
        <time>2013-06-02T08:52:45Z</time>
      </trkpt>
      <trkpt lat="59.8888769" lon="17.6575797">
        <ele>28.4962</ele>
        <time>2013-06-02T08:52:46Z</time>
      </trkpt>
      <trkpt lat="59.8888234" lon="17.6577246">
        <ele>28.4962</ele>
        <time>2013-06-02T08:52:47Z</time>
      </trkpt>
      <trkpt lat="59.8887698" lon="17.6578641">
        <ele>28.0155</ele>
        <time>2013-06-02T08:52:48Z</time>
      </trkpt>
      <trkpt lat="59.8887154" lon="17.6580063">
        <ele>27.5349</ele>
        <time>2013-06-02T08:52:49Z</time>
      </trkpt>
      <trkpt lat="59.888664" lon="17.658149">
        <ele>27.5349</ele>
        <time>2013-06-02T08:52:50Z</time>
      </trkpt>
      <trkpt lat="59.8886113" lon="17.6582907">
        <ele>27.5349</ele>
        <time>2013-06-02T08:52:51Z</time>
      </trkpt>
      <trkpt lat="59.8885584" lon="17.6584312">
        <ele>27.5349</ele>
        <time>2013-06-02T08:52:52Z</time>
      </trkpt>
      <trkpt lat="59.888506" lon="17.658572">
        <ele>27.5349</ele>
        <time>2013-06-02T08:52:53Z</time>
      </trkpt>
      <trkpt lat="59.8884542" lon="17.6587131">
        <ele>27.5349</ele>
        <time>2013-06-02T08:52:54Z</time>
      </trkpt>
      <trkpt lat="59.8884035" lon="17.658851">
        <ele>27.5349</ele>
        <time>2013-06-02T08:52:55Z</time>
      </trkpt>
      <trkpt lat="59.8883532" lon="17.6589942">
        <ele>27.5349</ele>
        <time>2013-06-02T08:52:56Z</time>
      </trkpt>
      <trkpt lat="59.8883025" lon="17.6591333">
        <ele>27.5349</ele>
        <time>2013-06-02T08:52:57Z</time>
      </trkpt>
      <trkpt lat="59.8882499" lon="17.6592682">
        <ele>27.5349</ele>
        <time>2013-06-02T08:52:58Z</time>
      </trkpt>
      <trkpt lat="59.8881972" lon="17.6594015">
        <ele>27.5349</ele>
        <time>2013-06-02T08:52:59Z</time>
      </trkpt>
      <trkpt lat="59.888146" lon="17.6595353">
        <ele>27.5349</ele>
        <time>2013-06-02T08:53:00Z</time>
      </trkpt>
      <trkpt lat="59.8880953" lon="17.6596689">
        <ele>27.5349</ele>
        <time>2013-06-02T08:53:01Z</time>
      </trkpt>
      <trkpt lat="59.8880451" lon="17.6598046">
        <ele>27.5349</ele>
        <time>2013-06-02T08:53:02Z</time>
      </trkpt>
      <trkpt lat="59.8879963" lon="17.6599406">
        <ele>27.0543</ele>
        <time>2013-06-02T08:53:03Z</time>
      </trkpt>
      <trkpt lat="59.8879476" lon="17.6600759">
        <ele>27.0543</ele>
        <time>2013-06-02T08:53:04Z</time>
      </trkpt>
      <trkpt lat="59.8878984" lon="17.6602122">
        <ele>27.0543</ele>
        <time>2013-06-02T08:53:05Z</time>
      </trkpt>
      <trkpt lat="59.8878465" lon="17.6603495">
        <ele>26.5736</ele>
        <time>2013-06-02T08:53:06Z</time>
      </trkpt>
      <trkpt lat="59.8877937" lon="17.6604829">
        <ele>27.0543</ele>
        <time>2013-06-02T08:53:07Z</time>
      </trkpt>
      <trkpt lat="59.8877376" lon="17.6606089">
        <ele>27.0543</ele>
        <time>2013-06-02T08:53:08Z</time>
      </trkpt>
      <trkpt lat="59.8876742" lon="17.6607219">
        <ele>27.0543</ele>
        <time>2013-06-02T08:53:09Z</time>
      </trkpt>
      <trkpt lat="59.8876058" lon="17.6608187">
        <ele>26.5736</ele>
        <time>2013-06-02T08:53:10Z</time>
      </trkpt>
      <trkpt lat="59.8875369" lon="17.6609002">
        <ele>26.5736</ele>
        <time>2013-06-02T08:53:11Z</time>
      </trkpt>
      <trkpt lat="59.8874675" lon="17.6609659">
        <ele>26.5736</ele>
        <time>2013-06-02T08:53:12Z</time>
      </trkpt>
      <trkpt lat="59.8873947" lon="17.6610041">
        <ele>26.0929</ele>
        <time>2013-06-02T08:53:13Z</time>
      </trkpt>
      <trkpt lat="59.8873203" lon="17.6610012">
        <ele>26.0929</ele>
        <time>2013-06-02T08:53:14Z</time>
      </trkpt>
      <trkpt lat="59.8872503" lon="17.66096">
        <ele>26.0929</ele>
        <time>2013-06-02T08:53:15Z</time>
      </trkpt>
      <trkpt lat="59.8871829" lon="17.6609157">
        <ele>26.0929</ele>
        <time>2013-06-02T08:53:16Z</time>
      </trkpt>
      <trkpt lat="59.8871147" lon="17.6609008">
        <ele>26.0929</ele>
        <time>2013-06-02T08:53:17Z</time>
      </trkpt>
      <trkpt lat="59.8870369" lon="17.6609124">
        <ele>26.0929</ele>
        <time>2013-06-02T08:53:18Z</time>
      </trkpt>
      <trkpt lat="59.8869852" lon="17.6610265">
        <ele>26.0929</ele>
        <time>2013-06-02T08:53:19Z</time>
      </trkpt>
      <trkpt lat="59.8869614" lon="17.661156">
        <ele>25.6123</ele>
        <time>2013-06-02T08:53:20Z</time>
      </trkpt>
      <trkpt lat="59.8869497" lon="17.6612874">
        <ele>25.6123</ele>
        <time>2013-06-02T08:53:21Z</time>
      </trkpt>
      <trkpt lat="59.8869834" lon="17.6614103">
        <ele>25.1317</ele>
        <time>2013-06-02T08:53:22Z</time>
      </trkpt>
      <trkpt lat="59.8870162" lon="17.6615346">
        <ele>24.651</ele>
        <time>2013-06-02T08:53:23Z</time>
      </trkpt>
      <trkpt lat="59.8870378" lon="17.66167">
        <ele>24.651</ele>
        <time>2013-06-02T08:53:24Z</time>
      </trkpt>
      <trkpt lat="59.8870402" lon="17.6618094">
        <ele>24.1703</ele>
        <time>2013-06-02T08:53:25Z</time>
      </trkpt>
      <trkpt lat="59.8870338" lon="17.6619523">
        <ele>24.651</ele>
        <time>2013-06-02T08:53:26Z</time>
      </trkpt>
      <trkpt lat="59.8870204" lon="17.6620967">
        <ele>24.651</ele>
        <time>2013-06-02T08:53:27Z</time>
      </trkpt>
      <trkpt lat="59.8869997" lon="17.6622383">
        <ele>24.651</ele>
        <time>2013-06-02T08:53:28Z</time>
      </trkpt>
      <trkpt lat="59.8869722" lon="17.6623769">
        <ele>24.651</ele>
        <time>2013-06-02T08:53:29Z</time>
      </trkpt>
      <trkpt lat="59.8869366" lon="17.6625137">
        <ele>24.651</ele>
        <time>2013-06-02T08:53:30Z</time>
      </trkpt>
      <trkpt lat="59.8868986" lon="17.6626494">
        <ele>24.651</ele>
        <time>2013-06-02T08:53:31Z</time>
      </trkpt>
      <trkpt lat="59.8868582" lon="17.6627831">
        <ele>25.1317</ele>
        <time>2013-06-02T08:53:32Z</time>
      </trkpt>
      <trkpt lat="59.8868146" lon="17.6629134">
        <ele>25.1317</ele>
        <time>2013-06-02T08:53:33Z</time>
      </trkpt>
      <trkpt lat="59.8867665" lon="17.6630374">
        <ele>25.1317</ele>
        <time>2013-06-02T08:53:34Z</time>
      </trkpt>
      <trkpt lat="59.8867137" lon="17.6631534">
        <ele>25.1317</ele>
        <time>2013-06-02T08:53:35Z</time>
      </trkpt>
      <trkpt lat="59.8866567" lon="17.6632603">
        <ele>25.1317</ele>
        <time>2013-06-02T08:53:36Z</time>
      </trkpt>
      <trkpt lat="59.8865961" lon="17.6633603">
        <ele>25.6123</ele>
        <time>2013-06-02T08:53:37Z</time>
      </trkpt>
      <trkpt lat="59.8865322" lon="17.6634551">
        <ele>25.6123</ele>
        <time>2013-06-02T08:53:38Z</time>
      </trkpt>
      <trkpt lat="59.8864667" lon="17.6635413">
        <ele>25.6123</ele>
        <time>2013-06-02T08:53:39Z</time>
      </trkpt>
      <trkpt lat="59.8864044" lon="17.6636135">
        <ele>25.6123</ele>
        <time>2013-06-02T08:53:40Z</time>
      </trkpt>
      <trkpt lat="59.8863418" lon="17.6636554">
        <ele>25.6123</ele>
        <time>2013-06-02T08:53:41Z</time>
      </trkpt>
      <trkpt lat="59.8862858" lon="17.6636918">
        <ele>25.6123</ele>
        <time>2013-06-02T08:53:42Z</time>
      </trkpt>
      <trkpt lat="59.8862371" lon="17.6636819">
        <ele>25.1317</ele>
        <time>2013-06-02T08:53:43Z</time>
      </trkpt>
      <trkpt lat="59.8861894" lon="17.6636704">
        <ele>25.1317</ele>
        <time>2013-06-02T08:53:44Z</time>
      </trkpt>
      <trkpt lat="59.8861394" lon="17.663656">
        <ele>25.1317</ele>
        <time>2013-06-02T08:53:45Z</time>
      </trkpt>
      <trkpt lat="59.8860864" lon="17.6636321">
        <ele>25.6123</ele>
        <time>2013-06-02T08:53:46Z</time>
      </trkpt>
      <trkpt lat="59.8860323" lon="17.6635969">
        <ele>25.1317</ele>
        <time>2013-06-02T08:53:47Z</time>
      </trkpt>
      <trkpt lat="59.8859719" lon="17.6635639">
        <ele>25.1317</ele>
        <time>2013-06-02T08:53:48Z</time>
      </trkpt>
      <trkpt lat="59.8859086" lon="17.6635424">
        <ele>25.1317</ele>
        <time>2013-06-02T08:53:49Z</time>
      </trkpt>
      <trkpt lat="59.8858404" lon="17.6635446">
        <ele>25.1317</ele>
        <time>2013-06-02T08:53:50Z</time>
      </trkpt>
      <trkpt lat="59.8857714" lon="17.6635698">
        <ele>25.1317</ele>
        <time>2013-06-02T08:53:51Z</time>
      </trkpt>
      <trkpt lat="59.885707" lon="17.6636242">
        <ele>25.1317</ele>
        <time>2013-06-02T08:53:52Z</time>
      </trkpt>
      <trkpt lat="59.8856512" lon="17.6637046">
        <ele>25.1317</ele>
        <time>2013-06-02T08:53:53Z</time>
      </trkpt>
      <trkpt lat="59.8856029" lon="17.6638113">
        <ele>25.1317</ele>
        <time>2013-06-02T08:53:54Z</time>
      </trkpt>
      <trkpt lat="59.8855627" lon="17.6639314">
        <ele>24.651</ele>
        <time>2013-06-02T08:53:55Z</time>
      </trkpt>
      <trkpt lat="59.8855315" lon="17.6640585">
        <ele>24.651</ele>
        <time>2013-06-02T08:53:56Z</time>
      </trkpt>
      <trkpt lat="59.8855006" lon="17.6641957">
        <ele>24.651</ele>
        <time>2013-06-02T08:53:57Z</time>
      </trkpt>
      <trkpt lat="59.8854703" lon="17.6643354">
        <ele>24.651</ele>
        <time>2013-06-02T08:53:58Z</time>
      </trkpt>
      <trkpt lat="59.8854397" lon="17.6644785">
        <ele>24.651</ele>
        <time>2013-06-02T08:53:59Z</time>
      </trkpt>
      <trkpt lat="59.8854082" lon="17.6646196">
        <ele>24.651</ele>
        <time>2013-06-02T08:54:00Z</time>
      </trkpt>
      <trkpt lat="59.8853757" lon="17.6647578">
        <ele>25.1317</ele>
        <time>2013-06-02T08:54:01Z</time>
      </trkpt>
      <trkpt lat="59.8853413" lon="17.6648914">
        <ele>25.6123</ele>
        <time>2013-06-02T08:54:02Z</time>
      </trkpt>
      <trkpt lat="59.8853061" lon="17.6650233">
        <ele>25.6123</ele>
        <time>2013-06-02T08:54:03Z</time>
      </trkpt>
      <trkpt lat="59.8852721" lon="17.6651555">
        <ele>26.0929</ele>
        <time>2013-06-02T08:54:04Z</time>
      </trkpt>
      <trkpt lat="59.8852385" lon="17.6652876">
        <ele>26.0929</ele>
        <time>2013-06-02T08:54:05Z</time>
      </trkpt>
      <trkpt lat="59.8852053" lon="17.6654214">
        <ele>26.0929</ele>
        <time>2013-06-02T08:54:06Z</time>
      </trkpt>
      <trkpt lat="59.8851784" lon="17.6655602">
        <ele>26.5736</ele>
        <time>2013-06-02T08:54:07Z</time>
      </trkpt>
      <trkpt lat="59.8851559" lon="17.6657019">
        <ele>26.5736</ele>
        <time>2013-06-02T08:54:08Z</time>
      </trkpt>
      <trkpt lat="59.8851391" lon="17.6658456">
        <ele>26.5736</ele>
        <time>2013-06-02T08:54:09Z</time>
      </trkpt>
      <trkpt lat="59.885125" lon="17.6659887">
        <ele>27.0543</ele>
        <time>2013-06-02T08:54:10Z</time>
      </trkpt>
      <trkpt lat="59.8851113" lon="17.6661306">
        <ele>27.0543</ele>
        <time>2013-06-02T08:54:11Z</time>
      </trkpt>
      <trkpt lat="59.8850975" lon="17.6662715">
        <ele>27.0543</ele>
        <time>2013-06-02T08:54:12Z</time>
      </trkpt>
      <trkpt lat="59.8850837" lon="17.6664102">
        <ele>27.5349</ele>
        <time>2013-06-02T08:54:13Z</time>
      </trkpt>
      <trkpt lat="59.8850706" lon="17.6665483">
        <ele>27.5349</ele>
        <time>2013-06-02T08:54:14Z</time>
      </trkpt>
      <trkpt lat="59.8850595" lon="17.6666867">
        <ele>27.5349</ele>
        <time>2013-06-02T08:54:15Z</time>
      </trkpt>
      <trkpt lat="59.8850477" lon="17.6668247">
        <ele>27.5349</ele>
        <time>2013-06-02T08:54:16Z</time>
      </trkpt>
      <trkpt lat="59.8850297" lon="17.6669584">
        <ele>27.5349</ele>
        <time>2013-06-02T08:54:17Z</time>
      </trkpt>
      <trkpt lat="59.8849984" lon="17.6670819">
        <ele>27.5349</ele>
        <time>2013-06-02T08:54:18Z</time>
      </trkpt>
      <trkpt lat="59.8849559" lon="17.6671898">
        <ele>27.5349</ele>
        <time>2013-06-02T08:54:19Z</time>
      </trkpt>
      <trkpt lat="59.8849079" lon="17.6672847">
        <ele>27.5349</ele>
        <time>2013-06-02T08:54:20Z</time>
      </trkpt>
      <trkpt lat="59.8848639" lon="17.667384">
        <ele>28.0155</ele>
        <time>2013-06-02T08:54:21Z</time>
      </trkpt>
      <trkpt lat="59.8848313" lon="17.6675001">
        <ele>27.5349</ele>
        <time>2013-06-02T08:54:22Z</time>
      </trkpt>
      <trkpt lat="59.8848173" lon="17.6676255">
        <ele>27.5349</ele>
        <time>2013-06-02T08:54:23Z</time>
      </trkpt>
      <trkpt lat="59.8848199" lon="17.6677543">
        <ele>27.0543</ele>
        <time>2013-06-02T08:54:24Z</time>
      </trkpt>
      <trkpt lat="59.8848298" lon="17.667886">
        <ele>27.5349</ele>
        <time>2013-06-02T08:54:25Z</time>
      </trkpt>
      <trkpt lat="59.8848295" lon="17.6680186">
        <ele>27.5349</ele>
        <time>2013-06-02T08:54:26Z</time>
      </trkpt>
      <trkpt lat="59.884822" lon="17.668155">
        <ele>27.0543</ele>
        <time>2013-06-02T08:54:27Z</time>
      </trkpt>
      <trkpt lat="59.8848033" lon="17.668289">
        <ele>27.0543</ele>
        <time>2013-06-02T08:54:28Z</time>
      </trkpt>
      <trkpt lat="59.8847741" lon="17.6684181">
        <ele>27.0543</ele>
        <time>2013-06-02T08:54:29Z</time>
      </trkpt>
      <trkpt lat="59.8847395" lon="17.6685425">
        <ele>26.5736</ele>
        <time>2013-06-02T08:54:30Z</time>
      </trkpt>
      <trkpt lat="59.8847033" lon="17.668664">
        <ele>26.5736</ele>
        <time>2013-06-02T08:54:31Z</time>
      </trkpt>
      <trkpt lat="59.8846675" lon="17.6687841">
        <ele>26.5736</ele>
        <time>2013-06-02T08:54:32Z</time>
      </trkpt>
      <trkpt lat="59.8846303" lon="17.6689025">
        <ele>26.5736</ele>
        <time>2013-06-02T08:54:33Z</time>
      </trkpt>
      <trkpt lat="59.8845909" lon="17.669021">
        <ele>27.0543</ele>
        <time>2013-06-02T08:54:34Z</time>
      </trkpt>
      <trkpt lat="59.88455" lon="17.6691387">
        <ele>27.0543</ele>
        <time>2013-06-02T08:54:35Z</time>
      </trkpt>
      <trkpt lat="59.8845069" lon="17.6692551">
        <ele>27.0543</ele>
        <time>2013-06-02T08:54:36Z</time>
      </trkpt>
      <trkpt lat="59.8844573" lon="17.6693712">
        <ele>27.5349</ele>
        <time>2013-06-02T08:54:37Z</time>
      </trkpt>
      <trkpt lat="59.8844081" lon="17.6694882">
        <ele>27.5349</ele>
        <time>2013-06-02T08:54:38Z</time>
      </trkpt>
      <trkpt lat="59.8843581" lon="17.6696054">
        <ele>27.5349</ele>
        <time>2013-06-02T08:54:39Z</time>
      </trkpt>
      <trkpt lat="59.8843077" lon="17.6697214">
        <ele>28.0155</ele>
        <time>2013-06-02T08:54:40Z</time>
      </trkpt>
      <trkpt lat="59.8842546" lon="17.6698375">
        <ele>28.0155</ele>
        <time>2013-06-02T08:54:41Z</time>
      </trkpt>
      <trkpt lat="59.8842004" lon="17.6699534">
        <ele>28.0155</ele>
        <time>2013-06-02T08:54:42Z</time>
      </trkpt>
      <trkpt lat="59.8841465" lon="17.6700672">
        <ele>28.4962</ele>
        <time>2013-06-02T08:54:43Z</time>
      </trkpt>
      <trkpt lat="59.8840927" lon="17.6701756">
        <ele>28.4962</ele>
        <time>2013-06-02T08:54:44Z</time>
      </trkpt>
      <trkpt lat="59.8840334" lon="17.6702735">
        <ele>28.4962</ele>
        <time>2013-06-02T08:54:45Z</time>
      </trkpt>
      <trkpt lat="59.8839626" lon="17.6703461">
        <ele>28.9769</ele>
        <time>2013-06-02T08:54:46Z</time>
      </trkpt>
      <trkpt lat="59.8838864" lon="17.6703839">
        <ele>29.4575</ele>
        <time>2013-06-02T08:54:47Z</time>
      </trkpt>
      <trkpt lat="59.8838161" lon="17.6704082">
        <ele>29.4575</ele>
        <time>2013-06-02T08:54:48Z</time>
      </trkpt>
      <trkpt lat="59.883752" lon="17.6704668">
        <ele>29.4575</ele>
        <time>2013-06-02T08:54:49Z</time>
      </trkpt>
      <trkpt lat="59.8836927" lon="17.6705625">
        <ele>28.9769</ele>
        <time>2013-06-02T08:54:50Z</time>
      </trkpt>
      <trkpt lat="59.8836465" lon="17.6706833">
        <ele>28.9769</ele>
        <time>2013-06-02T08:54:51Z</time>
      </trkpt>
      <trkpt lat="59.8836129" lon="17.670818">
        <ele>28.9769</ele>
        <time>2013-06-02T08:54:52Z</time>
      </trkpt>
      <trkpt lat="59.8835793" lon="17.6709561">
        <ele>28.9769</ele>
        <time>2013-06-02T08:54:53Z</time>
      </trkpt>
      <trkpt lat="59.8835357" lon="17.6710822">
        <ele>28.9769</ele>
        <time>2013-06-02T08:54:54Z</time>
      </trkpt>
      <trkpt lat="59.8834835" lon="17.6711909">
        <ele>28.9769</ele>
        <time>2013-06-02T08:54:55Z</time>
      </trkpt>
      <trkpt lat="59.8834249" lon="17.6712889">
        <ele>28.4962</ele>
        <time>2013-06-02T08:54:56Z</time>
      </trkpt>
      <trkpt lat="59.8833632" lon="17.671381">
        <ele>28.4962</ele>
        <time>2013-06-02T08:54:57Z</time>
      </trkpt>
      <trkpt lat="59.8832995" lon="17.6714689">
        <ele>28.0155</ele>
        <time>2013-06-02T08:54:58Z</time>
      </trkpt>
      <trkpt lat="59.8832353" lon="17.6715559">
        <ele>28.0155</ele>
        <time>2013-06-02T08:54:59Z</time>
      </trkpt>
      <trkpt lat="59.8831715" lon="17.6716441">
        <ele>28.0155</ele>
        <time>2013-06-02T08:55:00Z</time>
      </trkpt>
      <trkpt lat="59.8831071" lon="17.6717272">
        <ele>28.0155</ele>
        <time>2013-06-02T08:55:01Z</time>
      </trkpt>
      <trkpt lat="59.8830417" lon="17.6718016">
        <ele>28.0155</ele>
        <time>2013-06-02T08:55:02Z</time>
      </trkpt>
      <trkpt lat="59.8829752" lon="17.6718698">
        <ele>28.0155</ele>
        <time>2013-06-02T08:55:03Z</time>
      </trkpt>
      <trkpt lat="59.8829074" lon="17.6719349">
        <ele>28.0155</ele>
        <time>2013-06-02T08:55:04Z</time>
      </trkpt>
      <trkpt lat="59.8828389" lon="17.6719971">
        <ele>28.0155</ele>
        <time>2013-06-02T08:55:05Z</time>
      </trkpt>
      <trkpt lat="59.8827694" lon="17.6720539">
        <ele>28.4962</ele>
        <time>2013-06-02T08:55:06Z</time>
      </trkpt>
      <trkpt lat="59.8826986" lon="17.6721079">
        <ele>28.4962</ele>
        <time>2013-06-02T08:55:07Z</time>
      </trkpt>
      <trkpt lat="59.8826286" lon="17.6721613">
        <ele>28.4962</ele>
        <time>2013-06-02T08:55:08Z</time>
      </trkpt>
      <trkpt lat="59.8825583" lon="17.6722174">
        <ele>28.4962</ele>
        <time>2013-06-02T08:55:09Z</time>
      </trkpt>
      <trkpt lat="59.8824874" lon="17.6722755">
        <ele>28.9769</ele>
        <time>2013-06-02T08:55:10Z</time>
      </trkpt>
      <trkpt lat="59.8824158" lon="17.672333">
        <ele>28.9769</ele>
        <time>2013-06-02T08:55:11Z</time>
      </trkpt>
      <trkpt lat="59.8823434" lon="17.6723896">
        <ele>28.9769</ele>
        <time>2013-06-02T08:55:12Z</time>
      </trkpt>
      <trkpt lat="59.8822703" lon="17.6724475">
        <ele>28.9769</ele>
        <time>2013-06-02T08:55:13Z</time>
      </trkpt>
      <trkpt lat="59.8821968" lon="17.6725082">
        <ele>29.4575</ele>
        <time>2013-06-02T08:55:14Z</time>
      </trkpt>
      <trkpt lat="59.882123" lon="17.6725704">
        <ele>29.4575</ele>
        <time>2013-06-02T08:55:15Z</time>
      </trkpt>
      <trkpt lat="59.8820497" lon="17.6726299">
        <ele>29.4575</ele>
        <time>2013-06-02T08:55:16Z</time>
      </trkpt>
      <trkpt lat="59.8819776" lon="17.6726875">
        <ele>29.4575</ele>
        <time>2013-06-02T08:55:17Z</time>
      </trkpt>
      <trkpt lat="59.8819084" lon="17.6727422">
        <ele>29.4575</ele>
        <time>2013-06-02T08:55:18Z</time>
      </trkpt>
      <trkpt lat="59.8818411" lon="17.6727922">
        <ele>29.4575</ele>
        <time>2013-06-02T08:55:19Z</time>
      </trkpt>
      <trkpt lat="59.8817755" lon="17.6728449">
        <ele>28.9769</ele>
        <time>2013-06-02T08:55:20Z</time>
      </trkpt>
      <trkpt lat="59.8817128" lon="17.6728956">
        <ele>28.9769</ele>
        <time>2013-06-02T08:55:21Z</time>
      </trkpt>
      <trkpt lat="59.881649" lon="17.672948">
        <ele>28.9769</ele>
        <time>2013-06-02T08:55:22Z</time>
      </trkpt>
      <trkpt lat="59.8815834" lon="17.6729996">
        <ele>28.4962</ele>
        <time>2013-06-02T08:55:23Z</time>
      </trkpt>
      <trkpt lat="59.8815169" lon="17.6730527">
        <ele>28.4962</ele>
        <time>2013-06-02T08:55:24Z</time>
      </trkpt>
      <trkpt lat="59.8814508" lon="17.6731076">
        <ele>28.4962</ele>
        <time>2013-06-02T08:55:25Z</time>
      </trkpt>
      <trkpt lat="59.881385" lon="17.6731624">
        <ele>28.4962</ele>
        <time>2013-06-02T08:55:26Z</time>
      </trkpt>
      <trkpt lat="59.8813192" lon="17.6732189">
        <ele>28.4962</ele>
        <time>2013-06-02T08:55:27Z</time>
      </trkpt>
      <trkpt lat="59.8812529" lon="17.6732758">
        <ele>28.4962</ele>
        <time>2013-06-02T08:55:28Z</time>
      </trkpt>
      <trkpt lat="59.8811856" lon="17.6733324">
        <ele>28.4962</ele>
        <time>2013-06-02T08:55:29Z</time>
      </trkpt>
      <trkpt lat="59.8811171" lon="17.6733909">
        <ele>28.4962</ele>
        <time>2013-06-02T08:55:30Z</time>
      </trkpt>
      <trkpt lat="59.8810493" lon="17.6734505">
        <ele>28.0155</ele>
        <time>2013-06-02T08:55:31Z</time>
      </trkpt>
      <trkpt lat="59.8809829" lon="17.6735106">
        <ele>28.4962</ele>
        <time>2013-06-02T08:55:32Z</time>
      </trkpt>
      <trkpt lat="59.8809159" lon="17.6735706">
        <ele>28.4962</ele>
        <time>2013-06-02T08:55:33Z</time>
      </trkpt>
      <trkpt lat="59.8808498" lon="17.6736309">
        <ele>28.0155</ele>
        <time>2013-06-02T08:55:34Z</time>
      </trkpt>
      <trkpt lat="59.8807837" lon="17.6736927">
        <ele>28.0155</ele>
        <time>2013-06-02T08:55:35Z</time>
      </trkpt>
      <trkpt lat="59.8807139" lon="17.673752">
        <ele>28.4962</ele>
        <time>2013-06-02T08:55:36Z</time>
      </trkpt>
      <trkpt lat="59.880645" lon="17.6738137">
        <ele>28.4962</ele>
        <time>2013-06-02T08:55:37Z</time>
      </trkpt>
      <trkpt lat="59.8805777" lon="17.6738788">
        <ele>28.4962</ele>
        <time>2013-06-02T08:55:38Z</time>
      </trkpt>
      <trkpt lat="59.8805114" lon="17.6739427">
        <ele>28.4962</ele>
        <time>2013-06-02T08:55:39Z</time>
      </trkpt>
      <trkpt lat="59.8804453" lon="17.6740049">
        <ele>28.4962</ele>
        <time>2013-06-02T08:55:40Z</time>
      </trkpt>
      <trkpt lat="59.880379" lon="17.6740683">
        <ele>28.4962</ele>
        <time>2013-06-02T08:55:41Z</time>
      </trkpt>
      <trkpt lat="59.8803135" lon="17.6741346">
        <ele>28.4962</ele>
        <time>2013-06-02T08:55:42Z</time>
      </trkpt>
      <trkpt lat="59.8802479" lon="17.6742022">
        <ele>28.4962</ele>
        <time>2013-06-02T08:55:43Z</time>
      </trkpt>
      <trkpt lat="59.8801815" lon="17.6742703">
        <ele>28.4962</ele>
        <time>2013-06-02T08:55:44Z</time>
      </trkpt>
      <trkpt lat="59.8801146" lon="17.674338">
        <ele>28.4962</ele>
        <time>2013-06-02T08:55:45Z</time>
      </trkpt>
      <trkpt lat="59.8800463" lon="17.6744058">
        <ele>28.4962</ele>
        <time>2013-06-02T08:55:46Z</time>
      </trkpt>
      <trkpt lat="59.8799783" lon="17.6744742">
        <ele>28.0155</ele>
        <time>2013-06-02T08:55:47Z</time>
      </trkpt>
      <trkpt lat="59.879911" lon="17.6745428">
        <ele>28.0155</ele>
        <time>2013-06-02T08:55:48Z</time>
      </trkpt>
      <trkpt lat="59.8798434" lon="17.6746118">
        <ele>27.5349</ele>
        <time>2013-06-02T08:55:49Z</time>
      </trkpt>
      <trkpt lat="59.879775" lon="17.6746833">
        <ele>27.5349</ele>
        <time>2013-06-02T08:55:50Z</time>
      </trkpt>
      <trkpt lat="59.8797023" lon="17.6747573">
        <ele>27.5349</ele>
        <time>2013-06-02T08:55:51Z</time>
      </trkpt>
      <trkpt lat="59.8796306" lon="17.6748339">
        <ele>28.0155</ele>
        <time>2013-06-02T08:55:52Z</time>
      </trkpt>
      <trkpt lat="59.8795584" lon="17.6749097">
        <ele>28.0155</ele>
        <time>2013-06-02T08:55:53Z</time>
      </trkpt>
      <trkpt lat="59.8794864" lon="17.6749851">
        <ele>28.0155</ele>
        <time>2013-06-02T08:55:54Z</time>
      </trkpt>
      <trkpt lat="59.8794144" lon="17.6750592">
        <ele>28.0155</ele>
        <time>2013-06-02T08:55:55Z</time>
      </trkpt>
      <trkpt lat="59.8793419" lon="17.6751299">
        <ele>28.0155</ele>
        <time>2013-06-02T08:55:56Z</time>
      </trkpt>
      <trkpt lat="59.8792673" lon="17.6751812">
        <ele>28.0155</ele>
        <time>2013-06-02T08:55:57Z</time>
      </trkpt>
      <trkpt lat="59.8791902" lon="17.6752003">
        <ele>28.0155</ele>
        <time>2013-06-02T08:55:58Z</time>
      </trkpt>
      <trkpt lat="59.8791136" lon="17.6752033">
        <ele>28.0155</ele>
        <time>2013-06-02T08:55:59Z</time>
      </trkpt>
      <trkpt lat="59.8790399" lon="17.6752169">
        <ele>28.0155</ele>
        <time>2013-06-02T08:56:00Z</time>
      </trkpt>
      <trkpt lat="59.8789814" lon="17.6752929">
        <ele>28.4962</ele>
        <time>2013-06-02T08:56:01Z</time>
      </trkpt>
      <trkpt lat="59.8789336" lon="17.6754074">
        <ele>28.4962</ele>
        <time>2013-06-02T08:56:02Z</time>
      </trkpt>
      <trkpt lat="59.878891" lon="17.6755325">
        <ele>28.9769</ele>
        <time>2013-06-02T08:56:03Z</time>
      </trkpt>
      <trkpt lat="59.8788432" lon="17.6756535">
        <ele>28.9769</ele>
        <time>2013-06-02T08:56:04Z</time>
      </trkpt>
      <trkpt lat="59.8787872" lon="17.6757635">
        <ele>28.9769</ele>
        <time>2013-06-02T08:56:05Z</time>
      </trkpt>
      <trkpt lat="59.878725" lon="17.6758608">
        <ele>28.9769</ele>
        <time>2013-06-02T08:56:06Z</time>
      </trkpt>
      <trkpt lat="59.8786592" lon="17.6759462">
        <ele>28.9769</ele>
        <time>2013-06-02T08:56:07Z</time>
      </trkpt>
      <trkpt lat="59.8785901" lon="17.6760292">
        <ele>28.9769</ele>
        <time>2013-06-02T08:56:08Z</time>
      </trkpt>
      <trkpt lat="59.8785248" lon="17.6761044">
        <ele>28.9769</ele>
        <time>2013-06-02T08:56:09Z</time>
      </trkpt>
      <trkpt lat="59.8784597" lon="17.6761768">
        <ele>28.9769</ele>
        <time>2013-06-02T08:56:10Z</time>
      </trkpt>
      <trkpt lat="59.8783934" lon="17.6762478">
        <ele>28.9769</ele>
        <time>2013-06-02T08:56:11Z</time>
      </trkpt>
      <trkpt lat="59.878325" lon="17.6763167">
        <ele>28.9769</ele>
        <time>2013-06-02T08:56:12Z</time>
      </trkpt>
      <trkpt lat="59.8782565" lon="17.6763895">
        <ele>28.9769</ele>
        <time>2013-06-02T08:56:13Z</time>
      </trkpt>
      <trkpt lat="59.8781876" lon="17.6764633">
        <ele>28.9769</ele>
        <time>2013-06-02T08:56:14Z</time>
      </trkpt>
      <trkpt lat="59.8781184" lon="17.6765364">
        <ele>28.9769</ele>
        <time>2013-06-02T08:56:15Z</time>
      </trkpt>
      <trkpt lat="59.8780488" lon="17.6766051">
        <ele>28.9769</ele>
        <time>2013-06-02T08:56:16Z</time>
      </trkpt>
      <trkpt lat="59.8779784" lon="17.6766715">
        <ele>28.9769</ele>
        <time>2013-06-02T08:56:17Z</time>
      </trkpt>
      <trkpt lat="59.8779075" lon="17.6767383">
        <ele>28.9769</ele>
        <time>2013-06-02T08:56:18Z</time>
      </trkpt>
      <trkpt lat="59.8778355" lon="17.6768036">
        <ele>28.9769</ele>
        <time>2013-06-02T08:56:19Z</time>
      </trkpt>
      <trkpt lat="59.8777625" lon="17.6768693">
        <ele>28.9769</ele>
        <time>2013-06-02T08:56:20Z</time>
      </trkpt>
      <trkpt lat="59.8776893" lon="17.6769349">
        <ele>28.9769</ele>
        <time>2013-06-02T08:56:21Z</time>
      </trkpt>
      <trkpt lat="59.877615" lon="17.6769989">
        <ele>28.9769</ele>
        <time>2013-06-02T08:56:22Z</time>
      </trkpt>
      <trkpt lat="59.8775403" lon="17.6770626">
        <ele>28.9769</ele>
        <time>2013-06-02T08:56:23Z</time>
      </trkpt>
      <trkpt lat="59.8774651" lon="17.6771268">
        <ele>28.9769</ele>
        <time>2013-06-02T08:56:24Z</time>
      </trkpt>
      <trkpt lat="59.8773893" lon="17.67719">
        <ele>28.9769</ele>
        <time>2013-06-02T08:56:25Z</time>
      </trkpt>
      <trkpt lat="59.8773129" lon="17.6772499">
        <ele>28.9769</ele>
        <time>2013-06-02T08:56:26Z</time>
      </trkpt>
      <trkpt lat="59.8772362" lon="17.6773045">
        <ele>29.4575</ele>
        <time>2013-06-02T08:56:27Z</time>
      </trkpt>
      <trkpt lat="59.8771601" lon="17.6773562">
        <ele>29.4575</ele>
        <time>2013-06-02T08:56:28Z</time>
      </trkpt>
      <trkpt lat="59.8770873" lon="17.6774076">
        <ele>29.4575</ele>
        <time>2013-06-02T08:56:29Z</time>
      </trkpt>
      <trkpt lat="59.8770171" lon="17.677462">
        <ele>29.4575</ele>
        <time>2013-06-02T08:56:30Z</time>
      </trkpt>
      <trkpt lat="59.8769506" lon="17.6775138">
        <ele>29.4575</ele>
        <time>2013-06-02T08:56:31Z</time>
      </trkpt>
      <trkpt lat="59.8768872" lon="17.6775583">
        <ele>29.9381</ele>
        <time>2013-06-02T08:56:32Z</time>
      </trkpt>
      <trkpt lat="59.876825" lon="17.6775897">
        <ele>29.9381</ele>
        <time>2013-06-02T08:56:33Z</time>
      </trkpt>
      <trkpt lat="59.8767629" lon="17.6776056">
        <ele>29.9381</ele>
        <time>2013-06-02T08:56:34Z</time>
      </trkpt>
      <trkpt lat="59.8767001" lon="17.6776076">
        <ele>29.9381</ele>
        <time>2013-06-02T08:56:35Z</time>
      </trkpt>
      <trkpt lat="59.8766387" lon="17.6775851">
        <ele>29.9381</ele>
        <time>2013-06-02T08:56:36Z</time>
      </trkpt>
      <trkpt lat="59.8765778" lon="17.6775355">
        <ele>29.9381</ele>
        <time>2013-06-02T08:56:37Z</time>
      </trkpt>
      <trkpt lat="59.8765157" lon="17.6774842">
        <ele>29.9381</ele>
        <time>2013-06-02T08:56:38Z</time>
      </trkpt>
      <trkpt lat="59.8764488" lon="17.677449">
        <ele>29.9381</ele>
        <time>2013-06-02T08:56:39Z</time>
      </trkpt>
      <trkpt lat="59.8763814" lon="17.6774393">
        <ele>29.9381</ele>
        <time>2013-06-02T08:56:40Z</time>
      </trkpt>
      <trkpt lat="59.8763157" lon="17.6774697">
        <ele>29.9381</ele>
        <time>2013-06-02T08:56:41Z</time>
      </trkpt>
      <trkpt lat="59.8762572" lon="17.6775401">
        <ele>29.9381</ele>
        <time>2013-06-02T08:56:42Z</time>
      </trkpt>
      <trkpt lat="59.8762111" lon="17.6776462">
        <ele>30.4188</ele>
        <time>2013-06-02T08:56:43Z</time>
      </trkpt>
      <trkpt lat="59.8761836" lon="17.6777736">
        <ele>30.4188</ele>
        <time>2013-06-02T08:56:44Z</time>
      </trkpt>
      <trkpt lat="59.8761758" lon="17.677912">
        <ele>30.4188</ele>
        <time>2013-06-02T08:56:45Z</time>
      </trkpt>
      <trkpt lat="59.8761861" lon="17.6780452">
        <ele>30.4188</ele>
        <time>2013-06-02T08:56:46Z</time>
      </trkpt>
      <trkpt lat="59.8762146" lon="17.6781652">
        <ele>30.4188</ele>
        <time>2013-06-02T08:56:47Z</time>
      </trkpt>
      <trkpt lat="59.8762582" lon="17.6782648">
        <ele>30.4188</ele>
        <time>2013-06-02T08:56:48Z</time>
      </trkpt>
      <trkpt lat="59.8763122" lon="17.6783411">
        <ele>30.4188</ele>
        <time>2013-06-02T08:56:49Z</time>
      </trkpt>
      <trkpt lat="59.8763723" lon="17.6783932">
        <ele>30.4188</ele>
        <time>2013-06-02T08:56:50Z</time>
      </trkpt>
      <trkpt lat="59.8764348" lon="17.6784299">
        <ele>30.4188</ele>
        <time>2013-06-02T08:56:51Z</time>
      </trkpt>
      <trkpt lat="59.8764984" lon="17.6784621">
        <ele>30.4188</ele>
        <time>2013-06-02T08:56:52Z</time>
      </trkpt>
      <trkpt lat="59.8765628" lon="17.6784952">
        <ele>30.4188</ele>
        <time>2013-06-02T08:56:53Z</time>
      </trkpt>
      <trkpt lat="59.8766251" lon="17.6785415">
        <ele>30.8995</ele>
        <time>2013-06-02T08:56:54Z</time>
      </trkpt>
      <trkpt lat="59.8766795" lon="17.6786107">
        <ele>31.3801</ele>
        <time>2013-06-02T08:56:55Z</time>
      </trkpt>
      <trkpt lat="59.8767265" lon="17.6786973">
        <ele>31.3801</ele>
        <time>2013-06-02T08:56:56Z</time>
      </trkpt>
      <trkpt lat="59.8767704" lon="17.6787894">
        <ele>31.3801</ele>
        <time>2013-06-02T08:56:57Z</time>
      </trkpt>
      <trkpt lat="59.8768139" lon="17.6788821">
        <ele>30.8995</ele>
        <time>2013-06-02T08:56:58Z</time>
      </trkpt>
      <trkpt lat="59.8768568" lon="17.6789752">
        <ele>30.8995</ele>
        <time>2013-06-02T08:56:59Z</time>
      </trkpt>
      <trkpt lat="59.876899" lon="17.6790688">
        <ele>30.8995</ele>
        <time>2013-06-02T08:57:00Z</time>
      </trkpt>
      <trkpt lat="59.8769415" lon="17.6791604">
        <ele>30.8995</ele>
        <time>2013-06-02T08:57:01Z</time>
      </trkpt>
      <trkpt lat="59.8769842" lon="17.6792507">
        <ele>30.8995</ele>
        <time>2013-06-02T08:57:02Z</time>
      </trkpt>
      <trkpt lat="59.8770268" lon="17.6793418">
        <ele>30.4188</ele>
        <time>2013-06-02T08:57:03Z</time>
      </trkpt>
      <trkpt lat="59.8770688" lon="17.6794335">
        <ele>30.4188</ele>
        <time>2013-06-02T08:57:04Z</time>
      </trkpt>
      <trkpt lat="59.8771118" lon="17.679526">
        <ele>30.4188</ele>
        <time>2013-06-02T08:57:05Z</time>
      </trkpt>
      <trkpt lat="59.8771553" lon="17.6796194">
        <ele>30.4188</ele>
        <time>2013-06-02T08:57:06Z</time>
      </trkpt>
      <trkpt lat="59.877198" lon="17.6797157">
        <ele>30.8995</ele>
        <time>2013-06-02T08:57:07Z</time>
      </trkpt>
      <trkpt lat="59.8772414" lon="17.6798151">
        <ele>30.8995</ele>
        <time>2013-06-02T08:57:08Z</time>
      </trkpt>
      <trkpt lat="59.8772863" lon="17.679915">
        <ele>30.8995</ele>
        <time>2013-06-02T08:57:09Z</time>
      </trkpt>
      <trkpt lat="59.8773335" lon="17.6800135">
        <ele>30.4188</ele>
        <time>2013-06-02T08:57:10Z</time>
      </trkpt>
      <trkpt lat="59.8773803" lon="17.6801121">
        <ele>30.4188</ele>
        <time>2013-06-02T08:57:11Z</time>
      </trkpt>
      <trkpt lat="59.8774263" lon="17.6802115">
        <ele>30.4188</ele>
        <time>2013-06-02T08:57:12Z</time>
      </trkpt>
      <trkpt lat="59.8774714" lon="17.6803119">
        <ele>30.4188</ele>
        <time>2013-06-02T08:57:13Z</time>
      </trkpt>
      <trkpt lat="59.8775165" lon="17.6804121">
        <ele>30.4188</ele>
        <time>2013-06-02T08:57:14Z</time>
      </trkpt>
      <trkpt lat="59.877563" lon="17.6805124">
        <ele>30.4188</ele>
        <time>2013-06-02T08:57:15Z</time>
      </trkpt>
      <trkpt lat="59.8776101" lon="17.6806109">
        <ele>30.4188</ele>
        <time>2013-06-02T08:57:16Z</time>
      </trkpt>
      <trkpt lat="59.8776571" lon="17.6807082">
        <ele>30.8995</ele>
        <time>2013-06-02T08:57:17Z</time>
      </trkpt>
      <trkpt lat="59.8777035" lon="17.6808052">
        <ele>30.8995</ele>
        <time>2013-06-02T08:57:18Z</time>
      </trkpt>
      <trkpt lat="59.8777489" lon="17.6809026">
        <ele>30.8995</ele>
        <time>2013-06-02T08:57:19Z</time>
      </trkpt>
      <trkpt lat="59.8777915" lon="17.681">
        <ele>30.8995</ele>
        <time>2013-06-02T08:57:20Z</time>
      </trkpt>
      <trkpt lat="59.8778333" lon="17.6810952">
        <ele>31.3801</ele>
        <time>2013-06-02T08:57:21Z</time>
      </trkpt>
      <trkpt lat="59.8778742" lon="17.6811888">
        <ele>31.3801</ele>
        <time>2013-06-02T08:57:22Z</time>
      </trkpt>
      <trkpt lat="59.8779146" lon="17.6812807">
        <ele>31.8607</ele>
        <time>2013-06-02T08:57:23Z</time>
      </trkpt>
      <trkpt lat="59.8779546" lon="17.6813705">
        <ele>31.8607</ele>
        <time>2013-06-02T08:57:24Z</time>
      </trkpt>
      <trkpt lat="59.877993" lon="17.68146">
        <ele>31.8607</ele>
        <time>2013-06-02T08:57:25Z</time>
      </trkpt>
      <trkpt lat="59.8780296" lon="17.6815487">
        <ele>32.3416</ele>
        <time>2013-06-02T08:57:26Z</time>
      </trkpt>
      <trkpt lat="59.8780643" lon="17.6816351">
        <ele>32.3416</ele>
        <time>2013-06-02T08:57:27Z</time>
      </trkpt>
      <trkpt lat="59.8780978" lon="17.6817198">
        <ele>32.3416</ele>
        <time>2013-06-02T08:57:28Z</time>
      </trkpt>
      <trkpt lat="59.8781303" lon="17.6818051">
        <ele>32.3416</ele>
        <time>2013-06-02T08:57:29Z</time>
      </trkpt>
      <trkpt lat="59.8781619" lon="17.6818889">
        <ele>32.3416</ele>
        <time>2013-06-02T08:57:30Z</time>
      </trkpt>
      <trkpt lat="59.8781922" lon="17.6819733">
        <ele>32.3416</ele>
        <time>2013-06-02T08:57:31Z</time>
      </trkpt>
      <trkpt lat="59.878222" lon="17.6820557">
        <ele>32.3416</ele>
        <time>2013-06-02T08:57:32Z</time>
      </trkpt>
      <trkpt lat="59.8782535" lon="17.6821353">
        <ele>32.3416</ele>
        <time>2013-06-02T08:57:33Z</time>
      </trkpt>
      <trkpt lat="59.8782867" lon="17.6822137">
        <ele>32.3416</ele>
        <time>2013-06-02T08:57:34Z</time>
      </trkpt>
      <trkpt lat="59.8783183" lon="17.6822904">
        <ele>32.3416</ele>
        <time>2013-06-02T08:57:35Z</time>
      </trkpt>
      <trkpt lat="59.87835" lon="17.6823675">
        <ele>31.8607</ele>
        <time>2013-06-02T08:57:36Z</time>
      </trkpt>
      <trkpt lat="59.8783824" lon="17.682446">
        <ele>31.8607</ele>
        <time>2013-06-02T08:57:37Z</time>
      </trkpt>
      <trkpt lat="59.878414" lon="17.6825265">
        <ele>31.3801</ele>
        <time>2013-06-02T08:57:38Z</time>
      </trkpt>
      <trkpt lat="59.8784466" lon="17.6826073">
        <ele>31.3801</ele>
        <time>2013-06-02T08:57:39Z</time>
      </trkpt>
      <trkpt lat="59.8784815" lon="17.6826851">
        <ele>31.3801</ele>
        <time>2013-06-02T08:57:40Z</time>
      </trkpt>
      <trkpt lat="59.8785199" lon="17.6827586">
        <ele>31.3801</ele>
        <time>2013-06-02T08:57:41Z</time>
      </trkpt>
      <trkpt lat="59.8785626" lon="17.6828278">
        <ele>31.3801</ele>
        <time>2013-06-02T08:57:42Z</time>
      </trkpt>
      <trkpt lat="59.8786056" lon="17.6828918">
        <ele>30.8995</ele>
        <time>2013-06-02T08:57:43Z</time>
      </trkpt>
      <trkpt lat="59.8786499" lon="17.6829534">
        <ele>30.8995</ele>
        <time>2013-06-02T08:57:44Z</time>
      </trkpt>
      <trkpt lat="59.8786965" lon="17.6830155">
        <ele>30.4188</ele>
        <time>2013-06-02T08:57:45Z</time>
      </trkpt>
      <trkpt lat="59.8787431" lon="17.6830785">
        <ele>29.9381</ele>
        <time>2013-06-02T08:57:46Z</time>
      </trkpt>
      <trkpt lat="59.8787886" lon="17.6831439">
        <ele>29.4575</ele>
        <time>2013-06-02T08:57:47Z</time>
      </trkpt>
      <trkpt lat="59.8788354" lon="17.683212">
        <ele>29.4575</ele>
        <time>2013-06-02T08:57:48Z</time>
      </trkpt>
      <trkpt lat="59.8788839" lon="17.6832818">
        <ele>28.9769</ele>
        <time>2013-06-02T08:57:49Z</time>
      </trkpt>
      <trkpt lat="59.8789337" lon="17.6833528">
        <ele>28.4962</ele>
        <time>2013-06-02T08:57:50Z</time>
      </trkpt>
      <trkpt lat="59.8789851" lon="17.6834246">
        <ele>28.4962</ele>
        <time>2013-06-02T08:57:51Z</time>
      </trkpt>
      <trkpt lat="59.8790379" lon="17.6834963">
        <ele>28.0155</ele>
        <time>2013-06-02T08:57:52Z</time>
      </trkpt>
      <trkpt lat="59.8790933" lon="17.6835657">
        <ele>28.0155</ele>
        <time>2013-06-02T08:57:53Z</time>
      </trkpt>
      <trkpt lat="59.8791519" lon="17.6836315">
        <ele>27.5349</ele>
        <time>2013-06-02T08:57:54Z</time>
      </trkpt>
      <trkpt lat="59.8792129" lon="17.683696">
        <ele>27.5349</ele>
        <time>2013-06-02T08:57:55Z</time>
      </trkpt>
      <trkpt lat="59.8792759" lon="17.6837625">
        <ele>27.5349</ele>
        <time>2013-06-02T08:57:56Z</time>
      </trkpt>
      <trkpt lat="59.8793403" lon="17.6838324">
        <ele>27.0543</ele>
        <time>2013-06-02T08:57:57Z</time>
      </trkpt>
      <trkpt lat="59.8794061" lon="17.6839064">
        <ele>26.5736</ele>
        <time>2013-06-02T08:57:58Z</time>
      </trkpt>
      <trkpt lat="59.879472" lon="17.6839863">
        <ele>26.5736</ele>
        <time>2013-06-02T08:57:59Z</time>
      </trkpt>
      <trkpt lat="59.8795384" lon="17.6840712">
        <ele>26.0929</ele>
        <time>2013-06-02T08:58:00Z</time>
      </trkpt>
      <trkpt lat="59.8796056" lon="17.6841587">
        <ele>26.0929</ele>
        <time>2013-06-02T08:58:01Z</time>
      </trkpt>
      <trkpt lat="59.8796739" lon="17.6842478">
        <ele>25.6123</ele>
        <time>2013-06-02T08:58:02Z</time>
      </trkpt>
      <trkpt lat="59.8797433" lon="17.6843396">
        <ele>25.6123</ele>
        <time>2013-06-02T08:58:03Z</time>
      </trkpt>
      <trkpt lat="59.8798134" lon="17.6844343">
        <ele>25.1317</ele>
        <time>2013-06-02T08:58:04Z</time>
      </trkpt>
      <trkpt lat="59.8798843" lon="17.6845322">
        <ele>25.1317</ele>
        <time>2013-06-02T08:58:05Z</time>
      </trkpt>
      <trkpt lat="59.8799558" lon="17.6846323">
        <ele>24.651</ele>
        <time>2013-06-02T08:58:06Z</time>
      </trkpt>
      <trkpt lat="59.8800287" lon="17.6847331">
        <ele>24.651</ele>
        <time>2013-06-02T08:58:07Z</time>
      </trkpt>
      <trkpt lat="59.8801024" lon="17.6848337">
        <ele>24.1703</ele>
        <time>2013-06-02T08:58:08Z</time>
      </trkpt>
      <trkpt lat="59.8801764" lon="17.6849337">
        <ele>24.1703</ele>
        <time>2013-06-02T08:58:09Z</time>
      </trkpt>
      <trkpt lat="59.8802506" lon="17.6850342">
        <ele>24.1703</ele>
        <time>2013-06-02T08:58:10Z</time>
      </trkpt>
      <trkpt lat="59.880325" lon="17.6851353">
        <ele>24.1703</ele>
        <time>2013-06-02T08:58:11Z</time>
      </trkpt>
      <trkpt lat="59.8803987" lon="17.6852362">
        <ele>24.1703</ele>
        <time>2013-06-02T08:58:12Z</time>
      </trkpt>
      <trkpt lat="59.8804727" lon="17.685335">
        <ele>24.1703</ele>
        <time>2013-06-02T08:58:13Z</time>
      </trkpt>
      <trkpt lat="59.8805464" lon="17.685431">
        <ele>24.1703</ele>
        <time>2013-06-02T08:58:14Z</time>
      </trkpt>
      <trkpt lat="59.8806193" lon="17.6855244">
        <ele>24.1703</ele>
        <time>2013-06-02T08:58:15Z</time>
      </trkpt>
      <trkpt lat="59.8806898" lon="17.6856175">
        <ele>24.1703</ele>
        <time>2013-06-02T08:58:16Z</time>
      </trkpt>
      <trkpt lat="59.8807586" lon="17.6857098">
        <ele>24.1703</ele>
        <time>2013-06-02T08:58:17Z</time>
      </trkpt>
      <trkpt lat="59.8808264" lon="17.6857979">
        <ele>24.651</ele>
        <time>2013-06-02T08:58:18Z</time>
      </trkpt>
      <trkpt lat="59.8808928" lon="17.6858836">
        <ele>24.651</ele>
        <time>2013-06-02T08:58:19Z</time>
      </trkpt>
      <trkpt lat="59.8809575" lon="17.6859692">
        <ele>24.651</ele>
        <time>2013-06-02T08:58:20Z</time>
      </trkpt>
      <trkpt lat="59.8810208" lon="17.6860537">
        <ele>24.651</ele>
        <time>2013-06-02T08:58:21Z</time>
      </trkpt>
      <trkpt lat="59.8810825" lon="17.6861366">
        <ele>24.651</ele>
        <time>2013-06-02T08:58:22Z</time>
      </trkpt>
      <trkpt lat="59.8811425" lon="17.6862183">
        <ele>25.1317</ele>
        <time>2013-06-02T08:58:23Z</time>
      </trkpt>
      <trkpt lat="59.881201" lon="17.6862987">
        <ele>25.1317</ele>
        <time>2013-06-02T08:58:24Z</time>
      </trkpt>
      <trkpt lat="59.8812586" lon="17.6863768">
        <ele>25.1317</ele>
        <time>2013-06-02T08:58:25Z</time>
      </trkpt>
      <trkpt lat="59.8813155" lon="17.6864525">
        <ele>25.1317</ele>
        <time>2013-06-02T08:58:26Z</time>
      </trkpt>
      <trkpt lat="59.8813721" lon="17.6865283">
        <ele>25.1317</ele>
        <time>2013-06-02T08:58:27Z</time>
      </trkpt>
      <trkpt lat="59.8814279" lon="17.6866031">
        <ele>25.1317</ele>
        <time>2013-06-02T08:58:28Z</time>
      </trkpt>
      <trkpt lat="59.8814838" lon="17.6866774">
        <ele>25.1317</ele>
        <time>2013-06-02T08:58:29Z</time>
      </trkpt>
      <trkpt lat="59.8815401" lon="17.6867507">
        <ele>25.6123</ele>
        <time>2013-06-02T08:58:30Z</time>
      </trkpt>
      <trkpt lat="59.8815964" lon="17.6868261">
        <ele>25.6123</ele>
        <time>2013-06-02T08:58:31Z</time>
      </trkpt>
      <trkpt lat="59.8816537" lon="17.6869037">
        <ele>25.6123</ele>
        <time>2013-06-02T08:58:32Z</time>
      </trkpt>
      <trkpt lat="59.8817113" lon="17.6869826">
        <ele>25.1317</ele>
        <time>2013-06-02T08:58:33Z</time>
      </trkpt>
      <trkpt lat="59.8817696" lon="17.6870632">
        <ele>25.1317</ele>
        <time>2013-06-02T08:58:34Z</time>
      </trkpt>
      <trkpt lat="59.8818289" lon="17.6871442">
        <ele>25.1317</ele>
        <time>2013-06-02T08:58:35Z</time>
      </trkpt>
      <trkpt lat="59.8818903" lon="17.6872247">
        <ele>25.1317</ele>
        <time>2013-06-02T08:58:36Z</time>
      </trkpt>
      <trkpt lat="59.8819535" lon="17.6873062">
        <ele>25.1317</ele>
        <time>2013-06-02T08:58:37Z</time>
      </trkpt>
      <trkpt lat="59.882017" lon="17.6873918">
        <ele>25.1317</ele>
        <time>2013-06-02T08:58:38Z</time>
      </trkpt>
      <trkpt lat="59.882081" lon="17.6874808">
        <ele>24.651</ele>
        <time>2013-06-02T08:58:39Z</time>
      </trkpt>
      <trkpt lat="59.8821462" lon="17.6875709">
        <ele>24.651</ele>
        <time>2013-06-02T08:58:40Z</time>
      </trkpt>
      <trkpt lat="59.8822134" lon="17.6876598">
        <ele>24.651</ele>
        <time>2013-06-02T08:58:41Z</time>
      </trkpt>
      <trkpt lat="59.8822822" lon="17.6877492">
        <ele>24.1703</ele>
        <time>2013-06-02T08:58:42Z</time>
      </trkpt>
      <trkpt lat="59.882351" lon="17.6878423">
        <ele>24.1703</ele>
        <time>2013-06-02T08:58:43Z</time>
      </trkpt>
      <trkpt lat="59.8824202" lon="17.6879368">
        <ele>24.1703</ele>
        <time>2013-06-02T08:58:44Z</time>
      </trkpt>
      <trkpt lat="59.8824902" lon="17.688032">
        <ele>24.1703</ele>
        <time>2013-06-02T08:58:45Z</time>
      </trkpt>
      <trkpt lat="59.8825614" lon="17.6881274">
        <ele>23.6896</ele>
        <time>2013-06-02T08:58:46Z</time>
      </trkpt>
      <trkpt lat="59.8826339" lon="17.6882231">
        <ele>23.6896</ele>
        <time>2013-06-02T08:58:47Z</time>
      </trkpt>
      <trkpt lat="59.8827065" lon="17.688321">
        <ele>23.6896</ele>
        <time>2013-06-02T08:58:48Z</time>
      </trkpt>
      <trkpt lat="59.8827794" lon="17.6884215">
        <ele>23.209</ele>
        <time>2013-06-02T08:58:49Z</time>
      </trkpt>
      <trkpt lat="59.8828525" lon="17.6885228">
        <ele>23.209</ele>
        <time>2013-06-02T08:58:50Z</time>
      </trkpt>
      <trkpt lat="59.8829259" lon="17.6886241">
        <ele>23.209</ele>
        <time>2013-06-02T08:58:51Z</time>
      </trkpt>
      <trkpt lat="59.8829996" lon="17.6887245">
        <ele>22.7283</ele>
        <time>2013-06-02T08:58:52Z</time>
      </trkpt>
      <trkpt lat="59.8830736" lon="17.6888244">
        <ele>22.7283</ele>
        <time>2013-06-02T08:58:53Z</time>
      </trkpt>
      <trkpt lat="59.8831476" lon="17.6889236">
        <ele>22.7283</ele>
        <time>2013-06-02T08:58:54Z</time>
      </trkpt>
      <trkpt lat="59.8832214" lon="17.6890222">
        <ele>22.7283</ele>
        <time>2013-06-02T08:58:55Z</time>
      </trkpt>
      <trkpt lat="59.8832949" lon="17.6891176">
        <ele>22.7283</ele>
        <time>2013-06-02T08:58:56Z</time>
      </trkpt>
      <trkpt lat="59.8833669" lon="17.6892118">
        <ele>22.7283</ele>
        <time>2013-06-02T08:58:57Z</time>
      </trkpt>
      <trkpt lat="59.8834359" lon="17.6893038">
        <ele>22.7283</ele>
        <time>2013-06-02T08:58:58Z</time>
      </trkpt>
      <trkpt lat="59.8835046" lon="17.6893917">
        <ele>22.2476</ele>
        <time>2013-06-02T08:58:59Z</time>
      </trkpt>
      <trkpt lat="59.8835725" lon="17.6894762">
        <ele>22.2476</ele>
        <time>2013-06-02T08:59:00Z</time>
      </trkpt>
      <trkpt lat="59.8836392" lon="17.6895596">
        <ele>22.7283</ele>
        <time>2013-06-02T08:59:01Z</time>
      </trkpt>
      <trkpt lat="59.8837037" lon="17.6896453">
        <ele>22.7283</ele>
        <time>2013-06-02T08:59:02Z</time>
      </trkpt>
      <trkpt lat="59.8837678" lon="17.6897311">
        <ele>22.7283</ele>
        <time>2013-06-02T08:59:03Z</time>
      </trkpt>
      <trkpt lat="59.8838318" lon="17.6898164">
        <ele>22.2476</ele>
        <time>2013-06-02T08:59:04Z</time>
      </trkpt>
      <trkpt lat="59.8838952" lon="17.6899015">
        <ele>22.2476</ele>
        <time>2013-06-02T08:59:05Z</time>
      </trkpt>
      <trkpt lat="59.883958" lon="17.6899858">
        <ele>22.2476</ele>
        <time>2013-06-02T08:59:06Z</time>
      </trkpt>
      <trkpt lat="59.8840205" lon="17.6900691">
        <ele>22.2476</ele>
        <time>2013-06-02T08:59:07Z</time>
      </trkpt>
      <trkpt lat="59.8840827" lon="17.6901511">
        <ele>22.2476</ele>
        <time>2013-06-02T08:59:08Z</time>
      </trkpt>
      <trkpt lat="59.8841442" lon="17.690233">
        <ele>21.767</ele>
        <time>2013-06-02T08:59:09Z</time>
      </trkpt>
      <trkpt lat="59.8842044" lon="17.6903159">
        <ele>21.767</ele>
        <time>2013-06-02T08:59:10Z</time>
      </trkpt>
      <trkpt lat="59.8842645" lon="17.6903978">
        <ele>21.767</ele>
        <time>2013-06-02T08:59:11Z</time>
      </trkpt>
      <trkpt lat="59.8843253" lon="17.690478">
        <ele>21.767</ele>
        <time>2013-06-02T08:59:12Z</time>
      </trkpt>
      <trkpt lat="59.8843859" lon="17.6905576">
        <ele>21.767</ele>
        <time>2013-06-02T08:59:13Z</time>
      </trkpt>
      <trkpt lat="59.8844459" lon="17.6906382">
        <ele>21.767</ele>
        <time>2013-06-02T08:59:14Z</time>
      </trkpt>
      <trkpt lat="59.8845054" lon="17.6907197">
        <ele>21.767</ele>
        <time>2013-06-02T08:59:15Z</time>
      </trkpt>
      <trkpt lat="59.8845651" lon="17.6908007">
        <ele>21.767</ele>
        <time>2013-06-02T08:59:16Z</time>
      </trkpt>
      <trkpt lat="59.8846252" lon="17.6908816">
        <ele>21.767</ele>
        <time>2013-06-02T08:59:17Z</time>
      </trkpt>
      <trkpt lat="59.8846853" lon="17.6909627">
        <ele>21.767</ele>
        <time>2013-06-02T08:59:18Z</time>
      </trkpt>
      <trkpt lat="59.8847463" lon="17.6910438">
        <ele>21.767</ele>
        <time>2013-06-02T08:59:19Z</time>
      </trkpt>
      <trkpt lat="59.884808" lon="17.6911256">
        <ele>21.767</ele>
        <time>2013-06-02T08:59:20Z</time>
      </trkpt>
      <trkpt lat="59.8848705" lon="17.6912079">
        <ele>21.767</ele>
        <time>2013-06-02T08:59:21Z</time>
      </trkpt>
      <trkpt lat="59.8849334" lon="17.6912919">
        <ele>21.767</ele>
        <time>2013-06-02T08:59:22Z</time>
      </trkpt>
      <trkpt lat="59.8849969" lon="17.6913773">
        <ele>21.767</ele>
        <time>2013-06-02T08:59:23Z</time>
      </trkpt>
      <trkpt lat="59.8850607" lon="17.6914615">
        <ele>21.767</ele>
        <time>2013-06-02T08:59:24Z</time>
      </trkpt>
      <trkpt lat="59.8851243" lon="17.6915456">
        <ele>21.767</ele>
        <time>2013-06-02T08:59:25Z</time>
      </trkpt>
      <trkpt lat="59.8851877" lon="17.6916306">
        <ele>21.767</ele>
        <time>2013-06-02T08:59:26Z</time>
      </trkpt>
      <trkpt lat="59.8852513" lon="17.691716">
        <ele>21.767</ele>
        <time>2013-06-02T08:59:27Z</time>
      </trkpt>
      <trkpt lat="59.8853151" lon="17.6918016">
        <ele>21.767</ele>
        <time>2013-06-02T08:59:28Z</time>
      </trkpt>
      <trkpt lat="59.8853789" lon="17.6918878">
        <ele>21.767</ele>
        <time>2013-06-02T08:59:29Z</time>
      </trkpt>
      <trkpt lat="59.8854437" lon="17.6919734">
        <ele>21.767</ele>
        <time>2013-06-02T08:59:30Z</time>
      </trkpt>
      <trkpt lat="59.88551" lon="17.6920588">
        <ele>21.767</ele>
        <time>2013-06-02T08:59:31Z</time>
      </trkpt>
      <trkpt lat="59.8855766" lon="17.6921456">
        <ele>21.767</ele>
        <time>2013-06-02T08:59:32Z</time>
      </trkpt>
      <trkpt lat="59.8856425" lon="17.6922341">
        <ele>21.767</ele>
        <time>2013-06-02T08:59:33Z</time>
      </trkpt>
      <trkpt lat="59.8857082" lon="17.6923229">
        <ele>21.767</ele>
        <time>2013-06-02T08:59:34Z</time>
      </trkpt>
      <trkpt lat="59.8857746" lon="17.6924112">
        <ele>21.767</ele>
        <time>2013-06-02T08:59:35Z</time>
      </trkpt>
      <trkpt lat="59.8858409" lon="17.6924996">
        <ele>21.767</ele>
        <time>2013-06-02T08:59:36Z</time>
      </trkpt>
      <trkpt lat="59.885907" lon="17.6925882">
        <ele>21.767</ele>
        <time>2013-06-02T08:59:37Z</time>
      </trkpt>
      <trkpt lat="59.8859735" lon="17.692677">
        <ele>22.2476</ele>
        <time>2013-06-02T08:59:38Z</time>
      </trkpt>
      <trkpt lat="59.8860396" lon="17.6927666">
        <ele>22.2476</ele>
        <time>2013-06-02T08:59:39Z</time>
      </trkpt>
      <trkpt lat="59.8861059" lon="17.6928557">
        <ele>22.2476</ele>
        <time>2013-06-02T08:59:40Z</time>
      </trkpt>
      <trkpt lat="59.886172" lon="17.6929447">
        <ele>22.2476</ele>
        <time>2013-06-02T08:59:41Z</time>
      </trkpt>
      <trkpt lat="59.8862372" lon="17.6930339">
        <ele>22.2476</ele>
        <time>2013-06-02T08:59:42Z</time>
      </trkpt>
      <trkpt lat="59.886302" lon="17.6931223">
        <ele>22.2476</ele>
        <time>2013-06-02T08:59:43Z</time>
      </trkpt>
      <trkpt lat="59.8863668" lon="17.6932083">
        <ele>22.2476</ele>
        <time>2013-06-02T08:59:44Z</time>
      </trkpt>
      <trkpt lat="59.8864304" lon="17.6932919">
        <ele>22.2476</ele>
        <time>2013-06-02T08:59:45Z</time>
      </trkpt>
      <trkpt lat="59.8864925" lon="17.6933742">
        <ele>22.2476</ele>
        <time>2013-06-02T08:59:46Z</time>
      </trkpt>
      <trkpt lat="59.8865534" lon="17.6934534">
        <ele>22.2476</ele>
        <time>2013-06-02T08:59:47Z</time>
      </trkpt>
      <trkpt lat="59.8866132" lon="17.6935282">
        <ele>22.2476</ele>
        <time>2013-06-02T08:59:48Z</time>
      </trkpt>
      <trkpt lat="59.8866719" lon="17.6935988">
        <ele>22.7283</ele>
        <time>2013-06-02T08:59:49Z</time>
      </trkpt>
      <trkpt lat="59.8867291" lon="17.6936663">
        <ele>22.7283</ele>
        <time>2013-06-02T08:59:50Z</time>
      </trkpt>
      <trkpt lat="59.8867837" lon="17.6937327">
        <ele>22.7283</ele>
        <time>2013-06-02T08:59:51Z</time>
      </trkpt>
      <trkpt lat="59.8868334" lon="17.6938104">
        <ele>22.7283</ele>
        <time>2013-06-02T08:59:52Z</time>
      </trkpt>
      <trkpt lat="59.8868695" lon="17.6939139">
        <ele>22.7283</ele>
        <time>2013-06-02T08:59:53Z</time>
      </trkpt>
      <trkpt lat="59.8868867" lon="17.6940351">
        <ele>22.7283</ele>
        <time>2013-06-02T08:59:54Z</time>
      </trkpt>
      <trkpt lat="59.8868951" lon="17.6941596">
        <ele>22.2476</ele>
        <time>2013-06-02T08:59:55Z</time>
      </trkpt>
      <trkpt lat="59.8869041" lon="17.6942855">
        <ele>21.767</ele>
        <time>2013-06-02T08:59:56Z</time>
      </trkpt>
      <trkpt lat="59.8869189" lon="17.694407">
        <ele>21.767</ele>
        <time>2013-06-02T08:59:57Z</time>
      </trkpt>
      <trkpt lat="59.8869836" lon="17.6946179">
        <ele>21.767</ele>
        <time>2013-06-02T08:59:59Z</time>
      </trkpt>
      <trkpt lat="59.8870308" lon="17.6947008">
        <ele>21.2864</ele>
        <time>2013-06-02T09:00:00Z</time>
      </trkpt>
      <trkpt lat="59.8870857" lon="17.694764">
        <ele>21.2864</ele>
        <time>2013-06-02T09:00:01Z</time>
      </trkpt>
      <trkpt lat="59.8871456" lon="17.6948076">
        <ele>21.2864</ele>
        <time>2013-06-02T09:00:02Z</time>
      </trkpt>
      <trkpt lat="59.8872075" lon="17.6948385">
        <ele>21.2864</ele>
        <time>2013-06-02T09:00:03Z</time>
      </trkpt>
      <trkpt lat="59.8872705" lon="17.694864">
        <ele>21.2864</ele>
        <time>2013-06-02T09:00:04Z</time>
      </trkpt>
      <trkpt lat="59.8873338" lon="17.6948904">
        <ele>21.2864</ele>
        <time>2013-06-02T09:00:05Z</time>
      </trkpt>
      <trkpt lat="59.8873974" lon="17.6949214">
        <ele>20.8057</ele>
        <time>2013-06-02T09:00:06Z</time>
      </trkpt>
      <trkpt lat="59.8874612" lon="17.6949573">
        <ele>20.8057</ele>
        <time>2013-06-02T09:00:07Z</time>
      </trkpt>
      <trkpt lat="59.8875234" lon="17.6950023">
        <ele>20.8057</ele>
        <time>2013-06-02T09:00:08Z</time>
      </trkpt>
      <trkpt lat="59.8875854" lon="17.6950525">
        <ele>20.8057</ele>
        <time>2013-06-02T09:00:09Z</time>
      </trkpt>
      <trkpt lat="59.8876477" lon="17.6951091">
        <ele>20.8057</ele>
        <time>2013-06-02T09:00:10Z</time>
      </trkpt>
      <trkpt lat="59.8877082" lon="17.6951742">
        <ele>21.2864</ele>
        <time>2013-06-02T09:00:11Z</time>
      </trkpt>
      <trkpt lat="59.8877677" lon="17.6952427">
        <ele>21.2864</ele>
        <time>2013-06-02T09:00:12Z</time>
      </trkpt>
      <trkpt lat="59.8878259" lon="17.6953131">
        <ele>21.2864</ele>
        <time>2013-06-02T09:00:13Z</time>
      </trkpt>
      <trkpt lat="59.887883" lon="17.6953856">
        <ele>21.767</ele>
        <time>2013-06-02T09:00:14Z</time>
      </trkpt>
      <trkpt lat="59.8879394" lon="17.6954591">
        <ele>21.767</ele>
        <time>2013-06-02T09:00:15Z</time>
      </trkpt>
      <trkpt lat="59.8879951" lon="17.6955327">
        <ele>21.767</ele>
        <time>2013-06-02T09:00:16Z</time>
      </trkpt>
      <trkpt lat="59.8880498" lon="17.6956068">
        <ele>21.767</ele>
        <time>2013-06-02T09:00:17Z</time>
      </trkpt>
      <trkpt lat="59.8881046" lon="17.6956793">
        <ele>21.767</ele>
        <time>2013-06-02T09:00:18Z</time>
      </trkpt>
      <trkpt lat="59.8881596" lon="17.6957498">
        <ele>22.2476</ele>
        <time>2013-06-02T09:00:19Z</time>
      </trkpt>
      <trkpt lat="59.8882144" lon="17.6958206">
        <ele>22.2476</ele>
        <time>2013-06-02T09:00:20Z</time>
      </trkpt>
      <trkpt lat="59.8882681" lon="17.6958932">
        <ele>22.2476</ele>
        <time>2013-06-02T09:00:21Z</time>
      </trkpt>
      <trkpt lat="59.8883212" lon="17.6959658">
        <ele>22.2476</ele>
        <time>2013-06-02T09:00:22Z</time>
      </trkpt>
      <trkpt lat="59.8883745" lon="17.6960362">
        <ele>22.2476</ele>
        <time>2013-06-02T09:00:23Z</time>
      </trkpt>
      <trkpt lat="59.8884273" lon="17.6961063">
        <ele>22.2476</ele>
        <time>2013-06-02T09:00:24Z</time>
      </trkpt>
      <trkpt lat="59.88848" lon="17.6961766">
        <ele>22.2476</ele>
        <time>2013-06-02T09:00:25Z</time>
      </trkpt>
      <trkpt lat="59.8885325" lon="17.6962463">
        <ele>22.2476</ele>
        <time>2013-06-02T09:00:26Z</time>
      </trkpt>
      <trkpt lat="59.8885843" lon="17.6963148">
        <ele>22.2476</ele>
        <time>2013-06-02T09:00:27Z</time>
      </trkpt>
      <trkpt lat="59.8886355" lon="17.6963828">
        <ele>22.7283</ele>
        <time>2013-06-02T09:00:28Z</time>
      </trkpt>
      <trkpt lat="59.8886863" lon="17.6964501">
        <ele>22.7283</ele>
        <time>2013-06-02T09:00:29Z</time>
      </trkpt>
      <trkpt lat="59.8887365" lon="17.6965168">
        <ele>22.7283</ele>
        <time>2013-06-02T09:00:30Z</time>
      </trkpt>
      <trkpt lat="59.8887861" lon="17.6965828">
        <ele>22.7283</ele>
        <time>2013-06-02T09:00:31Z</time>
      </trkpt>
      <trkpt lat="59.888835" lon="17.6966483">
        <ele>22.7283</ele>
        <time>2013-06-02T09:00:32Z</time>
      </trkpt>
      <trkpt lat="59.8888838" lon="17.6967131">
        <ele>22.7283</ele>
        <time>2013-06-02T09:00:33Z</time>
      </trkpt>
      <trkpt lat="59.8889329" lon="17.6967778">
        <ele>22.7283</ele>
        <time>2013-06-02T09:00:34Z</time>
      </trkpt>
      <trkpt lat="59.888982" lon="17.6968412">
        <ele>23.209</ele>
        <time>2013-06-02T09:00:35Z</time>
      </trkpt>
      <trkpt lat="59.8890308" lon="17.696905">
        <ele>22.7283</ele>
        <time>2013-06-02T09:00:36Z</time>
      </trkpt>
      <trkpt lat="59.8890789" lon="17.6969707">
        <ele>22.7283</ele>
        <time>2013-06-02T09:00:37Z</time>
      </trkpt>
      <trkpt lat="59.8891266" lon="17.6970379">
        <ele>22.7283</ele>
        <time>2013-06-02T09:00:38Z</time>
      </trkpt>
      <trkpt lat="59.8891752" lon="17.6971042">
        <ele>23.209</ele>
        <time>2013-06-02T09:00:39Z</time>
      </trkpt>
      <trkpt lat="59.8892253" lon="17.697169">
        <ele>23.209</ele>
        <time>2013-06-02T09:00:40Z</time>
      </trkpt>
      <trkpt lat="59.8892759" lon="17.6972354">
        <ele>23.209</ele>
        <time>2013-06-02T09:00:41Z</time>
      </trkpt>
      <trkpt lat="59.889326" lon="17.6973038">
        <ele>23.209</ele>
        <time>2013-06-02T09:00:42Z</time>
      </trkpt>
      <trkpt lat="59.8893763" lon="17.6973721">
        <ele>23.209</ele>
        <time>2013-06-02T09:00:43Z</time>
      </trkpt>
      <trkpt lat="59.8894277" lon="17.6974393">
        <ele>23.6896</ele>
        <time>2013-06-02T09:00:44Z</time>
      </trkpt>
      <trkpt lat="59.8894803" lon="17.6975058">
        <ele>23.6896</ele>
        <time>2013-06-02T09:00:45Z</time>
      </trkpt>
      <trkpt lat="59.8895332" lon="17.6975738">
        <ele>23.6896</ele>
        <time>2013-06-02T09:00:46Z</time>
      </trkpt>
      <trkpt lat="59.8895856" lon="17.6976439">
        <ele>23.6896</ele>
        <time>2013-06-02T09:00:47Z</time>
      </trkpt>
      <trkpt lat="59.8896382" lon="17.6977149">
        <ele>24.1703</ele>
        <time>2013-06-02T09:00:48Z</time>
      </trkpt>
      <trkpt lat="59.8896911" lon="17.6977862">
        <ele>24.1703</ele>
        <time>2013-06-02T09:00:49Z</time>
      </trkpt>
      <trkpt lat="59.8897442" lon="17.6978566">
        <ele>24.1703</ele>
        <time>2013-06-02T09:00:50Z</time>
      </trkpt>
      <trkpt lat="59.8897978" lon="17.6979269">
        <ele>24.651</ele>
        <time>2013-06-02T09:00:51Z</time>
      </trkpt>
      <trkpt lat="59.8898518" lon="17.6979972">
        <ele>24.651</ele>
        <time>2013-06-02T09:00:52Z</time>
      </trkpt>
      <trkpt lat="59.8899062" lon="17.6980694">
        <ele>24.651</ele>
        <time>2013-06-02T09:00:53Z</time>
      </trkpt>
      <trkpt lat="59.8899602" lon="17.6981426">
        <ele>24.651</ele>
        <time>2013-06-02T09:00:54Z</time>
      </trkpt>
      <trkpt lat="59.8900134" lon="17.6982148">
        <ele>25.1317</ele>
        <time>2013-06-02T09:00:55Z</time>
      </trkpt>
      <trkpt lat="59.8900659" lon="17.698287">
        <ele>25.1317</ele>
        <time>2013-06-02T09:00:56Z</time>
      </trkpt>
      <trkpt lat="59.8901186" lon="17.698359">
        <ele>25.1317</ele>
        <time>2013-06-02T09:00:57Z</time>
      </trkpt>
      <trkpt lat="59.8901717" lon="17.6984284">
        <ele>25.1317</ele>
        <time>2013-06-02T09:00:58Z</time>
      </trkpt>
      <trkpt lat="59.8902248" lon="17.6984978">
        <ele>25.6123</ele>
        <time>2013-06-02T09:00:59Z</time>
      </trkpt>
      <trkpt lat="59.8902774" lon="17.6985678">
        <ele>25.6123</ele>
        <time>2013-06-02T09:01:00Z</time>
      </trkpt>
      <trkpt lat="59.8903299" lon="17.6986367">
        <ele>25.6123</ele>
        <time>2013-06-02T09:01:01Z</time>
      </trkpt>
      <trkpt lat="59.8903834" lon="17.698704">
        <ele>25.6123</ele>
        <time>2013-06-02T09:01:02Z</time>
      </trkpt>
      <trkpt lat="59.890437" lon="17.6987737">
        <ele>25.6123</ele>
        <time>2013-06-02T09:01:03Z</time>
      </trkpt>
      <trkpt lat="59.8904898" lon="17.6988458">
        <ele>26.0929</ele>
        <time>2013-06-02T09:01:04Z</time>
      </trkpt>
      <trkpt lat="59.8905414" lon="17.698921">
        <ele>26.0929</ele>
        <time>2013-06-02T09:01:05Z</time>
      </trkpt>
      <trkpt lat="59.8905911" lon="17.6990028">
        <ele>26.0929</ele>
        <time>2013-06-02T09:01:06Z</time>
      </trkpt>
      <trkpt lat="59.8906398" lon="17.6990887">
        <ele>26.0929</ele>
        <time>2013-06-02T09:01:07Z</time>
      </trkpt>
      <trkpt lat="59.8906883" lon="17.6991765">
        <ele>26.0929</ele>
        <time>2013-06-02T09:01:08Z</time>
      </trkpt>
      <trkpt lat="59.8907362" lon="17.6992633">
        <ele>26.5736</ele>
        <time>2013-06-02T09:01:09Z</time>
      </trkpt>
      <trkpt lat="59.8907853" lon="17.6993461">
        <ele>26.5736</ele>
        <time>2013-06-02T09:01:10Z</time>
      </trkpt>
      <trkpt lat="59.8908375" lon="17.6994178">
        <ele>26.5736</ele>
        <time>2013-06-02T09:01:11Z</time>
      </trkpt>
      <trkpt lat="59.8908928" lon="17.6994758">
        <ele>26.5736</ele>
        <time>2013-06-02T09:01:12Z</time>
      </trkpt>
      <trkpt lat="59.8909512" lon="17.6995209">
        <ele>26.5736</ele>
        <time>2013-06-02T09:01:13Z</time>
      </trkpt>
      <trkpt lat="59.891011" lon="17.6995639">
        <ele>26.5736</ele>
        <time>2013-06-02T09:01:14Z</time>
      </trkpt>
      <trkpt lat="59.8910677" lon="17.6996192">
        <ele>26.5736</ele>
        <time>2013-06-02T09:01:15Z</time>
      </trkpt>
      <trkpt lat="59.8911224" lon="17.6996839">
        <ele>26.5736</ele>
        <time>2013-06-02T09:01:16Z</time>
      </trkpt>
      <trkpt lat="59.8911769" lon="17.699752">
        <ele>26.5736</ele>
        <time>2013-06-02T09:01:17Z</time>
      </trkpt>
      <trkpt lat="59.8912302" lon="17.6998227">
        <ele>26.5736</ele>
        <time>2013-06-02T09:01:18Z</time>
      </trkpt>
      <trkpt lat="59.8912842" lon="17.6998926">
        <ele>26.5736</ele>
        <time>2013-06-02T09:01:19Z</time>
      </trkpt>
      <trkpt lat="59.8913376" lon="17.6999639">
        <ele>26.5736</ele>
        <time>2013-06-02T09:01:20Z</time>
      </trkpt>
      <trkpt lat="59.8913901" lon="17.7000375">
        <ele>26.5736</ele>
        <time>2013-06-02T09:01:21Z</time>
      </trkpt>
      <trkpt lat="59.8914419" lon="17.7001119">
        <ele>26.5736</ele>
        <time>2013-06-02T09:01:22Z</time>
      </trkpt>
      <trkpt lat="59.8914942" lon="17.700185">
        <ele>26.5736</ele>
        <time>2013-06-02T09:01:23Z</time>
      </trkpt>
      <trkpt lat="59.8915472" lon="17.7002561">
        <ele>26.5736</ele>
        <time>2013-06-02T09:01:24Z</time>
      </trkpt>
      <trkpt lat="59.8916001" lon="17.7003281">
        <ele>26.5736</ele>
        <time>2013-06-02T09:01:25Z</time>
      </trkpt>
      <trkpt lat="59.8916533" lon="17.7004001">
        <ele>26.5736</ele>
        <time>2013-06-02T09:01:26Z</time>
      </trkpt>
      <trkpt lat="59.8917051" lon="17.7004713">
        <ele>26.5736</ele>
        <time>2013-06-02T09:01:27Z</time>
      </trkpt>
      <trkpt lat="59.8917581" lon="17.7005423">
        <ele>26.5736</ele>
        <time>2013-06-02T09:01:28Z</time>
      </trkpt>
      <trkpt lat="59.8918135" lon="17.7006165">
        <ele>26.5736</ele>
        <time>2013-06-02T09:01:29Z</time>
      </trkpt>
      <trkpt lat="59.8918695" lon="17.7006929">
        <ele>26.5736</ele>
        <time>2013-06-02T09:01:30Z</time>
      </trkpt>
      <trkpt lat="59.8919276" lon="17.7007698">
        <ele>26.5736</ele>
        <time>2013-06-02T09:01:31Z</time>
      </trkpt>
      <trkpt lat="59.8919853" lon="17.7008464">
        <ele>26.5736</ele>
        <time>2013-06-02T09:01:32Z</time>
      </trkpt>
      <trkpt lat="59.8920413" lon="17.7009193">
        <ele>27.0543</ele>
        <time>2013-06-02T09:01:33Z</time>
      </trkpt>
      <trkpt lat="59.8920964" lon="17.7009925">
        <ele>27.0543</ele>
        <time>2013-06-02T09:01:34Z</time>
      </trkpt>
      <trkpt lat="59.8921508" lon="17.7010661">
        <ele>27.0543</ele>
        <time>2013-06-02T09:01:35Z</time>
      </trkpt>
      <trkpt lat="59.8922052" lon="17.7011376">
        <ele>27.0543</ele>
        <time>2013-06-02T09:01:36Z</time>
      </trkpt>
      <trkpt lat="59.8922589" lon="17.7012084">
        <ele>27.5349</ele>
        <time>2013-06-02T09:01:37Z</time>
      </trkpt>
      <trkpt lat="59.8923113" lon="17.7012811">
        <ele>27.5349</ele>
        <time>2013-06-02T09:01:38Z</time>
      </trkpt>
      <trkpt lat="59.8923637" lon="17.7013526">
        <ele>27.5349</ele>
        <time>2013-06-02T09:01:39Z</time>
      </trkpt>
      <trkpt lat="59.8924159" lon="17.7014211">
        <ele>27.5349</ele>
        <time>2013-06-02T09:01:40Z</time>
      </trkpt>
      <trkpt lat="59.8924671" lon="17.7014902">
        <ele>27.5349</ele>
        <time>2013-06-02T09:01:41Z</time>
      </trkpt>
      <trkpt lat="59.8925159" lon="17.7015645">
        <ele>27.5349</ele>
        <time>2013-06-02T09:01:42Z</time>
      </trkpt>
      <trkpt lat="59.8925616" lon="17.7016464">
        <ele>27.5349</ele>
        <time>2013-06-02T09:01:43Z</time>
      </trkpt>
      <trkpt lat="59.8926061" lon="17.7017296">
        <ele>27.5349</ele>
        <time>2013-06-02T09:01:44Z</time>
      </trkpt>
      <trkpt lat="59.8926535" lon="17.701807">
        <ele>27.5349</ele>
        <time>2013-06-02T09:01:45Z</time>
      </trkpt>
      <trkpt lat="59.8927043" lon="17.7018762">
        <ele>28.0155</ele>
        <time>2013-06-02T09:01:46Z</time>
      </trkpt>
      <trkpt lat="59.8927577" lon="17.7019384">
        <ele>28.0155</ele>
        <time>2013-06-02T09:01:47Z</time>
      </trkpt>
      <trkpt lat="59.8928138" lon="17.701995">
        <ele>27.5349</ele>
        <time>2013-06-02T09:01:48Z</time>
      </trkpt>
      <trkpt lat="59.8928723" lon="17.7020512">
        <ele>27.5349</ele>
        <time>2013-06-02T09:01:49Z</time>
      </trkpt>
      <trkpt lat="59.8929303" lon="17.7021151">
        <ele>27.5349</ele>
        <time>2013-06-02T09:01:50Z</time>
      </trkpt>
      <trkpt lat="59.8929859" lon="17.7021872">
        <ele>28.0155</ele>
        <time>2013-06-02T09:01:51Z</time>
      </trkpt>
      <trkpt lat="59.8930415" lon="17.7022618">
        <ele>28.0155</ele>
        <time>2013-06-02T09:01:52Z</time>
      </trkpt>
      <trkpt lat="59.8930985" lon="17.7023363">
        <ele>28.0155</ele>
        <time>2013-06-02T09:01:53Z</time>
      </trkpt>
      <trkpt lat="59.8931571" lon="17.7024113">
        <ele>28.0155</ele>
        <time>2013-06-02T09:01:54Z</time>
      </trkpt>
      <trkpt lat="59.8932158" lon="17.7024871">
        <ele>28.0155</ele>
        <time>2013-06-02T09:01:55Z</time>
      </trkpt>
      <trkpt lat="59.8932753" lon="17.7025635">
        <ele>28.0155</ele>
        <time>2013-06-02T09:01:56Z</time>
      </trkpt>
      <trkpt lat="59.8933353" lon="17.7026425">
        <ele>27.5349</ele>
        <time>2013-06-02T09:01:57Z</time>
      </trkpt>
      <trkpt lat="59.8933959" lon="17.7027227">
        <ele>27.5349</ele>
        <time>2013-06-02T09:01:58Z</time>
      </trkpt>
      <trkpt lat="59.8934568" lon="17.7028035">
        <ele>27.0543</ele>
        <time>2013-06-02T09:01:59Z</time>
      </trkpt>
      <trkpt lat="59.8935189" lon="17.7028817">
        <ele>27.0543</ele>
        <time>2013-06-02T09:02:00Z</time>
      </trkpt>
      <trkpt lat="59.8935816" lon="17.7029598">
        <ele>27.0543</ele>
        <time>2013-06-02T09:02:01Z</time>
      </trkpt>
      <trkpt lat="59.8936441" lon="17.7030398">
        <ele>27.0543</ele>
        <time>2013-06-02T09:02:02Z</time>
      </trkpt>
      <trkpt lat="59.8937058" lon="17.7031212">
        <ele>27.0543</ele>
        <time>2013-06-02T09:02:03Z</time>
      </trkpt>
      <trkpt lat="59.8937669" lon="17.7032046">
        <ele>26.5736</ele>
        <time>2013-06-02T09:02:04Z</time>
      </trkpt>
      <trkpt lat="59.8938281" lon="17.7032897">
        <ele>26.5736</ele>
        <time>2013-06-02T09:02:05Z</time>
      </trkpt>
      <trkpt lat="59.8938893" lon="17.7033749">
        <ele>26.5736</ele>
        <time>2013-06-02T09:02:06Z</time>
      </trkpt>
      <trkpt lat="59.8939523" lon="17.7034556">
        <ele>26.5736</ele>
        <time>2013-06-02T09:02:07Z</time>
      </trkpt>
      <trkpt lat="59.894016" lon="17.703535">
        <ele>26.5736</ele>
        <time>2013-06-02T09:02:08Z</time>
      </trkpt>
      <trkpt lat="59.8940788" lon="17.7036189">
        <ele>26.5736</ele>
        <time>2013-06-02T09:02:09Z</time>
      </trkpt>
      <trkpt lat="59.8941407" lon="17.7037075">
        <ele>26.0929</ele>
        <time>2013-06-02T09:02:10Z</time>
      </trkpt>
      <trkpt lat="59.8942026" lon="17.7037969">
        <ele>26.0929</ele>
        <time>2013-06-02T09:02:11Z</time>
      </trkpt>
      <trkpt lat="59.8942648" lon="17.7038857">
        <ele>26.0929</ele>
        <time>2013-06-02T09:02:12Z</time>
      </trkpt>
      <trkpt lat="59.8943277" lon="17.7039742">
        <ele>25.6123</ele>
        <time>2013-06-02T09:02:13Z</time>
      </trkpt>
      <trkpt lat="59.8943911" lon="17.7040618">
        <ele>25.6123</ele>
        <time>2013-06-02T09:02:14Z</time>
      </trkpt>
      <trkpt lat="59.8944554" lon="17.7041474">
        <ele>25.6123</ele>
        <time>2013-06-02T09:02:15Z</time>
      </trkpt>
      <trkpt lat="59.8945202" lon="17.7042332">
        <ele>25.6123</ele>
        <time>2013-06-02T09:02:16Z</time>
      </trkpt>
      <trkpt lat="59.8945849" lon="17.7043212">
        <ele>25.6123</ele>
        <time>2013-06-02T09:02:17Z</time>
      </trkpt>
      <trkpt lat="59.8946505" lon="17.704409">
        <ele>25.6123</ele>
        <time>2013-06-02T09:02:18Z</time>
      </trkpt>
      <trkpt lat="59.8947164" lon="17.7044974">
        <ele>25.6123</ele>
        <time>2013-06-02T09:02:19Z</time>
      </trkpt>
      <trkpt lat="59.8947822" lon="17.7045875">
        <ele>25.6123</ele>
        <time>2013-06-02T09:02:20Z</time>
      </trkpt>
      <trkpt lat="59.8948475" lon="17.7046793">
        <ele>25.6123</ele>
        <time>2013-06-02T09:02:21Z</time>
      </trkpt>
      <trkpt lat="59.8949121" lon="17.7047738">
        <ele>25.1317</ele>
        <time>2013-06-02T09:02:22Z</time>
      </trkpt>
      <trkpt lat="59.8949773" lon="17.7048652">
        <ele>25.1317</ele>
        <time>2013-06-02T09:02:23Z</time>
      </trkpt>
      <trkpt lat="59.8950434" lon="17.7049547">
        <ele>25.1317</ele>
        <time>2013-06-02T09:02:24Z</time>
      </trkpt>
      <trkpt lat="59.8951077" lon="17.7050504">
        <ele>25.1317</ele>
        <time>2013-06-02T09:02:25Z</time>
      </trkpt>
      <trkpt lat="59.8951697" lon="17.7051501">
        <ele>25.1317</ele>
        <time>2013-06-02T09:02:26Z</time>
      </trkpt>
      <trkpt lat="59.895234" lon="17.7052465">
        <ele>25.1317</ele>
        <time>2013-06-02T09:02:27Z</time>
      </trkpt>
      <trkpt lat="59.8953008" lon="17.7053345">
        <ele>25.6123</ele>
        <time>2013-06-02T09:02:28Z</time>
      </trkpt>
      <trkpt lat="59.8953705" lon="17.7054125">
        <ele>25.6123</ele>
        <time>2013-06-02T09:02:29Z</time>
      </trkpt>
      <trkpt lat="59.8954411" lon="17.7054848">
        <ele>25.6123</ele>
        <time>2013-06-02T09:02:30Z</time>
      </trkpt>
      <trkpt lat="59.8955105" lon="17.7055623">
        <ele>25.6123</ele>
        <time>2013-06-02T09:02:31Z</time>
      </trkpt>
      <trkpt lat="59.8955774" lon="17.7056462">
        <ele>25.1317</ele>
        <time>2013-06-02T09:02:32Z</time>
      </trkpt>
      <trkpt lat="59.8956432" lon="17.7057318">
        <ele>25.1317</ele>
        <time>2013-06-02T09:02:33Z</time>
      </trkpt>
      <trkpt lat="59.8957086" lon="17.7058192">
        <ele>25.1317</ele>
        <time>2013-06-02T09:02:34Z</time>
      </trkpt>
      <trkpt lat="59.8957738" lon="17.7059084">
        <ele>25.6123</ele>
        <time>2013-06-02T09:02:35Z</time>
      </trkpt>
      <trkpt lat="59.8958398" lon="17.7059969">
        <ele>25.6123</ele>
        <time>2013-06-02T09:02:36Z</time>
      </trkpt>
      <trkpt lat="59.8959057" lon="17.7060847">
        <ele>25.6123</ele>
        <time>2013-06-02T09:02:37Z</time>
      </trkpt>
      <trkpt lat="59.8959717" lon="17.7061709">
        <ele>25.6123</ele>
        <time>2013-06-02T09:02:38Z</time>
      </trkpt>
      <trkpt lat="59.896037" lon="17.7062554">
        <ele>25.6123</ele>
        <time>2013-06-02T09:02:39Z</time>
      </trkpt>
      <trkpt lat="59.8961006" lon="17.706341">
        <ele>25.6123</ele>
        <time>2013-06-02T09:02:40Z</time>
      </trkpt>
      <trkpt lat="59.8961623" lon="17.706428">
        <ele>25.6123</ele>
        <time>2013-06-02T09:02:41Z</time>
      </trkpt>
      <trkpt lat="59.8962244" lon="17.7065131">
        <ele>26.0929</ele>
        <time>2013-06-02T09:02:42Z</time>
      </trkpt>
      <trkpt lat="59.8962875" lon="17.7065954">
        <ele>26.0929</ele>
        <time>2013-06-02T09:02:43Z</time>
      </trkpt>
      <trkpt lat="59.8963499" lon="17.7066772">
        <ele>26.0929</ele>
        <time>2013-06-02T09:02:44Z</time>
      </trkpt>
      <trkpt lat="59.8964114" lon="17.706761">
        <ele>26.0929</ele>
        <time>2013-06-02T09:02:45Z</time>
      </trkpt>
      <trkpt lat="59.8964718" lon="17.706845">
        <ele>26.0929</ele>
        <time>2013-06-02T09:02:46Z</time>
      </trkpt>
      <trkpt lat="59.896532" lon="17.7069277">
        <ele>26.0929</ele>
        <time>2013-06-02T09:02:47Z</time>
      </trkpt>
      <trkpt lat="59.8965917" lon="17.7070081">
        <ele>26.5736</ele>
        <time>2013-06-02T09:02:48Z</time>
      </trkpt>
      <trkpt lat="59.8966511" lon="17.7070874">
        <ele>26.5736</ele>
        <time>2013-06-02T09:02:49Z</time>
      </trkpt>
      <trkpt lat="59.8967093" lon="17.7071665">
        <ele>26.5736</ele>
        <time>2013-06-02T09:02:50Z</time>
      </trkpt>
      <trkpt lat="59.8967673" lon="17.7072456">
        <ele>26.5736</ele>
        <time>2013-06-02T09:02:51Z</time>
      </trkpt>
      <trkpt lat="59.8968253" lon="17.7073241">
        <ele>26.5736</ele>
        <time>2013-06-02T09:02:52Z</time>
      </trkpt>
      <trkpt lat="59.8968833" lon="17.7073998">
        <ele>26.5736</ele>
        <time>2013-06-02T09:02:53Z</time>
      </trkpt>
      <trkpt lat="59.8969413" lon="17.7074738">
        <ele>26.5736</ele>
        <time>2013-06-02T09:02:54Z</time>
      </trkpt>
      <trkpt lat="59.8969993" lon="17.7075485">
        <ele>26.5736</ele>
        <time>2013-06-02T09:02:55Z</time>
      </trkpt>
      <trkpt lat="59.8970568" lon="17.7076246">
        <ele>26.5736</ele>
        <time>2013-06-02T09:02:56Z</time>
      </trkpt>
      <trkpt lat="59.8971131" lon="17.7077012">
        <ele>26.5736</ele>
        <time>2013-06-02T09:02:57Z</time>
      </trkpt>
      <trkpt lat="59.8971703" lon="17.7077767">
        <ele>26.5736</ele>
        <time>2013-06-02T09:02:58Z</time>
      </trkpt>
      <trkpt lat="59.8972273" lon="17.7078527">
        <ele>26.5736</ele>
        <time>2013-06-02T09:02:59Z</time>
      </trkpt>
      <trkpt lat="59.8972842" lon="17.7079293">
        <ele>26.5736</ele>
        <time>2013-06-02T09:03:00Z</time>
      </trkpt>
      <trkpt lat="59.8973411" lon="17.7080059">
        <ele>26.5736</ele>
        <time>2013-06-02T09:03:01Z</time>
      </trkpt>
      <trkpt lat="59.8973967" lon="17.7080872">
        <ele>26.0929</ele>
        <time>2013-06-02T09:03:02Z</time>
      </trkpt>
      <trkpt lat="59.897449" lon="17.7081775">
        <ele>26.0929</ele>
        <time>2013-06-02T09:03:03Z</time>
      </trkpt>
      <trkpt lat="59.8975009" lon="17.7082701">
        <ele>25.6123</ele>
        <time>2013-06-02T09:03:04Z</time>
      </trkpt>
      <trkpt lat="59.8975552" lon="17.708358">
        <ele>25.6123</ele>
        <time>2013-06-02T09:03:05Z</time>
      </trkpt>
      <trkpt lat="59.897613" lon="17.7084386">
        <ele>25.6123</ele>
        <time>2013-06-02T09:03:06Z</time>
      </trkpt>
      <trkpt lat="59.8976743" lon="17.7085108">
        <ele>25.6123</ele>
        <time>2013-06-02T09:03:07Z</time>
      </trkpt>
      <trkpt lat="59.8977389" lon="17.7085747">
        <ele>25.1317</ele>
        <time>2013-06-02T09:03:08Z</time>
      </trkpt>
      <trkpt lat="59.8978029" lon="17.7086406">
        <ele>25.1317</ele>
        <time>2013-06-02T09:03:09Z</time>
      </trkpt>
      <trkpt lat="59.8978647" lon="17.708715">
        <ele>25.1317</ele>
        <time>2013-06-02T09:03:10Z</time>
      </trkpt>
      <trkpt lat="59.8979248" lon="17.7087932">
        <ele>25.1317</ele>
        <time>2013-06-02T09:03:11Z</time>
      </trkpt>
      <trkpt lat="59.8979834" lon="17.7088735">
        <ele>25.1317</ele>
        <time>2013-06-02T09:03:12Z</time>
      </trkpt>
      <trkpt lat="59.8980416" lon="17.7089523">
        <ele>25.1317</ele>
        <time>2013-06-02T09:03:13Z</time>
      </trkpt>
      <trkpt lat="59.8980996" lon="17.7090294">
        <ele>25.1317</ele>
        <time>2013-06-02T09:03:14Z</time>
      </trkpt>
      <trkpt lat="59.898157" lon="17.709106">
        <ele>25.1317</ele>
        <time>2013-06-02T09:03:15Z</time>
      </trkpt>
      <trkpt lat="59.8982135" lon="17.7091816">
        <ele>25.1317</ele>
        <time>2013-06-02T09:03:16Z</time>
      </trkpt>
      <trkpt lat="59.8982698" lon="17.7092569">
        <ele>25.1317</ele>
        <time>2013-06-02T09:03:17Z</time>
      </trkpt>
      <trkpt lat="59.8983254" lon="17.709331">
        <ele>25.1317</ele>
        <time>2013-06-02T09:03:18Z</time>
      </trkpt>
      <trkpt lat="59.8983815" lon="17.7094038">
        <ele>25.1317</ele>
        <time>2013-06-02T09:03:19Z</time>
      </trkpt>
      <trkpt lat="59.8984373" lon="17.7094781">
        <ele>25.1317</ele>
        <time>2013-06-02T09:03:20Z</time>
      </trkpt>
      <trkpt lat="59.8984933" lon="17.7095525">
        <ele>25.1317</ele>
        <time>2013-06-02T09:03:21Z</time>
      </trkpt>
      <trkpt lat="59.8985501" lon="17.7096253">
        <ele>25.1317</ele>
        <time>2013-06-02T09:03:22Z</time>
      </trkpt>
      <trkpt lat="59.8986082" lon="17.7096981">
        <ele>25.1317</ele>
        <time>2013-06-02T09:03:23Z</time>
      </trkpt>
      <trkpt lat="59.8986662" lon="17.7097704">
        <ele>25.6123</ele>
        <time>2013-06-02T09:03:24Z</time>
      </trkpt>
      <trkpt lat="59.8987248" lon="17.7098423">
        <ele>25.6123</ele>
        <time>2013-06-02T09:03:25Z</time>
      </trkpt>
      <trkpt lat="59.8987834" lon="17.7099159">
        <ele>25.6123</ele>
        <time>2013-06-02T09:03:26Z</time>
      </trkpt>
      <trkpt lat="59.8988423" lon="17.7099914">
        <ele>25.6123</ele>
        <time>2013-06-02T09:03:27Z</time>
      </trkpt>
      <trkpt lat="59.8989015" lon="17.7100676">
        <ele>26.0929</ele>
        <time>2013-06-02T09:03:28Z</time>
      </trkpt>
      <trkpt lat="59.8989606" lon="17.7101444">
        <ele>26.0929</ele>
        <time>2013-06-02T09:03:29Z</time>
      </trkpt>
      <trkpt lat="59.8990196" lon="17.7102204">
        <ele>26.0929</ele>
        <time>2013-06-02T09:03:30Z</time>
      </trkpt>
      <trkpt lat="59.8990784" lon="17.7102956">
        <ele>26.5736</ele>
        <time>2013-06-02T09:03:31Z</time>
      </trkpt>
      <trkpt lat="59.8991361" lon="17.7103697">
        <ele>26.5736</ele>
        <time>2013-06-02T09:03:32Z</time>
      </trkpt>
      <trkpt lat="59.8991936" lon="17.710444">
        <ele>26.5736</ele>
        <time>2013-06-02T09:03:33Z</time>
      </trkpt>
      <trkpt lat="59.8992507" lon="17.7105182">
        <ele>26.5736</ele>
        <time>2013-06-02T09:03:34Z</time>
      </trkpt>
      <trkpt lat="59.8993065" lon="17.7105907">
        <ele>26.5736</ele>
        <time>2013-06-02T09:03:35Z</time>
      </trkpt>
      <trkpt lat="59.8993615" lon="17.7106597">
        <ele>26.5736</ele>
        <time>2013-06-02T09:03:36Z</time>
      </trkpt>
      <trkpt lat="59.8994169" lon="17.7107275">
        <ele>26.5736</ele>
        <time>2013-06-02T09:03:37Z</time>
      </trkpt>
      <trkpt lat="59.8994722" lon="17.7107963">
        <ele>27.0543</ele>
        <time>2013-06-02T09:03:38Z</time>
      </trkpt>
      <trkpt lat="59.8995281" lon="17.7108636">
        <ele>27.0543</ele>
        <time>2013-06-02T09:03:39Z</time>
      </trkpt>
      <trkpt lat="59.8995846" lon="17.7109286">
        <ele>27.0543</ele>
        <time>2013-06-02T09:03:40Z</time>
      </trkpt>
      <trkpt lat="59.8996413" lon="17.7109933">
        <ele>27.0543</ele>
        <time>2013-06-02T09:03:41Z</time>
      </trkpt>
      <trkpt lat="59.8996977" lon="17.7110594">
        <ele>27.0543</ele>
        <time>2013-06-02T09:03:42Z</time>
      </trkpt>
      <trkpt lat="59.8997542" lon="17.7111253">
        <ele>27.0543</ele>
        <time>2013-06-02T09:03:43Z</time>
      </trkpt>
      <trkpt lat="59.8998109" lon="17.7111906">
        <ele>27.0543</ele>
        <time>2013-06-02T09:03:44Z</time>
      </trkpt>
      <trkpt lat="59.8998668" lon="17.7112573">
        <ele>27.0543</ele>
        <time>2013-06-02T09:03:45Z</time>
      </trkpt>
      <trkpt lat="59.8999229" lon="17.7113242">
        <ele>27.0543</ele>
        <time>2013-06-02T09:03:46Z</time>
      </trkpt>
      <trkpt lat="59.8999794" lon="17.7113902">
        <ele>27.0543</ele>
        <time>2013-06-02T09:03:47Z</time>
      </trkpt>
      <trkpt lat="59.9000363" lon="17.711456">
        <ele>27.0543</ele>
        <time>2013-06-02T09:03:48Z</time>
      </trkpt>
      <trkpt lat="59.9000932" lon="17.7115215">
        <ele>27.0543</ele>
        <time>2013-06-02T09:03:49Z</time>
      </trkpt>
      <trkpt lat="59.9001504" lon="17.7115854">
        <ele>27.0543</ele>
        <time>2013-06-02T09:03:50Z</time>
      </trkpt>
      <trkpt lat="59.9002077" lon="17.7116486">
        <ele>27.0543</ele>
        <time>2013-06-02T09:03:51Z</time>
      </trkpt>
      <trkpt lat="59.9002647" lon="17.7117117">
        <ele>27.0543</ele>
        <time>2013-06-02T09:03:52Z</time>
      </trkpt>
      <trkpt lat="59.9003211" lon="17.7117755">
        <ele>27.0543</ele>
        <time>2013-06-02T09:03:53Z</time>
      </trkpt>
      <trkpt lat="59.9003783" lon="17.7118381">
        <ele>27.0543</ele>
        <time>2013-06-02T09:03:54Z</time>
      </trkpt>
      <trkpt lat="59.9004343" lon="17.7119008">
        <ele>27.0543</ele>
        <time>2013-06-02T09:03:55Z</time>
      </trkpt>
      <trkpt lat="59.9004898" lon="17.7119635">
        <ele>27.0543</ele>
        <time>2013-06-02T09:03:56Z</time>
      </trkpt>
      <trkpt lat="59.900545" lon="17.7120288">
        <ele>27.0543</ele>
        <time>2013-06-02T09:03:57Z</time>
      </trkpt>
      <trkpt lat="59.9006006" lon="17.7120938">
        <ele>26.5736</ele>
        <time>2013-06-02T09:03:58Z</time>
      </trkpt>
      <trkpt lat="59.9006576" lon="17.712157">
        <ele>26.5736</ele>
        <time>2013-06-02T09:03:59Z</time>
      </trkpt>
      <trkpt lat="59.9007159" lon="17.7122199">
        <ele>26.5736</ele>
        <time>2013-06-02T09:04:00Z</time>
      </trkpt>
      <trkpt lat="59.900775" lon="17.7122832">
        <ele>26.5736</ele>
        <time>2013-06-02T09:04:01Z</time>
      </trkpt>
      <trkpt lat="59.9008336" lon="17.7123461">
        <ele>26.5736</ele>
        <time>2013-06-02T09:04:02Z</time>
      </trkpt>
      <trkpt lat="59.900891" lon="17.7124077">
        <ele>26.0929</ele>
        <time>2013-06-02T09:04:03Z</time>
      </trkpt>
      <trkpt lat="59.9009466" lon="17.7124685">
        <ele>26.0929</ele>
        <time>2013-06-02T09:04:04Z</time>
      </trkpt>
      <trkpt lat="59.9010008" lon="17.7125258">
        <ele>26.0929</ele>
        <time>2013-06-02T09:04:05Z</time>
      </trkpt>
      <trkpt lat="59.9010486" lon="17.7125825">
        <ele>26.0929</ele>
        <time>2013-06-02T09:04:06Z</time>
      </trkpt>
      <trkpt lat="59.9010817" lon="17.7126577">
        <ele>26.0929</ele>
        <time>2013-06-02T09:04:07Z</time>
      </trkpt>
      <trkpt lat="59.901091" lon="17.7127534">
        <ele>25.6123</ele>
        <time>2013-06-02T09:04:08Z</time>
      </trkpt>
      <trkpt lat="59.9010756" lon="17.7128502">
        <ele>25.6123</ele>
        <time>2013-06-02T09:04:09Z</time>
      </trkpt>
      <trkpt lat="59.9010461" lon="17.712943">
        <ele>25.6123</ele>
        <time>2013-06-02T09:04:10Z</time>
      </trkpt>
      <trkpt lat="59.9010101" lon="17.7130362">
        <ele>25.6123</ele>
        <time>2013-06-02T09:04:11Z</time>
      </trkpt>
      <trkpt lat="59.9009712" lon="17.7131351">
        <ele>25.6123</ele>
        <time>2013-06-02T09:04:12Z</time>
      </trkpt>
      <trkpt lat="59.9009318" lon="17.713242">
        <ele>25.6123</ele>
        <time>2013-06-02T09:04:13Z</time>
      </trkpt>
      <trkpt lat="59.9008923" lon="17.7133562">
        <ele>25.6123</ele>
        <time>2013-06-02T09:04:14Z</time>
      </trkpt>
      <trkpt lat="59.900851" lon="17.7134741">
        <ele>26.0929</ele>
        <time>2013-06-02T09:04:15Z</time>
      </trkpt>
      <trkpt lat="59.9008088" lon="17.7135953">
        <ele>26.0929</ele>
        <time>2013-06-02T09:04:16Z</time>
      </trkpt>
      <trkpt lat="59.9007668" lon="17.7137199">
        <ele>26.0929</ele>
        <time>2013-06-02T09:04:17Z</time>
      </trkpt>
      <trkpt lat="59.9007249" lon="17.713847">
        <ele>26.0929</ele>
        <time>2013-06-02T09:04:18Z</time>
      </trkpt>
      <trkpt lat="59.9006822" lon="17.7139765">
        <ele>26.0929</ele>
        <time>2013-06-02T09:04:19Z</time>
      </trkpt>
      <trkpt lat="59.9006394" lon="17.714107">
        <ele>26.5736</ele>
        <time>2013-06-02T09:04:20Z</time>
      </trkpt>
      <trkpt lat="59.9005975" lon="17.7142384">
        <ele>26.5736</ele>
        <time>2013-06-02T09:04:21Z</time>
      </trkpt>
      <trkpt lat="59.9005561" lon="17.7143696">
        <ele>27.0543</ele>
        <time>2013-06-02T09:04:22Z</time>
      </trkpt>
      <trkpt lat="59.9005151" lon="17.7145027">
        <ele>27.0543</ele>
        <time>2013-06-02T09:04:23Z</time>
      </trkpt>
      <trkpt lat="59.9004757" lon="17.714639">
        <ele>27.5349</ele>
        <time>2013-06-02T09:04:24Z</time>
      </trkpt>
      <trkpt lat="59.9004373" lon="17.7147773">
        <ele>27.5349</ele>
        <time>2013-06-02T09:04:25Z</time>
      </trkpt>
      <trkpt lat="59.9003997" lon="17.7149163">
        <ele>27.5349</ele>
        <time>2013-06-02T09:04:26Z</time>
      </trkpt>
      <trkpt lat="59.9003636" lon="17.7150568">
        <ele>28.0155</ele>
        <time>2013-06-02T09:04:27Z</time>
      </trkpt>
      <trkpt lat="59.9003295" lon="17.7151993">
        <ele>28.0155</ele>
        <time>2013-06-02T09:04:28Z</time>
      </trkpt>
      <trkpt lat="59.9002957" lon="17.7153435">
        <ele>28.0155</ele>
        <time>2013-06-02T09:04:29Z</time>
      </trkpt>
      <trkpt lat="59.9002626" lon="17.7154899">
        <ele>28.0155</ele>
        <time>2013-06-02T09:04:30Z</time>
      </trkpt>
      <trkpt lat="59.9002322" lon="17.7156371">
        <ele>28.4962</ele>
        <time>2013-06-02T09:04:31Z</time>
      </trkpt>
      <trkpt lat="59.9002049" lon="17.7157848">
        <ele>28.4962</ele>
        <time>2013-06-02T09:04:32Z</time>
      </trkpt>
      <trkpt lat="59.9001829" lon="17.7159341">
        <ele>28.0155</ele>
        <time>2013-06-02T09:04:33Z</time>
      </trkpt>
      <trkpt lat="59.9001642" lon="17.7160856">
        <ele>28.0155</ele>
        <time>2013-06-02T09:04:34Z</time>
      </trkpt>
      <trkpt lat="59.9001466" lon="17.7162405">
        <ele>28.0155</ele>
        <time>2013-06-02T09:04:35Z</time>
      </trkpt>
      <trkpt lat="59.9001295" lon="17.7163983">
        <ele>28.0155</ele>
        <time>2013-06-02T09:04:36Z</time>
      </trkpt>
      <trkpt lat="59.9001172" lon="17.7165567">
        <ele>28.0155</ele>
        <time>2013-06-02T09:04:37Z</time>
      </trkpt>
      <trkpt lat="59.9001092" lon="17.7167156">
        <ele>28.0155</ele>
        <time>2013-06-02T09:04:38Z</time>
      </trkpt>
      <trkpt lat="59.9001027" lon="17.7168748">
        <ele>28.0155</ele>
        <time>2013-06-02T09:04:39Z</time>
      </trkpt>
      <trkpt lat="59.9000944" lon="17.7170347">
        <ele>28.0155</ele>
        <time>2013-06-02T09:04:40Z</time>
      </trkpt>
      <trkpt lat="59.9000865" lon="17.7171911">
        <ele>28.0155</ele>
        <time>2013-06-02T09:04:41Z</time>
      </trkpt>
      <trkpt lat="59.9000762" lon="17.7173392">
        <ele>28.0155</ele>
        <time>2013-06-02T09:04:42Z</time>
      </trkpt>
      <trkpt lat="59.9000639" lon="17.7174851">
        <ele>28.4962</ele>
        <time>2013-06-02T09:04:43Z</time>
      </trkpt>
      <trkpt lat="59.9000471" lon="17.7176315">
        <ele>28.4962</ele>
        <time>2013-06-02T09:04:44Z</time>
      </trkpt>
      <trkpt lat="59.9000282" lon="17.7177692">
        <ele>28.0155</ele>
        <time>2013-06-02T09:04:45Z</time>
      </trkpt>
      <trkpt lat="59.9000034" lon="17.7179008">
        <ele>28.0155</ele>
        <time>2013-06-02T09:04:46Z</time>
      </trkpt>
      <trkpt lat="59.8999737" lon="17.7180273">
        <ele>28.4962</ele>
        <time>2013-06-02T09:04:47Z</time>
      </trkpt>
      <trkpt lat="59.8999396" lon="17.7181521">
        <ele>28.9769</ele>
        <time>2013-06-02T09:04:48Z</time>
      </trkpt>
      <trkpt lat="59.8999023" lon="17.71828">
        <ele>28.9769</ele>
        <time>2013-06-02T09:04:49Z</time>
      </trkpt>
      <trkpt lat="59.8998668" lon="17.7184039">
        <ele>28.9769</ele>
        <time>2013-06-02T09:04:50Z</time>
      </trkpt>
      <trkpt lat="59.8998301" lon="17.7185258">
        <ele>29.4575</ele>
        <time>2013-06-02T09:04:51Z</time>
      </trkpt>
      <trkpt lat="59.8997945" lon="17.7186495">
        <ele>29.4575</ele>
        <time>2013-06-02T09:04:52Z</time>
      </trkpt>
      <trkpt lat="59.8997594" lon="17.7187758">
        <ele>29.4575</ele>
        <time>2013-06-02T09:04:53Z</time>
      </trkpt>
      <trkpt lat="59.8997228" lon="17.7188975">
        <ele>29.4575</ele>
        <time>2013-06-02T09:04:54Z</time>
      </trkpt>
      <trkpt lat="59.8996892" lon="17.7190141">
        <ele>29.9381</ele>
        <time>2013-06-02T09:04:55Z</time>
      </trkpt>
      <trkpt lat="59.8996602" lon="17.7191347">
        <ele>30.8995</ele>
        <time>2013-06-02T09:04:56Z</time>
      </trkpt>
      <trkpt lat="59.8996296" lon="17.7192654">
        <ele>30.8995</ele>
        <time>2013-06-02T09:04:57Z</time>
      </trkpt>
      <trkpt lat="59.8995991" lon="17.7193981">
        <ele>30.8995</ele>
        <time>2013-06-02T09:04:58Z</time>
      </trkpt>
      <trkpt lat="59.8995697" lon="17.719539">
        <ele>31.3801</ele>
        <time>2013-06-02T09:04:59Z</time>
      </trkpt>
      <trkpt lat="59.8995417" lon="17.7196816">
        <ele>31.3801</ele>
        <time>2013-06-02T09:05:00Z</time>
      </trkpt>
      <trkpt lat="59.8995121" lon="17.7198238">
        <ele>31.3801</ele>
        <time>2013-06-02T09:05:01Z</time>
      </trkpt>
      <trkpt lat="59.8994832" lon="17.7199653">
        <ele>31.8607</ele>
        <time>2013-06-02T09:05:02Z</time>
      </trkpt>
      <trkpt lat="59.8994593" lon="17.7201078">
        <ele>31.8607</ele>
        <time>2013-06-02T09:05:03Z</time>
      </trkpt>
      <trkpt lat="59.8994335" lon="17.720249">
        <ele>32.3416</ele>
        <time>2013-06-02T09:05:04Z</time>
      </trkpt>
      <trkpt lat="59.8994089" lon="17.7203924">
        <ele>32.3416</ele>
        <time>2013-06-02T09:05:05Z</time>
      </trkpt>
      <trkpt lat="59.899384" lon="17.7205356">
        <ele>32.8223</ele>
        <time>2013-06-02T09:05:06Z</time>
      </trkpt>
      <trkpt lat="59.8993583" lon="17.7206783">
        <ele>32.8223</ele>
        <time>2013-06-02T09:05:07Z</time>
      </trkpt>
      <trkpt lat="59.8993297" lon="17.7208173">
        <ele>32.3416</ele>
        <time>2013-06-02T09:05:08Z</time>
      </trkpt>
      <trkpt lat="59.8993033" lon="17.7209587">
        <ele>32.3416</ele>
        <time>2013-06-02T09:05:09Z</time>
      </trkpt>
      <trkpt lat="59.899277" lon="17.7211023">
        <ele>31.8607</ele>
        <time>2013-06-02T09:05:10Z</time>
      </trkpt>
      <trkpt lat="59.8992505" lon="17.7212467">
        <ele>31.8607</ele>
        <time>2013-06-02T09:05:11Z</time>
      </trkpt>
      <trkpt lat="59.899224" lon="17.7213906">
        <ele>31.8607</ele>
        <time>2013-06-02T09:05:12Z</time>
      </trkpt>
      <trkpt lat="59.8991997" lon="17.7215357">
        <ele>32.3416</ele>
        <time>2013-06-02T09:05:13Z</time>
      </trkpt>
      <trkpt lat="59.8991746" lon="17.7216837">
        <ele>32.3416</ele>
        <time>2013-06-02T09:05:14Z</time>
      </trkpt>
      <trkpt lat="59.8991489" lon="17.7218315">
        <ele>31.8607</ele>
        <time>2013-06-02T09:05:15Z</time>
      </trkpt>
      <trkpt lat="59.8991246" lon="17.7219808">
        <ele>31.8607</ele>
        <time>2013-06-02T09:05:16Z</time>
      </trkpt>
      <trkpt lat="59.8990996" lon="17.7221316">
        <ele>31.8607</ele>
        <time>2013-06-02T09:05:17Z</time>
      </trkpt>
      <trkpt lat="59.8990749" lon="17.7222813">
        <ele>31.8607</ele>
        <time>2013-06-02T09:05:18Z</time>
      </trkpt>
      <trkpt lat="59.8990505" lon="17.7224314">
        <ele>31.3801</ele>
        <time>2013-06-02T09:05:19Z</time>
      </trkpt>
      <trkpt lat="59.8990266" lon="17.7225835">
        <ele>30.8995</ele>
        <time>2013-06-02T09:05:20Z</time>
      </trkpt>
      <trkpt lat="59.8990021" lon="17.7227359">
        <ele>30.8995</ele>
        <time>2013-06-02T09:05:21Z</time>
      </trkpt>
      <trkpt lat="59.8989776" lon="17.7228868">
        <ele>30.4188</ele>
        <time>2013-06-02T09:05:22Z</time>
      </trkpt>
      <trkpt lat="59.8989538" lon="17.7230378">
        <ele>30.4188</ele>
        <time>2013-06-02T09:05:23Z</time>
      </trkpt>
      <trkpt lat="59.8989272" lon="17.7231901">
        <ele>30.4188</ele>
        <time>2013-06-02T09:05:24Z</time>
      </trkpt>
      <trkpt lat="59.8989" lon="17.7233412">
        <ele>30.4188</ele>
        <time>2013-06-02T09:05:25Z</time>
      </trkpt>
      <trkpt lat="59.8988724" lon="17.7234937">
        <ele>29.9381</ele>
        <time>2013-06-02T09:05:26Z</time>
      </trkpt>
      <trkpt lat="59.898848" lon="17.7236447">
        <ele>29.9381</ele>
        <time>2013-06-02T09:05:27Z</time>
      </trkpt>
      <trkpt lat="59.8988226" lon="17.7237995">
        <ele>29.9381</ele>
        <time>2013-06-02T09:05:28Z</time>
      </trkpt>
      <trkpt lat="59.8987963" lon="17.7239544">
        <ele>29.9381</ele>
        <time>2013-06-02T09:05:29Z</time>
      </trkpt>
      <trkpt lat="59.8987697" lon="17.7241129">
        <ele>29.9381</ele>
        <time>2013-06-02T09:05:30Z</time>
      </trkpt>
      <trkpt lat="59.8987425" lon="17.7242723">
        <ele>29.9381</ele>
        <time>2013-06-02T09:05:31Z</time>
      </trkpt>
      <trkpt lat="59.8987158" lon="17.724433">
        <ele>29.4575</ele>
        <time>2013-06-02T09:05:32Z</time>
      </trkpt>
      <trkpt lat="59.8986871" lon="17.7246147">
        <ele>29.4575</ele>
        <time>2013-06-02T09:05:33Z</time>
      </trkpt>
      <trkpt lat="59.8986585" lon="17.7247899">
        <ele>29.4575</ele>
        <time>2013-06-02T09:05:34Z</time>
      </trkpt>
      <trkpt lat="59.8986299" lon="17.7249628">
        <ele>29.9381</ele>
        <time>2013-06-02T09:05:35Z</time>
      </trkpt>
      <trkpt lat="59.898601" lon="17.7251352">
        <ele>29.9381</ele>
        <time>2013-06-02T09:05:36Z</time>
      </trkpt>
      <trkpt lat="59.8985735" lon="17.7253068">
        <ele>29.9381</ele>
        <time>2013-06-02T09:05:37Z</time>
      </trkpt>
      <trkpt lat="59.8985461" lon="17.725478">
        <ele>30.4188</ele>
        <time>2013-06-02T09:05:38Z</time>
      </trkpt>
      <trkpt lat="59.8985181" lon="17.7256484">
        <ele>30.4188</ele>
        <time>2013-06-02T09:05:39Z</time>
      </trkpt>
      <trkpt lat="59.8984886" lon="17.7258176">
        <ele>30.4188</ele>
        <time>2013-06-02T09:05:40Z</time>
      </trkpt>
      <trkpt lat="59.898456" lon="17.7259849">
        <ele>30.4188</ele>
        <time>2013-06-02T09:05:41Z</time>
      </trkpt>
      <trkpt lat="59.8984211" lon="17.7261498">
        <ele>30.4188</ele>
        <time>2013-06-02T09:05:42Z</time>
      </trkpt>
      <trkpt lat="59.8983838" lon="17.7263134">
        <ele>30.4188</ele>
        <time>2013-06-02T09:05:43Z</time>
      </trkpt>
      <trkpt lat="59.8983447" lon="17.726475">
        <ele>30.4188</ele>
        <time>2013-06-02T09:05:44Z</time>
      </trkpt>
      <trkpt lat="59.8983048" lon="17.7266365">
        <ele>30.4188</ele>
        <time>2013-06-02T09:05:45Z</time>
      </trkpt>
      <trkpt lat="59.8982653" lon="17.7267975">
        <ele>30.4188</ele>
        <time>2013-06-02T09:05:46Z</time>
      </trkpt>
      <trkpt lat="59.8982233" lon="17.7269562">
        <ele>30.4188</ele>
        <time>2013-06-02T09:05:47Z</time>
      </trkpt>
      <trkpt lat="59.8981784" lon="17.7271106">
        <ele>30.8995</ele>
        <time>2013-06-02T09:05:48Z</time>
      </trkpt>
      <trkpt lat="59.8981313" lon="17.7272602">
        <ele>30.8995</ele>
        <time>2013-06-02T09:05:49Z</time>
      </trkpt>
      <trkpt lat="59.8980819" lon="17.7274054">
        <ele>31.3801</ele>
        <time>2013-06-02T09:05:50Z</time>
      </trkpt>
      <trkpt lat="59.8980322" lon="17.7275326">
        <ele>30.8995</ele>
        <time>2013-06-02T09:05:51Z</time>
      </trkpt>
      <trkpt lat="59.897981" lon="17.727657">
        <ele>29.9381</ele>
        <time>2013-06-02T09:05:52Z</time>
      </trkpt>
      <trkpt lat="59.8979311" lon="17.7277835">
        <ele>28.9769</ele>
        <time>2013-06-02T09:05:53Z</time>
      </trkpt>
      <trkpt lat="59.8978813" lon="17.7279232">
        <ele>29.4575</ele>
        <time>2013-06-02T09:05:54Z</time>
      </trkpt>
      <trkpt lat="59.8978331" lon="17.7280674">
        <ele>29.4575</ele>
        <time>2013-06-02T09:05:55Z</time>
      </trkpt>
      <trkpt lat="59.8977896" lon="17.7282088">
        <ele>28.9769</ele>
        <time>2013-06-02T09:05:56Z</time>
      </trkpt>
      <trkpt lat="59.8977492" lon="17.7283602">
        <ele>28.9769</ele>
        <time>2013-06-02T09:05:57Z</time>
      </trkpt>
      <trkpt lat="59.8977142" lon="17.7285114">
        <ele>28.9769</ele>
        <time>2013-06-02T09:05:58Z</time>
      </trkpt>
      <trkpt lat="59.8976814" lon="17.7286677">
        <ele>28.9769</ele>
        <time>2013-06-02T09:05:59Z</time>
      </trkpt>
      <trkpt lat="59.8976494" lon="17.7288231">
        <ele>28.9769</ele>
        <time>2013-06-02T09:06:00Z</time>
      </trkpt>
      <trkpt lat="59.8976189" lon="17.7289769">
        <ele>28.9769</ele>
        <time>2013-06-02T09:06:01Z</time>
      </trkpt>
      <trkpt lat="59.8975893" lon="17.7291293">
        <ele>28.9769</ele>
        <time>2013-06-02T09:06:02Z</time>
      </trkpt>
      <trkpt lat="59.8975604" lon="17.7292799">
        <ele>29.4575</ele>
        <time>2013-06-02T09:06:03Z</time>
      </trkpt>
      <trkpt lat="59.897533" lon="17.7294299">
        <ele>29.4575</ele>
        <time>2013-06-02T09:06:04Z</time>
      </trkpt>
      <trkpt lat="59.897509" lon="17.7295789">
        <ele>29.4575</ele>
        <time>2013-06-02T09:06:05Z</time>
      </trkpt>
      <trkpt lat="59.8974863" lon="17.7297277">
        <ele>29.9381</ele>
        <time>2013-06-02T09:06:06Z</time>
      </trkpt>
      <trkpt lat="59.89747" lon="17.7298701">
        <ele>29.9381</ele>
        <time>2013-06-02T09:06:07Z</time>
      </trkpt>
      <trkpt lat="59.8974571" lon="17.7300115">
        <ele>29.9381</ele>
        <time>2013-06-02T09:06:08Z</time>
      </trkpt>
      <trkpt lat="59.8974472" lon="17.7301506">
        <ele>29.4575</ele>
        <time>2013-06-02T09:06:09Z</time>
      </trkpt>
      <trkpt lat="59.8974563" lon="17.7302601">
        <ele>29.9381</ele>
        <time>2013-06-02T09:06:10Z</time>
      </trkpt>
      <trkpt lat="59.8974638" lon="17.7303668">
        <ele>29.9381</ele>
        <time>2013-06-02T09:06:11Z</time>
      </trkpt>
      <trkpt lat="59.8974654" lon="17.7304651">
        <ele>30.4188</ele>
        <time>2013-06-02T09:06:12Z</time>
      </trkpt>
      <trkpt lat="59.8974592" lon="17.7305636">
        <ele>30.4188</ele>
        <time>2013-06-02T09:06:13Z</time>
      </trkpt>
      <trkpt lat="59.8974581" lon="17.7306516">
        <ele>29.9381</ele>
        <time>2013-06-02T09:06:14Z</time>
      </trkpt>
      <trkpt lat="59.8974635" lon="17.7307384">
        <ele>28.4962</ele>
        <time>2013-06-02T09:06:15Z</time>
      </trkpt>
      <trkpt lat="59.8974707" lon="17.7308231">
        <ele>28.0155</ele>
        <time>2013-06-02T09:06:16Z</time>
      </trkpt>
      <trkpt lat="59.8974837" lon="17.7309095">
        <ele>27.5349</ele>
        <time>2013-06-02T09:06:17Z</time>
      </trkpt>
      <trkpt lat="59.8975058" lon="17.7309874">
        <ele>26.0929</ele>
        <time>2013-06-02T09:06:18Z</time>
      </trkpt>
      <trkpt lat="59.8975619" lon="17.7311288">
        <ele>25.6123</ele>
        <time>2013-06-02T09:06:19Z</time>
      </trkpt>
      <trkpt lat="59.8975607" lon="17.7312868">
        <ele>25.1317</ele>
        <time>2013-06-02T09:06:20Z</time>
      </trkpt>
      <trkpt lat="59.8975863" lon="17.7314194">
        <ele>24.651</ele>
        <time>2013-06-02T09:06:21Z</time>
      </trkpt>
      <trkpt lat="59.8975899" lon="17.7315553">
        <ele>24.651</ele>
        <time>2013-06-02T09:06:22Z</time>
      </trkpt>
      <trkpt lat="59.8976075" lon="17.7316601">
        <ele>24.651</ele>
        <time>2013-06-02T09:06:23Z</time>
      </trkpt>
      <trkpt lat="59.8976064" lon="17.7317894">
        <ele>24.1703</ele>
        <time>2013-06-02T09:06:24Z</time>
      </trkpt>
      <trkpt lat="59.8976073" lon="17.7319197">
        <ele>23.6896</ele>
        <time>2013-06-02T09:06:25Z</time>
      </trkpt>
      <trkpt lat="59.8975914" lon="17.7320412">
        <ele>23.6896</ele>
        <time>2013-06-02T09:06:26Z</time>
      </trkpt>
      <trkpt lat="59.8975742" lon="17.7321643">
        <ele>23.6896</ele>
        <time>2013-06-02T09:06:27Z</time>
      </trkpt>
      <trkpt lat="59.8975572" lon="17.7322916">
        <ele>24.1703</ele>
        <time>2013-06-02T09:06:28Z</time>
      </trkpt>
      <trkpt lat="59.8975515" lon="17.7324185">
        <ele>25.1317</ele>
        <time>2013-06-02T09:06:29Z</time>
      </trkpt>
      <trkpt lat="59.8975505" lon="17.7325493">
        <ele>25.1317</ele>
        <time>2013-06-02T09:06:30Z</time>
      </trkpt>
      <trkpt lat="59.897551" lon="17.7326813">
        <ele>26.0929</ele>
        <time>2013-06-02T09:06:31Z</time>
      </trkpt>
      <trkpt lat="59.8975499" lon="17.732815">
        <ele>26.5736</ele>
        <time>2013-06-02T09:06:32Z</time>
      </trkpt>
      <trkpt lat="59.8975459" lon="17.732951">
        <ele>27.5349</ele>
        <time>2013-06-02T09:06:33Z</time>
      </trkpt>
      <trkpt lat="59.8975405" lon="17.73309">
        <ele>27.5349</ele>
        <time>2013-06-02T09:06:34Z</time>
      </trkpt>
      <trkpt lat="59.8975311" lon="17.7332328">
        <ele>28.4962</ele>
        <time>2013-06-02T09:06:35Z</time>
      </trkpt>
      <trkpt lat="59.8975218" lon="17.7333765">
        <ele>28.9769</ele>
        <time>2013-06-02T09:06:36Z</time>
      </trkpt>
      <trkpt lat="59.8975073" lon="17.733517">
        <ele>29.4575</ele>
        <time>2013-06-02T09:06:37Z</time>
      </trkpt>
      <trkpt lat="59.8974946" lon="17.7336587">
        <ele>28.9769</ele>
        <time>2013-06-02T09:06:38Z</time>
      </trkpt>
      <trkpt lat="59.8974769" lon="17.7337966">
        <ele>28.9769</ele>
        <time>2013-06-02T09:06:39Z</time>
      </trkpt>
      <trkpt lat="59.897454" lon="17.7339333">
        <ele>28.4962</ele>
        <time>2013-06-02T09:06:40Z</time>
      </trkpt>
      <trkpt lat="59.897424" lon="17.734069">
        <ele>28.4962</ele>
        <time>2013-06-02T09:06:41Z</time>
      </trkpt>
      <trkpt lat="59.8973918" lon="17.7342011">
        <ele>28.0155</ele>
        <time>2013-06-02T09:06:42Z</time>
      </trkpt>
      <trkpt lat="59.8973602" lon="17.7343325">
        <ele>28.0155</ele>
        <time>2013-06-02T09:06:43Z</time>
      </trkpt>
      <trkpt lat="59.8973301" lon="17.734469">
        <ele>27.5349</ele>
        <time>2013-06-02T09:06:44Z</time>
      </trkpt>
      <trkpt lat="59.8973035" lon="17.7346126">
        <ele>27.5349</ele>
        <time>2013-06-02T09:06:45Z</time>
      </trkpt>
      <trkpt lat="59.897284" lon="17.7347611">
        <ele>27.5349</ele>
        <time>2013-06-02T09:06:46Z</time>
      </trkpt>
      <trkpt lat="59.8972686" lon="17.7349184">
        <ele>27.0543</ele>
        <time>2013-06-02T09:06:47Z</time>
      </trkpt>
      <trkpt lat="59.8972581" lon="17.7350843">
        <ele>26.5736</ele>
        <time>2013-06-02T09:06:48Z</time>
      </trkpt>
      <trkpt lat="59.8972514" lon="17.7352557">
        <ele>26.0929</ele>
        <time>2013-06-02T09:06:49Z</time>
      </trkpt>
      <trkpt lat="59.8972385" lon="17.7354364">
        <ele>26.0929</ele>
        <time>2013-06-02T09:06:50Z</time>
      </trkpt>
      <trkpt lat="59.8972324" lon="17.7356205">
        <ele>26.0929</ele>
        <time>2013-06-02T09:06:51Z</time>
      </trkpt>
      <trkpt lat="59.8972231" lon="17.735808">
        <ele>26.0929</ele>
        <time>2013-06-02T09:06:52Z</time>
      </trkpt>
      <trkpt lat="59.8972107" lon="17.7359964">
        <ele>26.0929</ele>
        <time>2013-06-02T09:06:53Z</time>
      </trkpt>
      <trkpt lat="59.897195" lon="17.7361828">
        <ele>25.6123</ele>
        <time>2013-06-02T09:06:54Z</time>
      </trkpt>
      <trkpt lat="59.8971724" lon="17.7363667">
        <ele>25.6123</ele>
        <time>2013-06-02T09:06:55Z</time>
      </trkpt>
      <trkpt lat="59.8971431" lon="17.7365446">
        <ele>26.0929</ele>
        <time>2013-06-02T09:06:56Z</time>
      </trkpt>
      <trkpt lat="59.897106" lon="17.7367141">
        <ele>26.0929</ele>
        <time>2013-06-02T09:06:57Z</time>
      </trkpt>
      <trkpt lat="59.897062" lon="17.7368732">
        <ele>26.5736</ele>
        <time>2013-06-02T09:06:58Z</time>
      </trkpt>
      <trkpt lat="59.8970148" lon="17.7370208">
        <ele>27.0543</ele>
        <time>2013-06-02T09:06:59Z</time>
      </trkpt>
      <trkpt lat="59.8969658" lon="17.7371594">
        <ele>27.5349</ele>
        <time>2013-06-02T09:07:00Z</time>
      </trkpt>
      <trkpt lat="59.8969159" lon="17.7372891">
        <ele>27.5349</ele>
        <time>2013-06-02T09:07:01Z</time>
      </trkpt>
      <trkpt lat="59.8968657" lon="17.7374129">
        <ele>28.0155</ele>
        <time>2013-06-02T09:07:02Z</time>
      </trkpt>
      <trkpt lat="59.8968165" lon="17.7375344">
        <ele>28.0155</ele>
        <time>2013-06-02T09:07:03Z</time>
      </trkpt>
      <trkpt lat="59.8967702" lon="17.7376573">
        <ele>28.4962</ele>
        <time>2013-06-02T09:07:04Z</time>
      </trkpt>
      <trkpt lat="59.8967304" lon="17.7377837">
        <ele>28.4962</ele>
        <time>2013-06-02T09:07:05Z</time>
      </trkpt>
      <trkpt lat="59.8966945" lon="17.737914">
        <ele>28.4962</ele>
        <time>2013-06-02T09:07:06Z</time>
      </trkpt>
      <trkpt lat="59.896662" lon="17.7380468">
        <ele>28.0155</ele>
        <time>2013-06-02T09:07:07Z</time>
      </trkpt>
      <trkpt lat="59.8966283" lon="17.7381896">
        <ele>28.0155</ele>
        <time>2013-06-02T09:07:08Z</time>
      </trkpt>
      <trkpt lat="59.8965948" lon="17.7383348">
        <ele>28.4962</ele>
        <time>2013-06-02T09:07:09Z</time>
      </trkpt>
      <trkpt lat="59.896557" lon="17.7384803">
        <ele>28.4962</ele>
        <time>2013-06-02T09:07:10Z</time>
      </trkpt>
      <trkpt lat="59.8965102" lon="17.7386208">
        <ele>28.4962</ele>
        <time>2013-06-02T09:07:11Z</time>
      </trkpt>
      <trkpt lat="59.8964508" lon="17.7387413">
        <ele>28.9769</ele>
        <time>2013-06-02T09:07:12Z</time>
      </trkpt>
      <trkpt lat="59.896356" lon="17.738813">
        <ele>28.9769</ele>
        <time>2013-06-02T09:07:13Z</time>
      </trkpt>
      <trkpt lat="59.896277" lon="17.7388812">
        <ele>28.9769</ele>
        <time>2013-06-02T09:07:14Z</time>
      </trkpt>
      <trkpt lat="59.8961809" lon="17.7389047">
        <ele>28.4962</ele>
        <time>2013-06-02T09:07:15Z</time>
      </trkpt>
      <trkpt lat="59.8960958" lon="17.7389275">
        <ele>28.0155</ele>
        <time>2013-06-02T09:07:16Z</time>
      </trkpt>
      <trkpt lat="59.8960088" lon="17.7389425">
        <ele>27.5349</ele>
        <time>2013-06-02T09:07:17Z</time>
      </trkpt>
      <trkpt lat="59.8959171" lon="17.7389611">
        <ele>27.5349</ele>
        <time>2013-06-02T09:07:18Z</time>
      </trkpt>
      <trkpt lat="59.8958251" lon="17.7389813">
        <ele>27.5349</ele>
        <time>2013-06-02T09:07:19Z</time>
      </trkpt>
      <trkpt lat="59.8957339" lon="17.7389979">
        <ele>27.5349</ele>
        <time>2013-06-02T09:07:20Z</time>
      </trkpt>
      <trkpt lat="59.8956437" lon="17.7390181">
        <ele>27.5349</ele>
        <time>2013-06-02T09:07:21Z</time>
      </trkpt>
      <trkpt lat="59.8955545" lon="17.7390388">
        <ele>27.5349</ele>
        <time>2013-06-02T09:07:22Z</time>
      </trkpt>
      <trkpt lat="59.8954655" lon="17.739057">
        <ele>27.0543</ele>
        <time>2013-06-02T09:07:23Z</time>
      </trkpt>
      <trkpt lat="59.8953779" lon="17.7390772">
        <ele>27.0543</ele>
        <time>2013-06-02T09:07:24Z</time>
      </trkpt>
      <trkpt lat="59.8952924" lon="17.7391042">
        <ele>27.0543</ele>
        <time>2013-06-02T09:07:25Z</time>
      </trkpt>
      <trkpt lat="59.8952099" lon="17.7391337">
        <ele>27.0543</ele>
        <time>2013-06-02T09:07:26Z</time>
      </trkpt>
      <trkpt lat="59.8951308" lon="17.7391612">
        <ele>27.0543</ele>
        <time>2013-06-02T09:07:27Z</time>
      </trkpt>
      <trkpt lat="59.8950542" lon="17.7391858">
        <ele>27.0543</ele>
        <time>2013-06-02T09:07:28Z</time>
      </trkpt>
      <trkpt lat="59.8949804" lon="17.7392077">
        <ele>27.5349</ele>
        <time>2013-06-02T09:07:29Z</time>
      </trkpt>
      <trkpt lat="59.89491" lon="17.7392314">
        <ele>27.5349</ele>
        <time>2013-06-02T09:07:30Z</time>
      </trkpt>
      <trkpt lat="59.8948448" lon="17.7392546">
        <ele>27.5349</ele>
        <time>2013-06-02T09:07:31Z</time>
      </trkpt>
      <trkpt lat="59.8947872" lon="17.7392788">
        <ele>28.0155</ele>
        <time>2013-06-02T09:07:32Z</time>
      </trkpt>
      <trkpt lat="59.8947387" lon="17.7393044">
        <ele>28.0155</ele>
        <time>2013-06-02T09:07:33Z</time>
      </trkpt>
      <trkpt lat="59.8947023" lon="17.7393373">
        <ele>28.4962</ele>
        <time>2013-06-02T09:07:34Z</time>
      </trkpt>
      <trkpt lat="59.8946801" lon="17.7393796">
        <ele>28.4962</ele>
        <time>2013-06-02T09:07:35Z</time>
      </trkpt>
      <trkpt lat="59.8946723" lon="17.7394257">
        <ele>28.4962</ele>
        <time>2013-06-02T09:07:36Z</time>
      </trkpt>
      <trkpt lat="59.8944838" lon="17.7394406">
        <ele>28.0155</ele>
        <time>2013-06-02T09:16:38Z</time>
      </trkpt>
      <trkpt lat="59.8944606" lon="17.7394678">
        <ele>28.0155</ele>
        <time>2013-06-02T09:16:39Z</time>
      </trkpt>
      <trkpt lat="59.8944306" lon="17.7395097">
        <ele>28.4962</ele>
        <time>2013-06-02T09:16:40Z</time>
      </trkpt>
      <trkpt lat="59.8944051" lon="17.7395424">
        <ele>28.4962</ele>
        <time>2013-06-02T09:16:41Z</time>
      </trkpt>
      <trkpt lat="59.8943772" lon="17.7395743">
        <ele>28.4962</ele>
        <time>2013-06-02T09:16:42Z</time>
      </trkpt>
      <trkpt lat="59.8943502" lon="17.7396045">
        <ele>28.4962</ele>
        <time>2013-06-02T09:16:43Z</time>
      </trkpt>
      <trkpt lat="59.8943233" lon="17.739636">
        <ele>28.0155</ele>
        <time>2013-06-02T09:16:44Z</time>
      </trkpt>
      <trkpt lat="59.8942927" lon="17.7396801">
        <ele>27.5349</ele>
        <time>2013-06-02T09:16:45Z</time>
      </trkpt>
      <trkpt lat="59.8942651" lon="17.7397247">
        <ele>27.0543</ele>
        <time>2013-06-02T09:16:46Z</time>
      </trkpt>
      <trkpt lat="59.8942412" lon="17.739774">
        <ele>26.5736</ele>
        <time>2013-06-02T09:16:47Z</time>
      </trkpt>
      <trkpt lat="59.8942119" lon="17.7398293">
        <ele>25.6123</ele>
        <time>2013-06-02T09:16:48Z</time>
      </trkpt>
      <trkpt lat="59.8941851" lon="17.7398873">
        <ele>25.1317</ele>
        <time>2013-06-02T09:16:49Z</time>
      </trkpt>
      <trkpt lat="59.8941594" lon="17.739953">
        <ele>24.651</ele>
        <time>2013-06-02T09:16:50Z</time>
      </trkpt>
      <trkpt lat="59.8941311" lon="17.7400365">
        <ele>23.6896</ele>
        <time>2013-06-02T09:16:51Z</time>
      </trkpt>
      <trkpt lat="59.8940983" lon="17.7401263">
        <ele>22.2476</ele>
        <time>2013-06-02T09:16:52Z</time>
      </trkpt>
      <trkpt lat="59.8940653" lon="17.7402229">
        <ele>21.767</ele>
        <time>2013-06-02T09:16:53Z</time>
      </trkpt>
      <trkpt lat="59.8940316" lon="17.7403244">
        <ele>20.8057</ele>
        <time>2013-06-02T09:16:54Z</time>
      </trkpt>
      <trkpt lat="59.8939985" lon="17.7404317">
        <ele>20.8057</ele>
        <time>2013-06-02T09:16:55Z</time>
      </trkpt>
      <trkpt lat="59.8939648" lon="17.74054">
        <ele>20.8057</ele>
        <time>2013-06-02T09:16:56Z</time>
      </trkpt>
      <trkpt lat="59.8939327" lon="17.7406445">
        <ele>21.2864</ele>
        <time>2013-06-02T09:16:57Z</time>
      </trkpt>
      <trkpt lat="59.8939006" lon="17.7407474">
        <ele>21.2864</ele>
        <time>2013-06-02T09:16:58Z</time>
      </trkpt>
      <trkpt lat="59.8938706" lon="17.7408441">
        <ele>21.2864</ele>
        <time>2013-06-02T09:16:59Z</time>
      </trkpt>
      <trkpt lat="59.8938416" lon="17.7409437">
        <ele>21.2864</ele>
        <time>2013-06-02T09:17:00Z</time>
      </trkpt>
      <trkpt lat="59.893813" lon="17.7410436">
        <ele>21.2864</ele>
        <time>2013-06-02T09:17:01Z</time>
      </trkpt>
      <trkpt lat="59.8937824" lon="17.7411426">
        <ele>21.2864</ele>
        <time>2013-06-02T09:17:02Z</time>
      </trkpt>
      <trkpt lat="59.8937493" lon="17.7412446">
        <ele>21.2864</ele>
        <time>2013-06-02T09:17:03Z</time>
      </trkpt>
      <trkpt lat="59.8937155" lon="17.7413481">
        <ele>21.2864</ele>
        <time>2013-06-02T09:17:04Z</time>
      </trkpt>
      <trkpt lat="59.8936819" lon="17.7414538">
        <ele>21.2864</ele>
        <time>2013-06-02T09:17:05Z</time>
      </trkpt>
      <trkpt lat="59.8936455" lon="17.7415609">
        <ele>21.2864</ele>
        <time>2013-06-02T09:17:06Z</time>
      </trkpt>
      <trkpt lat="59.8936095" lon="17.7416694">
        <ele>21.2864</ele>
        <time>2013-06-02T09:17:07Z</time>
      </trkpt>
      <trkpt lat="59.8935751" lon="17.7417734">
        <ele>21.767</ele>
        <time>2013-06-02T09:17:08Z</time>
      </trkpt>
      <trkpt lat="59.8935421" lon="17.741873">
        <ele>21.767</ele>
        <time>2013-06-02T09:17:09Z</time>
      </trkpt>
      <trkpt lat="59.8935098" lon="17.7419712">
        <ele>21.767</ele>
        <time>2013-06-02T09:17:10Z</time>
      </trkpt>
      <trkpt lat="59.8934796" lon="17.7420656">
        <ele>22.2476</ele>
        <time>2013-06-02T09:17:11Z</time>
      </trkpt>
      <trkpt lat="59.8934508" lon="17.7421579">
        <ele>22.7283</ele>
        <time>2013-06-02T09:17:12Z</time>
      </trkpt>
      <trkpt lat="59.8934209" lon="17.742248">
        <ele>22.7283</ele>
        <time>2013-06-02T09:17:13Z</time>
      </trkpt>
      <trkpt lat="59.8933918" lon="17.7423359">
        <ele>23.209</ele>
        <time>2013-06-02T09:17:14Z</time>
      </trkpt>
      <trkpt lat="59.8933653" lon="17.7424204">
        <ele>23.209</ele>
        <time>2013-06-02T09:17:15Z</time>
      </trkpt>
      <trkpt lat="59.8933392" lon="17.7425023">
        <ele>22.7283</ele>
        <time>2013-06-02T09:17:16Z</time>
      </trkpt>
      <trkpt lat="59.8933215" lon="17.7425767">
        <ele>22.7283</ele>
        <time>2013-06-02T09:17:17Z</time>
      </trkpt>
      <trkpt lat="59.8933054" lon="17.7426458">
        <ele>22.7283</ele>
        <time>2013-06-02T09:17:18Z</time>
      </trkpt>
      <trkpt lat="59.8932876" lon="17.7427144">
        <ele>22.7283</ele>
        <time>2013-06-02T09:17:19Z</time>
      </trkpt>
      <trkpt lat="59.8932671" lon="17.7427857">
        <ele>22.7283</ele>
        <time>2013-06-02T09:17:20Z</time>
      </trkpt>
      <trkpt lat="59.8932454" lon="17.7428577">
        <ele>22.7283</ele>
        <time>2013-06-02T09:17:21Z</time>
      </trkpt>
      <trkpt lat="59.8932213" lon="17.7429294">
        <ele>22.7283</ele>
        <time>2013-06-02T09:17:22Z</time>
      </trkpt>
      <trkpt lat="59.8931971" lon="17.7430011">
        <ele>22.7283</ele>
        <time>2013-06-02T09:17:23Z</time>
      </trkpt>
      <trkpt lat="59.8931774" lon="17.7430752">
        <ele>23.209</ele>
        <time>2013-06-02T09:17:24Z</time>
      </trkpt>
      <trkpt lat="59.8931588" lon="17.7431421">
        <ele>23.6896</ele>
        <time>2013-06-02T09:17:25Z</time>
      </trkpt>
      <trkpt lat="59.8931355" lon="17.7432109">
        <ele>24.1703</ele>
        <time>2013-06-02T09:17:26Z</time>
      </trkpt>
      <trkpt lat="59.8931111" lon="17.7432824">
        <ele>24.651</ele>
        <time>2013-06-02T09:17:27Z</time>
      </trkpt>
      <trkpt lat="59.8930871" lon="17.7433559">
        <ele>24.651</ele>
        <time>2013-06-02T09:17:28Z</time>
      </trkpt>
      <trkpt lat="59.8930643" lon="17.7434301">
        <ele>24.651</ele>
        <time>2013-06-02T09:17:29Z</time>
      </trkpt>
      <trkpt lat="59.8930386" lon="17.7435088">
        <ele>24.651</ele>
        <time>2013-06-02T09:17:30Z</time>
      </trkpt>
      <trkpt lat="59.8930127" lon="17.743586">
        <ele>24.651</ele>
        <time>2013-06-02T09:17:31Z</time>
      </trkpt>
      <trkpt lat="59.8929847" lon="17.7436665">
        <ele>24.651</ele>
        <time>2013-06-02T09:17:32Z</time>
      </trkpt>
      <trkpt lat="59.8929537" lon="17.7437588">
        <ele>23.6896</ele>
        <time>2013-06-02T09:17:33Z</time>
      </trkpt>
      <trkpt lat="59.8929294" lon="17.7438385">
        <ele>23.209</ele>
        <time>2013-06-02T09:17:34Z</time>
      </trkpt>
      <trkpt lat="59.8929009" lon="17.7439226">
        <ele>22.7283</ele>
        <time>2013-06-02T09:17:35Z</time>
      </trkpt>
      <trkpt lat="59.8928654" lon="17.7440152">
        <ele>21.767</ele>
        <time>2013-06-02T09:17:36Z</time>
      </trkpt>
      <trkpt lat="59.8928284" lon="17.7441241">
        <ele>21.767</ele>
        <time>2013-06-02T09:17:37Z</time>
      </trkpt>
      <trkpt lat="59.8927909" lon="17.7442462">
        <ele>22.2476</ele>
        <time>2013-06-02T09:17:38Z</time>
      </trkpt>
      <trkpt lat="59.8927453" lon="17.7443783">
        <ele>21.2864</ele>
        <time>2013-06-02T09:17:39Z</time>
      </trkpt>
      <trkpt lat="59.8927034" lon="17.7445163">
        <ele>21.2864</ele>
        <time>2013-06-02T09:17:40Z</time>
      </trkpt>
      <trkpt lat="59.8926584" lon="17.744657">
        <ele>20.8057</ele>
        <time>2013-06-02T09:17:41Z</time>
      </trkpt>
      <trkpt lat="59.8926117" lon="17.7447985">
        <ele>20.8057</ele>
        <time>2013-06-02T09:17:42Z</time>
      </trkpt>
      <trkpt lat="59.8925667" lon="17.7449411">
        <ele>20.8057</ele>
        <time>2013-06-02T09:17:43Z</time>
      </trkpt>
      <trkpt lat="59.892522" lon="17.7450838">
        <ele>20.8057</ele>
        <time>2013-06-02T09:17:44Z</time>
      </trkpt>
      <trkpt lat="59.8924779" lon="17.7452253">
        <ele>20.8057</ele>
        <time>2013-06-02T09:17:45Z</time>
      </trkpt>
      <trkpt lat="59.8924341" lon="17.7453646">
        <ele>20.8057</ele>
        <time>2013-06-02T09:17:46Z</time>
      </trkpt>
      <trkpt lat="59.8923897" lon="17.745503">
        <ele>20.325</ele>
        <time>2013-06-02T09:17:47Z</time>
      </trkpt>
      <trkpt lat="59.8923459" lon="17.7456392">
        <ele>20.325</ele>
        <time>2013-06-02T09:17:48Z</time>
      </trkpt>
      <trkpt lat="59.8923036" lon="17.7457717">
        <ele>20.325</ele>
        <time>2013-06-02T09:17:49Z</time>
      </trkpt>
      <trkpt lat="59.89226" lon="17.7459003">
        <ele>20.325</ele>
        <time>2013-06-02T09:17:50Z</time>
      </trkpt>
      <trkpt lat="59.8922117" lon="17.7460266">
        <ele>20.325</ele>
        <time>2013-06-02T09:17:51Z</time>
      </trkpt>
      <trkpt lat="59.8921609" lon="17.7461468">
        <ele>20.325</ele>
        <time>2013-06-02T09:17:52Z</time>
      </trkpt>
      <trkpt lat="59.8921062" lon="17.7462597">
        <ele>20.325</ele>
        <time>2013-06-02T09:17:53Z</time>
      </trkpt>
      <trkpt lat="59.8920483" lon="17.7463659">
        <ele>20.325</ele>
        <time>2013-06-02T09:17:54Z</time>
      </trkpt>
      <trkpt lat="59.8919887" lon="17.746464">
        <ele>20.325</ele>
        <time>2013-06-02T09:17:55Z</time>
      </trkpt>
      <trkpt lat="59.8919259" lon="17.7465594">
        <ele>20.8057</ele>
        <time>2013-06-02T09:17:56Z</time>
      </trkpt>
      <trkpt lat="59.8918627" lon="17.7466531">
        <ele>20.8057</ele>
        <time>2013-06-02T09:17:57Z</time>
      </trkpt>
      <trkpt lat="59.8918015" lon="17.7467446">
        <ele>20.8057</ele>
        <time>2013-06-02T09:17:58Z</time>
      </trkpt>
      <trkpt lat="59.891742" lon="17.7468335">
        <ele>20.8057</ele>
        <time>2013-06-02T09:17:59Z</time>
      </trkpt>
      <trkpt lat="59.8916835" lon="17.7469198">
        <ele>20.8057</ele>
        <time>2013-06-02T09:18:00Z</time>
      </trkpt>
      <trkpt lat="59.8916266" lon="17.7470038">
        <ele>21.2864</ele>
        <time>2013-06-02T09:18:01Z</time>
      </trkpt>
      <trkpt lat="59.8915707" lon="17.7470878">
        <ele>21.2864</ele>
        <time>2013-06-02T09:18:02Z</time>
      </trkpt>
      <trkpt lat="59.8915162" lon="17.7471705">
        <ele>21.2864</ele>
        <time>2013-06-02T09:18:03Z</time>
      </trkpt>
      <trkpt lat="59.8914621" lon="17.7472497">
        <ele>20.8057</ele>
        <time>2013-06-02T09:18:04Z</time>
      </trkpt>
      <trkpt lat="59.8914084" lon="17.7473255">
        <ele>21.2864</ele>
        <time>2013-06-02T09:18:05Z</time>
      </trkpt>
      <trkpt lat="59.891354" lon="17.7474019">
        <ele>21.2864</ele>
        <time>2013-06-02T09:18:06Z</time>
      </trkpt>
      <trkpt lat="59.8912976" lon="17.7474775">
        <ele>21.2864</ele>
        <time>2013-06-02T09:18:07Z</time>
      </trkpt>
      <trkpt lat="59.8912414" lon="17.7475527">
        <ele>21.2864</ele>
        <time>2013-06-02T09:18:08Z</time>
      </trkpt>
      <trkpt lat="59.8911856" lon="17.7476264">
        <ele>21.2864</ele>
        <time>2013-06-02T09:18:09Z</time>
      </trkpt>
      <trkpt lat="59.8911292" lon="17.7476985">
        <ele>21.2864</ele>
        <time>2013-06-02T09:18:10Z</time>
      </trkpt>
      <trkpt lat="59.8910733" lon="17.7477709">
        <ele>21.2864</ele>
        <time>2013-06-02T09:18:11Z</time>
      </trkpt>
      <trkpt lat="59.8910154" lon="17.7478443">
        <ele>21.2864</ele>
        <time>2013-06-02T09:18:12Z</time>
      </trkpt>
      <trkpt lat="59.8909599" lon="17.747914">
        <ele>21.2864</ele>
        <time>2013-06-02T09:18:13Z</time>
      </trkpt>
      <trkpt lat="59.8909044" lon="17.7479859">
        <ele>21.767</ele>
        <time>2013-06-02T09:18:14Z</time>
      </trkpt>
      <trkpt lat="59.89085" lon="17.74806">
        <ele>21.767</ele>
        <time>2013-06-02T09:18:15Z</time>
      </trkpt>
      <trkpt lat="59.8907962" lon="17.7481339">
        <ele>21.767</ele>
        <time>2013-06-02T09:18:16Z</time>
      </trkpt>
      <trkpt lat="59.8907423" lon="17.7482066">
        <ele>21.767</ele>
        <time>2013-06-02T09:18:17Z</time>
      </trkpt>
      <trkpt lat="59.8906929" lon="17.7482849">
        <ele>21.767</ele>
        <time>2013-06-02T09:18:18Z</time>
      </trkpt>
      <trkpt lat="59.8906509" lon="17.7483645">
        <ele>22.2476</ele>
        <time>2013-06-02T09:18:19Z</time>
      </trkpt>
      <trkpt lat="59.8906119" lon="17.7484463">
        <ele>23.209</ele>
        <time>2013-06-02T09:18:20Z</time>
      </trkpt>
      <trkpt lat="59.8905761" lon="17.7485308">
        <ele>23.6896</ele>
        <time>2013-06-02T09:18:21Z</time>
      </trkpt>
      <trkpt lat="59.8905399" lon="17.7486168">
        <ele>24.1703</ele>
        <time>2013-06-02T09:18:22Z</time>
      </trkpt>
      <trkpt lat="59.8905081" lon="17.7487068">
        <ele>24.1703</ele>
        <time>2013-06-02T09:18:23Z</time>
      </trkpt>
      <trkpt lat="59.8904744" lon="17.7487925">
        <ele>24.651</ele>
        <time>2013-06-02T09:18:24Z</time>
      </trkpt>
      <trkpt lat="59.8904439" lon="17.748877">
        <ele>25.1317</ele>
        <time>2013-06-02T09:18:25Z</time>
      </trkpt>
      <trkpt lat="59.8904078" lon="17.7489691">
        <ele>25.1317</ele>
        <time>2013-06-02T09:18:26Z</time>
      </trkpt>
      <trkpt lat="59.8903738" lon="17.7490529">
        <ele>26.0929</ele>
        <time>2013-06-02T09:18:27Z</time>
      </trkpt>
      <trkpt lat="59.8903355" lon="17.7491343">
        <ele>26.5736</ele>
        <time>2013-06-02T09:18:28Z</time>
      </trkpt>
      <trkpt lat="59.8902989" lon="17.7492147">
        <ele>26.5736</ele>
        <time>2013-06-02T09:18:29Z</time>
      </trkpt>
      <trkpt lat="59.8902672" lon="17.7492927">
        <ele>27.0543</ele>
        <time>2013-06-02T09:18:30Z</time>
      </trkpt>
      <trkpt lat="59.8902393" lon="17.7493659">
        <ele>27.0543</ele>
        <time>2013-06-02T09:18:31Z</time>
      </trkpt>
      <trkpt lat="59.8902096" lon="17.7494445">
        <ele>27.0543</ele>
        <time>2013-06-02T09:18:32Z</time>
      </trkpt>
      <trkpt lat="59.8901741" lon="17.7495249">
        <ele>27.5349</ele>
        <time>2013-06-02T09:18:33Z</time>
      </trkpt>
      <trkpt lat="59.8901334" lon="17.7496083">
        <ele>27.5349</ele>
        <time>2013-06-02T09:18:34Z</time>
      </trkpt>
      <trkpt lat="59.8900911" lon="17.7496896">
        <ele>27.5349</ele>
        <time>2013-06-02T09:18:35Z</time>
      </trkpt>
      <trkpt lat="59.8900445" lon="17.7497694">
        <ele>27.0543</ele>
        <time>2013-06-02T09:18:36Z</time>
      </trkpt>
      <trkpt lat="59.8900036" lon="17.7498413">
        <ele>27.0543</ele>
        <time>2013-06-02T09:18:37Z</time>
      </trkpt>
      <trkpt lat="59.8899618" lon="17.7499129">
        <ele>26.5736</ele>
        <time>2013-06-02T09:18:38Z</time>
      </trkpt>
      <trkpt lat="59.8899177" lon="17.749983">
        <ele>27.0543</ele>
        <time>2013-06-02T09:18:39Z</time>
      </trkpt>
      <trkpt lat="59.8898734" lon="17.7500487">
        <ele>27.5349</ele>
        <time>2013-06-02T09:18:40Z</time>
      </trkpt>
      <trkpt lat="59.8898288" lon="17.7501149">
        <ele>27.5349</ele>
        <time>2013-06-02T09:18:41Z</time>
      </trkpt>
      <trkpt lat="59.8897865" lon="17.7501812">
        <ele>27.5349</ele>
        <time>2013-06-02T09:18:42Z</time>
      </trkpt>
      <trkpt lat="59.8897472" lon="17.750247">
        <ele>27.5349</ele>
        <time>2013-06-02T09:18:43Z</time>
      </trkpt>
      <trkpt lat="59.8897043" lon="17.7503197">
        <ele>28.0155</ele>
        <time>2013-06-02T09:18:44Z</time>
      </trkpt>
      <trkpt lat="59.8896652" lon="17.7503939">
        <ele>28.0155</ele>
        <time>2013-06-02T09:18:45Z</time>
      </trkpt>
      <trkpt lat="59.8896238" lon="17.7504739">
        <ele>28.0155</ele>
        <time>2013-06-02T09:18:46Z</time>
      </trkpt>
      <trkpt lat="59.8895929" lon="17.7505514">
        <ele>28.4962</ele>
        <time>2013-06-02T09:18:47Z</time>
      </trkpt>
      <trkpt lat="59.8895623" lon="17.750638">
        <ele>28.9769</ele>
        <time>2013-06-02T09:18:48Z</time>
      </trkpt>
      <trkpt lat="59.8895353" lon="17.7507371">
        <ele>28.4962</ele>
        <time>2013-06-02T09:18:49Z</time>
      </trkpt>
      <trkpt lat="59.8895137" lon="17.7508376">
        <ele>28.4962</ele>
        <time>2013-06-02T09:18:50Z</time>
      </trkpt>
      <trkpt lat="59.889495" lon="17.7509443">
        <ele>28.4962</ele>
        <time>2013-06-02T09:18:51Z</time>
      </trkpt>
      <trkpt lat="59.8894845" lon="17.751049">
        <ele>28.4962</ele>
        <time>2013-06-02T09:18:52Z</time>
      </trkpt>
      <trkpt lat="59.8894753" lon="17.7511551">
        <ele>28.0155</ele>
        <time>2013-06-02T09:18:53Z</time>
      </trkpt>
      <trkpt lat="59.8894685" lon="17.7512639">
        <ele>28.0155</ele>
        <time>2013-06-02T09:18:54Z</time>
      </trkpt>
      <trkpt lat="59.8894632" lon="17.7513743">
        <ele>28.0155</ele>
        <time>2013-06-02T09:18:55Z</time>
      </trkpt>
      <trkpt lat="59.8894588" lon="17.7514869">
        <ele>27.5349</ele>
        <time>2013-06-02T09:18:56Z</time>
      </trkpt>
      <trkpt lat="59.8894528" lon="17.7516025">
        <ele>27.5349</ele>
        <time>2013-06-02T09:18:57Z</time>
      </trkpt>
      <trkpt lat="59.8894463" lon="17.7517216">
        <ele>27.0543</ele>
        <time>2013-06-02T09:18:58Z</time>
      </trkpt>
      <trkpt lat="59.8894403" lon="17.7518439">
        <ele>27.0543</ele>
        <time>2013-06-02T09:18:59Z</time>
      </trkpt>
      <trkpt lat="59.8894341" lon="17.7519693">
        <ele>27.0543</ele>
        <time>2013-06-02T09:19:00Z</time>
      </trkpt>
      <trkpt lat="59.8894265" lon="17.7520958">
        <ele>27.0543</ele>
        <time>2013-06-02T09:19:01Z</time>
      </trkpt>
      <trkpt lat="59.8894172" lon="17.7522206">
        <ele>27.0543</ele>
        <time>2013-06-02T09:19:02Z</time>
      </trkpt>
      <trkpt lat="59.8894083" lon="17.7523449">
        <ele>27.0543</ele>
        <time>2013-06-02T09:19:03Z</time>
      </trkpt>
      <trkpt lat="59.8894001" lon="17.7524698">
        <ele>27.0543</ele>
        <time>2013-06-02T09:19:04Z</time>
      </trkpt>
      <trkpt lat="59.8893893" lon="17.7525942">
        <ele>27.0543</ele>
        <time>2013-06-02T09:19:05Z</time>
      </trkpt>
      <trkpt lat="59.889375" lon="17.7527182">
        <ele>27.0543</ele>
        <time>2013-06-02T09:19:06Z</time>
      </trkpt>
      <trkpt lat="59.8893566" lon="17.7528407">
        <ele>27.0543</ele>
        <time>2013-06-02T09:19:07Z</time>
      </trkpt>
      <trkpt lat="59.8893362" lon="17.7529594">
        <ele>27.5349</ele>
        <time>2013-06-02T09:19:08Z</time>
      </trkpt>
      <trkpt lat="59.8893118" lon="17.7530728">
        <ele>27.5349</ele>
        <time>2013-06-02T09:19:09Z</time>
      </trkpt>
      <trkpt lat="59.8892836" lon="17.7531824">
        <ele>27.5349</ele>
        <time>2013-06-02T09:19:10Z</time>
      </trkpt>
      <trkpt lat="59.889254" lon="17.7532883">
        <ele>27.5349</ele>
        <time>2013-06-02T09:19:11Z</time>
      </trkpt>
      <trkpt lat="59.8892231" lon="17.7533968">
        <ele>27.0543</ele>
        <time>2013-06-02T09:19:12Z</time>
      </trkpt>
      <trkpt lat="59.8891903" lon="17.7535068">
        <ele>27.0543</ele>
        <time>2013-06-02T09:19:13Z</time>
      </trkpt>
      <trkpt lat="59.8891573" lon="17.7536146">
        <ele>27.0543</ele>
        <time>2013-06-02T09:19:14Z</time>
      </trkpt>
      <trkpt lat="59.8891259" lon="17.7537228">
        <ele>27.5349</ele>
        <time>2013-06-02T09:19:15Z</time>
      </trkpt>
      <trkpt lat="59.8890966" lon="17.7538338">
        <ele>27.5349</ele>
        <time>2013-06-02T09:19:16Z</time>
      </trkpt>
      <trkpt lat="59.8890696" lon="17.7539446">
        <ele>27.0543</ele>
        <time>2013-06-02T09:19:17Z</time>
      </trkpt>
      <trkpt lat="59.8890437" lon="17.7540532">
        <ele>27.5349</ele>
        <time>2013-06-02T09:19:18Z</time>
      </trkpt>
      <trkpt lat="59.8890177" lon="17.7541596">
        <ele>27.5349</ele>
        <time>2013-06-02T09:19:19Z</time>
      </trkpt>
      <trkpt lat="59.8889931" lon="17.7542635">
        <ele>27.5349</ele>
        <time>2013-06-02T09:19:20Z</time>
      </trkpt>
      <trkpt lat="59.8889663" lon="17.7543642">
        <ele>28.0155</ele>
        <time>2013-06-02T09:19:21Z</time>
      </trkpt>
      <trkpt lat="59.8889358" lon="17.754463">
        <ele>28.0155</ele>
        <time>2013-06-02T09:19:22Z</time>
      </trkpt>
      <trkpt lat="59.8889115" lon="17.7545591">
        <ele>28.4962</ele>
        <time>2013-06-02T09:19:23Z</time>
      </trkpt>
      <trkpt lat="59.8888794" lon="17.7546513">
        <ele>28.9769</ele>
        <time>2013-06-02T09:19:24Z</time>
      </trkpt>
      <trkpt lat="59.8888463" lon="17.7547374">
        <ele>29.4575</ele>
        <time>2013-06-02T09:19:25Z</time>
      </trkpt>
      <trkpt lat="59.8888159" lon="17.7548151">
        <ele>29.4575</ele>
        <time>2013-06-02T09:19:26Z</time>
      </trkpt>
      <trkpt lat="59.888782" lon="17.7548861">
        <ele>29.4575</ele>
        <time>2013-06-02T09:19:27Z</time>
      </trkpt>
      <trkpt lat="59.8887444" lon="17.7549517">
        <ele>29.9381</ele>
        <time>2013-06-02T09:19:28Z</time>
      </trkpt>
      <trkpt lat="59.8886961" lon="17.7550152">
        <ele>30.8995</ele>
        <time>2013-06-02T09:19:29Z</time>
      </trkpt>
      <trkpt lat="59.8886516" lon="17.7550644">
        <ele>30.4188</ele>
        <time>2013-06-02T09:19:30Z</time>
      </trkpt>
      <trkpt lat="59.8886035" lon="17.7551101">
        <ele>29.9381</ele>
        <time>2013-06-02T09:19:31Z</time>
      </trkpt>
      <trkpt lat="59.8885537" lon="17.7551513">
        <ele>29.4575</ele>
        <time>2013-06-02T09:19:32Z</time>
      </trkpt>
      <trkpt lat="59.8885019" lon="17.755183">
        <ele>29.4575</ele>
        <time>2013-06-02T09:19:33Z</time>
      </trkpt>
      <trkpt lat="59.8884499" lon="17.7552122">
        <ele>29.4575</ele>
        <time>2013-06-02T09:19:34Z</time>
      </trkpt>
      <trkpt lat="59.8883986" lon="17.755236">
        <ele>29.4575</ele>
        <time>2013-06-02T09:19:35Z</time>
      </trkpt>
      <trkpt lat="59.8883456" lon="17.7552578">
        <ele>29.4575</ele>
        <time>2013-06-02T09:19:36Z</time>
      </trkpt>
      <trkpt lat="59.8882962" lon="17.755272">
        <ele>29.9381</ele>
        <time>2013-06-02T09:19:37Z</time>
      </trkpt>
      <trkpt lat="59.8882465" lon="17.7552774">
        <ele>29.9381</ele>
        <time>2013-06-02T09:19:38Z</time>
      </trkpt>
      <trkpt lat="59.8881973" lon="17.7552777">
        <ele>29.9381</ele>
        <time>2013-06-02T09:19:39Z</time>
      </trkpt>
      <trkpt lat="59.8881495" lon="17.7552751">
        <ele>29.9381</ele>
        <time>2013-06-02T09:19:40Z</time>
      </trkpt>
      <trkpt lat="59.8881024" lon="17.7552749">
        <ele>30.4188</ele>
        <time>2013-06-02T09:19:41Z</time>
      </trkpt>
      <trkpt lat="59.8880549" lon="17.7552721">
        <ele>30.4188</ele>
        <time>2013-06-02T09:19:42Z</time>
      </trkpt>
      <trkpt lat="59.8880056" lon="17.7552685">
        <ele>30.4188</ele>
        <time>2013-06-02T09:19:43Z</time>
      </trkpt>
      <trkpt lat="59.8879555" lon="17.7552646">
        <ele>30.4188</ele>
        <time>2013-06-02T09:19:44Z</time>
      </trkpt>
      <trkpt lat="59.8879053" lon="17.7552586">
        <ele>30.8995</ele>
        <time>2013-06-02T09:19:45Z</time>
      </trkpt>
      <trkpt lat="59.8878535" lon="17.7552521">
        <ele>30.8995</ele>
        <time>2013-06-02T09:19:46Z</time>
      </trkpt>
      <trkpt lat="59.8878005" lon="17.7552456">
        <ele>30.8995</ele>
        <time>2013-06-02T09:19:47Z</time>
      </trkpt>
      <trkpt lat="59.8877471" lon="17.7552411">
        <ele>30.8995</ele>
        <time>2013-06-02T09:19:48Z</time>
      </trkpt>
      <trkpt lat="59.8876936" lon="17.7552453">
        <ele>30.8995</ele>
        <time>2013-06-02T09:19:49Z</time>
      </trkpt>
      <trkpt lat="59.8876405" lon="17.7552594">
        <ele>30.8995</ele>
        <time>2013-06-02T09:19:50Z</time>
      </trkpt>
      <trkpt lat="59.887588" lon="17.7552815">
        <ele>30.8995</ele>
        <time>2013-06-02T09:19:51Z</time>
      </trkpt>
      <trkpt lat="59.8875353" lon="17.7553142">
        <ele>31.3801</ele>
        <time>2013-06-02T09:19:52Z</time>
      </trkpt>
      <trkpt lat="59.8874823" lon="17.7553567">
        <ele>31.3801</ele>
        <time>2013-06-02T09:19:53Z</time>
      </trkpt>
      <trkpt lat="59.8874322" lon="17.7554062">
        <ele>31.8607</ele>
        <time>2013-06-02T09:19:54Z</time>
      </trkpt>
      <trkpt lat="59.8873871" lon="17.7554519">
        <ele>31.8607</ele>
        <time>2013-06-02T09:19:55Z</time>
      </trkpt>
      <trkpt lat="59.887347" lon="17.7554994">
        <ele>32.3416</ele>
        <time>2013-06-02T09:19:56Z</time>
      </trkpt>
      <trkpt lat="59.8873063" lon="17.7555528">
        <ele>32.3416</ele>
        <time>2013-06-02T09:19:57Z</time>
      </trkpt>
      <trkpt lat="59.8872693" lon="17.7556131">
        <ele>32.3416</ele>
        <time>2013-06-02T09:19:58Z</time>
      </trkpt>
      <trkpt lat="59.887236" lon="17.7556768">
        <ele>33.3029</ele>
        <time>2013-06-02T09:19:59Z</time>
      </trkpt>
      <trkpt lat="59.8872008" lon="17.755738">
        <ele>33.3029</ele>
        <time>2013-06-02T09:20:00Z</time>
      </trkpt>
      <trkpt lat="59.8871654" lon="17.7558053">
        <ele>33.7834</ele>
        <time>2013-06-02T09:20:01Z</time>
      </trkpt>
      <trkpt lat="59.8871316" lon="17.7558707">
        <ele>34.7449</ele>
        <time>2013-06-02T09:20:02Z</time>
      </trkpt>
      <trkpt lat="59.8870946" lon="17.7559337">
        <ele>35.7061</ele>
        <time>2013-06-02T09:20:03Z</time>
      </trkpt>
      <trkpt lat="59.887056" lon="17.7559979">
        <ele>35.2255</ele>
        <time>2013-06-02T09:20:04Z</time>
      </trkpt>
      <trkpt lat="59.8870194" lon="17.7560621">
        <ele>36.1868</ele>
        <time>2013-06-02T09:20:05Z</time>
      </trkpt>
      <trkpt lat="59.8869769" lon="17.7561264">
        <ele>36.6675</ele>
        <time>2013-06-02T09:20:06Z</time>
      </trkpt>
      <trkpt lat="59.8869317" lon="17.7561843">
        <ele>36.6675</ele>
        <time>2013-06-02T09:20:07Z</time>
      </trkpt>
      <trkpt lat="59.8868803" lon="17.7562397">
        <ele>36.6675</ele>
        <time>2013-06-02T09:20:08Z</time>
      </trkpt>
      <trkpt lat="59.8868241" lon="17.7562984">
        <ele>35.7061</ele>
        <time>2013-06-02T09:20:09Z</time>
      </trkpt>
      <trkpt lat="59.8867684" lon="17.7563583">
        <ele>35.2255</ele>
        <time>2013-06-02T09:20:10Z</time>
      </trkpt>
      <trkpt lat="59.8867116" lon="17.7564089">
        <ele>35.2255</ele>
        <time>2013-06-02T09:20:11Z</time>
      </trkpt>
      <trkpt lat="59.8866509" lon="17.7564549">
        <ele>34.7449</ele>
        <time>2013-06-02T09:20:12Z</time>
      </trkpt>
      <trkpt lat="59.8865942" lon="17.7565015">
        <ele>34.7449</ele>
        <time>2013-06-02T09:20:13Z</time>
      </trkpt>
      <trkpt lat="59.8865386" lon="17.7565527">
        <ele>34.2642</ele>
        <time>2013-06-02T09:20:14Z</time>
      </trkpt>
      <trkpt lat="59.8864825" lon="17.7565962">
        <ele>34.2642</ele>
        <time>2013-06-02T09:20:15Z</time>
      </trkpt>
      <trkpt lat="59.8864236" lon="17.7566393">
        <ele>33.7834</ele>
        <time>2013-06-02T09:20:16Z</time>
      </trkpt>
      <trkpt lat="59.8863561" lon="17.7567035">
        <ele>32.3416</ele>
        <time>2013-06-02T09:20:17Z</time>
      </trkpt>
      <trkpt lat="59.8862842" lon="17.7567657">
        <ele>31.8607</ele>
        <time>2013-06-02T09:20:18Z</time>
      </trkpt>
      <trkpt lat="59.8862095" lon="17.7568314">
        <ele>30.8995</ele>
        <time>2013-06-02T09:20:19Z</time>
      </trkpt>
      <trkpt lat="59.8861364" lon="17.7569053">
        <ele>30.8995</ele>
        <time>2013-06-02T09:20:20Z</time>
      </trkpt>
      <trkpt lat="59.8860557" lon="17.7570079">
        <ele>30.4188</ele>
        <time>2013-06-02T09:20:21Z</time>
      </trkpt>
      <trkpt lat="59.8859863" lon="17.7571079">
        <ele>29.9381</ele>
        <time>2013-06-02T09:20:22Z</time>
      </trkpt>
      <trkpt lat="59.8859236" lon="17.7572068">
        <ele>29.9381</ele>
        <time>2013-06-02T09:20:23Z</time>
      </trkpt>
      <trkpt lat="59.8858699" lon="17.7573075">
        <ele>29.9381</ele>
        <time>2013-06-02T09:20:24Z</time>
      </trkpt>
      <trkpt lat="59.8858217" lon="17.7574169">
        <ele>29.9381</ele>
        <time>2013-06-02T09:20:25Z</time>
      </trkpt>
      <trkpt lat="59.8857678" lon="17.7575359">
        <ele>28.9769</ele>
        <time>2013-06-02T09:20:26Z</time>
      </trkpt>
      <trkpt lat="59.8857274" lon="17.757659">
        <ele>28.4962</ele>
        <time>2013-06-02T09:20:27Z</time>
      </trkpt>
      <trkpt lat="59.8856917" lon="17.7577968">
        <ele>28.4962</ele>
        <time>2013-06-02T09:20:28Z</time>
      </trkpt>
      <trkpt lat="59.8856576" lon="17.757941">
        <ele>28.0155</ele>
        <time>2013-06-02T09:20:29Z</time>
      </trkpt>
      <trkpt lat="59.8856281" lon="17.7580902">
        <ele>28.0155</ele>
        <time>2013-06-02T09:20:30Z</time>
      </trkpt>
      <trkpt lat="59.8856014" lon="17.7582413">
        <ele>28.0155</ele>
        <time>2013-06-02T09:20:31Z</time>
      </trkpt>
      <trkpt lat="59.8855788" lon="17.7583938">
        <ele>27.5349</ele>
        <time>2013-06-02T09:20:32Z</time>
      </trkpt>
      <trkpt lat="59.8855579" lon="17.7585505">
        <ele>27.5349</ele>
        <time>2013-06-02T09:20:33Z</time>
      </trkpt>
      <trkpt lat="59.8855441" lon="17.7587217">
        <ele>27.5349</ele>
        <time>2013-06-02T09:20:34Z</time>
      </trkpt>
      <trkpt lat="59.8855182" lon="17.7588953">
        <ele>27.0543</ele>
        <time>2013-06-02T09:20:35Z</time>
      </trkpt>
      <trkpt lat="59.8855" lon="17.7590516">
        <ele>27.0543</ele>
        <time>2013-06-02T09:20:36Z</time>
      </trkpt>
      <trkpt lat="59.8854833" lon="17.7591998">
        <ele>26.5736</ele>
        <time>2013-06-02T09:20:37Z</time>
      </trkpt>
      <trkpt lat="59.8854652" lon="17.7593458">
        <ele>26.5736</ele>
        <time>2013-06-02T09:20:38Z</time>
      </trkpt>
      <trkpt lat="59.8854537" lon="17.7594762">
        <ele>26.5736</ele>
        <time>2013-06-02T09:20:39Z</time>
      </trkpt>
      <trkpt lat="59.8854378" lon="17.7596104">
        <ele>26.0929</ele>
        <time>2013-06-02T09:20:40Z</time>
      </trkpt>
      <trkpt lat="59.8854234" lon="17.7597451">
        <ele>26.0929</ele>
        <time>2013-06-02T09:20:41Z</time>
      </trkpt>
      <trkpt lat="59.885409" lon="17.7598777">
        <ele>26.0929</ele>
        <time>2013-06-02T09:20:42Z</time>
      </trkpt>
      <trkpt lat="59.8853939" lon="17.7600053">
        <ele>26.0929</ele>
        <time>2013-06-02T09:20:43Z</time>
      </trkpt>
      <trkpt lat="59.8853792" lon="17.7601332">
        <ele>26.5736</ele>
        <time>2013-06-02T09:20:44Z</time>
      </trkpt>
      <trkpt lat="59.8853662" lon="17.7602596">
        <ele>26.0929</ele>
        <time>2013-06-02T09:20:45Z</time>
      </trkpt>
      <trkpt lat="59.8853528" lon="17.7603846">
        <ele>26.0929</ele>
        <time>2013-06-02T09:20:46Z</time>
      </trkpt>
      <trkpt lat="59.8853437" lon="17.7605086">
        <ele>26.5736</ele>
        <time>2013-06-02T09:20:47Z</time>
      </trkpt>
      <trkpt lat="59.8853431" lon="17.7606547">
        <ele>27.0543</ele>
        <time>2013-06-02T09:20:48Z</time>
      </trkpt>
      <trkpt lat="59.8853327" lon="17.760771">
        <ele>27.0543</ele>
        <time>2013-06-02T09:20:49Z</time>
      </trkpt>
      <trkpt lat="59.8853281" lon="17.7608756">
        <ele>27.0543</ele>
        <time>2013-06-02T09:20:50Z</time>
      </trkpt>
      <trkpt lat="59.8853188" lon="17.7609808">
        <ele>26.5736</ele>
        <time>2013-06-02T09:20:51Z</time>
      </trkpt>
      <trkpt lat="59.8853178" lon="17.761088">
        <ele>26.0929</ele>
        <time>2013-06-02T09:20:52Z</time>
      </trkpt>
      <trkpt lat="59.8853185" lon="17.7611813">
        <ele>25.1317</ele>
        <time>2013-06-02T09:20:53Z</time>
      </trkpt>
      <trkpt lat="59.8852996" lon="17.7613012">
        <ele>26.0929</ele>
        <time>2013-06-02T09:20:54Z</time>
      </trkpt>
      <trkpt lat="59.8852856" lon="17.7614148">
        <ele>25.6123</ele>
        <time>2013-06-02T09:20:55Z</time>
      </trkpt>
      <trkpt lat="59.8852524" lon="17.7615334">
        <ele>26.5736</ele>
        <time>2013-06-02T09:20:56Z</time>
      </trkpt>
      <trkpt lat="59.8852271" lon="17.7616515">
        <ele>27.0543</ele>
        <time>2013-06-02T09:20:57Z</time>
      </trkpt>
      <trkpt lat="59.8852053" lon="17.7617695">
        <ele>26.5736</ele>
        <time>2013-06-02T09:20:58Z</time>
      </trkpt>
      <trkpt lat="59.8851887" lon="17.7618881">
        <ele>26.5736</ele>
        <time>2013-06-02T09:20:59Z</time>
      </trkpt>
      <trkpt lat="59.8851737" lon="17.7620095">
        <ele>26.5736</ele>
        <time>2013-06-02T09:21:00Z</time>
      </trkpt>
      <trkpt lat="59.8851494" lon="17.7621443">
        <ele>26.5736</ele>
        <time>2013-06-02T09:21:01Z</time>
      </trkpt>
      <trkpt lat="59.8851272" lon="17.7622721">
        <ele>27.0543</ele>
        <time>2013-06-02T09:21:02Z</time>
      </trkpt>
      <trkpt lat="59.8851095" lon="17.7623913">
        <ele>27.0543</ele>
        <time>2013-06-02T09:21:03Z</time>
      </trkpt>
      <trkpt lat="59.8850919" lon="17.7625092">
        <ele>27.5349</ele>
        <time>2013-06-02T09:21:04Z</time>
      </trkpt>
      <trkpt lat="59.8850773" lon="17.7626197">
        <ele>27.5349</ele>
        <time>2013-06-02T09:21:05Z</time>
      </trkpt>
      <trkpt lat="59.8850531" lon="17.7627335">
        <ele>28.0155</ele>
        <time>2013-06-02T09:21:06Z</time>
      </trkpt>
      <trkpt lat="59.8850272" lon="17.7628545">
        <ele>28.4962</ele>
        <time>2013-06-02T09:21:07Z</time>
      </trkpt>
      <trkpt lat="59.8850007" lon="17.7629786">
        <ele>28.4962</ele>
        <time>2013-06-02T09:21:08Z</time>
      </trkpt>
      <trkpt lat="59.88498" lon="17.7630957">
        <ele>28.9769</ele>
        <time>2013-06-02T09:21:09Z</time>
      </trkpt>
      <trkpt lat="59.8849643" lon="17.7632018">
        <ele>28.9769</ele>
        <time>2013-06-02T09:21:10Z</time>
      </trkpt>
      <trkpt lat="59.8849451" lon="17.7633107">
        <ele>29.4575</ele>
        <time>2013-06-02T09:21:11Z</time>
      </trkpt>
      <trkpt lat="59.8849193" lon="17.7634165">
        <ele>29.9381</ele>
        <time>2013-06-02T09:21:12Z</time>
      </trkpt>
      <trkpt lat="59.8848948" lon="17.7635134">
        <ele>30.4188</ele>
        <time>2013-06-02T09:21:13Z</time>
      </trkpt>
      <trkpt lat="59.8848687" lon="17.763618">
        <ele>30.4188</ele>
        <time>2013-06-02T09:21:14Z</time>
      </trkpt>
      <trkpt lat="59.8848397" lon="17.7637315">
        <ele>30.8995</ele>
        <time>2013-06-02T09:21:15Z</time>
      </trkpt>
      <trkpt lat="59.8848126" lon="17.7638417">
        <ele>30.8995</ele>
        <time>2013-06-02T09:21:16Z</time>
      </trkpt>
      <trkpt lat="59.8847903" lon="17.7639441">
        <ele>30.8995</ele>
        <time>2013-06-02T09:21:17Z</time>
      </trkpt>
      <trkpt lat="59.884773" lon="17.7640405">
        <ele>30.4188</ele>
        <time>2013-06-02T09:21:18Z</time>
      </trkpt>
      <trkpt lat="59.8847563" lon="17.7641416">
        <ele>30.4188</ele>
        <time>2013-06-02T09:21:19Z</time>
      </trkpt>
      <trkpt lat="59.8847409" lon="17.7642461">
        <ele>30.4188</ele>
        <time>2013-06-02T09:21:20Z</time>
      </trkpt>
      <trkpt lat="59.8847297" lon="17.7643539">
        <ele>30.4188</ele>
        <time>2013-06-02T09:21:21Z</time>
      </trkpt>
      <trkpt lat="59.8847178" lon="17.7644644">
        <ele>30.4188</ele>
        <time>2013-06-02T09:21:22Z</time>
      </trkpt>
      <trkpt lat="59.8847063" lon="17.7645771">
        <ele>30.8995</ele>
        <time>2013-06-02T09:21:23Z</time>
      </trkpt>
      <trkpt lat="59.8846985" lon="17.7646865">
        <ele>30.8995</ele>
        <time>2013-06-02T09:21:24Z</time>
      </trkpt>
      <trkpt lat="59.884695" lon="17.7647973">
        <ele>31.3801</ele>
        <time>2013-06-02T09:21:25Z</time>
      </trkpt>
      <trkpt lat="59.8846929" lon="17.7649091">
        <ele>31.3801</ele>
        <time>2013-06-02T09:21:26Z</time>
      </trkpt>
      <trkpt lat="59.884693" lon="17.7650176">
        <ele>30.8995</ele>
        <time>2013-06-02T09:21:27Z</time>
      </trkpt>
      <trkpt lat="59.8846887" lon="17.7651347">
        <ele>30.8995</ele>
        <time>2013-06-02T09:21:28Z</time>
      </trkpt>
      <trkpt lat="59.8846822" lon="17.7652595">
        <ele>30.8995</ele>
        <time>2013-06-02T09:21:29Z</time>
      </trkpt>
      <trkpt lat="59.8846774" lon="17.765378">
        <ele>30.4188</ele>
        <time>2013-06-02T09:21:30Z</time>
      </trkpt>
      <trkpt lat="59.8846696" lon="17.7655046">
        <ele>30.4188</ele>
        <time>2013-06-02T09:21:31Z</time>
      </trkpt>
      <trkpt lat="59.8846665" lon="17.7656309">
        <ele>30.4188</ele>
        <time>2013-06-02T09:21:32Z</time>
      </trkpt>
      <trkpt lat="59.8846624" lon="17.7657567">
        <ele>29.9381</ele>
        <time>2013-06-02T09:21:33Z</time>
      </trkpt>
      <trkpt lat="59.884665" lon="17.7658793">
        <ele>29.9381</ele>
        <time>2013-06-02T09:21:34Z</time>
      </trkpt>
      <trkpt lat="59.8846619" lon="17.7660076">
        <ele>28.9769</ele>
        <time>2013-06-02T09:21:35Z</time>
      </trkpt>
      <trkpt lat="59.8846588" lon="17.7661385">
        <ele>28.4962</ele>
        <time>2013-06-02T09:21:36Z</time>
      </trkpt>
      <trkpt lat="59.8846488" lon="17.7662665">
        <ele>28.4962</ele>
        <time>2013-06-02T09:21:37Z</time>
      </trkpt>
      <trkpt lat="59.8846401" lon="17.7663935">
        <ele>28.4962</ele>
        <time>2013-06-02T09:21:38Z</time>
      </trkpt>
      <trkpt lat="59.8846376" lon="17.7665197">
        <ele>28.4962</ele>
        <time>2013-06-02T09:21:39Z</time>
      </trkpt>
      <trkpt lat="59.8846308" lon="17.7666413">
        <ele>28.0155</ele>
        <time>2013-06-02T09:21:40Z</time>
      </trkpt>
      <trkpt lat="59.8846324" lon="17.7667524">
        <ele>28.4962</ele>
        <time>2013-06-02T09:21:41Z</time>
      </trkpt>
      <trkpt lat="59.8846387" lon="17.7668672">
        <ele>28.4962</ele>
        <time>2013-06-02T09:21:42Z</time>
      </trkpt>
      <trkpt lat="59.8846443" lon="17.766977">
        <ele>28.4962</ele>
        <time>2013-06-02T09:21:43Z</time>
      </trkpt>
      <trkpt lat="59.8846444" lon="17.7670827">
        <ele>28.4962</ele>
        <time>2013-06-02T09:21:44Z</time>
      </trkpt>
      <trkpt lat="59.8846484" lon="17.7671816">
        <ele>28.9769</ele>
        <time>2013-06-02T09:21:45Z</time>
      </trkpt>
      <trkpt lat="59.884654" lon="17.7672813">
        <ele>28.9769</ele>
        <time>2013-06-02T09:21:46Z</time>
      </trkpt>
      <trkpt lat="59.8846608" lon="17.7673704">
        <ele>28.0155</ele>
        <time>2013-06-02T09:21:47Z</time>
      </trkpt>
      <trkpt lat="59.8846762" lon="17.7674552">
        <ele>28.0155</ele>
        <time>2013-06-02T09:21:48Z</time>
      </trkpt>
      <trkpt lat="59.884684" lon="17.7675532">
        <ele>27.5349</ele>
        <time>2013-06-02T09:21:49Z</time>
      </trkpt>
      <trkpt lat="59.8846899" lon="17.7676605">
        <ele>27.0543</ele>
        <time>2013-06-02T09:21:50Z</time>
      </trkpt>
      <trkpt lat="59.8846855" lon="17.7677691">
        <ele>26.5736</ele>
        <time>2013-06-02T09:21:51Z</time>
      </trkpt>
      <trkpt lat="59.8846788" lon="17.7678674">
        <ele>26.5736</ele>
        <time>2013-06-02T09:21:52Z</time>
      </trkpt>
      <trkpt lat="59.8846615" lon="17.7679693">
        <ele>27.0543</ele>
        <time>2013-06-02T09:21:53Z</time>
      </trkpt>
      <trkpt lat="59.8846276" lon="17.768084">
        <ele>27.0543</ele>
        <time>2013-06-02T09:21:54Z</time>
      </trkpt>
      <trkpt lat="59.884592" lon="17.7682132">
        <ele>28.0155</ele>
        <time>2013-06-02T09:21:55Z</time>
      </trkpt>
      <trkpt lat="59.8845633" lon="17.7683513">
        <ele>28.0155</ele>
        <time>2013-06-02T09:21:56Z</time>
      </trkpt>
      <trkpt lat="59.8845385" lon="17.768537">
        <ele>28.0155</ele>
        <time>2013-06-02T09:21:57Z</time>
      </trkpt>
      <trkpt lat="59.8845163" lon="17.7687128">
        <ele>28.0155</ele>
        <time>2013-06-02T09:21:58Z</time>
      </trkpt>
      <trkpt lat="59.8845127" lon="17.7688716">
        <ele>28.4962</ele>
        <time>2013-06-02T09:21:59Z</time>
      </trkpt>
      <trkpt lat="59.884528" lon="17.7690263">
        <ele>28.9769</ele>
        <time>2013-06-02T09:22:00Z</time>
      </trkpt>
      <trkpt lat="59.8845586" lon="17.7691694">
        <ele>28.4962</ele>
        <time>2013-06-02T09:22:01Z</time>
      </trkpt>
      <trkpt lat="59.8845884" lon="17.7693342">
        <ele>27.5349</ele>
        <time>2013-06-02T09:22:02Z</time>
      </trkpt>
      <trkpt lat="59.8846351" lon="17.7694391">
        <ele>26.0929</ele>
        <time>2013-06-02T09:22:03Z</time>
      </trkpt>
      <trkpt lat="59.8846872" lon="17.7695344">
        <ele>25.6123</ele>
        <time>2013-06-02T09:22:04Z</time>
      </trkpt>
      <trkpt lat="59.8847385" lon="17.769632">
        <ele>25.1317</ele>
        <time>2013-06-02T09:22:05Z</time>
      </trkpt>
      <trkpt lat="59.8847857" lon="17.76973">
        <ele>25.1317</ele>
        <time>2013-06-02T09:22:06Z</time>
      </trkpt>
      <trkpt lat="59.8848313" lon="17.7698313">
        <ele>24.651</ele>
        <time>2013-06-02T09:22:07Z</time>
      </trkpt>
      <trkpt lat="59.8848789" lon="17.7699331">
        <ele>25.1317</ele>
        <time>2013-06-02T09:22:08Z</time>
      </trkpt>
      <trkpt lat="59.8849255" lon="17.7700374">
        <ele>25.1317</ele>
        <time>2013-06-02T09:22:09Z</time>
      </trkpt>
      <trkpt lat="59.8849714" lon="17.7701358">
        <ele>25.6123</ele>
        <time>2013-06-02T09:22:10Z</time>
      </trkpt>
      <trkpt lat="59.8850179" lon="17.7702324">
        <ele>25.1317</ele>
        <time>2013-06-02T09:22:11Z</time>
      </trkpt>
      <trkpt lat="59.8850623" lon="17.7703199">
        <ele>25.1317</ele>
        <time>2013-06-02T09:22:12Z</time>
      </trkpt>
      <trkpt lat="59.8851017" lon="17.7703987">
        <ele>24.651</ele>
        <time>2013-06-02T09:22:13Z</time>
      </trkpt>
      <trkpt lat="59.8851473" lon="17.7704723">
        <ele>24.1703</ele>
        <time>2013-06-02T09:22:14Z</time>
      </trkpt>
      <trkpt lat="59.8851986" lon="17.7705466">
        <ele>24.1703</ele>
        <time>2013-06-02T09:22:15Z</time>
      </trkpt>
      <trkpt lat="59.8852494" lon="17.7706209">
        <ele>24.651</ele>
        <time>2013-06-02T09:22:16Z</time>
      </trkpt>
      <trkpt lat="59.8853016" lon="17.7706933">
        <ele>25.1317</ele>
        <time>2013-06-02T09:22:17Z</time>
      </trkpt>
      <trkpt lat="59.8853529" lon="17.7707632">
        <ele>25.1317</ele>
        <time>2013-06-02T09:22:18Z</time>
      </trkpt>
      <trkpt lat="59.8854071" lon="17.7708369">
        <ele>25.1317</ele>
        <time>2013-06-02T09:22:19Z</time>
      </trkpt>
      <trkpt lat="59.8854586" lon="17.7709094">
        <ele>25.6123</ele>
        <time>2013-06-02T09:22:20Z</time>
      </trkpt>
      <trkpt lat="59.8855108" lon="17.7709828">
        <ele>25.6123</ele>
        <time>2013-06-02T09:22:21Z</time>
      </trkpt>
      <trkpt lat="59.8855609" lon="17.7710602">
        <ele>26.5736</ele>
        <time>2013-06-02T09:22:22Z</time>
      </trkpt>
      <trkpt lat="59.8855993" lon="17.7711587">
        <ele>26.5736</ele>
        <time>2013-06-02T09:22:23Z</time>
      </trkpt>
      <trkpt lat="59.8856314" lon="17.7712673">
        <ele>26.5736</ele>
        <time>2013-06-02T09:22:24Z</time>
      </trkpt>
      <trkpt lat="59.8856659" lon="17.7713804">
        <ele>27.0543</ele>
        <time>2013-06-02T09:22:25Z</time>
      </trkpt>
      <trkpt lat="59.8856963" lon="17.7715005">
        <ele>27.5349</ele>
        <time>2013-06-02T09:22:26Z</time>
      </trkpt>
      <trkpt lat="59.8857161" lon="17.7716207">
        <ele>28.0155</ele>
        <time>2013-06-02T09:22:27Z</time>
      </trkpt>
      <trkpt lat="59.885726" lon="17.7717418">
        <ele>28.4962</ele>
        <time>2013-06-02T09:22:28Z</time>
      </trkpt>
      <trkpt lat="59.8857317" lon="17.7718582">
        <ele>28.0155</ele>
        <time>2013-06-02T09:22:29Z</time>
      </trkpt>
      <trkpt lat="59.8857419" lon="17.7719802">
        <ele>28.0155</ele>
        <time>2013-06-02T09:22:30Z</time>
      </trkpt>
      <trkpt lat="59.8857425" lon="17.7721019">
        <ele>28.9769</ele>
        <time>2013-06-02T09:22:31Z</time>
      </trkpt>
      <trkpt lat="59.88574" lon="17.7722246">
        <ele>28.4962</ele>
        <time>2013-06-02T09:22:32Z</time>
      </trkpt>
      <trkpt lat="59.88573" lon="17.7723457">
        <ele>28.4962</ele>
        <time>2013-06-02T09:22:33Z</time>
      </trkpt>
      <trkpt lat="59.8857149" lon="17.7724634">
        <ele>28.4962</ele>
        <time>2013-06-02T09:22:34Z</time>
      </trkpt>
      <trkpt lat="59.8856915" lon="17.7725757">
        <ele>28.0155</ele>
        <time>2013-06-02T09:22:35Z</time>
      </trkpt>
      <trkpt lat="59.8856585" lon="17.7726826">
        <ele>27.5349</ele>
        <time>2013-06-02T09:22:36Z</time>
      </trkpt>
      <trkpt lat="59.8856159" lon="17.7727851">
        <ele>27.5349</ele>
        <time>2013-06-02T09:22:37Z</time>
      </trkpt>
      <trkpt lat="59.8855659" lon="17.7728809">
        <ele>27.5349</ele>
        <time>2013-06-02T09:22:38Z</time>
      </trkpt>
      <trkpt lat="59.8855136" lon="17.7729714">
        <ele>28.0155</ele>
        <time>2013-06-02T09:22:39Z</time>
      </trkpt>
      <trkpt lat="59.8854445" lon="17.7730576">
        <ele>28.9769</ele>
        <time>2013-06-02T09:22:40Z</time>
      </trkpt>
      <trkpt lat="59.8853841" lon="17.7731337">
        <ele>29.4575</ele>
        <time>2013-06-02T09:22:41Z</time>
      </trkpt>
      <trkpt lat="59.8853301" lon="17.7732187">
        <ele>29.9381</ele>
        <time>2013-06-02T09:22:42Z</time>
      </trkpt>
      <trkpt lat="59.8852751" lon="17.7733135">
        <ele>28.4962</ele>
        <time>2013-06-02T09:22:43Z</time>
      </trkpt>
      <trkpt lat="59.8852232" lon="17.7734125">
        <ele>28.4962</ele>
        <time>2013-06-02T09:22:44Z</time>
      </trkpt>
      <trkpt lat="59.8851774" lon="17.7735215">
        <ele>28.9769</ele>
        <time>2013-06-02T09:22:45Z</time>
      </trkpt>
      <trkpt lat="59.8851355" lon="17.773632">
        <ele>29.4575</ele>
        <time>2013-06-02T09:22:46Z</time>
      </trkpt>
      <trkpt lat="59.8850976" lon="17.7737472">
        <ele>29.9381</ele>
        <time>2013-06-02T09:22:47Z</time>
      </trkpt>
      <trkpt lat="59.8850636" lon="17.7738647">
        <ele>29.9381</ele>
        <time>2013-06-02T09:22:48Z</time>
      </trkpt>
      <trkpt lat="59.8850296" lon="17.7739858">
        <ele>29.9381</ele>
        <time>2013-06-02T09:22:49Z</time>
      </trkpt>
      <trkpt lat="59.8849985" lon="17.7741112">
        <ele>30.4188</ele>
        <time>2013-06-02T09:22:50Z</time>
      </trkpt>
      <trkpt lat="59.88497" lon="17.7742359">
        <ele>30.8995</ele>
        <time>2013-06-02T09:22:51Z</time>
      </trkpt>
      <trkpt lat="59.8849401" lon="17.7743548">
        <ele>30.8995</ele>
        <time>2013-06-02T09:22:52Z</time>
      </trkpt>
      <trkpt lat="59.8849064" lon="17.7744675">
        <ele>29.9381</ele>
        <time>2013-06-02T09:22:53Z</time>
      </trkpt>
      <trkpt lat="59.8848756" lon="17.7745754">
        <ele>29.4575</ele>
        <time>2013-06-02T09:22:54Z</time>
      </trkpt>
      <trkpt lat="59.884839" lon="17.774679">
        <ele>28.4962</ele>
        <time>2013-06-02T09:22:55Z</time>
      </trkpt>
      <trkpt lat="59.8847972" lon="17.774791">
        <ele>28.4962</ele>
        <time>2013-06-02T09:22:56Z</time>
      </trkpt>
      <trkpt lat="59.884758" lon="17.7749018">
        <ele>28.4962</ele>
        <time>2013-06-02T09:22:57Z</time>
      </trkpt>
      <trkpt lat="59.884722" lon="17.7750146">
        <ele>28.9769</ele>
        <time>2013-06-02T09:22:58Z</time>
      </trkpt>
      <trkpt lat="59.8846883" lon="17.7751263">
        <ele>29.9381</ele>
        <time>2013-06-02T09:22:59Z</time>
      </trkpt>
      <trkpt lat="59.8846551" lon="17.7752379">
        <ele>30.8995</ele>
        <time>2013-06-02T09:23:00Z</time>
      </trkpt>
      <trkpt lat="59.8846187" lon="17.7753441">
        <ele>31.3801</ele>
        <time>2013-06-02T09:23:01Z</time>
      </trkpt>
      <trkpt lat="59.8845841" lon="17.7754511">
        <ele>31.8607</ele>
        <time>2013-06-02T09:23:02Z</time>
      </trkpt>
      <trkpt lat="59.8845504" lon="17.775558">
        <ele>31.8607</ele>
        <time>2013-06-02T09:23:03Z</time>
      </trkpt>
      <trkpt lat="59.8845048" lon="17.7756714">
        <ele>32.3416</ele>
        <time>2013-06-02T09:23:04Z</time>
      </trkpt>
      <trkpt lat="59.8844614" lon="17.7757849">
        <ele>32.3416</ele>
        <time>2013-06-02T09:23:05Z</time>
      </trkpt>
      <trkpt lat="59.8844195" lon="17.7758978">
        <ele>32.3416</ele>
        <time>2013-06-02T09:23:06Z</time>
      </trkpt>
      <trkpt lat="59.8843794" lon="17.7760123">
        <ele>32.8223</ele>
        <time>2013-06-02T09:23:07Z</time>
      </trkpt>
      <trkpt lat="59.8843408" lon="17.7761287">
        <ele>32.8223</ele>
        <time>2013-06-02T09:23:08Z</time>
      </trkpt>
      <trkpt lat="59.8843055" lon="17.7762432">
        <ele>33.3029</ele>
        <time>2013-06-02T09:23:09Z</time>
      </trkpt>
      <trkpt lat="59.8842702" lon="17.7763567">
        <ele>33.7834</ele>
        <time>2013-06-02T09:23:10Z</time>
      </trkpt>
      <trkpt lat="59.884235" lon="17.7764734">
        <ele>33.7834</ele>
        <time>2013-06-02T09:23:11Z</time>
      </trkpt>
      <trkpt lat="59.8842022" lon="17.7765904">
        <ele>34.2642</ele>
        <time>2013-06-02T09:23:12Z</time>
      </trkpt>
      <trkpt lat="59.884168" lon="17.7767095">
        <ele>33.7834</ele>
        <time>2013-06-02T09:23:13Z</time>
      </trkpt>
      <trkpt lat="59.8841299" lon="17.7768282">
        <ele>33.3029</ele>
        <time>2013-06-02T09:23:14Z</time>
      </trkpt>
      <trkpt lat="59.884091" lon="17.7769443">
        <ele>33.7834</ele>
        <time>2013-06-02T09:23:15Z</time>
      </trkpt>
      <trkpt lat="59.8840495" lon="17.7770539">
        <ele>34.2642</ele>
        <time>2013-06-02T09:23:16Z</time>
      </trkpt>
      <trkpt lat="59.884003" lon="17.7771552">
        <ele>34.2642</ele>
        <time>2013-06-02T09:23:17Z</time>
      </trkpt>
      <trkpt lat="59.8839539" lon="17.7772455">
        <ele>34.2642</ele>
        <time>2013-06-02T09:23:18Z</time>
      </trkpt>
      <trkpt lat="59.8839015" lon="17.7773292">
        <ele>34.7449</ele>
        <time>2013-06-02T09:23:19Z</time>
      </trkpt>
      <trkpt lat="59.8838475" lon="17.7774046">
        <ele>35.2255</ele>
        <time>2013-06-02T09:23:20Z</time>
      </trkpt>
      <trkpt lat="59.8837919" lon="17.7774747">
        <ele>34.7449</ele>
        <time>2013-06-02T09:23:21Z</time>
      </trkpt>
      <trkpt lat="59.8837344" lon="17.7775414">
        <ele>35.2255</ele>
        <time>2013-06-02T09:23:22Z</time>
      </trkpt>
      <trkpt lat="59.883672" lon="17.7776021">
        <ele>35.2255</ele>
        <time>2013-06-02T09:23:23Z</time>
      </trkpt>
      <trkpt lat="59.8836098" lon="17.7776496">
        <ele>35.2255</ele>
        <time>2013-06-02T09:23:24Z</time>
      </trkpt>
      <trkpt lat="59.8835466" lon="17.7776841">
        <ele>35.2255</ele>
        <time>2013-06-02T09:23:25Z</time>
      </trkpt>
      <trkpt lat="59.8834819" lon="17.777713">
        <ele>35.7061</ele>
        <time>2013-06-02T09:23:26Z</time>
      </trkpt>
      <trkpt lat="59.8834165" lon="17.7777347">
        <ele>35.7061</ele>
        <time>2013-06-02T09:23:27Z</time>
      </trkpt>
      <trkpt lat="59.8833513" lon="17.7777482">
        <ele>35.2255</ele>
        <time>2013-06-02T09:23:28Z</time>
      </trkpt>
      <trkpt lat="59.8832848" lon="17.7777614">
        <ele>35.2255</ele>
        <time>2013-06-02T09:23:29Z</time>
      </trkpt>
      <trkpt lat="59.8832197" lon="17.7777768">
        <ele>34.7449</ele>
        <time>2013-06-02T09:23:30Z</time>
      </trkpt>
      <trkpt lat="59.8831527" lon="17.7778025">
        <ele>33.7834</ele>
        <time>2013-06-02T09:23:31Z</time>
      </trkpt>
      <trkpt lat="59.8830841" lon="17.7778384">
        <ele>32.8223</ele>
        <time>2013-06-02T09:23:32Z</time>
      </trkpt>
      <trkpt lat="59.8830137" lon="17.7778985">
        <ele>30.8995</ele>
        <time>2013-06-02T09:23:33Z</time>
      </trkpt>
      <trkpt lat="59.8829644" lon="17.7779831">
        <ele>30.8995</ele>
        <time>2013-06-02T09:23:34Z</time>
      </trkpt>
      <trkpt lat="59.8829229" lon="17.7780924">
        <ele>30.8995</ele>
        <time>2013-06-02T09:23:35Z</time>
      </trkpt>
      <trkpt lat="59.8828985" lon="17.7782166">
        <ele>30.8995</ele>
        <time>2013-06-02T09:23:36Z</time>
      </trkpt>
      <trkpt lat="59.8828866" lon="17.7783421">
        <ele>29.9381</ele>
        <time>2013-06-02T09:23:37Z</time>
      </trkpt>
      <trkpt lat="59.8828845" lon="17.7784699">
        <ele>29.9381</ele>
        <time>2013-06-02T09:23:38Z</time>
      </trkpt>
      <trkpt lat="59.8828918" lon="17.7785967">
        <ele>29.9381</ele>
        <time>2013-06-02T09:23:39Z</time>
      </trkpt>
      <trkpt lat="59.8829037" lon="17.7787229">
        <ele>29.4575</ele>
        <time>2013-06-02T09:23:40Z</time>
      </trkpt>
      <trkpt lat="59.8829125" lon="17.7788491">
        <ele>29.4575</ele>
        <time>2013-06-02T09:23:41Z</time>
      </trkpt>
      <trkpt lat="59.8829212" lon="17.7789734">
        <ele>29.4575</ele>
        <time>2013-06-02T09:23:42Z</time>
      </trkpt>
      <trkpt lat="59.8829367" lon="17.7790908">
        <ele>29.4575</ele>
        <time>2013-06-02T09:23:43Z</time>
      </trkpt>
      <trkpt lat="59.8829517" lon="17.7792032">
        <ele>29.4575</ele>
        <time>2013-06-02T09:23:44Z</time>
      </trkpt>
      <trkpt lat="59.8829746" lon="17.7793046">
        <ele>29.4575</ele>
        <time>2013-06-02T09:23:45Z</time>
      </trkpt>
      <trkpt lat="59.8830043" lon="17.7793985">
        <ele>28.0155</ele>
        <time>2013-06-02T09:23:46Z</time>
      </trkpt>
      <trkpt lat="59.8830326" lon="17.7794904">
        <ele>27.5349</ele>
        <time>2013-06-02T09:23:47Z</time>
      </trkpt>
      <trkpt lat="59.8830637" lon="17.7795809">
        <ele>27.5349</ele>
        <time>2013-06-02T09:23:48Z</time>
      </trkpt>
      <trkpt lat="59.8830989" lon="17.7796678">
        <ele>27.5349</ele>
        <time>2013-06-02T09:23:49Z</time>
      </trkpt>
      <trkpt lat="59.8831368" lon="17.7797524">
        <ele>27.5349</ele>
        <time>2013-06-02T09:23:50Z</time>
      </trkpt>
      <trkpt lat="59.8831742" lon="17.7798368">
        <ele>27.5349</ele>
        <time>2013-06-02T09:23:51Z</time>
      </trkpt>
      <trkpt lat="59.8832104" lon="17.7799233">
        <ele>27.5349</ele>
        <time>2013-06-02T09:23:52Z</time>
      </trkpt>
      <trkpt lat="59.8832409" lon="17.7800185">
        <ele>27.5349</ele>
        <time>2013-06-02T09:23:53Z</time>
      </trkpt>
      <trkpt lat="59.8832684" lon="17.7801238">
        <ele>27.5349</ele>
        <time>2013-06-02T09:23:54Z</time>
      </trkpt>
      <trkpt lat="59.8833005" lon="17.780231">
        <ele>27.5349</ele>
        <time>2013-06-02T09:23:55Z</time>
      </trkpt>
      <trkpt lat="59.8833223" lon="17.7803361">
        <ele>27.5349</ele>
        <time>2013-06-02T09:23:56Z</time>
      </trkpt>
      <trkpt lat="59.8833395" lon="17.7804425">
        <ele>27.5349</ele>
        <time>2013-06-02T09:23:57Z</time>
      </trkpt>
      <trkpt lat="59.8833508" lon="17.7805515">
        <ele>28.0155</ele>
        <time>2013-06-02T09:23:58Z</time>
      </trkpt>
      <trkpt lat="59.8833561" lon="17.7806595">
        <ele>28.4962</ele>
        <time>2013-06-02T09:23:59Z</time>
      </trkpt>
      <trkpt lat="59.8833524" lon="17.7807623">
        <ele>28.0155</ele>
        <time>2013-06-02T09:24:00Z</time>
      </trkpt>
      <trkpt lat="59.883349" lon="17.7808649">
        <ele>27.5349</ele>
        <time>2013-06-02T09:24:01Z</time>
      </trkpt>
      <trkpt lat="59.8833481" lon="17.7809692">
        <ele>27.0543</ele>
        <time>2013-06-02T09:24:02Z</time>
      </trkpt>
      <trkpt lat="59.8833288" lon="17.7810748">
        <ele>27.0543</ele>
        <time>2013-06-02T09:24:03Z</time>
      </trkpt>
      <trkpt lat="59.8833128" lon="17.7811791">
        <ele>26.0929</ele>
        <time>2013-06-02T09:24:04Z</time>
      </trkpt>
      <trkpt lat="59.8832963" lon="17.7812876">
        <ele>26.5736</ele>
        <time>2013-06-02T09:24:05Z</time>
      </trkpt>
      <trkpt lat="59.8832727" lon="17.781407">
        <ele>26.0929</ele>
        <time>2013-06-02T09:24:06Z</time>
      </trkpt>
      <trkpt lat="59.883275" lon="17.7815202">
        <ele>26.0929</ele>
        <time>2013-06-02T09:24:07Z</time>
      </trkpt>
      <trkpt lat="59.8832804" lon="17.7816334">
        <ele>26.5736</ele>
        <time>2013-06-02T09:24:08Z</time>
      </trkpt>
      <trkpt lat="59.8832756" lon="17.7817503">
        <ele>27.0543</ele>
        <time>2013-06-02T09:24:09Z</time>
      </trkpt>
      <trkpt lat="59.8832783" lon="17.7818591">
        <ele>27.0543</ele>
        <time>2013-06-02T09:24:10Z</time>
      </trkpt>
      <trkpt lat="59.8832828" lon="17.7819623">
        <ele>28.0155</ele>
        <time>2013-06-02T09:24:11Z</time>
      </trkpt>
      <trkpt lat="59.883289" lon="17.7820646">
        <ele>28.9769</ele>
        <time>2013-06-02T09:24:12Z</time>
      </trkpt>
      <trkpt lat="59.8832861" lon="17.7821693">
        <ele>29.4575</ele>
        <time>2013-06-02T09:24:13Z</time>
      </trkpt>
      <trkpt lat="59.8832778" lon="17.782277">
        <ele>30.4188</ele>
        <time>2013-06-02T09:24:14Z</time>
      </trkpt>
      <trkpt lat="59.8832668" lon="17.7823798">
        <ele>30.8995</ele>
        <time>2013-06-02T09:24:15Z</time>
      </trkpt>
      <trkpt lat="59.883255" lon="17.7824694">
        <ele>30.8995</ele>
        <time>2013-06-02T09:24:16Z</time>
      </trkpt>
      <trkpt lat="59.8832487" lon="17.7825439">
        <ele>31.3801</ele>
        <time>2013-06-02T09:24:17Z</time>
      </trkpt>
      <trkpt lat="59.8832239" lon="17.7826127">
        <ele>31.3801</ele>
        <time>2013-06-02T09:24:18Z</time>
      </trkpt>
      <trkpt lat="59.8831757" lon="17.7826573">
        <ele>31.3801</ele>
        <time>2013-06-02T09:24:19Z</time>
      </trkpt>
      <trkpt lat="59.8831108" lon="17.7826807">
        <ele>31.3801</ele>
        <time>2013-06-02T09:24:20Z</time>
      </trkpt>
      <trkpt lat="59.883045" lon="17.7826993">
        <ele>30.8995</ele>
        <time>2013-06-02T09:24:21Z</time>
      </trkpt>
      <trkpt lat="59.8829721" lon="17.7827153">
        <ele>29.9381</ele>
        <time>2013-06-02T09:24:22Z</time>
      </trkpt>
      <trkpt lat="59.8828971" lon="17.7827308">
        <ele>29.4575</ele>
        <time>2013-06-02T09:24:23Z</time>
      </trkpt>
      <trkpt lat="59.8828182" lon="17.7827497">
        <ele>29.4575</ele>
        <time>2013-06-02T09:24:24Z</time>
      </trkpt>
      <trkpt lat="59.8827301" lon="17.7827718">
        <ele>29.4575</ele>
        <time>2013-06-02T09:24:25Z</time>
      </trkpt>
      <trkpt lat="59.8826421" lon="17.7827993">
        <ele>29.9381</ele>
        <time>2013-06-02T09:24:26Z</time>
      </trkpt>
      <trkpt lat="59.8825531" lon="17.7828314">
        <ele>29.9381</ele>
        <time>2013-06-02T09:24:27Z</time>
      </trkpt>
      <trkpt lat="59.8824634" lon="17.782867">
        <ele>29.9381</ele>
        <time>2013-06-02T09:24:28Z</time>
      </trkpt>
      <trkpt lat="59.882375" lon="17.7829017">
        <ele>29.9381</ele>
        <time>2013-06-02T09:24:29Z</time>
      </trkpt>
      <trkpt lat="59.8822887" lon="17.7829366">
        <ele>28.9769</ele>
        <time>2013-06-02T09:24:30Z</time>
      </trkpt>
      <trkpt lat="59.8822028" lon="17.7829691">
        <ele>28.9769</ele>
        <time>2013-06-02T09:24:31Z</time>
      </trkpt>
      <trkpt lat="59.8821154" lon="17.7829983">
        <ele>28.4962</ele>
        <time>2013-06-02T09:24:32Z</time>
      </trkpt>
      <trkpt lat="59.8820251" lon="17.7830205">
        <ele>28.0155</ele>
        <time>2013-06-02T09:24:33Z</time>
      </trkpt>
      <trkpt lat="59.8819316" lon="17.783049">
        <ele>27.5349</ele>
        <time>2013-06-02T09:24:34Z</time>
      </trkpt>
      <trkpt lat="59.881835" lon="17.7830826">
        <ele>27.5349</ele>
        <time>2013-06-02T09:24:35Z</time>
      </trkpt>
      <trkpt lat="59.8817372" lon="17.7831133">
        <ele>27.5349</ele>
        <time>2013-06-02T09:24:36Z</time>
      </trkpt>
      <trkpt lat="59.8816366" lon="17.7831478">
        <ele>27.0543</ele>
        <time>2013-06-02T09:24:37Z</time>
      </trkpt>
      <trkpt lat="59.8815315" lon="17.7831858">
        <ele>26.0929</ele>
        <time>2013-06-02T09:24:38Z</time>
      </trkpt>
      <trkpt lat="59.8814259" lon="17.7832218">
        <ele>25.6123</ele>
        <time>2013-06-02T09:24:39Z</time>
      </trkpt>
      <trkpt lat="59.8813259" lon="17.7832514">
        <ele>25.1317</ele>
        <time>2013-06-02T09:24:40Z</time>
      </trkpt>
      <trkpt lat="59.8812214" lon="17.7832839">
        <ele>24.651</ele>
        <time>2013-06-02T09:24:41Z</time>
      </trkpt>
      <trkpt lat="59.881117" lon="17.78332">
        <ele>24.1703</ele>
        <time>2013-06-02T09:24:42Z</time>
      </trkpt>
      <trkpt lat="59.8810129" lon="17.7833549">
        <ele>24.1703</ele>
        <time>2013-06-02T09:24:43Z</time>
      </trkpt>
      <trkpt lat="59.8809011" lon="17.7833966">
        <ele>22.7283</ele>
        <time>2013-06-02T09:24:44Z</time>
      </trkpt>
      <trkpt lat="59.8807901" lon="17.7834132">
        <ele>21.767</ele>
        <time>2013-06-02T09:24:45Z</time>
      </trkpt>
      <trkpt lat="59.8806808" lon="17.7833986">
        <ele>20.8057</ele>
        <time>2013-06-02T09:24:46Z</time>
      </trkpt>
      <trkpt lat="59.8805743" lon="17.7833563">
        <ele>19.8444</ele>
        <time>2013-06-02T09:24:47Z</time>
      </trkpt>
      <trkpt lat="59.8804721" lon="17.7832966">
        <ele>18.8831</ele>
        <time>2013-06-02T09:24:48Z</time>
      </trkpt>
      <trkpt lat="59.8803712" lon="17.7832299">
        <ele>18.4023</ele>
        <time>2013-06-02T09:24:49Z</time>
      </trkpt>
      <trkpt lat="59.8802727" lon="17.7831567">
        <ele>17.9218</ele>
        <time>2013-06-02T09:24:50Z</time>
      </trkpt>
      <trkpt lat="59.8801731" lon="17.7830857">
        <ele>17.4412</ele>
        <time>2013-06-02T09:24:51Z</time>
      </trkpt>
      <trkpt lat="59.8800738" lon="17.7830153">
        <ele>17.4412</ele>
        <time>2013-06-02T09:24:52Z</time>
      </trkpt>
      <trkpt lat="59.8799749" lon="17.7829447">
        <ele>17.4412</ele>
        <time>2013-06-02T09:24:53Z</time>
      </trkpt>
      <trkpt lat="59.8798753" lon="17.7828744">
        <ele>16.9604</ele>
        <time>2013-06-02T09:24:54Z</time>
      </trkpt>
      <trkpt lat="59.8797766" lon="17.7828142">
        <ele>16.4797</ele>
        <time>2013-06-02T09:24:55Z</time>
      </trkpt>
      <trkpt lat="59.8796763" lon="17.7827789">
        <ele>15.999</ele>
        <time>2013-06-02T09:24:56Z</time>
      </trkpt>
      <trkpt lat="59.8795753" lon="17.7827797">
        <ele>15.5184</ele>
        <time>2013-06-02T09:24:57Z</time>
      </trkpt>
      <trkpt lat="59.8794785" lon="17.7828205">
        <ele>15.5184</ele>
        <time>2013-06-02T09:24:58Z</time>
      </trkpt>
      <trkpt lat="59.8793895" lon="17.7828956">
        <ele>15.5184</ele>
        <time>2013-06-02T09:24:59Z</time>
      </trkpt>
      <trkpt lat="59.8793077" lon="17.782992">
        <ele>15.0377</ele>
        <time>2013-06-02T09:25:00Z</time>
      </trkpt>
      <trkpt lat="59.8792327" lon="17.7831039">
        <ele>15.0377</ele>
        <time>2013-06-02T09:25:01Z</time>
      </trkpt>
      <trkpt lat="59.8791614" lon="17.7832189">
        <ele>14.557</ele>
        <time>2013-06-02T09:25:02Z</time>
      </trkpt>
      <trkpt lat="59.8790917" lon="17.7833322">
        <ele>14.557</ele>
        <time>2013-06-02T09:25:03Z</time>
      </trkpt>
      <trkpt lat="59.8790232" lon="17.7834433">
        <ele>14.0764</ele>
        <time>2013-06-02T09:25:04Z</time>
      </trkpt>
      <trkpt lat="59.8789555" lon="17.783553">
        <ele>14.0764</ele>
        <time>2013-06-02T09:25:05Z</time>
      </trkpt>
      <trkpt lat="59.8788893" lon="17.7836613">
        <ele>13.5958</ele>
        <time>2013-06-02T09:25:06Z</time>
      </trkpt>
      <trkpt lat="59.8788244" lon="17.7837688">
        <ele>13.5958</ele>
        <time>2013-06-02T09:25:07Z</time>
      </trkpt>
      <trkpt lat="59.87876" lon="17.7838736">
        <ele>13.1151</ele>
        <time>2013-06-02T09:25:08Z</time>
      </trkpt>
      <trkpt lat="59.878696" lon="17.783975">
        <ele>13.1151</ele>
        <time>2013-06-02T09:25:09Z</time>
      </trkpt>
      <trkpt lat="59.8786341" lon="17.7840758">
        <ele>13.1151</ele>
        <time>2013-06-02T09:25:10Z</time>
      </trkpt>
      <trkpt lat="59.8785731" lon="17.7841775">
        <ele>12.6344</ele>
        <time>2013-06-02T09:25:11Z</time>
      </trkpt>
      <trkpt lat="59.8785135" lon="17.7842801">
        <ele>12.6344</ele>
        <time>2013-06-02T09:25:12Z</time>
      </trkpt>
      <trkpt lat="59.8784577" lon="17.7843901">
        <ele>12.6344</ele>
        <time>2013-06-02T09:25:13Z</time>
      </trkpt>
      <trkpt lat="59.878406" lon="17.7845057">
        <ele>12.6344</ele>
        <time>2013-06-02T09:25:14Z</time>
      </trkpt>
      <trkpt lat="59.8783618" lon="17.7846295">
        <ele>13.1151</ele>
        <time>2013-06-02T09:25:15Z</time>
      </trkpt>
      <trkpt lat="59.8783275" lon="17.784764">
        <ele>13.1151</ele>
        <time>2013-06-02T09:25:16Z</time>
      </trkpt>
      <trkpt lat="59.8782992" lon="17.7848983">
        <ele>13.5958</ele>
        <time>2013-06-02T09:25:17Z</time>
      </trkpt>
      <trkpt lat="59.8782725" lon="17.7850289">
        <ele>13.5958</ele>
        <time>2013-06-02T09:25:18Z</time>
      </trkpt>
      <trkpt lat="59.8782479" lon="17.7851588">
        <ele>14.0764</ele>
        <time>2013-06-02T09:25:19Z</time>
      </trkpt>
      <trkpt lat="59.8782246" lon="17.7852894">
        <ele>14.0764</ele>
        <time>2013-06-02T09:25:20Z</time>
      </trkpt>
      <trkpt lat="59.8782013" lon="17.7854194">
        <ele>14.557</ele>
        <time>2013-06-02T09:25:21Z</time>
      </trkpt>
      <trkpt lat="59.8781769" lon="17.7855525">
        <ele>14.557</ele>
        <time>2013-06-02T09:25:22Z</time>
      </trkpt>
      <trkpt lat="59.8781529" lon="17.7856897">
        <ele>15.0377</ele>
        <time>2013-06-02T09:25:23Z</time>
      </trkpt>
      <trkpt lat="59.8781304" lon="17.7858298">
        <ele>15.0377</ele>
        <time>2013-06-02T09:25:24Z</time>
      </trkpt>
      <trkpt lat="59.8781075" lon="17.7859721">
        <ele>15.5184</ele>
        <time>2013-06-02T09:25:25Z</time>
      </trkpt>
      <trkpt lat="59.8780846" lon="17.7861155">
        <ele>15.999</ele>
        <time>2013-06-02T09:25:26Z</time>
      </trkpt>
      <trkpt lat="59.8780623" lon="17.7862599">
        <ele>16.4797</ele>
        <time>2013-06-02T09:25:27Z</time>
      </trkpt>
      <trkpt lat="59.8780394" lon="17.7863993">
        <ele>16.9604</ele>
        <time>2013-06-02T09:25:28Z</time>
      </trkpt>
      <trkpt lat="59.8780121" lon="17.7865361">
        <ele>17.4412</ele>
        <time>2013-06-02T09:25:29Z</time>
      </trkpt>
      <trkpt lat="59.8779836" lon="17.7866707">
        <ele>17.4412</ele>
        <time>2013-06-02T09:25:30Z</time>
      </trkpt>
      <trkpt lat="59.8779582" lon="17.7867947">
        <ele>17.9218</ele>
        <time>2013-06-02T09:25:31Z</time>
      </trkpt>
      <trkpt lat="59.8779328" lon="17.7869163">
        <ele>17.9218</ele>
        <time>2013-06-02T09:25:32Z</time>
      </trkpt>
      <trkpt lat="59.877907" lon="17.7870355">
        <ele>17.9218</ele>
        <time>2013-06-02T09:25:33Z</time>
      </trkpt>
      <trkpt lat="59.8778768" lon="17.7871537">
        <ele>18.4023</ele>
        <time>2013-06-02T09:25:34Z</time>
      </trkpt>
      <trkpt lat="59.8778521" lon="17.7872643">
        <ele>18.4023</ele>
        <time>2013-06-02T09:25:35Z</time>
      </trkpt>
      <trkpt lat="59.8778263" lon="17.7873555">
        <ele>18.8831</ele>
        <time>2013-06-02T09:25:36Z</time>
      </trkpt>
      <trkpt lat="59.8778082" lon="17.7874892">
        <ele>19.3638</ele>
        <time>2013-06-02T09:25:37Z</time>
      </trkpt>
      <trkpt lat="59.8777946" lon="17.7876116">
        <ele>19.8444</ele>
        <time>2013-06-02T09:25:38Z</time>
      </trkpt>
      <trkpt lat="59.8777796" lon="17.7877173">
        <ele>20.8057</ele>
        <time>2013-06-02T09:25:39Z</time>
      </trkpt>
      <trkpt lat="59.8777644" lon="17.7878125">
        <ele>20.8057</ele>
        <time>2013-06-02T09:25:40Z</time>
      </trkpt>
      <trkpt lat="59.8777521" lon="17.787896">
        <ele>20.325</ele>
        <time>2013-06-02T09:25:41Z</time>
      </trkpt>
      <trkpt lat="59.8777377" lon="17.7879785">
        <ele>20.325</ele>
        <time>2013-06-02T09:25:42Z</time>
      </trkpt>
      <trkpt lat="59.8777211" lon="17.7880582">
        <ele>19.8444</ele>
        <time>2013-06-02T09:25:43Z</time>
      </trkpt>
      <trkpt lat="59.8777061" lon="17.7881458">
        <ele>19.3638</ele>
        <time>2013-06-02T09:25:44Z</time>
      </trkpt>
      <trkpt lat="59.8776901" lon="17.7882309">
        <ele>18.8831</ele>
        <time>2013-06-02T09:25:45Z</time>
      </trkpt>
      <trkpt lat="59.8776776" lon="17.7883301">
        <ele>18.8831</ele>
        <time>2013-06-02T09:25:46Z</time>
      </trkpt>
      <trkpt lat="59.8776496" lon="17.7884416">
        <ele>18.8831</ele>
        <time>2013-06-02T09:25:47Z</time>
      </trkpt>
      <trkpt lat="59.8776315" lon="17.7885493">
        <ele>19.8444</ele>
        <time>2013-06-02T09:25:48Z</time>
      </trkpt>
      <trkpt lat="59.8776189" lon="17.788659">
        <ele>19.8444</ele>
        <time>2013-06-02T09:25:49Z</time>
      </trkpt>
      <trkpt lat="59.8776097" lon="17.7887673">
        <ele>19.8444</ele>
        <time>2013-06-02T09:25:50Z</time>
      </trkpt>
      <trkpt lat="59.8776092" lon="17.7888719">
        <ele>19.8444</ele>
        <time>2013-06-02T09:25:51Z</time>
      </trkpt>
      <trkpt lat="59.8776098" lon="17.7889812">
        <ele>20.8057</ele>
        <time>2013-06-02T09:25:52Z</time>
      </trkpt>
      <trkpt lat="59.8776162" lon="17.7890886">
        <ele>21.2864</ele>
        <time>2013-06-02T09:25:53Z</time>
      </trkpt>
      <trkpt lat="59.8776225" lon="17.7891979">
        <ele>21.2864</ele>
        <time>2013-06-02T09:25:54Z</time>
      </trkpt>
      <trkpt lat="59.8776279" lon="17.7893087">
        <ele>21.2864</ele>
        <time>2013-06-02T09:25:55Z</time>
      </trkpt>
      <trkpt lat="59.8776361" lon="17.7894257">
        <ele>21.2864</ele>
        <time>2013-06-02T09:25:56Z</time>
      </trkpt>
      <trkpt lat="59.8776428" lon="17.789537">
        <ele>21.2864</ele>
        <time>2013-06-02T09:25:57Z</time>
      </trkpt>
      <trkpt lat="59.8776463" lon="17.7896509">
        <ele>21.2864</ele>
        <time>2013-06-02T09:25:58Z</time>
      </trkpt>
      <trkpt lat="59.8776506" lon="17.789765">
        <ele>21.767</ele>
        <time>2013-06-02T09:25:59Z</time>
      </trkpt>
      <trkpt lat="59.8776567" lon="17.7898808">
        <ele>21.767</ele>
        <time>2013-06-02T09:26:00Z</time>
      </trkpt>
      <trkpt lat="59.8776602" lon="17.7899963">
        <ele>22.2476</ele>
        <time>2013-06-02T09:26:01Z</time>
      </trkpt>
      <trkpt lat="59.8776631" lon="17.79011">
        <ele>22.7283</ele>
        <time>2013-06-02T09:26:02Z</time>
      </trkpt>
      <trkpt lat="59.8776703" lon="17.7902281">
        <ele>23.6896</ele>
        <time>2013-06-02T09:26:03Z</time>
      </trkpt>
      <trkpt lat="59.8776758" lon="17.790345">
        <ele>24.651</ele>
        <time>2013-06-02T09:26:04Z</time>
      </trkpt>
      <trkpt lat="59.8776796" lon="17.7904589">
        <ele>25.6123</ele>
        <time>2013-06-02T09:26:05Z</time>
      </trkpt>
      <trkpt lat="59.877683" lon="17.7905694">
        <ele>26.0929</ele>
        <time>2013-06-02T09:26:06Z</time>
      </trkpt>
      <trkpt lat="59.8776874" lon="17.7906781">
        <ele>26.0929</ele>
        <time>2013-06-02T09:26:07Z</time>
      </trkpt>
      <trkpt lat="59.8776937" lon="17.7907863">
        <ele>26.5736</ele>
        <time>2013-06-02T09:26:08Z</time>
      </trkpt>
      <trkpt lat="59.8776967" lon="17.790889">
        <ele>26.5736</ele>
        <time>2013-06-02T09:26:09Z</time>
      </trkpt>
      <trkpt lat="59.8776967" lon="17.7909915">
        <ele>27.0543</ele>
        <time>2013-06-02T09:26:10Z</time>
      </trkpt>
      <trkpt lat="59.8776972" lon="17.7910932">
        <ele>27.0543</ele>
        <time>2013-06-02T09:26:11Z</time>
      </trkpt>
      <trkpt lat="59.8776983" lon="17.7911955">
        <ele>27.5349</ele>
        <time>2013-06-02T09:26:12Z</time>
      </trkpt>
      <trkpt lat="59.8777009" lon="17.7912989">
        <ele>28.0155</ele>
        <time>2013-06-02T09:26:13Z</time>
      </trkpt>
      <trkpt lat="59.8777044" lon="17.7914034">
        <ele>28.9769</ele>
        <time>2013-06-02T09:26:14Z</time>
      </trkpt>
      <trkpt lat="59.8777097" lon="17.7915049">
        <ele>29.4575</ele>
        <time>2013-06-02T09:26:15Z</time>
      </trkpt>
      <trkpt lat="59.8777149" lon="17.7916056">
        <ele>30.4188</ele>
        <time>2013-06-02T09:26:16Z</time>
      </trkpt>
      <trkpt lat="59.8777159" lon="17.7917045">
        <ele>30.4188</ele>
        <time>2013-06-02T09:26:17Z</time>
      </trkpt>
      <trkpt lat="59.8777164" lon="17.7918032">
        <ele>30.4188</ele>
        <time>2013-06-02T09:26:18Z</time>
      </trkpt>
      <trkpt lat="59.8777165" lon="17.7919018">
        <ele>30.4188</ele>
        <time>2013-06-02T09:26:19Z</time>
      </trkpt>
      <trkpt lat="59.877717" lon="17.7920032">
        <ele>30.4188</ele>
        <time>2013-06-02T09:26:20Z</time>
      </trkpt>
      <trkpt lat="59.8777169" lon="17.7921038">
        <ele>30.4188</ele>
        <time>2013-06-02T09:26:21Z</time>
      </trkpt>
      <trkpt lat="59.8777162" lon="17.7922065">
        <ele>30.8995</ele>
        <time>2013-06-02T09:26:22Z</time>
      </trkpt>
      <trkpt lat="59.8777137" lon="17.7923099">
        <ele>30.4188</ele>
        <time>2013-06-02T09:26:23Z</time>
      </trkpt>
      <trkpt lat="59.8777089" lon="17.7924154">
        <ele>30.8995</ele>
        <time>2013-06-02T09:26:24Z</time>
      </trkpt>
      <trkpt lat="59.8777024" lon="17.7925244">
        <ele>30.8995</ele>
        <time>2013-06-02T09:26:25Z</time>
      </trkpt>
      <trkpt lat="59.877696" lon="17.7926302">
        <ele>30.4188</ele>
        <time>2013-06-02T09:26:26Z</time>
      </trkpt>
      <trkpt lat="59.8776868" lon="17.7927306">
        <ele>29.9381</ele>
        <time>2013-06-02T09:26:27Z</time>
      </trkpt>
      <trkpt lat="59.8776761" lon="17.7928321">
        <ele>29.4575</ele>
        <time>2013-06-02T09:26:28Z</time>
      </trkpt>
      <trkpt lat="59.8776656" lon="17.7929357">
        <ele>28.9769</ele>
        <time>2013-06-02T09:26:29Z</time>
      </trkpt>
      <trkpt lat="59.8776572" lon="17.7930448">
        <ele>28.9769</ele>
        <time>2013-06-02T09:26:30Z</time>
      </trkpt>
      <trkpt lat="59.8776434" lon="17.7931484">
        <ele>28.4962</ele>
        <time>2013-06-02T09:26:31Z</time>
      </trkpt>
      <trkpt lat="59.8776268" lon="17.7932489">
        <ele>26.5736</ele>
        <time>2013-06-02T09:26:32Z</time>
      </trkpt>
      <trkpt lat="59.8776149" lon="17.7933501">
        <ele>26.5736</ele>
        <time>2013-06-02T09:26:33Z</time>
      </trkpt>
      <trkpt lat="59.8776024" lon="17.79345">
        <ele>26.0929</ele>
        <time>2013-06-02T09:26:34Z</time>
      </trkpt>
      <trkpt lat="59.8775853" lon="17.793548">
        <ele>25.6123</ele>
        <time>2013-06-02T09:26:35Z</time>
      </trkpt>
      <trkpt lat="59.8775683" lon="17.793647">
        <ele>25.1317</ele>
        <time>2013-06-02T09:26:36Z</time>
      </trkpt>
      <trkpt lat="59.8775522" lon="17.7937426">
        <ele>24.651</ele>
        <time>2013-06-02T09:26:37Z</time>
      </trkpt>
      <trkpt lat="59.8775311" lon="17.7938379">
        <ele>24.651</ele>
        <time>2013-06-02T09:26:38Z</time>
      </trkpt>
      <trkpt lat="59.8775076" lon="17.7939299">
        <ele>24.651</ele>
        <time>2013-06-02T09:26:39Z</time>
      </trkpt>
      <trkpt lat="59.8774748" lon="17.7940261">
        <ele>24.1703</ele>
        <time>2013-06-02T09:26:40Z</time>
      </trkpt>
      <trkpt lat="59.8774463" lon="17.7941218">
        <ele>23.209</ele>
        <time>2013-06-02T09:26:41Z</time>
      </trkpt>
      <trkpt lat="59.8774195" lon="17.7942255">
        <ele>22.7283</ele>
        <time>2013-06-02T09:26:42Z</time>
      </trkpt>
      <trkpt lat="59.877394" lon="17.7943156">
        <ele>22.2476</ele>
        <time>2013-06-02T09:26:43Z</time>
      </trkpt>
      <trkpt lat="59.8773622" lon="17.7944083">
        <ele>21.767</ele>
        <time>2013-06-02T09:26:44Z</time>
      </trkpt>
      <trkpt lat="59.8773289" lon="17.79451">
        <ele>21.767</ele>
        <time>2013-06-02T09:26:45Z</time>
      </trkpt>
      <trkpt lat="59.8772931" lon="17.7946223">
        <ele>21.767</ele>
        <time>2013-06-02T09:26:46Z</time>
      </trkpt>
      <trkpt lat="59.8772557" lon="17.7947395">
        <ele>21.2864</ele>
        <time>2013-06-02T09:26:47Z</time>
      </trkpt>
      <trkpt lat="59.8772177" lon="17.794858">
        <ele>21.2864</ele>
        <time>2013-06-02T09:26:48Z</time>
      </trkpt>
      <trkpt lat="59.8771799" lon="17.7949763">
        <ele>21.2864</ele>
        <time>2013-06-02T09:26:49Z</time>
      </trkpt>
      <trkpt lat="59.877144" lon="17.7950969">
        <ele>21.2864</ele>
        <time>2013-06-02T09:26:50Z</time>
      </trkpt>
      <trkpt lat="59.8771114" lon="17.7952208">
        <ele>20.8057</ele>
        <time>2013-06-02T09:26:51Z</time>
      </trkpt>
      <trkpt lat="59.8770777" lon="17.7953424">
        <ele>20.8057</ele>
        <time>2013-06-02T09:26:52Z</time>
      </trkpt>
      <trkpt lat="59.8770413" lon="17.7954584">
        <ele>20.8057</ele>
        <time>2013-06-02T09:26:53Z</time>
      </trkpt>
      <trkpt lat="59.8770041" lon="17.7955706">
        <ele>20.8057</ele>
        <time>2013-06-02T09:26:54Z</time>
      </trkpt>
      <trkpt lat="59.8769697" lon="17.7956794">
        <ele>20.8057</ele>
        <time>2013-06-02T09:26:55Z</time>
      </trkpt>
      <trkpt lat="59.8769384" lon="17.7957851">
        <ele>20.325</ele>
        <time>2013-06-02T09:26:56Z</time>
      </trkpt>
      <trkpt lat="59.8769097" lon="17.7958877">
        <ele>20.325</ele>
        <time>2013-06-02T09:26:57Z</time>
      </trkpt>
      <trkpt lat="59.8768835" lon="17.7959862">
        <ele>20.325</ele>
        <time>2013-06-02T09:26:58Z</time>
      </trkpt>
      <trkpt lat="59.8768564" lon="17.7960822">
        <ele>20.325</ele>
        <time>2013-06-02T09:26:59Z</time>
      </trkpt>
      <trkpt lat="59.8768242" lon="17.7961804">
        <ele>20.325</ele>
        <time>2013-06-02T09:27:00Z</time>
      </trkpt>
      <trkpt lat="59.8767975" lon="17.7962779">
        <ele>20.8057</ele>
        <time>2013-06-02T09:27:01Z</time>
      </trkpt>
      <trkpt lat="59.8767706" lon="17.7963772">
        <ele>20.8057</ele>
        <time>2013-06-02T09:27:02Z</time>
      </trkpt>
      <trkpt lat="59.8767424" lon="17.7964748">
        <ele>20.8057</ele>
        <time>2013-06-02T09:27:03Z</time>
      </trkpt>
      <trkpt lat="59.8767125" lon="17.7965711">
        <ele>20.8057</ele>
        <time>2013-06-02T09:27:04Z</time>
      </trkpt>
      <trkpt lat="59.8766815" lon="17.7966701">
        <ele>20.8057</ele>
        <time>2013-06-02T09:27:05Z</time>
      </trkpt>
      <trkpt lat="59.8766529" lon="17.7967706">
        <ele>20.8057</ele>
        <time>2013-06-02T09:27:06Z</time>
      </trkpt>
      <trkpt lat="59.8766282" lon="17.7968684">
        <ele>20.8057</ele>
        <time>2013-06-02T09:27:07Z</time>
      </trkpt>
      <trkpt lat="59.8765978" lon="17.7969751">
        <ele>19.8444</ele>
        <time>2013-06-02T09:27:08Z</time>
      </trkpt>
      <trkpt lat="59.8765668" lon="17.7970881">
        <ele>19.3638</ele>
        <time>2013-06-02T09:27:09Z</time>
      </trkpt>
      <trkpt lat="59.8765353" lon="17.7972047">
        <ele>18.8831</ele>
        <time>2013-06-02T09:27:10Z</time>
      </trkpt>
      <trkpt lat="59.876503" lon="17.7973217">
        <ele>18.4023</ele>
        <time>2013-06-02T09:27:11Z</time>
      </trkpt>
      <trkpt lat="59.8764689" lon="17.7974363">
        <ele>17.9218</ele>
        <time>2013-06-02T09:27:12Z</time>
      </trkpt>
      <trkpt lat="59.8764322" lon="17.7975531">
        <ele>18.4023</ele>
        <time>2013-06-02T09:27:13Z</time>
      </trkpt>
      <trkpt lat="59.8763903" lon="17.797676">
        <ele>17.9218</ele>
        <time>2013-06-02T09:27:14Z</time>
      </trkpt>
      <trkpt lat="59.8763545" lon="17.7977958">
        <ele>16.9604</ele>
        <time>2013-06-02T09:27:15Z</time>
      </trkpt>
      <trkpt lat="59.8763191" lon="17.7979174">
        <ele>15.5184</ele>
        <time>2013-06-02T09:27:16Z</time>
      </trkpt>
      <trkpt lat="59.876287" lon="17.7980356">
        <ele>15.0377</ele>
        <time>2013-06-02T09:27:17Z</time>
      </trkpt>
      <trkpt lat="59.8762503" lon="17.7981574">
        <ele>14.557</ele>
        <time>2013-06-02T09:27:18Z</time>
      </trkpt>
      <trkpt lat="59.8762124" lon="17.7982795">
        <ele>13.5958</ele>
        <time>2013-06-02T09:27:19Z</time>
      </trkpt>
      <trkpt lat="59.876177" lon="17.7983995">
        <ele>13.5958</ele>
        <time>2013-06-02T09:27:20Z</time>
      </trkpt>
      <trkpt lat="59.8761409" lon="17.7985179">
        <ele>13.1151</ele>
        <time>2013-06-02T09:27:21Z</time>
      </trkpt>
      <trkpt lat="59.8761038" lon="17.7986364">
        <ele>13.5958</ele>
        <time>2013-06-02T09:27:22Z</time>
      </trkpt>
      <trkpt lat="59.8760677" lon="17.798753">
        <ele>13.5958</ele>
        <time>2013-06-02T09:27:23Z</time>
      </trkpt>
      <trkpt lat="59.8760307" lon="17.798865">
        <ele>13.5958</ele>
        <time>2013-06-02T09:27:24Z</time>
      </trkpt>
      <trkpt lat="59.8759933" lon="17.7989721">
        <ele>14.0764</ele>
        <time>2013-06-02T09:27:25Z</time>
      </trkpt>
      <trkpt lat="59.8759529" lon="17.799076">
        <ele>14.0764</ele>
        <time>2013-06-02T09:27:26Z</time>
      </trkpt>
      <trkpt lat="59.8759109" lon="17.799176">
        <ele>14.0764</ele>
        <time>2013-06-02T09:27:27Z</time>
      </trkpt>
      <trkpt lat="59.8758683" lon="17.799275">
        <ele>14.0764</ele>
        <time>2013-06-02T09:27:28Z</time>
      </trkpt>
      <trkpt lat="59.8758252" lon="17.7993752">
        <ele>14.557</ele>
        <time>2013-06-02T09:27:29Z</time>
      </trkpt>
      <trkpt lat="59.8757823" lon="17.7994761">
        <ele>14.557</ele>
        <time>2013-06-02T09:27:30Z</time>
      </trkpt>
      <trkpt lat="59.8757392" lon="17.7995787">
        <ele>14.557</ele>
        <time>2013-06-02T09:27:31Z</time>
      </trkpt>
      <trkpt lat="59.8756978" lon="17.7996863">
        <ele>14.557</ele>
        <time>2013-06-02T09:27:32Z</time>
      </trkpt>
      <trkpt lat="59.8756588" lon="17.7998026">
        <ele>14.557</ele>
        <time>2013-06-02T09:27:33Z</time>
      </trkpt>
      <trkpt lat="59.875622" lon="17.7999246">
        <ele>15.0377</ele>
        <time>2013-06-02T09:27:34Z</time>
      </trkpt>
      <trkpt lat="59.8755858" lon="17.8000506">
        <ele>15.0377</ele>
        <time>2013-06-02T09:27:35Z</time>
      </trkpt>
      <trkpt lat="59.875552" lon="17.8001778">
        <ele>15.0377</ele>
        <time>2013-06-02T09:27:36Z</time>
      </trkpt>
      <trkpt lat="59.8755189" lon="17.8003044">
        <ele>15.0377</ele>
        <time>2013-06-02T09:27:37Z</time>
      </trkpt>
      <trkpt lat="59.8754857" lon="17.8004282">
        <ele>15.0377</ele>
        <time>2013-06-02T09:27:38Z</time>
      </trkpt>
      <trkpt lat="59.8754525" lon="17.8005501">
        <ele>15.0377</ele>
        <time>2013-06-02T09:27:39Z</time>
      </trkpt>
      <trkpt lat="59.8754193" lon="17.8006743">
        <ele>15.0377</ele>
        <time>2013-06-02T09:27:40Z</time>
      </trkpt>
      <trkpt lat="59.875387" lon="17.8008008">
        <ele>15.0377</ele>
        <time>2013-06-02T09:27:41Z</time>
      </trkpt>
      <trkpt lat="59.8753558" lon="17.8009286">
        <ele>15.0377</ele>
        <time>2013-06-02T09:27:42Z</time>
      </trkpt>
      <trkpt lat="59.8753242" lon="17.8010586">
        <ele>15.0377</ele>
        <time>2013-06-02T09:27:43Z</time>
      </trkpt>
      <trkpt lat="59.8752938" lon="17.8011898">
        <ele>14.557</ele>
        <time>2013-06-02T09:27:44Z</time>
      </trkpt>
      <trkpt lat="59.8752655" lon="17.8013293">
        <ele>14.0764</ele>
        <time>2013-06-02T09:27:45Z</time>
      </trkpt>
      <trkpt lat="59.8752366" lon="17.8014736">
        <ele>13.5958</ele>
        <time>2013-06-02T09:27:46Z</time>
      </trkpt>
      <trkpt lat="59.8752057" lon="17.8016192">
        <ele>13.5958</ele>
        <time>2013-06-02T09:27:47Z</time>
      </trkpt>
      <trkpt lat="59.8751719" lon="17.8017635">
        <ele>13.1151</ele>
        <time>2013-06-02T09:27:48Z</time>
      </trkpt>
      <trkpt lat="59.8751357" lon="17.8019061">
        <ele>12.6344</ele>
        <time>2013-06-02T09:27:49Z</time>
      </trkpt>
      <trkpt lat="59.8750973" lon="17.8020483">
        <ele>12.1538</ele>
        <time>2013-06-02T09:27:50Z</time>
      </trkpt>
      <trkpt lat="59.875056" lon="17.8021901">
        <ele>12.1538</ele>
        <time>2013-06-02T09:27:51Z</time>
      </trkpt>
      <trkpt lat="59.8750119" lon="17.8023304">
        <ele>11.6732</ele>
        <time>2013-06-02T09:27:52Z</time>
      </trkpt>
      <trkpt lat="59.8749642" lon="17.8024687">
        <ele>11.6732</ele>
        <time>2013-06-02T09:27:53Z</time>
      </trkpt>
      <trkpt lat="59.8749114" lon="17.8026032">
        <ele>11.6732</ele>
        <time>2013-06-02T09:27:54Z</time>
      </trkpt>
      <trkpt lat="59.8748539" lon="17.8027331">
        <ele>11.1925</ele>
        <time>2013-06-02T09:27:55Z</time>
      </trkpt>
      <trkpt lat="59.8747952" lon="17.8028604">
        <ele>11.1925</ele>
        <time>2013-06-02T09:27:56Z</time>
      </trkpt>
      <trkpt lat="59.8747373" lon="17.8029857">
        <ele>11.1925</ele>
        <time>2013-06-02T09:27:57Z</time>
      </trkpt>
      <trkpt lat="59.8746839" lon="17.8031124">
        <ele>11.1925</ele>
        <time>2013-06-02T09:27:58Z</time>
      </trkpt>
      <trkpt lat="59.8746368" lon="17.8032431">
        <ele>11.1925</ele>
        <time>2013-06-02T09:27:59Z</time>
      </trkpt>
      <trkpt lat="59.8745945" lon="17.8033741">
        <ele>11.1925</ele>
        <time>2013-06-02T09:28:00Z</time>
      </trkpt>
      <trkpt lat="59.8745541" lon="17.8034998">
        <ele>11.1925</ele>
        <time>2013-06-02T09:28:01Z</time>
      </trkpt>
      <trkpt lat="59.8745152" lon="17.8036211">
        <ele>11.6732</ele>
        <time>2013-06-02T09:28:02Z</time>
      </trkpt>
      <trkpt lat="59.8744786" lon="17.8037424">
        <ele>11.6732</ele>
        <time>2013-06-02T09:28:03Z</time>
      </trkpt>
      <trkpt lat="59.8744422" lon="17.8038626">
        <ele>12.1538</ele>
        <time>2013-06-02T09:28:04Z</time>
      </trkpt>
      <trkpt lat="59.8744051" lon="17.8039822">
        <ele>12.6344</ele>
        <time>2013-06-02T09:28:05Z</time>
      </trkpt>
      <trkpt lat="59.8743664" lon="17.8041019">
        <ele>12.6344</ele>
        <time>2013-06-02T09:28:06Z</time>
      </trkpt>
      <trkpt lat="59.8743255" lon="17.8042216">
        <ele>13.1151</ele>
        <time>2013-06-02T09:28:07Z</time>
      </trkpt>
      <trkpt lat="59.8742835" lon="17.8043408">
        <ele>13.1151</ele>
        <time>2013-06-02T09:28:08Z</time>
      </trkpt>
      <trkpt lat="59.8742406" lon="17.8044578">
        <ele>13.5958</ele>
        <time>2013-06-02T09:28:09Z</time>
      </trkpt>
      <trkpt lat="59.8741969" lon="17.8045707">
        <ele>13.5958</ele>
        <time>2013-06-02T09:28:10Z</time>
      </trkpt>
      <trkpt lat="59.8741511" lon="17.8046799">
        <ele>13.5958</ele>
        <time>2013-06-02T09:28:11Z</time>
      </trkpt>
      <trkpt lat="59.8741042" lon="17.8047886">
        <ele>14.0764</ele>
        <time>2013-06-02T09:28:12Z</time>
      </trkpt>
      <trkpt lat="59.8740572" lon="17.804896">
        <ele>14.0764</ele>
        <time>2013-06-02T09:28:13Z</time>
      </trkpt>
      <trkpt lat="59.8740098" lon="17.8050007">
        <ele>14.0764</ele>
        <time>2013-06-02T09:28:14Z</time>
      </trkpt>
      <trkpt lat="59.8739604" lon="17.8051032">
        <ele>14.557</ele>
        <time>2013-06-02T09:28:15Z</time>
      </trkpt>
      <trkpt lat="59.8739107" lon="17.8052043">
        <ele>14.557</ele>
        <time>2013-06-02T09:28:16Z</time>
      </trkpt>
      <trkpt lat="59.8738629" lon="17.8053087">
        <ele>14.557</ele>
        <time>2013-06-02T09:28:17Z</time>
      </trkpt>
      <trkpt lat="59.8738177" lon="17.8054182">
        <ele>15.0377</ele>
        <time>2013-06-02T09:28:18Z</time>
      </trkpt>
      <trkpt lat="59.8737758" lon="17.8055299">
        <ele>15.0377</ele>
        <time>2013-06-02T09:28:19Z</time>
      </trkpt>
      <trkpt lat="59.8737371" lon="17.8056433">
        <ele>15.0377</ele>
        <time>2013-06-02T09:28:20Z</time>
      </trkpt>
      <trkpt lat="59.8737009" lon="17.8057584">
        <ele>15.5184</ele>
        <time>2013-06-02T09:28:21Z</time>
      </trkpt>
      <trkpt lat="59.8736661" lon="17.8058729">
        <ele>15.999</ele>
        <time>2013-06-02T09:28:22Z</time>
      </trkpt>
      <trkpt lat="59.8736308" lon="17.8059839">
        <ele>16.4797</ele>
        <time>2013-06-02T09:28:23Z</time>
      </trkpt>
      <trkpt lat="59.8735941" lon="17.8060926">
        <ele>15.999</ele>
        <time>2013-06-02T09:28:24Z</time>
      </trkpt>
      <trkpt lat="59.8735583" lon="17.8062038">
        <ele>15.999</ele>
        <time>2013-06-02T09:28:25Z</time>
      </trkpt>
      <trkpt lat="59.873524" lon="17.806315">
        <ele>15.999</ele>
        <time>2013-06-02T09:28:26Z</time>
      </trkpt>
      <trkpt lat="59.8734908" lon="17.8064255">
        <ele>15.999</ele>
        <time>2013-06-02T09:28:27Z</time>
      </trkpt>
      <trkpt lat="59.8734594" lon="17.8065371">
        <ele>15.999</ele>
        <time>2013-06-02T09:28:28Z</time>
      </trkpt>
      <trkpt lat="59.8734277" lon="17.806651">
        <ele>16.4797</ele>
        <time>2013-06-02T09:28:29Z</time>
      </trkpt>
      <trkpt lat="59.8733968" lon="17.8067655">
        <ele>15.999</ele>
        <time>2013-06-02T09:28:30Z</time>
      </trkpt>
      <trkpt lat="59.8733693" lon="17.8068814">
        <ele>15.999</ele>
        <time>2013-06-02T09:28:31Z</time>
      </trkpt>
      <trkpt lat="59.8733449" lon="17.8069971">
        <ele>15.999</ele>
        <time>2013-06-02T09:28:32Z</time>
      </trkpt>
      <trkpt lat="59.8733219" lon="17.8071126">
        <ele>15.999</ele>
        <time>2013-06-02T09:28:33Z</time>
      </trkpt>
      <trkpt lat="59.8732997" lon="17.8072285">
        <ele>16.4797</ele>
        <time>2013-06-02T09:28:34Z</time>
      </trkpt>
      <trkpt lat="59.8732779" lon="17.8073388">
        <ele>16.4797</ele>
        <time>2013-06-02T09:28:35Z</time>
      </trkpt>
      <trkpt lat="59.8732594" lon="17.8074555">
        <ele>16.9604</ele>
        <time>2013-06-02T09:28:36Z</time>
      </trkpt>
      <trkpt lat="59.8732424" lon="17.8075729">
        <ele>17.4412</ele>
        <time>2013-06-02T09:28:37Z</time>
      </trkpt>
      <trkpt lat="59.8732269" lon="17.807684">
        <ele>16.9604</ele>
        <time>2013-06-02T09:28:38Z</time>
      </trkpt>
      <trkpt lat="59.8732149" lon="17.8077994">
        <ele>17.4412</ele>
        <time>2013-06-02T09:28:39Z</time>
      </trkpt>
      <trkpt lat="59.8732043" lon="17.8079125">
        <ele>17.4412</ele>
        <time>2013-06-02T09:28:40Z</time>
      </trkpt>
      <trkpt lat="59.8731907" lon="17.8080223">
        <ele>17.4412</ele>
        <time>2013-06-02T09:28:41Z</time>
      </trkpt>
      <trkpt lat="59.87318" lon="17.8081206">
        <ele>16.9604</ele>
        <time>2013-06-02T09:28:42Z</time>
      </trkpt>
      <trkpt lat="59.8731756" lon="17.8082202">
        <ele>16.4797</ele>
        <time>2013-06-02T09:28:43Z</time>
      </trkpt>
      <trkpt lat="59.8731719" lon="17.8083287">
        <ele>16.4797</ele>
        <time>2013-06-02T09:28:44Z</time>
      </trkpt>
      <trkpt lat="59.8731717" lon="17.8084329">
        <ele>16.4797</ele>
        <time>2013-06-02T09:28:45Z</time>
      </trkpt>
      <trkpt lat="59.8731717" lon="17.8085361">
        <ele>16.4797</ele>
        <time>2013-06-02T09:28:46Z</time>
      </trkpt>
      <trkpt lat="59.8731751" lon="17.8086371">
        <ele>16.4797</ele>
        <time>2013-06-02T09:28:47Z</time>
      </trkpt>
      <trkpt lat="59.8731712" lon="17.8087464">
        <ele>15.999</ele>
        <time>2013-06-02T09:28:48Z</time>
      </trkpt>
      <trkpt lat="59.8731631" lon="17.8088588">
        <ele>15.999</ele>
        <time>2013-06-02T09:28:49Z</time>
      </trkpt>
      <trkpt lat="59.8731533" lon="17.8089705">
        <ele>15.999</ele>
        <time>2013-06-02T09:28:50Z</time>
      </trkpt>
      <trkpt lat="59.8731406" lon="17.8090837">
        <ele>15.999</ele>
        <time>2013-06-02T09:28:51Z</time>
      </trkpt>
      <trkpt lat="59.8731278" lon="17.8091933">
        <ele>16.4797</ele>
        <time>2013-06-02T09:28:52Z</time>
      </trkpt>
      <trkpt lat="59.873117" lon="17.8093039">
        <ele>15.999</ele>
        <time>2013-06-02T09:28:53Z</time>
      </trkpt>
      <trkpt lat="59.8731034" lon="17.8094156">
        <ele>15.999</ele>
        <time>2013-06-02T09:28:54Z</time>
      </trkpt>
      <trkpt lat="59.8730862" lon="17.8095274">
        <ele>15.999</ele>
        <time>2013-06-02T09:28:55Z</time>
      </trkpt>
      <trkpt lat="59.8730669" lon="17.8096389">
        <ele>15.999</ele>
        <time>2013-06-02T09:28:56Z</time>
      </trkpt>
      <trkpt lat="59.8730481" lon="17.8097509">
        <ele>15.999</ele>
        <time>2013-06-02T09:28:57Z</time>
      </trkpt>
      <trkpt lat="59.8730261" lon="17.8098662">
        <ele>16.4797</ele>
        <time>2013-06-02T09:28:58Z</time>
      </trkpt>
      <trkpt lat="59.873004" lon="17.809982">
        <ele>16.4797</ele>
        <time>2013-06-02T09:28:59Z</time>
      </trkpt>
      <trkpt lat="59.8729813" lon="17.8100964">
        <ele>16.4797</ele>
        <time>2013-06-02T09:29:00Z</time>
      </trkpt>
      <trkpt lat="59.8729559" lon="17.8102103">
        <ele>16.4797</ele>
        <time>2013-06-02T09:29:01Z</time>
      </trkpt>
      <trkpt lat="59.8729296" lon="17.8103208">
        <ele>16.4797</ele>
        <time>2013-06-02T09:29:02Z</time>
      </trkpt>
      <trkpt lat="59.8729018" lon="17.8104288">
        <ele>16.4797</ele>
        <time>2013-06-02T09:29:03Z</time>
      </trkpt>
      <trkpt lat="59.8728715" lon="17.810536">
        <ele>16.4797</ele>
        <time>2013-06-02T09:29:04Z</time>
      </trkpt>
      <trkpt lat="59.8728376" lon="17.8106465">
        <ele>16.4797</ele>
        <time>2013-06-02T09:29:05Z</time>
      </trkpt>
      <trkpt lat="59.8728001" lon="17.8107569">
        <ele>15.999</ele>
        <time>2013-06-02T09:29:06Z</time>
      </trkpt>
      <trkpt lat="59.8727642" lon="17.8108728">
        <ele>15.999</ele>
        <time>2013-06-02T09:29:07Z</time>
      </trkpt>
      <trkpt lat="59.8727276" lon="17.8109944">
        <ele>15.5184</ele>
        <time>2013-06-02T09:29:08Z</time>
      </trkpt>
      <trkpt lat="59.8726905" lon="17.8111137">
        <ele>15.999</ele>
        <time>2013-06-02T09:29:09Z</time>
      </trkpt>
      <trkpt lat="59.872657" lon="17.8112307">
        <ele>15.999</ele>
        <time>2013-06-02T09:29:10Z</time>
      </trkpt>
      <trkpt lat="59.8726285" lon="17.8113359">
        <ele>16.9604</ele>
        <time>2013-06-02T09:29:11Z</time>
      </trkpt>
      <trkpt lat="59.8725954" lon="17.8114452">
        <ele>15.999</ele>
        <time>2013-06-02T09:29:12Z</time>
      </trkpt>
      <trkpt lat="59.8725568" lon="17.8115639">
        <ele>16.4797</ele>
        <time>2013-06-02T09:29:13Z</time>
      </trkpt>
      <trkpt lat="59.8725084" lon="17.811684">
        <ele>16.9604</ele>
        <time>2013-06-02T09:29:14Z</time>
      </trkpt>
      <trkpt lat="59.8724711" lon="17.8118147">
        <ele>16.9604</ele>
        <time>2013-06-02T09:29:15Z</time>
      </trkpt>
      <trkpt lat="59.8724394" lon="17.8119496">
        <ele>17.4412</ele>
        <time>2013-06-02T09:29:16Z</time>
      </trkpt>
      <trkpt lat="59.8724105" lon="17.8120864">
        <ele>17.9218</ele>
        <time>2013-06-02T09:29:17Z</time>
      </trkpt>
      <trkpt lat="59.8723856" lon="17.8122238">
        <ele>18.4023</ele>
        <time>2013-06-02T09:29:18Z</time>
      </trkpt>
      <trkpt lat="59.8723617" lon="17.8123621">
        <ele>18.4023</ele>
        <time>2013-06-02T09:29:19Z</time>
      </trkpt>
      <trkpt lat="59.8723385" lon="17.8124997">
        <ele>18.8831</ele>
        <time>2013-06-02T09:29:20Z</time>
      </trkpt>
      <trkpt lat="59.8723151" lon="17.8126365">
        <ele>18.8831</ele>
        <time>2013-06-02T09:29:21Z</time>
      </trkpt>
      <trkpt lat="59.8722932" lon="17.8127706">
        <ele>19.3638</ele>
        <time>2013-06-02T09:29:22Z</time>
      </trkpt>
      <trkpt lat="59.8722732" lon="17.8129059">
        <ele>19.8444</ele>
        <time>2013-06-02T09:29:23Z</time>
      </trkpt>
      <trkpt lat="59.8722535" lon="17.8130407">
        <ele>19.8444</ele>
        <time>2013-06-02T09:29:24Z</time>
      </trkpt>
      <trkpt lat="59.8722338" lon="17.8131738">
        <ele>20.325</ele>
        <time>2013-06-02T09:29:25Z</time>
      </trkpt>
      <trkpt lat="59.8722141" lon="17.8133063">
        <ele>20.325</ele>
        <time>2013-06-02T09:29:26Z</time>
      </trkpt>
      <trkpt lat="59.872195" lon="17.813438">
        <ele>20.8057</ele>
        <time>2013-06-02T09:29:27Z</time>
      </trkpt>
      <trkpt lat="59.8721763" lon="17.8135696">
        <ele>20.8057</ele>
        <time>2013-06-02T09:29:28Z</time>
      </trkpt>
      <trkpt lat="59.8721552" lon="17.8137012">
        <ele>20.8057</ele>
        <time>2013-06-02T09:29:29Z</time>
      </trkpt>
      <trkpt lat="59.8721332" lon="17.8138298">
        <ele>20.325</ele>
        <time>2013-06-02T09:29:30Z</time>
      </trkpt>
      <trkpt lat="59.8721095" lon="17.8139581">
        <ele>20.8057</ele>
        <time>2013-06-02T09:29:31Z</time>
      </trkpt>
      <trkpt lat="59.8720841" lon="17.814085">
        <ele>20.8057</ele>
        <time>2013-06-02T09:29:32Z</time>
      </trkpt>
      <trkpt lat="59.8720601" lon="17.8142126">
        <ele>21.2864</ele>
        <time>2013-06-02T09:29:33Z</time>
      </trkpt>
      <trkpt lat="59.8720411" lon="17.8143321">
        <ele>20.8057</ele>
        <time>2013-06-02T09:29:34Z</time>
      </trkpt>
      <trkpt lat="59.8720238" lon="17.8144445">
        <ele>20.325</ele>
        <time>2013-06-02T09:29:35Z</time>
      </trkpt>
      <trkpt lat="59.8720089" lon="17.8145595">
        <ele>20.325</ele>
        <time>2013-06-02T09:29:36Z</time>
      </trkpt>
      <trkpt lat="59.871994" lon="17.8146735">
        <ele>19.8444</ele>
        <time>2013-06-02T09:29:37Z</time>
      </trkpt>
      <trkpt lat="59.8719805" lon="17.8147852">
        <ele>19.3638</ele>
        <time>2013-06-02T09:29:38Z</time>
      </trkpt>
      <trkpt lat="59.8719738" lon="17.814891">
        <ele>18.8831</ele>
        <time>2013-06-02T09:29:39Z</time>
      </trkpt>
      <trkpt lat="59.8719748" lon="17.8149955">
        <ele>18.4023</ele>
        <time>2013-06-02T09:29:40Z</time>
      </trkpt>
      <trkpt lat="59.8719798" lon="17.8151038">
        <ele>17.9218</ele>
        <time>2013-06-02T09:29:41Z</time>
      </trkpt>
      <trkpt lat="59.8719893" lon="17.8152105">
        <ele>17.4412</ele>
        <time>2013-06-02T09:29:42Z</time>
      </trkpt>
      <trkpt lat="59.8719941" lon="17.8153226">
        <ele>17.9218</ele>
        <time>2013-06-02T09:29:43Z</time>
      </trkpt>
      <trkpt lat="59.8720038" lon="17.8154328">
        <ele>17.9218</ele>
        <time>2013-06-02T09:29:44Z</time>
      </trkpt>
      <trkpt lat="59.8720053" lon="17.8155511">
        <ele>17.9218</ele>
        <time>2013-06-02T09:29:45Z</time>
      </trkpt>
      <trkpt lat="59.8720053" lon="17.8156697">
        <ele>17.9218</ele>
        <time>2013-06-02T09:29:46Z</time>
      </trkpt>
      <trkpt lat="59.872013" lon="17.8157868">
        <ele>17.9218</ele>
        <time>2013-06-02T09:29:47Z</time>
      </trkpt>
      <trkpt lat="59.8720162" lon="17.8159049">
        <ele>17.9218</ele>
        <time>2013-06-02T09:29:48Z</time>
      </trkpt>
      <trkpt lat="59.8720212" lon="17.8160208">
        <ele>18.4023</ele>
        <time>2013-06-02T09:29:49Z</time>
      </trkpt>
      <trkpt lat="59.8720241" lon="17.8161389">
        <ele>18.4023</ele>
        <time>2013-06-02T09:29:50Z</time>
      </trkpt>
      <trkpt lat="59.8720316" lon="17.8162568">
        <ele>18.8831</ele>
        <time>2013-06-02T09:29:51Z</time>
      </trkpt>
      <trkpt lat="59.8720327" lon="17.8163757">
        <ele>18.8831</ele>
        <time>2013-06-02T09:29:52Z</time>
      </trkpt>
      <trkpt lat="59.8720343" lon="17.8164936">
        <ele>19.8444</ele>
        <time>2013-06-02T09:29:53Z</time>
      </trkpt>
      <trkpt lat="59.8720235" lon="17.816613">
        <ele>19.8444</ele>
        <time>2013-06-02T09:29:54Z</time>
      </trkpt>
      <trkpt lat="59.8720204" lon="17.8167304">
        <ele>19.8444</ele>
        <time>2013-06-02T09:29:55Z</time>
      </trkpt>
      <trkpt lat="59.8720267" lon="17.8168481">
        <ele>19.8444</ele>
        <time>2013-06-02T09:29:56Z</time>
      </trkpt>
      <trkpt lat="59.8720388" lon="17.8169644">
        <ele>19.8444</ele>
        <time>2013-06-02T09:29:57Z</time>
      </trkpt>
      <trkpt lat="59.8720486" lon="17.8170792">
        <ele>19.8444</ele>
        <time>2013-06-02T09:29:58Z</time>
      </trkpt>
      <trkpt lat="59.8720571" lon="17.8171913">
        <ele>19.3638</ele>
        <time>2013-06-02T09:29:59Z</time>
      </trkpt>
      <trkpt lat="59.8720679" lon="17.8173032">
        <ele>19.3638</ele>
        <time>2013-06-02T09:30:00Z</time>
      </trkpt>
      <trkpt lat="59.8720829" lon="17.817417">
        <ele>18.8831</ele>
        <time>2013-06-02T09:30:01Z</time>
      </trkpt>
      <trkpt lat="59.8720959" lon="17.8175318">
        <ele>18.8831</ele>
        <time>2013-06-02T09:30:02Z</time>
      </trkpt>
      <trkpt lat="59.8721101" lon="17.8176501">
        <ele>18.4023</ele>
        <time>2013-06-02T09:30:03Z</time>
      </trkpt>
      <trkpt lat="59.8721214" lon="17.8177768">
        <ele>18.4023</ele>
        <time>2013-06-02T09:30:04Z</time>
      </trkpt>
      <trkpt lat="59.8721317" lon="17.8179068">
        <ele>17.9218</ele>
        <time>2013-06-02T09:30:05Z</time>
      </trkpt>
      <trkpt lat="59.8721429" lon="17.8180354">
        <ele>17.9218</ele>
        <time>2013-06-02T09:30:06Z</time>
      </trkpt>
      <trkpt lat="59.8721566" lon="17.8181606">
        <ele>18.4023</ele>
        <time>2013-06-02T09:30:07Z</time>
      </trkpt>
      <trkpt lat="59.8721704" lon="17.8182841">
        <ele>18.4023</ele>
        <time>2013-06-02T09:30:08Z</time>
      </trkpt>
      <trkpt lat="59.8721838" lon="17.8184066">
        <ele>18.8831</ele>
        <time>2013-06-02T09:30:09Z</time>
      </trkpt>
      <trkpt lat="59.8721965" lon="17.8185289">
        <ele>18.8831</ele>
        <time>2013-06-02T09:30:10Z</time>
      </trkpt>
      <trkpt lat="59.8722097" lon="17.8186544">
        <ele>18.8831</ele>
        <time>2013-06-02T09:30:11Z</time>
      </trkpt>
      <trkpt lat="59.8722259" lon="17.8187837">
        <ele>18.8831</ele>
        <time>2013-06-02T09:30:12Z</time>
      </trkpt>
      <trkpt lat="59.8722427" lon="17.8189156">
        <ele>18.8831</ele>
        <time>2013-06-02T09:30:13Z</time>
      </trkpt>
      <trkpt lat="59.8722577" lon="17.8190482">
        <ele>18.8831</ele>
        <time>2013-06-02T09:30:14Z</time>
      </trkpt>
      <trkpt lat="59.8722724" lon="17.8191817">
        <ele>18.8831</ele>
        <time>2013-06-02T09:30:15Z</time>
      </trkpt>
      <trkpt lat="59.8722864" lon="17.8193164">
        <ele>18.8831</ele>
        <time>2013-06-02T09:30:16Z</time>
      </trkpt>
      <trkpt lat="59.8722986" lon="17.8194531">
        <ele>18.8831</ele>
        <time>2013-06-02T09:30:17Z</time>
      </trkpt>
      <trkpt lat="59.8723137" lon="17.8195895">
        <ele>18.8831</ele>
        <time>2013-06-02T09:30:18Z</time>
      </trkpt>
      <trkpt lat="59.8723273" lon="17.8197242">
        <ele>18.8831</ele>
        <time>2013-06-02T09:30:19Z</time>
      </trkpt>
      <trkpt lat="59.8723422" lon="17.8198577">
        <ele>18.8831</ele>
        <time>2013-06-02T09:30:20Z</time>
      </trkpt>
      <trkpt lat="59.8723567" lon="17.8199892">
        <ele>18.8831</ele>
        <time>2013-06-02T09:30:21Z</time>
      </trkpt>
      <trkpt lat="59.8723709" lon="17.8201191">
        <ele>18.8831</ele>
        <time>2013-06-02T09:30:22Z</time>
      </trkpt>
      <trkpt lat="59.872385" lon="17.8202477">
        <ele>18.8831</ele>
        <time>2013-06-02T09:30:23Z</time>
      </trkpt>
      <trkpt lat="59.8723997" lon="17.8203753">
        <ele>18.8831</ele>
        <time>2013-06-02T09:30:24Z</time>
      </trkpt>
      <trkpt lat="59.8724138" lon="17.8205022">
        <ele>18.8831</ele>
        <time>2013-06-02T09:30:25Z</time>
      </trkpt>
      <trkpt lat="59.8724271" lon="17.8206285">
        <ele>18.8831</ele>
        <time>2013-06-02T09:30:26Z</time>
      </trkpt>
      <trkpt lat="59.8724404" lon="17.8207545">
        <ele>19.3638</ele>
        <time>2013-06-02T09:30:27Z</time>
      </trkpt>
      <trkpt lat="59.8724538" lon="17.8208787">
        <ele>19.3638</ele>
        <time>2013-06-02T09:30:28Z</time>
      </trkpt>
      <trkpt lat="59.8724669" lon="17.8210009">
        <ele>19.3638</ele>
        <time>2013-06-02T09:30:29Z</time>
      </trkpt>
      <trkpt lat="59.8724804" lon="17.8211209">
        <ele>19.8444</ele>
        <time>2013-06-02T09:30:30Z</time>
      </trkpt>
      <trkpt lat="59.8724941" lon="17.8212393">
        <ele>19.8444</ele>
        <time>2013-06-02T09:30:31Z</time>
      </trkpt>
      <trkpt lat="59.8725073" lon="17.8213553">
        <ele>20.325</ele>
        <time>2013-06-02T09:30:32Z</time>
      </trkpt>
      <trkpt lat="59.8725201" lon="17.8214729">
        <ele>20.8057</ele>
        <time>2013-06-02T09:30:33Z</time>
      </trkpt>
      <trkpt lat="59.8725337" lon="17.82159">
        <ele>20.8057</ele>
        <time>2013-06-02T09:30:34Z</time>
      </trkpt>
      <trkpt lat="59.8725472" lon="17.8217058">
        <ele>20.8057</ele>
        <time>2013-06-02T09:30:35Z</time>
      </trkpt>
      <trkpt lat="59.8725602" lon="17.8218199">
        <ele>21.2864</ele>
        <time>2013-06-02T09:30:36Z</time>
      </trkpt>
      <trkpt lat="59.8725739" lon="17.8219333">
        <ele>21.2864</ele>
        <time>2013-06-02T09:30:37Z</time>
      </trkpt>
      <trkpt lat="59.8725867" lon="17.8220463">
        <ele>21.2864</ele>
        <time>2013-06-02T09:30:38Z</time>
      </trkpt>
      <trkpt lat="59.8725998" lon="17.8221599">
        <ele>21.2864</ele>
        <time>2013-06-02T09:30:39Z</time>
      </trkpt>
      <trkpt lat="59.8726133" lon="17.8222735">
        <ele>21.767</ele>
        <time>2013-06-02T09:30:40Z</time>
      </trkpt>
      <trkpt lat="59.872626" lon="17.8223877">
        <ele>21.767</ele>
        <time>2013-06-02T09:30:41Z</time>
      </trkpt>
      <trkpt lat="59.8726385" lon="17.8225026">
        <ele>22.2476</ele>
        <time>2013-06-02T09:30:42Z</time>
      </trkpt>
      <trkpt lat="59.8726518" lon="17.8226146">
        <ele>22.7283</ele>
        <time>2013-06-02T09:30:43Z</time>
      </trkpt>
      <trkpt lat="59.8726657" lon="17.8227235">
        <ele>22.7283</ele>
        <time>2013-06-02T09:30:44Z</time>
      </trkpt>
      <trkpt lat="59.8726823" lon="17.8228299">
        <ele>23.209</ele>
        <time>2013-06-02T09:30:45Z</time>
      </trkpt>
      <trkpt lat="59.8727031" lon="17.8229326">
        <ele>23.6896</ele>
        <time>2013-06-02T09:30:46Z</time>
      </trkpt>
      <trkpt lat="59.8727311" lon="17.8230348">
        <ele>23.6896</ele>
        <time>2013-06-02T09:30:47Z</time>
      </trkpt>
      <trkpt lat="59.8727623" lon="17.8231342">
        <ele>23.209</ele>
        <time>2013-06-02T09:30:48Z</time>
      </trkpt>
      <trkpt lat="59.8727963" lon="17.8232315">
        <ele>23.209</ele>
        <time>2013-06-02T09:30:49Z</time>
      </trkpt>
      <trkpt lat="59.8728314" lon="17.8233316">
        <ele>23.209</ele>
        <time>2013-06-02T09:30:50Z</time>
      </trkpt>
      <trkpt lat="59.8728638" lon="17.8234371">
        <ele>23.209</ele>
        <time>2013-06-02T09:30:51Z</time>
      </trkpt>
      <trkpt lat="59.872891" lon="17.8235496">
        <ele>23.209</ele>
        <time>2013-06-02T09:30:52Z</time>
      </trkpt>
      <trkpt lat="59.8729106" lon="17.8236696">
        <ele>23.209</ele>
        <time>2013-06-02T09:30:53Z</time>
      </trkpt>
      <trkpt lat="59.872923" lon="17.8237923">
        <ele>23.209</ele>
        <time>2013-06-02T09:30:54Z</time>
      </trkpt>
      <trkpt lat="59.8729288" lon="17.8239172">
        <ele>22.7283</ele>
        <time>2013-06-02T09:30:55Z</time>
      </trkpt>
      <trkpt lat="59.8729282" lon="17.8240479">
        <ele>22.2476</ele>
        <time>2013-06-02T09:30:56Z</time>
      </trkpt>
      <trkpt lat="59.872915" lon="17.8241753">
        <ele>21.767</ele>
        <time>2013-06-02T09:30:57Z</time>
      </trkpt>
      <trkpt lat="59.8729001" lon="17.8243059">
        <ele>21.2864</ele>
        <time>2013-06-02T09:30:58Z</time>
      </trkpt>
      <trkpt lat="59.8728863" lon="17.8244402">
        <ele>20.8057</ele>
        <time>2013-06-02T09:30:59Z</time>
      </trkpt>
      <trkpt lat="59.8728697" lon="17.8245762">
        <ele>20.325</ele>
        <time>2013-06-02T09:31:00Z</time>
      </trkpt>
      <trkpt lat="59.8728523" lon="17.8247121">
        <ele>20.325</ele>
        <time>2013-06-02T09:31:01Z</time>
      </trkpt>
      <trkpt lat="59.8728355" lon="17.8248487">
        <ele>19.8444</ele>
        <time>2013-06-02T09:31:02Z</time>
      </trkpt>
      <trkpt lat="59.8728185" lon="17.8249864">
        <ele>19.3638</ele>
        <time>2013-06-02T09:31:03Z</time>
      </trkpt>
      <trkpt lat="59.8728006" lon="17.8251232">
        <ele>19.3638</ele>
        <time>2013-06-02T09:31:04Z</time>
      </trkpt>
      <trkpt lat="59.8727803" lon="17.8252588">
        <ele>18.8831</ele>
        <time>2013-06-02T09:31:05Z</time>
      </trkpt>
      <trkpt lat="59.8727565" lon="17.8253948">
        <ele>18.8831</ele>
        <time>2013-06-02T09:31:06Z</time>
      </trkpt>
      <trkpt lat="59.8727303" lon="17.8255299">
        <ele>18.8831</ele>
        <time>2013-06-02T09:31:07Z</time>
      </trkpt>
      <trkpt lat="59.8727032" lon="17.8256656">
        <ele>18.8831</ele>
        <time>2013-06-02T09:31:08Z</time>
      </trkpt>
      <trkpt lat="59.8726758" lon="17.8258009">
        <ele>18.8831</ele>
        <time>2013-06-02T09:31:09Z</time>
      </trkpt>
      <trkpt lat="59.8726485" lon="17.8259341">
        <ele>18.8831</ele>
        <time>2013-06-02T09:31:10Z</time>
      </trkpt>
      <trkpt lat="59.8726216" lon="17.8260655">
        <ele>18.8831</ele>
        <time>2013-06-02T09:31:11Z</time>
      </trkpt>
      <trkpt lat="59.8725952" lon="17.8261946">
        <ele>18.8831</ele>
        <time>2013-06-02T09:31:12Z</time>
      </trkpt>
      <trkpt lat="59.8725694" lon="17.8263255">
        <ele>18.8831</ele>
        <time>2013-06-02T09:31:13Z</time>
      </trkpt>
      <trkpt lat="59.8725433" lon="17.8264577">
        <ele>18.4023</ele>
        <time>2013-06-02T09:31:14Z</time>
      </trkpt>
      <trkpt lat="59.8725193" lon="17.8265937">
        <ele>18.4023</ele>
        <time>2013-06-02T09:31:15Z</time>
      </trkpt>
      <trkpt lat="59.8724968" lon="17.8267315">
        <ele>18.4023</ele>
        <time>2013-06-02T09:31:16Z</time>
      </trkpt>
      <trkpt lat="59.8724757" lon="17.8268705">
        <ele>17.9218</ele>
        <time>2013-06-02T09:31:17Z</time>
      </trkpt>
      <trkpt lat="59.8724572" lon="17.8270102">
        <ele>17.9218</ele>
        <time>2013-06-02T09:31:18Z</time>
      </trkpt>
      <trkpt lat="59.872441" lon="17.8271508">
        <ele>17.9218</ele>
        <time>2013-06-02T09:31:19Z</time>
      </trkpt>
      <trkpt lat="59.8724264" lon="17.8272931">
        <ele>17.9218</ele>
        <time>2013-06-02T09:31:20Z</time>
      </trkpt>
      <trkpt lat="59.872413" lon="17.8274356">
        <ele>17.4412</ele>
        <time>2013-06-02T09:31:21Z</time>
      </trkpt>
      <trkpt lat="59.8724002" lon="17.8275792">
        <ele>17.4412</ele>
        <time>2013-06-02T09:31:22Z</time>
      </trkpt>
      <trkpt lat="59.8723874" lon="17.8277191">
        <ele>16.9604</ele>
        <time>2013-06-02T09:31:23Z</time>
      </trkpt>
      <trkpt lat="59.8723742" lon="17.8278647">
        <ele>16.9604</ele>
        <time>2013-06-02T09:31:24Z</time>
      </trkpt>
      <trkpt lat="59.8723586" lon="17.8280097">
        <ele>16.9604</ele>
        <time>2013-06-02T09:31:25Z</time>
      </trkpt>
      <trkpt lat="59.8723408" lon="17.8281531">
        <ele>16.9604</ele>
        <time>2013-06-02T09:31:26Z</time>
      </trkpt>
      <trkpt lat="59.8723208" lon="17.8282934">
        <ele>16.9604</ele>
        <time>2013-06-02T09:31:27Z</time>
      </trkpt>
      <trkpt lat="59.872304" lon="17.8284356">
        <ele>16.9604</ele>
        <time>2013-06-02T09:31:28Z</time>
      </trkpt>
      <trkpt lat="59.8722903" lon="17.8285787">
        <ele>16.9604</ele>
        <time>2013-06-02T09:31:29Z</time>
      </trkpt>
      <trkpt lat="59.8722774" lon="17.8287212">
        <ele>16.9604</ele>
        <time>2013-06-02T09:31:30Z</time>
      </trkpt>
      <trkpt lat="59.8722618" lon="17.8288613">
        <ele>17.4412</ele>
        <time>2013-06-02T09:31:31Z</time>
      </trkpt>
      <trkpt lat="59.8722452" lon="17.8290002">
        <ele>17.4412</ele>
        <time>2013-06-02T09:31:32Z</time>
      </trkpt>
      <trkpt lat="59.8722301" lon="17.8291403">
        <ele>17.4412</ele>
        <time>2013-06-02T09:31:33Z</time>
      </trkpt>
      <trkpt lat="59.8722158" lon="17.8292796">
        <ele>17.4412</ele>
        <time>2013-06-02T09:31:34Z</time>
      </trkpt>
      <trkpt lat="59.8722006" lon="17.829418">
        <ele>17.4412</ele>
        <time>2013-06-02T09:31:35Z</time>
      </trkpt>
      <trkpt lat="59.8721831" lon="17.829555">
        <ele>17.4412</ele>
        <time>2013-06-02T09:31:36Z</time>
      </trkpt>
      <trkpt lat="59.8721632" lon="17.8296889">
        <ele>17.4412</ele>
        <time>2013-06-02T09:31:37Z</time>
      </trkpt>
      <trkpt lat="59.8721441" lon="17.8298221">
        <ele>17.4412</ele>
        <time>2013-06-02T09:31:38Z</time>
      </trkpt>
      <trkpt lat="59.8721296" lon="17.8299539">
        <ele>16.9604</ele>
        <time>2013-06-02T09:31:39Z</time>
      </trkpt>
      <trkpt lat="59.8721256" lon="17.8300789">
        <ele>17.4412</ele>
        <time>2013-06-02T09:31:40Z</time>
      </trkpt>
      <trkpt lat="59.8721394" lon="17.8301825">
        <ele>16.9604</ele>
        <time>2013-06-02T09:31:41Z</time>
      </trkpt>
      <trkpt lat="59.8721679" lon="17.8302646">
        <ele>16.9604</ele>
        <time>2013-06-02T09:31:42Z</time>
      </trkpt>
      <trkpt lat="59.8722067" lon="17.8303277">
        <ele>16.9604</ele>
        <time>2013-06-02T09:31:43Z</time>
      </trkpt>
      <trkpt lat="59.8722517" lon="17.8303774">
        <ele>17.4412</ele>
        <time>2013-06-02T09:31:44Z</time>
      </trkpt>
      <trkpt lat="59.8723011" lon="17.8304184">
        <ele>17.4412</ele>
        <time>2013-06-02T09:31:45Z</time>
      </trkpt>
      <trkpt lat="59.872352" lon="17.8304544">
        <ele>17.9218</ele>
        <time>2013-06-02T09:31:46Z</time>
      </trkpt>
      <trkpt lat="59.872404" lon="17.8304879">
        <ele>18.8831</ele>
        <time>2013-06-02T09:31:47Z</time>
      </trkpt>
      <trkpt lat="59.8724527" lon="17.8305209">
        <ele>18.8831</ele>
        <time>2013-06-02T09:31:48Z</time>
      </trkpt>
      <trkpt lat="59.8725019" lon="17.8305479">
        <ele>19.3638</ele>
        <time>2013-06-02T09:31:49Z</time>
      </trkpt>
      <trkpt lat="59.872552" lon="17.8305705">
        <ele>19.8444</ele>
        <time>2013-06-02T09:31:50Z</time>
      </trkpt>
      <trkpt lat="59.8725988" lon="17.8305981">
        <ele>20.325</ele>
        <time>2013-06-02T09:31:51Z</time>
      </trkpt>
      <trkpt lat="59.8726442" lon="17.8306229">
        <ele>21.2864</ele>
        <time>2013-06-02T09:31:52Z</time>
      </trkpt>
      <trkpt lat="59.872689" lon="17.8306452">
        <ele>21.2864</ele>
        <time>2013-06-02T09:31:53Z</time>
      </trkpt>
      <trkpt lat="59.8727346" lon="17.8306649">
        <ele>21.2864</ele>
        <time>2013-06-02T09:31:54Z</time>
      </trkpt>
      <trkpt lat="59.8727797" lon="17.8306816">
        <ele>21.767</ele>
        <time>2013-06-02T09:31:55Z</time>
      </trkpt>
      <trkpt lat="59.872826" lon="17.8306961">
        <ele>22.2476</ele>
        <time>2013-06-02T09:31:56Z</time>
      </trkpt>
      <trkpt lat="59.8728714" lon="17.8307101">
        <ele>22.7283</ele>
        <time>2013-06-02T09:31:57Z</time>
      </trkpt>
      <trkpt lat="59.8729124" lon="17.8307251">
        <ele>22.7283</ele>
        <time>2013-06-02T09:31:58Z</time>
      </trkpt>
      <trkpt lat="59.8729505" lon="17.8307454">
        <ele>22.7283</ele>
        <time>2013-06-02T09:31:59Z</time>
      </trkpt>
      <trkpt lat="59.8729889" lon="17.8307706">
        <ele>23.209</ele>
        <time>2013-06-02T09:32:00Z</time>
      </trkpt>
      <trkpt lat="59.8730284" lon="17.8307934">
        <ele>23.209</ele>
        <time>2013-06-02T09:32:01Z</time>
      </trkpt>
      <trkpt lat="59.8730684" lon="17.8308163">
        <ele>23.6896</ele>
        <time>2013-06-02T09:32:02Z</time>
      </trkpt>
      <trkpt lat="59.873109" lon="17.8308442">
        <ele>24.1703</ele>
        <time>2013-06-02T09:32:03Z</time>
      </trkpt>
      <trkpt lat="59.8731499" lon="17.8308762">
        <ele>24.1703</ele>
        <time>2013-06-02T09:32:04Z</time>
      </trkpt>
      <trkpt lat="59.8731917" lon="17.8309091">
        <ele>24.651</ele>
        <time>2013-06-02T09:32:05Z</time>
      </trkpt>
      <trkpt lat="59.8732335" lon="17.8309431">
        <ele>25.1317</ele>
        <time>2013-06-02T09:32:06Z</time>
      </trkpt>
      <trkpt lat="59.873275" lon="17.8309767">
        <ele>25.6123</ele>
        <time>2013-06-02T09:32:07Z</time>
      </trkpt>
      <trkpt lat="59.8733165" lon="17.831009">
        <ele>25.6123</ele>
        <time>2013-06-02T09:32:08Z</time>
      </trkpt>
      <trkpt lat="59.8733574" lon="17.8310426">
        <ele>26.0929</ele>
        <time>2013-06-02T09:32:09Z</time>
      </trkpt>
      <trkpt lat="59.8733986" lon="17.8310758">
        <ele>26.0929</ele>
        <time>2013-06-02T09:32:10Z</time>
      </trkpt>
      <trkpt lat="59.8734405" lon="17.8311087">
        <ele>26.5736</ele>
        <time>2013-06-02T09:32:11Z</time>
      </trkpt>
      <trkpt lat="59.8734817" lon="17.831145">
        <ele>26.5736</ele>
        <time>2013-06-02T09:32:12Z</time>
      </trkpt>
      <trkpt lat="59.8735224" lon="17.8311838">
        <ele>27.0543</ele>
        <time>2013-06-02T09:32:13Z</time>
      </trkpt>
      <trkpt lat="59.873562" lon="17.8312244">
        <ele>27.5349</ele>
        <time>2013-06-02T09:32:14Z</time>
      </trkpt>
      <trkpt lat="59.8735996" lon="17.8312674">
        <ele>27.5349</ele>
        <time>2013-06-02T09:32:15Z</time>
      </trkpt>
      <trkpt lat="59.8736365" lon="17.8313108">
        <ele>28.0155</ele>
        <time>2013-06-02T09:32:16Z</time>
      </trkpt>
      <trkpt lat="59.8736726" lon="17.8313549">
        <ele>28.4962</ele>
        <time>2013-06-02T09:32:17Z</time>
      </trkpt>
      <trkpt lat="59.8737075" lon="17.8314025">
        <ele>28.9769</ele>
        <time>2013-06-02T09:32:18Z</time>
      </trkpt>
      <trkpt lat="59.8737429" lon="17.8314508">
        <ele>28.9769</ele>
        <time>2013-06-02T09:32:19Z</time>
      </trkpt>
      <trkpt lat="59.8737791" lon="17.8314979">
        <ele>29.4575</ele>
        <time>2013-06-02T09:32:20Z</time>
      </trkpt>
      <trkpt lat="59.8738156" lon="17.8315451">
        <ele>29.9381</ele>
        <time>2013-06-02T09:32:21Z</time>
      </trkpt>
      <trkpt lat="59.8738526" lon="17.8315915">
        <ele>29.9381</ele>
        <time>2013-06-02T09:32:22Z</time>
      </trkpt>
      <trkpt lat="59.8738899" lon="17.8316386">
        <ele>30.4188</ele>
        <time>2013-06-02T09:32:23Z</time>
      </trkpt>
      <trkpt lat="59.8739272" lon="17.8316878">
        <ele>30.4188</ele>
        <time>2013-06-02T09:32:24Z</time>
      </trkpt>
      <trkpt lat="59.8739645" lon="17.8317367">
        <ele>30.4188</ele>
        <time>2013-06-02T09:32:25Z</time>
      </trkpt>
      <trkpt lat="59.8740021" lon="17.8317858">
        <ele>29.9381</ele>
        <time>2013-06-02T09:32:26Z</time>
      </trkpt>
      <trkpt lat="59.8740405" lon="17.831836">
        <ele>29.9381</ele>
        <time>2013-06-02T09:32:27Z</time>
      </trkpt>
      <trkpt lat="59.8740787" lon="17.831888">
        <ele>29.9381</ele>
        <time>2013-06-02T09:32:28Z</time>
      </trkpt>
      <trkpt lat="59.8741172" lon="17.8319403">
        <ele>29.9381</ele>
        <time>2013-06-02T09:32:29Z</time>
      </trkpt>
      <trkpt lat="59.874157" lon="17.8319895">
        <ele>29.9381</ele>
        <time>2013-06-02T09:32:30Z</time>
      </trkpt>
      <trkpt lat="59.8741991" lon="17.8320346">
        <ele>29.4575</ele>
        <time>2013-06-02T09:32:31Z</time>
      </trkpt>
      <trkpt lat="59.8742429" lon="17.8320818">
        <ele>29.4575</ele>
        <time>2013-06-02T09:32:32Z</time>
      </trkpt>
      <trkpt lat="59.8742877" lon="17.8321258">
        <ele>28.9769</ele>
        <time>2013-06-02T09:32:33Z</time>
      </trkpt>
      <trkpt lat="59.8743339" lon="17.8321681">
        <ele>28.9769</ele>
        <time>2013-06-02T09:32:34Z</time>
      </trkpt>
      <trkpt lat="59.8743831" lon="17.8321977">
        <ele>28.9769</ele>
        <time>2013-06-02T09:32:35Z</time>
      </trkpt>
      <trkpt lat="59.8744307" lon="17.8322365">
        <ele>28.9769</ele>
        <time>2013-06-02T09:32:36Z</time>
      </trkpt>
      <trkpt lat="59.8744856" lon="17.8322656">
        <ele>28.0155</ele>
        <time>2013-06-02T09:32:37Z</time>
      </trkpt>
      <trkpt lat="59.8745413" lon="17.8322914">
        <ele>27.5349</ele>
        <time>2013-06-02T09:32:38Z</time>
      </trkpt>
      <trkpt lat="59.8746028" lon="17.8323115">
        <ele>26.5736</ele>
        <time>2013-06-02T09:32:39Z</time>
      </trkpt>
      <trkpt lat="59.8746644" lon="17.8323349">
        <ele>26.0929</ele>
        <time>2013-06-02T09:32:40Z</time>
      </trkpt>
      <trkpt lat="59.874728" lon="17.8323516">
        <ele>26.0929</ele>
        <time>2013-06-02T09:32:41Z</time>
      </trkpt>
      <trkpt lat="59.8747978" lon="17.8323559">
        <ele>26.5736</ele>
        <time>2013-06-02T09:32:42Z</time>
      </trkpt>
      <trkpt lat="59.8748658" lon="17.8323698">
        <ele>26.5736</ele>
        <time>2013-06-02T09:32:43Z</time>
      </trkpt>
      <trkpt lat="59.8749337" lon="17.8323854">
        <ele>26.5736</ele>
        <time>2013-06-02T09:32:44Z</time>
      </trkpt>
      <trkpt lat="59.8749979" lon="17.8324073">
        <ele>26.5736</ele>
        <time>2013-06-02T09:32:45Z</time>
      </trkpt>
      <trkpt lat="59.8750602" lon="17.8324289">
        <ele>26.5736</ele>
        <time>2013-06-02T09:32:46Z</time>
      </trkpt>
      <trkpt lat="59.8751223" lon="17.8324491">
        <ele>26.5736</ele>
        <time>2013-06-02T09:32:47Z</time>
      </trkpt>
      <trkpt lat="59.8751844" lon="17.832467">
        <ele>26.5736</ele>
        <time>2013-06-02T09:32:48Z</time>
      </trkpt>
      <trkpt lat="59.875247" lon="17.8324856">
        <ele>27.0543</ele>
        <time>2013-06-02T09:32:49Z</time>
      </trkpt>
      <trkpt lat="59.8753086" lon="17.8325064">
        <ele>27.0543</ele>
        <time>2013-06-02T09:32:50Z</time>
      </trkpt>
      <trkpt lat="59.8753686" lon="17.8325298">
        <ele>27.5349</ele>
        <time>2013-06-02T09:32:51Z</time>
      </trkpt>
      <trkpt lat="59.8754266" lon="17.8325614">
        <ele>27.5349</ele>
        <time>2013-06-02T09:32:52Z</time>
      </trkpt>
      <trkpt lat="59.8754812" lon="17.8326">
        <ele>28.0155</ele>
        <time>2013-06-02T09:32:53Z</time>
      </trkpt>
      <trkpt lat="59.8755351" lon="17.8326395">
        <ele>28.4962</ele>
        <time>2013-06-02T09:32:54Z</time>
      </trkpt>
      <trkpt lat="59.8755875" lon="17.8326826">
        <ele>28.4962</ele>
        <time>2013-06-02T09:32:55Z</time>
      </trkpt>
      <trkpt lat="59.87564" lon="17.8327292">
        <ele>28.4962</ele>
        <time>2013-06-02T09:32:56Z</time>
      </trkpt>
      <trkpt lat="59.8756931" lon="17.8327782">
        <ele>28.9769</ele>
        <time>2013-06-02T09:32:57Z</time>
      </trkpt>
      <trkpt lat="59.875745" lon="17.8328303">
        <ele>29.4575</ele>
        <time>2013-06-02T09:32:58Z</time>
      </trkpt>
      <trkpt lat="59.8757972" lon="17.8328852">
        <ele>29.9381</ele>
        <time>2013-06-02T09:32:59Z</time>
      </trkpt>
      <trkpt lat="59.8758505" lon="17.8329401">
        <ele>29.4575</ele>
        <time>2013-06-02T09:33:00Z</time>
      </trkpt>
      <trkpt lat="59.8759065" lon="17.8329917">
        <ele>28.9769</ele>
        <time>2013-06-02T09:33:01Z</time>
      </trkpt>
      <trkpt lat="59.8759614" lon="17.8330414">
        <ele>28.4962</ele>
        <time>2013-06-02T09:33:02Z</time>
      </trkpt>
      <trkpt lat="59.8760197" lon="17.8330861">
        <ele>28.4962</ele>
        <time>2013-06-02T09:33:03Z</time>
      </trkpt>
      <trkpt lat="59.876081" lon="17.8331286">
        <ele>28.0155</ele>
        <time>2013-06-02T09:33:04Z</time>
      </trkpt>
      <trkpt lat="59.8761411" lon="17.8331681">
        <ele>28.0155</ele>
        <time>2013-06-02T09:33:05Z</time>
      </trkpt>
      <trkpt lat="59.8762002" lon="17.833204">
        <ele>27.5349</ele>
        <time>2013-06-02T09:33:06Z</time>
      </trkpt>
      <trkpt lat="59.8762539" lon="17.8332474">
        <ele>27.0543</ele>
        <time>2013-06-02T09:33:07Z</time>
      </trkpt>
      <trkpt lat="59.8762995" lon="17.8332937">
        <ele>26.5736</ele>
        <time>2013-06-02T09:33:08Z</time>
      </trkpt>
      <trkpt lat="59.876338" lon="17.8333403">
        <ele>26.5736</ele>
        <time>2013-06-02T09:33:09Z</time>
      </trkpt>
      <trkpt lat="59.8763798" lon="17.833375">
        <ele>26.0929</ele>
        <time>2013-06-02T09:33:10Z</time>
      </trkpt>
      <trkpt lat="59.876426" lon="17.8334009">
        <ele>25.6123</ele>
        <time>2013-06-02T09:33:11Z</time>
      </trkpt>
      <trkpt lat="59.8764709" lon="17.8334274">
        <ele>25.1317</ele>
        <time>2013-06-02T09:33:12Z</time>
      </trkpt>
      <trkpt lat="59.876516" lon="17.8334607">
        <ele>25.1317</ele>
        <time>2013-06-02T09:33:13Z</time>
      </trkpt>
      <trkpt lat="59.8765652" lon="17.8334911">
        <ele>25.6123</ele>
        <time>2013-06-02T09:33:14Z</time>
      </trkpt>
      <trkpt lat="59.8766156" lon="17.8335216">
        <ele>25.6123</ele>
        <time>2013-06-02T09:33:15Z</time>
      </trkpt>
      <trkpt lat="59.8766714" lon="17.8335522">
        <ele>25.6123</ele>
        <time>2013-06-02T09:33:16Z</time>
      </trkpt>
      <trkpt lat="59.8767264" lon="17.8335889">
        <ele>26.0929</ele>
        <time>2013-06-02T09:33:17Z</time>
      </trkpt>
      <trkpt lat="59.876786" lon="17.8336263">
        <ele>26.5736</ele>
        <time>2013-06-02T09:33:18Z</time>
      </trkpt>
      <trkpt lat="59.8768463" lon="17.8336663">
        <ele>26.0929</ele>
        <time>2013-06-02T09:33:19Z</time>
      </trkpt>
      <trkpt lat="59.8769078" lon="17.8337119">
        <ele>26.5736</ele>
        <time>2013-06-02T09:33:20Z</time>
      </trkpt>
      <trkpt lat="59.8769692" lon="17.8337606">
        <ele>27.0543</ele>
        <time>2013-06-02T09:33:21Z</time>
      </trkpt>
      <trkpt lat="59.8770291" lon="17.8338156">
        <ele>27.5349</ele>
        <time>2013-06-02T09:33:22Z</time>
      </trkpt>
      <trkpt lat="59.8770905" lon="17.8338728">
        <ele>27.5349</ele>
        <time>2013-06-02T09:33:23Z</time>
      </trkpt>
      <trkpt lat="59.8771522" lon="17.8339337">
        <ele>28.0155</ele>
        <time>2013-06-02T09:33:24Z</time>
      </trkpt>
      <trkpt lat="59.8772124" lon="17.8339995">
        <ele>28.4962</ele>
        <time>2013-06-02T09:33:25Z</time>
      </trkpt>
      <trkpt lat="59.8772725" lon="17.8340691">
        <ele>28.4962</ele>
        <time>2013-06-02T09:33:26Z</time>
      </trkpt>
      <trkpt lat="59.877332" lon="17.8341408">
        <ele>28.9769</ele>
        <time>2013-06-02T09:33:27Z</time>
      </trkpt>
      <trkpt lat="59.8773905" lon="17.8342119">
        <ele>28.9769</ele>
        <time>2013-06-02T09:33:28Z</time>
      </trkpt>
      <trkpt lat="59.8774469" lon="17.8342832">
        <ele>28.9769</ele>
        <time>2013-06-02T09:33:29Z</time>
      </trkpt>
      <trkpt lat="59.8775024" lon="17.8343537">
        <ele>29.4575</ele>
        <time>2013-06-02T09:33:30Z</time>
      </trkpt>
      <trkpt lat="59.8775574" lon="17.8344216">
        <ele>29.4575</ele>
        <time>2013-06-02T09:33:31Z</time>
      </trkpt>
      <trkpt lat="59.877611" lon="17.8344905">
        <ele>29.4575</ele>
        <time>2013-06-02T09:33:32Z</time>
      </trkpt>
      <trkpt lat="59.8776642" lon="17.8345573">
        <ele>29.4575</ele>
        <time>2013-06-02T09:33:33Z</time>
      </trkpt>
      <trkpt lat="59.8777177" lon="17.8346231">
        <ele>29.9381</ele>
        <time>2013-06-02T09:33:34Z</time>
      </trkpt>
      <trkpt lat="59.8777713" lon="17.8346867">
        <ele>29.9381</ele>
        <time>2013-06-02T09:33:35Z</time>
      </trkpt>
      <trkpt lat="59.8778252" lon="17.83475">
        <ele>29.9381</ele>
        <time>2013-06-02T09:33:36Z</time>
      </trkpt>
      <trkpt lat="59.8778789" lon="17.8348147">
        <ele>29.9381</ele>
        <time>2013-06-02T09:33:37Z</time>
      </trkpt>
      <trkpt lat="59.877934" lon="17.8348754">
        <ele>29.9381</ele>
        <time>2013-06-02T09:33:38Z</time>
      </trkpt>
      <trkpt lat="59.8779889" lon="17.8349347">
        <ele>29.9381</ele>
        <time>2013-06-02T09:33:39Z</time>
      </trkpt>
      <trkpt lat="59.8780446" lon="17.834992">
        <ele>29.4575</ele>
        <time>2013-06-02T09:33:40Z</time>
      </trkpt>
      <trkpt lat="59.8781018" lon="17.8350447">
        <ele>28.9769</ele>
        <time>2013-06-02T09:33:41Z</time>
      </trkpt>
      <trkpt lat="59.8781577" lon="17.8351016">
        <ele>28.4962</ele>
        <time>2013-06-02T09:33:42Z</time>
      </trkpt>
      <trkpt lat="59.8782154" lon="17.835157">
        <ele>27.5349</ele>
        <time>2013-06-02T09:33:43Z</time>
      </trkpt>
      <trkpt lat="59.8782748" lon="17.8352134">
        <ele>27.5349</ele>
        <time>2013-06-02T09:33:44Z</time>
      </trkpt>
      <trkpt lat="59.8783349" lon="17.8352704">
        <ele>27.5349</ele>
        <time>2013-06-02T09:33:45Z</time>
      </trkpt>
      <trkpt lat="59.8783945" lon="17.835324">
        <ele>27.0543</ele>
        <time>2013-06-02T09:33:46Z</time>
      </trkpt>
      <trkpt lat="59.8784504" lon="17.8353813">
        <ele>27.5349</ele>
        <time>2013-06-02T09:33:47Z</time>
      </trkpt>
      <trkpt lat="59.8785079" lon="17.8354338">
        <ele>27.5349</ele>
        <time>2013-06-02T09:33:48Z</time>
      </trkpt>
      <trkpt lat="59.8785642" lon="17.8354829">
        <ele>26.5736</ele>
        <time>2013-06-02T09:33:49Z</time>
      </trkpt>
      <trkpt lat="59.8786229" lon="17.835533">
        <ele>26.0929</ele>
        <time>2013-06-02T09:33:50Z</time>
      </trkpt>
      <trkpt lat="59.8786779" lon="17.8355752">
        <ele>25.6123</ele>
        <time>2013-06-02T09:33:51Z</time>
      </trkpt>
      <trkpt lat="59.8787358" lon="17.8356113">
        <ele>24.651</ele>
        <time>2013-06-02T09:33:52Z</time>
      </trkpt>
      <trkpt lat="59.8787909" lon="17.8356429">
        <ele>24.651</ele>
        <time>2013-06-02T09:33:53Z</time>
      </trkpt>
      <trkpt lat="59.8788436" lon="17.835673">
        <ele>24.651</ele>
        <time>2013-06-02T09:33:54Z</time>
      </trkpt>
      <trkpt lat="59.8788975" lon="17.8357016">
        <ele>24.651</ele>
        <time>2013-06-02T09:33:55Z</time>
      </trkpt>
      <trkpt lat="59.8789509" lon="17.8357233">
        <ele>24.1703</ele>
        <time>2013-06-02T09:33:56Z</time>
      </trkpt>
      <trkpt lat="59.8790048" lon="17.8357387">
        <ele>24.1703</ele>
        <time>2013-06-02T09:33:57Z</time>
      </trkpt>
      <trkpt lat="59.8790599" lon="17.8357539">
        <ele>24.1703</ele>
        <time>2013-06-02T09:33:58Z</time>
      </trkpt>
      <trkpt lat="59.8791151" lon="17.8357695">
        <ele>24.651</ele>
        <time>2013-06-02T09:33:59Z</time>
      </trkpt>
      <trkpt lat="59.8791736" lon="17.8357824">
        <ele>24.651</ele>
        <time>2013-06-02T09:34:00Z</time>
      </trkpt>
      <trkpt lat="59.8792334" lon="17.8357947">
        <ele>23.6896</ele>
        <time>2013-06-02T09:34:01Z</time>
      </trkpt>
      <trkpt lat="59.8792957" lon="17.8358035">
        <ele>23.6896</ele>
        <time>2013-06-02T09:34:02Z</time>
      </trkpt>
      <trkpt lat="59.8793596" lon="17.8358057">
        <ele>23.209</ele>
        <time>2013-06-02T09:34:03Z</time>
      </trkpt>
      <trkpt lat="59.8794246" lon="17.8358077">
        <ele>22.7283</ele>
        <time>2013-06-02T09:34:04Z</time>
      </trkpt>
      <trkpt lat="59.8794889" lon="17.8358129">
        <ele>23.209</ele>
        <time>2013-06-02T09:34:05Z</time>
      </trkpt>
      <trkpt lat="59.8795505" lon="17.835814">
        <ele>23.209</ele>
        <time>2013-06-02T09:34:06Z</time>
      </trkpt>
      <trkpt lat="59.8796107" lon="17.8358176">
        <ele>23.6896</ele>
        <time>2013-06-02T09:34:07Z</time>
      </trkpt>
      <trkpt lat="59.8796662" lon="17.8358181">
        <ele>23.6896</ele>
        <time>2013-06-02T09:34:08Z</time>
      </trkpt>
      <trkpt lat="59.8797173" lon="17.8358237">
        <ele>23.6896</ele>
        <time>2013-06-02T09:34:09Z</time>
      </trkpt>
      <trkpt lat="59.8797673" lon="17.8358264">
        <ele>24.1703</ele>
        <time>2013-06-02T09:34:10Z</time>
      </trkpt>
      <trkpt lat="59.8798106" lon="17.835841">
        <ele>24.1703</ele>
        <time>2013-06-02T09:34:11Z</time>
      </trkpt>
      <trkpt lat="59.8798531" lon="17.8358537">
        <ele>24.1703</ele>
        <time>2013-06-02T09:34:12Z</time>
      </trkpt>
      <trkpt lat="59.8798957" lon="17.8358706">
        <ele>23.6896</ele>
        <time>2013-06-02T09:34:13Z</time>
      </trkpt>
      <trkpt lat="59.8799405" lon="17.8358985">
        <ele>24.1703</ele>
        <time>2013-06-02T09:34:14Z</time>
      </trkpt>
      <trkpt lat="59.8799884" lon="17.8359267">
        <ele>24.651</ele>
        <time>2013-06-02T09:34:15Z</time>
      </trkpt>
      <trkpt lat="59.8800393" lon="17.8359588">
        <ele>25.1317</ele>
        <time>2013-06-02T09:34:16Z</time>
      </trkpt>
      <trkpt lat="59.8800911" lon="17.8360014">
        <ele>25.6123</ele>
        <time>2013-06-02T09:34:17Z</time>
      </trkpt>
      <trkpt lat="59.8801446" lon="17.8360518">
        <ele>25.6123</ele>
        <time>2013-06-02T09:34:18Z</time>
      </trkpt>
      <trkpt lat="59.8802004" lon="17.8361052">
        <ele>26.0929</ele>
        <time>2013-06-02T09:34:19Z</time>
      </trkpt>
      <trkpt lat="59.8802588" lon="17.8361634">
        <ele>26.0929</ele>
        <time>2013-06-02T09:34:20Z</time>
      </trkpt>
      <trkpt lat="59.8803173" lon="17.8362246">
        <ele>26.5736</ele>
        <time>2013-06-02T09:34:21Z</time>
      </trkpt>
      <trkpt lat="59.8803743" lon="17.8362869">
        <ele>26.5736</ele>
        <time>2013-06-02T09:34:22Z</time>
      </trkpt>
      <trkpt lat="59.8804306" lon="17.8363522">
        <ele>26.5736</ele>
        <time>2013-06-02T09:34:23Z</time>
      </trkpt>
      <trkpt lat="59.8804865" lon="17.8364191">
        <ele>27.0543</ele>
        <time>2013-06-02T09:34:24Z</time>
      </trkpt>
      <trkpt lat="59.8805414" lon="17.8364882">
        <ele>27.0543</ele>
        <time>2013-06-02T09:34:25Z</time>
      </trkpt>
      <trkpt lat="59.8805939" lon="17.8365621">
        <ele>27.5349</ele>
        <time>2013-06-02T09:34:26Z</time>
      </trkpt>
      <trkpt lat="59.8806447" lon="17.8366386">
        <ele>28.0155</ele>
        <time>2013-06-02T09:34:27Z</time>
      </trkpt>
      <trkpt lat="59.8806949" lon="17.8367167">
        <ele>28.4962</ele>
        <time>2013-06-02T09:34:28Z</time>
      </trkpt>
      <trkpt lat="59.8807421" lon="17.8367976">
        <ele>28.4962</ele>
        <time>2013-06-02T09:34:29Z</time>
      </trkpt>
      <trkpt lat="59.8807893" lon="17.8368763">
        <ele>28.9769</ele>
        <time>2013-06-02T09:34:30Z</time>
      </trkpt>
      <trkpt lat="59.8808354" lon="17.8369531">
        <ele>29.4575</ele>
        <time>2013-06-02T09:34:31Z</time>
      </trkpt>
      <trkpt lat="59.8808786" lon="17.8370313">
        <ele>29.4575</ele>
        <time>2013-06-02T09:34:32Z</time>
      </trkpt>
      <trkpt lat="59.8809192" lon="17.8371064">
        <ele>29.4575</ele>
        <time>2013-06-02T09:34:33Z</time>
      </trkpt>
      <trkpt lat="59.8809577" lon="17.8371784">
        <ele>29.9381</ele>
        <time>2013-06-02T09:34:34Z</time>
      </trkpt>
      <trkpt lat="59.8809996" lon="17.8372462">
        <ele>29.9381</ele>
        <time>2013-06-02T09:34:35Z</time>
      </trkpt>
      <trkpt lat="59.8810425" lon="17.8373113">
        <ele>29.9381</ele>
        <time>2013-06-02T09:34:36Z</time>
      </trkpt>
      <trkpt lat="59.8810876" lon="17.8373766">
        <ele>29.9381</ele>
        <time>2013-06-02T09:34:37Z</time>
      </trkpt>
      <trkpt lat="59.8811333" lon="17.8374434">
        <ele>29.4575</ele>
        <time>2013-06-02T09:34:38Z</time>
      </trkpt>
      <trkpt lat="59.8811791" lon="17.837512">
        <ele>29.4575</ele>
        <time>2013-06-02T09:34:39Z</time>
      </trkpt>
      <trkpt lat="59.8812257" lon="17.8375809">
        <ele>29.4575</ele>
        <time>2013-06-02T09:34:40Z</time>
      </trkpt>
      <trkpt lat="59.8812736" lon="17.8376494">
        <ele>28.9769</ele>
        <time>2013-06-02T09:34:41Z</time>
      </trkpt>
      <trkpt lat="59.8813227" lon="17.8377195">
        <ele>28.9769</ele>
        <time>2013-06-02T09:34:42Z</time>
      </trkpt>
      <trkpt lat="59.8813724" lon="17.8377845">
        <ele>28.9769</ele>
        <time>2013-06-02T09:34:43Z</time>
      </trkpt>
      <trkpt lat="59.8814228" lon="17.837847">
        <ele>28.9769</ele>
        <time>2013-06-02T09:34:44Z</time>
      </trkpt>
      <trkpt lat="59.8814715" lon="17.8379119">
        <ele>28.9769</ele>
        <time>2013-06-02T09:34:45Z</time>
      </trkpt>
      <trkpt lat="59.8815191" lon="17.8379824">
        <ele>28.4962</ele>
        <time>2013-06-02T09:34:46Z</time>
      </trkpt>
      <trkpt lat="59.8815663" lon="17.838058">
        <ele>28.9769</ele>
        <time>2013-06-02T09:34:47Z</time>
      </trkpt>
      <trkpt lat="59.8816127" lon="17.8381357">
        <ele>28.4962</ele>
        <time>2013-06-02T09:34:48Z</time>
      </trkpt>
      <trkpt lat="59.8816599" lon="17.8382124">
        <ele>28.4962</ele>
        <time>2013-06-02T09:34:49Z</time>
      </trkpt>
      <trkpt lat="59.8817072" lon="17.8382884">
        <ele>28.9769</ele>
        <time>2013-06-02T09:34:50Z</time>
      </trkpt>
      <trkpt lat="59.8817554" lon="17.8383611">
        <ele>28.9769</ele>
        <time>2013-06-02T09:34:51Z</time>
      </trkpt>
      <trkpt lat="59.8818038" lon="17.8384313">
        <ele>28.9769</ele>
        <time>2013-06-02T09:34:52Z</time>
      </trkpt>
      <trkpt lat="59.8818475" lon="17.8385025">
        <ele>28.9769</ele>
        <time>2013-06-02T09:34:53Z</time>
      </trkpt>
      <trkpt lat="59.8818914" lon="17.8385719">
        <ele>29.4575</ele>
        <time>2013-06-02T09:34:54Z</time>
      </trkpt>
      <trkpt lat="59.8819377" lon="17.8386382">
        <ele>29.9381</ele>
        <time>2013-06-02T09:34:55Z</time>
      </trkpt>
      <trkpt lat="59.8819862" lon="17.8386983">
        <ele>29.4575</ele>
        <time>2013-06-02T09:34:56Z</time>
      </trkpt>
      <trkpt lat="59.882034" lon="17.8387561">
        <ele>29.9381</ele>
        <time>2013-06-02T09:34:57Z</time>
      </trkpt>
      <trkpt lat="59.8820784" lon="17.8388112">
        <ele>29.9381</ele>
        <time>2013-06-02T09:34:58Z</time>
      </trkpt>
      <trkpt lat="59.8821255" lon="17.838853">
        <ele>29.9381</ele>
        <time>2013-06-02T09:34:59Z</time>
      </trkpt>
      <trkpt lat="59.8821734" lon="17.8388915">
        <ele>29.4575</ele>
        <time>2013-06-02T09:35:00Z</time>
      </trkpt>
      <trkpt lat="59.8822213" lon="17.8389234">
        <ele>28.9769</ele>
        <time>2013-06-02T09:35:01Z</time>
      </trkpt>
      <trkpt lat="59.8822705" lon="17.8389479">
        <ele>28.9769</ele>
        <time>2013-06-02T09:35:02Z</time>
      </trkpt>
      <trkpt lat="59.8823189" lon="17.8389709">
        <ele>28.4962</ele>
        <time>2013-06-02T09:35:03Z</time>
      </trkpt>
      <trkpt lat="59.8823681" lon="17.8389847">
        <ele>28.4962</ele>
        <time>2013-06-02T09:35:04Z</time>
      </trkpt>
      <trkpt lat="59.8824173" lon="17.8389921">
        <ele>28.0155</ele>
        <time>2013-06-02T09:35:05Z</time>
      </trkpt>
      <trkpt lat="59.882465" lon="17.8389976">
        <ele>28.0155</ele>
        <time>2013-06-02T09:35:06Z</time>
      </trkpt>
      <trkpt lat="59.8825142" lon="17.8390048">
        <ele>28.4962</ele>
        <time>2013-06-02T09:35:07Z</time>
      </trkpt>
      <trkpt lat="59.8825615" lon="17.8390141">
        <ele>28.0155</ele>
        <time>2013-06-02T09:35:08Z</time>
      </trkpt>
      <trkpt lat="59.8826085" lon="17.8390246">
        <ele>28.4962</ele>
        <time>2013-06-02T09:35:09Z</time>
      </trkpt>
      <trkpt lat="59.8826549" lon="17.8390342">
        <ele>28.9769</ele>
        <time>2013-06-02T09:35:10Z</time>
      </trkpt>
      <trkpt lat="59.8827018" lon="17.8390537">
        <ele>28.9769</ele>
        <time>2013-06-02T09:35:11Z</time>
      </trkpt>
      <trkpt lat="59.8827489" lon="17.8390809">
        <ele>28.9769</ele>
        <time>2013-06-02T09:35:12Z</time>
      </trkpt>
      <trkpt lat="59.8827981" lon="17.8391061">
        <ele>28.4962</ele>
        <time>2013-06-02T09:35:13Z</time>
      </trkpt>
      <trkpt lat="59.8828447" lon="17.8391397">
        <ele>28.4962</ele>
        <time>2013-06-02T09:35:14Z</time>
      </trkpt>
      <trkpt lat="59.8828918" lon="17.839182">
        <ele>28.0155</ele>
        <time>2013-06-02T09:35:15Z</time>
      </trkpt>
      <trkpt lat="59.8829394" lon="17.8392327">
        <ele>27.5349</ele>
        <time>2013-06-02T09:35:16Z</time>
      </trkpt>
      <trkpt lat="59.8829899" lon="17.8392893">
        <ele>27.0543</ele>
        <time>2013-06-02T09:35:17Z</time>
      </trkpt>
      <trkpt lat="59.883044" lon="17.8393544">
        <ele>26.5736</ele>
        <time>2013-06-02T09:35:18Z</time>
      </trkpt>
      <trkpt lat="59.8830996" lon="17.8394241">
        <ele>26.0929</ele>
        <time>2013-06-02T09:35:19Z</time>
      </trkpt>
      <trkpt lat="59.883158" lon="17.839498">
        <ele>25.1317</ele>
        <time>2013-06-02T09:35:20Z</time>
      </trkpt>
      <trkpt lat="59.8832211" lon="17.8395742">
        <ele>24.651</ele>
        <time>2013-06-02T09:35:21Z</time>
      </trkpt>
      <trkpt lat="59.8832871" lon="17.8396562">
        <ele>23.6896</ele>
        <time>2013-06-02T09:35:22Z</time>
      </trkpt>
      <trkpt lat="59.8833529" lon="17.8397445">
        <ele>23.209</ele>
        <time>2013-06-02T09:35:23Z</time>
      </trkpt>
      <trkpt lat="59.8834181" lon="17.8398341">
        <ele>22.7283</ele>
        <time>2013-06-02T09:35:24Z</time>
      </trkpt>
      <trkpt lat="59.8834835" lon="17.8399235">
        <ele>22.2476</ele>
        <time>2013-06-02T09:35:25Z</time>
      </trkpt>
      <trkpt lat="59.8835498" lon="17.8400131">
        <ele>21.767</ele>
        <time>2013-06-02T09:35:26Z</time>
      </trkpt>
      <trkpt lat="59.8836174" lon="17.8401022">
        <ele>21.767</ele>
        <time>2013-06-02T09:35:27Z</time>
      </trkpt>
      <trkpt lat="59.8836844" lon="17.8401901">
        <ele>21.2864</ele>
        <time>2013-06-02T09:35:28Z</time>
      </trkpt>
      <trkpt lat="59.883752" lon="17.8402802">
        <ele>21.2864</ele>
        <time>2013-06-02T09:35:29Z</time>
      </trkpt>
      <trkpt lat="59.883819" lon="17.8403724">
        <ele>21.2864</ele>
        <time>2013-06-02T09:35:30Z</time>
      </trkpt>
      <trkpt lat="59.8838867" lon="17.8404646">
        <ele>21.2864</ele>
        <time>2013-06-02T09:35:31Z</time>
      </trkpt>
      <trkpt lat="59.8839551" lon="17.8405538">
        <ele>21.2864</ele>
        <time>2013-06-02T09:35:32Z</time>
      </trkpt>
      <trkpt lat="59.8840238" lon="17.8406439">
        <ele>21.2864</ele>
        <time>2013-06-02T09:35:33Z</time>
      </trkpt>
      <trkpt lat="59.8840914" lon="17.840731">
        <ele>21.2864</ele>
        <time>2013-06-02T09:35:34Z</time>
      </trkpt>
      <trkpt lat="59.8841573" lon="17.8408169">
        <ele>21.767</ele>
        <time>2013-06-02T09:35:35Z</time>
      </trkpt>
      <trkpt lat="59.8842211" lon="17.8409001">
        <ele>21.767</ele>
        <time>2013-06-02T09:35:36Z</time>
      </trkpt>
      <trkpt lat="59.8842843" lon="17.840976">
        <ele>21.767</ele>
        <time>2013-06-02T09:35:37Z</time>
      </trkpt>
      <trkpt lat="59.8843474" lon="17.841046">
        <ele>21.767</ele>
        <time>2013-06-02T09:35:38Z</time>
      </trkpt>
      <trkpt lat="59.8844106" lon="17.8411127">
        <ele>21.767</ele>
        <time>2013-06-02T09:35:39Z</time>
      </trkpt>
      <trkpt lat="59.8844743" lon="17.8411738">
        <ele>21.767</ele>
        <time>2013-06-02T09:35:40Z</time>
      </trkpt>
      <trkpt lat="59.8845376" lon="17.8412276">
        <ele>21.767</ele>
        <time>2013-06-02T09:35:41Z</time>
      </trkpt>
      <trkpt lat="59.8846016" lon="17.8412733">
        <ele>21.767</ele>
        <time>2013-06-02T09:35:42Z</time>
      </trkpt>
      <trkpt lat="59.8846666" lon="17.8413143">
        <ele>21.2864</ele>
        <time>2013-06-02T09:35:43Z</time>
      </trkpt>
      <trkpt lat="59.8847328" lon="17.8413519">
        <ele>21.2864</ele>
        <time>2013-06-02T09:35:44Z</time>
      </trkpt>
      <trkpt lat="59.8847989" lon="17.8413831">
        <ele>21.2864</ele>
        <time>2013-06-02T09:35:45Z</time>
      </trkpt>
      <trkpt lat="59.8848653" lon="17.8414053">
        <ele>21.2864</ele>
        <time>2013-06-02T09:35:46Z</time>
      </trkpt>
      <trkpt lat="59.8849324" lon="17.841424">
        <ele>21.767</ele>
        <time>2013-06-02T09:35:47Z</time>
      </trkpt>
      <trkpt lat="59.884999" lon="17.841437">
        <ele>22.2476</ele>
        <time>2013-06-02T09:35:48Z</time>
      </trkpt>
      <trkpt lat="59.8850664" lon="17.8414427">
        <ele>22.7283</ele>
        <time>2013-06-02T09:35:49Z</time>
      </trkpt>
      <trkpt lat="59.8851317" lon="17.8414462">
        <ele>22.7283</ele>
        <time>2013-06-02T09:35:50Z</time>
      </trkpt>
      <trkpt lat="59.8851942" lon="17.8414505">
        <ele>22.2476</ele>
        <time>2013-06-02T09:35:51Z</time>
      </trkpt>
      <trkpt lat="59.8852554" lon="17.841452">
        <ele>22.2476</ele>
        <time>2013-06-02T09:35:52Z</time>
      </trkpt>
      <trkpt lat="59.8853165" lon="17.8414551">
        <ele>22.2476</ele>
        <time>2013-06-02T09:35:53Z</time>
      </trkpt>
      <trkpt lat="59.8853781" lon="17.8414603">
        <ele>22.2476</ele>
        <time>2013-06-02T09:35:54Z</time>
      </trkpt>
      <trkpt lat="59.8854406" lon="17.8414628">
        <ele>22.2476</ele>
        <time>2013-06-02T09:35:55Z</time>
      </trkpt>
      <trkpt lat="59.8855036" lon="17.8414606">
        <ele>22.7283</ele>
        <time>2013-06-02T09:35:56Z</time>
      </trkpt>
      <trkpt lat="59.8855689" lon="17.8414604">
        <ele>22.7283</ele>
        <time>2013-06-02T09:35:57Z</time>
      </trkpt>
      <trkpt lat="59.8856366" lon="17.8414587">
        <ele>22.7283</ele>
        <time>2013-06-02T09:35:58Z</time>
      </trkpt>
      <trkpt lat="59.8857004" lon="17.8414591">
        <ele>22.2476</ele>
        <time>2013-06-02T09:35:59Z</time>
      </trkpt>
      <trkpt lat="59.8857627" lon="17.8414613">
        <ele>22.2476</ele>
        <time>2013-06-02T09:36:00Z</time>
      </trkpt>
      <trkpt lat="59.8858233" lon="17.8414597">
        <ele>22.2476</ele>
        <time>2013-06-02T09:36:01Z</time>
      </trkpt>
      <trkpt lat="59.8858823" lon="17.8414397">
        <ele>22.2476</ele>
        <time>2013-06-02T09:36:02Z</time>
      </trkpt>
      <trkpt lat="59.885941" lon="17.8413985">
        <ele>22.7283</ele>
        <time>2013-06-02T09:36:03Z</time>
      </trkpt>
      <trkpt lat="59.8859951" lon="17.8413622">
        <ele>24.1703</ele>
        <time>2013-06-02T09:36:04Z</time>
      </trkpt>
      <trkpt lat="59.8860502" lon="17.8413443">
        <ele>24.1703</ele>
        <time>2013-06-02T09:36:05Z</time>
      </trkpt>
      <trkpt lat="59.8861071" lon="17.8413292">
        <ele>24.651</ele>
        <time>2013-06-02T09:36:06Z</time>
      </trkpt>
      <trkpt lat="59.8861687" lon="17.8413109">
        <ele>25.1317</ele>
        <time>2013-06-02T09:36:07Z</time>
      </trkpt>
      <trkpt lat="59.8862305" lon="17.8412912">
        <ele>25.1317</ele>
        <time>2013-06-02T09:36:08Z</time>
      </trkpt>
      <trkpt lat="59.8862919" lon="17.8412727">
        <ele>25.1317</ele>
        <time>2013-06-02T09:36:09Z</time>
      </trkpt>
      <trkpt lat="59.8863538" lon="17.8412603">
        <ele>25.1317</ele>
        <time>2013-06-02T09:36:10Z</time>
      </trkpt>
      <trkpt lat="59.8864196" lon="17.8412482">
        <ele>25.1317</ele>
        <time>2013-06-02T09:36:11Z</time>
      </trkpt>
      <trkpt lat="59.8864822" lon="17.8412149">
        <ele>25.6123</ele>
        <time>2013-06-02T09:36:12Z</time>
      </trkpt>
      <trkpt lat="59.8865429" lon="17.8411884">
        <ele>24.651</ele>
        <time>2013-06-02T09:36:13Z</time>
      </trkpt>
      <trkpt lat="59.8866054" lon="17.8411636">
        <ele>24.651</ele>
        <time>2013-06-02T09:36:14Z</time>
      </trkpt>
      <trkpt lat="59.8866691" lon="17.8411547">
        <ele>24.1703</ele>
        <time>2013-06-02T09:36:15Z</time>
      </trkpt>
      <trkpt lat="59.8867344" lon="17.8411454">
        <ele>23.6896</ele>
        <time>2013-06-02T09:36:16Z</time>
      </trkpt>
      <trkpt lat="59.886804" lon="17.8411376">
        <ele>23.209</ele>
        <time>2013-06-02T09:36:17Z</time>
      </trkpt>
      <trkpt lat="59.8868733" lon="17.8411291">
        <ele>23.209</ele>
        <time>2013-06-02T09:36:18Z</time>
      </trkpt>
      <trkpt lat="59.8869395" lon="17.8411348">
        <ele>22.7283</ele>
        <time>2013-06-02T09:36:19Z</time>
      </trkpt>
      <trkpt lat="59.8870038" lon="17.8411654">
        <ele>22.7283</ele>
        <time>2013-06-02T09:36:20Z</time>
      </trkpt>
      <trkpt lat="59.8870649" lon="17.8412122">
        <ele>22.7283</ele>
        <time>2013-06-02T09:36:21Z</time>
      </trkpt>
      <trkpt lat="59.8871219" lon="17.8412708">
        <ele>22.7283</ele>
        <time>2013-06-02T09:36:22Z</time>
      </trkpt>
      <trkpt lat="59.8871759" lon="17.8413366">
        <ele>23.209</ele>
        <time>2013-06-02T09:36:23Z</time>
      </trkpt>
      <trkpt lat="59.8872271" lon="17.8414088">
        <ele>23.209</ele>
        <time>2013-06-02T09:36:24Z</time>
      </trkpt>
      <trkpt lat="59.8872714" lon="17.8414915">
        <ele>23.6896</ele>
        <time>2013-06-02T09:36:25Z</time>
      </trkpt>
      <trkpt lat="59.8873094" lon="17.8415798">
        <ele>23.6896</ele>
        <time>2013-06-02T09:36:26Z</time>
      </trkpt>
      <trkpt lat="59.8873435" lon="17.8416684">
        <ele>24.1703</ele>
        <time>2013-06-02T09:36:27Z</time>
      </trkpt>
      <trkpt lat="59.8873758" lon="17.8417557">
        <ele>24.1703</ele>
        <time>2013-06-02T09:36:28Z</time>
      </trkpt>
      <trkpt lat="59.8874094" lon="17.8418379">
        <ele>24.1703</ele>
        <time>2013-06-02T09:36:29Z</time>
      </trkpt>
      <trkpt lat="59.8874439" lon="17.8419223">
        <ele>23.6896</ele>
        <time>2013-06-02T09:36:30Z</time>
      </trkpt>
      <trkpt lat="59.8874805" lon="17.8420056">
        <ele>23.209</ele>
        <time>2013-06-02T09:36:31Z</time>
      </trkpt>
      <trkpt lat="59.8875203" lon="17.8420876">
        <ele>23.209</ele>
        <time>2013-06-02T09:36:32Z</time>
      </trkpt>
      <trkpt lat="59.8875628" lon="17.8421667">
        <ele>23.209</ele>
        <time>2013-06-02T09:36:33Z</time>
      </trkpt>
      <trkpt lat="59.8876071" lon="17.8422447">
        <ele>23.209</ele>
        <time>2013-06-02T09:36:34Z</time>
      </trkpt>
      <trkpt lat="59.8876532" lon="17.8423207">
        <ele>22.7283</ele>
        <time>2013-06-02T09:36:35Z</time>
      </trkpt>
      <trkpt lat="59.8877015" lon="17.8423907">
        <ele>23.209</ele>
        <time>2013-06-02T09:36:36Z</time>
      </trkpt>
      <trkpt lat="59.8877528" lon="17.842455">
        <ele>23.209</ele>
        <time>2013-06-02T09:36:37Z</time>
      </trkpt>
      <trkpt lat="59.8878025" lon="17.8425225">
        <ele>22.7283</ele>
        <time>2013-06-02T09:36:38Z</time>
      </trkpt>
      <trkpt lat="59.887856" lon="17.8425797">
        <ele>22.7283</ele>
        <time>2013-06-02T09:36:39Z</time>
      </trkpt>
      <trkpt lat="59.8879114" lon="17.8426347">
        <ele>22.7283</ele>
        <time>2013-06-02T09:36:40Z</time>
      </trkpt>
      <trkpt lat="59.8879674" lon="17.8426894">
        <ele>22.7283</ele>
        <time>2013-06-02T09:36:41Z</time>
      </trkpt>
      <trkpt lat="59.8880204" lon="17.8427455">
        <ele>23.209</ele>
        <time>2013-06-02T09:36:42Z</time>
      </trkpt>
      <trkpt lat="59.8880731" lon="17.8427978">
        <ele>23.209</ele>
        <time>2013-06-02T09:36:43Z</time>
      </trkpt>
      <trkpt lat="59.8881283" lon="17.842843">
        <ele>23.209</ele>
        <time>2013-06-02T09:36:44Z</time>
      </trkpt>
      <trkpt lat="59.8881822" lon="17.8428893">
        <ele>23.209</ele>
        <time>2013-06-02T09:36:45Z</time>
      </trkpt>
      <trkpt lat="59.8882367" lon="17.8429312">
        <ele>23.209</ele>
        <time>2013-06-02T09:36:46Z</time>
      </trkpt>
      <trkpt lat="59.8882922" lon="17.8429681">
        <ele>23.6896</ele>
        <time>2013-06-02T09:36:47Z</time>
      </trkpt>
      <trkpt lat="59.8883486" lon="17.8430039">
        <ele>24.1703</ele>
        <time>2013-06-02T09:36:48Z</time>
      </trkpt>
      <trkpt lat="59.8884022" lon="17.8430326">
        <ele>24.651</ele>
        <time>2013-06-02T09:36:49Z</time>
      </trkpt>
      <trkpt lat="59.8884559" lon="17.84306">
        <ele>24.651</ele>
        <time>2013-06-02T09:36:50Z</time>
      </trkpt>
      <trkpt lat="59.8885089" lon="17.8430843">
        <ele>24.651</ele>
        <time>2013-06-02T09:36:51Z</time>
      </trkpt>
      <trkpt lat="59.8885609" lon="17.8431046">
        <ele>24.651</ele>
        <time>2013-06-02T09:36:52Z</time>
      </trkpt>
      <trkpt lat="59.8886117" lon="17.8431193">
        <ele>24.651</ele>
        <time>2013-06-02T09:36:53Z</time>
      </trkpt>
      <trkpt lat="59.888663" lon="17.8431283">
        <ele>24.1703</ele>
        <time>2013-06-02T09:36:54Z</time>
      </trkpt>
      <trkpt lat="59.8887158" lon="17.8431357">
        <ele>24.651</ele>
        <time>2013-06-02T09:36:55Z</time>
      </trkpt>
      <trkpt lat="59.8887718" lon="17.8431445">
        <ele>25.1317</ele>
        <time>2013-06-02T09:36:56Z</time>
      </trkpt>
      <trkpt lat="59.8888257" lon="17.8431567">
        <ele>25.1317</ele>
        <time>2013-06-02T09:36:57Z</time>
      </trkpt>
      <trkpt lat="59.8888784" lon="17.8431669">
        <ele>25.1317</ele>
        <time>2013-06-02T09:36:58Z</time>
      </trkpt>
      <trkpt lat="59.8889303" lon="17.8431816">
        <ele>25.1317</ele>
        <time>2013-06-02T09:36:59Z</time>
      </trkpt>
      <trkpt lat="59.888986" lon="17.8432013">
        <ele>25.6123</ele>
        <time>2013-06-02T09:37:00Z</time>
      </trkpt>
      <trkpt lat="59.8890395" lon="17.8432297">
        <ele>25.6123</ele>
        <time>2013-06-02T09:37:01Z</time>
      </trkpt>
      <trkpt lat="59.8891422" lon="17.8432973">
        <ele>25.6123</ele>
        <time>2013-06-02T09:37:02Z</time>
      </trkpt>
      <trkpt lat="59.889192" lon="17.843332">
        <ele>25.6123</ele>
        <time>2013-06-02T09:37:03Z</time>
      </trkpt>
      <trkpt lat="59.8892458" lon="17.8433656">
        <ele>25.6123</ele>
        <time>2013-06-02T09:37:04Z</time>
      </trkpt>
      <trkpt lat="59.8893013" lon="17.8434069">
        <ele>25.6123</ele>
        <time>2013-06-02T09:37:05Z</time>
      </trkpt>
      <trkpt lat="59.889357" lon="17.8434454">
        <ele>25.6123</ele>
        <time>2013-06-02T09:37:06Z</time>
      </trkpt>
      <trkpt lat="59.8894163" lon="17.8434422">
        <ele>25.1317</ele>
        <time>2013-06-02T09:37:07Z</time>
      </trkpt>
      <trkpt lat="59.8894807" lon="17.8434101">
        <ele>24.651</ele>
        <time>2013-06-02T09:37:08Z</time>
      </trkpt>
      <trkpt lat="59.8895325" lon="17.8433838">
        <ele>24.651</ele>
        <time>2013-06-02T09:37:09Z</time>
      </trkpt>
      <trkpt lat="59.8895828" lon="17.8433457">
        <ele>24.1703</ele>
        <time>2013-06-02T09:37:10Z</time>
      </trkpt>
      <trkpt lat="59.8896349" lon="17.8432879">
        <ele>24.1703</ele>
        <time>2013-06-02T09:37:11Z</time>
      </trkpt>
      <trkpt lat="59.8896901" lon="17.8432149">
        <ele>24.1703</ele>
        <time>2013-06-02T09:37:12Z</time>
      </trkpt>
      <trkpt lat="59.8897331" lon="17.8431136">
        <ele>24.651</ele>
        <time>2013-06-02T09:37:13Z</time>
      </trkpt>
      <trkpt lat="59.8897704" lon="17.8430128">
        <ele>24.1703</ele>
        <time>2013-06-02T09:37:14Z</time>
      </trkpt>
      <trkpt lat="59.8898" lon="17.8429338">
        <ele>22.7283</ele>
        <time>2013-06-02T09:37:15Z</time>
      </trkpt>
      <trkpt lat="59.8898266" lon="17.8428601">
        <ele>21.2864</ele>
        <time>2013-06-02T09:37:16Z</time>
      </trkpt>
      <trkpt lat="59.8898525" lon="17.8427733">
        <ele>20.325</ele>
        <time>2013-06-02T09:37:17Z</time>
      </trkpt>
      <trkpt lat="59.8898654" lon="17.8426785">
        <ele>18.8831</ele>
        <time>2013-06-02T09:37:18Z</time>
      </trkpt>
      <trkpt lat="59.8898793" lon="17.8425857">
        <ele>17.4412</ele>
        <time>2013-06-02T09:37:19Z</time>
      </trkpt>
      <trkpt lat="59.8898915" lon="17.8424926">
        <ele>16.4797</ele>
        <time>2013-06-02T09:37:20Z</time>
      </trkpt>
      <trkpt lat="59.8899005" lon="17.8423941">
        <ele>15.5184</ele>
        <time>2013-06-02T09:37:21Z</time>
      </trkpt>
      <trkpt lat="59.8899047" lon="17.842272">
        <ele>17.4412</ele>
        <time>2013-06-02T09:37:22Z</time>
      </trkpt>
      <trkpt lat="59.8899071" lon="17.842155">
        <ele>19.3638</ele>
        <time>2013-06-02T09:37:23Z</time>
      </trkpt>
      <trkpt lat="59.8899171" lon="17.842061">
        <ele>19.3638</ele>
        <time>2013-06-02T09:37:24Z</time>
      </trkpt>
      <trkpt lat="59.889933" lon="17.8419762">
        <ele>18.8831</ele>
        <time>2013-06-02T09:37:25Z</time>
      </trkpt>
      <trkpt lat="59.8899431" lon="17.8418834">
        <ele>18.4023</ele>
        <time>2013-06-02T09:37:26Z</time>
      </trkpt>
      <trkpt lat="59.8899529" lon="17.8417746">
        <ele>19.3638</ele>
        <time>2013-06-02T09:37:27Z</time>
      </trkpt>
      <trkpt lat="59.889968" lon="17.8416696">
        <ele>20.8057</ele>
        <time>2013-06-02T09:37:28Z</time>
      </trkpt>
      <trkpt lat="59.8899865" lon="17.8415647">
        <ele>21.767</ele>
        <time>2013-06-02T09:37:29Z</time>
      </trkpt>
      <trkpt lat="59.8900091" lon="17.8414664">
        <ele>22.2476</ele>
        <time>2013-06-02T09:37:30Z</time>
      </trkpt>
      <trkpt lat="59.8900281" lon="17.8413536">
        <ele>23.209</ele>
        <time>2013-06-02T09:37:31Z</time>
      </trkpt>
      <trkpt lat="59.8900466" lon="17.8412447">
        <ele>24.651</ele>
        <time>2013-06-02T09:37:32Z</time>
      </trkpt>
      <trkpt lat="59.8900734" lon="17.8411509">
        <ele>24.651</ele>
        <time>2013-06-02T09:37:33Z</time>
      </trkpt>
      <trkpt lat="59.8901087" lon="17.8410669">
        <ele>25.1317</ele>
        <time>2013-06-02T09:37:34Z</time>
      </trkpt>
      <trkpt lat="59.8901327" lon="17.84098">
        <ele>25.6123</ele>
        <time>2013-06-02T09:37:35Z</time>
      </trkpt>
      <trkpt lat="59.8901352" lon="17.840906">
        <ele>25.6123</ele>
        <time>2013-06-02T09:37:36Z</time>
      </trkpt>
      <trkpt lat="59.8901726" lon="17.8408734">
        <ele>25.6123</ele>
        <time>2013-06-02T09:37:37Z</time>
      </trkpt>
      <trkpt lat="59.8902362" lon="17.8408595">
        <ele>25.1317</ele>
        <time>2013-06-02T09:37:38Z</time>
      </trkpt>
      <trkpt lat="59.8903035" lon="17.8408489">
        <ele>24.651</ele>
        <time>2013-06-02T09:37:39Z</time>
      </trkpt>
      <trkpt lat="59.8903644" lon="17.8408766">
        <ele>24.1703</ele>
        <time>2013-06-02T09:37:40Z</time>
      </trkpt>
      <trkpt lat="59.8904129" lon="17.8409388">
        <ele>23.6896</ele>
        <time>2013-06-02T09:37:41Z</time>
      </trkpt>
      <trkpt lat="59.89046" lon="17.8410136">
        <ele>23.6896</ele>
        <time>2013-06-02T09:37:42Z</time>
      </trkpt>
      <trkpt lat="59.890505" lon="17.841093">
        <ele>23.6896</ele>
        <time>2013-06-02T09:37:43Z</time>
      </trkpt>
      <trkpt lat="59.8905511" lon="17.8411806">
        <ele>25.1317</ele>
        <time>2013-06-02T09:37:44Z</time>
      </trkpt>
      <trkpt lat="59.8905914" lon="17.8412618">
        <ele>26.0929</ele>
        <time>2013-06-02T09:37:45Z</time>
      </trkpt>
      <trkpt lat="59.8906278" lon="17.8413431">
        <ele>26.0929</ele>
        <time>2013-06-02T09:37:46Z</time>
      </trkpt>
      <trkpt lat="59.8906602" lon="17.8414161">
        <ele>25.6123</ele>
        <time>2013-06-02T09:37:47Z</time>
      </trkpt>
      <trkpt lat="59.8906984" lon="17.8414955">
        <ele>26.5736</ele>
        <time>2013-06-02T09:37:48Z</time>
      </trkpt>
      <trkpt lat="59.8907323" lon="17.8415514">
        <ele>25.6123</ele>
        <time>2013-06-02T09:37:49Z</time>
      </trkpt>
      <trkpt lat="59.8907681" lon="17.841599">
        <ele>23.6896</ele>
        <time>2013-06-02T09:37:50Z</time>
      </trkpt>
      <trkpt lat="59.8908125" lon="17.8416402">
        <ele>22.7283</ele>
        <time>2013-06-02T09:37:51Z</time>
      </trkpt>
      <trkpt lat="59.8908608" lon="17.8416903">
        <ele>22.7283</ele>
        <time>2013-06-02T09:37:52Z</time>
      </trkpt>
      <trkpt lat="59.8909076" lon="17.8417385">
        <ele>22.2476</ele>
        <time>2013-06-02T09:37:53Z</time>
      </trkpt>
      <trkpt lat="59.8909586" lon="17.841779">
        <ele>22.2476</ele>
        <time>2013-06-02T09:37:54Z</time>
      </trkpt>
      <trkpt lat="59.8910158" lon="17.8418223">
        <ele>23.6896</ele>
        <time>2013-06-02T09:37:55Z</time>
      </trkpt>
      <trkpt lat="59.8910636" lon="17.84187">
        <ele>23.209</ele>
        <time>2013-06-02T09:37:56Z</time>
      </trkpt>
      <trkpt lat="59.8911048" lon="17.8419218">
        <ele>22.2476</ele>
        <time>2013-06-02T09:37:57Z</time>
      </trkpt>
      <trkpt lat="59.8911451" lon="17.8419804">
        <ele>21.767</ele>
        <time>2013-06-02T09:37:58Z</time>
      </trkpt>
      <trkpt lat="59.8911948" lon="17.8420328">
        <ele>22.7283</ele>
        <time>2013-06-02T09:37:59Z</time>
      </trkpt>
      <trkpt lat="59.8912478" lon="17.842076">
        <ele>23.209</ele>
        <time>2013-06-02T09:38:00Z</time>
      </trkpt>
      <trkpt lat="59.8912997" lon="17.8421073">
        <ele>22.7283</ele>
        <time>2013-06-02T09:38:01Z</time>
      </trkpt>
      <trkpt lat="59.8913518" lon="17.8421426">
        <ele>22.7283</ele>
        <time>2013-06-02T09:38:02Z</time>
      </trkpt>
      <trkpt lat="59.8914094" lon="17.8421687">
        <ele>22.7283</ele>
        <time>2013-06-02T09:38:03Z</time>
      </trkpt>
      <trkpt lat="59.891468" lon="17.8421943">
        <ele>23.209</ele>
        <time>2013-06-02T09:38:04Z</time>
      </trkpt>
      <trkpt lat="59.8915256" lon="17.8422109">
        <ele>23.209</ele>
        <time>2013-06-02T09:38:05Z</time>
      </trkpt>
      <trkpt lat="59.8915903" lon="17.8422233">
        <ele>25.1317</ele>
        <time>2013-06-02T09:38:06Z</time>
      </trkpt>
      <trkpt lat="59.8916457" lon="17.8422403">
        <ele>26.0929</ele>
        <time>2013-06-02T09:38:07Z</time>
      </trkpt>
      <trkpt lat="59.8916994" lon="17.8422516">
        <ele>27.0543</ele>
        <time>2013-06-02T09:38:08Z</time>
      </trkpt>
      <trkpt lat="59.8917554" lon="17.842259">
        <ele>26.5736</ele>
        <time>2013-06-02T09:38:09Z</time>
      </trkpt>
      <trkpt lat="59.8918208" lon="17.8422739">
        <ele>27.5349</ele>
        <time>2013-06-02T09:38:10Z</time>
      </trkpt>
      <trkpt lat="59.8918918" lon="17.8422944">
        <ele>28.9769</ele>
        <time>2013-06-02T09:38:11Z</time>
      </trkpt>
      <trkpt lat="59.8919606" lon="17.8423166">
        <ele>29.4575</ele>
        <time>2013-06-02T09:38:12Z</time>
      </trkpt>
      <trkpt lat="59.8920253" lon="17.8423372">
        <ele>29.4575</ele>
        <time>2013-06-02T09:38:13Z</time>
      </trkpt>
      <trkpt lat="59.8920907" lon="17.8423626">
        <ele>29.9381</ele>
        <time>2013-06-02T09:38:14Z</time>
      </trkpt>
      <trkpt lat="59.8921605" lon="17.8423937">
        <ele>29.9381</ele>
        <time>2013-06-02T09:38:15Z</time>
      </trkpt>
      <trkpt lat="59.8922293" lon="17.8424275">
        <ele>29.9381</ele>
        <time>2013-06-02T09:38:16Z</time>
      </trkpt>
      <trkpt lat="59.8922957" lon="17.8424573">
        <ele>29.4575</ele>
        <time>2013-06-02T09:38:17Z</time>
      </trkpt>
      <trkpt lat="59.892366" lon="17.8424849">
        <ele>29.4575</ele>
        <time>2013-06-02T09:38:18Z</time>
      </trkpt>
      <trkpt lat="59.8924355" lon="17.8425135">
        <ele>28.9769</ele>
        <time>2013-06-02T09:38:19Z</time>
      </trkpt>
      <trkpt lat="59.8925077" lon="17.8425469">
        <ele>28.9769</ele>
        <time>2013-06-02T09:38:20Z</time>
      </trkpt>
      <trkpt lat="59.8925776" lon="17.8425797">
        <ele>28.4962</ele>
        <time>2013-06-02T09:38:21Z</time>
      </trkpt>
      <trkpt lat="59.8926496" lon="17.8426087">
        <ele>28.4962</ele>
        <time>2013-06-02T09:38:22Z</time>
      </trkpt>
      <trkpt lat="59.892719" lon="17.8426455">
        <ele>27.0543</ele>
        <time>2013-06-02T09:38:23Z</time>
      </trkpt>
      <trkpt lat="59.892792" lon="17.842676">
        <ele>26.5736</ele>
        <time>2013-06-02T09:38:24Z</time>
      </trkpt>
      <trkpt lat="59.892865" lon="17.8427064">
        <ele>26.0929</ele>
        <time>2013-06-02T09:38:25Z</time>
      </trkpt>
      <trkpt lat="59.8929364" lon="17.8427385">
        <ele>25.1317</ele>
        <time>2013-06-02T09:38:26Z</time>
      </trkpt>
      <trkpt lat="59.8930073" lon="17.8427696">
        <ele>25.6123</ele>
        <time>2013-06-02T09:38:27Z</time>
      </trkpt>
      <trkpt lat="59.8930755" lon="17.8428008">
        <ele>26.0929</ele>
        <time>2013-06-02T09:38:28Z</time>
      </trkpt>
      <trkpt lat="59.8931464" lon="17.8428271">
        <ele>26.5736</ele>
        <time>2013-06-02T09:38:29Z</time>
      </trkpt>
      <trkpt lat="59.8932147" lon="17.8428456">
        <ele>27.0543</ele>
        <time>2013-06-02T09:38:30Z</time>
      </trkpt>
      <trkpt lat="59.8932836" lon="17.8428795">
        <ele>27.5349</ele>
        <time>2013-06-02T09:38:31Z</time>
      </trkpt>
      <trkpt lat="59.8933587" lon="17.8429046">
        <ele>28.9769</ele>
        <time>2013-06-02T09:38:32Z</time>
      </trkpt>
      <trkpt lat="59.8934298" lon="17.8429196">
        <ele>29.4575</ele>
        <time>2013-06-02T09:38:33Z</time>
      </trkpt>
      <trkpt lat="59.8935049" lon="17.8429252">
        <ele>29.4575</ele>
        <time>2013-06-02T09:38:34Z</time>
      </trkpt>
      <trkpt lat="59.8935775" lon="17.8429359">
        <ele>29.4575</ele>
        <time>2013-06-02T09:38:35Z</time>
      </trkpt>
      <trkpt lat="59.8936483" lon="17.8429466">
        <ele>29.9381</ele>
        <time>2013-06-02T09:38:36Z</time>
      </trkpt>
      <trkpt lat="59.8937177" lon="17.8429552">
        <ele>29.4575</ele>
        <time>2013-06-02T09:38:37Z</time>
      </trkpt>
      <trkpt lat="59.8937898" lon="17.8429626">
        <ele>30.4188</ele>
        <time>2013-06-02T09:38:38Z</time>
      </trkpt>
      <trkpt lat="59.8938664" lon="17.842967">
        <ele>30.4188</ele>
        <time>2013-06-02T09:38:39Z</time>
      </trkpt>
      <trkpt lat="59.8939346" lon="17.8429718">
        <ele>30.8995</ele>
        <time>2013-06-02T09:38:40Z</time>
      </trkpt>
      <trkpt lat="59.8939953" lon="17.8429868">
        <ele>30.8995</ele>
        <time>2013-06-02T09:38:41Z</time>
      </trkpt>
      <trkpt lat="59.8940626" lon="17.8429934">
        <ele>31.3801</ele>
        <time>2013-06-02T09:38:42Z</time>
      </trkpt>
      <trkpt lat="59.8941371" lon="17.8429941">
        <ele>31.8607</ele>
        <time>2013-06-02T09:38:43Z</time>
      </trkpt>
      <trkpt lat="59.8942051" lon="17.8429977">
        <ele>31.3801</ele>
        <time>2013-06-02T09:38:44Z</time>
      </trkpt>
      <trkpt lat="59.8942819" lon="17.8429882">
        <ele>32.3416</ele>
        <time>2013-06-02T09:38:45Z</time>
      </trkpt>
      <trkpt lat="59.8943502" lon="17.842988">
        <ele>32.8223</ele>
        <time>2013-06-02T09:38:46Z</time>
      </trkpt>
      <trkpt lat="59.8944192" lon="17.8429937">
        <ele>33.3029</ele>
        <time>2013-06-02T09:38:47Z</time>
      </trkpt>
      <trkpt lat="59.894489" lon="17.8430039">
        <ele>33.7834</ele>
        <time>2013-06-02T09:38:48Z</time>
      </trkpt>
      <trkpt lat="59.8945552" lon="17.8430211">
        <ele>33.7834</ele>
        <time>2013-06-02T09:38:49Z</time>
      </trkpt>
      <trkpt lat="59.894618" lon="17.8430414">
        <ele>33.7834</ele>
        <time>2013-06-02T09:38:50Z</time>
      </trkpt>
      <trkpt lat="59.8946842" lon="17.8430468">
        <ele>34.2642</ele>
        <time>2013-06-02T09:38:51Z</time>
      </trkpt>
      <trkpt lat="59.8947485" lon="17.8430556">
        <ele>34.2642</ele>
        <time>2013-06-02T09:38:52Z</time>
      </trkpt>
      <trkpt lat="59.8948169" lon="17.8430642">
        <ele>34.7449</ele>
        <time>2013-06-02T09:38:53Z</time>
      </trkpt>
      <trkpt lat="59.8948828" lon="17.8430662">
        <ele>35.2255</ele>
        <time>2013-06-02T09:38:54Z</time>
      </trkpt>
      <trkpt lat="59.8949466" lon="17.8430677">
        <ele>35.2255</ele>
        <time>2013-06-02T09:38:55Z</time>
      </trkpt>
      <trkpt lat="59.8950076" lon="17.8430716">
        <ele>34.2642</ele>
        <time>2013-06-02T09:38:56Z</time>
      </trkpt>
      <trkpt lat="59.8950687" lon="17.8430718">
        <ele>34.7449</ele>
        <time>2013-06-02T09:38:57Z</time>
      </trkpt>
      <trkpt lat="59.8951384" lon="17.8430613">
        <ele>33.7834</ele>
        <time>2013-06-02T09:38:58Z</time>
      </trkpt>
      <trkpt lat="59.8952084" lon="17.8430391">
        <ele>33.3029</ele>
        <time>2013-06-02T09:38:59Z</time>
      </trkpt>
      <trkpt lat="59.8952788" lon="17.8430189">
        <ele>32.3416</ele>
        <time>2013-06-02T09:39:00Z</time>
      </trkpt>
      <trkpt lat="59.8953487" lon="17.8429971">
        <ele>31.8607</ele>
        <time>2013-06-02T09:39:01Z</time>
      </trkpt>
      <trkpt lat="59.8954116" lon="17.8429732">
        <ele>29.9381</ele>
        <time>2013-06-02T09:39:02Z</time>
      </trkpt>
      <trkpt lat="59.89547" lon="17.8429476">
        <ele>28.9769</ele>
        <time>2013-06-02T09:39:03Z</time>
      </trkpt>
      <trkpt lat="59.8955307" lon="17.8429355">
        <ele>28.4962</ele>
        <time>2013-06-02T09:39:04Z</time>
      </trkpt>
      <trkpt lat="59.8955894" lon="17.8429329">
        <ele>28.4962</ele>
        <time>2013-06-02T09:39:05Z</time>
      </trkpt>
      <trkpt lat="59.8956478" lon="17.8429116">
        <ele>28.4962</ele>
        <time>2013-06-02T09:39:06Z</time>
      </trkpt>
      <trkpt lat="59.8957039" lon="17.8428761">
        <ele>28.4962</ele>
        <time>2013-06-02T09:39:07Z</time>
      </trkpt>
      <trkpt lat="59.8957557" lon="17.8428521">
        <ele>27.5349</ele>
        <time>2013-06-02T09:39:08Z</time>
      </trkpt>
      <trkpt lat="59.895812" lon="17.8428364">
        <ele>26.5736</ele>
        <time>2013-06-02T09:39:09Z</time>
      </trkpt>
      <trkpt lat="59.8958773" lon="17.8428147">
        <ele>26.0929</ele>
        <time>2013-06-02T09:39:10Z</time>
      </trkpt>
      <trkpt lat="59.8959367" lon="17.8427896">
        <ele>25.6123</ele>
        <time>2013-06-02T09:39:11Z</time>
      </trkpt>
      <trkpt lat="59.8960011" lon="17.8427647">
        <ele>27.0543</ele>
        <time>2013-06-02T09:39:12Z</time>
      </trkpt>
      <trkpt lat="59.8960719" lon="17.8427546">
        <ele>27.5349</ele>
        <time>2013-06-02T09:39:13Z</time>
      </trkpt>
      <trkpt lat="59.8961444" lon="17.8427552">
        <ele>27.5349</ele>
        <time>2013-06-02T09:39:14Z</time>
      </trkpt>
      <trkpt lat="59.8962193" lon="17.8427625">
        <ele>28.0155</ele>
        <time>2013-06-02T09:39:15Z</time>
      </trkpt>
      <trkpt lat="59.8962969" lon="17.8427817">
        <ele>28.0155</ele>
        <time>2013-06-02T09:39:16Z</time>
      </trkpt>
      <trkpt lat="59.8963751" lon="17.8428118">
        <ele>28.4962</ele>
        <time>2013-06-02T09:39:17Z</time>
      </trkpt>
      <trkpt lat="59.8964498" lon="17.8428408">
        <ele>28.4962</ele>
        <time>2013-06-02T09:39:18Z</time>
      </trkpt>
      <trkpt lat="59.8965225" lon="17.8428707">
        <ele>28.0155</ele>
        <time>2013-06-02T09:39:19Z</time>
      </trkpt>
      <trkpt lat="59.8965915" lon="17.8428993">
        <ele>27.5349</ele>
        <time>2013-06-02T09:39:20Z</time>
      </trkpt>
      <trkpt lat="59.8966634" lon="17.8429027">
        <ele>28.0155</ele>
        <time>2013-06-02T09:39:21Z</time>
      </trkpt>
      <trkpt lat="59.8967274" lon="17.8429069">
        <ele>28.9769</ele>
        <time>2013-06-02T09:39:22Z</time>
      </trkpt>
      <trkpt lat="59.8967764" lon="17.8429071">
        <ele>28.4962</ele>
        <time>2013-06-02T09:39:23Z</time>
      </trkpt>
      <trkpt lat="59.896838" lon="17.8428797">
        <ele>29.4575</ele>
        <time>2013-06-02T09:39:24Z</time>
      </trkpt>
      <trkpt lat="59.8969036" lon="17.8428473">
        <ele>29.4575</ele>
        <time>2013-06-02T09:39:25Z</time>
      </trkpt>
      <trkpt lat="59.8969641" lon="17.8428051">
        <ele>28.9769</ele>
        <time>2013-06-02T09:39:26Z</time>
      </trkpt>
      <trkpt lat="59.8970263" lon="17.8427626">
        <ele>28.4962</ele>
        <time>2013-06-02T09:39:27Z</time>
      </trkpt>
      <trkpt lat="59.8970864" lon="17.8427244">
        <ele>28.9769</ele>
        <time>2013-06-02T09:39:28Z</time>
      </trkpt>
      <trkpt lat="59.8971402" lon="17.8426869">
        <ele>28.4962</ele>
        <time>2013-06-02T09:39:29Z</time>
      </trkpt>
      <trkpt lat="59.8972034" lon="17.8426391">
        <ele>28.9769</ele>
        <time>2013-06-02T09:39:30Z</time>
      </trkpt>
      <trkpt lat="59.8972614" lon="17.8425921">
        <ele>28.9769</ele>
        <time>2013-06-02T09:39:31Z</time>
      </trkpt>
      <trkpt lat="59.8973079" lon="17.8425507">
        <ele>28.9769</ele>
        <time>2013-06-02T09:39:32Z</time>
      </trkpt>
      <trkpt lat="59.8973504" lon="17.8425166">
        <ele>29.9381</ele>
        <time>2013-06-02T09:39:33Z</time>
      </trkpt>
      <trkpt lat="59.8973947" lon="17.8424849">
        <ele>30.8995</ele>
        <time>2013-06-02T09:39:34Z</time>
      </trkpt>
      <trkpt lat="59.8974369" lon="17.8424558">
        <ele>30.4188</ele>
        <time>2013-06-02T09:39:35Z</time>
      </trkpt>
      <trkpt lat="59.8974821" lon="17.8424259">
        <ele>30.8995</ele>
        <time>2013-06-02T09:39:36Z</time>
      </trkpt>
      <trkpt lat="59.8975272" lon="17.8424051">
        <ele>30.8995</ele>
        <time>2013-06-02T09:39:37Z</time>
      </trkpt>
      <trkpt lat="59.8975781" lon="17.8423792">
        <ele>30.8995</ele>
        <time>2013-06-02T09:39:38Z</time>
      </trkpt>
      <trkpt lat="59.8976319" lon="17.8423538">
        <ele>31.8607</ele>
        <time>2013-06-02T09:39:39Z</time>
      </trkpt>
      <trkpt lat="59.8976878" lon="17.8423343">
        <ele>31.8607</ele>
        <time>2013-06-02T09:39:40Z</time>
      </trkpt>
      <trkpt lat="59.8977365" lon="17.842327">
        <ele>31.3801</ele>
        <time>2013-06-02T09:39:41Z</time>
      </trkpt>
      <trkpt lat="59.8977831" lon="17.8423158">
        <ele>31.3801</ele>
        <time>2013-06-02T09:39:42Z</time>
      </trkpt>
      <trkpt lat="59.8978205" lon="17.8423176">
        <ele>31.3801</ele>
        <time>2013-06-02T09:39:43Z</time>
      </trkpt>
      <trkpt lat="59.8978647" lon="17.8423096">
        <ele>30.8995</ele>
        <time>2013-06-02T09:39:44Z</time>
      </trkpt>
      <trkpt lat="59.8979073" lon="17.8423092">
        <ele>30.4188</ele>
        <time>2013-06-02T09:39:45Z</time>
      </trkpt>
      <trkpt lat="59.8979585" lon="17.8423017">
        <ele>30.8995</ele>
        <time>2013-06-02T09:39:46Z</time>
      </trkpt>
      <trkpt lat="59.8980109" lon="17.8423009">
        <ele>30.8995</ele>
        <time>2013-06-02T09:39:47Z</time>
      </trkpt>
      <trkpt lat="59.8980683" lon="17.8422903">
        <ele>31.3801</ele>
        <time>2013-06-02T09:39:48Z</time>
      </trkpt>
      <trkpt lat="59.8981176" lon="17.8422938">
        <ele>31.8607</ele>
        <time>2013-06-02T09:39:49Z</time>
      </trkpt>
      <trkpt lat="59.8981667" lon="17.8422918">
        <ele>31.8607</ele>
        <time>2013-06-02T09:39:50Z</time>
      </trkpt>
      <trkpt lat="59.8982185" lon="17.8422871">
        <ele>32.8223</ele>
        <time>2013-06-02T09:39:51Z</time>
      </trkpt>
      <trkpt lat="59.8982696" lon="17.8422839">
        <ele>33.7834</ele>
        <time>2013-06-02T09:39:52Z</time>
      </trkpt>
      <trkpt lat="59.8983182" lon="17.8422785">
        <ele>33.7834</ele>
        <time>2013-06-02T09:39:53Z</time>
      </trkpt>
      <trkpt lat="59.8983634" lon="17.8422719">
        <ele>33.7834</ele>
        <time>2013-06-02T09:39:54Z</time>
      </trkpt>
      <trkpt lat="59.8984102" lon="17.8422622">
        <ele>34.2642</ele>
        <time>2013-06-02T09:39:55Z</time>
      </trkpt>
      <trkpt lat="59.8984581" lon="17.8422472">
        <ele>33.7834</ele>
        <time>2013-06-02T09:39:56Z</time>
      </trkpt>
      <trkpt lat="59.8985045" lon="17.8422295">
        <ele>32.8223</ele>
        <time>2013-06-02T09:39:57Z</time>
      </trkpt>
      <trkpt lat="59.8985507" lon="17.8422066">
        <ele>33.3029</ele>
        <time>2013-06-02T09:39:58Z</time>
      </trkpt>
      <trkpt lat="59.8985973" lon="17.8421812">
        <ele>33.3029</ele>
        <time>2013-06-02T09:39:59Z</time>
      </trkpt>
      <trkpt lat="59.8986436" lon="17.8421688">
        <ele>33.3029</ele>
        <time>2013-06-02T09:40:00Z</time>
      </trkpt>
      <trkpt lat="59.8986925" lon="17.8421398">
        <ele>33.7834</ele>
        <time>2013-06-02T09:40:01Z</time>
      </trkpt>
      <trkpt lat="59.8987363" lon="17.8421151">
        <ele>33.7834</ele>
        <time>2013-06-02T09:40:02Z</time>
      </trkpt>
      <trkpt lat="59.8987792" lon="17.8420859">
        <ele>34.2642</ele>
        <time>2013-06-02T09:40:03Z</time>
      </trkpt>
      <trkpt lat="59.8988178" lon="17.8420577">
        <ele>34.2642</ele>
        <time>2013-06-02T09:40:04Z</time>
      </trkpt>
      <trkpt lat="59.8988564" lon="17.8420358">
        <ele>34.2642</ele>
        <time>2013-06-02T09:40:05Z</time>
      </trkpt>
      <trkpt lat="59.8988953" lon="17.8420129">
        <ele>34.7449</ele>
        <time>2013-06-02T09:40:06Z</time>
      </trkpt>
      <trkpt lat="59.8989342" lon="17.8419892">
        <ele>34.7449</ele>
        <time>2013-06-02T09:40:07Z</time>
      </trkpt>
      <trkpt lat="59.8989727" lon="17.841971">
        <ele>35.7061</ele>
        <time>2013-06-02T09:40:08Z</time>
      </trkpt>
      <trkpt lat="59.8990077" lon="17.841953">
        <ele>35.7061</ele>
        <time>2013-06-02T09:40:09Z</time>
      </trkpt>
      <trkpt lat="59.8990438" lon="17.8419307">
        <ele>35.2255</ele>
        <time>2013-06-02T09:40:10Z</time>
      </trkpt>
      <trkpt lat="59.8990889" lon="17.8418897">
        <ele>35.2255</ele>
        <time>2013-06-02T09:40:11Z</time>
      </trkpt>
      <trkpt lat="59.899132" lon="17.8418468">
        <ele>34.7449</ele>
        <time>2013-06-02T09:40:12Z</time>
      </trkpt>
      <trkpt lat="59.8991698" lon="17.8418188">
        <ele>34.2642</ele>
        <time>2013-06-02T09:40:13Z</time>
      </trkpt>
      <trkpt lat="59.8992102" lon="17.8417859">
        <ele>34.2642</ele>
        <time>2013-06-02T09:40:14Z</time>
      </trkpt>
      <trkpt lat="59.8992549" lon="17.8417525">
        <ele>34.2642</ele>
        <time>2013-06-02T09:40:15Z</time>
      </trkpt>
      <trkpt lat="59.8993013" lon="17.8417129">
        <ele>34.2642</ele>
        <time>2013-06-02T09:40:16Z</time>
      </trkpt>
      <trkpt lat="59.8993546" lon="17.8416678">
        <ele>34.2642</ele>
        <time>2013-06-02T09:40:17Z</time>
      </trkpt>
      <trkpt lat="59.8994103" lon="17.8416204">
        <ele>34.7449</ele>
        <time>2013-06-02T09:40:18Z</time>
      </trkpt>
      <trkpt lat="59.8994645" lon="17.8415638">
        <ele>34.2642</ele>
        <time>2013-06-02T09:40:19Z</time>
      </trkpt>
      <trkpt lat="59.899517" lon="17.8415137">
        <ele>33.3029</ele>
        <time>2013-06-02T09:40:20Z</time>
      </trkpt>
      <trkpt lat="59.8995758" lon="17.84148">
        <ele>33.7834</ele>
        <time>2013-06-02T09:40:21Z</time>
      </trkpt>
      <trkpt lat="59.899637" lon="17.8414603">
        <ele>33.7834</ele>
        <time>2013-06-02T09:40:22Z</time>
      </trkpt>
      <trkpt lat="59.8997031" lon="17.841449">
        <ele>33.3029</ele>
        <time>2013-06-02T09:40:23Z</time>
      </trkpt>
      <trkpt lat="59.8997758" lon="17.8414328">
        <ele>33.3029</ele>
        <time>2013-06-02T09:40:24Z</time>
      </trkpt>
      <trkpt lat="59.8998515" lon="17.8414193">
        <ele>33.3029</ele>
        <time>2013-06-02T09:40:25Z</time>
      </trkpt>
      <trkpt lat="59.8999316" lon="17.8414098">
        <ele>33.7834</ele>
        <time>2013-06-02T09:40:26Z</time>
      </trkpt>
      <trkpt lat="59.9000166" lon="17.841395">
        <ele>33.7834</ele>
        <time>2013-06-02T09:40:27Z</time>
      </trkpt>
      <trkpt lat="59.9001036" lon="17.8413867">
        <ele>33.3029</ele>
        <time>2013-06-02T09:40:28Z</time>
      </trkpt>
      <trkpt lat="59.9001924" lon="17.841381">
        <ele>33.3029</ele>
        <time>2013-06-02T09:40:29Z</time>
      </trkpt>
      <trkpt lat="59.9002768" lon="17.841379">
        <ele>32.8223</ele>
        <time>2013-06-02T09:40:30Z</time>
      </trkpt>
      <trkpt lat="59.9003648" lon="17.8413764">
        <ele>32.3416</ele>
        <time>2013-06-02T09:40:31Z</time>
      </trkpt>
      <trkpt lat="59.9004585" lon="17.8413722">
        <ele>32.8223</ele>
        <time>2013-06-02T09:40:32Z</time>
      </trkpt>
      <trkpt lat="59.9005525" lon="17.841378">
        <ele>32.8223</ele>
        <time>2013-06-02T09:40:33Z</time>
      </trkpt>
      <trkpt lat="59.9006449" lon="17.8413902">
        <ele>33.3029</ele>
        <time>2013-06-02T09:40:34Z</time>
      </trkpt>
      <trkpt lat="59.9007356" lon="17.8413991">
        <ele>33.3029</ele>
        <time>2013-06-02T09:40:35Z</time>
      </trkpt>
      <trkpt lat="59.9008274" lon="17.8414075">
        <ele>33.7834</ele>
        <time>2013-06-02T09:40:36Z</time>
      </trkpt>
      <trkpt lat="59.9009181" lon="17.8414184">
        <ele>33.7834</ele>
        <time>2013-06-02T09:40:37Z</time>
      </trkpt>
      <trkpt lat="59.9010082" lon="17.841429">
        <ele>33.7834</ele>
        <time>2013-06-02T09:40:38Z</time>
      </trkpt>
      <trkpt lat="59.9010987" lon="17.8414384">
        <ele>33.7834</ele>
        <time>2013-06-02T09:40:39Z</time>
      </trkpt>
      <trkpt lat="59.9011867" lon="17.8414502">
        <ele>34.2642</ele>
        <time>2013-06-02T09:40:40Z</time>
      </trkpt>
      <trkpt lat="59.9012729" lon="17.8414623">
        <ele>34.2642</ele>
        <time>2013-06-02T09:40:41Z</time>
      </trkpt>
      <trkpt lat="59.9013599" lon="17.8414691">
        <ele>34.2642</ele>
        <time>2013-06-02T09:40:42Z</time>
      </trkpt>
      <trkpt lat="59.9014407" lon="17.8414806">
        <ele>33.7834</ele>
        <time>2013-06-02T09:40:43Z</time>
      </trkpt>
      <trkpt lat="59.901519" lon="17.8414927">
        <ele>33.7834</ele>
        <time>2013-06-02T09:40:44Z</time>
      </trkpt>
      <trkpt lat="59.9015945" lon="17.8415037">
        <ele>33.7834</ele>
        <time>2013-06-02T09:40:45Z</time>
      </trkpt>
      <trkpt lat="59.9016693" lon="17.8415151">
        <ele>33.7834</ele>
        <time>2013-06-02T09:40:46Z</time>
      </trkpt>
      <trkpt lat="59.9017432" lon="17.8415292">
        <ele>33.7834</ele>
        <time>2013-06-02T09:40:47Z</time>
      </trkpt>
      <trkpt lat="59.9018163" lon="17.8415438">
        <ele>33.3029</ele>
        <time>2013-06-02T09:40:48Z</time>
      </trkpt>
      <trkpt lat="59.9018858" lon="17.8415601">
        <ele>33.3029</ele>
        <time>2013-06-02T09:40:49Z</time>
      </trkpt>
      <trkpt lat="59.9019544" lon="17.8415759">
        <ele>33.3029</ele>
        <time>2013-06-02T09:40:50Z</time>
      </trkpt>
      <trkpt lat="59.9020257" lon="17.8415811">
        <ele>32.8223</ele>
        <time>2013-06-02T09:40:51Z</time>
      </trkpt>
      <trkpt lat="59.9020945" lon="17.8415855">
        <ele>32.3416</ele>
        <time>2013-06-02T09:40:52Z</time>
      </trkpt>
      <trkpt lat="59.9021603" lon="17.8415856">
        <ele>32.3416</ele>
        <time>2013-06-02T09:40:53Z</time>
      </trkpt>
      <trkpt lat="59.902222" lon="17.8415794">
        <ele>31.8607</ele>
        <time>2013-06-02T09:40:54Z</time>
      </trkpt>
      <trkpt lat="59.9022883" lon="17.8415701">
        <ele>30.8995</ele>
        <time>2013-06-02T09:40:55Z</time>
      </trkpt>
      <trkpt lat="59.9023622" lon="17.841545">
        <ele>30.8995</ele>
        <time>2013-06-02T09:40:56Z</time>
      </trkpt>
      <trkpt lat="59.9024301" lon="17.8415285">
        <ele>30.4188</ele>
        <time>2013-06-02T09:40:57Z</time>
      </trkpt>
      <trkpt lat="59.9025141" lon="17.8414867">
        <ele>30.8995</ele>
        <time>2013-06-02T09:40:58Z</time>
      </trkpt>
      <trkpt lat="59.9025969" lon="17.8414499">
        <ele>30.4188</ele>
        <time>2013-06-02T09:40:59Z</time>
      </trkpt>
      <trkpt lat="59.9026822" lon="17.8414111">
        <ele>29.9381</ele>
        <time>2013-06-02T09:41:00Z</time>
      </trkpt>
      <trkpt lat="59.9027635" lon="17.8413681">
        <ele>29.9381</ele>
        <time>2013-06-02T09:41:01Z</time>
      </trkpt>
      <trkpt lat="59.9028399" lon="17.8413369">
        <ele>29.4575</ele>
        <time>2013-06-02T09:41:02Z</time>
      </trkpt>
      <trkpt lat="59.9029169" lon="17.8412955">
        <ele>28.9769</ele>
        <time>2013-06-02T09:41:03Z</time>
      </trkpt>
      <trkpt lat="59.902994" lon="17.8412655">
        <ele>27.5349</ele>
        <time>2013-06-02T09:41:04Z</time>
      </trkpt>
      <trkpt lat="59.9030712" lon="17.8412506">
        <ele>27.0543</ele>
        <time>2013-06-02T09:41:05Z</time>
      </trkpt>
      <trkpt lat="59.9031501" lon="17.8412443">
        <ele>27.0543</ele>
        <time>2013-06-02T09:41:06Z</time>
      </trkpt>
      <trkpt lat="59.903227" lon="17.8412577">
        <ele>26.5736</ele>
        <time>2013-06-02T09:41:07Z</time>
      </trkpt>
      <trkpt lat="59.9033007" lon="17.8412899">
        <ele>26.5736</ele>
        <time>2013-06-02T09:41:08Z</time>
      </trkpt>
      <trkpt lat="59.9033692" lon="17.8413392">
        <ele>26.0929</ele>
        <time>2013-06-02T09:41:09Z</time>
      </trkpt>
      <trkpt lat="59.903433" lon="17.8414178">
        <ele>26.0929</ele>
        <time>2013-06-02T09:41:10Z</time>
      </trkpt>
      <trkpt lat="59.9034914" lon="17.8415168">
        <ele>25.1317</ele>
        <time>2013-06-02T09:41:11Z</time>
      </trkpt>
      <trkpt lat="59.9035481" lon="17.8416178">
        <ele>24.1703</ele>
        <time>2013-06-02T09:41:12Z</time>
      </trkpt>
      <trkpt lat="59.9036086" lon="17.8417151">
        <ele>23.6896</ele>
        <time>2013-06-02T09:41:13Z</time>
      </trkpt>
      <trkpt lat="59.9036738" lon="17.8418064">
        <ele>22.7283</ele>
        <time>2013-06-02T09:41:14Z</time>
      </trkpt>
      <trkpt lat="59.9037452" lon="17.8418825">
        <ele>21.2864</ele>
        <time>2013-06-02T09:41:15Z</time>
      </trkpt>
      <trkpt lat="59.9038196" lon="17.8419404">
        <ele>19.3638</ele>
        <time>2013-06-02T09:41:16Z</time>
      </trkpt>
      <trkpt lat="59.9038976" lon="17.8419871">
        <ele>17.9218</ele>
        <time>2013-06-02T09:41:17Z</time>
      </trkpt>
      <trkpt lat="59.9039821" lon="17.8420131">
        <ele>16.9604</ele>
        <time>2013-06-02T09:41:18Z</time>
      </trkpt>
      <trkpt lat="59.9040669" lon="17.8420159">
        <ele>16.9604</ele>
        <time>2013-06-02T09:41:19Z</time>
      </trkpt>
      <trkpt lat="59.9041508" lon="17.8420142">
        <ele>16.4797</ele>
        <time>2013-06-02T09:41:20Z</time>
      </trkpt>
      <trkpt lat="59.9042407" lon="17.8419814">
        <ele>16.9604</ele>
        <time>2013-06-02T09:41:21Z</time>
      </trkpt>
      <trkpt lat="59.9043476" lon="17.8419066">
        <ele>16.9604</ele>
        <time>2013-06-02T09:41:22Z</time>
      </trkpt>
      <trkpt lat="59.9044224" lon="17.8418696">
        <ele>16.4797</ele>
        <time>2013-06-02T09:41:23Z</time>
      </trkpt>
      <trkpt lat="59.9044933" lon="17.8418405">
        <ele>16.9604</ele>
        <time>2013-06-02T09:41:24Z</time>
      </trkpt>
      <trkpt lat="59.904569" lon="17.8417911">
        <ele>17.4412</ele>
        <time>2013-06-02T09:41:25Z</time>
      </trkpt>
      <trkpt lat="59.9046384" lon="17.8417417">
        <ele>17.9218</ele>
        <time>2013-06-02T09:41:26Z</time>
      </trkpt>
      <trkpt lat="59.9047063" lon="17.8416965">
        <ele>17.4412</ele>
        <time>2013-06-02T09:41:27Z</time>
      </trkpt>
      <trkpt lat="59.9047674" lon="17.8416756">
        <ele>17.4412</ele>
        <time>2013-06-02T09:41:28Z</time>
      </trkpt>
      <trkpt lat="59.9048234" lon="17.8416531">
        <ele>17.9218</ele>
        <time>2013-06-02T09:41:29Z</time>
      </trkpt>
      <trkpt lat="59.9048922" lon="17.8416114">
        <ele>16.9604</ele>
        <time>2013-06-02T09:41:30Z</time>
      </trkpt>
      <trkpt lat="59.9049653" lon="17.8415746">
        <ele>16.9604</ele>
        <time>2013-06-02T09:41:31Z</time>
      </trkpt>
      <trkpt lat="59.9050434" lon="17.8415332">
        <ele>15.5184</ele>
        <time>2013-06-02T09:41:32Z</time>
      </trkpt>
      <trkpt lat="59.9051367" lon="17.8414992">
        <ele>14.557</ele>
        <time>2013-06-02T09:41:33Z</time>
      </trkpt>
      <trkpt lat="59.9052601" lon="17.8414601">
        <ele>15.999</ele>
        <time>2013-06-02T09:41:34Z</time>
      </trkpt>
      <trkpt lat="59.9053739" lon="17.8414096">
        <ele>15.5184</ele>
        <time>2013-06-02T09:41:35Z</time>
      </trkpt>
      <trkpt lat="59.9054955" lon="17.8413634">
        <ele>16.9604</ele>
        <time>2013-06-02T09:41:36Z</time>
      </trkpt>
      <trkpt lat="59.9056253" lon="17.8413075">
        <ele>18.8831</ele>
        <time>2013-06-02T09:41:37Z</time>
      </trkpt>
      <trkpt lat="59.9057464" lon="17.841228">
        <ele>19.3638</ele>
        <time>2013-06-02T09:41:38Z</time>
      </trkpt>
      <trkpt lat="59.9058781" lon="17.8410577">
        <ele>19.8444</ele>
        <time>2013-06-02T09:41:39Z</time>
      </trkpt>
      <trkpt lat="59.9059892" lon="17.8409346">
        <ele>20.8057</ele>
        <time>2013-06-02T09:41:40Z</time>
      </trkpt>
      <trkpt lat="59.9060957" lon="17.8407812">
        <ele>20.325</ele>
        <time>2013-06-02T09:41:41Z</time>
      </trkpt>
      <trkpt lat="59.9061955" lon="17.8406294">
        <ele>20.325</ele>
        <time>2013-06-02T09:41:42Z</time>
      </trkpt>
      <trkpt lat="59.9063005" lon="17.8404776">
        <ele>21.2864</ele>
        <time>2013-06-02T09:41:43Z</time>
      </trkpt>
      <trkpt lat="59.9063851" lon="17.8403424">
        <ele>19.3638</ele>
        <time>2013-06-02T09:41:44Z</time>
      </trkpt>
      <trkpt lat="59.906472" lon="17.8402175">
        <ele>17.4412</ele>
        <time>2013-06-02T09:41:45Z</time>
      </trkpt>
      <trkpt lat="59.90656" lon="17.8401247">
        <ele>16.4797</ele>
        <time>2013-06-02T09:41:46Z</time>
      </trkpt>
      <trkpt lat="59.9066436" lon="17.840059">
        <ele>16.4797</ele>
        <time>2013-06-02T09:41:47Z</time>
      </trkpt>
      <trkpt lat="59.9067225" lon="17.8400057">
        <ele>16.4797</ele>
        <time>2013-06-02T09:41:48Z</time>
      </trkpt>
      <trkpt lat="59.906805" lon="17.8399425">
        <ele>15.5184</ele>
        <time>2013-06-02T09:41:49Z</time>
      </trkpt>
      <trkpt lat="59.9068862" lon="17.8398787">
        <ele>14.0764</ele>
        <time>2013-06-02T09:41:50Z</time>
      </trkpt>
      <trkpt lat="59.9069673" lon="17.8398201">
        <ele>14.557</ele>
        <time>2013-06-02T09:41:51Z</time>
      </trkpt>
      <trkpt lat="59.9070465" lon="17.8397741">
        <ele>15.0377</ele>
        <time>2013-06-02T09:41:52Z</time>
      </trkpt>
      <trkpt lat="59.9071228" lon="17.839741">
        <ele>15.0377</ele>
        <time>2013-06-02T09:41:53Z</time>
      </trkpt>
      <trkpt lat="59.9071942" lon="17.8396975">
        <ele>14.557</ele>
        <time>2013-06-02T09:41:54Z</time>
      </trkpt>
      <trkpt lat="59.9072627" lon="17.8396567">
        <ele>15.5184</ele>
        <time>2013-06-02T09:41:55Z</time>
      </trkpt>
      <trkpt lat="59.9073247" lon="17.8396176">
        <ele>16.9604</ele>
        <time>2013-06-02T09:41:56Z</time>
      </trkpt>
      <trkpt lat="59.9073909" lon="17.839564">
        <ele>17.4412</ele>
        <time>2013-06-02T09:41:57Z</time>
      </trkpt>
      <trkpt lat="59.9074516" lon="17.8395157">
        <ele>17.4412</ele>
        <time>2013-06-02T09:41:58Z</time>
      </trkpt>
      <trkpt lat="59.9075129" lon="17.8394588">
        <ele>17.9218</ele>
        <time>2013-06-02T09:41:59Z</time>
      </trkpt>
      <trkpt lat="59.9075672" lon="17.8394091">
        <ele>17.4412</ele>
        <time>2013-06-02T09:42:00Z</time>
      </trkpt>
      <trkpt lat="59.9076308" lon="17.8393411">
        <ele>18.8831</ele>
        <time>2013-06-02T09:42:01Z</time>
      </trkpt>
      <trkpt lat="59.9076961" lon="17.8392637">
        <ele>20.325</ele>
        <time>2013-06-02T09:42:02Z</time>
      </trkpt>
      <trkpt lat="59.9077561" lon="17.8391908">
        <ele>20.8057</ele>
        <time>2013-06-02T09:42:03Z</time>
      </trkpt>
      <trkpt lat="59.9078112" lon="17.8391245">
        <ele>20.325</ele>
        <time>2013-06-02T09:42:04Z</time>
      </trkpt>
      <trkpt lat="59.9078698" lon="17.8390577">
        <ele>19.8444</ele>
        <time>2013-06-02T09:42:05Z</time>
      </trkpt>
      <trkpt lat="59.9079313" lon="17.8389908">
        <ele>19.3638</ele>
        <time>2013-06-02T09:42:06Z</time>
      </trkpt>
      <trkpt lat="59.9079919" lon="17.8389157">
        <ele>18.4023</ele>
        <time>2013-06-02T09:42:07Z</time>
      </trkpt>
      <trkpt lat="59.9080587" lon="17.8388397">
        <ele>17.4412</ele>
        <time>2013-06-02T09:42:08Z</time>
      </trkpt>
      <trkpt lat="59.9081288" lon="17.8387734">
        <ele>17.9218</ele>
        <time>2013-06-02T09:42:09Z</time>
      </trkpt>
      <trkpt lat="59.9082034" lon="17.8387299">
        <ele>17.4412</ele>
        <time>2013-06-02T09:42:10Z</time>
      </trkpt>
      <trkpt lat="59.9082809" lon="17.8386992">
        <ele>17.4412</ele>
        <time>2013-06-02T09:42:11Z</time>
      </trkpt>
      <trkpt lat="59.9083602" lon="17.8386796">
        <ele>17.4412</ele>
        <time>2013-06-02T09:42:12Z</time>
      </trkpt>
      <trkpt lat="59.9084411" lon="17.8386811">
        <ele>17.9218</ele>
        <time>2013-06-02T09:42:13Z</time>
      </trkpt>
      <trkpt lat="59.9085209" lon="17.8386994">
        <ele>18.4023</ele>
        <time>2013-06-02T09:42:14Z</time>
      </trkpt>
      <trkpt lat="59.9085965" lon="17.8387341">
        <ele>18.4023</ele>
        <time>2013-06-02T09:42:15Z</time>
      </trkpt>
      <trkpt lat="59.9086711" lon="17.8387925">
        <ele>18.8831</ele>
        <time>2013-06-02T09:42:16Z</time>
      </trkpt>
      <trkpt lat="59.9087452" lon="17.8388795">
        <ele>18.4023</ele>
        <time>2013-06-02T09:42:17Z</time>
      </trkpt>
      <trkpt lat="59.9088173" lon="17.8389827">
        <ele>18.4023</ele>
        <time>2013-06-02T09:42:18Z</time>
      </trkpt>
      <trkpt lat="59.9088861" lon="17.8391026">
        <ele>18.4023</ele>
        <time>2013-06-02T09:42:19Z</time>
      </trkpt>
      <trkpt lat="59.9089522" lon="17.8392319">
        <ele>17.9218</ele>
        <time>2013-06-02T09:42:20Z</time>
      </trkpt>
      <trkpt lat="59.9090079" lon="17.8393809">
        <ele>16.9604</ele>
        <time>2013-06-02T09:42:21Z</time>
      </trkpt>
      <trkpt lat="59.9090613" lon="17.8395374">
        <ele>16.9604</ele>
        <time>2013-06-02T09:42:22Z</time>
      </trkpt>
      <trkpt lat="59.909116" lon="17.8396945">
        <ele>16.4797</ele>
        <time>2013-06-02T09:42:23Z</time>
      </trkpt>
      <trkpt lat="59.9091713" lon="17.8398613">
        <ele>15.999</ele>
        <time>2013-06-02T09:42:24Z</time>
      </trkpt>
      <trkpt lat="59.9092284" lon="17.8400286">
        <ele>15.999</ele>
        <time>2013-06-02T09:42:25Z</time>
      </trkpt>
      <trkpt lat="59.9092868" lon="17.8401956">
        <ele>16.4797</ele>
        <time>2013-06-02T09:42:26Z</time>
      </trkpt>
      <trkpt lat="59.9093456" lon="17.8403611">
        <ele>15.0377</ele>
        <time>2013-06-02T09:42:27Z</time>
      </trkpt>
      <trkpt lat="59.9093989" lon="17.8405254">
        <ele>15.0377</ele>
        <time>2013-06-02T09:42:28Z</time>
      </trkpt>
      <trkpt lat="59.9094497" lon="17.8406873">
        <ele>15.0377</ele>
        <time>2013-06-02T09:42:29Z</time>
      </trkpt>
      <trkpt lat="59.9095014" lon="17.8408429">
        <ele>15.0377</ele>
        <time>2013-06-02T09:42:30Z</time>
      </trkpt>
      <trkpt lat="59.9095445" lon="17.8410038">
        <ele>15.0377</ele>
        <time>2013-06-02T09:42:31Z</time>
      </trkpt>
      <trkpt lat="59.9095844" lon="17.8411707">
        <ele>15.0377</ele>
        <time>2013-06-02T09:42:32Z</time>
      </trkpt>
      <trkpt lat="59.9096155" lon="17.8413349">
        <ele>15.5184</ele>
        <time>2013-06-02T09:42:33Z</time>
      </trkpt>
      <trkpt lat="59.9096383" lon="17.841494">
        <ele>15.5184</ele>
        <time>2013-06-02T09:42:34Z</time>
      </trkpt>
      <trkpt lat="59.9096503" lon="17.8416476">
        <ele>15.5184</ele>
        <time>2013-06-02T09:42:35Z</time>
      </trkpt>
      <trkpt lat="59.9096517" lon="17.8417923">
        <ele>15.999</ele>
        <time>2013-06-02T09:42:36Z</time>
      </trkpt>
      <trkpt lat="59.9096485" lon="17.8419269">
        <ele>16.4797</ele>
        <time>2013-06-02T09:42:37Z</time>
      </trkpt>
      <trkpt lat="59.9096417" lon="17.8420517">
        <ele>16.9604</ele>
        <time>2013-06-02T09:42:38Z</time>
      </trkpt>
      <trkpt lat="59.9096319" lon="17.8421708">
        <ele>17.4412</ele>
        <time>2013-06-02T09:42:39Z</time>
      </trkpt>
      <trkpt lat="59.9096189" lon="17.8422811">
        <ele>17.4412</ele>
        <time>2013-06-02T09:42:40Z</time>
      </trkpt>
      <trkpt lat="59.9096187" lon="17.8423792">
        <ele>16.4797</ele>
        <time>2013-06-02T09:42:41Z</time>
      </trkpt>
      <trkpt lat="59.9096171" lon="17.8424857">
        <ele>16.4797</ele>
        <time>2013-06-02T09:42:42Z</time>
      </trkpt>
      <trkpt lat="59.909617" lon="17.8425896">
        <ele>16.9604</ele>
        <time>2013-06-02T09:42:43Z</time>
      </trkpt>
      <trkpt lat="59.909616" lon="17.8426911">
        <ele>17.4412</ele>
        <time>2013-06-02T09:42:44Z</time>
      </trkpt>
      <trkpt lat="59.9096209" lon="17.8427874">
        <ele>17.9218</ele>
        <time>2013-06-02T09:42:45Z</time>
      </trkpt>
      <trkpt lat="59.909631" lon="17.8428712">
        <ele>18.4023</ele>
        <time>2013-06-02T09:42:46Z</time>
      </trkpt>
      <trkpt lat="59.9096466" lon="17.8429416">
        <ele>17.9218</ele>
        <time>2013-06-02T09:42:47Z</time>
      </trkpt>
      <trkpt lat="59.9096621" lon="17.8430001">
        <ele>18.4023</ele>
        <time>2013-06-02T09:42:48Z</time>
      </trkpt>
      <trkpt lat="59.9096786" lon="17.843038">
        <ele>18.4023</ele>
        <time>2013-06-02T09:42:49Z</time>
      </trkpt>
      <trkpt lat="59.9096974" lon="17.8430538">
        <ele>17.9218</ele>
        <time>2013-06-02T09:42:50Z</time>
      </trkpt>
      <trkpt lat="59.9097134" lon="17.8430692">
        <ele>17.4412</ele>
        <time>2013-06-02T09:42:51Z</time>
      </trkpt>
      <trkpt lat="59.9097256" lon="17.8430866">
        <ele>16.9604</ele>
        <time>2013-06-02T09:42:52Z</time>
      </trkpt>
      <trkpt lat="59.9097413" lon="17.8430999">
        <ele>16.9604</ele>
        <time>2013-06-02T09:42:53Z</time>
      </trkpt>
      <trkpt lat="59.909762" lon="17.8431186">
        <ele>16.9604</ele>
        <time>2013-06-02T09:42:54Z</time>
      </trkpt>
      <trkpt lat="59.9097838" lon="17.8431524">
        <ele>16.4797</ele>
        <time>2013-06-02T09:42:55Z</time>
      </trkpt>
      <trkpt lat="59.9098117" lon="17.843193">
        <ele>16.9604</ele>
        <time>2013-06-02T09:42:56Z</time>
      </trkpt>
      <trkpt lat="59.9098428" lon="17.843232">
        <ele>16.9604</ele>
        <time>2013-06-02T09:42:57Z</time>
      </trkpt>
      <trkpt lat="59.9098812" lon="17.8432703">
        <ele>16.9604</ele>
        <time>2013-06-02T09:42:58Z</time>
      </trkpt>
      <trkpt lat="59.9099153" lon="17.8433147">
        <ele>16.4797</ele>
        <time>2013-06-02T09:42:59Z</time>
      </trkpt>
      <trkpt lat="59.9099578" lon="17.8433561">
        <ele>16.9604</ele>
        <time>2013-06-02T09:43:00Z</time>
      </trkpt>
      <trkpt lat="59.9100006" lon="17.8434006">
        <ele>16.4797</ele>
        <time>2013-06-02T09:43:01Z</time>
      </trkpt>
      <trkpt lat="59.9100406" lon="17.8434492">
        <ele>15.5184</ele>
        <time>2013-06-02T09:43:02Z</time>
      </trkpt>
      <trkpt lat="59.9100874" lon="17.8434948">
        <ele>15.5184</ele>
        <time>2013-06-02T09:43:03Z</time>
      </trkpt>
      <trkpt lat="59.9101376" lon="17.8435499">
        <ele>14.557</ele>
        <time>2013-06-02T09:43:04Z</time>
      </trkpt>
      <trkpt lat="59.9101877" lon="17.8435992">
        <ele>14.0764</ele>
        <time>2013-06-02T09:43:05Z</time>
      </trkpt>
      <trkpt lat="59.9102351" lon="17.843643">
        <ele>13.5958</ele>
        <time>2013-06-02T09:43:06Z</time>
      </trkpt>
      <trkpt lat="59.9102832" lon="17.8436735">
        <ele>13.5958</ele>
        <time>2013-06-02T09:43:07Z</time>
      </trkpt>
      <trkpt lat="59.910332" lon="17.8437028">
        <ele>13.1151</ele>
        <time>2013-06-02T09:43:08Z</time>
      </trkpt>
      <trkpt lat="59.9103831" lon="17.8437441">
        <ele>12.6344</ele>
        <time>2013-06-02T09:43:09Z</time>
      </trkpt>
      <trkpt lat="59.9104349" lon="17.843796">
        <ele>11.1925</ele>
        <time>2013-06-02T09:43:10Z</time>
      </trkpt>
      <trkpt lat="59.9104873" lon="17.8438463">
        <ele>10.7118</ele>
        <time>2013-06-02T09:43:11Z</time>
      </trkpt>
      <trkpt lat="59.9105421" lon="17.8438975">
        <ele>9.75061</ele>
        <time>2013-06-02T09:43:12Z</time>
      </trkpt>
      <trkpt lat="59.9105969" lon="17.8439523">
        <ele>8.30859</ele>
        <time>2013-06-02T09:43:13Z</time>
      </trkpt>
      <trkpt lat="59.9106552" lon="17.8440068">
        <ele>6.86646</ele>
        <time>2013-06-02T09:43:14Z</time>
      </trkpt>
      <trkpt lat="59.9107157" lon="17.8440631">
        <ele>6.38586</ele>
        <time>2013-06-02T09:43:15Z</time>
      </trkpt>
      <trkpt lat="59.9107819" lon="17.8441147">
        <ele>5.90527</ele>
        <time>2013-06-02T09:43:16Z</time>
      </trkpt>
      <trkpt lat="59.91085" lon="17.8441606">
        <ele>5.42456</ele>
        <time>2013-06-02T09:43:17Z</time>
      </trkpt>
      <trkpt lat="59.9109204" lon="17.8442048">
        <ele>5.42456</ele>
        <time>2013-06-02T09:43:18Z</time>
      </trkpt>
      <trkpt lat="59.9109989" lon="17.8442357">
        <ele>6.38586</ele>
        <time>2013-06-02T09:43:19Z</time>
      </trkpt>
      <trkpt lat="59.9110748" lon="17.8442586">
        <ele>6.38586</ele>
        <time>2013-06-02T09:43:20Z</time>
      </trkpt>
      <trkpt lat="59.9111509" lon="17.8442783">
        <ele>6.86646</ele>
        <time>2013-06-02T09:43:21Z</time>
      </trkpt>
      <trkpt lat="59.9112221" lon="17.8442924">
        <ele>6.38586</ele>
        <time>2013-06-02T09:43:22Z</time>
      </trkpt>
      <trkpt lat="59.9112928" lon="17.8442999">
        <ele>5.90527</ele>
        <time>2013-06-02T09:43:23Z</time>
      </trkpt>
      <trkpt lat="59.9113591" lon="17.8443016">
        <ele>5.42456</ele>
        <time>2013-06-02T09:43:24Z</time>
      </trkpt>
      <trkpt lat="59.9114291" lon="17.8443021">
        <ele>5.42456</ele>
        <time>2013-06-02T09:43:25Z</time>
      </trkpt>
      <trkpt lat="59.9115075" lon="17.8442937">
        <ele>6.86646</ele>
        <time>2013-06-02T09:43:26Z</time>
      </trkpt>
      <trkpt lat="59.9115828" lon="17.8442871">
        <ele>7.34717</ele>
        <time>2013-06-02T09:43:27Z</time>
      </trkpt>
      <trkpt lat="59.911658" lon="17.8442791">
        <ele>8.30859</ele>
        <time>2013-06-02T09:43:28Z</time>
      </trkpt>
      <trkpt lat="59.9117372" lon="17.8442705">
        <ele>10.2312</ele>
        <time>2013-06-02T09:43:29Z</time>
      </trkpt>
      <trkpt lat="59.9118088" lon="17.8442529">
        <ele>11.1925</ele>
        <time>2013-06-02T09:43:30Z</time>
      </trkpt>
      <trkpt lat="59.9118753" lon="17.8442275">
        <ele>11.6732</ele>
        <time>2013-06-02T09:43:31Z</time>
      </trkpt>
      <trkpt lat="59.9119381" lon="17.8442025">
        <ele>11.1925</ele>
        <time>2013-06-02T09:43:32Z</time>
      </trkpt>
      <trkpt lat="59.9120034" lon="17.8441752">
        <ele>12.1538</ele>
        <time>2013-06-02T09:43:33Z</time>
      </trkpt>
      <trkpt lat="59.9120725" lon="17.8441295">
        <ele>12.6344</ele>
        <time>2013-06-02T09:43:34Z</time>
      </trkpt>
      <trkpt lat="59.9121278" lon="17.8440875">
        <ele>12.6344</ele>
        <time>2013-06-02T09:43:35Z</time>
      </trkpt>
      <trkpt lat="59.91218" lon="17.8440432">
        <ele>12.6344</ele>
        <time>2013-06-02T09:43:36Z</time>
      </trkpt>
      <trkpt lat="59.9122252" lon="17.8439928">
        <ele>11.1925</ele>
        <time>2013-06-02T09:43:37Z</time>
      </trkpt>
      <trkpt lat="59.912275" lon="17.8439272">
        <ele>11.1925</ele>
        <time>2013-06-02T09:43:38Z</time>
      </trkpt>
      <trkpt lat="59.9123235" lon="17.8438849">
        <ele>12.1538</ele>
        <time>2013-06-02T09:43:39Z</time>
      </trkpt>
      <trkpt lat="59.9123682" lon="17.8438461">
        <ele>11.6732</ele>
        <time>2013-06-02T09:43:40Z</time>
      </trkpt>
      <trkpt lat="59.9124078" lon="17.8438183">
        <ele>11.1925</ele>
        <time>2013-06-02T09:43:41Z</time>
      </trkpt>
      <trkpt lat="59.9124565" lon="17.8437613">
        <ele>11.1925</ele>
        <time>2013-06-02T09:43:42Z</time>
      </trkpt>
      <trkpt lat="59.9124978" lon="17.8437008">
        <ele>9.2699</ele>
        <time>2013-06-02T09:43:43Z</time>
      </trkpt>
      <trkpt lat="59.9125438" lon="17.8436513">
        <ele>8.78918</ele>
        <time>2013-06-02T09:43:44Z</time>
      </trkpt>
      <trkpt lat="59.9126049" lon="17.8435915">
        <ele>9.2699</ele>
        <time>2013-06-02T09:43:45Z</time>
      </trkpt>
      <trkpt lat="59.912652" lon="17.8435233">
        <ele>6.86646</ele>
        <time>2013-06-02T09:43:46Z</time>
      </trkpt>
      <trkpt lat="59.9126986" lon="17.8434728">
        <ele>4.94385</ele>
        <time>2013-06-02T09:43:47Z</time>
      </trkpt>
      <trkpt lat="59.9127547" lon="17.84342">
        <ele>3.98267</ele>
        <time>2013-06-02T09:43:48Z</time>
      </trkpt>
      <trkpt lat="59.9128168" lon="17.8433641">
        <ele>3.02124</ele>
        <time>2013-06-02T09:43:49Z</time>
      </trkpt>
      <trkpt lat="59.912879" lon="17.8433312">
        <ele>3.50195</ele>
        <time>2013-06-02T09:43:50Z</time>
      </trkpt>
      <trkpt lat="59.9129324" lon="17.8432996">
        <ele>2.54065</ele>
        <time>2013-06-02T09:43:51Z</time>
      </trkpt>
      <trkpt lat="59.9129888" lon="17.8432726">
        <ele>1.57935</ele>
        <time>2013-06-02T09:43:52Z</time>
      </trkpt>
      <trkpt lat="59.9130503" lon="17.8432526">
        <ele>1.09863</ele>
        <time>2013-06-02T09:43:53Z</time>
      </trkpt>
      <trkpt lat="59.9131137" lon="17.8432329">
        <ele>0.137451</ele>
        <time>2013-06-02T09:43:54Z</time>
      </trkpt>
      <trkpt lat="59.9131829" lon="17.8432148">
        <ele>1.09863</ele>
        <time>2013-06-02T09:43:55Z</time>
      </trkpt>
      <trkpt lat="59.913254" lon="17.8431913">
        <ele>1.57935</ele>
        <time>2013-06-02T09:43:56Z</time>
      </trkpt>
      <trkpt lat="59.9133261" lon="17.843164">
        <ele>2.54065</ele>
        <time>2013-06-02T09:43:57Z</time>
      </trkpt>
      <trkpt lat="59.9133985" lon="17.8431366">
        <ele>3.02124</ele>
        <time>2013-06-02T09:43:58Z</time>
      </trkpt>
      <trkpt lat="59.9134692" lon="17.8431059">
        <ele>3.50195</ele>
        <time>2013-06-02T09:43:59Z</time>
      </trkpt>
      <trkpt lat="59.9135364" lon="17.8430657">
        <ele>4.46326</ele>
        <time>2013-06-02T09:44:00Z</time>
      </trkpt>
      <trkpt lat="59.9136005" lon="17.8430226">
        <ele>4.94385</ele>
        <time>2013-06-02T09:44:01Z</time>
      </trkpt>
      <trkpt lat="59.9136643" lon="17.8429817">
        <ele>5.42456</ele>
        <time>2013-06-02T09:44:02Z</time>
      </trkpt>
      <trkpt lat="59.9137289" lon="17.8429369">
        <ele>6.38586</ele>
        <time>2013-06-02T09:44:03Z</time>
      </trkpt>
      <trkpt lat="59.9137928" lon="17.8428875">
        <ele>7.34717</ele>
        <time>2013-06-02T09:44:04Z</time>
      </trkpt>
      <trkpt lat="59.9138548" lon="17.842837">
        <ele>7.82788</ele>
        <time>2013-06-02T09:44:05Z</time>
      </trkpt>
      <trkpt lat="59.913915" lon="17.8427817">
        <ele>8.30859</ele>
        <time>2013-06-02T09:44:06Z</time>
      </trkpt>
      <trkpt lat="59.9139754" lon="17.8427242">
        <ele>8.78918</ele>
        <time>2013-06-02T09:44:07Z</time>
      </trkpt>
      <trkpt lat="59.9140344" lon="17.8426677">
        <ele>9.2699</ele>
        <time>2013-06-02T09:44:08Z</time>
      </trkpt>
      <trkpt lat="59.9140921" lon="17.8426104">
        <ele>9.75061</ele>
        <time>2013-06-02T09:44:09Z</time>
      </trkpt>
      <trkpt lat="59.9141475" lon="17.8425563">
        <ele>10.2312</ele>
        <time>2013-06-02T09:44:10Z</time>
      </trkpt>
      <trkpt lat="59.9141982" lon="17.8425041">
        <ele>11.1925</ele>
        <time>2013-06-02T09:44:11Z</time>
      </trkpt>
      <trkpt lat="59.9142501" lon="17.8424471">
        <ele>11.6732</ele>
        <time>2013-06-02T09:44:12Z</time>
      </trkpt>
      <trkpt lat="59.9143086" lon="17.8423692">
        <ele>10.2312</ele>
        <time>2013-06-02T09:44:13Z</time>
      </trkpt>
      <trkpt lat="59.9143695" lon="17.8422933">
        <ele>7.82788</ele>
        <time>2013-06-02T09:44:14Z</time>
      </trkpt>
      <trkpt lat="59.9144186" lon="17.8422311">
        <ele>6.86646</ele>
        <time>2013-06-02T09:44:15Z</time>
      </trkpt>
      <trkpt lat="59.9144609" lon="17.842171">
        <ele>6.86646</ele>
        <time>2013-06-02T09:44:16Z</time>
      </trkpt>
      <trkpt lat="59.914505" lon="17.8421146">
        <ele>6.86646</ele>
        <time>2013-06-02T09:44:17Z</time>
      </trkpt>
      <trkpt lat="59.9145516" lon="17.8420654">
        <ele>6.38586</ele>
        <time>2013-06-02T09:44:18Z</time>
      </trkpt>
      <trkpt lat="59.9146034" lon="17.8420053">
        <ele>5.90527</ele>
        <time>2013-06-02T09:44:19Z</time>
      </trkpt>
      <trkpt lat="59.9146604" lon="17.8419409">
        <ele>6.38586</ele>
        <time>2013-06-02T09:44:20Z</time>
      </trkpt>
      <trkpt lat="59.9147147" lon="17.8419002">
        <ele>6.38586</ele>
        <time>2013-06-02T09:44:21Z</time>
      </trkpt>
      <trkpt lat="59.9147724" lon="17.8418626">
        <ele>6.86646</ele>
        <time>2013-06-02T09:44:22Z</time>
      </trkpt>
      <trkpt lat="59.9148309" lon="17.8418358">
        <ele>6.86646</ele>
        <time>2013-06-02T09:44:23Z</time>
      </trkpt>
      <trkpt lat="59.9148862" lon="17.8418093">
        <ele>6.38586</ele>
        <time>2013-06-02T09:44:24Z</time>
      </trkpt>
      <trkpt lat="59.9149404" lon="17.8417877">
        <ele>6.86646</ele>
        <time>2013-06-02T09:44:25Z</time>
      </trkpt>
      <trkpt lat="59.9150008" lon="17.8417743">
        <ele>6.86646</ele>
        <time>2013-06-02T09:44:26Z</time>
      </trkpt>
      <trkpt lat="59.9150587" lon="17.841781">
        <ele>7.34717</ele>
        <time>2013-06-02T09:44:27Z</time>
      </trkpt>
      <trkpt lat="59.9151194" lon="17.8417872">
        <ele>7.34717</ele>
        <time>2013-06-02T09:44:28Z</time>
      </trkpt>
      <trkpt lat="59.9151782" lon="17.8417877">
        <ele>7.34717</ele>
        <time>2013-06-02T09:44:29Z</time>
      </trkpt>
      <trkpt lat="59.9152339" lon="17.8417999">
        <ele>7.82788</ele>
        <time>2013-06-02T09:44:30Z</time>
      </trkpt>
      <trkpt lat="59.9152886" lon="17.8418104">
        <ele>6.86646</ele>
        <time>2013-06-02T09:44:31Z</time>
      </trkpt>
      <trkpt lat="59.9153476" lon="17.8418208">
        <ele>5.90527</ele>
        <time>2013-06-02T09:44:32Z</time>
      </trkpt>
      <trkpt lat="59.915405" lon="17.8418212">
        <ele>6.38586</ele>
        <time>2013-06-02T09:44:33Z</time>
      </trkpt>
      <trkpt lat="59.9154613" lon="17.8418241">
        <ele>7.34717</ele>
        <time>2013-06-02T09:44:34Z</time>
      </trkpt>
      <trkpt lat="59.9155077" lon="17.8418219">
        <ele>8.78918</ele>
        <time>2013-06-02T09:44:35Z</time>
      </trkpt>
      <trkpt lat="59.9155508" lon="17.8418167">
        <ele>9.75061</ele>
        <time>2013-06-02T09:44:36Z</time>
      </trkpt>
      <trkpt lat="59.9156069" lon="17.8418116">
        <ele>10.2312</ele>
        <time>2013-06-02T09:44:37Z</time>
      </trkpt>
      <trkpt lat="59.9156627" lon="17.8418287">
        <ele>9.75061</ele>
        <time>2013-06-02T09:44:38Z</time>
      </trkpt>
      <trkpt lat="59.9157094" lon="17.8418197">
        <ele>10.7118</ele>
        <time>2013-06-02T09:44:39Z</time>
      </trkpt>
      <trkpt lat="59.9157594" lon="17.8418104">
        <ele>11.6732</ele>
        <time>2013-06-02T09:44:40Z</time>
      </trkpt>
      <trkpt lat="59.9158056" lon="17.8417883">
        <ele>13.1151</ele>
        <time>2013-06-02T09:44:41Z</time>
      </trkpt>
      <trkpt lat="59.9158637" lon="17.8418203">
        <ele>11.6732</ele>
        <time>2013-06-02T09:44:42Z</time>
      </trkpt>
      <trkpt lat="59.9159161" lon="17.8418507">
        <ele>11.1925</ele>
        <time>2013-06-02T09:44:43Z</time>
      </trkpt>
      <trkpt lat="59.9159687" lon="17.8418855">
        <ele>10.7118</ele>
        <time>2013-06-02T09:44:44Z</time>
      </trkpt>
      <trkpt lat="59.9160174" lon="17.841908">
        <ele>11.1925</ele>
        <time>2013-06-02T09:44:45Z</time>
      </trkpt>
      <trkpt lat="59.9160676" lon="17.8419447">
        <ele>11.1925</ele>
        <time>2013-06-02T09:44:46Z</time>
      </trkpt>
      <trkpt lat="59.9161176" lon="17.8419893">
        <ele>11.1925</ele>
        <time>2013-06-02T09:44:47Z</time>
      </trkpt>
      <trkpt lat="59.9161622" lon="17.8420431">
        <ele>11.1925</ele>
        <time>2013-06-02T09:44:48Z</time>
      </trkpt>
      <trkpt lat="59.9162057" lon="17.8421037">
        <ele>10.7118</ele>
        <time>2013-06-02T09:44:49Z</time>
      </trkpt>
      <trkpt lat="59.9162447" lon="17.8421672">
        <ele>10.7118</ele>
        <time>2013-06-02T09:44:50Z</time>
      </trkpt>
      <trkpt lat="59.9162854" lon="17.8422232">
        <ele>11.1925</ele>
        <time>2013-06-02T09:44:51Z</time>
      </trkpt>
      <trkpt lat="59.9163251" lon="17.8422728">
        <ele>11.6732</ele>
        <time>2013-06-02T09:44:52Z</time>
      </trkpt>
      <trkpt lat="59.9163603" lon="17.8423315">
        <ele>11.6732</ele>
        <time>2013-06-02T09:44:53Z</time>
      </trkpt>
      <trkpt lat="59.9163982" lon="17.8423786">
        <ele>12.1538</ele>
        <time>2013-06-02T09:44:54Z</time>
      </trkpt>
      <trkpt lat="59.9164331" lon="17.8424377">
        <ele>12.1538</ele>
        <time>2013-06-02T09:44:55Z</time>
      </trkpt>
      <trkpt lat="59.9164712" lon="17.8424891">
        <ele>12.6344</ele>
        <time>2013-06-02T09:44:56Z</time>
      </trkpt>
      <trkpt lat="59.9165065" lon="17.8425479">
        <ele>13.1151</ele>
        <time>2013-06-02T09:44:57Z</time>
      </trkpt>
      <trkpt lat="59.9165434" lon="17.8426019">
        <ele>13.1151</ele>
        <time>2013-06-02T09:44:58Z</time>
      </trkpt>
      <trkpt lat="59.9165792" lon="17.8426586">
        <ele>13.5958</ele>
        <time>2013-06-02T09:44:59Z</time>
      </trkpt>
      <trkpt lat="59.9166148" lon="17.8427169">
        <ele>13.5958</ele>
        <time>2013-06-02T09:45:00Z</time>
      </trkpt>
      <trkpt lat="59.9166499" lon="17.8427761">
        <ele>14.0764</ele>
        <time>2013-06-02T09:45:01Z</time>
      </trkpt>
      <trkpt lat="59.9166852" lon="17.8428346">
        <ele>14.557</ele>
        <time>2013-06-02T09:45:02Z</time>
      </trkpt>
      <trkpt lat="59.9167203" lon="17.842892">
        <ele>15.0377</ele>
        <time>2013-06-02T09:45:03Z</time>
      </trkpt>
      <trkpt lat="59.9167562" lon="17.8429465">
        <ele>15.0377</ele>
        <time>2013-06-02T09:45:04Z</time>
      </trkpt>
      <trkpt lat="59.9167929" lon="17.8429983">
        <ele>15.999</ele>
        <time>2013-06-02T09:45:05Z</time>
      </trkpt>
      <trkpt lat="59.9168277" lon="17.8430525">
        <ele>16.4797</ele>
        <time>2013-06-02T09:45:06Z</time>
      </trkpt>
      <trkpt lat="59.9168634" lon="17.8431006">
        <ele>16.9604</ele>
        <time>2013-06-02T09:45:07Z</time>
      </trkpt>
      <trkpt lat="59.9169011" lon="17.8431507">
        <ele>16.9604</ele>
        <time>2013-06-02T09:45:08Z</time>
      </trkpt>
      <trkpt lat="59.9169375" lon="17.8432027">
        <ele>16.4797</ele>
        <time>2013-06-02T09:45:09Z</time>
      </trkpt>
      <trkpt lat="59.916968" lon="17.8432578">
        <ele>16.4797</ele>
        <time>2013-06-02T09:45:10Z</time>
      </trkpt>
      <trkpt lat="59.9169913" lon="17.8433143">
        <ele>17.4412</ele>
        <time>2013-06-02T09:45:11Z</time>
      </trkpt>
      <trkpt lat="59.9170145" lon="17.8433655">
        <ele>17.9218</ele>
        <time>2013-06-02T09:45:12Z</time>
      </trkpt>
      <trkpt lat="59.9170375" lon="17.8434121">
        <ele>17.9218</ele>
        <time>2013-06-02T09:45:13Z</time>
      </trkpt>
      <trkpt lat="59.917063" lon="17.8434567">
        <ele>17.9218</ele>
        <time>2013-06-02T09:45:14Z</time>
      </trkpt>
      <trkpt lat="59.9170909" lon="17.8435049">
        <ele>18.8831</ele>
        <time>2013-06-02T09:45:15Z</time>
      </trkpt>
      <trkpt lat="59.9171187" lon="17.8435622">
        <ele>19.8444</ele>
        <time>2013-06-02T09:45:16Z</time>
      </trkpt>
      <trkpt lat="59.9171485" lon="17.8436251">
        <ele>21.2864</ele>
        <time>2013-06-02T09:45:17Z</time>
      </trkpt>
      <trkpt lat="59.9171769" lon="17.8436876">
        <ele>22.7283</ele>
        <time>2013-06-02T09:45:18Z</time>
      </trkpt>
      <trkpt lat="59.9172048" lon="17.843754">
        <ele>23.6896</ele>
        <time>2013-06-02T09:45:19Z</time>
      </trkpt>
      <trkpt lat="59.9172293" lon="17.8438302">
        <ele>23.6896</ele>
        <time>2013-06-02T09:45:20Z</time>
      </trkpt>
      <trkpt lat="59.9172561" lon="17.8439002">
        <ele>24.1703</ele>
        <time>2013-06-02T09:45:21Z</time>
      </trkpt>
      <trkpt lat="59.9172873" lon="17.8439654">
        <ele>25.6123</ele>
        <time>2013-06-02T09:45:22Z</time>
      </trkpt>
      <trkpt lat="59.9173224" lon="17.8440284">
        <ele>27.5349</ele>
        <time>2013-06-02T09:45:23Z</time>
      </trkpt>
      <trkpt lat="59.9173519" lon="17.8440988">
        <ele>28.0155</ele>
        <time>2013-06-02T09:45:24Z</time>
      </trkpt>
      <trkpt lat="59.9173745" lon="17.8441714">
        <ele>28.0155</ele>
        <time>2013-06-02T09:45:25Z</time>
      </trkpt>
      <trkpt lat="59.9173958" lon="17.8442423">
        <ele>28.4962</ele>
        <time>2013-06-02T09:45:26Z</time>
      </trkpt>
      <trkpt lat="59.9174167" lon="17.84431">
        <ele>28.4962</ele>
        <time>2013-06-02T09:45:27Z</time>
      </trkpt>
      <trkpt lat="59.9174372" lon="17.8443798">
        <ele>28.4962</ele>
        <time>2013-06-02T09:45:28Z</time>
      </trkpt>
      <trkpt lat="59.9174602" lon="17.8444398">
        <ele>28.4962</ele>
        <time>2013-06-02T09:45:29Z</time>
      </trkpt>
      <trkpt lat="59.917482" lon="17.8445037">
        <ele>29.4575</ele>
        <time>2013-06-02T09:45:30Z</time>
      </trkpt>
      <trkpt lat="59.9175015" lon="17.8445746">
        <ele>29.4575</ele>
        <time>2013-06-02T09:45:31Z</time>
      </trkpt>
      <trkpt lat="59.9175199" lon="17.8446474">
        <ele>29.4575</ele>
        <time>2013-06-02T09:45:32Z</time>
      </trkpt>
      <trkpt lat="59.9175452" lon="17.8447045">
        <ele>29.4575</ele>
        <time>2013-06-02T09:45:33Z</time>
      </trkpt>
      <trkpt lat="59.9175694" lon="17.8447612">
        <ele>28.9769</ele>
        <time>2013-06-02T09:45:34Z</time>
      </trkpt>
      <trkpt lat="59.9175968" lon="17.8448267">
        <ele>28.0155</ele>
        <time>2013-06-02T09:45:35Z</time>
      </trkpt>
      <trkpt lat="59.9176296" lon="17.8448703">
        <ele>26.5736</ele>
        <time>2013-06-02T09:45:36Z</time>
      </trkpt>
      <trkpt lat="59.917662" lon="17.8449169">
        <ele>24.1703</ele>
        <time>2013-06-02T09:45:37Z</time>
      </trkpt>
      <trkpt lat="59.9177118" lon="17.8449604">
        <ele>24.651</ele>
        <time>2013-06-02T09:45:38Z</time>
      </trkpt>
      <trkpt lat="59.9177574" lon="17.8450092">
        <ele>23.6896</ele>
        <time>2013-06-02T09:45:39Z</time>
      </trkpt>
      <trkpt lat="59.9178014" lon="17.8450693">
        <ele>23.6896</ele>
        <time>2013-06-02T09:45:40Z</time>
      </trkpt>
      <trkpt lat="59.9178423" lon="17.8451334">
        <ele>22.2476</ele>
        <time>2013-06-02T09:45:41Z</time>
      </trkpt>
      <trkpt lat="59.9178953" lon="17.8451909">
        <ele>21.2864</ele>
        <time>2013-06-02T09:45:42Z</time>
      </trkpt>
      <trkpt lat="59.9179492" lon="17.8452505">
        <ele>21.2864</ele>
        <time>2013-06-02T09:45:43Z</time>
      </trkpt>
      <trkpt lat="59.9179954" lon="17.8453221">
        <ele>20.8057</ele>
        <time>2013-06-02T09:45:44Z</time>
      </trkpt>
      <trkpt lat="59.9180393" lon="17.8453883">
        <ele>19.3638</ele>
        <time>2013-06-02T09:45:45Z</time>
      </trkpt>
      <trkpt lat="59.9180873" lon="17.8454552">
        <ele>18.4023</ele>
        <time>2013-06-02T09:45:46Z</time>
      </trkpt>
      <trkpt lat="59.9181432" lon="17.8455187">
        <ele>18.4023</ele>
        <time>2013-06-02T09:45:47Z</time>
      </trkpt>
      <trkpt lat="59.9181978" lon="17.8455741">
        <ele>17.4412</ele>
        <time>2013-06-02T09:45:48Z</time>
      </trkpt>
      <trkpt lat="59.9182491" lon="17.8456413">
        <ele>17.4412</ele>
        <time>2013-06-02T09:45:49Z</time>
      </trkpt>
      <trkpt lat="59.9183031" lon="17.8457058">
        <ele>16.9604</ele>
        <time>2013-06-02T09:45:50Z</time>
      </trkpt>
      <trkpt lat="59.9183618" lon="17.8457625">
        <ele>16.9604</ele>
        <time>2013-06-02T09:45:51Z</time>
      </trkpt>
      <trkpt lat="59.9184173" lon="17.8458182">
        <ele>16.4797</ele>
        <time>2013-06-02T09:45:52Z</time>
      </trkpt>
      <trkpt lat="59.9184734" lon="17.8458732">
        <ele>16.4797</ele>
        <time>2013-06-02T09:45:53Z</time>
      </trkpt>
      <trkpt lat="59.9185293" lon="17.8459349">
        <ele>16.9604</ele>
        <time>2013-06-02T09:45:54Z</time>
      </trkpt>
      <trkpt lat="59.9185785" lon="17.8459965">
        <ele>15.999</ele>
        <time>2013-06-02T09:45:55Z</time>
      </trkpt>
      <trkpt lat="59.9186302" lon="17.846045">
        <ele>15.999</ele>
        <time>2013-06-02T09:45:56Z</time>
      </trkpt>
      <trkpt lat="59.918681" lon="17.8461006">
        <ele>15.999</ele>
        <time>2013-06-02T09:45:57Z</time>
      </trkpt>
      <trkpt lat="59.9187327" lon="17.8461531">
        <ele>15.5184</ele>
        <time>2013-06-02T09:45:58Z</time>
      </trkpt>
      <trkpt lat="59.9187857" lon="17.8462088">
        <ele>16.4797</ele>
        <time>2013-06-02T09:45:59Z</time>
      </trkpt>
      <trkpt lat="59.9188369" lon="17.8462664">
        <ele>16.9604</ele>
        <time>2013-06-02T09:46:00Z</time>
      </trkpt>
      <trkpt lat="59.9188887" lon="17.8463182">
        <ele>16.4797</ele>
        <time>2013-06-02T09:46:01Z</time>
      </trkpt>
      <trkpt lat="59.9189405" lon="17.8463721">
        <ele>16.9604</ele>
        <time>2013-06-02T09:46:02Z</time>
      </trkpt>
      <trkpt lat="59.9189899" lon="17.8464371">
        <ele>17.4412</ele>
        <time>2013-06-02T09:46:03Z</time>
      </trkpt>
      <trkpt lat="59.9190377" lon="17.8465077">
        <ele>18.4023</ele>
        <time>2013-06-02T09:46:04Z</time>
      </trkpt>
      <trkpt lat="59.9190855" lon="17.8465791">
        <ele>19.3638</ele>
        <time>2013-06-02T09:46:05Z</time>
      </trkpt>
      <trkpt lat="59.9191338" lon="17.8466488">
        <ele>20.8057</ele>
        <time>2013-06-02T09:46:06Z</time>
      </trkpt>
      <trkpt lat="59.9191846" lon="17.8467101">
        <ele>21.2864</ele>
        <time>2013-06-02T09:46:07Z</time>
      </trkpt>
      <trkpt lat="59.9192366" lon="17.8467707">
        <ele>22.2476</ele>
        <time>2013-06-02T09:46:08Z</time>
      </trkpt>
      <trkpt lat="59.9192858" lon="17.8468377">
        <ele>22.7283</ele>
        <time>2013-06-02T09:46:09Z</time>
      </trkpt>
      <trkpt lat="59.9193328" lon="17.8469081">
        <ele>22.7283</ele>
        <time>2013-06-02T09:46:10Z</time>
      </trkpt>
      <trkpt lat="59.9193732" lon="17.8469826">
        <ele>22.7283</ele>
        <time>2013-06-02T09:46:11Z</time>
      </trkpt>
      <trkpt lat="59.9194168" lon="17.8470552">
        <ele>22.7283</ele>
        <time>2013-06-02T09:46:12Z</time>
      </trkpt>
      <trkpt lat="59.9194577" lon="17.8471299">
        <ele>22.7283</ele>
        <time>2013-06-02T09:46:13Z</time>
      </trkpt>
      <trkpt lat="59.9194971" lon="17.8472061">
        <ele>22.7283</ele>
        <time>2013-06-02T09:46:14Z</time>
      </trkpt>
      <trkpt lat="59.9195393" lon="17.8472804">
        <ele>23.209</ele>
        <time>2013-06-02T09:46:15Z</time>
      </trkpt>
      <trkpt lat="59.91958" lon="17.8473563">
        <ele>23.209</ele>
        <time>2013-06-02T09:46:16Z</time>
      </trkpt>
      <trkpt lat="59.9196208" lon="17.8474294">
        <ele>23.6896</ele>
        <time>2013-06-02T09:46:17Z</time>
      </trkpt>
      <trkpt lat="59.9196612" lon="17.8475011">
        <ele>24.1703</ele>
        <time>2013-06-02T09:46:18Z</time>
      </trkpt>
      <trkpt lat="59.9197016" lon="17.8475688">
        <ele>24.651</ele>
        <time>2013-06-02T09:46:19Z</time>
      </trkpt>
      <trkpt lat="59.919742" lon="17.847636">
        <ele>25.1317</ele>
        <time>2013-06-02T09:46:20Z</time>
      </trkpt>
      <trkpt lat="59.9197871" lon="17.8476902">
        <ele>25.1317</ele>
        <time>2013-06-02T09:46:21Z</time>
      </trkpt>
      <trkpt lat="59.9198279" lon="17.8477515">
        <ele>25.1317</ele>
        <time>2013-06-02T09:46:22Z</time>
      </trkpt>
      <trkpt lat="59.9198659" lon="17.8478167">
        <ele>26.0929</ele>
        <time>2013-06-02T09:46:23Z</time>
      </trkpt>
      <trkpt lat="59.9199064" lon="17.8478824">
        <ele>26.5736</ele>
        <time>2013-06-02T09:46:24Z</time>
      </trkpt>
      <trkpt lat="59.9199441" lon="17.8479483">
        <ele>27.5349</ele>
        <time>2013-06-02T09:46:25Z</time>
      </trkpt>
      <trkpt lat="59.9199881" lon="17.8480027">
        <ele>28.4962</ele>
        <time>2013-06-02T09:46:26Z</time>
      </trkpt>
      <trkpt lat="59.9200306" lon="17.848056">
        <ele>28.9769</ele>
        <time>2013-06-02T09:46:27Z</time>
      </trkpt>
      <trkpt lat="59.920073" lon="17.848108">
        <ele>29.9381</ele>
        <time>2013-06-02T09:46:28Z</time>
      </trkpt>
      <trkpt lat="59.9201166" lon="17.848155">
        <ele>30.4188</ele>
        <time>2013-06-02T09:46:29Z</time>
      </trkpt>
      <trkpt lat="59.9201611" lon="17.848197">
        <ele>30.8995</ele>
        <time>2013-06-02T09:46:30Z</time>
      </trkpt>
      <trkpt lat="59.9202062" lon="17.8482408">
        <ele>30.8995</ele>
        <time>2013-06-02T09:46:31Z</time>
      </trkpt>
      <trkpt lat="59.9202466" lon="17.8482935">
        <ele>31.3801</ele>
        <time>2013-06-02T09:46:32Z</time>
      </trkpt>
      <trkpt lat="59.9202833" lon="17.8483527">
        <ele>30.8995</ele>
        <time>2013-06-02T09:46:33Z</time>
      </trkpt>
      <trkpt lat="59.9203222" lon="17.8484099">
        <ele>31.3801</ele>
        <time>2013-06-02T09:46:34Z</time>
      </trkpt>
      <trkpt lat="59.9203626" lon="17.848476">
        <ele>31.8607</ele>
        <time>2013-06-02T09:46:35Z</time>
      </trkpt>
      <trkpt lat="59.9204024" lon="17.8485519">
        <ele>31.8607</ele>
        <time>2013-06-02T09:46:36Z</time>
      </trkpt>
      <trkpt lat="59.9204406" lon="17.8486362">
        <ele>31.8607</ele>
        <time>2013-06-02T09:46:37Z</time>
      </trkpt>
      <trkpt lat="59.920477" lon="17.8487258">
        <ele>31.8607</ele>
        <time>2013-06-02T09:46:38Z</time>
      </trkpt>
      <trkpt lat="59.9205149" lon="17.848815">
        <ele>31.8607</ele>
        <time>2013-06-02T09:46:39Z</time>
      </trkpt>
      <trkpt lat="59.9205561" lon="17.8489027">
        <ele>31.8607</ele>
        <time>2013-06-02T09:46:40Z</time>
      </trkpt>
      <trkpt lat="59.9205967" lon="17.8489961">
        <ele>31.8607</ele>
        <time>2013-06-02T09:46:41Z</time>
      </trkpt>
      <trkpt lat="59.9206354" lon="17.8490942">
        <ele>31.8607</ele>
        <time>2013-06-02T09:46:42Z</time>
      </trkpt>
      <trkpt lat="59.9206729" lon="17.8491924">
        <ele>31.8607</ele>
        <time>2013-06-02T09:46:43Z</time>
      </trkpt>
      <trkpt lat="59.9207086" lon="17.8492895">
        <ele>31.8607</ele>
        <time>2013-06-02T09:46:44Z</time>
      </trkpt>
      <trkpt lat="59.9207428" lon="17.8493811">
        <ele>31.8607</ele>
        <time>2013-06-02T09:46:45Z</time>
      </trkpt>
      <trkpt lat="59.9207781" lon="17.8494678">
        <ele>31.3801</ele>
        <time>2013-06-02T09:46:46Z</time>
      </trkpt>
      <trkpt lat="59.9208112" lon="17.8495573">
        <ele>30.8995</ele>
        <time>2013-06-02T09:46:47Z</time>
      </trkpt>
      <trkpt lat="59.9208452" lon="17.8496412">
        <ele>29.4575</ele>
        <time>2013-06-02T09:46:48Z</time>
      </trkpt>
      <trkpt lat="59.9208807" lon="17.8497138">
        <ele>27.5349</ele>
        <time>2013-06-02T09:46:49Z</time>
      </trkpt>
      <trkpt lat="59.9209211" lon="17.8497863">
        <ele>27.5349</ele>
        <time>2013-06-02T09:46:50Z</time>
      </trkpt>
      <trkpt lat="59.9209625" lon="17.8498629">
        <ele>27.5349</ele>
        <time>2013-06-02T09:46:51Z</time>
      </trkpt>
      <trkpt lat="59.9210063" lon="17.8499423">
        <ele>26.0929</ele>
        <time>2013-06-02T09:46:52Z</time>
      </trkpt>
      <trkpt lat="59.9210547" lon="17.8500235">
        <ele>26.0929</ele>
        <time>2013-06-02T09:46:53Z</time>
      </trkpt>
      <trkpt lat="59.9211028" lon="17.8501005">
        <ele>24.1703</ele>
        <time>2013-06-02T09:46:54Z</time>
      </trkpt>
      <trkpt lat="59.9211474" lon="17.8501893">
        <ele>22.7283</ele>
        <time>2013-06-02T09:46:55Z</time>
      </trkpt>
      <trkpt lat="59.9211882" lon="17.8502849">
        <ele>20.8057</ele>
        <time>2013-06-02T09:46:56Z</time>
      </trkpt>
      <trkpt lat="59.9212423" lon="17.8503814">
        <ele>21.2864</ele>
        <time>2013-06-02T09:46:57Z</time>
      </trkpt>
      <trkpt lat="59.9212878" lon="17.8504774">
        <ele>20.325</ele>
        <time>2013-06-02T09:46:58Z</time>
      </trkpt>
      <trkpt lat="59.9213365" lon="17.850571">
        <ele>19.3638</ele>
        <time>2013-06-02T09:46:59Z</time>
      </trkpt>
      <trkpt lat="59.9213827" lon="17.8506688">
        <ele>18.8831</ele>
        <time>2013-06-02T09:47:00Z</time>
      </trkpt>
      <trkpt lat="59.9214261" lon="17.8507677">
        <ele>17.4412</ele>
        <time>2013-06-02T09:47:01Z</time>
      </trkpt>
      <trkpt lat="59.9214692" lon="17.8508653">
        <ele>16.4797</ele>
        <time>2013-06-02T09:47:02Z</time>
      </trkpt>
      <trkpt lat="59.9215166" lon="17.8509652">
        <ele>16.9604</ele>
        <time>2013-06-02T09:47:03Z</time>
      </trkpt>
      <trkpt lat="59.9215603" lon="17.851074">
        <ele>17.9218</ele>
        <time>2013-06-02T09:47:04Z</time>
      </trkpt>
      <trkpt lat="59.9216058" lon="17.8511709">
        <ele>16.9604</ele>
        <time>2013-06-02T09:47:05Z</time>
      </trkpt>
      <trkpt lat="59.92165" lon="17.8512709">
        <ele>16.9604</ele>
        <time>2013-06-02T09:47:06Z</time>
      </trkpt>
      <trkpt lat="59.9216898" lon="17.8513698">
        <ele>16.9604</ele>
        <time>2013-06-02T09:47:07Z</time>
      </trkpt>
      <trkpt lat="59.9217291" lon="17.8514678">
        <ele>16.9604</ele>
        <time>2013-06-02T09:47:08Z</time>
      </trkpt>
      <trkpt lat="59.9217695" lon="17.8515641">
        <ele>17.4412</ele>
        <time>2013-06-02T09:47:09Z</time>
      </trkpt>
      <trkpt lat="59.921812" lon="17.851658">
        <ele>17.9218</ele>
        <time>2013-06-02T09:47:10Z</time>
      </trkpt>
      <trkpt lat="59.921854" lon="17.8517506">
        <ele>18.4023</ele>
        <time>2013-06-02T09:47:11Z</time>
      </trkpt>
      <trkpt lat="59.921895" lon="17.8518453">
        <ele>18.8831</ele>
        <time>2013-06-02T09:47:12Z</time>
      </trkpt>
      <trkpt lat="59.9219363" lon="17.8519392">
        <ele>19.3638</ele>
        <time>2013-06-02T09:47:13Z</time>
      </trkpt>
      <trkpt lat="59.9219798" lon="17.8520298">
        <ele>20.325</ele>
        <time>2013-06-02T09:47:14Z</time>
      </trkpt>
      <trkpt lat="59.9220252" lon="17.8521189">
        <ele>20.8057</ele>
        <time>2013-06-02T09:47:15Z</time>
      </trkpt>
      <trkpt lat="59.9220678" lon="17.8522033">
        <ele>20.325</ele>
        <time>2013-06-02T09:47:16Z</time>
      </trkpt>
      <trkpt lat="59.9221181" lon="17.8522876">
        <ele>21.2864</ele>
        <time>2013-06-02T09:47:17Z</time>
      </trkpt>
      <trkpt lat="59.9221646" lon="17.8523654">
        <ele>20.325</ele>
        <time>2013-06-02T09:47:18Z</time>
      </trkpt>
      <trkpt lat="59.922212" lon="17.852444">
        <ele>21.2864</ele>
        <time>2013-06-02T09:47:19Z</time>
      </trkpt>
      <trkpt lat="59.9222658" lon="17.8525136">
        <ele>21.2864</ele>
        <time>2013-06-02T09:47:20Z</time>
      </trkpt>
      <trkpt lat="59.9223228" lon="17.85258">
        <ele>21.767</ele>
        <time>2013-06-02T09:47:21Z</time>
      </trkpt>
      <trkpt lat="59.9223818" lon="17.8526422">
        <ele>22.2476</ele>
        <time>2013-06-02T09:47:22Z</time>
      </trkpt>
      <trkpt lat="59.9224415" lon="17.8527051">
        <ele>22.2476</ele>
        <time>2013-06-02T09:47:23Z</time>
      </trkpt>
      <trkpt lat="59.9225004" lon="17.8527633">
        <ele>21.767</ele>
        <time>2013-06-02T09:47:24Z</time>
      </trkpt>
      <trkpt lat="59.9225537" lon="17.8528247">
        <ele>21.767</ele>
        <time>2013-06-02T09:47:25Z</time>
      </trkpt>
      <trkpt lat="59.9226075" lon="17.8528893">
        <ele>21.767</ele>
        <time>2013-06-02T09:47:26Z</time>
      </trkpt>
      <trkpt lat="59.9226712" lon="17.8529423">
        <ele>22.2476</ele>
        <time>2013-06-02T09:47:27Z</time>
      </trkpt>
      <trkpt lat="59.9227367" lon="17.8529869">
        <ele>21.767</ele>
        <time>2013-06-02T09:47:28Z</time>
      </trkpt>
      <trkpt lat="59.9227859" lon="17.853028">
        <ele>17.4412</ele>
        <time>2013-06-02T09:47:29Z</time>
      </trkpt>
      <trkpt lat="59.9228339" lon="17.8530777">
        <ele>14.557</ele>
        <time>2013-06-02T09:47:30Z</time>
      </trkpt>
      <trkpt lat="59.9228811" lon="17.8531239">
        <ele>12.6344</ele>
        <time>2013-06-02T09:47:31Z</time>
      </trkpt>
      <trkpt lat="59.9229396" lon="17.8531705">
        <ele>12.6344</ele>
        <time>2013-06-02T09:47:32Z</time>
      </trkpt>
      <trkpt lat="59.9229942" lon="17.8532191">
        <ele>11.6732</ele>
        <time>2013-06-02T09:47:33Z</time>
      </trkpt>
      <trkpt lat="59.9230555" lon="17.8532652">
        <ele>11.6732</ele>
        <time>2013-06-02T09:47:34Z</time>
      </trkpt>
      <trkpt lat="59.923112" lon="17.8533176">
        <ele>11.1925</ele>
        <time>2013-06-02T09:47:35Z</time>
      </trkpt>
      <trkpt lat="59.9231779" lon="17.8533648">
        <ele>11.1925</ele>
        <time>2013-06-02T09:47:36Z</time>
      </trkpt>
      <trkpt lat="59.9232437" lon="17.8534088">
        <ele>12.6344</ele>
        <time>2013-06-02T09:47:37Z</time>
      </trkpt>
      <trkpt lat="59.9233044" lon="17.8534528">
        <ele>12.6344</ele>
        <time>2013-06-02T09:47:38Z</time>
      </trkpt>
      <trkpt lat="59.9233593" lon="17.8534879">
        <ele>10.2312</ele>
        <time>2013-06-02T09:47:39Z</time>
      </trkpt>
      <trkpt lat="59.9234171" lon="17.8535356">
        <ele>10.2312</ele>
        <time>2013-06-02T09:47:40Z</time>
      </trkpt>
      <trkpt lat="59.9234754" lon="17.8535833">
        <ele>10.7118</ele>
        <time>2013-06-02T09:47:41Z</time>
      </trkpt>
      <trkpt lat="59.9235353" lon="17.8536334">
        <ele>11.6732</ele>
        <time>2013-06-02T09:47:42Z</time>
      </trkpt>
      <trkpt lat="59.9235955" lon="17.8536837">
        <ele>12.1538</ele>
        <time>2013-06-02T09:47:43Z</time>
      </trkpt>
      <trkpt lat="59.923656" lon="17.853732">
        <ele>12.6344</ele>
        <time>2013-06-02T09:47:44Z</time>
      </trkpt>
      <trkpt lat="59.9237157" lon="17.8537796">
        <ele>12.6344</ele>
        <time>2013-06-02T09:47:45Z</time>
      </trkpt>
      <trkpt lat="59.9237742" lon="17.8538271">
        <ele>13.1151</ele>
        <time>2013-06-02T09:47:46Z</time>
      </trkpt>
      <trkpt lat="59.9238316" lon="17.8538723">
        <ele>13.5958</ele>
        <time>2013-06-02T09:47:47Z</time>
      </trkpt>
      <trkpt lat="59.9238891" lon="17.8539182">
        <ele>14.557</ele>
        <time>2013-06-02T09:47:48Z</time>
      </trkpt>
      <trkpt lat="59.9239445" lon="17.853974">
        <ele>15.5184</ele>
        <time>2013-06-02T09:47:49Z</time>
      </trkpt>
      <trkpt lat="59.9239991" lon="17.854032">
        <ele>16.4797</ele>
        <time>2013-06-02T09:47:50Z</time>
      </trkpt>
      <trkpt lat="59.9240534" lon="17.8540889">
        <ele>16.4797</ele>
        <time>2013-06-02T09:47:51Z</time>
      </trkpt>
      <trkpt lat="59.9241094" lon="17.8541454">
        <ele>16.9604</ele>
        <time>2013-06-02T09:47:52Z</time>
      </trkpt>
      <trkpt lat="59.9241664" lon="17.8542026">
        <ele>17.9218</ele>
        <time>2013-06-02T09:47:53Z</time>
      </trkpt>
      <trkpt lat="59.9242223" lon="17.8542607">
        <ele>18.4023</ele>
        <time>2013-06-02T09:47:54Z</time>
      </trkpt>
      <trkpt lat="59.9242788" lon="17.8543152">
        <ele>18.8831</ele>
        <time>2013-06-02T09:47:55Z</time>
      </trkpt>
      <trkpt lat="59.9243345" lon="17.8543707">
        <ele>19.8444</ele>
        <time>2013-06-02T09:47:56Z</time>
      </trkpt>
      <trkpt lat="59.924386" lon="17.8544254">
        <ele>20.325</ele>
        <time>2013-06-02T09:47:57Z</time>
      </trkpt>
      <trkpt lat="59.9244388" lon="17.8544736">
        <ele>20.325</ele>
        <time>2013-06-02T09:47:58Z</time>
      </trkpt>
      <trkpt lat="59.924492" lon="17.8545208">
        <ele>19.8444</ele>
        <time>2013-06-02T09:47:59Z</time>
      </trkpt>
      <trkpt lat="59.9245451" lon="17.8545655">
        <ele>19.8444</ele>
        <time>2013-06-02T09:48:00Z</time>
      </trkpt>
      <trkpt lat="59.9245997" lon="17.8546129">
        <ele>19.3638</ele>
        <time>2013-06-02T09:48:01Z</time>
      </trkpt>
      <trkpt lat="59.9246547" lon="17.8546644">
        <ele>18.8831</ele>
        <time>2013-06-02T09:48:02Z</time>
      </trkpt>
      <trkpt lat="59.9247087" lon="17.8547162">
        <ele>18.8831</ele>
        <time>2013-06-02T09:48:03Z</time>
      </trkpt>
      <trkpt lat="59.9247595" lon="17.8547706">
        <ele>18.8831</ele>
        <time>2013-06-02T09:48:04Z</time>
      </trkpt>
      <trkpt lat="59.9248107" lon="17.854825">
        <ele>18.4023</ele>
        <time>2013-06-02T09:48:05Z</time>
      </trkpt>
      <trkpt lat="59.924861" lon="17.8548761">
        <ele>17.9218</ele>
        <time>2013-06-02T09:48:06Z</time>
      </trkpt>
      <trkpt lat="59.9249117" lon="17.8549242">
        <ele>17.4412</ele>
        <time>2013-06-02T09:48:07Z</time>
      </trkpt>
      <trkpt lat="59.9249608" lon="17.8549809">
        <ele>17.4412</ele>
        <time>2013-06-02T09:48:08Z</time>
      </trkpt>
      <trkpt lat="59.92501" lon="17.855041">
        <ele>17.4412</ele>
        <time>2013-06-02T09:48:09Z</time>
      </trkpt>
      <trkpt lat="59.9250598" lon="17.8551005">
        <ele>17.4412</ele>
        <time>2013-06-02T09:48:10Z</time>
      </trkpt>
      <trkpt lat="59.9251095" lon="17.85516">
        <ele>17.4412</ele>
        <time>2013-06-02T09:48:11Z</time>
      </trkpt>
      <trkpt lat="59.9251589" lon="17.8552191">
        <ele>16.9604</ele>
        <time>2013-06-02T09:48:12Z</time>
      </trkpt>
      <trkpt lat="59.9252081" lon="17.8552775">
        <ele>16.9604</ele>
        <time>2013-06-02T09:48:13Z</time>
      </trkpt>
      <trkpt lat="59.9252568" lon="17.8553358">
        <ele>16.9604</ele>
        <time>2013-06-02T09:48:14Z</time>
      </trkpt>
      <trkpt lat="59.9253049" lon="17.8553948">
        <ele>16.9604</ele>
        <time>2013-06-02T09:48:15Z</time>
      </trkpt>
      <trkpt lat="59.9253527" lon="17.8554541">
        <ele>16.9604</ele>
        <time>2013-06-02T09:48:16Z</time>
      </trkpt>
      <trkpt lat="59.9253999" lon="17.855516">
        <ele>16.9604</ele>
        <time>2013-06-02T09:48:17Z</time>
      </trkpt>
      <trkpt lat="59.9254465" lon="17.8555813">
        <ele>16.9604</ele>
        <time>2013-06-02T09:48:18Z</time>
      </trkpt>
      <trkpt lat="59.925493" lon="17.8556466">
        <ele>16.9604</ele>
        <time>2013-06-02T09:48:19Z</time>
      </trkpt>
      <trkpt lat="59.9255392" lon="17.8557113">
        <ele>16.9604</ele>
        <time>2013-06-02T09:48:20Z</time>
      </trkpt>
      <trkpt lat="59.9255847" lon="17.8557766">
        <ele>16.4797</ele>
        <time>2013-06-02T09:48:21Z</time>
      </trkpt>
      <trkpt lat="59.9256308" lon="17.8558432">
        <ele>16.4797</ele>
        <time>2013-06-02T09:48:22Z</time>
      </trkpt>
      <trkpt lat="59.9256783" lon="17.8559097">
        <ele>16.4797</ele>
        <time>2013-06-02T09:48:23Z</time>
      </trkpt>
      <trkpt lat="59.9257267" lon="17.8559745">
        <ele>16.4797</ele>
        <time>2013-06-02T09:48:24Z</time>
      </trkpt>
      <trkpt lat="59.9257748" lon="17.8560398">
        <ele>16.9604</ele>
        <time>2013-06-02T09:48:25Z</time>
      </trkpt>
      <trkpt lat="59.9258218" lon="17.8561091">
        <ele>16.9604</ele>
        <time>2013-06-02T09:48:26Z</time>
      </trkpt>
      <trkpt lat="59.9258689" lon="17.8561802">
        <ele>16.9604</ele>
        <time>2013-06-02T09:48:27Z</time>
      </trkpt>
      <trkpt lat="59.9259158" lon="17.8562505">
        <ele>16.9604</ele>
        <time>2013-06-02T09:48:28Z</time>
      </trkpt>
      <trkpt lat="59.9259639" lon="17.8563208">
        <ele>17.4412</ele>
        <time>2013-06-02T09:48:29Z</time>
      </trkpt>
      <trkpt lat="59.9260115" lon="17.8563919">
        <ele>17.4412</ele>
        <time>2013-06-02T09:48:30Z</time>
      </trkpt>
      <trkpt lat="59.9260592" lon="17.8564651">
        <ele>17.9218</ele>
        <time>2013-06-02T09:48:31Z</time>
      </trkpt>
      <trkpt lat="59.9261016" lon="17.8565447">
        <ele>17.9218</ele>
        <time>2013-06-02T09:48:32Z</time>
      </trkpt>
      <trkpt lat="59.9261427" lon="17.8566255">
        <ele>17.9218</ele>
        <time>2013-06-02T09:48:33Z</time>
      </trkpt>
      <trkpt lat="59.9261849" lon="17.8567017">
        <ele>18.8831</ele>
        <time>2013-06-02T09:48:34Z</time>
      </trkpt>
      <trkpt lat="59.9262297" lon="17.8567688">
        <ele>19.3638</ele>
        <time>2013-06-02T09:48:35Z</time>
      </trkpt>
      <trkpt lat="59.9262765" lon="17.8568307">
        <ele>19.8444</ele>
        <time>2013-06-02T09:48:36Z</time>
      </trkpt>
      <trkpt lat="59.9263228" lon="17.8568907">
        <ele>22.7283</ele>
        <time>2013-06-02T09:48:37Z</time>
      </trkpt>
      <trkpt lat="59.9263654" lon="17.8569472">
        <ele>24.1703</ele>
        <time>2013-06-02T09:48:38Z</time>
      </trkpt>
      <trkpt lat="59.9264037" lon="17.8569928">
        <ele>25.1317</ele>
        <time>2013-06-02T09:48:39Z</time>
      </trkpt>
      <trkpt lat="59.9264435" lon="17.8570409">
        <ele>25.6123</ele>
        <time>2013-06-02T09:48:40Z</time>
      </trkpt>
      <trkpt lat="59.9264865" lon="17.8570881">
        <ele>25.6123</ele>
        <time>2013-06-02T09:48:41Z</time>
      </trkpt>
      <trkpt lat="59.9265316" lon="17.8571415">
        <ele>26.0929</ele>
        <time>2013-06-02T09:48:42Z</time>
      </trkpt>
      <trkpt lat="59.9265816" lon="17.8571979">
        <ele>26.0929</ele>
        <time>2013-06-02T09:48:43Z</time>
      </trkpt>
      <trkpt lat="59.9266361" lon="17.8572575">
        <ele>26.5736</ele>
        <time>2013-06-02T09:48:44Z</time>
      </trkpt>
      <trkpt lat="59.9266886" lon="17.8573167">
        <ele>26.5736</ele>
        <time>2013-06-02T09:48:45Z</time>
      </trkpt>
      <trkpt lat="59.9267522" lon="17.8573693">
        <ele>26.0929</ele>
        <time>2013-06-02T09:48:46Z</time>
      </trkpt>
      <trkpt lat="59.9268154" lon="17.8574264">
        <ele>25.1317</ele>
        <time>2013-06-02T09:48:47Z</time>
      </trkpt>
      <trkpt lat="59.9268699" lon="17.8574859">
        <ele>24.651</ele>
        <time>2013-06-02T09:48:48Z</time>
      </trkpt>
      <trkpt lat="59.9269226" lon="17.8575409">
        <ele>24.1703</ele>
        <time>2013-06-02T09:48:49Z</time>
      </trkpt>
      <trkpt lat="59.9269765" lon="17.8575941">
        <ele>24.1703</ele>
        <time>2013-06-02T09:48:50Z</time>
      </trkpt>
      <trkpt lat="59.9270366" lon="17.8576396">
        <ele>25.6123</ele>
        <time>2013-06-02T09:48:51Z</time>
      </trkpt>
      <trkpt lat="59.9270942" lon="17.8576834">
        <ele>25.6123</ele>
        <time>2013-06-02T09:48:52Z</time>
      </trkpt>
      <trkpt lat="59.9271447" lon="17.8577217">
        <ele>23.6896</ele>
        <time>2013-06-02T09:48:53Z</time>
      </trkpt>
      <trkpt lat="59.9271994" lon="17.8577605">
        <ele>23.209</ele>
        <time>2013-06-02T09:48:54Z</time>
      </trkpt>
      <trkpt lat="59.9272537" lon="17.8578071">
        <ele>22.7283</ele>
        <time>2013-06-02T09:48:55Z</time>
      </trkpt>
      <trkpt lat="59.9273123" lon="17.8578492">
        <ele>22.7283</ele>
        <time>2013-06-02T09:48:56Z</time>
      </trkpt>
      <trkpt lat="59.9273707" lon="17.8578916">
        <ele>22.7283</ele>
        <time>2013-06-02T09:48:57Z</time>
      </trkpt>
      <trkpt lat="59.9274298" lon="17.857932">
        <ele>22.2476</ele>
        <time>2013-06-02T09:48:58Z</time>
      </trkpt>
      <trkpt lat="59.9274872" lon="17.8579733">
        <ele>22.2476</ele>
        <time>2013-06-02T09:48:59Z</time>
      </trkpt>
      <trkpt lat="59.9275426" lon="17.8580148">
        <ele>21.767</ele>
        <time>2013-06-02T09:49:00Z</time>
      </trkpt>
      <trkpt lat="59.9275961" lon="17.8580583">
        <ele>20.8057</ele>
        <time>2013-06-02T09:49:01Z</time>
      </trkpt>
      <trkpt lat="59.9276489" lon="17.8581039">
        <ele>20.325</ele>
        <time>2013-06-02T09:49:02Z</time>
      </trkpt>
      <trkpt lat="59.9277022" lon="17.8581512">
        <ele>19.8444</ele>
        <time>2013-06-02T09:49:03Z</time>
      </trkpt>
      <trkpt lat="59.9277549" lon="17.8582014">
        <ele>19.8444</ele>
        <time>2013-06-02T09:49:04Z</time>
      </trkpt>
      <trkpt lat="59.9278062" lon="17.8582578">
        <ele>19.3638</ele>
        <time>2013-06-02T09:49:05Z</time>
      </trkpt>
      <trkpt lat="59.9278588" lon="17.8583196">
        <ele>19.8444</ele>
        <time>2013-06-02T09:49:06Z</time>
      </trkpt>
      <trkpt lat="59.9279093" lon="17.8583811">
        <ele>20.325</ele>
        <time>2013-06-02T09:49:07Z</time>
      </trkpt>
      <trkpt lat="59.9279591" lon="17.8584407">
        <ele>20.8057</ele>
        <time>2013-06-02T09:49:08Z</time>
      </trkpt>
      <trkpt lat="59.9280073" lon="17.8584997">
        <ele>21.2864</ele>
        <time>2013-06-02T09:49:09Z</time>
      </trkpt>
      <trkpt lat="59.9280528" lon="17.8585565">
        <ele>21.767</ele>
        <time>2013-06-02T09:49:10Z</time>
      </trkpt>
      <trkpt lat="59.9280992" lon="17.8586119">
        <ele>21.767</ele>
        <time>2013-06-02T09:49:11Z</time>
      </trkpt>
      <trkpt lat="59.9281507" lon="17.8586587">
        <ele>21.767</ele>
        <time>2013-06-02T09:49:12Z</time>
      </trkpt>
      <trkpt lat="59.9282012" lon="17.8587042">
        <ele>21.767</ele>
        <time>2013-06-02T09:49:13Z</time>
      </trkpt>
      <trkpt lat="59.9282519" lon="17.8587539">
        <ele>21.767</ele>
        <time>2013-06-02T09:49:14Z</time>
      </trkpt>
      <trkpt lat="59.9283052" lon="17.858808">
        <ele>21.767</ele>
        <time>2013-06-02T09:49:15Z</time>
      </trkpt>
      <trkpt lat="59.9283575" lon="17.8588628">
        <ele>22.2476</ele>
        <time>2013-06-02T09:49:16Z</time>
      </trkpt>
      <trkpt lat="59.9284036" lon="17.8589234">
        <ele>21.2864</ele>
        <time>2013-06-02T09:49:17Z</time>
      </trkpt>
      <trkpt lat="59.9284512" lon="17.8589834">
        <ele>20.8057</ele>
        <time>2013-06-02T09:49:18Z</time>
      </trkpt>
      <trkpt lat="59.9285016" lon="17.8590385">
        <ele>20.8057</ele>
        <time>2013-06-02T09:49:19Z</time>
      </trkpt>
      <trkpt lat="59.9285533" lon="17.8590938">
        <ele>20.8057</ele>
        <time>2013-06-02T09:49:20Z</time>
      </trkpt>
      <trkpt lat="59.9286067" lon="17.8591545">
        <ele>20.8057</ele>
        <time>2013-06-02T09:49:21Z</time>
      </trkpt>
      <trkpt lat="59.9286534" lon="17.8592129">
        <ele>20.325</ele>
        <time>2013-06-02T09:49:22Z</time>
      </trkpt>
      <trkpt lat="59.9287029" lon="17.8592679">
        <ele>19.8444</ele>
        <time>2013-06-02T09:49:23Z</time>
      </trkpt>
      <trkpt lat="59.9287519" lon="17.8593216">
        <ele>19.3638</ele>
        <time>2013-06-02T09:49:24Z</time>
      </trkpt>
      <trkpt lat="59.9287975" lon="17.8593731">
        <ele>18.4023</ele>
        <time>2013-06-02T09:49:25Z</time>
      </trkpt>
      <trkpt lat="59.9288487" lon="17.8594213">
        <ele>18.4023</ele>
        <time>2013-06-02T09:49:26Z</time>
      </trkpt>
      <trkpt lat="59.9289006" lon="17.8594689">
        <ele>18.4023</ele>
        <time>2013-06-02T09:49:27Z</time>
      </trkpt>
      <trkpt lat="59.9289538" lon="17.8595141">
        <ele>17.9218</ele>
        <time>2013-06-02T09:49:28Z</time>
      </trkpt>
      <trkpt lat="59.9290065" lon="17.8595606">
        <ele>17.4412</ele>
        <time>2013-06-02T09:49:29Z</time>
      </trkpt>
      <trkpt lat="59.9290605" lon="17.8596076">
        <ele>17.4412</ele>
        <time>2013-06-02T09:49:30Z</time>
      </trkpt>
      <trkpt lat="59.9291124" lon="17.8596522">
        <ele>17.4412</ele>
        <time>2013-06-02T09:49:31Z</time>
      </trkpt>
      <trkpt lat="59.9291641" lon="17.8596992">
        <ele>16.4797</ele>
        <time>2013-06-02T09:49:32Z</time>
      </trkpt>
      <trkpt lat="59.9292155" lon="17.8597495">
        <ele>15.999</ele>
        <time>2013-06-02T09:49:33Z</time>
      </trkpt>
      <trkpt lat="59.9292677" lon="17.8597974">
        <ele>15.5184</ele>
        <time>2013-06-02T09:49:34Z</time>
      </trkpt>
      <trkpt lat="59.9293198" lon="17.8598403">
        <ele>15.0377</ele>
        <time>2013-06-02T09:49:35Z</time>
      </trkpt>
      <trkpt lat="59.9293742" lon="17.8598843">
        <ele>15.999</ele>
        <time>2013-06-02T09:49:36Z</time>
      </trkpt>
      <trkpt lat="59.9294271" lon="17.8599344">
        <ele>15.999</ele>
        <time>2013-06-02T09:49:37Z</time>
      </trkpt>
      <trkpt lat="59.9294791" lon="17.8599869">
        <ele>15.999</ele>
        <time>2013-06-02T09:49:38Z</time>
      </trkpt>
      <trkpt lat="59.9295351" lon="17.8600377">
        <ele>16.4797</ele>
        <time>2013-06-02T09:49:39Z</time>
      </trkpt>
      <trkpt lat="59.9295929" lon="17.8600875">
        <ele>16.4797</ele>
        <time>2013-06-02T09:49:40Z</time>
      </trkpt>
      <trkpt lat="59.9296496" lon="17.8601378">
        <ele>16.4797</ele>
        <time>2013-06-02T09:49:41Z</time>
      </trkpt>
      <trkpt lat="59.9297073" lon="17.8601874">
        <ele>16.4797</ele>
        <time>2013-06-02T09:49:42Z</time>
      </trkpt>
      <trkpt lat="59.9297646" lon="17.8602366">
        <ele>16.4797</ele>
        <time>2013-06-02T09:49:43Z</time>
      </trkpt>
      <trkpt lat="59.9298215" lon="17.8602863">
        <ele>16.4797</ele>
        <time>2013-06-02T09:49:44Z</time>
      </trkpt>
      <trkpt lat="59.9298794" lon="17.8603329">
        <ele>16.4797</ele>
        <time>2013-06-02T09:49:45Z</time>
      </trkpt>
      <trkpt lat="59.9299378" lon="17.8603769">
        <ele>16.4797</ele>
        <time>2013-06-02T09:49:46Z</time>
      </trkpt>
      <trkpt lat="59.9299966" lon="17.8604182">
        <ele>16.9604</ele>
        <time>2013-06-02T09:49:47Z</time>
      </trkpt>
      <trkpt lat="59.9300551" lon="17.8604562">
        <ele>17.4412</ele>
        <time>2013-06-02T09:49:48Z</time>
      </trkpt>
      <trkpt lat="59.9301122" lon="17.8604914">
        <ele>17.9218</ele>
        <time>2013-06-02T09:49:49Z</time>
      </trkpt>
      <trkpt lat="59.9301706" lon="17.8605297">
        <ele>18.4023</ele>
        <time>2013-06-02T09:49:50Z</time>
      </trkpt>
      <trkpt lat="59.9302323" lon="17.8605624">
        <ele>18.8831</ele>
        <time>2013-06-02T09:49:51Z</time>
      </trkpt>
      <trkpt lat="59.9302882" lon="17.8606065">
        <ele>19.8444</ele>
        <time>2013-06-02T09:49:52Z</time>
      </trkpt>
      <trkpt lat="59.9303427" lon="17.8606469">
        <ele>20.8057</ele>
        <time>2013-06-02T09:49:53Z</time>
      </trkpt>
      <trkpt lat="59.9303928" lon="17.8606893">
        <ele>20.8057</ele>
        <time>2013-06-02T09:49:54Z</time>
      </trkpt>
      <trkpt lat="59.9304431" lon="17.8607231">
        <ele>19.8444</ele>
        <time>2013-06-02T09:49:55Z</time>
      </trkpt>
      <trkpt lat="59.9304976" lon="17.8607547">
        <ele>20.325</ele>
        <time>2013-06-02T09:49:56Z</time>
      </trkpt>
      <trkpt lat="59.9305472" lon="17.8607981">
        <ele>21.2864</ele>
        <time>2013-06-02T09:49:57Z</time>
      </trkpt>
      <trkpt lat="59.930612" lon="17.8608198">
        <ele>22.2476</ele>
        <time>2013-06-02T09:49:58Z</time>
      </trkpt>
      <trkpt lat="59.9306674" lon="17.8608477">
        <ele>22.7283</ele>
        <time>2013-06-02T09:49:59Z</time>
      </trkpt>
      <trkpt lat="59.9307203" lon="17.8608768">
        <ele>23.209</ele>
        <time>2013-06-02T09:50:00Z</time>
      </trkpt>
      <trkpt lat="59.930783" lon="17.8608994">
        <ele>23.6896</ele>
        <time>2013-06-02T09:50:01Z</time>
      </trkpt>
      <trkpt lat="59.9308455" lon="17.8609064">
        <ele>22.7283</ele>
        <time>2013-06-02T09:50:02Z</time>
      </trkpt>
      <trkpt lat="59.9309041" lon="17.8609193">
        <ele>22.2476</ele>
        <time>2013-06-02T09:50:03Z</time>
      </trkpt>
      <trkpt lat="59.9309602" lon="17.8609445">
        <ele>22.2476</ele>
        <time>2013-06-02T09:50:04Z</time>
      </trkpt>
      <trkpt lat="59.9310149" lon="17.860968">
        <ele>21.767</ele>
        <time>2013-06-02T09:50:05Z</time>
      </trkpt>
      <trkpt lat="59.9310678" lon="17.8609934">
        <ele>21.767</ele>
        <time>2013-06-02T09:50:06Z</time>
      </trkpt>
      <trkpt lat="59.9311182" lon="17.8610228">
        <ele>20.8057</ele>
        <time>2013-06-02T09:50:07Z</time>
      </trkpt>
      <trkpt lat="59.931175" lon="17.8610437">
        <ele>20.8057</ele>
        <time>2013-06-02T09:50:08Z</time>
      </trkpt>
      <trkpt lat="59.9312303" lon="17.8610614">
        <ele>19.8444</ele>
        <time>2013-06-02T09:50:09Z</time>
      </trkpt>
      <trkpt lat="59.9312894" lon="17.8610701">
        <ele>19.3638</ele>
        <time>2013-06-02T09:50:10Z</time>
      </trkpt>
      <trkpt lat="59.9313408" lon="17.8610897">
        <ele>18.8831</ele>
        <time>2013-06-02T09:50:11Z</time>
      </trkpt>
      <trkpt lat="59.9313921" lon="17.8611038">
        <ele>17.9218</ele>
        <time>2013-06-02T09:50:12Z</time>
      </trkpt>
      <trkpt lat="59.9314361" lon="17.8611351">
        <ele>18.4023</ele>
        <time>2013-06-02T09:50:13Z</time>
      </trkpt>
      <trkpt lat="59.9314844" lon="17.8611685">
        <ele>17.9218</ele>
        <time>2013-06-02T09:50:14Z</time>
      </trkpt>
      <trkpt lat="59.9315395" lon="17.8612014">
        <ele>17.9218</ele>
        <time>2013-06-02T09:50:15Z</time>
      </trkpt>
      <trkpt lat="59.9315925" lon="17.8612308">
        <ele>16.9604</ele>
        <time>2013-06-02T09:50:16Z</time>
      </trkpt>
      <trkpt lat="59.9316444" lon="17.8612707">
        <ele>16.9604</ele>
        <time>2013-06-02T09:50:17Z</time>
      </trkpt>
      <trkpt lat="59.9316973" lon="17.861298">
        <ele>16.4797</ele>
        <time>2013-06-02T09:50:18Z</time>
      </trkpt>
      <trkpt lat="59.9317552" lon="17.8613084">
        <ele>16.9604</ele>
        <time>2013-06-02T09:50:19Z</time>
      </trkpt>
      <trkpt lat="59.9318095" lon="17.8613396">
        <ele>17.9218</ele>
        <time>2013-06-02T09:50:20Z</time>
      </trkpt>
      <trkpt lat="59.9318639" lon="17.8613643">
        <ele>19.8444</ele>
        <time>2013-06-02T09:50:21Z</time>
      </trkpt>
      <trkpt lat="59.9319158" lon="17.8613901">
        <ele>21.2864</ele>
        <time>2013-06-02T09:50:22Z</time>
      </trkpt>
      <trkpt lat="59.931965" lon="17.8614185">
        <ele>21.767</ele>
        <time>2013-06-02T09:50:23Z</time>
      </trkpt>
      <trkpt lat="59.9320169" lon="17.8614452">
        <ele>23.209</ele>
        <time>2013-06-02T09:50:24Z</time>
      </trkpt>
      <trkpt lat="59.9320722" lon="17.8614725">
        <ele>24.651</ele>
        <time>2013-06-02T09:50:25Z</time>
      </trkpt>
      <trkpt lat="59.9321235" lon="17.8615">
        <ele>24.1703</ele>
        <time>2013-06-02T09:50:26Z</time>
      </trkpt>
      <trkpt lat="59.9321777" lon="17.8615285">
        <ele>24.651</ele>
        <time>2013-06-02T09:50:27Z</time>
      </trkpt>
      <trkpt lat="59.9322363" lon="17.8615498">
        <ele>25.1317</ele>
        <time>2013-06-02T09:50:28Z</time>
      </trkpt>
      <trkpt lat="59.9322935" lon="17.8615672">
        <ele>25.1317</ele>
        <time>2013-06-02T09:50:29Z</time>
      </trkpt>
      <trkpt lat="59.9323533" lon="17.8615947">
        <ele>25.6123</ele>
        <time>2013-06-02T09:50:30Z</time>
      </trkpt>
      <trkpt lat="59.9324113" lon="17.8616172">
        <ele>25.6123</ele>
        <time>2013-06-02T09:50:31Z</time>
      </trkpt>
      <trkpt lat="59.9324711" lon="17.8616414">
        <ele>26.0929</ele>
        <time>2013-06-02T09:50:32Z</time>
      </trkpt>
      <trkpt lat="59.9325307" lon="17.8616674">
        <ele>26.0929</ele>
        <time>2013-06-02T09:50:33Z</time>
      </trkpt>
      <trkpt lat="59.9325877" lon="17.8616952">
        <ele>24.651</ele>
        <time>2013-06-02T09:50:34Z</time>
      </trkpt>
      <trkpt lat="59.9326496" lon="17.8617243">
        <ele>24.1703</ele>
        <time>2013-06-02T09:50:35Z</time>
      </trkpt>
      <trkpt lat="59.9327119" lon="17.8617635">
        <ele>24.651</ele>
        <time>2013-06-02T09:50:36Z</time>
      </trkpt>
      <trkpt lat="59.9327793" lon="17.8618049">
        <ele>25.1317</ele>
        <time>2013-06-02T09:50:37Z</time>
      </trkpt>
      <trkpt lat="59.9328397" lon="17.8618557">
        <ele>25.6123</ele>
        <time>2013-06-02T09:50:38Z</time>
      </trkpt>
      <trkpt lat="59.9328963" lon="17.8619094">
        <ele>25.6123</ele>
        <time>2013-06-02T09:50:39Z</time>
      </trkpt>
      <trkpt lat="59.9329519" lon="17.8619689">
        <ele>26.0929</ele>
        <time>2013-06-02T09:50:40Z</time>
      </trkpt>
      <trkpt lat="59.933006" lon="17.8620315">
        <ele>26.5736</ele>
        <time>2013-06-02T09:50:41Z</time>
      </trkpt>
      <trkpt lat="59.9330591" lon="17.8620968">
        <ele>26.5736</ele>
        <time>2013-06-02T09:50:42Z</time>
      </trkpt>
      <trkpt lat="59.9331082" lon="17.8621641">
        <ele>25.1317</ele>
        <time>2013-06-02T09:50:43Z</time>
      </trkpt>
      <trkpt lat="59.9331627" lon="17.8622387">
        <ele>25.6123</ele>
        <time>2013-06-02T09:50:44Z</time>
      </trkpt>
      <trkpt lat="59.9332134" lon="17.8623152">
        <ele>25.6123</ele>
        <time>2013-06-02T09:50:45Z</time>
      </trkpt>
      <trkpt lat="59.9332611" lon="17.8623958">
        <ele>25.6123</ele>
        <time>2013-06-02T09:50:46Z</time>
      </trkpt>
      <trkpt lat="59.9333072" lon="17.8624734">
        <ele>26.5736</ele>
        <time>2013-06-02T09:50:47Z</time>
      </trkpt>
      <trkpt lat="59.9333496" lon="17.8625483">
        <ele>26.0929</ele>
        <time>2013-06-02T09:50:48Z</time>
      </trkpt>
      <trkpt lat="59.9333956" lon="17.8626273">
        <ele>27.5349</ele>
        <time>2013-06-02T09:50:49Z</time>
      </trkpt>
      <trkpt lat="59.9334329" lon="17.862713">
        <ele>27.0543</ele>
        <time>2013-06-02T09:50:50Z</time>
      </trkpt>
      <trkpt lat="59.9334683" lon="17.8627956">
        <ele>25.1317</ele>
        <time>2013-06-02T09:50:51Z</time>
      </trkpt>
      <trkpt lat="59.9335118" lon="17.8628853">
        <ele>26.0929</ele>
        <time>2013-06-02T09:50:52Z</time>
      </trkpt>
      <trkpt lat="59.9335489" lon="17.8629691">
        <ele>25.1317</ele>
        <time>2013-06-02T09:50:53Z</time>
      </trkpt>
      <trkpt lat="59.9335734" lon="17.8630737">
        <ele>25.6123</ele>
        <time>2013-06-02T09:50:54Z</time>
      </trkpt>
      <trkpt lat="59.9335994" lon="17.8631733">
        <ele>25.6123</ele>
        <time>2013-06-02T09:50:55Z</time>
      </trkpt>
      <trkpt lat="59.933629" lon="17.8632742">
        <ele>26.5736</ele>
        <time>2013-06-02T09:50:56Z</time>
      </trkpt>
      <trkpt lat="59.9336592" lon="17.8633776">
        <ele>26.5736</ele>
        <time>2013-06-02T09:50:57Z</time>
      </trkpt>
      <trkpt lat="59.93369" lon="17.8634908">
        <ele>28.0155</ele>
        <time>2013-06-02T09:50:58Z</time>
      </trkpt>
      <trkpt lat="59.9337247" lon="17.8635941">
        <ele>27.5349</ele>
        <time>2013-06-02T09:50:59Z</time>
      </trkpt>
      <trkpt lat="59.9337609" lon="17.8636964">
        <ele>27.5349</ele>
        <time>2013-06-02T09:51:00Z</time>
      </trkpt>
      <trkpt lat="59.9338061" lon="17.8637962">
        <ele>27.5349</ele>
        <time>2013-06-02T09:51:01Z</time>
      </trkpt>
      <trkpt lat="59.9338538" lon="17.8638954">
        <ele>27.0543</ele>
        <time>2013-06-02T09:51:02Z</time>
      </trkpt>
      <trkpt lat="59.9338966" lon="17.8639963">
        <ele>27.0543</ele>
        <time>2013-06-02T09:51:03Z</time>
      </trkpt>
      <trkpt lat="59.9339407" lon="17.8641008">
        <ele>28.0155</ele>
        <time>2013-06-02T09:51:04Z</time>
      </trkpt>
      <trkpt lat="59.9339802" lon="17.8642009">
        <ele>27.0543</ele>
        <time>2013-06-02T09:51:05Z</time>
      </trkpt>
      <trkpt lat="59.9340197" lon="17.8643023">
        <ele>26.5736</ele>
        <time>2013-06-02T09:51:06Z</time>
      </trkpt>
      <trkpt lat="59.934056" lon="17.864404">
        <ele>26.0929</ele>
        <time>2013-06-02T09:51:07Z</time>
      </trkpt>
      <trkpt lat="59.93409" lon="17.8645133">
        <ele>26.0929</ele>
        <time>2013-06-02T09:51:08Z</time>
      </trkpt>
      <trkpt lat="59.9341218" lon="17.8646257">
        <ele>26.0929</ele>
        <time>2013-06-02T09:51:09Z</time>
      </trkpt>
      <trkpt lat="59.9341546" lon="17.864733">
        <ele>26.0929</ele>
        <time>2013-06-02T09:51:10Z</time>
      </trkpt>
      <trkpt lat="59.9341887" lon="17.8648371">
        <ele>25.6123</ele>
        <time>2013-06-02T09:51:11Z</time>
      </trkpt>
      <trkpt lat="59.9342246" lon="17.8649358">
        <ele>25.1317</ele>
        <time>2013-06-02T09:51:12Z</time>
      </trkpt>
      <trkpt lat="59.9342603" lon="17.8650327">
        <ele>24.1703</ele>
        <time>2013-06-02T09:51:13Z</time>
      </trkpt>
      <trkpt lat="59.9343024" lon="17.8651243">
        <ele>24.1703</ele>
        <time>2013-06-02T09:51:14Z</time>
      </trkpt>
      <trkpt lat="59.9343441" lon="17.8652189">
        <ele>23.6896</ele>
        <time>2013-06-02T09:51:15Z</time>
      </trkpt>
      <trkpt lat="59.934382" lon="17.8653264">
        <ele>24.1703</ele>
        <time>2013-06-02T09:51:16Z</time>
      </trkpt>
      <trkpt lat="59.9344285" lon="17.8654312">
        <ele>24.651</ele>
        <time>2013-06-02T09:51:17Z</time>
      </trkpt>
      <trkpt lat="59.9344777" lon="17.8655346">
        <ele>26.0929</ele>
        <time>2013-06-02T09:51:18Z</time>
      </trkpt>
      <trkpt lat="59.9345152" lon="17.8656385">
        <ele>27.5349</ele>
        <time>2013-06-02T09:51:19Z</time>
      </trkpt>
      <trkpt lat="59.9345551" lon="17.8657423">
        <ele>27.5349</ele>
        <time>2013-06-02T09:51:20Z</time>
      </trkpt>
      <trkpt lat="59.9345992" lon="17.8658327">
        <ele>27.0543</ele>
        <time>2013-06-02T09:51:21Z</time>
      </trkpt>
      <trkpt lat="59.9346509" lon="17.8659019">
        <ele>27.5349</ele>
        <time>2013-06-02T09:51:22Z</time>
      </trkpt>
      <trkpt lat="59.934703" lon="17.865964">
        <ele>27.5349</ele>
        <time>2013-06-02T09:51:23Z</time>
      </trkpt>
      <trkpt lat="59.9347558" lon="17.8660192">
        <ele>28.0155</ele>
        <time>2013-06-02T09:51:24Z</time>
      </trkpt>
      <trkpt lat="59.9348156" lon="17.8660635">
        <ele>28.9769</ele>
        <time>2013-06-02T09:51:25Z</time>
      </trkpt>
      <trkpt lat="59.934881" lon="17.8661034">
        <ele>28.4962</ele>
        <time>2013-06-02T09:51:26Z</time>
      </trkpt>
      <trkpt lat="59.9349444" lon="17.8661357">
        <ele>28.4962</ele>
        <time>2013-06-02T09:51:27Z</time>
      </trkpt>
      <trkpt lat="59.9350067" lon="17.8661787">
        <ele>28.0155</ele>
        <time>2013-06-02T09:51:28Z</time>
      </trkpt>
      <trkpt lat="59.9350675" lon="17.8662253">
        <ele>27.5349</ele>
        <time>2013-06-02T09:51:29Z</time>
      </trkpt>
      <trkpt lat="59.9351278" lon="17.8662715">
        <ele>27.5349</ele>
        <time>2013-06-02T09:51:30Z</time>
      </trkpt>
      <trkpt lat="59.9351912" lon="17.8663186">
        <ele>27.5349</ele>
        <time>2013-06-02T09:51:31Z</time>
      </trkpt>
      <trkpt lat="59.9352475" lon="17.866373">
        <ele>27.5349</ele>
        <time>2013-06-02T09:51:32Z</time>
      </trkpt>
      <trkpt lat="59.9353097" lon="17.8664232">
        <ele>26.5736</ele>
        <time>2013-06-02T09:51:33Z</time>
      </trkpt>
      <trkpt lat="59.9353728" lon="17.8664727">
        <ele>26.0929</ele>
        <time>2013-06-02T09:51:34Z</time>
      </trkpt>
      <trkpt lat="59.9354398" lon="17.8665241">
        <ele>25.6123</ele>
        <time>2013-06-02T09:51:35Z</time>
      </trkpt>
      <trkpt lat="59.9354983" lon="17.8665872">
        <ele>24.651</ele>
        <time>2013-06-02T09:51:36Z</time>
      </trkpt>
      <trkpt lat="59.9355491" lon="17.8666671">
        <ele>23.209</ele>
        <time>2013-06-02T09:51:37Z</time>
      </trkpt>
      <trkpt lat="59.9355973" lon="17.8667568">
        <ele>21.767</ele>
        <time>2013-06-02T09:51:38Z</time>
      </trkpt>
      <trkpt lat="59.9356447" lon="17.86684">
        <ele>19.8444</ele>
        <time>2013-06-02T09:51:39Z</time>
      </trkpt>
      <trkpt lat="59.9356843" lon="17.8669438">
        <ele>19.8444</ele>
        <time>2013-06-02T09:51:40Z</time>
      </trkpt>
      <trkpt lat="59.9357217" lon="17.8670499">
        <ele>18.8831</ele>
        <time>2013-06-02T09:51:41Z</time>
      </trkpt>
      <trkpt lat="59.9357567" lon="17.8671618">
        <ele>18.8831</ele>
        <time>2013-06-02T09:51:42Z</time>
      </trkpt>
      <trkpt lat="59.9357885" lon="17.8672753">
        <ele>19.3638</ele>
        <time>2013-06-02T09:51:43Z</time>
      </trkpt>
      <trkpt lat="59.9358154" lon="17.8673883">
        <ele>19.3638</ele>
        <time>2013-06-02T09:51:44Z</time>
      </trkpt>
      <trkpt lat="59.9358506" lon="17.8675">
        <ele>20.8057</ele>
        <time>2013-06-02T09:51:45Z</time>
      </trkpt>
      <trkpt lat="59.9358801" lon="17.8676079">
        <ele>20.8057</ele>
        <time>2013-06-02T09:51:46Z</time>
      </trkpt>
      <trkpt lat="59.9359046" lon="17.8677187">
        <ele>21.2864</ele>
        <time>2013-06-02T09:51:47Z</time>
      </trkpt>
      <trkpt lat="59.9359245" lon="17.8678129">
        <ele>20.325</ele>
        <time>2013-06-02T09:51:48Z</time>
      </trkpt>
      <trkpt lat="59.9359506" lon="17.8679033">
        <ele>19.3638</ele>
        <time>2013-06-02T09:51:49Z</time>
      </trkpt>
      <trkpt lat="59.9359728" lon="17.8680017">
        <ele>19.3638</ele>
        <time>2013-06-02T09:51:50Z</time>
      </trkpt>
      <trkpt lat="59.9359955" lon="17.8681055">
        <ele>17.9218</ele>
        <time>2013-06-02T09:51:51Z</time>
      </trkpt>
      <trkpt lat="59.9360265" lon="17.8682057">
        <ele>16.4797</ele>
        <time>2013-06-02T09:51:52Z</time>
      </trkpt>
      <trkpt lat="59.9360564" lon="17.8683118">
        <ele>15.5184</ele>
        <time>2013-06-02T09:51:53Z</time>
      </trkpt>
      <trkpt lat="59.9360809" lon="17.8684282">
        <ele>16.4797</ele>
        <time>2013-06-02T09:51:54Z</time>
      </trkpt>
      <trkpt lat="59.936107" lon="17.868546">
        <ele>17.4412</ele>
        <time>2013-06-02T09:51:55Z</time>
      </trkpt>
      <trkpt lat="59.9361345" lon="17.8686616">
        <ele>18.4023</ele>
        <time>2013-06-02T09:51:56Z</time>
      </trkpt>
      <trkpt lat="59.9361648" lon="17.8687743">
        <ele>19.3638</ele>
        <time>2013-06-02T09:51:57Z</time>
      </trkpt>
      <trkpt lat="59.9361899" lon="17.8688835">
        <ele>19.8444</ele>
        <time>2013-06-02T09:51:58Z</time>
      </trkpt>
      <trkpt lat="59.9362221" lon="17.8689868">
        <ele>19.8444</ele>
        <time>2013-06-02T09:51:59Z</time>
      </trkpt>
      <trkpt lat="59.9362619" lon="17.8690812">
        <ele>20.325</ele>
        <time>2013-06-02T09:52:00Z</time>
      </trkpt>
      <trkpt lat="59.9363073" lon="17.8691666">
        <ele>20.325</ele>
        <time>2013-06-02T09:52:01Z</time>
      </trkpt>
      <trkpt lat="59.9363609" lon="17.8692386">
        <ele>20.325</ele>
        <time>2013-06-02T09:52:02Z</time>
      </trkpt>
      <trkpt lat="59.9364189" lon="17.8693009">
        <ele>20.8057</ele>
        <time>2013-06-02T09:52:03Z</time>
      </trkpt>
      <trkpt lat="59.9364752" lon="17.8693582">
        <ele>20.325</ele>
        <time>2013-06-02T09:52:04Z</time>
      </trkpt>
      <trkpt lat="59.9365321" lon="17.869414">
        <ele>19.8444</ele>
        <time>2013-06-02T09:52:05Z</time>
      </trkpt>
      <trkpt lat="59.9365897" lon="17.8694748">
        <ele>18.8831</ele>
        <time>2013-06-02T09:52:06Z</time>
      </trkpt>
      <trkpt lat="59.9366466" lon="17.8695331">
        <ele>17.4412</ele>
        <time>2013-06-02T09:52:07Z</time>
      </trkpt>
      <trkpt lat="59.9367048" lon="17.869594">
        <ele>16.9604</ele>
        <time>2013-06-02T09:52:08Z</time>
      </trkpt>
      <trkpt lat="59.9367608" lon="17.8696438">
        <ele>16.4797</ele>
        <time>2013-06-02T09:52:09Z</time>
      </trkpt>
      <trkpt lat="59.9368114" lon="17.8696867">
        <ele>15.999</ele>
        <time>2013-06-02T09:52:10Z</time>
      </trkpt>
      <trkpt lat="59.9368566" lon="17.8697315">
        <ele>15.0377</ele>
        <time>2013-06-02T09:52:11Z</time>
      </trkpt>
      <trkpt lat="59.9369033" lon="17.8697903">
        <ele>14.557</ele>
        <time>2013-06-02T09:52:12Z</time>
      </trkpt>
      <trkpt lat="59.9369546" lon="17.8698544">
        <ele>15.0377</ele>
        <time>2013-06-02T09:52:13Z</time>
      </trkpt>
      <trkpt lat="59.9370058" lon="17.869919">
        <ele>14.557</ele>
        <time>2013-06-02T09:52:14Z</time>
      </trkpt>
      <trkpt lat="59.9370584" lon="17.8699788">
        <ele>14.557</ele>
        <time>2013-06-02T09:52:15Z</time>
      </trkpt>
      <trkpt lat="59.9371165" lon="17.8700492">
        <ele>15.0377</ele>
        <time>2013-06-02T09:52:16Z</time>
      </trkpt>
      <trkpt lat="59.937173" lon="17.8701296">
        <ele>15.5184</ele>
        <time>2013-06-02T09:52:17Z</time>
      </trkpt>
      <trkpt lat="59.9372201" lon="17.8702242">
        <ele>15.5184</ele>
        <time>2013-06-02T09:52:18Z</time>
      </trkpt>
      <trkpt lat="59.9372658" lon="17.8703201">
        <ele>15.0377</ele>
        <time>2013-06-02T09:52:19Z</time>
      </trkpt>
      <trkpt lat="59.9373125" lon="17.8704221">
        <ele>15.999</ele>
        <time>2013-06-02T09:52:20Z</time>
      </trkpt>
      <trkpt lat="59.9373554" lon="17.8705228">
        <ele>16.4797</ele>
        <time>2013-06-02T09:52:21Z</time>
      </trkpt>
      <trkpt lat="59.9373942" lon="17.8706304">
        <ele>16.9604</ele>
        <time>2013-06-02T09:52:22Z</time>
      </trkpt>
      <trkpt lat="59.9374336" lon="17.8707279">
        <ele>16.9604</ele>
        <time>2013-06-02T09:52:23Z</time>
      </trkpt>
      <trkpt lat="59.9374673" lon="17.8708259">
        <ele>16.4797</ele>
        <time>2013-06-02T09:52:24Z</time>
      </trkpt>
      <trkpt lat="59.9375019" lon="17.8709289">
        <ele>18.4023</ele>
        <time>2013-06-02T09:52:25Z</time>
      </trkpt>
      <trkpt lat="59.937534" lon="17.871025">
        <ele>19.8444</ele>
        <time>2013-06-02T09:52:26Z</time>
      </trkpt>
      <trkpt lat="59.9375684" lon="17.8711172">
        <ele>21.2864</ele>
        <time>2013-06-02T09:52:27Z</time>
      </trkpt>
      <trkpt lat="59.9376072" lon="17.8712086">
        <ele>23.209</ele>
        <time>2013-06-02T09:52:28Z</time>
      </trkpt>
      <trkpt lat="59.9376444" lon="17.8712884">
        <ele>23.209</ele>
        <time>2013-06-02T09:52:29Z</time>
      </trkpt>
      <trkpt lat="59.9376827" lon="17.8713759">
        <ele>23.209</ele>
        <time>2013-06-02T09:52:30Z</time>
      </trkpt>
      <trkpt lat="59.9377294" lon="17.8714551">
        <ele>23.209</ele>
        <time>2013-06-02T09:52:31Z</time>
      </trkpt>
      <trkpt lat="59.9377817" lon="17.8715299">
        <ele>23.209</ele>
        <time>2013-06-02T09:52:32Z</time>
      </trkpt>
      <trkpt lat="59.9378387" lon="17.8715996">
        <ele>23.6896</ele>
        <time>2013-06-02T09:52:33Z</time>
      </trkpt>
      <trkpt lat="59.9378973" lon="17.8716633">
        <ele>23.6896</ele>
        <time>2013-06-02T09:52:34Z</time>
      </trkpt>
      <trkpt lat="59.9379535" lon="17.8717254">
        <ele>22.7283</ele>
        <time>2013-06-02T09:52:35Z</time>
      </trkpt>
      <trkpt lat="59.9380204" lon="17.8717893">
        <ele>21.767</ele>
        <time>2013-06-02T09:52:36Z</time>
      </trkpt>
      <trkpt lat="59.9380755" lon="17.8718452">
        <ele>18.8831</ele>
        <time>2013-06-02T09:52:37Z</time>
      </trkpt>
      <trkpt lat="59.9381291" lon="17.8719013">
        <ele>15.5184</ele>
        <time>2013-06-02T09:52:38Z</time>
      </trkpt>
      <trkpt lat="59.9381877" lon="17.8719587">
        <ele>13.5958</ele>
        <time>2013-06-02T09:52:39Z</time>
      </trkpt>
      <trkpt lat="59.9382443" lon="17.8720131">
        <ele>13.1151</ele>
        <time>2013-06-02T09:52:40Z</time>
      </trkpt>
      <trkpt lat="59.9382972" lon="17.8720664">
        <ele>11.6732</ele>
        <time>2013-06-02T09:52:41Z</time>
      </trkpt>
      <trkpt lat="59.9383629" lon="17.8721286">
        <ele>12.1538</ele>
        <time>2013-06-02T09:52:42Z</time>
      </trkpt>
      <trkpt lat="59.9384257" lon="17.8721893">
        <ele>12.6344</ele>
        <time>2013-06-02T09:52:43Z</time>
      </trkpt>
      <trkpt lat="59.9384816" lon="17.8722442">
        <ele>12.1538</ele>
        <time>2013-06-02T09:52:44Z</time>
      </trkpt>
      <trkpt lat="59.9385353" lon="17.8722887">
        <ele>10.7118</ele>
        <time>2013-06-02T09:52:45Z</time>
      </trkpt>
      <trkpt lat="59.9385928" lon="17.8723289">
        <ele>9.75061</ele>
        <time>2013-06-02T09:52:46Z</time>
      </trkpt>
      <trkpt lat="59.9386568" lon="17.8723716">
        <ele>11.1925</ele>
        <time>2013-06-02T09:52:47Z</time>
      </trkpt>
      <trkpt lat="59.9387125" lon="17.8724108">
        <ele>10.2312</ele>
        <time>2013-06-02T09:52:48Z</time>
      </trkpt>
      <trkpt lat="59.9387655" lon="17.8724481">
        <ele>9.2699</ele>
        <time>2013-06-02T09:52:49Z</time>
      </trkpt>
      <trkpt lat="59.9388127" lon="17.8724829">
        <ele>6.86646</ele>
        <time>2013-06-02T09:52:50Z</time>
      </trkpt>
      <trkpt lat="59.9388623" lon="17.8725146">
        <ele>4.46326</ele>
        <time>2013-06-02T09:52:51Z</time>
      </trkpt>
      <trkpt lat="59.9389151" lon="17.87254">
        <ele>2.54065</ele>
        <time>2013-06-02T09:52:52Z</time>
      </trkpt>
      <trkpt lat="59.9389707" lon="17.8725637">
        <ele>2.54065</ele>
        <time>2013-06-02T09:52:53Z</time>
      </trkpt>
      <trkpt lat="59.9390258" lon="17.8725883">
        <ele>2.54065</ele>
        <time>2013-06-02T09:52:54Z</time>
      </trkpt>
      <trkpt lat="59.9390814" lon="17.8726103">
        <ele>2.54065</ele>
        <time>2013-06-02T09:52:55Z</time>
      </trkpt>
      <trkpt lat="59.9391393" lon="17.8726344">
        <ele>3.02124</ele>
        <time>2013-06-02T09:52:56Z</time>
      </trkpt>
      <trkpt lat="59.9391973" lon="17.8726669">
        <ele>4.46326</ele>
        <time>2013-06-02T09:52:57Z</time>
      </trkpt>
      <trkpt lat="59.9392528" lon="17.8727046">
        <ele>4.46326</ele>
        <time>2013-06-02T09:52:58Z</time>
      </trkpt>
      <trkpt lat="59.9393058" lon="17.8727553">
        <ele>4.94385</ele>
        <time>2013-06-02T09:52:59Z</time>
      </trkpt>
      <trkpt lat="59.9393538" lon="17.8728142">
        <ele>4.94385</ele>
        <time>2013-06-02T09:53:00Z</time>
      </trkpt>
      <trkpt lat="59.9394" lon="17.8728812">
        <ele>5.42456</ele>
        <time>2013-06-02T09:53:01Z</time>
      </trkpt>
      <trkpt lat="59.9394506" lon="17.8729548">
        <ele>6.86646</ele>
        <time>2013-06-02T09:53:02Z</time>
      </trkpt>
      <trkpt lat="59.9394972" lon="17.8730278">
        <ele>6.38586</ele>
        <time>2013-06-02T09:53:03Z</time>
      </trkpt>
      <trkpt lat="59.93955" lon="17.873116">
        <ele>9.2699</ele>
        <time>2013-06-02T09:53:04Z</time>
      </trkpt>
      <trkpt lat="59.9395978" lon="17.8731955">
        <ele>9.2699</ele>
        <time>2013-06-02T09:53:05Z</time>
      </trkpt>
      <trkpt lat="59.9396469" lon="17.8732779">
        <ele>10.2312</ele>
        <time>2013-06-02T09:53:06Z</time>
      </trkpt>
      <trkpt lat="59.939699" lon="17.8733588">
        <ele>11.1925</ele>
        <time>2013-06-02T09:53:07Z</time>
      </trkpt>
      <trkpt lat="59.9397527" lon="17.8734439">
        <ele>12.6344</ele>
        <time>2013-06-02T09:53:08Z</time>
      </trkpt>
      <trkpt lat="59.9398066" lon="17.8735375">
        <ele>15.0377</ele>
        <time>2013-06-02T09:53:09Z</time>
      </trkpt>
      <trkpt lat="59.9398598" lon="17.8736275">
        <ele>16.9604</ele>
        <time>2013-06-02T09:53:10Z</time>
      </trkpt>
      <trkpt lat="59.9399118" lon="17.8737133">
        <ele>18.4023</ele>
        <time>2013-06-02T09:53:11Z</time>
      </trkpt>
      <trkpt lat="59.9399635" lon="17.8737941">
        <ele>19.3638</ele>
        <time>2013-06-02T09:53:12Z</time>
      </trkpt>
      <trkpt lat="59.9400129" lon="17.8738756">
        <ele>19.3638</ele>
        <time>2013-06-02T09:53:13Z</time>
      </trkpt>
      <trkpt lat="59.9400636" lon="17.873956">
        <ele>20.325</ele>
        <time>2013-06-02T09:53:14Z</time>
      </trkpt>
      <trkpt lat="59.9401133" lon="17.8740344">
        <ele>19.8444</ele>
        <time>2013-06-02T09:53:15Z</time>
      </trkpt>
      <trkpt lat="59.9401644" lon="17.8741111">
        <ele>20.325</ele>
        <time>2013-06-02T09:53:16Z</time>
      </trkpt>
      <trkpt lat="59.9402134" lon="17.8741833">
        <ele>19.8444</ele>
        <time>2013-06-02T09:53:17Z</time>
      </trkpt>
      <trkpt lat="59.9402614" lon="17.8742525">
        <ele>19.3638</ele>
        <time>2013-06-02T09:53:18Z</time>
      </trkpt>
      <trkpt lat="59.9403106" lon="17.8743247">
        <ele>19.3638</ele>
        <time>2013-06-02T09:53:19Z</time>
      </trkpt>
      <trkpt lat="59.9403599" lon="17.8743908">
        <ele>19.3638</ele>
        <time>2013-06-02T09:53:20Z</time>
      </trkpt>
      <trkpt lat="59.9404101" lon="17.8744511">
        <ele>19.3638</ele>
        <time>2013-06-02T09:53:21Z</time>
      </trkpt>
      <trkpt lat="59.9404624" lon="17.8745133">
        <ele>19.3638</ele>
        <time>2013-06-02T09:53:22Z</time>
      </trkpt>
      <trkpt lat="59.9405237" lon="17.8745724">
        <ele>20.325</ele>
        <time>2013-06-02T09:53:23Z</time>
      </trkpt>
      <trkpt lat="59.9405791" lon="17.8746299">
        <ele>20.325</ele>
        <time>2013-06-02T09:53:24Z</time>
      </trkpt>
      <trkpt lat="59.940638" lon="17.8746865">
        <ele>21.2864</ele>
        <time>2013-06-02T09:53:25Z</time>
      </trkpt>
      <trkpt lat="59.9406913" lon="17.8747321">
        <ele>20.325</ele>
        <time>2013-06-02T09:53:26Z</time>
      </trkpt>
      <trkpt lat="59.9407415" lon="17.8747746">
        <ele>18.4023</ele>
        <time>2013-06-02T09:53:27Z</time>
      </trkpt>
      <trkpt lat="59.9407933" lon="17.8748254">
        <ele>18.4023</ele>
        <time>2013-06-02T09:53:28Z</time>
      </trkpt>
      <trkpt lat="59.9408442" lon="17.8748823">
        <ele>19.3638</ele>
        <time>2013-06-02T09:53:29Z</time>
      </trkpt>
      <trkpt lat="59.9409025" lon="17.8749336">
        <ele>21.2864</ele>
        <time>2013-06-02T09:53:30Z</time>
      </trkpt>
      <trkpt lat="59.9409715" lon="17.874975">
        <ele>23.209</ele>
        <time>2013-06-02T09:53:31Z</time>
      </trkpt>
      <trkpt lat="59.9410322" lon="17.8750134">
        <ele>23.209</ele>
        <time>2013-06-02T09:53:32Z</time>
      </trkpt>
      <trkpt lat="59.9410901" lon="17.8750485">
        <ele>24.1703</ele>
        <time>2013-06-02T09:53:33Z</time>
      </trkpt>
      <trkpt lat="59.9411468" lon="17.8750823">
        <ele>25.6123</ele>
        <time>2013-06-02T09:53:34Z</time>
      </trkpt>
      <trkpt lat="59.9412005" lon="17.8751118">
        <ele>26.5736</ele>
        <time>2013-06-02T09:53:35Z</time>
      </trkpt>
      <trkpt lat="59.9412525" lon="17.8751412">
        <ele>27.0543</ele>
        <time>2013-06-02T09:53:36Z</time>
      </trkpt>
      <trkpt lat="59.941305" lon="17.8751615">
        <ele>27.5349</ele>
        <time>2013-06-02T09:53:37Z</time>
      </trkpt>
      <trkpt lat="59.9413633" lon="17.8751817">
        <ele>28.0155</ele>
        <time>2013-06-02T09:53:38Z</time>
      </trkpt>
      <trkpt lat="59.9414223" lon="17.8752014">
        <ele>28.0155</ele>
        <time>2013-06-02T09:53:39Z</time>
      </trkpt>
      <trkpt lat="59.9414808" lon="17.8752212">
        <ele>27.0543</ele>
        <time>2013-06-02T09:53:40Z</time>
      </trkpt>
      <trkpt lat="59.9415443" lon="17.8752336">
        <ele>27.0543</ele>
        <time>2013-06-02T09:53:41Z</time>
      </trkpt>
      <trkpt lat="59.9416098" lon="17.8752439">
        <ele>28.0155</ele>
        <time>2013-06-02T09:53:42Z</time>
      </trkpt>
      <trkpt lat="59.9416723" lon="17.8752562">
        <ele>28.4962</ele>
        <time>2013-06-02T09:53:43Z</time>
      </trkpt>
      <trkpt lat="59.941733" lon="17.8752718">
        <ele>28.4962</ele>
        <time>2013-06-02T09:53:44Z</time>
      </trkpt>
      <trkpt lat="59.9417917" lon="17.8753017">
        <ele>29.4575</ele>
        <time>2013-06-02T09:53:45Z</time>
      </trkpt>
      <trkpt lat="59.9418476" lon="17.8753387">
        <ele>29.9381</ele>
        <time>2013-06-02T09:53:46Z</time>
      </trkpt>
      <trkpt lat="59.9419071" lon="17.8753742">
        <ele>29.9381</ele>
        <time>2013-06-02T09:53:47Z</time>
      </trkpt>
      <trkpt lat="59.9419688" lon="17.8754094">
        <ele>29.9381</ele>
        <time>2013-06-02T09:53:48Z</time>
      </trkpt>
      <trkpt lat="59.9420311" lon="17.8754483">
        <ele>29.9381</ele>
        <time>2013-06-02T09:53:49Z</time>
      </trkpt>
      <trkpt lat="59.9420878" lon="17.8754791">
        <ele>26.5736</ele>
        <time>2013-06-02T09:53:50Z</time>
      </trkpt>
      <trkpt lat="59.9421435" lon="17.8755209">
        <ele>25.1317</ele>
        <time>2013-06-02T09:53:51Z</time>
      </trkpt>
      <trkpt lat="59.9421976" lon="17.8755774">
        <ele>24.651</ele>
        <time>2013-06-02T09:53:52Z</time>
      </trkpt>
      <trkpt lat="59.9422505" lon="17.8756381">
        <ele>24.651</ele>
        <time>2013-06-02T09:53:53Z</time>
      </trkpt>
      <trkpt lat="59.9423029" lon="17.8756959">
        <ele>24.1703</ele>
        <time>2013-06-02T09:53:54Z</time>
      </trkpt>
      <trkpt lat="59.9423543" lon="17.8757567">
        <ele>23.209</ele>
        <time>2013-06-02T09:53:55Z</time>
      </trkpt>
      <trkpt lat="59.9424068" lon="17.8758192">
        <ele>22.7283</ele>
        <time>2013-06-02T09:53:56Z</time>
      </trkpt>
      <trkpt lat="59.9424619" lon="17.8758865">
        <ele>22.7283</ele>
        <time>2013-06-02T09:53:57Z</time>
      </trkpt>
      <trkpt lat="59.9425163" lon="17.8759539">
        <ele>22.7283</ele>
        <time>2013-06-02T09:53:58Z</time>
      </trkpt>
      <trkpt lat="59.9425706" lon="17.8760193">
        <ele>22.2476</ele>
        <time>2013-06-02T09:53:59Z</time>
      </trkpt>
      <trkpt lat="59.9426239" lon="17.8760852">
        <ele>21.767</ele>
        <time>2013-06-02T09:54:00Z</time>
      </trkpt>
      <trkpt lat="59.9426769" lon="17.876152">
        <ele>21.767</ele>
        <time>2013-06-02T09:54:01Z</time>
      </trkpt>
      <trkpt lat="59.9427288" lon="17.8762172">
        <ele>21.2864</ele>
        <time>2013-06-02T09:54:02Z</time>
      </trkpt>
      <trkpt lat="59.9427799" lon="17.876285">
        <ele>20.8057</ele>
        <time>2013-06-02T09:54:03Z</time>
      </trkpt>
      <trkpt lat="59.9428306" lon="17.8763553">
        <ele>19.8444</ele>
        <time>2013-06-02T09:54:04Z</time>
      </trkpt>
      <trkpt lat="59.9428862" lon="17.8764307">
        <ele>21.2864</ele>
        <time>2013-06-02T09:54:05Z</time>
      </trkpt>
      <trkpt lat="59.9429407" lon="17.8764984">
        <ele>21.2864</ele>
        <time>2013-06-02T09:54:06Z</time>
      </trkpt>
      <trkpt lat="59.9429941" lon="17.8765632">
        <ele>21.2864</ele>
        <time>2013-06-02T09:54:07Z</time>
      </trkpt>
      <trkpt lat="59.9430467" lon="17.8766224">
        <ele>20.8057</ele>
        <time>2013-06-02T09:54:08Z</time>
      </trkpt>
      <trkpt lat="59.9431095" lon="17.876684">
        <ele>21.767</ele>
        <time>2013-06-02T09:54:09Z</time>
      </trkpt>
      <trkpt lat="59.9431639" lon="17.8767539">
        <ele>21.767</ele>
        <time>2013-06-02T09:54:10Z</time>
      </trkpt>
      <trkpt lat="59.9432132" lon="17.8768298">
        <ele>22.2476</ele>
        <time>2013-06-02T09:54:11Z</time>
      </trkpt>
      <trkpt lat="59.9432664" lon="17.876897">
        <ele>21.767</ele>
        <time>2013-06-02T09:54:12Z</time>
      </trkpt>
      <trkpt lat="59.943326" lon="17.8769653">
        <ele>22.7283</ele>
        <time>2013-06-02T09:54:13Z</time>
      </trkpt>
      <trkpt lat="59.943372" lon="17.8770401">
        <ele>22.7283</ele>
        <time>2013-06-02T09:54:14Z</time>
      </trkpt>
      <trkpt lat="59.9434185" lon="17.8771144">
        <ele>22.7283</ele>
        <time>2013-06-02T09:54:15Z</time>
      </trkpt>
      <trkpt lat="59.9434711" lon="17.8771872">
        <ele>23.209</ele>
        <time>2013-06-02T09:54:16Z</time>
      </trkpt>
      <trkpt lat="59.9435218" lon="17.877261">
        <ele>23.6896</ele>
        <time>2013-06-02T09:54:17Z</time>
      </trkpt>
      <trkpt lat="59.9435726" lon="17.8773325">
        <ele>24.1703</ele>
        <time>2013-06-02T09:54:18Z</time>
      </trkpt>
      <trkpt lat="59.9436222" lon="17.8773998">
        <ele>23.6896</ele>
        <time>2013-06-02T09:54:19Z</time>
      </trkpt>
      <trkpt lat="59.9436819" lon="17.8774662">
        <ele>24.651</ele>
        <time>2013-06-02T09:54:20Z</time>
      </trkpt>
      <trkpt lat="59.9437351" lon="17.8775296">
        <ele>25.1317</ele>
        <time>2013-06-02T09:54:21Z</time>
      </trkpt>
      <trkpt lat="59.9437851" lon="17.877593">
        <ele>25.1317</ele>
        <time>2013-06-02T09:54:22Z</time>
      </trkpt>
      <trkpt lat="59.9438373" lon="17.8776532">
        <ele>25.6123</ele>
        <time>2013-06-02T09:54:23Z</time>
      </trkpt>
      <trkpt lat="59.9438901" lon="17.8777043">
        <ele>25.6123</ele>
        <time>2013-06-02T09:54:24Z</time>
      </trkpt>
      <trkpt lat="59.9439439" lon="17.8777486">
        <ele>25.6123</ele>
        <time>2013-06-02T09:54:25Z</time>
      </trkpt>
      <trkpt lat="59.9440008" lon="17.8777863">
        <ele>25.1317</ele>
        <time>2013-06-02T09:54:26Z</time>
      </trkpt>
      <trkpt lat="59.9440574" lon="17.8778304">
        <ele>24.651</ele>
        <time>2013-06-02T09:54:27Z</time>
      </trkpt>
      <trkpt lat="59.9441214" lon="17.8778686">
        <ele>24.651</ele>
        <time>2013-06-02T09:54:28Z</time>
      </trkpt>
      <trkpt lat="59.9441852" lon="17.8779028">
        <ele>24.651</ele>
        <time>2013-06-02T09:54:29Z</time>
      </trkpt>
      <trkpt lat="59.9442494" lon="17.877936">
        <ele>24.651</ele>
        <time>2013-06-02T09:54:30Z</time>
      </trkpt>
      <trkpt lat="59.9443155" lon="17.877969">
        <ele>24.1703</ele>
        <time>2013-06-02T09:54:31Z</time>
      </trkpt>
      <trkpt lat="59.9443854" lon="17.8780007">
        <ele>25.6123</ele>
        <time>2013-06-02T09:54:32Z</time>
      </trkpt>
      <trkpt lat="59.944455" lon="17.8780337">
        <ele>27.0543</ele>
        <time>2013-06-02T09:54:33Z</time>
      </trkpt>
      <trkpt lat="59.9445251" lon="17.8780665">
        <ele>28.4962</ele>
        <time>2013-06-02T09:54:34Z</time>
      </trkpt>
      <trkpt lat="59.9445946" lon="17.8781016">
        <ele>29.4575</ele>
        <time>2013-06-02T09:54:35Z</time>
      </trkpt>
      <trkpt lat="59.9446595" lon="17.8781279">
        <ele>28.0155</ele>
        <time>2013-06-02T09:54:36Z</time>
      </trkpt>
      <trkpt lat="59.9447268" lon="17.8781533">
        <ele>27.0543</ele>
        <time>2013-06-02T09:54:37Z</time>
      </trkpt>
      <trkpt lat="59.9447938" lon="17.8781775">
        <ele>25.6123</ele>
        <time>2013-06-02T09:54:38Z</time>
      </trkpt>
      <trkpt lat="59.9448648" lon="17.8782111">
        <ele>27.0543</ele>
        <time>2013-06-02T09:54:39Z</time>
      </trkpt>
      <trkpt lat="59.9449356" lon="17.8782461">
        <ele>28.0155</ele>
        <time>2013-06-02T09:54:40Z</time>
      </trkpt>
      <trkpt lat="59.9450065" lon="17.8782806">
        <ele>29.4575</ele>
        <time>2013-06-02T09:54:41Z</time>
      </trkpt>
      <trkpt lat="59.9450761" lon="17.8783158">
        <ele>30.4188</ele>
        <time>2013-06-02T09:54:42Z</time>
      </trkpt>
      <trkpt lat="59.9451448" lon="17.878351">
        <ele>31.3801</ele>
        <time>2013-06-02T09:54:43Z</time>
      </trkpt>
      <trkpt lat="59.9452127" lon="17.8783845">
        <ele>32.3416</ele>
        <time>2013-06-02T09:54:44Z</time>
      </trkpt>
      <trkpt lat="59.9452802" lon="17.8784162">
        <ele>33.3029</ele>
        <time>2013-06-02T09:54:45Z</time>
      </trkpt>
      <trkpt lat="59.9453466" lon="17.8784476">
        <ele>34.7449</ele>
        <time>2013-06-02T09:54:46Z</time>
      </trkpt>
      <trkpt lat="59.945411" lon="17.8784783">
        <ele>35.7061</ele>
        <time>2013-06-02T09:54:47Z</time>
      </trkpt>
      <trkpt lat="59.9454745" lon="17.8785076">
        <ele>36.6675</ele>
        <time>2013-06-02T09:54:48Z</time>
      </trkpt>
      <trkpt lat="59.9455365" lon="17.8785359">
        <ele>37.6287</ele>
        <time>2013-06-02T09:54:49Z</time>
      </trkpt>
      <trkpt lat="59.9455983" lon="17.8785633">
        <ele>38.1094</ele>
        <time>2013-06-02T09:54:50Z</time>
      </trkpt>
      <trkpt lat="59.9456594" lon="17.8785912">
        <ele>39.0707</ele>
        <time>2013-06-02T09:54:51Z</time>
      </trkpt>
      <trkpt lat="59.9457201" lon="17.878619">
        <ele>39.5513</ele>
        <time>2013-06-02T09:54:52Z</time>
      </trkpt>
      <trkpt lat="59.9457801" lon="17.8786444">
        <ele>40.5128</ele>
        <time>2013-06-02T09:54:53Z</time>
      </trkpt>
      <trkpt lat="59.9458399" lon="17.8786716">
        <ele>40.9934</ele>
        <time>2013-06-02T09:54:54Z</time>
      </trkpt>
      <trkpt lat="59.9458993" lon="17.878702">
        <ele>41.9547</ele>
        <time>2013-06-02T09:54:55Z</time>
      </trkpt>
      <trkpt lat="59.9459578" lon="17.878731">
        <ele>42.4354</ele>
        <time>2013-06-02T09:54:56Z</time>
      </trkpt>
      <trkpt lat="59.946016" lon="17.8787575">
        <ele>42.916</ele>
        <time>2013-06-02T09:54:57Z</time>
      </trkpt>
      <trkpt lat="59.9460745" lon="17.8787845">
        <ele>43.3966</ele>
        <time>2013-06-02T09:54:58Z</time>
      </trkpt>
      <trkpt lat="59.946133" lon="17.8788089">
        <ele>43.8773</ele>
        <time>2013-06-02T09:54:59Z</time>
      </trkpt>
      <trkpt lat="59.9461905" lon="17.8788312">
        <ele>44.358</ele>
        <time>2013-06-02T09:55:00Z</time>
      </trkpt>
      <trkpt lat="59.946247" lon="17.878858">
        <ele>44.8386</ele>
        <time>2013-06-02T09:55:01Z</time>
      </trkpt>
      <trkpt lat="59.9463029" lon="17.8788889">
        <ele>44.8386</ele>
        <time>2013-06-02T09:55:02Z</time>
      </trkpt>
      <trkpt lat="59.9463583" lon="17.8789189">
        <ele>45.3192</ele>
        <time>2013-06-02T09:55:03Z</time>
      </trkpt>
      <trkpt lat="59.9464129" lon="17.8789477">
        <ele>45.7999</ele>
        <time>2013-06-02T09:55:04Z</time>
      </trkpt>
      <trkpt lat="59.9464668" lon="17.8789787">
        <ele>45.7999</ele>
        <time>2013-06-02T09:55:05Z</time>
      </trkpt>
      <trkpt lat="59.946522" lon="17.8790076">
        <ele>46.2806</ele>
        <time>2013-06-02T09:55:06Z</time>
      </trkpt>
      <trkpt lat="59.9465777" lon="17.8790334">
        <ele>46.7612</ele>
        <time>2013-06-02T09:55:07Z</time>
      </trkpt>
      <trkpt lat="59.9466339" lon="17.8790641">
        <ele>46.7612</ele>
        <time>2013-06-02T09:55:08Z</time>
      </trkpt>
      <trkpt lat="59.9466897" lon="17.879102">
        <ele>47.2418</ele>
        <time>2013-06-02T09:55:09Z</time>
      </trkpt>
      <trkpt lat="59.9467457" lon="17.8791413">
        <ele>47.2418</ele>
        <time>2013-06-02T09:55:10Z</time>
      </trkpt>
      <trkpt lat="59.9468024" lon="17.8791755">
        <ele>47.2418</ele>
        <time>2013-06-02T09:55:11Z</time>
      </trkpt>
      <trkpt lat="59.9468587" lon="17.8792087">
        <ele>47.2418</ele>
        <time>2013-06-02T09:55:12Z</time>
      </trkpt>
      <trkpt lat="59.9469168" lon="17.8792461">
        <ele>47.7225</ele>
        <time>2013-06-02T09:55:13Z</time>
      </trkpt>
      <trkpt lat="59.9469752" lon="17.8792828">
        <ele>47.7225</ele>
        <time>2013-06-02T09:55:14Z</time>
      </trkpt>
      <trkpt lat="59.9470316" lon="17.8793116">
        <ele>46.7612</ele>
        <time>2013-06-02T09:55:15Z</time>
      </trkpt>
      <trkpt lat="59.947091" lon="17.8793389">
        <ele>46.2806</ele>
        <time>2013-06-02T09:55:16Z</time>
      </trkpt>
      <trkpt lat="59.9471511" lon="17.8793694">
        <ele>45.7999</ele>
        <time>2013-06-02T09:55:17Z</time>
      </trkpt>
      <trkpt lat="59.9472095" lon="17.8794036">
        <ele>45.3192</ele>
        <time>2013-06-02T09:55:18Z</time>
      </trkpt>
      <trkpt lat="59.9472675" lon="17.8794366">
        <ele>44.8386</ele>
        <time>2013-06-02T09:55:19Z</time>
      </trkpt>
      <trkpt lat="59.9473307" lon="17.8794605">
        <ele>44.8386</ele>
        <time>2013-06-02T09:55:20Z</time>
      </trkpt>
      <trkpt lat="59.9473951" lon="17.8794802">
        <ele>45.3192</ele>
        <time>2013-06-02T09:55:21Z</time>
      </trkpt>
      <trkpt lat="59.9474514" lon="17.8794948">
        <ele>43.8773</ele>
        <time>2013-06-02T09:55:22Z</time>
      </trkpt>
      <trkpt lat="59.947511" lon="17.8795041">
        <ele>42.916</ele>
        <time>2013-06-02T09:55:23Z</time>
      </trkpt>
      <trkpt lat="59.9475701" lon="17.8795163">
        <ele>42.4354</ele>
        <time>2013-06-02T09:55:24Z</time>
      </trkpt>
      <trkpt lat="59.947626" lon="17.8795214">
        <ele>40.0321</ele>
        <time>2013-06-02T09:55:25Z</time>
      </trkpt>
      <trkpt lat="59.947685" lon="17.8795292">
        <ele>38.5901</ele>
        <time>2013-06-02T09:55:26Z</time>
      </trkpt>
      <trkpt lat="59.9477379" lon="17.8795325">
        <ele>34.2642</ele>
        <time>2013-06-02T09:55:27Z</time>
      </trkpt>
      <trkpt lat="59.9477928" lon="17.8795367">
        <ele>30.8995</ele>
        <time>2013-06-02T09:55:28Z</time>
      </trkpt>
      <trkpt lat="59.9478486" lon="17.8795403">
        <ele>28.0155</ele>
        <time>2013-06-02T09:55:29Z</time>
      </trkpt>
      <trkpt lat="59.9479051" lon="17.8795454">
        <ele>25.1317</ele>
        <time>2013-06-02T09:55:30Z</time>
      </trkpt>
      <trkpt lat="59.9479679" lon="17.8795585">
        <ele>25.1317</ele>
        <time>2013-06-02T09:55:31Z</time>
      </trkpt>
      <trkpt lat="59.9480294" lon="17.8795728">
        <ele>24.651</ele>
        <time>2013-06-02T09:55:32Z</time>
      </trkpt>
      <trkpt lat="59.9480918" lon="17.8795884">
        <ele>25.1317</ele>
        <time>2013-06-02T09:55:33Z</time>
      </trkpt>
      <trkpt lat="59.9481554" lon="17.8796039">
        <ele>25.1317</ele>
        <time>2013-06-02T09:55:34Z</time>
      </trkpt>
      <trkpt lat="59.9482196" lon="17.8796231">
        <ele>25.1317</ele>
        <time>2013-06-02T09:55:35Z</time>
      </trkpt>
      <trkpt lat="59.9482806" lon="17.8796464">
        <ele>25.1317</ele>
        <time>2013-06-02T09:55:36Z</time>
      </trkpt>
      <trkpt lat="59.9483434" lon="17.8796748">
        <ele>25.1317</ele>
        <time>2013-06-02T09:55:37Z</time>
      </trkpt>
      <trkpt lat="59.9484055" lon="17.879706">
        <ele>25.1317</ele>
        <time>2013-06-02T09:55:38Z</time>
      </trkpt>
      <trkpt lat="59.948467" lon="17.8797381">
        <ele>25.1317</ele>
        <time>2013-06-02T09:55:39Z</time>
      </trkpt>
      <trkpt lat="59.948528" lon="17.8797714">
        <ele>25.1317</ele>
        <time>2013-06-02T09:55:40Z</time>
      </trkpt>
      <trkpt lat="59.9485857" lon="17.8798058">
        <ele>24.651</ele>
        <time>2013-06-02T09:55:41Z</time>
      </trkpt>
      <trkpt lat="59.948644" lon="17.8798429">
        <ele>24.651</ele>
        <time>2013-06-02T09:55:42Z</time>
      </trkpt>
      <trkpt lat="59.9487019" lon="17.8798827">
        <ele>23.6896</ele>
        <time>2013-06-02T09:55:43Z</time>
      </trkpt>
      <trkpt lat="59.9487598" lon="17.8799225">
        <ele>23.209</ele>
        <time>2013-06-02T09:55:44Z</time>
      </trkpt>
      <trkpt lat="59.9488175" lon="17.8799651">
        <ele>22.2476</ele>
        <time>2013-06-02T09:55:45Z</time>
      </trkpt>
      <trkpt lat="59.9488796" lon="17.88001">
        <ele>23.209</ele>
        <time>2013-06-02T09:55:46Z</time>
      </trkpt>
      <trkpt lat="59.9489366" lon="17.8800527">
        <ele>22.7283</ele>
        <time>2013-06-02T09:55:47Z</time>
      </trkpt>
      <trkpt lat="59.9489936" lon="17.8801002">
        <ele>22.7283</ele>
        <time>2013-06-02T09:55:48Z</time>
      </trkpt>
      <trkpt lat="59.9490526" lon="17.8801482">
        <ele>23.6896</ele>
        <time>2013-06-02T09:55:49Z</time>
      </trkpt>
      <trkpt lat="59.9491116" lon="17.8801995">
        <ele>24.651</ele>
        <time>2013-06-02T09:55:50Z</time>
      </trkpt>
      <trkpt lat="59.9491695" lon="17.8802505">
        <ele>25.1317</ele>
        <time>2013-06-02T09:55:51Z</time>
      </trkpt>
      <trkpt lat="59.9492277" lon="17.8803023">
        <ele>25.6123</ele>
        <time>2013-06-02T09:55:52Z</time>
      </trkpt>
      <trkpt lat="59.9492878" lon="17.8803509">
        <ele>26.5736</ele>
        <time>2013-06-02T09:55:53Z</time>
      </trkpt>
      <trkpt lat="59.9493443" lon="17.8803944">
        <ele>26.0929</ele>
        <time>2013-06-02T09:55:54Z</time>
      </trkpt>
      <trkpt lat="59.949408" lon="17.8804405">
        <ele>27.0543</ele>
        <time>2013-06-02T09:55:55Z</time>
      </trkpt>
      <trkpt lat="59.9494639" lon="17.8804787">
        <ele>27.0543</ele>
        <time>2013-06-02T09:55:56Z</time>
      </trkpt>
      <trkpt lat="59.949522" lon="17.880512">
        <ele>26.5736</ele>
        <time>2013-06-02T09:55:57Z</time>
      </trkpt>
      <trkpt lat="59.9495815" lon="17.8805369">
        <ele>26.0929</ele>
        <time>2013-06-02T09:55:58Z</time>
      </trkpt>
      <trkpt lat="59.9496447" lon="17.8805529">
        <ele>26.0929</ele>
        <time>2013-06-02T09:55:59Z</time>
      </trkpt>
      <trkpt lat="59.9497097" lon="17.880559">
        <ele>26.0929</ele>
        <time>2013-06-02T09:56:00Z</time>
      </trkpt>
      <trkpt lat="59.9497757" lon="17.880554">
        <ele>26.0929</ele>
        <time>2013-06-02T09:56:01Z</time>
      </trkpt>
      <trkpt lat="59.9498411" lon="17.8805353">
        <ele>26.0929</ele>
        <time>2013-06-02T09:56:02Z</time>
      </trkpt>
      <trkpt lat="59.9499043" lon="17.8805012">
        <ele>25.6123</ele>
        <time>2013-06-02T09:56:03Z</time>
      </trkpt>
      <trkpt lat="59.9499663" lon="17.8804556">
        <ele>26.5736</ele>
        <time>2013-06-02T09:56:04Z</time>
      </trkpt>
      <trkpt lat="59.9500159" lon="17.8803992">
        <ele>26.0929</ele>
        <time>2013-06-02T09:56:05Z</time>
      </trkpt>
      <trkpt lat="59.950063" lon="17.8803336">
        <ele>25.6123</ele>
        <time>2013-06-02T09:56:06Z</time>
      </trkpt>
      <trkpt lat="59.9501084" lon="17.8802598">
        <ele>25.6123</ele>
        <time>2013-06-02T09:56:07Z</time>
      </trkpt>
      <trkpt lat="59.9501535" lon="17.8801764">
        <ele>25.6123</ele>
        <time>2013-06-02T09:56:08Z</time>
      </trkpt>
      <trkpt lat="59.9501938" lon="17.8800907">
        <ele>25.6123</ele>
        <time>2013-06-02T09:56:09Z</time>
      </trkpt>
      <trkpt lat="59.950231" lon="17.8800054">
        <ele>25.6123</ele>
        <time>2013-06-02T09:56:10Z</time>
      </trkpt>
      <trkpt lat="59.950265" lon="17.879919">
        <ele>25.6123</ele>
        <time>2013-06-02T09:56:11Z</time>
      </trkpt>
      <trkpt lat="59.9502953" lon="17.8798385">
        <ele>25.6123</ele>
        <time>2013-06-02T09:56:12Z</time>
      </trkpt>
      <trkpt lat="59.9503253" lon="17.8797519">
        <ele>24.651</ele>
        <time>2013-06-02T09:56:13Z</time>
      </trkpt>
      <trkpt lat="59.9503536" lon="17.8796605">
        <ele>24.1703</ele>
        <time>2013-06-02T09:56:14Z</time>
      </trkpt>
      <trkpt lat="59.9503845" lon="17.8795644">
        <ele>24.651</ele>
        <time>2013-06-02T09:56:15Z</time>
      </trkpt>
      <trkpt lat="59.9504139" lon="17.879468">
        <ele>24.651</ele>
        <time>2013-06-02T09:56:16Z</time>
      </trkpt>
      <trkpt lat="59.9504451" lon="17.8793756">
        <ele>25.1317</ele>
        <time>2013-06-02T09:56:17Z</time>
      </trkpt>
      <trkpt lat="59.9504762" lon="17.8792845">
        <ele>25.6123</ele>
        <time>2013-06-02T09:56:18Z</time>
      </trkpt>
      <trkpt lat="59.9505051" lon="17.8791927">
        <ele>25.6123</ele>
        <time>2013-06-02T09:56:19Z</time>
      </trkpt>
      <trkpt lat="59.950532" lon="17.8790974">
        <ele>25.1317</ele>
        <time>2013-06-02T09:56:20Z</time>
      </trkpt>
      <trkpt lat="59.9505605" lon="17.8790037">
        <ele>25.1317</ele>
        <time>2013-06-02T09:56:21Z</time>
      </trkpt>
      <trkpt lat="59.950588" lon="17.8789094">
        <ele>25.1317</ele>
        <time>2013-06-02T09:56:22Z</time>
      </trkpt>
      <trkpt lat="59.9506175" lon="17.8788177">
        <ele>24.651</ele>
        <time>2013-06-02T09:56:23Z</time>
      </trkpt>
      <trkpt lat="59.9506501" lon="17.8787299">
        <ele>24.651</ele>
        <time>2013-06-02T09:56:24Z</time>
      </trkpt>
      <trkpt lat="59.9506838" lon="17.8786414">
        <ele>24.1703</ele>
        <time>2013-06-02T09:56:25Z</time>
      </trkpt>
      <trkpt lat="59.9507185" lon="17.8785543">
        <ele>23.6896</ele>
        <time>2013-06-02T09:56:26Z</time>
      </trkpt>
      <trkpt lat="59.9507559" lon="17.8784743">
        <ele>23.6896</ele>
        <time>2013-06-02T09:56:27Z</time>
      </trkpt>
      <trkpt lat="59.9507971" lon="17.878397">
        <ele>23.6896</ele>
        <time>2013-06-02T09:56:28Z</time>
      </trkpt>
      <trkpt lat="59.9508357" lon="17.8783255">
        <ele>23.209</ele>
        <time>2013-06-02T09:56:29Z</time>
      </trkpt>
      <trkpt lat="59.9508787" lon="17.8782597">
        <ele>23.209</ele>
        <time>2013-06-02T09:56:30Z</time>
      </trkpt>
      <trkpt lat="59.9509221" lon="17.8781953">
        <ele>21.2864</ele>
        <time>2013-06-02T09:56:31Z</time>
      </trkpt>
      <trkpt lat="59.9509671" lon="17.8781402">
        <ele>20.325</ele>
        <time>2013-06-02T09:56:32Z</time>
      </trkpt>
      <trkpt lat="59.9510134" lon="17.8780917">
        <ele>19.8444</ele>
        <time>2013-06-02T09:56:33Z</time>
      </trkpt>
      <trkpt lat="59.9510634" lon="17.8780511">
        <ele>18.8831</ele>
        <time>2013-06-02T09:56:34Z</time>
      </trkpt>
      <trkpt lat="59.9511139" lon="17.8780167">
        <ele>18.4023</ele>
        <time>2013-06-02T09:56:35Z</time>
      </trkpt>
      <trkpt lat="59.9511619" lon="17.8779874">
        <ele>17.9218</ele>
        <time>2013-06-02T09:56:36Z</time>
      </trkpt>
      <trkpt lat="59.9512043" lon="17.8779606">
        <ele>17.9218</ele>
        <time>2013-06-02T09:56:37Z</time>
      </trkpt>
      <trkpt lat="59.951241" lon="17.8779318">
        <ele>17.4412</ele>
        <time>2013-06-02T09:56:38Z</time>
      </trkpt>
      <trkpt lat="59.9512727" lon="17.8778987">
        <ele>17.4412</ele>
        <time>2013-06-02T09:56:39Z</time>
      </trkpt>
      <trkpt lat="59.9513007" lon="17.8778639">
        <ele>16.9604</ele>
        <time>2013-06-02T09:56:40Z</time>
      </trkpt>
      <trkpt lat="59.9513218" lon="17.8778297">
        <ele>15.999</ele>
        <time>2013-06-02T09:56:41Z</time>
      </trkpt>
      <trkpt lat="59.9513498" lon="17.8777783">
        <ele>16.4797</ele>
        <time>2013-06-02T09:56:42Z</time>
      </trkpt>
      <trkpt lat="59.9513773" lon="17.8777079">
        <ele>16.4797</ele>
        <time>2013-06-02T09:56:43Z</time>
      </trkpt>
      <trkpt lat="59.9513935" lon="17.8776148">
        <ele>15.5184</ele>
        <time>2013-06-02T09:56:44Z</time>
      </trkpt>
      <trkpt lat="59.9514055" lon="17.8775148">
        <ele>15.999</ele>
        <time>2013-06-02T09:56:45Z</time>
      </trkpt>
      <trkpt lat="59.9514133" lon="17.8774128">
        <ele>15.999</ele>
        <time>2013-06-02T09:56:46Z</time>
      </trkpt>
      <trkpt lat="59.9514167" lon="17.8773092">
        <ele>16.4797</ele>
        <time>2013-06-02T09:56:47Z</time>
      </trkpt>
      <trkpt lat="59.9514158" lon="17.8772033">
        <ele>16.9604</ele>
        <time>2013-06-02T09:56:48Z</time>
      </trkpt>
      <trkpt lat="59.9514132" lon="17.8770946">
        <ele>17.4412</ele>
        <time>2013-06-02T09:56:49Z</time>
      </trkpt>
      <trkpt lat="59.9514112" lon="17.8769854">
        <ele>17.9218</ele>
        <time>2013-06-02T09:56:50Z</time>
      </trkpt>
      <trkpt lat="59.951408" lon="17.8768746">
        <ele>17.9218</ele>
        <time>2013-06-02T09:56:51Z</time>
      </trkpt>
      <trkpt lat="59.9514038" lon="17.8767622">
        <ele>18.4023</ele>
        <time>2013-06-02T09:56:52Z</time>
      </trkpt>
      <trkpt lat="59.9514002" lon="17.8766513">
        <ele>18.4023</ele>
        <time>2013-06-02T09:56:53Z</time>
      </trkpt>
      <trkpt lat="59.9513967" lon="17.876542">
        <ele>19.3638</ele>
        <time>2013-06-02T09:56:54Z</time>
      </trkpt>
      <trkpt lat="59.9513961" lon="17.876431">
        <ele>19.3638</ele>
        <time>2013-06-02T09:56:55Z</time>
      </trkpt>
      <trkpt lat="59.9513987" lon="17.876318">
        <ele>19.3638</ele>
        <time>2013-06-02T09:56:56Z</time>
      </trkpt>
      <trkpt lat="59.9514011" lon="17.8762028">
        <ele>19.8444</ele>
        <time>2013-06-02T09:56:57Z</time>
      </trkpt>
      <trkpt lat="59.9514022" lon="17.8760862">
        <ele>20.325</ele>
        <time>2013-06-02T09:56:58Z</time>
      </trkpt>
      <trkpt lat="59.9514034" lon="17.8759699">
        <ele>20.8057</ele>
        <time>2013-06-02T09:56:59Z</time>
      </trkpt>
      <trkpt lat="59.9514079" lon="17.8758546">
        <ele>21.2864</ele>
        <time>2013-06-02T09:57:00Z</time>
      </trkpt>
      <trkpt lat="59.9514143" lon="17.8757389">
        <ele>21.2864</ele>
        <time>2013-06-02T09:57:01Z</time>
      </trkpt>
      <trkpt lat="59.9514223" lon="17.8756221">
        <ele>22.2476</ele>
        <time>2013-06-02T09:57:02Z</time>
      </trkpt>
      <trkpt lat="59.9514298" lon="17.875504">
        <ele>22.7283</ele>
        <time>2013-06-02T09:57:03Z</time>
      </trkpt>
      <trkpt lat="59.9514364" lon="17.8753852">
        <ele>23.209</ele>
        <time>2013-06-02T09:57:04Z</time>
      </trkpt>
      <trkpt lat="59.951442" lon="17.8752661">
        <ele>23.6896</ele>
        <time>2013-06-02T09:57:05Z</time>
      </trkpt>
      <trkpt lat="59.9514509" lon="17.8751466">
        <ele>24.1703</ele>
        <time>2013-06-02T09:57:06Z</time>
      </trkpt>
      <trkpt lat="59.951458" lon="17.8750216">
        <ele>25.1317</ele>
        <time>2013-06-02T09:57:07Z</time>
      </trkpt>
      <trkpt lat="59.951465" lon="17.8748928">
        <ele>25.6123</ele>
        <time>2013-06-02T09:57:08Z</time>
      </trkpt>
      <trkpt lat="59.9514743" lon="17.8747638">
        <ele>25.1317</ele>
        <time>2013-06-02T09:57:09Z</time>
      </trkpt>
      <trkpt lat="59.9514851" lon="17.8746374">
        <ele>26.0929</ele>
        <time>2013-06-02T09:57:10Z</time>
      </trkpt>
      <trkpt lat="59.9514979" lon="17.8745108">
        <ele>26.5736</ele>
        <time>2013-06-02T09:57:11Z</time>
      </trkpt>
      <trkpt lat="59.9515122" lon="17.8743832">
        <ele>27.0543</ele>
        <time>2013-06-02T09:57:12Z</time>
      </trkpt>
      <trkpt lat="59.9515233" lon="17.8742513">
        <ele>27.0543</ele>
        <time>2013-06-02T09:57:13Z</time>
      </trkpt>
      <trkpt lat="59.9515342" lon="17.8741207">
        <ele>27.5349</ele>
        <time>2013-06-02T09:57:14Z</time>
      </trkpt>
      <trkpt lat="59.9515371" lon="17.8739828">
        <ele>28.0155</ele>
        <time>2013-06-02T09:57:15Z</time>
      </trkpt>
      <trkpt lat="59.9515477" lon="17.8738547">
        <ele>28.4962</ele>
        <time>2013-06-02T09:57:16Z</time>
      </trkpt>
      <trkpt lat="59.9515593" lon="17.8737161">
        <ele>28.4962</ele>
        <time>2013-06-02T09:57:17Z</time>
      </trkpt>
      <trkpt lat="59.9515699" lon="17.8735742">
        <ele>28.4962</ele>
        <time>2013-06-02T09:57:18Z</time>
      </trkpt>
      <trkpt lat="59.9515824" lon="17.873448">
        <ele>28.9769</ele>
        <time>2013-06-02T09:57:19Z</time>
      </trkpt>
      <trkpt lat="59.951595" lon="17.8733199">
        <ele>28.9769</ele>
        <time>2013-06-02T09:57:20Z</time>
      </trkpt>
      <trkpt lat="59.9516052" lon="17.8731815">
        <ele>29.4575</ele>
        <time>2013-06-02T09:57:21Z</time>
      </trkpt>
      <trkpt lat="59.9516171" lon="17.8730445">
        <ele>29.9381</ele>
        <time>2013-06-02T09:57:22Z</time>
      </trkpt>
      <trkpt lat="59.9516322" lon="17.8729158">
        <ele>30.4188</ele>
        <time>2013-06-02T09:57:23Z</time>
      </trkpt>
      <trkpt lat="59.9516467" lon="17.8727852">
        <ele>30.4188</ele>
        <time>2013-06-02T09:57:24Z</time>
      </trkpt>
      <trkpt lat="59.9516598" lon="17.8726538">
        <ele>30.8995</ele>
        <time>2013-06-02T09:57:25Z</time>
      </trkpt>
      <trkpt lat="59.951668" lon="17.8725171">
        <ele>31.3801</ele>
        <time>2013-06-02T09:57:26Z</time>
      </trkpt>
      <trkpt lat="59.9516743" lon="17.8723869">
        <ele>31.3801</ele>
        <time>2013-06-02T09:57:27Z</time>
      </trkpt>
      <trkpt lat="59.9516818" lon="17.8722643">
        <ele>31.8607</ele>
        <time>2013-06-02T09:57:28Z</time>
      </trkpt>
      <trkpt lat="59.9516927" lon="17.8721468">
        <ele>31.8607</ele>
        <time>2013-06-02T09:57:29Z</time>
      </trkpt>
      <trkpt lat="59.9517008" lon="17.8720232">
        <ele>32.3416</ele>
        <time>2013-06-02T09:57:30Z</time>
      </trkpt>
      <trkpt lat="59.9517043" lon="17.8718932">
        <ele>32.8223</ele>
        <time>2013-06-02T09:57:31Z</time>
      </trkpt>
      <trkpt lat="59.9517053" lon="17.8717587">
        <ele>33.3029</ele>
        <time>2013-06-02T09:57:32Z</time>
      </trkpt>
      <trkpt lat="59.9517048" lon="17.871623">
        <ele>33.3029</ele>
        <time>2013-06-02T09:57:33Z</time>
      </trkpt>
      <trkpt lat="59.951701" lon="17.8714902">
        <ele>33.7834</ele>
        <time>2013-06-02T09:57:34Z</time>
      </trkpt>
      <trkpt lat="59.951696" lon="17.8713577">
        <ele>34.2642</ele>
        <time>2013-06-02T09:57:35Z</time>
      </trkpt>
      <trkpt lat="59.951695" lon="17.8712199">
        <ele>34.2642</ele>
        <time>2013-06-02T09:57:36Z</time>
      </trkpt>
      <trkpt lat="59.9517023" lon="17.8710794">
        <ele>34.7449</ele>
        <time>2013-06-02T09:57:37Z</time>
      </trkpt>
      <trkpt lat="59.9517178" lon="17.8709468">
        <ele>34.7449</ele>
        <time>2013-06-02T09:57:38Z</time>
      </trkpt>
      <trkpt lat="59.9517381" lon="17.8708357">
        <ele>35.2255</ele>
        <time>2013-06-02T09:57:39Z</time>
      </trkpt>
      <trkpt lat="59.9517601" lon="17.8707518">
        <ele>35.7061</ele>
        <time>2013-06-02T09:57:40Z</time>
      </trkpt>
      <trkpt lat="59.9517834" lon="17.8706967">
        <ele>36.1868</ele>
        <time>2013-06-02T09:57:41Z</time>
      </trkpt>
      <trkpt lat="59.9518053" lon="17.8706674">
        <ele>36.1868</ele>
        <time>2013-06-02T09:57:42Z</time>
      </trkpt>
      <trkpt lat="59.9518238" lon="17.8706533">
        <ele>36.6675</ele>
        <time>2013-06-02T09:57:43Z</time>
      </trkpt>
      <trkpt lat="59.9518417" lon="17.8706408">
        <ele>37.1481</ele>
        <time>2013-06-02T09:57:44Z</time>
      </trkpt>
      <trkpt lat="59.9518632" lon="17.8706275">
        <ele>37.1481</ele>
        <time>2013-06-02T09:57:45Z</time>
      </trkpt>
      <trkpt lat="59.9518903" lon="17.8706227">
        <ele>37.1481</ele>
        <time>2013-06-02T09:57:46Z</time>
      </trkpt>
      <trkpt lat="59.9519229" lon="17.8706236">
        <ele>37.6287</ele>
        <time>2013-06-02T09:57:47Z</time>
      </trkpt>
      <trkpt lat="59.9519587" lon="17.8706292">
        <ele>37.6287</ele>
        <time>2013-06-02T09:57:48Z</time>
      </trkpt>
      <trkpt lat="59.9519968" lon="17.8706309">
        <ele>37.6287</ele>
        <time>2013-06-02T09:57:49Z</time>
      </trkpt>
      <trkpt lat="59.9520346" lon="17.8706212">
        <ele>37.6287</ele>
        <time>2013-06-02T09:57:50Z</time>
      </trkpt>
      <trkpt lat="59.9520716" lon="17.8706035">
        <ele>37.6287</ele>
        <time>2013-06-02T09:57:51Z</time>
      </trkpt>
      <trkpt lat="59.9521074" lon="17.8705728">
        <ele>37.6287</ele>
        <time>2013-06-02T09:57:52Z</time>
      </trkpt>
      <trkpt lat="59.9521415" lon="17.8705296">
        <ele>37.6287</ele>
        <time>2013-06-02T09:57:53Z</time>
      </trkpt>
      <trkpt lat="59.9521729" lon="17.8704733">
        <ele>37.6287</ele>
        <time>2013-06-02T09:57:54Z</time>
      </trkpt>
      <trkpt lat="59.9522024" lon="17.8704039">
        <ele>37.6287</ele>
        <time>2013-06-02T09:57:55Z</time>
      </trkpt>
      <trkpt lat="59.952229" lon="17.8703264">
        <ele>38.5901</ele>
        <time>2013-06-02T09:57:56Z</time>
      </trkpt>
      <trkpt lat="59.9522535" lon="17.8702426">
        <ele>39.5513</ele>
        <time>2013-06-02T09:57:57Z</time>
      </trkpt>
      <trkpt lat="59.952277" lon="17.870155">
        <ele>40.0321</ele>
        <time>2013-06-02T09:57:58Z</time>
      </trkpt>
      <trkpt lat="59.9522979" lon="17.8700627">
        <ele>40.5128</ele>
        <time>2013-06-02T09:57:59Z</time>
      </trkpt>
      <trkpt lat="59.952318" lon="17.8699672">
        <ele>41.474</ele>
        <time>2013-06-02T09:58:00Z</time>
      </trkpt>
      <trkpt lat="59.9523382" lon="17.8698695">
        <ele>41.9547</ele>
        <time>2013-06-02T09:58:01Z</time>
      </trkpt>
      <trkpt lat="59.952358" lon="17.869768">
        <ele>41.9547</ele>
        <time>2013-06-02T09:58:02Z</time>
      </trkpt>
      <trkpt lat="59.9523781" lon="17.8696638">
        <ele>42.916</ele>
        <time>2013-06-02T09:58:03Z</time>
      </trkpt>
      <trkpt lat="59.9523918" lon="17.869552">
        <ele>43.3966</ele>
        <time>2013-06-02T09:58:04Z</time>
      </trkpt>
      <trkpt lat="59.9524001" lon="17.8694394">
        <ele>44.358</ele>
        <time>2013-06-02T09:58:05Z</time>
      </trkpt>
      <trkpt lat="59.9524021" lon="17.8693251">
        <ele>44.358</ele>
        <time>2013-06-02T09:58:06Z</time>
      </trkpt>
      <trkpt lat="59.9523977" lon="17.8692123">
        <ele>44.8386</ele>
        <time>2013-06-02T09:58:07Z</time>
      </trkpt>
      <trkpt lat="59.9523875" lon="17.8690977">
        <ele>44.8386</ele>
        <time>2013-06-02T09:58:08Z</time>
      </trkpt>
      <trkpt lat="59.9523742" lon="17.8689842">
        <ele>44.8386</ele>
        <time>2013-06-02T09:58:09Z</time>
      </trkpt>
      <trkpt lat="59.9523569" lon="17.8688709">
        <ele>44.8386</ele>
        <time>2013-06-02T09:58:10Z</time>
      </trkpt>
      <trkpt lat="59.9523373" lon="17.868759">
        <ele>45.3192</ele>
        <time>2013-06-02T09:58:11Z</time>
      </trkpt>
      <trkpt lat="59.9523171" lon="17.8686482">
        <ele>45.3192</ele>
        <time>2013-06-02T09:58:12Z</time>
      </trkpt>
      <trkpt lat="59.9522968" lon="17.8685378">
        <ele>45.3192</ele>
        <time>2013-06-02T09:58:13Z</time>
      </trkpt>
      <trkpt lat="59.9522777" lon="17.8684263">
        <ele>45.3192</ele>
        <time>2013-06-02T09:58:14Z</time>
      </trkpt>
      <trkpt lat="59.952261" lon="17.8683133">
        <ele>45.3192</ele>
        <time>2013-06-02T09:58:15Z</time>
      </trkpt>
      <trkpt lat="59.9522472" lon="17.8681983">
        <ele>45.3192</ele>
        <time>2013-06-02T09:58:16Z</time>
      </trkpt>
      <trkpt lat="59.9522376" lon="17.8680833">
        <ele>45.7999</ele>
        <time>2013-06-02T09:58:17Z</time>
      </trkpt>
      <trkpt lat="59.9522306" lon="17.8679673">
        <ele>45.7999</ele>
        <time>2013-06-02T09:58:18Z</time>
      </trkpt>
      <trkpt lat="59.952227" lon="17.8678511">
        <ele>46.2806</ele>
        <time>2013-06-02T09:58:19Z</time>
      </trkpt>
      <trkpt lat="59.9522265" lon="17.8677362">
        <ele>46.7612</ele>
        <time>2013-06-02T09:58:20Z</time>
      </trkpt>
      <trkpt lat="59.9522279" lon="17.8676222">
        <ele>46.7612</ele>
        <time>2013-06-02T09:58:21Z</time>
      </trkpt>
      <trkpt lat="59.9522315" lon="17.8675089">
        <ele>46.7612</ele>
        <time>2013-06-02T09:58:22Z</time>
      </trkpt>
      <trkpt lat="59.9522374" lon="17.8673955">
        <ele>47.2418</ele>
        <time>2013-06-02T09:58:23Z</time>
      </trkpt>
      <trkpt lat="59.9522454" lon="17.8672826">
        <ele>47.2418</ele>
        <time>2013-06-02T09:58:24Z</time>
      </trkpt>
      <trkpt lat="59.9522555" lon="17.8671691">
        <ele>47.2418</ele>
        <time>2013-06-02T09:58:25Z</time>
      </trkpt>
      <trkpt lat="59.9522677" lon="17.8670563">
        <ele>47.7225</ele>
        <time>2013-06-02T09:58:26Z</time>
      </trkpt>
      <trkpt lat="59.9522803" lon="17.8669442">
        <ele>48.2034</ele>
        <time>2013-06-02T09:58:27Z</time>
      </trkpt>
      <trkpt lat="59.9522927" lon="17.8668318">
        <ele>48.2034</ele>
        <time>2013-06-02T09:58:28Z</time>
      </trkpt>
      <trkpt lat="59.9523047" lon="17.8667193">
        <ele>48.684</ele>
        <time>2013-06-02T09:58:29Z</time>
      </trkpt>
      <trkpt lat="59.9523164" lon="17.8666067">
        <ele>48.684</ele>
        <time>2013-06-02T09:58:30Z</time>
      </trkpt>
      <trkpt lat="59.9523288" lon="17.8664931">
        <ele>48.684</ele>
        <time>2013-06-02T09:58:31Z</time>
      </trkpt>
      <trkpt lat="59.9523412" lon="17.8663785">
        <ele>49.1646</ele>
        <time>2013-06-02T09:58:32Z</time>
      </trkpt>
      <trkpt lat="59.9523529" lon="17.8662617">
        <ele>49.1646</ele>
        <time>2013-06-02T09:58:33Z</time>
      </trkpt>
      <trkpt lat="59.9523649" lon="17.866143">
        <ele>49.6453</ele>
        <time>2013-06-02T09:58:34Z</time>
      </trkpt>
      <trkpt lat="59.9523776" lon="17.8660224">
        <ele>49.6453</ele>
        <time>2013-06-02T09:58:35Z</time>
      </trkpt>
      <trkpt lat="59.9523901" lon="17.8659">
        <ele>49.6453</ele>
        <time>2013-06-02T09:58:36Z</time>
      </trkpt>
      <trkpt lat="59.9524024" lon="17.8657771">
        <ele>50.126</ele>
        <time>2013-06-02T09:58:37Z</time>
      </trkpt>
      <trkpt lat="59.9524146" lon="17.8656545">
        <ele>50.126</ele>
        <time>2013-06-02T09:58:38Z</time>
      </trkpt>
      <trkpt lat="59.9524273" lon="17.8655331">
        <ele>50.126</ele>
        <time>2013-06-02T09:58:39Z</time>
      </trkpt>
      <trkpt lat="59.9524399" lon="17.8654103">
        <ele>50.126</ele>
        <time>2013-06-02T09:58:40Z</time>
      </trkpt>
      <trkpt lat="59.9524513" lon="17.8652821">
        <ele>50.126</ele>
        <time>2013-06-02T09:58:41Z</time>
      </trkpt>
      <trkpt lat="59.9524641" lon="17.8651525">
        <ele>49.6453</ele>
        <time>2013-06-02T09:58:42Z</time>
      </trkpt>
      <trkpt lat="59.9524775" lon="17.86502">
        <ele>49.6453</ele>
        <time>2013-06-02T09:58:43Z</time>
      </trkpt>
      <trkpt lat="59.9524895" lon="17.8648829">
        <ele>49.6453</ele>
        <time>2013-06-02T09:58:44Z</time>
      </trkpt>
      <trkpt lat="59.9525021" lon="17.8647424">
        <ele>49.6453</ele>
        <time>2013-06-02T09:58:45Z</time>
      </trkpt>
      <trkpt lat="59.9525139" lon="17.8646009">
        <ele>48.684</ele>
        <time>2013-06-02T09:58:46Z</time>
      </trkpt>
      <trkpt lat="59.9525283" lon="17.8644614">
        <ele>49.1646</ele>
        <time>2013-06-02T09:58:47Z</time>
      </trkpt>
      <trkpt lat="59.9525429" lon="17.8643201">
        <ele>48.684</ele>
        <time>2013-06-02T09:58:48Z</time>
      </trkpt>
      <trkpt lat="59.9525584" lon="17.8641782">
        <ele>48.684</ele>
        <time>2013-06-02T09:58:49Z</time>
      </trkpt>
      <trkpt lat="59.9525735" lon="17.8640341">
        <ele>48.684</ele>
        <time>2013-06-02T09:58:50Z</time>
      </trkpt>
      <trkpt lat="59.9525885" lon="17.8638871">
        <ele>48.2034</ele>
        <time>2013-06-02T09:58:51Z</time>
      </trkpt>
      <trkpt lat="59.9526036" lon="17.8637383">
        <ele>48.2034</ele>
        <time>2013-06-02T09:58:52Z</time>
      </trkpt>
      <trkpt lat="59.9526166" lon="17.863585">
        <ele>47.2418</ele>
        <time>2013-06-02T09:58:53Z</time>
      </trkpt>
      <trkpt lat="59.9526305" lon="17.8634318">
        <ele>46.2806</ele>
        <time>2013-06-02T09:58:54Z</time>
      </trkpt>
      <trkpt lat="59.9526455" lon="17.8632807">
        <ele>45.7999</ele>
        <time>2013-06-02T09:58:55Z</time>
      </trkpt>
      <trkpt lat="59.9526596" lon="17.8631254">
        <ele>44.8386</ele>
        <time>2013-06-02T09:58:56Z</time>
      </trkpt>
      <trkpt lat="59.9526736" lon="17.8629651">
        <ele>42.4354</ele>
        <time>2013-06-02T09:58:57Z</time>
      </trkpt>
      <trkpt lat="59.9526883" lon="17.8628066">
        <ele>40.5128</ele>
        <time>2013-06-02T09:58:58Z</time>
      </trkpt>
      <trkpt lat="59.9527024" lon="17.8626475">
        <ele>38.1094</ele>
        <time>2013-06-02T09:58:59Z</time>
      </trkpt>
      <trkpt lat="59.9527174" lon="17.8624916">
        <ele>37.1481</ele>
        <time>2013-06-02T09:59:00Z</time>
      </trkpt>
      <trkpt lat="59.9527324" lon="17.862336">
        <ele>36.1868</ele>
        <time>2013-06-02T09:59:01Z</time>
      </trkpt>
      <trkpt lat="59.952747" lon="17.8621836">
        <ele>35.7061</ele>
        <time>2013-06-02T09:59:02Z</time>
      </trkpt>
      <trkpt lat="59.9527621" lon="17.8620326">
        <ele>36.1868</ele>
        <time>2013-06-02T09:59:03Z</time>
      </trkpt>
      <trkpt lat="59.9527761" lon="17.8618792">
        <ele>35.7061</ele>
        <time>2013-06-02T09:59:04Z</time>
      </trkpt>
      <trkpt lat="59.9527894" lon="17.8617246">
        <ele>35.7061</ele>
        <time>2013-06-02T09:59:05Z</time>
      </trkpt>
      <trkpt lat="59.9528023" lon="17.86157">
        <ele>35.7061</ele>
        <time>2013-06-02T09:59:06Z</time>
      </trkpt>
      <trkpt lat="59.9528159" lon="17.8614162">
        <ele>35.7061</ele>
        <time>2013-06-02T09:59:07Z</time>
      </trkpt>
      <trkpt lat="59.9528303" lon="17.8612636">
        <ele>35.7061</ele>
        <time>2013-06-02T09:59:08Z</time>
      </trkpt>
      <trkpt lat="59.9528445" lon="17.8611101">
        <ele>35.7061</ele>
        <time>2013-06-02T09:59:09Z</time>
      </trkpt>
      <trkpt lat="59.95286" lon="17.8609597">
        <ele>36.1868</ele>
        <time>2013-06-02T09:59:10Z</time>
      </trkpt>
      <trkpt lat="59.9528758" lon="17.8608088">
        <ele>36.1868</ele>
        <time>2013-06-02T09:59:11Z</time>
      </trkpt>
      <trkpt lat="59.9528916" lon="17.8606573">
        <ele>36.6675</ele>
        <time>2013-06-02T09:59:12Z</time>
      </trkpt>
      <trkpt lat="59.9529064" lon="17.860503">
        <ele>36.6675</ele>
        <time>2013-06-02T09:59:13Z</time>
      </trkpt>
      <trkpt lat="59.952921" lon="17.8603496">
        <ele>36.6675</ele>
        <time>2013-06-02T09:59:14Z</time>
      </trkpt>
      <trkpt lat="59.9529356" lon="17.8601971">
        <ele>36.6675</ele>
        <time>2013-06-02T09:59:15Z</time>
      </trkpt>
      <trkpt lat="59.9529507" lon="17.8600444">
        <ele>37.1481</ele>
        <time>2013-06-02T09:59:16Z</time>
      </trkpt>
      <trkpt lat="59.9529661" lon="17.8598921">
        <ele>37.1481</ele>
        <time>2013-06-02T09:59:17Z</time>
      </trkpt>
      <trkpt lat="59.9529811" lon="17.8597388">
        <ele>37.1481</ele>
        <time>2013-06-02T09:59:18Z</time>
      </trkpt>
      <trkpt lat="59.9529973" lon="17.8595873">
        <ele>37.6287</ele>
        <time>2013-06-02T09:59:19Z</time>
      </trkpt>
      <trkpt lat="59.9530133" lon="17.8594347">
        <ele>38.1094</ele>
        <time>2013-06-02T09:59:20Z</time>
      </trkpt>
      <trkpt lat="59.9530287" lon="17.8592814">
        <ele>38.5901</ele>
        <time>2013-06-02T09:59:21Z</time>
      </trkpt>
      <trkpt lat="59.9530444" lon="17.8591282">
        <ele>38.5901</ele>
        <time>2013-06-02T09:59:22Z</time>
      </trkpt>
      <trkpt lat="59.9530604" lon="17.8589747">
        <ele>39.0707</ele>
        <time>2013-06-02T09:59:23Z</time>
      </trkpt>
      <trkpt lat="59.9530765" lon="17.8588198">
        <ele>39.0707</ele>
        <time>2013-06-02T09:59:24Z</time>
      </trkpt>
      <trkpt lat="59.9530931" lon="17.8586642">
        <ele>39.5513</ele>
        <time>2013-06-02T09:59:25Z</time>
      </trkpt>
      <trkpt lat="59.9531094" lon="17.8585079">
        <ele>39.5513</ele>
        <time>2013-06-02T09:59:26Z</time>
      </trkpt>
      <trkpt lat="59.9531252" lon="17.858351">
        <ele>40.0321</ele>
        <time>2013-06-02T09:59:27Z</time>
      </trkpt>
      <trkpt lat="59.9531418" lon="17.858196">
        <ele>40.0321</ele>
        <time>2013-06-02T09:59:28Z</time>
      </trkpt>
      <trkpt lat="59.9531581" lon="17.8580413">
        <ele>40.5128</ele>
        <time>2013-06-02T09:59:29Z</time>
      </trkpt>
      <trkpt lat="59.9531742" lon="17.8578895">
        <ele>40.5128</ele>
        <time>2013-06-02T09:59:30Z</time>
      </trkpt>
      <trkpt lat="59.9531901" lon="17.8577398">
        <ele>40.9934</ele>
        <time>2013-06-02T09:59:31Z</time>
      </trkpt>
      <trkpt lat="59.9532051" lon="17.8575916">
        <ele>41.474</ele>
        <time>2013-06-02T09:59:32Z</time>
      </trkpt>
      <trkpt lat="59.9532188" lon="17.8574337">
        <ele>39.5513</ele>
        <time>2013-06-02T09:59:33Z</time>
      </trkpt>
      <trkpt lat="59.9532349" lon="17.8572782">
        <ele>38.1094</ele>
        <time>2013-06-02T09:59:34Z</time>
      </trkpt>
      <trkpt lat="59.9532515" lon="17.8571259">
        <ele>36.6675</ele>
        <time>2013-06-02T09:59:35Z</time>
      </trkpt>
      <trkpt lat="59.9532656" lon="17.8569681">
        <ele>35.2255</ele>
        <time>2013-06-02T09:59:36Z</time>
      </trkpt>
      <trkpt lat="59.9532801" lon="17.8568125">
        <ele>33.7834</ele>
        <time>2013-06-02T09:59:37Z</time>
      </trkpt>
      <trkpt lat="59.9532956" lon="17.8566613">
        <ele>32.8223</ele>
        <time>2013-06-02T09:59:38Z</time>
      </trkpt>
      <trkpt lat="59.9533113" lon="17.8565105">
        <ele>31.8607</ele>
        <time>2013-06-02T09:59:39Z</time>
      </trkpt>
      <trkpt lat="59.9533268" lon="17.8563609">
        <ele>30.8995</ele>
        <time>2013-06-02T09:59:40Z</time>
      </trkpt>
      <trkpt lat="59.9533427" lon="17.8562128">
        <ele>29.9381</ele>
        <time>2013-06-02T09:59:41Z</time>
      </trkpt>
      <trkpt lat="59.9533593" lon="17.8560625">
        <ele>29.4575</ele>
        <time>2013-06-02T09:59:42Z</time>
      </trkpt>
      <trkpt lat="59.9533744" lon="17.8559121">
        <ele>28.9769</ele>
        <time>2013-06-02T09:59:43Z</time>
      </trkpt>
      <trkpt lat="59.9533878" lon="17.8557624">
        <ele>28.4962</ele>
        <time>2013-06-02T09:59:44Z</time>
      </trkpt>
      <trkpt lat="59.9534006" lon="17.8556138">
        <ele>28.9769</ele>
        <time>2013-06-02T09:59:45Z</time>
      </trkpt>
      <trkpt lat="59.9534138" lon="17.855466">
        <ele>28.9769</ele>
        <time>2013-06-02T09:59:46Z</time>
      </trkpt>
      <trkpt lat="59.9534265" lon="17.8553151">
        <ele>29.4575</ele>
        <time>2013-06-02T09:59:47Z</time>
      </trkpt>
      <trkpt lat="59.9534407" lon="17.8551663">
        <ele>29.9381</ele>
        <time>2013-06-02T09:59:48Z</time>
      </trkpt>
      <trkpt lat="59.9534541" lon="17.8550159">
        <ele>29.9381</ele>
        <time>2013-06-02T09:59:49Z</time>
      </trkpt>
      <trkpt lat="59.953468" lon="17.8548647">
        <ele>30.4188</ele>
        <time>2013-06-02T09:59:50Z</time>
      </trkpt>
      <trkpt lat="59.9534815" lon="17.8547144">
        <ele>30.4188</ele>
        <time>2013-06-02T09:59:51Z</time>
      </trkpt>
      <trkpt lat="59.953495" lon="17.8545668">
        <ele>30.4188</ele>
        <time>2013-06-02T09:59:52Z</time>
      </trkpt>
      <trkpt lat="59.9535099" lon="17.8544209">
        <ele>30.8995</ele>
        <time>2013-06-02T09:59:53Z</time>
      </trkpt>
      <trkpt lat="59.9535251" lon="17.8542749">
        <ele>31.3801</ele>
        <time>2013-06-02T09:59:54Z</time>
      </trkpt>
      <trkpt lat="59.9535405" lon="17.8541293">
        <ele>31.3801</ele>
        <time>2013-06-02T09:59:55Z</time>
      </trkpt>
      <trkpt lat="59.9535558" lon="17.853984">
        <ele>31.8607</ele>
        <time>2013-06-02T09:59:56Z</time>
      </trkpt>
      <trkpt lat="59.9535708" lon="17.8538388">
        <ele>31.8607</ele>
        <time>2013-06-02T09:59:57Z</time>
      </trkpt>
      <trkpt lat="59.9535858" lon="17.8536948">
        <ele>32.8223</ele>
        <time>2013-06-02T09:59:58Z</time>
      </trkpt>
      <trkpt lat="59.9536012" lon="17.8535508">
        <ele>33.3029</ele>
        <time>2013-06-02T09:59:59Z</time>
      </trkpt>
      <trkpt lat="59.9536172" lon="17.8534071">
        <ele>33.3029</ele>
        <time>2013-06-02T10:00:00Z</time>
      </trkpt>
      <trkpt lat="59.9536329" lon="17.8532642">
        <ele>33.7834</ele>
        <time>2013-06-02T10:00:01Z</time>
      </trkpt>
      <trkpt lat="59.9536478" lon="17.8531203">
        <ele>34.2642</ele>
        <time>2013-06-02T10:00:02Z</time>
      </trkpt>
      <trkpt lat="59.9536609" lon="17.8529751">
        <ele>34.7449</ele>
        <time>2013-06-02T10:00:03Z</time>
      </trkpt>
      <trkpt lat="59.9536637" lon="17.8528437">
        <ele>35.2255</ele>
        <time>2013-06-02T10:00:04Z</time>
      </trkpt>
      <trkpt lat="59.9536752" lon="17.8527001">
        <ele>35.2255</ele>
        <time>2013-06-02T10:00:05Z</time>
      </trkpt>
      <trkpt lat="59.9536894" lon="17.8525622">
        <ele>35.7061</ele>
        <time>2013-06-02T10:00:06Z</time>
      </trkpt>
      <trkpt lat="59.953706" lon="17.852425">
        <ele>35.7061</ele>
        <time>2013-06-02T10:00:07Z</time>
      </trkpt>
      <trkpt lat="59.9537213" lon="17.8522857">
        <ele>36.1868</ele>
        <time>2013-06-02T10:00:08Z</time>
      </trkpt>
      <trkpt lat="59.9537364" lon="17.8521467">
        <ele>36.1868</ele>
        <time>2013-06-02T10:00:09Z</time>
      </trkpt>
      <trkpt lat="59.9537425" lon="17.8519887">
        <ele>36.1868</ele>
        <time>2013-06-02T10:00:10Z</time>
      </trkpt>
      <trkpt lat="59.9537529" lon="17.8518356">
        <ele>36.6675</ele>
        <time>2013-06-02T10:00:11Z</time>
      </trkpt>
      <trkpt lat="59.953766" lon="17.8516666">
        <ele>34.7449</ele>
        <time>2013-06-02T10:00:12Z</time>
      </trkpt>
      <trkpt lat="59.9537787" lon="17.8515028">
        <ele>33.7834</ele>
        <time>2013-06-02T10:00:13Z</time>
      </trkpt>
      <trkpt lat="59.953796" lon="17.8513557">
        <ele>33.7834</ele>
        <time>2013-06-02T10:00:14Z</time>
      </trkpt>
      <trkpt lat="59.9538131" lon="17.8512094">
        <ele>34.2642</ele>
        <time>2013-06-02T10:00:15Z</time>
      </trkpt>
      <trkpt lat="59.9538343" lon="17.8510615">
        <ele>34.2642</ele>
        <time>2013-06-02T10:00:16Z</time>
      </trkpt>
      <trkpt lat="59.9538535" lon="17.8509108">
        <ele>34.7449</ele>
        <time>2013-06-02T10:00:17Z</time>
      </trkpt>
      <trkpt lat="59.9538714" lon="17.850767">
        <ele>34.7449</ele>
        <time>2013-06-02T10:00:18Z</time>
      </trkpt>
      <trkpt lat="59.9538856" lon="17.8506155">
        <ele>34.7449</ele>
        <time>2013-06-02T10:00:19Z</time>
      </trkpt>
      <trkpt lat="59.9539004" lon="17.8504633">
        <ele>35.2255</ele>
        <time>2013-06-02T10:00:20Z</time>
      </trkpt>
      <trkpt lat="59.9539136" lon="17.8503093">
        <ele>35.2255</ele>
        <time>2013-06-02T10:00:21Z</time>
      </trkpt>
      <trkpt lat="59.9539253" lon="17.8501453">
        <ele>33.3029</ele>
        <time>2013-06-02T10:00:22Z</time>
      </trkpt>
      <trkpt lat="59.9539391" lon="17.849986">
        <ele>32.3416</ele>
        <time>2013-06-02T10:00:23Z</time>
      </trkpt>
      <trkpt lat="59.953953" lon="17.8498298">
        <ele>32.3416</ele>
        <time>2013-06-02T10:00:24Z</time>
      </trkpt>
      <trkpt lat="59.953969" lon="17.8496742">
        <ele>32.8223</ele>
        <time>2013-06-02T10:00:25Z</time>
      </trkpt>
      <trkpt lat="59.9539842" lon="17.8495198">
        <ele>33.3029</ele>
        <time>2013-06-02T10:00:26Z</time>
      </trkpt>
      <trkpt lat="59.9539992" lon="17.8493655">
        <ele>33.7834</ele>
        <time>2013-06-02T10:00:27Z</time>
      </trkpt>
      <trkpt lat="59.9540136" lon="17.8492121">
        <ele>34.2642</ele>
        <time>2013-06-02T10:00:28Z</time>
      </trkpt>
      <trkpt lat="59.954028" lon="17.8490606">
        <ele>34.7449</ele>
        <time>2013-06-02T10:00:29Z</time>
      </trkpt>
      <trkpt lat="59.9540415" lon="17.8489088">
        <ele>34.7449</ele>
        <time>2013-06-02T10:00:30Z</time>
      </trkpt>
      <trkpt lat="59.9540541" lon="17.848757">
        <ele>35.2255</ele>
        <time>2013-06-02T10:00:31Z</time>
      </trkpt>
      <trkpt lat="59.9540667" lon="17.8486046">
        <ele>35.2255</ele>
        <time>2013-06-02T10:00:32Z</time>
      </trkpt>
      <trkpt lat="59.9540783" lon="17.8484519">
        <ele>35.7061</ele>
        <time>2013-06-02T10:00:33Z</time>
      </trkpt>
      <trkpt lat="59.9540888" lon="17.8482987">
        <ele>35.7061</ele>
        <time>2013-06-02T10:00:34Z</time>
      </trkpt>
      <trkpt lat="59.954099" lon="17.8481463">
        <ele>36.1868</ele>
        <time>2013-06-02T10:00:35Z</time>
      </trkpt>
      <trkpt lat="59.9541088" lon="17.8479944">
        <ele>36.6675</ele>
        <time>2013-06-02T10:00:36Z</time>
      </trkpt>
      <trkpt lat="59.9541168" lon="17.8478427">
        <ele>36.6675</ele>
        <time>2013-06-02T10:00:37Z</time>
      </trkpt>
      <trkpt lat="59.9541247" lon="17.8476918">
        <ele>37.1481</ele>
        <time>2013-06-02T10:00:38Z</time>
      </trkpt>
      <trkpt lat="59.9541318" lon="17.8475407">
        <ele>37.6287</ele>
        <time>2013-06-02T10:00:39Z</time>
      </trkpt>
      <trkpt lat="59.9541379" lon="17.8473903">
        <ele>37.6287</ele>
        <time>2013-06-02T10:00:40Z</time>
      </trkpt>
      <trkpt lat="59.9541432" lon="17.84724">
        <ele>38.1094</ele>
        <time>2013-06-02T10:00:41Z</time>
      </trkpt>
      <trkpt lat="59.9541481" lon="17.8470904">
        <ele>38.1094</ele>
        <time>2013-06-02T10:00:42Z</time>
      </trkpt>
      <trkpt lat="59.9541508" lon="17.8469342">
        <ele>37.1481</ele>
        <time>2013-06-02T10:00:43Z</time>
      </trkpt>
      <trkpt lat="59.9541537" lon="17.8467827">
        <ele>37.1481</ele>
        <time>2013-06-02T10:00:44Z</time>
      </trkpt>
      <trkpt lat="59.9541553" lon="17.8466237">
        <ele>36.1868</ele>
        <time>2013-06-02T10:00:45Z</time>
      </trkpt>
      <trkpt lat="59.954156" lon="17.8464646">
        <ele>35.2255</ele>
        <time>2013-06-02T10:00:46Z</time>
      </trkpt>
      <trkpt lat="59.9541565" lon="17.8463048">
        <ele>34.7449</ele>
        <time>2013-06-02T10:00:47Z</time>
      </trkpt>
      <trkpt lat="59.9541576" lon="17.8461474">
        <ele>34.2642</ele>
        <time>2013-06-02T10:00:48Z</time>
      </trkpt>
      <trkpt lat="59.9541584" lon="17.8459901">
        <ele>33.7834</ele>
        <time>2013-06-02T10:00:49Z</time>
      </trkpt>
      <trkpt lat="59.9541581" lon="17.8458319">
        <ele>33.3029</ele>
        <time>2013-06-02T10:00:50Z</time>
      </trkpt>
      <trkpt lat="59.9541571" lon="17.8456727">
        <ele>32.8223</ele>
        <time>2013-06-02T10:00:51Z</time>
      </trkpt>
      <trkpt lat="59.9541553" lon="17.8455136">
        <ele>32.8223</ele>
        <time>2013-06-02T10:00:52Z</time>
      </trkpt>
      <trkpt lat="59.9541519" lon="17.8453552">
        <ele>32.3416</ele>
        <time>2013-06-02T10:00:53Z</time>
      </trkpt>
      <trkpt lat="59.9541471" lon="17.8451966">
        <ele>31.8607</ele>
        <time>2013-06-02T10:00:54Z</time>
      </trkpt>
      <trkpt lat="59.9541421" lon="17.8450426">
        <ele>31.8607</ele>
        <time>2013-06-02T10:00:55Z</time>
      </trkpt>
      <trkpt lat="59.9541374" lon="17.84489">
        <ele>32.3416</ele>
        <time>2013-06-02T10:00:56Z</time>
      </trkpt>
      <trkpt lat="59.9541322" lon="17.8447376">
        <ele>32.3416</ele>
        <time>2013-06-02T10:00:57Z</time>
      </trkpt>
      <trkpt lat="59.954126" lon="17.844584">
        <ele>32.8223</ele>
        <time>2013-06-02T10:00:58Z</time>
      </trkpt>
      <trkpt lat="59.9541191" lon="17.8444304">
        <ele>32.8223</ele>
        <time>2013-06-02T10:00:59Z</time>
      </trkpt>
      <trkpt lat="59.9541118" lon="17.8442772">
        <ele>33.3029</ele>
        <time>2013-06-02T10:01:00Z</time>
      </trkpt>
      <trkpt lat="59.9541046" lon="17.8441248">
        <ele>33.3029</ele>
        <time>2013-06-02T10:01:01Z</time>
      </trkpt>
      <trkpt lat="59.9540959" lon="17.8439726">
        <ele>33.7834</ele>
        <time>2013-06-02T10:01:02Z</time>
      </trkpt>
      <trkpt lat="59.9540861" lon="17.8438204">
        <ele>34.2642</ele>
        <time>2013-06-02T10:01:03Z</time>
      </trkpt>
      <trkpt lat="59.9540761" lon="17.8436689">
        <ele>34.2642</ele>
        <time>2013-06-02T10:01:04Z</time>
      </trkpt>
      <trkpt lat="59.9540654" lon="17.8435187">
        <ele>34.7449</ele>
        <time>2013-06-02T10:01:05Z</time>
      </trkpt>
      <trkpt lat="59.9540545" lon="17.8433688">
        <ele>34.7449</ele>
        <time>2013-06-02T10:01:06Z</time>
      </trkpt>
      <trkpt lat="59.9540436" lon="17.8432193">
        <ele>34.7449</ele>
        <time>2013-06-02T10:01:07Z</time>
      </trkpt>
      <trkpt lat="59.9540322" lon="17.8430693">
        <ele>35.2255</ele>
        <time>2013-06-02T10:01:08Z</time>
      </trkpt>
      <trkpt lat="59.9540203" lon="17.8429206">
        <ele>35.7061</ele>
        <time>2013-06-02T10:01:09Z</time>
      </trkpt>
      <trkpt lat="59.9540079" lon="17.8427755">
        <ele>35.7061</ele>
        <time>2013-06-02T10:01:10Z</time>
      </trkpt>
      <trkpt lat="59.9539949" lon="17.8426318">
        <ele>36.1868</ele>
        <time>2013-06-02T10:01:11Z</time>
      </trkpt>
      <trkpt lat="59.953981" lon="17.8424875">
        <ele>36.1868</ele>
        <time>2013-06-02T10:01:12Z</time>
      </trkpt>
      <trkpt lat="59.9539665" lon="17.8423433">
        <ele>36.6675</ele>
        <time>2013-06-02T10:01:13Z</time>
      </trkpt>
      <trkpt lat="59.9539514" lon="17.8421993">
        <ele>37.1481</ele>
        <time>2013-06-02T10:01:14Z</time>
      </trkpt>
      <trkpt lat="59.9539349" lon="17.8420558">
        <ele>37.1481</ele>
        <time>2013-06-02T10:01:15Z</time>
      </trkpt>
      <trkpt lat="59.9539181" lon="17.8419118">
        <ele>37.6287</ele>
        <time>2013-06-02T10:01:16Z</time>
      </trkpt>
      <trkpt lat="59.9539011" lon="17.8417675">
        <ele>38.1094</ele>
        <time>2013-06-02T10:01:17Z</time>
      </trkpt>
      <trkpt lat="59.9538841" lon="17.8416231">
        <ele>38.1094</ele>
        <time>2013-06-02T10:01:18Z</time>
      </trkpt>
      <trkpt lat="59.9538676" lon="17.841479">
        <ele>38.1094</ele>
        <time>2013-06-02T10:01:19Z</time>
      </trkpt>
      <trkpt lat="59.9538504" lon="17.8413363">
        <ele>38.5901</ele>
        <time>2013-06-02T10:01:20Z</time>
      </trkpt>
      <trkpt lat="59.9538321" lon="17.8411941">
        <ele>38.5901</ele>
        <time>2013-06-02T10:01:21Z</time>
      </trkpt>
      <trkpt lat="59.9538134" lon="17.8410505">
        <ele>39.0707</ele>
        <time>2013-06-02T10:01:22Z</time>
      </trkpt>
      <trkpt lat="59.9537943" lon="17.8409054">
        <ele>39.0707</ele>
        <time>2013-06-02T10:01:23Z</time>
      </trkpt>
      <trkpt lat="59.9537743" lon="17.8407597">
        <ele>39.5513</ele>
        <time>2013-06-02T10:01:24Z</time>
      </trkpt>
      <trkpt lat="59.9537534" lon="17.8406135">
        <ele>39.5513</ele>
        <time>2013-06-02T10:01:25Z</time>
      </trkpt>
      <trkpt lat="59.9537322" lon="17.8404671">
        <ele>39.5513</ele>
        <time>2013-06-02T10:01:26Z</time>
      </trkpt>
      <trkpt lat="59.9537106" lon="17.8403213">
        <ele>39.5513</ele>
        <time>2013-06-02T10:01:27Z</time>
      </trkpt>
      <trkpt lat="59.9536878" lon="17.8401767">
        <ele>40.0321</ele>
        <time>2013-06-02T10:01:28Z</time>
      </trkpt>
      <trkpt lat="59.953664" lon="17.8400323">
        <ele>40.0321</ele>
        <time>2013-06-02T10:01:29Z</time>
      </trkpt>
      <trkpt lat="59.9536392" lon="17.8398886">
        <ele>40.0321</ele>
        <time>2013-06-02T10:01:30Z</time>
      </trkpt>
      <trkpt lat="59.9536132" lon="17.8397452">
        <ele>40.0321</ele>
        <time>2013-06-02T10:01:31Z</time>
      </trkpt>
      <trkpt lat="59.9535857" lon="17.8396023">
        <ele>40.5128</ele>
        <time>2013-06-02T10:01:32Z</time>
      </trkpt>
      <trkpt lat="59.9535576" lon="17.8394613">
        <ele>40.5128</ele>
        <time>2013-06-02T10:01:33Z</time>
      </trkpt>
      <trkpt lat="59.9535293" lon="17.839325">
        <ele>40.5128</ele>
        <time>2013-06-02T10:01:34Z</time>
      </trkpt>
      <trkpt lat="59.9535024" lon="17.8391934">
        <ele>40.5128</ele>
        <time>2013-06-02T10:01:35Z</time>
      </trkpt>
      <trkpt lat="59.9534762" lon="17.8390651">
        <ele>40.9934</ele>
        <time>2013-06-02T10:01:36Z</time>
      </trkpt>
      <trkpt lat="59.9534495" lon="17.8389406">
        <ele>40.9934</ele>
        <time>2013-06-02T10:01:37Z</time>
      </trkpt>
      <trkpt lat="59.9534224" lon="17.8388177">
        <ele>40.9934</ele>
        <time>2013-06-02T10:01:38Z</time>
      </trkpt>
      <trkpt lat="59.9533961" lon="17.8386936">
        <ele>40.9934</ele>
        <time>2013-06-02T10:01:39Z</time>
      </trkpt>
      <trkpt lat="59.9533763" lon="17.8385662">
        <ele>40.9934</ele>
        <time>2013-06-02T10:01:40Z</time>
      </trkpt>
      <trkpt lat="59.9533759" lon="17.8384354">
        <ele>41.474</ele>
        <time>2013-06-02T10:01:41Z</time>
      </trkpt>
      <trkpt lat="59.9533947" lon="17.8383025">
        <ele>40.5128</ele>
        <time>2013-06-02T10:01:42Z</time>
      </trkpt>
      <trkpt lat="59.9534384" lon="17.8381993">
        <ele>39.0707</ele>
        <time>2013-06-02T10:01:43Z</time>
      </trkpt>
      <trkpt lat="59.9534938" lon="17.8381207">
        <ele>37.1481</ele>
        <time>2013-06-02T10:01:44Z</time>
      </trkpt>
      <trkpt lat="59.9535571" lon="17.8380725">
        <ele>36.6675</ele>
        <time>2013-06-02T10:01:45Z</time>
      </trkpt>
      <trkpt lat="59.9536234" lon="17.8380232">
        <ele>34.2642</ele>
        <time>2013-06-02T10:01:46Z</time>
      </trkpt>
      <trkpt lat="59.9536875" lon="17.8379763">
        <ele>32.8223</ele>
        <time>2013-06-02T10:01:47Z</time>
      </trkpt>
      <trkpt lat="59.9537471" lon="17.837925">
        <ele>31.8607</ele>
        <time>2013-06-02T10:01:48Z</time>
      </trkpt>
      <trkpt lat="59.9538069" lon="17.8378851">
        <ele>31.3801</ele>
        <time>2013-06-02T10:01:49Z</time>
      </trkpt>
      <trkpt lat="59.9538634" lon="17.8378468">
        <ele>30.8995</ele>
        <time>2013-06-02T10:01:50Z</time>
      </trkpt>
      <trkpt lat="59.9539186" lon="17.8378063">
        <ele>31.3801</ele>
        <time>2013-06-02T10:01:51Z</time>
      </trkpt>
      <trkpt lat="59.953968" lon="17.8377507">
        <ele>28.4962</ele>
        <time>2013-06-02T10:01:52Z</time>
      </trkpt>
      <trkpt lat="59.9540189" lon="17.8377037">
        <ele>26.5736</ele>
        <time>2013-06-02T10:01:53Z</time>
      </trkpt>
      <trkpt lat="59.9540714" lon="17.8376601">
        <ele>25.1317</ele>
        <time>2013-06-02T10:01:54Z</time>
      </trkpt>
      <trkpt lat="59.9541249" lon="17.8376166">
        <ele>24.651</ele>
        <time>2013-06-02T10:01:55Z</time>
      </trkpt>
      <trkpt lat="59.9541782" lon="17.837582">
        <ele>24.651</ele>
        <time>2013-06-02T10:01:56Z</time>
      </trkpt>
      <trkpt lat="59.9542311" lon="17.8375467">
        <ele>24.651</ele>
        <time>2013-06-02T10:01:57Z</time>
      </trkpt>
      <trkpt lat="59.9542851" lon="17.8375002">
        <ele>25.1317</ele>
        <time>2013-06-02T10:01:58Z</time>
      </trkpt>
      <trkpt lat="59.95434" lon="17.8374525">
        <ele>25.6123</ele>
        <time>2013-06-02T10:01:59Z</time>
      </trkpt>
      <trkpt lat="59.9543926" lon="17.8374217">
        <ele>25.6123</ele>
        <time>2013-06-02T10:02:00Z</time>
      </trkpt>
      <trkpt lat="59.9544441" lon="17.8373942">
        <ele>25.6123</ele>
        <time>2013-06-02T10:02:01Z</time>
      </trkpt>
      <trkpt lat="59.9544942" lon="17.8373728">
        <ele>25.6123</ele>
        <time>2013-06-02T10:02:02Z</time>
      </trkpt>
      <trkpt lat="59.9545459" lon="17.837342">
        <ele>25.6123</ele>
        <time>2013-06-02T10:02:03Z</time>
      </trkpt>
      <trkpt lat="59.9545978" lon="17.8373011">
        <ele>26.0929</ele>
        <time>2013-06-02T10:02:04Z</time>
      </trkpt>
      <trkpt lat="59.9546501" lon="17.8372587">
        <ele>26.0929</ele>
        <time>2013-06-02T10:02:05Z</time>
      </trkpt>
      <trkpt lat="59.9547035" lon="17.8372205">
        <ele>26.5736</ele>
        <time>2013-06-02T10:02:06Z</time>
      </trkpt>
      <trkpt lat="59.9547558" lon="17.8371829">
        <ele>26.5736</ele>
        <time>2013-06-02T10:02:07Z</time>
      </trkpt>
      <trkpt lat="59.9548078" lon="17.8371447">
        <ele>27.0543</ele>
        <time>2013-06-02T10:02:08Z</time>
      </trkpt>
      <trkpt lat="59.9548595" lon="17.8371069">
        <ele>27.5349</ele>
        <time>2013-06-02T10:02:09Z</time>
      </trkpt>
      <trkpt lat="59.9549087" lon="17.8370846">
        <ele>27.5349</ele>
        <time>2013-06-02T10:02:10Z</time>
      </trkpt>
      <trkpt lat="59.9549567" lon="17.8370644">
        <ele>27.5349</ele>
        <time>2013-06-02T10:02:11Z</time>
      </trkpt>
      <trkpt lat="59.955005" lon="17.8370423">
        <ele>28.0155</ele>
        <time>2013-06-02T10:02:12Z</time>
      </trkpt>
      <trkpt lat="59.9550551" lon="17.8370147">
        <ele>28.0155</ele>
        <time>2013-06-02T10:02:13Z</time>
      </trkpt>
      <trkpt lat="59.9551084" lon="17.8369753">
        <ele>28.0155</ele>
        <time>2013-06-02T10:02:14Z</time>
      </trkpt>
      <trkpt lat="59.9551562" lon="17.836953">
        <ele>28.0155</ele>
        <time>2013-06-02T10:02:15Z</time>
      </trkpt>
      <trkpt lat="59.9552045" lon="17.8369254">
        <ele>28.0155</ele>
        <time>2013-06-02T10:02:16Z</time>
      </trkpt>
      <trkpt lat="59.9552558" lon="17.8368904">
        <ele>28.0155</ele>
        <time>2013-06-02T10:02:17Z</time>
      </trkpt>
      <trkpt lat="59.9553027" lon="17.8368239">
        <ele>23.6896</ele>
        <time>2013-06-02T10:02:18Z</time>
      </trkpt>
      <trkpt lat="59.9553521" lon="17.836766">
        <ele>21.2864</ele>
        <time>2013-06-02T10:02:19Z</time>
      </trkpt>
      <trkpt lat="59.955407" lon="17.8367215">
        <ele>21.2864</ele>
        <time>2013-06-02T10:02:20Z</time>
      </trkpt>
      <trkpt lat="59.9554594" lon="17.8366812">
        <ele>21.767</ele>
        <time>2013-06-02T10:02:21Z</time>
      </trkpt>
      <trkpt lat="59.9555131" lon="17.8366419">
        <ele>22.2476</ele>
        <time>2013-06-02T10:02:22Z</time>
      </trkpt>
      <trkpt lat="59.955567" lon="17.8366012">
        <ele>22.7283</ele>
        <time>2013-06-02T10:02:23Z</time>
      </trkpt>
      <trkpt lat="59.9556185" lon="17.8365708">
        <ele>22.7283</ele>
        <time>2013-06-02T10:02:24Z</time>
      </trkpt>
      <trkpt lat="59.9556705" lon="17.8365386">
        <ele>22.2476</ele>
        <time>2013-06-02T10:02:25Z</time>
      </trkpt>
      <trkpt lat="59.9557225" lon="17.836509">
        <ele>22.7283</ele>
        <time>2013-06-02T10:02:26Z</time>
      </trkpt>
      <trkpt lat="59.9557743" lon="17.8364801">
        <ele>22.7283</ele>
        <time>2013-06-02T10:02:27Z</time>
      </trkpt>
      <trkpt lat="59.9558256" lon="17.836451">
        <ele>22.7283</ele>
        <time>2013-06-02T10:02:28Z</time>
      </trkpt>
      <trkpt lat="59.9558795" lon="17.8364197">
        <ele>24.1703</ele>
        <time>2013-06-02T10:02:29Z</time>
      </trkpt>
      <trkpt lat="59.9559307" lon="17.8363999">
        <ele>25.1317</ele>
        <time>2013-06-02T10:02:30Z</time>
      </trkpt>
      <trkpt lat="59.9559813" lon="17.8363791">
        <ele>25.6123</ele>
        <time>2013-06-02T10:02:31Z</time>
      </trkpt>
      <trkpt lat="59.9560324" lon="17.8363532">
        <ele>26.0929</ele>
        <time>2013-06-02T10:02:32Z</time>
      </trkpt>
      <trkpt lat="59.9560825" lon="17.8363268">
        <ele>27.0543</ele>
        <time>2013-06-02T10:02:33Z</time>
      </trkpt>
      <trkpt lat="59.9561325" lon="17.8363021">
        <ele>27.5349</ele>
        <time>2013-06-02T10:02:34Z</time>
      </trkpt>
      <trkpt lat="59.9561789" lon="17.8362805">
        <ele>28.4962</ele>
        <time>2013-06-02T10:02:35Z</time>
      </trkpt>
      <trkpt lat="59.9562279" lon="17.8362567">
        <ele>28.9769</ele>
        <time>2013-06-02T10:02:36Z</time>
      </trkpt>
      <trkpt lat="59.9562761" lon="17.8362335">
        <ele>29.9381</ele>
        <time>2013-06-02T10:02:37Z</time>
      </trkpt>
      <trkpt lat="59.9563252" lon="17.8362145">
        <ele>31.3801</ele>
        <time>2013-06-02T10:02:38Z</time>
      </trkpt>
      <trkpt lat="59.9563734" lon="17.8361916">
        <ele>31.3801</ele>
        <time>2013-06-02T10:02:39Z</time>
      </trkpt>
      <trkpt lat="59.9564197" lon="17.836178">
        <ele>31.8607</ele>
        <time>2013-06-02T10:02:40Z</time>
      </trkpt>
      <trkpt lat="59.9564675" lon="17.836161">
        <ele>32.3416</ele>
        <time>2013-06-02T10:02:41Z</time>
      </trkpt>
      <trkpt lat="59.9565171" lon="17.8361481">
        <ele>32.8223</ele>
        <time>2013-06-02T10:02:42Z</time>
      </trkpt>
      <trkpt lat="59.9565663" lon="17.8361384">
        <ele>33.3029</ele>
        <time>2013-06-02T10:02:43Z</time>
      </trkpt>
      <trkpt lat="59.956615" lon="17.8361287">
        <ele>32.8223</ele>
        <time>2013-06-02T10:02:44Z</time>
      </trkpt>
      <trkpt lat="59.9566654" lon="17.8361248">
        <ele>33.7834</ele>
        <time>2013-06-02T10:02:45Z</time>
      </trkpt>
      <trkpt lat="59.9567187" lon="17.8361118">
        <ele>34.2642</ele>
        <time>2013-06-02T10:02:46Z</time>
      </trkpt>
      <trkpt lat="59.9567678" lon="17.836108">
        <ele>34.7449</ele>
        <time>2013-06-02T10:02:47Z</time>
      </trkpt>
      <trkpt lat="59.956813" lon="17.836098">
        <ele>33.7834</ele>
        <time>2013-06-02T10:02:48Z</time>
      </trkpt>
      <trkpt lat="59.9568593" lon="17.8360873">
        <ele>33.7834</ele>
        <time>2013-06-02T10:02:49Z</time>
      </trkpt>
      <trkpt lat="59.9569045" lon="17.8360798">
        <ele>33.3029</ele>
        <time>2013-06-02T10:02:50Z</time>
      </trkpt>
      <trkpt lat="59.9569507" lon="17.8360767">
        <ele>32.8223</ele>
        <time>2013-06-02T10:02:51Z</time>
      </trkpt>
      <trkpt lat="59.9569982" lon="17.8360778">
        <ele>32.8223</ele>
        <time>2013-06-02T10:02:52Z</time>
      </trkpt>
      <trkpt lat="59.9570443" lon="17.8360901">
        <ele>34.2642</ele>
        <time>2013-06-02T10:02:53Z</time>
      </trkpt>
      <trkpt lat="59.9570925" lon="17.8360911">
        <ele>34.7449</ele>
        <time>2013-06-02T10:02:54Z</time>
      </trkpt>
      <trkpt lat="59.9571443" lon="17.8360937">
        <ele>36.1868</ele>
        <time>2013-06-02T10:02:55Z</time>
      </trkpt>
      <trkpt lat="59.9571967" lon="17.8360963">
        <ele>37.6287</ele>
        <time>2013-06-02T10:02:56Z</time>
      </trkpt>
      <trkpt lat="59.9572439" lon="17.8361026">
        <ele>37.1481</ele>
        <time>2013-06-02T10:02:57Z</time>
      </trkpt>
      <trkpt lat="59.9572931" lon="17.8361149">
        <ele>38.1094</ele>
        <time>2013-06-02T10:02:58Z</time>
      </trkpt>
      <trkpt lat="59.9573414" lon="17.8361279">
        <ele>38.1094</ele>
        <time>2013-06-02T10:02:59Z</time>
      </trkpt>
      <trkpt lat="59.957391" lon="17.8361377">
        <ele>38.1094</ele>
        <time>2013-06-02T10:03:00Z</time>
      </trkpt>
      <trkpt lat="59.9574395" lon="17.8361491">
        <ele>38.1094</ele>
        <time>2013-06-02T10:03:01Z</time>
      </trkpt>
      <trkpt lat="59.9574894" lon="17.8361538">
        <ele>38.1094</ele>
        <time>2013-06-02T10:03:02Z</time>
      </trkpt>
      <trkpt lat="59.9575341" lon="17.8361558">
        <ele>36.6675</ele>
        <time>2013-06-02T10:03:03Z</time>
      </trkpt>
      <trkpt lat="59.9575796" lon="17.8361572">
        <ele>35.2255</ele>
        <time>2013-06-02T10:03:04Z</time>
      </trkpt>
      <trkpt lat="59.9576276" lon="17.8361699">
        <ele>35.2255</ele>
        <time>2013-06-02T10:03:05Z</time>
      </trkpt>
      <trkpt lat="59.9576763" lon="17.8361801">
        <ele>34.7449</ele>
        <time>2013-06-02T10:03:06Z</time>
      </trkpt>
      <trkpt lat="59.9577259" lon="17.836188">
        <ele>34.7449</ele>
        <time>2013-06-02T10:03:07Z</time>
      </trkpt>
      <trkpt lat="59.9577772" lon="17.8361959">
        <ele>34.2642</ele>
        <time>2013-06-02T10:03:08Z</time>
      </trkpt>
      <trkpt lat="59.9578302" lon="17.8362046">
        <ele>34.2642</ele>
        <time>2013-06-02T10:03:09Z</time>
      </trkpt>
      <trkpt lat="59.9578836" lon="17.8362154">
        <ele>33.7834</ele>
        <time>2013-06-02T10:03:10Z</time>
      </trkpt>
      <trkpt lat="59.957937" lon="17.8362284">
        <ele>33.7834</ele>
        <time>2013-06-02T10:03:11Z</time>
      </trkpt>
      <trkpt lat="59.9579928" lon="17.8362382">
        <ele>33.7834</ele>
        <time>2013-06-02T10:03:12Z</time>
      </trkpt>
      <trkpt lat="59.958051" lon="17.8362468">
        <ele>33.7834</ele>
        <time>2013-06-02T10:03:13Z</time>
      </trkpt>
      <trkpt lat="59.9581104" lon="17.8362564">
        <ele>33.7834</ele>
        <time>2013-06-02T10:03:14Z</time>
      </trkpt>
      <trkpt lat="59.958168" lon="17.8362657">
        <ele>33.7834</ele>
        <time>2013-06-02T10:03:15Z</time>
      </trkpt>
      <trkpt lat="59.9582223" lon="17.8362702">
        <ele>31.8607</ele>
        <time>2013-06-02T10:03:16Z</time>
      </trkpt>
      <trkpt lat="59.9582802" lon="17.8362816">
        <ele>30.8995</ele>
        <time>2013-06-02T10:03:17Z</time>
      </trkpt>
      <trkpt lat="59.9583419" lon="17.8362931">
        <ele>30.4188</ele>
        <time>2013-06-02T10:03:18Z</time>
      </trkpt>
      <trkpt lat="59.9584056" lon="17.8363043">
        <ele>29.9381</ele>
        <time>2013-06-02T10:03:19Z</time>
      </trkpt>
      <trkpt lat="59.9584681" lon="17.8363103">
        <ele>28.9769</ele>
        <time>2013-06-02T10:03:20Z</time>
      </trkpt>
      <trkpt lat="59.9585364" lon="17.8363201">
        <ele>28.4962</ele>
        <time>2013-06-02T10:03:21Z</time>
      </trkpt>
      <trkpt lat="59.9586073" lon="17.836332">
        <ele>28.0155</ele>
        <time>2013-06-02T10:03:22Z</time>
      </trkpt>
      <trkpt lat="59.9586788" lon="17.8363438">
        <ele>27.5349</ele>
        <time>2013-06-02T10:03:23Z</time>
      </trkpt>
      <trkpt lat="59.958748" lon="17.836352">
        <ele>26.5736</ele>
        <time>2013-06-02T10:03:24Z</time>
      </trkpt>
      <trkpt lat="59.9588189" lon="17.8363657">
        <ele>26.5736</ele>
        <time>2013-06-02T10:03:25Z</time>
      </trkpt>
      <trkpt lat="59.9588886" lon="17.8363766">
        <ele>26.0929</ele>
        <time>2013-06-02T10:03:26Z</time>
      </trkpt>
      <trkpt lat="59.9589576" lon="17.8363921">
        <ele>26.5736</ele>
        <time>2013-06-02T10:03:27Z</time>
      </trkpt>
      <trkpt lat="59.9590244" lon="17.836404">
        <ele>26.5736</ele>
        <time>2013-06-02T10:03:28Z</time>
      </trkpt>
      <trkpt lat="59.9590906" lon="17.8364143">
        <ele>26.5736</ele>
        <time>2013-06-02T10:03:29Z</time>
      </trkpt>
      <trkpt lat="59.9591559" lon="17.8364242">
        <ele>26.5736</ele>
        <time>2013-06-02T10:03:30Z</time>
      </trkpt>
      <trkpt lat="59.9592216" lon="17.836436">
        <ele>27.0543</ele>
        <time>2013-06-02T10:03:31Z</time>
      </trkpt>
      <trkpt lat="59.9592869" lon="17.836448">
        <ele>27.5349</ele>
        <time>2013-06-02T10:03:32Z</time>
      </trkpt>
      <trkpt lat="59.9593516" lon="17.8364615">
        <ele>27.5349</ele>
        <time>2013-06-02T10:03:33Z</time>
      </trkpt>
      <trkpt lat="59.9594164" lon="17.8364765">
        <ele>28.0155</ele>
        <time>2013-06-02T10:03:34Z</time>
      </trkpt>
      <trkpt lat="59.9594812" lon="17.8364895">
        <ele>28.0155</ele>
        <time>2013-06-02T10:03:35Z</time>
      </trkpt>
      <trkpt lat="59.9595444" lon="17.8364988">
        <ele>27.5349</ele>
        <time>2013-06-02T10:03:36Z</time>
      </trkpt>
      <trkpt lat="59.9596096" lon="17.8365046">
        <ele>28.0155</ele>
        <time>2013-06-02T10:03:37Z</time>
      </trkpt>
      <trkpt lat="59.9596739" lon="17.8365138">
        <ele>28.0155</ele>
        <time>2013-06-02T10:03:38Z</time>
      </trkpt>
      <trkpt lat="59.9597397" lon="17.8365304">
        <ele>29.4575</ele>
        <time>2013-06-02T10:03:39Z</time>
      </trkpt>
      <trkpt lat="59.9598023" lon="17.8365443">
        <ele>29.4575</ele>
        <time>2013-06-02T10:03:40Z</time>
      </trkpt>
      <trkpt lat="59.959864" lon="17.8365569">
        <ele>29.4575</ele>
        <time>2013-06-02T10:03:41Z</time>
      </trkpt>
      <trkpt lat="59.9599261" lon="17.8365716">
        <ele>29.4575</ele>
        <time>2013-06-02T10:03:42Z</time>
      </trkpt>
      <trkpt lat="59.9599867" lon="17.8365827">
        <ele>29.4575</ele>
        <time>2013-06-02T10:03:43Z</time>
      </trkpt>
      <trkpt lat="59.960048" lon="17.8365915">
        <ele>29.4575</ele>
        <time>2013-06-02T10:03:44Z</time>
      </trkpt>
      <trkpt lat="59.96011" lon="17.8366019">
        <ele>29.4575</ele>
        <time>2013-06-02T10:03:45Z</time>
      </trkpt>
      <trkpt lat="59.9601721" lon="17.8366097">
        <ele>28.9769</ele>
        <time>2013-06-02T10:03:46Z</time>
      </trkpt>
      <trkpt lat="59.9602365" lon="17.83662">
        <ele>28.9769</ele>
        <time>2013-06-02T10:03:47Z</time>
      </trkpt>
      <trkpt lat="59.9603053" lon="17.8366387">
        <ele>30.8995</ele>
        <time>2013-06-02T10:03:48Z</time>
      </trkpt>
      <trkpt lat="59.9603707" lon="17.8366578">
        <ele>31.8607</ele>
        <time>2013-06-02T10:03:49Z</time>
      </trkpt>
      <trkpt lat="59.9604343" lon="17.8366753">
        <ele>32.3416</ele>
        <time>2013-06-02T10:03:50Z</time>
      </trkpt>
      <trkpt lat="59.9604892" lon="17.836675">
        <ele>30.4188</ele>
        <time>2013-06-02T10:03:51Z</time>
      </trkpt>
      <trkpt lat="59.9605496" lon="17.8366747">
        <ele>30.4188</ele>
        <time>2013-06-02T10:03:52Z</time>
      </trkpt>
      <trkpt lat="59.9606073" lon="17.8366875">
        <ele>29.9381</ele>
        <time>2013-06-02T10:03:53Z</time>
      </trkpt>
      <trkpt lat="59.9606704" lon="17.8367125">
        <ele>30.8995</ele>
        <time>2013-06-02T10:03:54Z</time>
      </trkpt>
      <trkpt lat="59.9607302" lon="17.8367301">
        <ele>32.3416</ele>
        <time>2013-06-02T10:03:55Z</time>
      </trkpt>
      <trkpt lat="59.9607871" lon="17.8367511">
        <ele>31.3801</ele>
        <time>2013-06-02T10:03:56Z</time>
      </trkpt>
      <trkpt lat="59.9608468" lon="17.8367826">
        <ele>31.3801</ele>
        <time>2013-06-02T10:03:57Z</time>
      </trkpt>
      <trkpt lat="59.9609058" lon="17.83682">
        <ele>31.3801</ele>
        <time>2013-06-02T10:03:58Z</time>
      </trkpt>
      <trkpt lat="59.9609623" lon="17.8368534">
        <ele>30.4188</ele>
        <time>2013-06-02T10:03:59Z</time>
      </trkpt>
      <trkpt lat="59.9610237" lon="17.8368918">
        <ele>30.4188</ele>
        <time>2013-06-02T10:04:00Z</time>
      </trkpt>
      <trkpt lat="59.9610834" lon="17.8369273">
        <ele>29.9381</ele>
        <time>2013-06-02T10:04:01Z</time>
      </trkpt>
      <trkpt lat="59.9611357" lon="17.8369671">
        <ele>29.4575</ele>
        <time>2013-06-02T10:04:02Z</time>
      </trkpt>
      <trkpt lat="59.961192" lon="17.8370123">
        <ele>29.4575</ele>
        <time>2013-06-02T10:04:03Z</time>
      </trkpt>
      <trkpt lat="59.961245" lon="17.8370633">
        <ele>29.4575</ele>
        <time>2013-06-02T10:04:04Z</time>
      </trkpt>
      <trkpt lat="59.961299" lon="17.8371143">
        <ele>29.4575</ele>
        <time>2013-06-02T10:04:05Z</time>
      </trkpt>
      <trkpt lat="59.9613537" lon="17.8371711">
        <ele>29.9381</ele>
        <time>2013-06-02T10:04:06Z</time>
      </trkpt>
      <trkpt lat="59.9614051" lon="17.8372275">
        <ele>29.9381</ele>
        <time>2013-06-02T10:04:07Z</time>
      </trkpt>
      <trkpt lat="59.9614653" lon="17.8372757">
        <ele>29.9381</ele>
        <time>2013-06-02T10:04:08Z</time>
      </trkpt>
      <trkpt lat="59.961525" lon="17.8373208">
        <ele>28.4962</ele>
        <time>2013-06-02T10:04:09Z</time>
      </trkpt>
      <trkpt lat="59.9615827" lon="17.8373688">
        <ele>27.5349</ele>
        <time>2013-06-02T10:04:10Z</time>
      </trkpt>
      <trkpt lat="59.9616392" lon="17.8374238">
        <ele>27.0543</ele>
        <time>2013-06-02T10:04:11Z</time>
      </trkpt>
      <trkpt lat="59.9616978" lon="17.8374769">
        <ele>27.0543</ele>
        <time>2013-06-02T10:04:12Z</time>
      </trkpt>
      <trkpt lat="59.9617568" lon="17.8375259">
        <ele>25.6123</ele>
        <time>2013-06-02T10:04:13Z</time>
      </trkpt>
      <trkpt lat="59.9618184" lon="17.8375809">
        <ele>25.6123</ele>
        <time>2013-06-02T10:04:14Z</time>
      </trkpt>
      <trkpt lat="59.9618811" lon="17.8376369">
        <ele>25.1317</ele>
        <time>2013-06-02T10:04:15Z</time>
      </trkpt>
      <trkpt lat="59.9619489" lon="17.837695">
        <ele>25.1317</ele>
        <time>2013-06-02T10:04:16Z</time>
      </trkpt>
      <trkpt lat="59.9620169" lon="17.837755">
        <ele>25.6123</ele>
        <time>2013-06-02T10:04:17Z</time>
      </trkpt>
      <trkpt lat="59.9620841" lon="17.8378178">
        <ele>25.6123</ele>
        <time>2013-06-02T10:04:18Z</time>
      </trkpt>
      <trkpt lat="59.9621509" lon="17.8378776">
        <ele>25.1317</ele>
        <time>2013-06-02T10:04:19Z</time>
      </trkpt>
      <trkpt lat="59.9622164" lon="17.8379368">
        <ele>25.1317</ele>
        <time>2013-06-02T10:04:20Z</time>
      </trkpt>
      <trkpt lat="59.9622871" lon="17.8379991">
        <ele>25.6123</ele>
        <time>2013-06-02T10:04:21Z</time>
      </trkpt>
      <trkpt lat="59.9623546" lon="17.8380599">
        <ele>25.6123</ele>
        <time>2013-06-02T10:04:22Z</time>
      </trkpt>
      <trkpt lat="59.9624214" lon="17.8381154">
        <ele>25.1317</ele>
        <time>2013-06-02T10:04:23Z</time>
      </trkpt>
      <trkpt lat="59.9624896" lon="17.8381652">
        <ele>24.651</ele>
        <time>2013-06-02T10:04:24Z</time>
      </trkpt>
      <trkpt lat="59.9625595" lon="17.8382144">
        <ele>24.1703</ele>
        <time>2013-06-02T10:04:25Z</time>
      </trkpt>
      <trkpt lat="59.9626286" lon="17.838261">
        <ele>24.1703</ele>
        <time>2013-06-02T10:04:26Z</time>
      </trkpt>
      <trkpt lat="59.9626981" lon="17.8383023">
        <ele>24.1703</ele>
        <time>2013-06-02T10:04:27Z</time>
      </trkpt>
      <trkpt lat="59.9627664" lon="17.8383403">
        <ele>24.1703</ele>
        <time>2013-06-02T10:04:28Z</time>
      </trkpt>
      <trkpt lat="59.9628332" lon="17.8383745">
        <ele>24.1703</ele>
        <time>2013-06-02T10:04:29Z</time>
      </trkpt>
      <trkpt lat="59.9628993" lon="17.8384052">
        <ele>24.1703</ele>
        <time>2013-06-02T10:04:30Z</time>
      </trkpt>
      <trkpt lat="59.9629625" lon="17.8384342">
        <ele>24.1703</ele>
        <time>2013-06-02T10:04:31Z</time>
      </trkpt>
      <trkpt lat="59.9630233" lon="17.8384564">
        <ele>22.7283</ele>
        <time>2013-06-02T10:04:32Z</time>
      </trkpt>
      <trkpt lat="59.9630869" lon="17.8384739">
        <ele>22.2476</ele>
        <time>2013-06-02T10:04:33Z</time>
      </trkpt>
      <trkpt lat="59.9631523" lon="17.8384854">
        <ele>21.767</ele>
        <time>2013-06-02T10:04:34Z</time>
      </trkpt>
      <trkpt lat="59.9632172" lon="17.8384997">
        <ele>20.8057</ele>
        <time>2013-06-02T10:04:35Z</time>
      </trkpt>
      <trkpt lat="59.9632811" lon="17.8385134">
        <ele>19.8444</ele>
        <time>2013-06-02T10:04:36Z</time>
      </trkpt>
      <trkpt lat="59.9633438" lon="17.8385252">
        <ele>19.3638</ele>
        <time>2013-06-02T10:04:37Z</time>
      </trkpt>
      <trkpt lat="59.9634093" lon="17.8385325">
        <ele>18.8831</ele>
        <time>2013-06-02T10:04:38Z</time>
      </trkpt>
      <trkpt lat="59.9634788" lon="17.8385335">
        <ele>18.4023</ele>
        <time>2013-06-02T10:04:39Z</time>
      </trkpt>
      <trkpt lat="59.9635469" lon="17.8385315">
        <ele>17.4412</ele>
        <time>2013-06-02T10:04:40Z</time>
      </trkpt>
      <trkpt lat="59.963615" lon="17.8385356">
        <ele>16.4797</ele>
        <time>2013-06-02T10:04:41Z</time>
      </trkpt>
      <trkpt lat="59.9636816" lon="17.8385418">
        <ele>15.999</ele>
        <time>2013-06-02T10:04:42Z</time>
      </trkpt>
      <trkpt lat="59.9637475" lon="17.8385496">
        <ele>15.5184</ele>
        <time>2013-06-02T10:04:43Z</time>
      </trkpt>
      <trkpt lat="59.9638122" lon="17.8385589">
        <ele>15.0377</ele>
        <time>2013-06-02T10:04:44Z</time>
      </trkpt>
      <trkpt lat="59.9638774" lon="17.8385724">
        <ele>15.0377</ele>
        <time>2013-06-02T10:04:45Z</time>
      </trkpt>
      <trkpt lat="59.9639454" lon="17.8385813">
        <ele>15.0377</ele>
        <time>2013-06-02T10:04:46Z</time>
      </trkpt>
      <trkpt lat="59.9640152" lon="17.8385874">
        <ele>15.5184</ele>
        <time>2013-06-02T10:04:47Z</time>
      </trkpt>
      <trkpt lat="59.9640827" lon="17.8385998">
        <ele>15.5184</ele>
        <time>2013-06-02T10:04:48Z</time>
      </trkpt>
      <trkpt lat="59.9641506" lon="17.8386101">
        <ele>15.5184</ele>
        <time>2013-06-02T10:04:49Z</time>
      </trkpt>
      <trkpt lat="59.9642162" lon="17.8386233">
        <ele>15.5184</ele>
        <time>2013-06-02T10:04:50Z</time>
      </trkpt>
      <trkpt lat="59.9642785" lon="17.8386355">
        <ele>15.0377</ele>
        <time>2013-06-02T10:04:51Z</time>
      </trkpt>
      <trkpt lat="59.9643396" lon="17.8386485">
        <ele>14.0764</ele>
        <time>2013-06-02T10:04:52Z</time>
      </trkpt>
      <trkpt lat="59.9644026" lon="17.838662">
        <ele>13.1151</ele>
        <time>2013-06-02T10:04:53Z</time>
      </trkpt>
      <trkpt lat="59.964467" lon="17.8386754">
        <ele>13.1151</ele>
        <time>2013-06-02T10:04:54Z</time>
      </trkpt>
      <trkpt lat="59.9645367" lon="17.8386849">
        <ele>13.5958</ele>
        <time>2013-06-02T10:04:55Z</time>
      </trkpt>
      <trkpt lat="59.9646043" lon="17.8386967">
        <ele>14.0764</ele>
        <time>2013-06-02T10:04:56Z</time>
      </trkpt>
      <trkpt lat="59.9646709" lon="17.8387063">
        <ele>14.0764</ele>
        <time>2013-06-02T10:04:57Z</time>
      </trkpt>
      <trkpt lat="59.9647369" lon="17.838715">
        <ele>14.557</ele>
        <time>2013-06-02T10:04:58Z</time>
      </trkpt>
      <trkpt lat="59.964802" lon="17.8387235">
        <ele>14.557</ele>
        <time>2013-06-02T10:04:59Z</time>
      </trkpt>
      <trkpt lat="59.9648669" lon="17.8387346">
        <ele>14.557</ele>
        <time>2013-06-02T10:05:00Z</time>
      </trkpt>
      <trkpt lat="59.9649311" lon="17.8387465">
        <ele>14.557</ele>
        <time>2013-06-02T10:05:01Z</time>
      </trkpt>
      <trkpt lat="59.9649962" lon="17.8387573">
        <ele>15.0377</ele>
        <time>2013-06-02T10:05:02Z</time>
      </trkpt>
      <trkpt lat="59.9650617" lon="17.8387686">
        <ele>15.0377</ele>
        <time>2013-06-02T10:05:03Z</time>
      </trkpt>
      <trkpt lat="59.9651284" lon="17.8387804">
        <ele>15.0377</ele>
        <time>2013-06-02T10:05:04Z</time>
      </trkpt>
      <trkpt lat="59.9651949" lon="17.8387926">
        <ele>15.0377</ele>
        <time>2013-06-02T10:05:05Z</time>
      </trkpt>
      <trkpt lat="59.9652625" lon="17.8388065">
        <ele>15.0377</ele>
        <time>2013-06-02T10:05:06Z</time>
      </trkpt>
      <trkpt lat="59.9653296" lon="17.8388193">
        <ele>15.0377</ele>
        <time>2013-06-02T10:05:07Z</time>
      </trkpt>
      <trkpt lat="59.9653953" lon="17.8388309">
        <ele>15.0377</ele>
        <time>2013-06-02T10:05:08Z</time>
      </trkpt>
      <trkpt lat="59.9654619" lon="17.8388439">
        <ele>15.5184</ele>
        <time>2013-06-02T10:05:09Z</time>
      </trkpt>
      <trkpt lat="59.9655282" lon="17.8388574">
        <ele>15.999</ele>
        <time>2013-06-02T10:05:10Z</time>
      </trkpt>
      <trkpt lat="59.9655945" lon="17.8388728">
        <ele>15.999</ele>
        <time>2013-06-02T10:05:11Z</time>
      </trkpt>
      <trkpt lat="59.9656603" lon="17.8388867">
        <ele>15.999</ele>
        <time>2013-06-02T10:05:12Z</time>
      </trkpt>
      <trkpt lat="59.9657253" lon="17.838899">
        <ele>15.999</ele>
        <time>2013-06-02T10:05:13Z</time>
      </trkpt>
      <trkpt lat="59.9657912" lon="17.8389117">
        <ele>15.999</ele>
        <time>2013-06-02T10:05:14Z</time>
      </trkpt>
      <trkpt lat="59.9658577" lon="17.8389257">
        <ele>16.4797</ele>
        <time>2013-06-02T10:05:15Z</time>
      </trkpt>
      <trkpt lat="59.9659229" lon="17.8389371">
        <ele>16.4797</ele>
        <time>2013-06-02T10:05:16Z</time>
      </trkpt>
      <trkpt lat="59.9659892" lon="17.8389494">
        <ele>16.9604</ele>
        <time>2013-06-02T10:05:17Z</time>
      </trkpt>
      <trkpt lat="59.9660553" lon="17.838963">
        <ele>16.9604</ele>
        <time>2013-06-02T10:05:18Z</time>
      </trkpt>
      <trkpt lat="59.9661234" lon="17.8389763">
        <ele>17.4412</ele>
        <time>2013-06-02T10:05:19Z</time>
      </trkpt>
      <trkpt lat="59.96619" lon="17.8389881">
        <ele>17.4412</ele>
        <time>2013-06-02T10:05:20Z</time>
      </trkpt>
      <trkpt lat="59.9662557" lon="17.8390009">
        <ele>17.4412</ele>
        <time>2013-06-02T10:05:21Z</time>
      </trkpt>
      <trkpt lat="59.966322" lon="17.8390159">
        <ele>17.4412</ele>
        <time>2013-06-02T10:05:22Z</time>
      </trkpt>
      <trkpt lat="59.9663887" lon="17.8390303">
        <ele>17.9218</ele>
        <time>2013-06-02T10:05:23Z</time>
      </trkpt>
      <trkpt lat="59.9664547" lon="17.8390437">
        <ele>17.9218</ele>
        <time>2013-06-02T10:05:24Z</time>
      </trkpt>
      <trkpt lat="59.9665203" lon="17.8390586">
        <ele>17.9218</ele>
        <time>2013-06-02T10:05:25Z</time>
      </trkpt>
      <trkpt lat="59.9665866" lon="17.8390754">
        <ele>18.4023</ele>
        <time>2013-06-02T10:05:26Z</time>
      </trkpt>
      <trkpt lat="59.9666549" lon="17.8390909">
        <ele>18.4023</ele>
        <time>2013-06-02T10:05:27Z</time>
      </trkpt>
      <trkpt lat="59.9667219" lon="17.8391037">
        <ele>18.8831</ele>
        <time>2013-06-02T10:05:28Z</time>
      </trkpt>
      <trkpt lat="59.9667877" lon="17.8391215">
        <ele>18.8831</ele>
        <time>2013-06-02T10:05:29Z</time>
      </trkpt>
      <trkpt lat="59.96685" lon="17.8391459">
        <ele>19.3638</ele>
        <time>2013-06-02T10:05:30Z</time>
      </trkpt>
      <trkpt lat="59.966911" lon="17.8391706">
        <ele>19.8444</ele>
        <time>2013-06-02T10:05:31Z</time>
      </trkpt>
      <trkpt lat="59.9669712" lon="17.8391954">
        <ele>19.3638</ele>
        <time>2013-06-02T10:05:32Z</time>
      </trkpt>
      <trkpt lat="59.9670297" lon="17.8392249">
        <ele>18.8831</ele>
        <time>2013-06-02T10:05:33Z</time>
      </trkpt>
      <trkpt lat="59.967085" lon="17.8392556">
        <ele>18.4023</ele>
        <time>2013-06-02T10:05:34Z</time>
      </trkpt>
      <trkpt lat="59.96714" lon="17.8392893">
        <ele>17.4412</ele>
        <time>2013-06-02T10:05:35Z</time>
      </trkpt>
      <trkpt lat="59.9671978" lon="17.8393354">
        <ele>18.8831</ele>
        <time>2013-06-02T10:05:36Z</time>
      </trkpt>
      <trkpt lat="59.9672518" lon="17.8393723">
        <ele>19.3638</ele>
        <time>2013-06-02T10:05:37Z</time>
      </trkpt>
      <trkpt lat="59.9673058" lon="17.8394219">
        <ele>20.325</ele>
        <time>2013-06-02T10:05:38Z</time>
      </trkpt>
      <trkpt lat="59.9673606" lon="17.8394652">
        <ele>21.2864</ele>
        <time>2013-06-02T10:05:39Z</time>
      </trkpt>
      <trkpt lat="59.9674041" lon="17.8395323">
        <ele>22.2476</ele>
        <time>2013-06-02T10:05:40Z</time>
      </trkpt>
      <trkpt lat="59.9674513" lon="17.8395865">
        <ele>22.7283</ele>
        <time>2013-06-02T10:05:41Z</time>
      </trkpt>
      <trkpt lat="59.9675032" lon="17.8396192">
        <ele>22.7283</ele>
        <time>2013-06-02T10:05:42Z</time>
      </trkpt>
      <trkpt lat="59.9675568" lon="17.8396598">
        <ele>23.209</ele>
        <time>2013-06-02T10:05:43Z</time>
      </trkpt>
      <trkpt lat="59.9676174" lon="17.8396878">
        <ele>23.209</ele>
        <time>2013-06-02T10:05:44Z</time>
      </trkpt>
      <trkpt lat="59.9676793" lon="17.8397155">
        <ele>23.209</ele>
        <time>2013-06-02T10:05:45Z</time>
      </trkpt>
      <trkpt lat="59.9677345" lon="17.8397571">
        <ele>22.7283</ele>
        <time>2013-06-02T10:05:46Z</time>
      </trkpt>
      <trkpt lat="59.9677937" lon="17.8397975">
        <ele>23.209</ele>
        <time>2013-06-02T10:05:47Z</time>
      </trkpt>
      <trkpt lat="59.9678547" lon="17.8398358">
        <ele>23.6896</ele>
        <time>2013-06-02T10:05:48Z</time>
      </trkpt>
      <trkpt lat="59.967917" lon="17.8398696">
        <ele>24.1703</ele>
        <time>2013-06-02T10:05:49Z</time>
      </trkpt>
      <trkpt lat="59.9679829" lon="17.8398971">
        <ele>24.651</ele>
        <time>2013-06-02T10:05:50Z</time>
      </trkpt>
      <trkpt lat="59.9680424" lon="17.839928">
        <ele>23.6896</ele>
        <time>2013-06-02T10:05:51Z</time>
      </trkpt>
      <trkpt lat="59.9681027" lon="17.8399575">
        <ele>23.6896</ele>
        <time>2013-06-02T10:05:52Z</time>
      </trkpt>
      <trkpt lat="59.9681661" lon="17.8399927">
        <ele>23.6896</ele>
        <time>2013-06-02T10:05:53Z</time>
      </trkpt>
      <trkpt lat="59.9682351" lon="17.8400255">
        <ele>24.1703</ele>
        <time>2013-06-02T10:05:54Z</time>
      </trkpt>
      <trkpt lat="59.9683034" lon="17.8400586">
        <ele>24.651</ele>
        <time>2013-06-02T10:05:55Z</time>
      </trkpt>
      <trkpt lat="59.9683723" lon="17.840092">
        <ele>25.1317</ele>
        <time>2013-06-02T10:05:56Z</time>
      </trkpt>
      <trkpt lat="59.9684506" lon="17.8400933">
        <ele>24.651</ele>
        <time>2013-06-02T10:05:57Z</time>
      </trkpt>
      <trkpt lat="59.9685221" lon="17.8401179">
        <ele>24.1703</ele>
        <time>2013-06-02T10:05:58Z</time>
      </trkpt>
      <trkpt lat="59.9686" lon="17.8401316">
        <ele>23.209</ele>
        <time>2013-06-02T10:05:59Z</time>
      </trkpt>
      <trkpt lat="59.9686701" lon="17.840186">
        <ele>24.1703</ele>
        <time>2013-06-02T10:06:00Z</time>
      </trkpt>
      <trkpt lat="59.9687328" lon="17.8402073">
        <ele>23.6896</ele>
        <time>2013-06-02T10:06:01Z</time>
      </trkpt>
      <trkpt lat="59.9687918" lon="17.8402517">
        <ele>23.6896</ele>
        <time>2013-06-02T10:06:02Z</time>
      </trkpt>
      <trkpt lat="59.9688592" lon="17.8402854">
        <ele>23.209</ele>
        <time>2013-06-02T10:06:03Z</time>
      </trkpt>
      <trkpt lat="59.9689239" lon="17.840316">
        <ele>22.2476</ele>
        <time>2013-06-02T10:06:04Z</time>
      </trkpt>
      <trkpt lat="59.9689837" lon="17.8403548">
        <ele>21.2864</ele>
        <time>2013-06-02T10:06:05Z</time>
      </trkpt>
      <trkpt lat="59.9690486" lon="17.8403884">
        <ele>21.767</ele>
        <time>2013-06-02T10:06:06Z</time>
      </trkpt>
      <trkpt lat="59.9691094" lon="17.8404201">
        <ele>21.2864</ele>
        <time>2013-06-02T10:06:07Z</time>
      </trkpt>
      <trkpt lat="59.9691675" lon="17.8404449">
        <ele>20.8057</ele>
        <time>2013-06-02T10:06:08Z</time>
      </trkpt>
      <trkpt lat="59.969225" lon="17.8404689">
        <ele>20.8057</ele>
        <time>2013-06-02T10:06:09Z</time>
      </trkpt>
      <trkpt lat="59.9692845" lon="17.8404924">
        <ele>21.2864</ele>
        <time>2013-06-02T10:06:10Z</time>
      </trkpt>
      <trkpt lat="59.9693436" lon="17.8405126">
        <ele>21.767</ele>
        <time>2013-06-02T10:06:11Z</time>
      </trkpt>
      <trkpt lat="59.9694009" lon="17.8405309">
        <ele>21.2864</ele>
        <time>2013-06-02T10:06:12Z</time>
      </trkpt>
      <trkpt lat="59.969455" lon="17.8405492">
        <ele>20.325</ele>
        <time>2013-06-02T10:06:13Z</time>
      </trkpt>
      <trkpt lat="59.9695114" lon="17.8405696">
        <ele>19.8444</ele>
        <time>2013-06-02T10:06:14Z</time>
      </trkpt>
      <trkpt lat="59.9695746" lon="17.8405896">
        <ele>20.8057</ele>
        <time>2013-06-02T10:06:15Z</time>
      </trkpt>
      <trkpt lat="59.9696341" lon="17.8406047">
        <ele>20.8057</ele>
        <time>2013-06-02T10:06:16Z</time>
      </trkpt>
      <trkpt lat="59.9696931" lon="17.8406211">
        <ele>20.8057</ele>
        <time>2013-06-02T10:06:17Z</time>
      </trkpt>
      <trkpt lat="59.969755" lon="17.8406347">
        <ele>20.8057</ele>
        <time>2013-06-02T10:06:18Z</time>
      </trkpt>
      <trkpt lat="59.9698187" lon="17.840651">
        <ele>21.2864</ele>
        <time>2013-06-02T10:06:19Z</time>
      </trkpt>
      <trkpt lat="59.9698829" lon="17.8406666">
        <ele>21.2864</ele>
        <time>2013-06-02T10:06:20Z</time>
      </trkpt>
      <trkpt lat="59.9699501" lon="17.8406727">
        <ele>22.2476</ele>
        <time>2013-06-02T10:06:21Z</time>
      </trkpt>
      <trkpt lat="59.970016" lon="17.8406797">
        <ele>23.209</ele>
        <time>2013-06-02T10:06:22Z</time>
      </trkpt>
      <trkpt lat="59.9700784" lon="17.8406911">
        <ele>23.209</ele>
        <time>2013-06-02T10:06:23Z</time>
      </trkpt>
      <trkpt lat="59.9701392" lon="17.8407002">
        <ele>23.209</ele>
        <time>2013-06-02T10:06:24Z</time>
      </trkpt>
      <trkpt lat="59.9701996" lon="17.8407087">
        <ele>23.209</ele>
        <time>2013-06-02T10:06:25Z</time>
      </trkpt>
      <trkpt lat="59.9702593" lon="17.840718">
        <ele>23.209</ele>
        <time>2013-06-02T10:06:26Z</time>
      </trkpt>
      <trkpt lat="59.9703194" lon="17.8407258">
        <ele>22.7283</ele>
        <time>2013-06-02T10:06:27Z</time>
      </trkpt>
      <trkpt lat="59.9703822" lon="17.8407283">
        <ele>22.2476</ele>
        <time>2013-06-02T10:06:28Z</time>
      </trkpt>
      <trkpt lat="59.9704449" lon="17.8407356">
        <ele>21.767</ele>
        <time>2013-06-02T10:06:29Z</time>
      </trkpt>
      <trkpt lat="59.9705081" lon="17.8407449">
        <ele>21.2864</ele>
        <time>2013-06-02T10:06:30Z</time>
      </trkpt>
      <trkpt lat="59.9705698" lon="17.8407574">
        <ele>20.8057</ele>
        <time>2013-06-02T10:06:31Z</time>
      </trkpt>
      <trkpt lat="59.9706351" lon="17.8407717">
        <ele>20.8057</ele>
        <time>2013-06-02T10:06:32Z</time>
      </trkpt>
      <trkpt lat="59.9707029" lon="17.8407838">
        <ele>20.325</ele>
        <time>2013-06-02T10:06:33Z</time>
      </trkpt>
      <trkpt lat="59.9707695" lon="17.8407957">
        <ele>19.3638</ele>
        <time>2013-06-02T10:06:34Z</time>
      </trkpt>
      <trkpt lat="59.9708375" lon="17.8408132">
        <ele>19.3638</ele>
        <time>2013-06-02T10:06:35Z</time>
      </trkpt>
      <trkpt lat="59.9709075" lon="17.8408324">
        <ele>19.3638</ele>
        <time>2013-06-02T10:06:36Z</time>
      </trkpt>
      <trkpt lat="59.9709794" lon="17.8408449">
        <ele>18.4023</ele>
        <time>2013-06-02T10:06:37Z</time>
      </trkpt>
      <trkpt lat="59.9710566" lon="17.84086">
        <ele>17.9218</ele>
        <time>2013-06-02T10:06:38Z</time>
      </trkpt>
      <trkpt lat="59.9711346" lon="17.8408719">
        <ele>16.4797</ele>
        <time>2013-06-02T10:06:39Z</time>
      </trkpt>
      <trkpt lat="59.9712173" lon="17.8408899">
        <ele>16.4797</ele>
        <time>2013-06-02T10:06:40Z</time>
      </trkpt>
      <trkpt lat="59.9713006" lon="17.8409112">
        <ele>16.9604</ele>
        <time>2013-06-02T10:06:41Z</time>
      </trkpt>
      <trkpt lat="59.9713834" lon="17.840937">
        <ele>17.4412</ele>
        <time>2013-06-02T10:06:42Z</time>
      </trkpt>
      <trkpt lat="59.9714651" lon="17.8409687">
        <ele>17.9218</ele>
        <time>2013-06-02T10:06:43Z</time>
      </trkpt>
      <trkpt lat="59.9715441" lon="17.841004">
        <ele>18.4023</ele>
        <time>2013-06-02T10:06:44Z</time>
      </trkpt>
      <trkpt lat="59.9716187" lon="17.8410483">
        <ele>19.3638</ele>
        <time>2013-06-02T10:06:45Z</time>
      </trkpt>
      <trkpt lat="59.9716905" lon="17.8410964">
        <ele>19.8444</ele>
        <time>2013-06-02T10:06:46Z</time>
      </trkpt>
      <trkpt lat="59.9717601" lon="17.8411491">
        <ele>20.325</ele>
        <time>2013-06-02T10:06:47Z</time>
      </trkpt>
      <trkpt lat="59.9718298" lon="17.8412494">
        <ele>21.767</ele>
        <time>2013-06-02T10:06:48Z</time>
      </trkpt>
      <trkpt lat="59.9718995" lon="17.8413179">
        <ele>23.209</ele>
        <time>2013-06-02T10:06:49Z</time>
      </trkpt>
      <trkpt lat="59.9719721" lon="17.8413873">
        <ele>24.1703</ele>
        <time>2013-06-02T10:06:50Z</time>
      </trkpt>
      <trkpt lat="59.9720399" lon="17.8414651">
        <ele>24.651</ele>
        <time>2013-06-02T10:06:51Z</time>
      </trkpt>
      <trkpt lat="59.9721061" lon="17.8415482">
        <ele>26.0929</ele>
        <time>2013-06-02T10:06:52Z</time>
      </trkpt>
      <trkpt lat="59.9721718" lon="17.8416276">
        <ele>26.0929</ele>
        <time>2013-06-02T10:06:53Z</time>
      </trkpt>
      <trkpt lat="59.9722376" lon="17.8417095">
        <ele>26.5736</ele>
        <time>2013-06-02T10:06:54Z</time>
      </trkpt>
      <trkpt lat="59.9723003" lon="17.8417914">
        <ele>26.5736</ele>
        <time>2013-06-02T10:06:55Z</time>
      </trkpt>
      <trkpt lat="59.9723618" lon="17.8418745">
        <ele>27.0543</ele>
        <time>2013-06-02T10:06:56Z</time>
      </trkpt>
      <trkpt lat="59.9724251" lon="17.8419571">
        <ele>27.5349</ele>
        <time>2013-06-02T10:06:57Z</time>
      </trkpt>
      <trkpt lat="59.9724835" lon="17.842041">
        <ele>28.0155</ele>
        <time>2013-06-02T10:06:58Z</time>
      </trkpt>
      <trkpt lat="59.9725406" lon="17.8421275">
        <ele>28.4962</ele>
        <time>2013-06-02T10:06:59Z</time>
      </trkpt>
      <trkpt lat="59.9725925" lon="17.842212">
        <ele>28.4962</ele>
        <time>2013-06-02T10:07:00Z</time>
      </trkpt>
      <trkpt lat="59.972648" lon="17.8422925">
        <ele>28.4962</ele>
        <time>2013-06-02T10:07:01Z</time>
      </trkpt>
      <trkpt lat="59.9727053" lon="17.8423694">
        <ele>28.4962</ele>
        <time>2013-06-02T10:07:02Z</time>
      </trkpt>
      <trkpt lat="59.9727644" lon="17.8424444">
        <ele>28.4962</ele>
        <time>2013-06-02T10:07:03Z</time>
      </trkpt>
      <trkpt lat="59.9728183" lon="17.8425253">
        <ele>28.4962</ele>
        <time>2013-06-02T10:07:04Z</time>
      </trkpt>
      <trkpt lat="59.9728757" lon="17.8426015">
        <ele>28.4962</ele>
        <time>2013-06-02T10:07:05Z</time>
      </trkpt>
      <trkpt lat="59.9729342" lon="17.8426761">
        <ele>28.4962</ele>
        <time>2013-06-02T10:07:06Z</time>
      </trkpt>
      <trkpt lat="59.9729936" lon="17.8427508">
        <ele>28.4962</ele>
        <time>2013-06-02T10:07:07Z</time>
      </trkpt>
      <trkpt lat="59.9730559" lon="17.8428237">
        <ele>28.4962</ele>
        <time>2013-06-02T10:07:08Z</time>
      </trkpt>
      <trkpt lat="59.9731191" lon="17.8428957">
        <ele>28.4962</ele>
        <time>2013-06-02T10:07:09Z</time>
      </trkpt>
      <trkpt lat="59.9731811" lon="17.8429701">
        <ele>28.4962</ele>
        <time>2013-06-02T10:07:10Z</time>
      </trkpt>
      <trkpt lat="59.9732426" lon="17.8430429">
        <ele>28.4962</ele>
        <time>2013-06-02T10:07:11Z</time>
      </trkpt>
      <trkpt lat="59.9733063" lon="17.8431175">
        <ele>28.4962</ele>
        <time>2013-06-02T10:07:12Z</time>
      </trkpt>
      <trkpt lat="59.9733722" lon="17.8431889">
        <ele>28.0155</ele>
        <time>2013-06-02T10:07:13Z</time>
      </trkpt>
      <trkpt lat="59.9734356" lon="17.843264">
        <ele>27.5349</ele>
        <time>2013-06-02T10:07:14Z</time>
      </trkpt>
      <trkpt lat="59.9734881" lon="17.8433484">
        <ele>25.1317</ele>
        <time>2013-06-02T10:07:15Z</time>
      </trkpt>
      <trkpt lat="59.9735594" lon="17.8434163">
        <ele>24.651</ele>
        <time>2013-06-02T10:07:16Z</time>
      </trkpt>
      <trkpt lat="59.9736363" lon="17.84345">
        <ele>24.1703</ele>
        <time>2013-06-02T10:07:17Z</time>
      </trkpt>
      <trkpt lat="59.9736989" lon="17.8435136">
        <ele>22.7283</ele>
        <time>2013-06-02T10:07:18Z</time>
      </trkpt>
      <trkpt lat="59.9737606" lon="17.8435722">
        <ele>21.767</ele>
        <time>2013-06-02T10:07:19Z</time>
      </trkpt>
      <trkpt lat="59.9738254" lon="17.8436195">
        <ele>21.2864</ele>
        <time>2013-06-02T10:07:20Z</time>
      </trkpt>
      <trkpt lat="59.973889" lon="17.8436676">
        <ele>20.325</ele>
        <time>2013-06-02T10:07:21Z</time>
      </trkpt>
      <trkpt lat="59.9739539" lon="17.8437428">
        <ele>18.4023</ele>
        <time>2013-06-02T10:07:22Z</time>
      </trkpt>
      <trkpt lat="59.9740163" lon="17.8437801">
        <ele>16.9604</ele>
        <time>2013-06-02T10:07:23Z</time>
      </trkpt>
      <trkpt lat="59.9740889" lon="17.843811">
        <ele>15.5184</ele>
        <time>2013-06-02T10:07:24Z</time>
      </trkpt>
      <trkpt lat="59.9741517" lon="17.8438639">
        <ele>15.0377</ele>
        <time>2013-06-02T10:07:25Z</time>
      </trkpt>
      <trkpt lat="59.9742235" lon="17.8439028">
        <ele>13.5958</ele>
        <time>2013-06-02T10:07:26Z</time>
      </trkpt>
      <trkpt lat="59.9743035" lon="17.8439228">
        <ele>13.1151</ele>
        <time>2013-06-02T10:07:27Z</time>
      </trkpt>
      <trkpt lat="59.9743796" lon="17.8439562">
        <ele>13.1151</ele>
        <time>2013-06-02T10:07:28Z</time>
      </trkpt>
      <trkpt lat="59.9744599" lon="17.8439783">
        <ele>12.1538</ele>
        <time>2013-06-02T10:07:29Z</time>
      </trkpt>
      <trkpt lat="59.9745361" lon="17.8440177">
        <ele>11.1925</ele>
        <time>2013-06-02T10:07:30Z</time>
      </trkpt>
      <trkpt lat="59.9746127" lon="17.8440596">
        <ele>11.1925</ele>
        <time>2013-06-02T10:07:31Z</time>
      </trkpt>
      <trkpt lat="59.9746856" lon="17.8441121">
        <ele>10.7118</ele>
        <time>2013-06-02T10:07:32Z</time>
      </trkpt>
      <trkpt lat="59.9747586" lon="17.8441631">
        <ele>10.7118</ele>
        <time>2013-06-02T10:07:33Z</time>
      </trkpt>
      <trkpt lat="59.9748307" lon="17.844223">
        <ele>10.7118</ele>
        <time>2013-06-02T10:07:34Z</time>
      </trkpt>
      <trkpt lat="59.9749019" lon="17.8442897">
        <ele>11.6732</ele>
        <time>2013-06-02T10:07:35Z</time>
      </trkpt>
      <trkpt lat="59.9749693" lon="17.8443653">
        <ele>12.1538</ele>
        <time>2013-06-02T10:07:36Z</time>
      </trkpt>
      <trkpt lat="59.9750337" lon="17.8444464">
        <ele>12.6344</ele>
        <time>2013-06-02T10:07:37Z</time>
      </trkpt>
      <trkpt lat="59.9751038" lon="17.8445217">
        <ele>13.5958</ele>
        <time>2013-06-02T10:07:38Z</time>
      </trkpt>
      <trkpt lat="59.9751707" lon="17.8445954">
        <ele>14.557</ele>
        <time>2013-06-02T10:07:39Z</time>
      </trkpt>
      <trkpt lat="59.9752287" lon="17.8446752">
        <ele>14.0764</ele>
        <time>2013-06-02T10:07:40Z</time>
      </trkpt>
      <trkpt lat="59.9752858" lon="17.8447565">
        <ele>13.5958</ele>
        <time>2013-06-02T10:07:41Z</time>
      </trkpt>
      <trkpt lat="59.9753421" lon="17.8448386">
        <ele>13.1151</ele>
        <time>2013-06-02T10:07:42Z</time>
      </trkpt>
      <trkpt lat="59.9754008" lon="17.8449103">
        <ele>11.6732</ele>
        <time>2013-06-02T10:07:43Z</time>
      </trkpt>
      <trkpt lat="59.9754711" lon="17.8449776">
        <ele>11.1925</ele>
        <time>2013-06-02T10:07:44Z</time>
      </trkpt>
      <trkpt lat="59.9755395" lon="17.8450362">
        <ele>11.1925</ele>
        <time>2013-06-02T10:07:45Z</time>
      </trkpt>
      <trkpt lat="59.9756089" lon="17.8450919">
        <ele>11.1925</ele>
        <time>2013-06-02T10:07:46Z</time>
      </trkpt>
      <trkpt lat="59.9756743" lon="17.845148">
        <ele>10.7118</ele>
        <time>2013-06-02T10:07:47Z</time>
      </trkpt>
      <trkpt lat="59.975744" lon="17.8451968">
        <ele>10.7118</ele>
        <time>2013-06-02T10:07:48Z</time>
      </trkpt>
      <trkpt lat="59.9758152" lon="17.8452447">
        <ele>11.1925</ele>
        <time>2013-06-02T10:07:49Z</time>
      </trkpt>
      <trkpt lat="59.9758865" lon="17.8452926">
        <ele>11.1925</ele>
        <time>2013-06-02T10:07:50Z</time>
      </trkpt>
      <trkpt lat="59.975957" lon="17.8453428">
        <ele>11.6732</ele>
        <time>2013-06-02T10:07:51Z</time>
      </trkpt>
      <trkpt lat="59.9760283" lon="17.8453923">
        <ele>12.1538</ele>
        <time>2013-06-02T10:07:52Z</time>
      </trkpt>
      <trkpt lat="59.9761006" lon="17.8454395">
        <ele>12.1538</ele>
        <time>2013-06-02T10:07:53Z</time>
      </trkpt>
      <trkpt lat="59.9761736" lon="17.8454872">
        <ele>12.6344</ele>
        <time>2013-06-02T10:07:54Z</time>
      </trkpt>
      <trkpt lat="59.9762458" lon="17.8455356">
        <ele>12.6344</ele>
        <time>2013-06-02T10:07:55Z</time>
      </trkpt>
      <trkpt lat="59.9763175" lon="17.8455855">
        <ele>13.1151</ele>
        <time>2013-06-02T10:07:56Z</time>
      </trkpt>
      <trkpt lat="59.9763888" lon="17.8456391">
        <ele>13.5958</ele>
        <time>2013-06-02T10:07:57Z</time>
      </trkpt>
      <trkpt lat="59.97646" lon="17.8456922">
        <ele>14.0764</ele>
        <time>2013-06-02T10:07:58Z</time>
      </trkpt>
      <trkpt lat="59.9765331" lon="17.8457445">
        <ele>15.0377</ele>
        <time>2013-06-02T10:07:59Z</time>
      </trkpt>
      <trkpt lat="59.9766071" lon="17.8457966">
        <ele>15.999</ele>
        <time>2013-06-02T10:08:00Z</time>
      </trkpt>
      <trkpt lat="59.9766807" lon="17.8458489">
        <ele>16.4797</ele>
        <time>2013-06-02T10:08:01Z</time>
      </trkpt>
      <trkpt lat="59.976752" lon="17.8459021">
        <ele>17.4412</ele>
        <time>2013-06-02T10:08:02Z</time>
      </trkpt>
      <trkpt lat="59.9768231" lon="17.845953">
        <ele>17.9218</ele>
        <time>2013-06-02T10:08:03Z</time>
      </trkpt>
      <trkpt lat="59.9768928" lon="17.8460073">
        <ele>18.4023</ele>
        <time>2013-06-02T10:08:04Z</time>
      </trkpt>
      <trkpt lat="59.9769617" lon="17.8460624">
        <ele>18.8831</ele>
        <time>2013-06-02T10:08:05Z</time>
      </trkpt>
      <trkpt lat="59.9770291" lon="17.8461208">
        <ele>19.3638</ele>
        <time>2013-06-02T10:08:06Z</time>
      </trkpt>
      <trkpt lat="59.9770988" lon="17.8461745">
        <ele>19.8444</ele>
        <time>2013-06-02T10:08:07Z</time>
      </trkpt>
      <trkpt lat="59.9771691" lon="17.8462273">
        <ele>20.325</ele>
        <time>2013-06-02T10:08:08Z</time>
      </trkpt>
      <trkpt lat="59.9772417" lon="17.8462761">
        <ele>20.325</ele>
        <time>2013-06-02T10:08:09Z</time>
      </trkpt>
      <trkpt lat="59.9773164" lon="17.8463249">
        <ele>21.2864</ele>
        <time>2013-06-02T10:08:10Z</time>
      </trkpt>
      <trkpt lat="59.9773918" lon="17.8463717">
        <ele>21.767</ele>
        <time>2013-06-02T10:08:11Z</time>
      </trkpt>
      <trkpt lat="59.9774665" lon="17.8464151">
        <ele>21.767</ele>
        <time>2013-06-02T10:08:12Z</time>
      </trkpt>
      <trkpt lat="59.9775403" lon="17.8464575">
        <ele>22.2476</ele>
        <time>2013-06-02T10:08:13Z</time>
      </trkpt>
      <trkpt lat="59.9776142" lon="17.8464962">
        <ele>22.7283</ele>
        <time>2013-06-02T10:08:14Z</time>
      </trkpt>
      <trkpt lat="59.9776875" lon="17.8465336">
        <ele>23.209</ele>
        <time>2013-06-02T10:08:15Z</time>
      </trkpt>
      <trkpt lat="59.9777725" lon="17.8465586">
        <ele>25.1317</ele>
        <time>2013-06-02T10:08:16Z</time>
      </trkpt>
      <trkpt lat="59.9778478" lon="17.8465866">
        <ele>25.6123</ele>
        <time>2013-06-02T10:08:17Z</time>
      </trkpt>
      <trkpt lat="59.9779224" lon="17.8466108">
        <ele>26.0929</ele>
        <time>2013-06-02T10:08:18Z</time>
      </trkpt>
      <trkpt lat="59.9779963" lon="17.8466288">
        <ele>26.0929</ele>
        <time>2013-06-02T10:08:19Z</time>
      </trkpt>
      <trkpt lat="59.9780736" lon="17.8466384">
        <ele>27.0543</ele>
        <time>2013-06-02T10:08:20Z</time>
      </trkpt>
      <trkpt lat="59.9781508" lon="17.846647">
        <ele>28.0155</ele>
        <time>2013-06-02T10:08:21Z</time>
      </trkpt>
      <trkpt lat="59.9782279" lon="17.8466537">
        <ele>28.9769</ele>
        <time>2013-06-02T10:08:22Z</time>
      </trkpt>
      <trkpt lat="59.9783039" lon="17.8466557">
        <ele>29.4575</ele>
        <time>2013-06-02T10:08:23Z</time>
      </trkpt>
      <trkpt lat="59.9783796" lon="17.8466548">
        <ele>30.4188</ele>
        <time>2013-06-02T10:08:24Z</time>
      </trkpt>
      <trkpt lat="59.9784533" lon="17.8466506">
        <ele>30.8995</ele>
        <time>2013-06-02T10:08:25Z</time>
      </trkpt>
      <trkpt lat="59.9785236" lon="17.8466449">
        <ele>30.8995</ele>
        <time>2013-06-02T10:08:26Z</time>
      </trkpt>
      <trkpt lat="59.9785979" lon="17.8466372">
        <ele>32.3416</ele>
        <time>2013-06-02T10:08:27Z</time>
      </trkpt>
      <trkpt lat="59.9786696" lon="17.8466207">
        <ele>32.3416</ele>
        <time>2013-06-02T10:08:28Z</time>
      </trkpt>
      <trkpt lat="59.9787426" lon="17.8466011">
        <ele>32.8223</ele>
        <time>2013-06-02T10:08:29Z</time>
      </trkpt>
      <trkpt lat="59.9788167" lon="17.8465808">
        <ele>33.3029</ele>
        <time>2013-06-02T10:08:30Z</time>
      </trkpt>
      <trkpt lat="59.9788889" lon="17.8465611">
        <ele>33.3029</ele>
        <time>2013-06-02T10:08:31Z</time>
      </trkpt>
      <trkpt lat="59.9789613" lon="17.8465399">
        <ele>33.7834</ele>
        <time>2013-06-02T10:08:32Z</time>
      </trkpt>
      <trkpt lat="59.979033" lon="17.8465183">
        <ele>33.7834</ele>
        <time>2013-06-02T10:08:33Z</time>
      </trkpt>
      <trkpt lat="59.9791042" lon="17.8464962">
        <ele>33.7834</ele>
        <time>2013-06-02T10:08:34Z</time>
      </trkpt>
      <trkpt lat="59.9791755" lon="17.8464757">
        <ele>34.2642</ele>
        <time>2013-06-02T10:08:35Z</time>
      </trkpt>
      <trkpt lat="59.9792468" lon="17.8464584">
        <ele>34.2642</ele>
        <time>2013-06-02T10:08:36Z</time>
      </trkpt>
      <trkpt lat="59.9793169" lon="17.8464404">
        <ele>34.7449</ele>
        <time>2013-06-02T10:08:37Z</time>
      </trkpt>
      <trkpt lat="59.9793888" lon="17.8464259">
        <ele>35.2255</ele>
        <time>2013-06-02T10:08:38Z</time>
      </trkpt>
      <trkpt lat="59.9794598" lon="17.8464145">
        <ele>36.1868</ele>
        <time>2013-06-02T10:08:39Z</time>
      </trkpt>
      <trkpt lat="59.979528" lon="17.8464062">
        <ele>36.6675</ele>
        <time>2013-06-02T10:08:40Z</time>
      </trkpt>
      <trkpt lat="59.9795965" lon="17.8464043">
        <ele>37.1481</ele>
        <time>2013-06-02T10:08:41Z</time>
      </trkpt>
      <trkpt lat="59.9796665" lon="17.8464036">
        <ele>38.1094</ele>
        <time>2013-06-02T10:08:42Z</time>
      </trkpt>
      <trkpt lat="59.9797355" lon="17.8464094">
        <ele>38.5901</ele>
        <time>2013-06-02T10:08:43Z</time>
      </trkpt>
      <trkpt lat="59.9798048" lon="17.8464202">
        <ele>39.5513</ele>
        <time>2013-06-02T10:08:44Z</time>
      </trkpt>
      <trkpt lat="59.9798729" lon="17.8464338">
        <ele>39.0707</ele>
        <time>2013-06-02T10:08:45Z</time>
      </trkpt>
      <trkpt lat="59.9799414" lon="17.8464548">
        <ele>39.0707</ele>
        <time>2013-06-02T10:08:46Z</time>
      </trkpt>
      <trkpt lat="59.9800111" lon="17.8464881">
        <ele>39.5513</ele>
        <time>2013-06-02T10:08:47Z</time>
      </trkpt>
      <trkpt lat="59.9800819" lon="17.8465243">
        <ele>40.0321</ele>
        <time>2013-06-02T10:08:48Z</time>
      </trkpt>
      <trkpt lat="59.9801529" lon="17.8465625">
        <ele>40.0321</ele>
        <time>2013-06-02T10:08:49Z</time>
      </trkpt>
      <trkpt lat="59.9802233" lon="17.8466006">
        <ele>39.0707</ele>
        <time>2013-06-02T10:08:50Z</time>
      </trkpt>
      <trkpt lat="59.9802931" lon="17.8466469">
        <ele>37.6287</ele>
        <time>2013-06-02T10:08:51Z</time>
      </trkpt>
      <trkpt lat="59.9803627" lon="17.8467031">
        <ele>37.1481</ele>
        <time>2013-06-02T10:08:52Z</time>
      </trkpt>
      <trkpt lat="59.9804298" lon="17.8467651">
        <ele>36.6675</ele>
        <time>2013-06-02T10:08:53Z</time>
      </trkpt>
      <trkpt lat="59.9804953" lon="17.8468332">
        <ele>36.1868</ele>
        <time>2013-06-02T10:08:54Z</time>
      </trkpt>
      <trkpt lat="59.9805593" lon="17.8469109">
        <ele>35.2255</ele>
        <time>2013-06-02T10:08:55Z</time>
      </trkpt>
      <trkpt lat="59.9806236" lon="17.8469959">
        <ele>34.7449</ele>
        <time>2013-06-02T10:08:56Z</time>
      </trkpt>
      <trkpt lat="59.9806875" lon="17.847088">
        <ele>34.2642</ele>
        <time>2013-06-02T10:08:57Z</time>
      </trkpt>
      <trkpt lat="59.9807505" lon="17.8471867">
        <ele>33.7834</ele>
        <time>2013-06-02T10:08:58Z</time>
      </trkpt>
      <trkpt lat="59.9808134" lon="17.8472915">
        <ele>33.7834</ele>
        <time>2013-06-02T10:08:59Z</time>
      </trkpt>
      <trkpt lat="59.9808734" lon="17.8474059">
        <ele>33.7834</ele>
        <time>2013-06-02T10:09:00Z</time>
      </trkpt>
      <trkpt lat="59.98093" lon="17.847527">
        <ele>34.2642</ele>
        <time>2013-06-02T10:09:01Z</time>
      </trkpt>
      <trkpt lat="59.9809874" lon="17.8476542">
        <ele>34.7449</ele>
        <time>2013-06-02T10:09:02Z</time>
      </trkpt>
      <trkpt lat="59.9810459" lon="17.8477801">
        <ele>35.7061</ele>
        <time>2013-06-02T10:09:03Z</time>
      </trkpt>
      <trkpt lat="59.981103" lon="17.847907">
        <ele>36.1868</ele>
        <time>2013-06-02T10:09:04Z</time>
      </trkpt>
      <trkpt lat="59.9811599" lon="17.8480344">
        <ele>36.6675</ele>
        <time>2013-06-02T10:09:05Z</time>
      </trkpt>
      <trkpt lat="59.9812164" lon="17.8481614">
        <ele>37.1481</ele>
        <time>2013-06-02T10:09:06Z</time>
      </trkpt>
      <trkpt lat="59.9812718" lon="17.8482881">
        <ele>37.1481</ele>
        <time>2013-06-02T10:09:07Z</time>
      </trkpt>
      <trkpt lat="59.9813262" lon="17.8484149">
        <ele>37.6287</ele>
        <time>2013-06-02T10:09:08Z</time>
      </trkpt>
      <trkpt lat="59.9813807" lon="17.8485418">
        <ele>38.1094</ele>
        <time>2013-06-02T10:09:09Z</time>
      </trkpt>
      <trkpt lat="59.9814361" lon="17.8486658">
        <ele>38.5901</ele>
        <time>2013-06-02T10:09:10Z</time>
      </trkpt>
      <trkpt lat="59.9814919" lon="17.8487832">
        <ele>39.0707</ele>
        <time>2013-06-02T10:09:11Z</time>
      </trkpt>
      <trkpt lat="59.9815472" lon="17.8488954">
        <ele>39.0707</ele>
        <time>2013-06-02T10:09:12Z</time>
      </trkpt>
      <trkpt lat="59.9816045" lon="17.8490087">
        <ele>39.5513</ele>
        <time>2013-06-02T10:09:13Z</time>
      </trkpt>
      <trkpt lat="59.9816717" lon="17.8491143">
        <ele>39.5513</ele>
        <time>2013-06-02T10:09:14Z</time>
      </trkpt>
      <trkpt lat="59.9817364" lon="17.8492143">
        <ele>38.5901</ele>
        <time>2013-06-02T10:09:15Z</time>
      </trkpt>
      <trkpt lat="59.9818041" lon="17.8493009">
        <ele>38.5901</ele>
        <time>2013-06-02T10:09:16Z</time>
      </trkpt>
      <trkpt lat="59.9818717" lon="17.8493807">
        <ele>38.1094</ele>
        <time>2013-06-02T10:09:17Z</time>
      </trkpt>
      <trkpt lat="59.9819379" lon="17.8494542">
        <ele>37.6287</ele>
        <time>2013-06-02T10:09:18Z</time>
      </trkpt>
      <trkpt lat="59.9820028" lon="17.8495293">
        <ele>37.1481</ele>
        <time>2013-06-02T10:09:19Z</time>
      </trkpt>
      <trkpt lat="59.9820679" lon="17.8496079">
        <ele>37.1481</ele>
        <time>2013-06-02T10:09:20Z</time>
      </trkpt>
      <trkpt lat="59.9821321" lon="17.8496942">
        <ele>36.6675</ele>
        <time>2013-06-02T10:09:21Z</time>
      </trkpt>
      <trkpt lat="59.9821947" lon="17.8497863">
        <ele>36.6675</ele>
        <time>2013-06-02T10:09:22Z</time>
      </trkpt>
      <trkpt lat="59.9822569" lon="17.8498775">
        <ele>37.6287</ele>
        <time>2013-06-02T10:09:23Z</time>
      </trkpt>
      <trkpt lat="59.982313" lon="17.8499824">
        <ele>37.6287</ele>
        <time>2013-06-02T10:09:24Z</time>
      </trkpt>
      <trkpt lat="59.9823644" lon="17.850098">
        <ele>38.1094</ele>
        <time>2013-06-02T10:09:25Z</time>
      </trkpt>
      <trkpt lat="59.9824197" lon="17.8502016">
        <ele>37.6287</ele>
        <time>2013-06-02T10:09:26Z</time>
      </trkpt>
      <trkpt lat="59.9824723" lon="17.850309">
        <ele>38.1094</ele>
        <time>2013-06-02T10:09:27Z</time>
      </trkpt>
      <trkpt lat="59.9825252" lon="17.850411">
        <ele>37.1481</ele>
        <time>2013-06-02T10:09:28Z</time>
      </trkpt>
      <trkpt lat="59.9825772" lon="17.8505087">
        <ele>36.1868</ele>
        <time>2013-06-02T10:09:29Z</time>
      </trkpt>
      <trkpt lat="59.9826248" lon="17.8506041">
        <ele>35.7061</ele>
        <time>2013-06-02T10:09:30Z</time>
      </trkpt>
      <trkpt lat="59.9826769" lon="17.8506922">
        <ele>34.7449</ele>
        <time>2013-06-02T10:09:31Z</time>
      </trkpt>
      <trkpt lat="59.9827274" lon="17.8507879">
        <ele>34.2642</ele>
        <time>2013-06-02T10:09:32Z</time>
      </trkpt>
      <trkpt lat="59.9827629" lon="17.8509041">
        <ele>34.2642</ele>
        <time>2013-06-02T10:09:33Z</time>
      </trkpt>
      <trkpt lat="59.9828082" lon="17.8510171">
        <ele>34.7449</ele>
        <time>2013-06-02T10:09:34Z</time>
      </trkpt>
      <trkpt lat="59.9828475" lon="17.8511311">
        <ele>33.3029</ele>
        <time>2013-06-02T10:09:35Z</time>
      </trkpt>
      <trkpt lat="59.982895" lon="17.8512324">
        <ele>33.3029</ele>
        <time>2013-06-02T10:09:36Z</time>
      </trkpt>
      <trkpt lat="59.9829553" lon="17.8513382">
        <ele>34.2642</ele>
        <time>2013-06-02T10:09:37Z</time>
      </trkpt>
      <trkpt lat="59.9830075" lon="17.8514525">
        <ele>35.7061</ele>
        <time>2013-06-02T10:09:38Z</time>
      </trkpt>
      <trkpt lat="59.9830724" lon="17.8515483">
        <ele>36.6675</ele>
        <time>2013-06-02T10:09:39Z</time>
      </trkpt>
      <trkpt lat="59.9831372" lon="17.8516319">
        <ele>37.6287</ele>
        <time>2013-06-02T10:09:40Z</time>
      </trkpt>
      <trkpt lat="59.9831942" lon="17.8516988">
        <ele>36.6675</ele>
        <time>2013-06-02T10:09:41Z</time>
      </trkpt>
      <trkpt lat="59.9832471" lon="17.8517686">
        <ele>35.2255</ele>
        <time>2013-06-02T10:09:42Z</time>
      </trkpt>
      <trkpt lat="59.9832975" lon="17.8518433">
        <ele>34.2642</ele>
        <time>2013-06-02T10:09:43Z</time>
      </trkpt>
      <trkpt lat="59.9833542" lon="17.8519187">
        <ele>34.2642</ele>
        <time>2013-06-02T10:09:44Z</time>
      </trkpt>
      <trkpt lat="59.9834081" lon="17.8519912">
        <ele>33.3029</ele>
        <time>2013-06-02T10:09:45Z</time>
      </trkpt>
      <trkpt lat="59.9834607" lon="17.8520638">
        <ele>31.8607</ele>
        <time>2013-06-02T10:09:46Z</time>
      </trkpt>
      <trkpt lat="59.9835175" lon="17.8521347">
        <ele>30.8995</ele>
        <time>2013-06-02T10:09:47Z</time>
      </trkpt>
      <trkpt lat="59.9835734" lon="17.8522125">
        <ele>29.9381</ele>
        <time>2013-06-02T10:09:48Z</time>
      </trkpt>
      <trkpt lat="59.9836369" lon="17.8522845">
        <ele>28.9769</ele>
        <time>2013-06-02T10:09:49Z</time>
      </trkpt>
      <trkpt lat="59.9837019" lon="17.852352">
        <ele>27.5349</ele>
        <time>2013-06-02T10:09:50Z</time>
      </trkpt>
      <trkpt lat="59.9837633" lon="17.8524262">
        <ele>25.6123</ele>
        <time>2013-06-02T10:09:51Z</time>
      </trkpt>
      <trkpt lat="59.9838493" lon="17.8525267">
        <ele>24.651</ele>
        <time>2013-06-02T10:09:52Z</time>
      </trkpt>
      <trkpt lat="59.9839411" lon="17.852581">
        <ele>26.0929</ele>
        <time>2013-06-02T10:09:53Z</time>
      </trkpt>
      <trkpt lat="59.9840471" lon="17.8526254">
        <ele>25.6123</ele>
        <time>2013-06-02T10:09:54Z</time>
      </trkpt>
      <trkpt lat="59.9841154" lon="17.8526761">
        <ele>25.1317</ele>
        <time>2013-06-02T10:09:55Z</time>
      </trkpt>
      <trkpt lat="59.9841854" lon="17.8527572">
        <ele>24.651</ele>
        <time>2013-06-02T10:09:56Z</time>
      </trkpt>
      <trkpt lat="59.9842435" lon="17.8528436">
        <ele>23.6896</ele>
        <time>2013-06-02T10:09:57Z</time>
      </trkpt>
      <trkpt lat="59.9843079" lon="17.8529">
        <ele>22.2476</ele>
        <time>2013-06-02T10:09:58Z</time>
      </trkpt>
      <trkpt lat="59.9843822" lon="17.8529623">
        <ele>21.2864</ele>
        <time>2013-06-02T10:09:59Z</time>
      </trkpt>
      <trkpt lat="59.9844449" lon="17.8530141">
        <ele>18.8831</ele>
        <time>2013-06-02T10:10:00Z</time>
      </trkpt>
      <trkpt lat="59.9845151" lon="17.8530565">
        <ele>17.4412</ele>
        <time>2013-06-02T10:10:01Z</time>
      </trkpt>
      <trkpt lat="59.9845965" lon="17.8530913">
        <ele>17.4412</ele>
        <time>2013-06-02T10:10:02Z</time>
      </trkpt>
      <trkpt lat="59.9846808" lon="17.8531127">
        <ele>16.9604</ele>
        <time>2013-06-02T10:10:03Z</time>
      </trkpt>
      <trkpt lat="59.9847586" lon="17.8531248">
        <ele>15.5184</ele>
        <time>2013-06-02T10:10:04Z</time>
      </trkpt>
      <trkpt lat="59.9848505" lon="17.8531232">
        <ele>15.999</ele>
        <time>2013-06-02T10:10:05Z</time>
      </trkpt>
      <trkpt lat="59.9849403" lon="17.8531089">
        <ele>16.4797</ele>
        <time>2013-06-02T10:10:06Z</time>
      </trkpt>
      <trkpt lat="59.9850242" lon="17.853087">
        <ele>16.4797</ele>
        <time>2013-06-02T10:10:07Z</time>
      </trkpt>
      <trkpt lat="59.9851052" lon="17.8530736">
        <ele>15.999</ele>
        <time>2013-06-02T10:10:08Z</time>
      </trkpt>
      <trkpt lat="59.9851853" lon="17.8530594">
        <ele>15.5184</ele>
        <time>2013-06-02T10:10:09Z</time>
      </trkpt>
      <trkpt lat="59.9852604" lon="17.8530516">
        <ele>14.557</ele>
        <time>2013-06-02T10:10:10Z</time>
      </trkpt>
      <trkpt lat="59.9853341" lon="17.8530497">
        <ele>14.0764</ele>
        <time>2013-06-02T10:10:11Z</time>
      </trkpt>
      <trkpt lat="59.9854106" lon="17.8530493">
        <ele>13.5958</ele>
        <time>2013-06-02T10:10:12Z</time>
      </trkpt>
      <trkpt lat="59.9854846" lon="17.8530578">
        <ele>12.6344</ele>
        <time>2013-06-02T10:10:13Z</time>
      </trkpt>
      <trkpt lat="59.985563" lon="17.8530913">
        <ele>12.6344</ele>
        <time>2013-06-02T10:10:14Z</time>
      </trkpt>
      <trkpt lat="59.9856436" lon="17.8531192">
        <ele>11.6732</ele>
        <time>2013-06-02T10:10:15Z</time>
      </trkpt>
      <trkpt lat="59.9857225" lon="17.853158">
        <ele>11.1925</ele>
        <time>2013-06-02T10:10:16Z</time>
      </trkpt>
      <trkpt lat="59.9858005" lon="17.8532013">
        <ele>10.2312</ele>
        <time>2013-06-02T10:10:17Z</time>
      </trkpt>
      <trkpt lat="59.9858803" lon="17.8532522">
        <ele>9.75061</ele>
        <time>2013-06-02T10:10:18Z</time>
      </trkpt>
      <trkpt lat="59.9859629" lon="17.8533054">
        <ele>9.75061</ele>
        <time>2013-06-02T10:10:19Z</time>
      </trkpt>
      <trkpt lat="59.9860469" lon="17.8533581">
        <ele>9.75061</ele>
        <time>2013-06-02T10:10:20Z</time>
      </trkpt>
      <trkpt lat="59.9861292" lon="17.8534114">
        <ele>9.75061</ele>
        <time>2013-06-02T10:10:21Z</time>
      </trkpt>
      <trkpt lat="59.9862105" lon="17.8534657">
        <ele>9.75061</ele>
        <time>2013-06-02T10:10:22Z</time>
      </trkpt>
      <trkpt lat="59.9862907" lon="17.8535192">
        <ele>9.75061</ele>
        <time>2013-06-02T10:10:23Z</time>
      </trkpt>
      <trkpt lat="59.9863731" lon="17.8535786">
        <ele>11.1925</ele>
        <time>2013-06-02T10:10:24Z</time>
      </trkpt>
      <trkpt lat="59.9864551" lon="17.853634">
        <ele>12.1538</ele>
        <time>2013-06-02T10:10:25Z</time>
      </trkpt>
      <trkpt lat="59.9865362" lon="17.8536879">
        <ele>13.1151</ele>
        <time>2013-06-02T10:10:26Z</time>
      </trkpt>
      <trkpt lat="59.9866159" lon="17.8537435">
        <ele>14.0764</ele>
        <time>2013-06-02T10:10:27Z</time>
      </trkpt>
      <trkpt lat="59.9866933" lon="17.8538029">
        <ele>14.557</ele>
        <time>2013-06-02T10:10:28Z</time>
      </trkpt>
      <trkpt lat="59.9867683" lon="17.8538687">
        <ele>15.5184</ele>
        <time>2013-06-02T10:10:29Z</time>
      </trkpt>
      <trkpt lat="59.9868394" lon="17.8539412">
        <ele>15.5184</ele>
        <time>2013-06-02T10:10:30Z</time>
      </trkpt>
      <trkpt lat="59.9869077" lon="17.8540246">
        <ele>15.999</ele>
        <time>2013-06-02T10:10:31Z</time>
      </trkpt>
      <trkpt lat="59.9869811" lon="17.8541154">
        <ele>18.8831</ele>
        <time>2013-06-02T10:10:32Z</time>
      </trkpt>
      <trkpt lat="59.98705" lon="17.8542182">
        <ele>21.2864</ele>
        <time>2013-06-02T10:10:33Z</time>
      </trkpt>
      <trkpt lat="59.9871153" lon="17.8543229">
        <ele>21.767</ele>
        <time>2013-06-02T10:10:34Z</time>
      </trkpt>
      <trkpt lat="59.9871787" lon="17.8544301">
        <ele>23.209</ele>
        <time>2013-06-02T10:10:35Z</time>
      </trkpt>
      <trkpt lat="59.9872409" lon="17.8545378">
        <ele>24.651</ele>
        <time>2013-06-02T10:10:36Z</time>
      </trkpt>
      <trkpt lat="59.9873071" lon="17.8546483">
        <ele>27.0543</ele>
        <time>2013-06-02T10:10:37Z</time>
      </trkpt>
      <trkpt lat="59.9873691" lon="17.8547545">
        <ele>28.4962</ele>
        <time>2013-06-02T10:10:38Z</time>
      </trkpt>
      <trkpt lat="59.9874284" lon="17.8548643">
        <ele>30.4188</ele>
        <time>2013-06-02T10:10:39Z</time>
      </trkpt>
      <trkpt lat="59.9874884" lon="17.8549663">
        <ele>31.8607</ele>
        <time>2013-06-02T10:10:40Z</time>
      </trkpt>
      <trkpt lat="59.9875444" lon="17.8550714">
        <ele>32.3416</ele>
        <time>2013-06-02T10:10:41Z</time>
      </trkpt>
      <trkpt lat="59.9876013" lon="17.8551793">
        <ele>32.8223</ele>
        <time>2013-06-02T10:10:42Z</time>
      </trkpt>
      <trkpt lat="59.9876587" lon="17.8552837">
        <ele>33.7834</ele>
        <time>2013-06-02T10:10:43Z</time>
      </trkpt>
      <trkpt lat="59.9877177" lon="17.8553879">
        <ele>34.2642</ele>
        <time>2013-06-02T10:10:44Z</time>
      </trkpt>
      <trkpt lat="59.9877773" lon="17.8554937">
        <ele>34.7449</ele>
        <time>2013-06-02T10:10:45Z</time>
      </trkpt>
      <trkpt lat="59.987838" lon="17.8555993">
        <ele>34.7449</ele>
        <time>2013-06-02T10:10:46Z</time>
      </trkpt>
      <trkpt lat="59.9878996" lon="17.8557051">
        <ele>35.2255</ele>
        <time>2013-06-02T10:10:47Z</time>
      </trkpt>
      <trkpt lat="59.987961" lon="17.8558113">
        <ele>35.2255</ele>
        <time>2013-06-02T10:10:48Z</time>
      </trkpt>
      <trkpt lat="59.9880229" lon="17.855916">
        <ele>35.7061</ele>
        <time>2013-06-02T10:10:49Z</time>
      </trkpt>
      <trkpt lat="59.988085" lon="17.85602">
        <ele>35.7061</ele>
        <time>2013-06-02T10:10:50Z</time>
      </trkpt>
      <trkpt lat="59.9881468" lon="17.8561236">
        <ele>36.1868</ele>
        <time>2013-06-02T10:10:51Z</time>
      </trkpt>
      <trkpt lat="59.988209" lon="17.8562261">
        <ele>36.6675</ele>
        <time>2013-06-02T10:10:52Z</time>
      </trkpt>
      <trkpt lat="59.9882712" lon="17.8563297">
        <ele>36.6675</ele>
        <time>2013-06-02T10:10:53Z</time>
      </trkpt>
      <trkpt lat="59.9883341" lon="17.8564318">
        <ele>37.1481</ele>
        <time>2013-06-02T10:10:54Z</time>
      </trkpt>
      <trkpt lat="59.9883961" lon="17.8565339">
        <ele>37.6287</ele>
        <time>2013-06-02T10:10:55Z</time>
      </trkpt>
      <trkpt lat="59.9884567" lon="17.856635">
        <ele>38.1094</ele>
        <time>2013-06-02T10:10:56Z</time>
      </trkpt>
      <trkpt lat="59.9885161" lon="17.8567339">
        <ele>38.5901</ele>
        <time>2013-06-02T10:10:57Z</time>
      </trkpt>
      <trkpt lat="59.9885756" lon="17.8568296">
        <ele>39.0707</ele>
        <time>2013-06-02T10:10:58Z</time>
      </trkpt>
      <trkpt lat="59.9886343" lon="17.8569228">
        <ele>39.0707</ele>
        <time>2013-06-02T10:10:59Z</time>
      </trkpt>
      <trkpt lat="59.9886923" lon="17.8570128">
        <ele>39.0707</ele>
        <time>2013-06-02T10:11:00Z</time>
      </trkpt>
      <trkpt lat="59.9887503" lon="17.8570985">
        <ele>39.0707</ele>
        <time>2013-06-02T10:11:01Z</time>
      </trkpt>
      <trkpt lat="59.9888094" lon="17.8571793">
        <ele>39.0707</ele>
        <time>2013-06-02T10:11:02Z</time>
      </trkpt>
      <trkpt lat="59.9888693" lon="17.8572586">
        <ele>39.0707</ele>
        <time>2013-06-02T10:11:03Z</time>
      </trkpt>
      <trkpt lat="59.9889285" lon="17.8573404">
        <ele>39.0707</ele>
        <time>2013-06-02T10:11:04Z</time>
      </trkpt>
      <trkpt lat="59.9889874" lon="17.857425">
        <ele>39.0707</ele>
        <time>2013-06-02T10:11:05Z</time>
      </trkpt>
      <trkpt lat="59.9890461" lon="17.8575091">
        <ele>39.0707</ele>
        <time>2013-06-02T10:11:06Z</time>
      </trkpt>
      <trkpt lat="59.989103" lon="17.8575973">
        <ele>39.0707</ele>
        <time>2013-06-02T10:11:07Z</time>
      </trkpt>
      <trkpt lat="59.9891553" lon="17.8576958">
        <ele>39.0707</ele>
        <time>2013-06-02T10:11:08Z</time>
      </trkpt>
      <trkpt lat="59.9892018" lon="17.857804">
        <ele>39.0707</ele>
        <time>2013-06-02T10:11:09Z</time>
      </trkpt>
      <trkpt lat="59.9892437" lon="17.8579197">
        <ele>39.0707</ele>
        <time>2013-06-02T10:11:10Z</time>
      </trkpt>
      <trkpt lat="59.9892807" lon="17.8580409">
        <ele>39.0707</ele>
        <time>2013-06-02T10:11:11Z</time>
      </trkpt>
      <trkpt lat="59.9893157" lon="17.8581662">
        <ele>39.0707</ele>
        <time>2013-06-02T10:11:12Z</time>
      </trkpt>
      <trkpt lat="59.9893523" lon="17.8582915">
        <ele>39.0707</ele>
        <time>2013-06-02T10:11:13Z</time>
      </trkpt>
      <trkpt lat="59.989388" lon="17.8584168">
        <ele>39.5513</ele>
        <time>2013-06-02T10:11:14Z</time>
      </trkpt>
      <trkpt lat="59.9894228" lon="17.8585432">
        <ele>39.5513</ele>
        <time>2013-06-02T10:11:15Z</time>
      </trkpt>
      <trkpt lat="59.9894575" lon="17.8586703">
        <ele>39.5513</ele>
        <time>2013-06-02T10:11:16Z</time>
      </trkpt>
      <trkpt lat="59.9894934" lon="17.8587979">
        <ele>40.0321</ele>
        <time>2013-06-02T10:11:17Z</time>
      </trkpt>
      <trkpt lat="59.9895312" lon="17.8589236">
        <ele>40.0321</ele>
        <time>2013-06-02T10:11:18Z</time>
      </trkpt>
      <trkpt lat="59.9895722" lon="17.8590472">
        <ele>40.0321</ele>
        <time>2013-06-02T10:11:19Z</time>
      </trkpt>
      <trkpt lat="59.9896157" lon="17.8591668">
        <ele>39.5513</ele>
        <time>2013-06-02T10:11:20Z</time>
      </trkpt>
      <trkpt lat="59.9896644" lon="17.8592804">
        <ele>39.5513</ele>
        <time>2013-06-02T10:11:21Z</time>
      </trkpt>
      <trkpt lat="59.989717" lon="17.8593874">
        <ele>39.5513</ele>
        <time>2013-06-02T10:11:22Z</time>
      </trkpt>
      <trkpt lat="59.9897743" lon="17.8594922">
        <ele>39.5513</ele>
        <time>2013-06-02T10:11:23Z</time>
      </trkpt>
      <trkpt lat="59.989833" lon="17.859592">
        <ele>39.0707</ele>
        <time>2013-06-02T10:11:24Z</time>
      </trkpt>
      <trkpt lat="59.9898956" lon="17.8596866">
        <ele>38.5901</ele>
        <time>2013-06-02T10:11:25Z</time>
      </trkpt>
      <trkpt lat="59.9899604" lon="17.8597811">
        <ele>38.1094</ele>
        <time>2013-06-02T10:11:26Z</time>
      </trkpt>
      <trkpt lat="59.9900259" lon="17.8598765">
        <ele>37.6287</ele>
        <time>2013-06-02T10:11:27Z</time>
      </trkpt>
      <trkpt lat="59.9900912" lon="17.8599743">
        <ele>37.1481</ele>
        <time>2013-06-02T10:11:28Z</time>
      </trkpt>
      <trkpt lat="59.990157" lon="17.8600715">
        <ele>37.1481</ele>
        <time>2013-06-02T10:11:29Z</time>
      </trkpt>
      <trkpt lat="59.9902228" lon="17.860152">
        <ele>36.1868</ele>
        <time>2013-06-02T10:11:30Z</time>
      </trkpt>
      <trkpt lat="59.9902924" lon="17.8602263">
        <ele>35.7061</ele>
        <time>2013-06-02T10:11:31Z</time>
      </trkpt>
      <trkpt lat="59.9903647" lon="17.8602919">
        <ele>35.2255</ele>
        <time>2013-06-02T10:11:32Z</time>
      </trkpt>
      <trkpt lat="59.9904386" lon="17.8603533">
        <ele>35.2255</ele>
        <time>2013-06-02T10:11:33Z</time>
      </trkpt>
      <trkpt lat="59.990511" lon="17.8604033">
        <ele>35.2255</ele>
        <time>2013-06-02T10:11:34Z</time>
      </trkpt>
      <trkpt lat="59.9905861" lon="17.8604519">
        <ele>34.7449</ele>
        <time>2013-06-02T10:11:35Z</time>
      </trkpt>
      <trkpt lat="59.9906627" lon="17.8605018">
        <ele>34.7449</ele>
        <time>2013-06-02T10:11:36Z</time>
      </trkpt>
      <trkpt lat="59.99074" lon="17.8605543">
        <ele>34.2642</ele>
        <time>2013-06-02T10:11:37Z</time>
      </trkpt>
      <trkpt lat="59.9908181" lon="17.8606117">
        <ele>33.7834</ele>
        <time>2013-06-02T10:11:38Z</time>
      </trkpt>
      <trkpt lat="59.9908953" lon="17.8606729">
        <ele>33.7834</ele>
        <time>2013-06-02T10:11:39Z</time>
      </trkpt>
      <trkpt lat="59.9909723" lon="17.8607369">
        <ele>33.3029</ele>
        <time>2013-06-02T10:11:40Z</time>
      </trkpt>
      <trkpt lat="59.9910488" lon="17.8608036">
        <ele>32.8223</ele>
        <time>2013-06-02T10:11:41Z</time>
      </trkpt>
      <trkpt lat="59.9911263" lon="17.8608725">
        <ele>32.3416</ele>
        <time>2013-06-02T10:11:42Z</time>
      </trkpt>
      <trkpt lat="59.9912041" lon="17.8609409">
        <ele>31.8607</ele>
        <time>2013-06-02T10:11:43Z</time>
      </trkpt>
      <trkpt lat="59.9912816" lon="17.8610106">
        <ele>31.3801</ele>
        <time>2013-06-02T10:11:44Z</time>
      </trkpt>
      <trkpt lat="59.991361" lon="17.8610875">
        <ele>31.8607</ele>
        <time>2013-06-02T10:11:45Z</time>
      </trkpt>
      <trkpt lat="59.9914393" lon="17.861169">
        <ele>32.3416</ele>
        <time>2013-06-02T10:11:46Z</time>
      </trkpt>
      <trkpt lat="59.9915157" lon="17.861255">
        <ele>32.8223</ele>
        <time>2013-06-02T10:11:47Z</time>
      </trkpt>
      <trkpt lat="59.9915896" lon="17.8613455">
        <ele>32.8223</ele>
        <time>2013-06-02T10:11:48Z</time>
      </trkpt>
      <trkpt lat="59.9916625" lon="17.8614384">
        <ele>33.3029</ele>
        <time>2013-06-02T10:11:49Z</time>
      </trkpt>
      <trkpt lat="59.9917362" lon="17.8615306">
        <ele>33.7834</ele>
        <time>2013-06-02T10:11:50Z</time>
      </trkpt>
      <trkpt lat="59.9918085" lon="17.8616217">
        <ele>33.3029</ele>
        <time>2013-06-02T10:11:51Z</time>
      </trkpt>
      <trkpt lat="59.991881" lon="17.861715">
        <ele>33.7834</ele>
        <time>2013-06-02T10:11:52Z</time>
      </trkpt>
      <trkpt lat="59.9919542" lon="17.8618077">
        <ele>33.7834</ele>
        <time>2013-06-02T10:11:53Z</time>
      </trkpt>
      <trkpt lat="59.9920263" lon="17.8619005">
        <ele>34.2642</ele>
        <time>2013-06-02T10:11:54Z</time>
      </trkpt>
      <trkpt lat="59.9920972" lon="17.861993">
        <ele>34.7449</ele>
        <time>2013-06-02T10:11:55Z</time>
      </trkpt>
      <trkpt lat="59.9921677" lon="17.8620842">
        <ele>34.7449</ele>
        <time>2013-06-02T10:11:56Z</time>
      </trkpt>
      <trkpt lat="59.9922373" lon="17.862174">
        <ele>35.2255</ele>
        <time>2013-06-02T10:11:57Z</time>
      </trkpt>
      <trkpt lat="59.992307" lon="17.8622625">
        <ele>35.2255</ele>
        <time>2013-06-02T10:11:58Z</time>
      </trkpt>
      <trkpt lat="59.9923763" lon="17.8623496">
        <ele>35.7061</ele>
        <time>2013-06-02T10:11:59Z</time>
      </trkpt>
      <trkpt lat="59.9924447" lon="17.8624379">
        <ele>35.7061</ele>
        <time>2013-06-02T10:12:00Z</time>
      </trkpt>
      <trkpt lat="59.9925131" lon="17.8625265">
        <ele>35.7061</ele>
        <time>2013-06-02T10:12:01Z</time>
      </trkpt>
      <trkpt lat="59.9925811" lon="17.8626135">
        <ele>35.7061</ele>
        <time>2013-06-02T10:12:02Z</time>
      </trkpt>
      <trkpt lat="59.9926481" lon="17.8626973">
        <ele>35.7061</ele>
        <time>2013-06-02T10:12:03Z</time>
      </trkpt>
      <trkpt lat="59.992714" lon="17.8627824">
        <ele>35.7061</ele>
        <time>2013-06-02T10:12:04Z</time>
      </trkpt>
      <trkpt lat="59.9927804" lon="17.862868">
        <ele>36.1868</ele>
        <time>2013-06-02T10:12:05Z</time>
      </trkpt>
      <trkpt lat="59.9928476" lon="17.8629536">
        <ele>36.1868</ele>
        <time>2013-06-02T10:12:06Z</time>
      </trkpt>
      <trkpt lat="59.992915" lon="17.8630384">
        <ele>35.7061</ele>
        <time>2013-06-02T10:12:07Z</time>
      </trkpt>
      <trkpt lat="59.9929835" lon="17.8631228">
        <ele>35.7061</ele>
        <time>2013-06-02T10:12:08Z</time>
      </trkpt>
      <trkpt lat="59.9930527" lon="17.8632082">
        <ele>36.1868</ele>
        <time>2013-06-02T10:12:09Z</time>
      </trkpt>
      <trkpt lat="59.9931213" lon="17.8632944">
        <ele>36.1868</ele>
        <time>2013-06-02T10:12:10Z</time>
      </trkpt>
      <trkpt lat="59.9931895" lon="17.8633809">
        <ele>36.1868</ele>
        <time>2013-06-02T10:12:11Z</time>
      </trkpt>
      <trkpt lat="59.9932566" lon="17.8634681">
        <ele>36.1868</ele>
        <time>2013-06-02T10:12:12Z</time>
      </trkpt>
      <trkpt lat="59.9933236" lon="17.8635555">
        <ele>36.1868</ele>
        <time>2013-06-02T10:12:13Z</time>
      </trkpt>
      <trkpt lat="59.9933907" lon="17.8636408">
        <ele>36.1868</ele>
        <time>2013-06-02T10:12:14Z</time>
      </trkpt>
      <trkpt lat="59.9934576" lon="17.863724">
        <ele>36.6675</ele>
        <time>2013-06-02T10:12:15Z</time>
      </trkpt>
      <trkpt lat="59.9935235" lon="17.8638068">
        <ele>37.1481</ele>
        <time>2013-06-02T10:12:16Z</time>
      </trkpt>
      <trkpt lat="59.993588" lon="17.8638887">
        <ele>37.1481</ele>
        <time>2013-06-02T10:12:17Z</time>
      </trkpt>
      <trkpt lat="59.9936522" lon="17.8639716">
        <ele>37.1481</ele>
        <time>2013-06-02T10:12:18Z</time>
      </trkpt>
      <trkpt lat="59.9937165" lon="17.8640554">
        <ele>37.6287</ele>
        <time>2013-06-02T10:12:19Z</time>
      </trkpt>
      <trkpt lat="59.9937805" lon="17.8641368">
        <ele>37.6287</ele>
        <time>2013-06-02T10:12:20Z</time>
      </trkpt>
      <trkpt lat="59.9938449" lon="17.8642159">
        <ele>37.6287</ele>
        <time>2013-06-02T10:12:21Z</time>
      </trkpt>
      <trkpt lat="59.9939095" lon="17.8642932">
        <ele>38.1094</ele>
        <time>2013-06-02T10:12:22Z</time>
      </trkpt>
      <trkpt lat="59.9939729" lon="17.8643673">
        <ele>38.1094</ele>
        <time>2013-06-02T10:12:23Z</time>
      </trkpt>
      <trkpt lat="59.9940366" lon="17.8644372">
        <ele>38.1094</ele>
        <time>2013-06-02T10:12:24Z</time>
      </trkpt>
      <trkpt lat="59.9941014" lon="17.8645032">
        <ele>38.5901</ele>
        <time>2013-06-02T10:12:25Z</time>
      </trkpt>
      <trkpt lat="59.9941661" lon="17.864565">
        <ele>38.5901</ele>
        <time>2013-06-02T10:12:26Z</time>
      </trkpt>
      <trkpt lat="59.9942303" lon="17.8646257">
        <ele>39.0707</ele>
        <time>2013-06-02T10:12:27Z</time>
      </trkpt>
      <trkpt lat="59.9942943" lon="17.8646816">
        <ele>39.0707</ele>
        <time>2013-06-02T10:12:28Z</time>
      </trkpt>
      <trkpt lat="59.9943579" lon="17.8647333">
        <ele>39.5513</ele>
        <time>2013-06-02T10:12:29Z</time>
      </trkpt>
      <trkpt lat="59.9944207" lon="17.8647816">
        <ele>39.5513</ele>
        <time>2013-06-02T10:12:30Z</time>
      </trkpt>
      <trkpt lat="59.9944837" lon="17.8648231">
        <ele>40.0321</ele>
        <time>2013-06-02T10:12:31Z</time>
      </trkpt>
      <trkpt lat="59.9945466" lon="17.8648593">
        <ele>40.0321</ele>
        <time>2013-06-02T10:12:32Z</time>
      </trkpt>
      <trkpt lat="59.9946101" lon="17.8648945">
        <ele>40.0321</ele>
        <time>2013-06-02T10:12:33Z</time>
      </trkpt>
      <trkpt lat="59.994672" lon="17.8649259">
        <ele>40.0321</ele>
        <time>2013-06-02T10:12:34Z</time>
      </trkpt>
      <trkpt lat="59.9947326" lon="17.8649555">
        <ele>40.0321</ele>
        <time>2013-06-02T10:12:35Z</time>
      </trkpt>
      <trkpt lat="59.9947929" lon="17.864983">
        <ele>40.0321</ele>
        <time>2013-06-02T10:12:36Z</time>
      </trkpt>
      <trkpt lat="59.9948554" lon="17.8650078">
        <ele>40.0321</ele>
        <time>2013-06-02T10:12:37Z</time>
      </trkpt>
      <trkpt lat="59.9949176" lon="17.8650307">
        <ele>40.0321</ele>
        <time>2013-06-02T10:12:38Z</time>
      </trkpt>
      <trkpt lat="59.9949807" lon="17.8650534">
        <ele>40.0321</ele>
        <time>2013-06-02T10:12:39Z</time>
      </trkpt>
      <trkpt lat="59.9950431" lon="17.8650759">
        <ele>40.0321</ele>
        <time>2013-06-02T10:12:40Z</time>
      </trkpt>
      <trkpt lat="59.995104" lon="17.8651">
        <ele>40.5128</ele>
        <time>2013-06-02T10:12:41Z</time>
      </trkpt>
      <trkpt lat="59.9951627" lon="17.865121">
        <ele>40.5128</ele>
        <time>2013-06-02T10:12:42Z</time>
      </trkpt>
      <trkpt lat="59.9952202" lon="17.8651344">
        <ele>40.5128</ele>
        <time>2013-06-02T10:12:43Z</time>
      </trkpt>
      <trkpt lat="59.9952778" lon="17.8651518">
        <ele>40.5128</ele>
        <time>2013-06-02T10:12:44Z</time>
      </trkpt>
      <trkpt lat="59.9953357" lon="17.8651684">
        <ele>40.5128</ele>
        <time>2013-06-02T10:12:45Z</time>
      </trkpt>
      <trkpt lat="59.9953912" lon="17.8651832">
        <ele>40.0321</ele>
        <time>2013-06-02T10:12:46Z</time>
      </trkpt>
      <trkpt lat="59.9954461" lon="17.8651991">
        <ele>39.0707</ele>
        <time>2013-06-02T10:12:47Z</time>
      </trkpt>
      <trkpt lat="59.9955037" lon="17.8652148">
        <ele>38.5901</ele>
        <time>2013-06-02T10:12:48Z</time>
      </trkpt>
      <trkpt lat="59.9955596" lon="17.8652345">
        <ele>38.5901</ele>
        <time>2013-06-02T10:12:49Z</time>
      </trkpt>
      <trkpt lat="59.9956158" lon="17.8652442">
        <ele>37.6287</ele>
        <time>2013-06-02T10:12:50Z</time>
      </trkpt>
      <trkpt lat="59.9956723" lon="17.8652571">
        <ele>37.6287</ele>
        <time>2013-06-02T10:12:51Z</time>
      </trkpt>
      <trkpt lat="59.9957289" lon="17.8652742">
        <ele>37.6287</ele>
        <time>2013-06-02T10:12:52Z</time>
      </trkpt>
      <trkpt lat="59.9957867" lon="17.8652787">
        <ele>36.1868</ele>
        <time>2013-06-02T10:12:53Z</time>
      </trkpt>
      <trkpt lat="59.9958439" lon="17.8652803">
        <ele>34.2642</ele>
        <time>2013-06-02T10:12:54Z</time>
      </trkpt>
      <trkpt lat="59.9958997" lon="17.8652847">
        <ele>32.3416</ele>
        <time>2013-06-02T10:12:55Z</time>
      </trkpt>
      <trkpt lat="59.9959548" lon="17.8652965">
        <ele>31.3801</ele>
        <time>2013-06-02T10:12:56Z</time>
      </trkpt>
      <trkpt lat="59.9960119" lon="17.8653119">
        <ele>30.4188</ele>
        <time>2013-06-02T10:12:57Z</time>
      </trkpt>
      <trkpt lat="59.9960666" lon="17.8653274">
        <ele>29.9381</ele>
        <time>2013-06-02T10:12:58Z</time>
      </trkpt>
      <trkpt lat="59.9961211" lon="17.8653395">
        <ele>28.4962</ele>
        <time>2013-06-02T10:12:59Z</time>
      </trkpt>
      <trkpt lat="59.996178" lon="17.865346">
        <ele>27.5349</ele>
        <time>2013-06-02T10:13:00Z</time>
      </trkpt>
      <trkpt lat="59.9962382" lon="17.8653561">
        <ele>27.5349</ele>
        <time>2013-06-02T10:13:01Z</time>
      </trkpt>
      <trkpt lat="59.9962925" lon="17.8653785">
        <ele>27.0543</ele>
        <time>2013-06-02T10:13:02Z</time>
      </trkpt>
      <trkpt lat="59.9963516" lon="17.8653852">
        <ele>26.5736</ele>
        <time>2013-06-02T10:13:03Z</time>
      </trkpt>
      <trkpt lat="59.9964061" lon="17.8653978">
        <ele>26.5736</ele>
        <time>2013-06-02T10:13:04Z</time>
      </trkpt>
      <trkpt lat="59.9964659" lon="17.8654145">
        <ele>28.0155</ele>
        <time>2013-06-02T10:13:05Z</time>
      </trkpt>
      <trkpt lat="59.9965211" lon="17.865428">
        <ele>28.4962</ele>
        <time>2013-06-02T10:13:06Z</time>
      </trkpt>
      <trkpt lat="59.9965697" lon="17.8654399">
        <ele>28.4962</ele>
        <time>2013-06-02T10:13:07Z</time>
      </trkpt>
      <trkpt lat="59.9966136" lon="17.8654626">
        <ele>28.4962</ele>
        <time>2013-06-02T10:13:08Z</time>
      </trkpt>
      <trkpt lat="59.9966583" lon="17.8654934">
        <ele>29.9381</ele>
        <time>2013-06-02T10:13:09Z</time>
      </trkpt>
      <trkpt lat="59.9967053" lon="17.8655154">
        <ele>30.4188</ele>
        <time>2013-06-02T10:13:10Z</time>
      </trkpt>
      <trkpt lat="59.9967546" lon="17.8655189">
        <ele>28.9769</ele>
        <time>2013-06-02T10:13:11Z</time>
      </trkpt>
      <trkpt lat="59.9968104" lon="17.8655217">
        <ele>29.4575</ele>
        <time>2013-06-02T10:13:12Z</time>
      </trkpt>
      <trkpt lat="59.9968576" lon="17.8655325">
        <ele>30.8995</ele>
        <time>2013-06-02T10:13:13Z</time>
      </trkpt>
      <trkpt lat="59.9969061" lon="17.8655306">
        <ele>32.3416</ele>
        <time>2013-06-02T10:13:14Z</time>
      </trkpt>
      <trkpt lat="59.9969578" lon="17.8655118">
        <ele>33.7834</ele>
        <time>2013-06-02T10:13:15Z</time>
      </trkpt>
      <trkpt lat="59.9970073" lon="17.8655004">
        <ele>34.7449</ele>
        <time>2013-06-02T10:13:16Z</time>
      </trkpt>
      <trkpt lat="59.9970528" lon="17.8654965">
        <ele>35.2255</ele>
        <time>2013-06-02T10:13:17Z</time>
      </trkpt>
      <trkpt lat="59.9970966" lon="17.8654916">
        <ele>34.2642</ele>
        <time>2013-06-02T10:13:18Z</time>
      </trkpt>
      <trkpt lat="59.9971405" lon="17.86547">
        <ele>32.8223</ele>
        <time>2013-06-02T10:13:19Z</time>
      </trkpt>
      <trkpt lat="59.9971829" lon="17.8654473">
        <ele>32.3416</ele>
        <time>2013-06-02T10:13:20Z</time>
      </trkpt>
      <trkpt lat="59.9972292" lon="17.8654287">
        <ele>31.8607</ele>
        <time>2013-06-02T10:13:21Z</time>
      </trkpt>
      <trkpt lat="59.9972745" lon="17.8653981">
        <ele>29.9381</ele>
        <time>2013-06-02T10:13:22Z</time>
      </trkpt>
      <trkpt lat="59.9973209" lon="17.8653699">
        <ele>29.4575</ele>
        <time>2013-06-02T10:13:23Z</time>
      </trkpt>
      <trkpt lat="59.9973772" lon="17.8653228">
        <ele>29.4575</ele>
        <time>2013-06-02T10:13:24Z</time>
      </trkpt>
      <trkpt lat="59.9974366" lon="17.8652718">
        <ele>29.9381</ele>
        <time>2013-06-02T10:13:25Z</time>
      </trkpt>
      <trkpt lat="59.9974954" lon="17.8652162">
        <ele>29.9381</ele>
        <time>2013-06-02T10:13:26Z</time>
      </trkpt>
      <trkpt lat="59.9975544" lon="17.8651494">
        <ele>30.8995</ele>
        <time>2013-06-02T10:13:27Z</time>
      </trkpt>
      <trkpt lat="59.9976304" lon="17.8650861">
        <ele>30.8995</ele>
        <time>2013-06-02T10:13:28Z</time>
      </trkpt>
      <trkpt lat="59.9976902" lon="17.8649796">
        <ele>28.0155</ele>
        <time>2013-06-02T10:13:29Z</time>
      </trkpt>
      <trkpt lat="59.9977424" lon="17.8648859">
        <ele>26.5736</ele>
        <time>2013-06-02T10:13:30Z</time>
      </trkpt>
      <trkpt lat="59.9977915" lon="17.8648075">
        <ele>26.0929</ele>
        <time>2013-06-02T10:13:31Z</time>
      </trkpt>
      <trkpt lat="59.9978443" lon="17.8647187">
        <ele>26.0929</ele>
        <time>2013-06-02T10:13:32Z</time>
      </trkpt>
      <trkpt lat="59.9978989" lon="17.8646376">
        <ele>26.0929</ele>
        <time>2013-06-02T10:13:33Z</time>
      </trkpt>
      <trkpt lat="59.9979531" lon="17.8645517">
        <ele>25.6123</ele>
        <time>2013-06-02T10:13:34Z</time>
      </trkpt>
      <trkpt lat="59.998007" lon="17.8644619">
        <ele>25.6123</ele>
        <time>2013-06-02T10:13:35Z</time>
      </trkpt>
      <trkpt lat="59.9980644" lon="17.8643833">
        <ele>26.0929</ele>
        <time>2013-06-02T10:13:36Z</time>
      </trkpt>
      <trkpt lat="59.9981195" lon="17.8642999">
        <ele>25.1317</ele>
        <time>2013-06-02T10:13:37Z</time>
      </trkpt>
      <trkpt lat="59.9981744" lon="17.8642165">
        <ele>24.651</ele>
        <time>2013-06-02T10:13:38Z</time>
      </trkpt>
      <trkpt lat="59.9982295" lon="17.864132">
        <ele>24.1703</ele>
        <time>2013-06-02T10:13:39Z</time>
      </trkpt>
      <trkpt lat="59.9982807" lon="17.8640534">
        <ele>23.209</ele>
        <time>2013-06-02T10:13:40Z</time>
      </trkpt>
      <trkpt lat="59.9983348" lon="17.8639689">
        <ele>22.2476</ele>
        <time>2013-06-02T10:13:41Z</time>
      </trkpt>
      <trkpt lat="59.9983892" lon="17.86387">
        <ele>21.2864</ele>
        <time>2013-06-02T10:13:42Z</time>
      </trkpt>
      <trkpt lat="59.998446" lon="17.8637765">
        <ele>21.2864</ele>
        <time>2013-06-02T10:13:43Z</time>
      </trkpt>
      <trkpt lat="59.9985033" lon="17.863684">
        <ele>21.2864</ele>
        <time>2013-06-02T10:13:44Z</time>
      </trkpt>
      <trkpt lat="59.9985614" lon="17.8635915">
        <ele>21.2864</ele>
        <time>2013-06-02T10:13:45Z</time>
      </trkpt>
      <trkpt lat="59.9986185" lon="17.8634975">
        <ele>20.8057</ele>
        <time>2013-06-02T10:13:46Z</time>
      </trkpt>
      <trkpt lat="59.9986781" lon="17.8633999">
        <ele>19.8444</ele>
        <time>2013-06-02T10:13:47Z</time>
      </trkpt>
      <trkpt lat="59.9987411" lon="17.8633036">
        <ele>20.8057</ele>
        <time>2013-06-02T10:13:48Z</time>
      </trkpt>
      <trkpt lat="59.9988015" lon="17.8632109">
        <ele>20.8057</ele>
        <time>2013-06-02T10:13:49Z</time>
      </trkpt>
      <trkpt lat="59.9988623" lon="17.8631197">
        <ele>21.2864</ele>
        <time>2013-06-02T10:13:50Z</time>
      </trkpt>
      <trkpt lat="59.9989225" lon="17.8630277">
        <ele>21.767</ele>
        <time>2013-06-02T10:13:51Z</time>
      </trkpt>
      <trkpt lat="59.9989827" lon="17.8629373">
        <ele>22.2476</ele>
        <time>2013-06-02T10:13:52Z</time>
      </trkpt>
      <trkpt lat="59.9990427" lon="17.8628484">
        <ele>22.7283</ele>
        <time>2013-06-02T10:13:53Z</time>
      </trkpt>
      <trkpt lat="59.9991026" lon="17.8627605">
        <ele>23.209</ele>
        <time>2013-06-02T10:13:54Z</time>
      </trkpt>
      <trkpt lat="59.9991587" lon="17.8626641">
        <ele>21.767</ele>
        <time>2013-06-02T10:13:55Z</time>
      </trkpt>
      <trkpt lat="59.9992162" lon="17.8625737">
        <ele>21.767</ele>
        <time>2013-06-02T10:13:56Z</time>
      </trkpt>
      <trkpt lat="59.9992721" lon="17.8624752">
        <ele>21.2864</ele>
        <time>2013-06-02T10:13:57Z</time>
      </trkpt>
      <trkpt lat="59.9993275" lon="17.8623657">
        <ele>22.2476</ele>
        <time>2013-06-02T10:13:58Z</time>
      </trkpt>
      <trkpt lat="59.9993809" lon="17.8622494">
        <ele>22.2476</ele>
        <time>2013-06-02T10:13:59Z</time>
      </trkpt>
      <trkpt lat="59.9994348" lon="17.8621292">
        <ele>22.7283</ele>
        <time>2013-06-02T10:14:00Z</time>
      </trkpt>
      <trkpt lat="59.9994886" lon="17.8620087">
        <ele>22.2476</ele>
        <time>2013-06-02T10:14:01Z</time>
      </trkpt>
      <trkpt lat="59.9995447" lon="17.861888">
        <ele>22.2476</ele>
        <time>2013-06-02T10:14:02Z</time>
      </trkpt>
      <trkpt lat="59.9996031" lon="17.861768">
        <ele>22.2476</ele>
        <time>2013-06-02T10:14:03Z</time>
      </trkpt>
      <trkpt lat="59.9997332" lon="17.8615555">
        <ele>22.2476</ele>
        <time>2013-06-02T10:14:05Z</time>
      </trkpt>
      <trkpt lat="59.9998032" lon="17.8614651">
        <ele>21.767</ele>
        <time>2013-06-02T10:14:06Z</time>
      </trkpt>
      <trkpt lat="59.9998755" lon="17.8613834">
        <ele>21.2864</ele>
        <time>2013-06-02T10:14:07Z</time>
      </trkpt>
      <trkpt lat="59.9999485" lon="17.8613129">
        <ele>21.2864</ele>
        <time>2013-06-02T10:14:08Z</time>
      </trkpt>
      <trkpt lat="60.0000225" lon="17.8612535">
        <ele>20.8057</ele>
        <time>2013-06-02T10:14:09Z</time>
      </trkpt>
      <trkpt lat="60.0000974" lon="17.8612014">
        <ele>20.325</ele>
        <time>2013-06-02T10:14:10Z</time>
      </trkpt>
      <trkpt lat="60.0001727" lon="17.861154">
        <ele>19.8444</ele>
        <time>2013-06-02T10:14:11Z</time>
      </trkpt>
      <trkpt lat="60.000248" lon="17.8611265">
        <ele>19.8444</ele>
        <time>2013-06-02T10:14:12Z</time>
      </trkpt>
      <trkpt lat="60.0003221" lon="17.8611005">
        <ele>19.8444</ele>
        <time>2013-06-02T10:14:13Z</time>
      </trkpt>
      <trkpt lat="60.0003942" lon="17.8610722">
        <ele>19.8444</ele>
        <time>2013-06-02T10:14:14Z</time>
      </trkpt>
      <trkpt lat="60.0004635" lon="17.8610318">
        <ele>18.4023</ele>
        <time>2013-06-02T10:14:15Z</time>
      </trkpt>
      <trkpt lat="60.0005313" lon="17.8609903">
        <ele>17.4412</ele>
        <time>2013-06-02T10:14:16Z</time>
      </trkpt>
      <trkpt lat="60.0006006" lon="17.8609446">
        <ele>17.4412</ele>
        <time>2013-06-02T10:14:17Z</time>
      </trkpt>
      <trkpt lat="60.0006685" lon="17.8609046">
        <ele>17.4412</ele>
        <time>2013-06-02T10:14:18Z</time>
      </trkpt>
      <trkpt lat="60.0007334" lon="17.8608816">
        <ele>17.4412</ele>
        <time>2013-06-02T10:14:19Z</time>
      </trkpt>
      <trkpt lat="60.0008023" lon="17.860862">
        <ele>16.9604</ele>
        <time>2013-06-02T10:14:20Z</time>
      </trkpt>
      <trkpt lat="60.0008753" lon="17.8608452">
        <ele>16.9604</ele>
        <time>2013-06-02T10:14:21Z</time>
      </trkpt>
      <trkpt lat="60.0009501" lon="17.8608331">
        <ele>16.9604</ele>
        <time>2013-06-02T10:14:22Z</time>
      </trkpt>
      <trkpt lat="60.0010255" lon="17.8608283">
        <ele>17.4412</ele>
        <time>2013-06-02T10:14:23Z</time>
      </trkpt>
      <trkpt lat="60.0011017" lon="17.8608271">
        <ele>16.9604</ele>
        <time>2013-06-02T10:14:24Z</time>
      </trkpt>
      <trkpt lat="60.0011779" lon="17.860828">
        <ele>17.4412</ele>
        <time>2013-06-02T10:14:25Z</time>
      </trkpt>
      <trkpt lat="60.0012535" lon="17.860829">
        <ele>17.4412</ele>
        <time>2013-06-02T10:14:26Z</time>
      </trkpt>
      <trkpt lat="60.0013296" lon="17.8608312">
        <ele>18.4023</ele>
        <time>2013-06-02T10:14:27Z</time>
      </trkpt>
      <trkpt lat="60.0014042" lon="17.8608271">
        <ele>18.4023</ele>
        <time>2013-06-02T10:14:28Z</time>
      </trkpt>
      <trkpt lat="60.0014794" lon="17.8608256">
        <ele>18.4023</ele>
        <time>2013-06-02T10:14:29Z</time>
      </trkpt>
      <trkpt lat="60.001555" lon="17.8608235">
        <ele>18.8831</ele>
        <time>2013-06-02T10:14:30Z</time>
      </trkpt>
      <trkpt lat="60.0016316" lon="17.8608179">
        <ele>19.3638</ele>
        <time>2013-06-02T10:14:31Z</time>
      </trkpt>
      <trkpt lat="60.0017072" lon="17.8608079">
        <ele>18.8831</ele>
        <time>2013-06-02T10:14:32Z</time>
      </trkpt>
      <trkpt lat="60.0017829" lon="17.8607954">
        <ele>18.8831</ele>
        <time>2013-06-02T10:14:33Z</time>
      </trkpt>
      <trkpt lat="60.0018566" lon="17.8607825">
        <ele>18.8831</ele>
        <time>2013-06-02T10:14:34Z</time>
      </trkpt>
      <trkpt lat="60.0019296" lon="17.8607645">
        <ele>18.8831</ele>
        <time>2013-06-02T10:14:35Z</time>
      </trkpt>
      <trkpt lat="60.002003" lon="17.8607421">
        <ele>18.8831</ele>
        <time>2013-06-02T10:14:36Z</time>
      </trkpt>
      <trkpt lat="60.0020757" lon="17.8607183">
        <ele>18.8831</ele>
        <time>2013-06-02T10:14:37Z</time>
      </trkpt>
      <trkpt lat="60.0021479" lon="17.8606909">
        <ele>18.4023</ele>
        <time>2013-06-02T10:14:38Z</time>
      </trkpt>
      <trkpt lat="60.0022194" lon="17.8606582">
        <ele>17.9218</ele>
        <time>2013-06-02T10:14:39Z</time>
      </trkpt>
      <trkpt lat="60.002292" lon="17.8606224">
        <ele>17.4412</ele>
        <time>2013-06-02T10:14:40Z</time>
      </trkpt>
      <trkpt lat="60.0023646" lon="17.8605862">
        <ele>16.9604</ele>
        <time>2013-06-02T10:14:41Z</time>
      </trkpt>
      <trkpt lat="60.0024371" lon="17.8605505">
        <ele>16.4797</ele>
        <time>2013-06-02T10:14:42Z</time>
      </trkpt>
      <trkpt lat="60.0025097" lon="17.860512">
        <ele>15.999</ele>
        <time>2013-06-02T10:14:43Z</time>
      </trkpt>
      <trkpt lat="60.0025828" lon="17.8604745">
        <ele>15.999</ele>
        <time>2013-06-02T10:14:44Z</time>
      </trkpt>
      <trkpt lat="60.002662" lon="17.8604296">
        <ele>16.4797</ele>
        <time>2013-06-02T10:14:45Z</time>
      </trkpt>
      <trkpt lat="60.0027398" lon="17.8603842">
        <ele>16.9604</ele>
        <time>2013-06-02T10:14:46Z</time>
      </trkpt>
      <trkpt lat="60.0028195" lon="17.8603423">
        <ele>17.4412</ele>
        <time>2013-06-02T10:14:47Z</time>
      </trkpt>
      <trkpt lat="60.0028975" lon="17.8603045">
        <ele>18.4023</ele>
        <time>2013-06-02T10:14:48Z</time>
      </trkpt>
      <trkpt lat="60.0029731" lon="17.8602615">
        <ele>18.4023</ele>
        <time>2013-06-02T10:14:49Z</time>
      </trkpt>
      <trkpt lat="60.0030488" lon="17.860219">
        <ele>18.8831</ele>
        <time>2013-06-02T10:14:50Z</time>
      </trkpt>
      <trkpt lat="60.0031231" lon="17.8601755">
        <ele>18.8831</ele>
        <time>2013-06-02T10:14:51Z</time>
      </trkpt>
      <trkpt lat="60.0031971" lon="17.860132">
        <ele>18.8831</ele>
        <time>2013-06-02T10:14:52Z</time>
      </trkpt>
      <trkpt lat="60.0032712" lon="17.860091">
        <ele>18.8831</ele>
        <time>2013-06-02T10:14:53Z</time>
      </trkpt>
      <trkpt lat="60.0033451" lon="17.860051">
        <ele>18.8831</ele>
        <time>2013-06-02T10:14:54Z</time>
      </trkpt>
      <trkpt lat="60.0034184" lon="17.8600098">
        <ele>18.8831</ele>
        <time>2013-06-02T10:14:55Z</time>
      </trkpt>
      <trkpt lat="60.0034913" lon="17.859967">
        <ele>18.8831</ele>
        <time>2013-06-02T10:14:56Z</time>
      </trkpt>
      <trkpt lat="60.0035647" lon="17.8599236">
        <ele>18.8831</ele>
        <time>2013-06-02T10:14:57Z</time>
      </trkpt>
      <trkpt lat="60.0036385" lon="17.8598811">
        <ele>18.8831</ele>
        <time>2013-06-02T10:14:58Z</time>
      </trkpt>
      <trkpt lat="60.0037123" lon="17.8598398">
        <ele>18.8831</ele>
        <time>2013-06-02T10:14:59Z</time>
      </trkpt>
      <trkpt lat="60.0037854" lon="17.8597989">
        <ele>18.4023</ele>
        <time>2013-06-02T10:15:00Z</time>
      </trkpt>
      <trkpt lat="60.003856" lon="17.8597533">
        <ele>17.4412</ele>
        <time>2013-06-02T10:15:01Z</time>
      </trkpt>
      <trkpt lat="60.0039259" lon="17.8597124">
        <ele>17.4412</ele>
        <time>2013-06-02T10:15:02Z</time>
      </trkpt>
      <trkpt lat="60.0039967" lon="17.8596679">
        <ele>17.4412</ele>
        <time>2013-06-02T10:15:03Z</time>
      </trkpt>
      <trkpt lat="60.0040676" lon="17.8596233">
        <ele>16.9604</ele>
        <time>2013-06-02T10:15:04Z</time>
      </trkpt>
      <trkpt lat="60.0041398" lon="17.8595778">
        <ele>16.4797</ele>
        <time>2013-06-02T10:15:05Z</time>
      </trkpt>
      <trkpt lat="60.0042129" lon="17.8595311">
        <ele>15.999</ele>
        <time>2013-06-02T10:15:06Z</time>
      </trkpt>
      <trkpt lat="60.0042878" lon="17.8594827">
        <ele>15.999</ele>
        <time>2013-06-02T10:15:07Z</time>
      </trkpt>
      <trkpt lat="60.0043642" lon="17.8594291">
        <ele>15.999</ele>
        <time>2013-06-02T10:15:08Z</time>
      </trkpt>
      <trkpt lat="60.0044409" lon="17.859376">
        <ele>15.999</ele>
        <time>2013-06-02T10:15:09Z</time>
      </trkpt>
      <trkpt lat="60.0045189" lon="17.8593264">
        <ele>15.999</ele>
        <time>2013-06-02T10:15:10Z</time>
      </trkpt>
      <trkpt lat="60.0045972" lon="17.8592803">
        <ele>15.999</ele>
        <time>2013-06-02T10:15:11Z</time>
      </trkpt>
      <trkpt lat="60.0046749" lon="17.8592375">
        <ele>15.999</ele>
        <time>2013-06-02T10:15:12Z</time>
      </trkpt>
      <trkpt lat="60.0047525" lon="17.8591957">
        <ele>16.4797</ele>
        <time>2013-06-02T10:15:13Z</time>
      </trkpt>
      <trkpt lat="60.0048293" lon="17.8591522">
        <ele>16.4797</ele>
        <time>2013-06-02T10:15:14Z</time>
      </trkpt>
      <trkpt lat="60.0049059" lon="17.8591104">
        <ele>16.4797</ele>
        <time>2013-06-02T10:15:15Z</time>
      </trkpt>
      <trkpt lat="60.0049817" lon="17.8590721">
        <ele>16.9604</ele>
        <time>2013-06-02T10:15:16Z</time>
      </trkpt>
      <trkpt lat="60.0050578" lon="17.8590364">
        <ele>17.4412</ele>
        <time>2013-06-02T10:15:17Z</time>
      </trkpt>
      <trkpt lat="60.0051332" lon="17.8590041">
        <ele>17.4412</ele>
        <time>2013-06-02T10:15:18Z</time>
      </trkpt>
      <trkpt lat="60.0052075" lon="17.8589735">
        <ele>17.4412</ele>
        <time>2013-06-02T10:15:19Z</time>
      </trkpt>
      <trkpt lat="60.0052821" lon="17.8589416">
        <ele>17.9218</ele>
        <time>2013-06-02T10:15:20Z</time>
      </trkpt>
      <trkpt lat="60.0053567" lon="17.8589105">
        <ele>17.9218</ele>
        <time>2013-06-02T10:15:21Z</time>
      </trkpt>
      <trkpt lat="60.0054319" lon="17.8588794">
        <ele>17.9218</ele>
        <time>2013-06-02T10:15:22Z</time>
      </trkpt>
      <trkpt lat="60.0055084" lon="17.8588483">
        <ele>17.9218</ele>
        <time>2013-06-02T10:15:23Z</time>
      </trkpt>
      <trkpt lat="60.0055861" lon="17.8588181">
        <ele>17.9218</ele>
        <time>2013-06-02T10:15:24Z</time>
      </trkpt>
      <trkpt lat="60.0056654" lon="17.8587877">
        <ele>17.9218</ele>
        <time>2013-06-02T10:15:25Z</time>
      </trkpt>
      <trkpt lat="60.005746" lon="17.8587554">
        <ele>17.9218</ele>
        <time>2013-06-02T10:15:26Z</time>
      </trkpt>
      <trkpt lat="60.0058273" lon="17.8587226">
        <ele>18.4023</ele>
        <time>2013-06-02T10:15:27Z</time>
      </trkpt>
      <trkpt lat="60.0059084" lon="17.8586892">
        <ele>18.4023</ele>
        <time>2013-06-02T10:15:28Z</time>
      </trkpt>
      <trkpt lat="60.0059893" lon="17.858655">
        <ele>18.8831</ele>
        <time>2013-06-02T10:15:29Z</time>
      </trkpt>
      <trkpt lat="60.0060698" lon="17.858625">
        <ele>18.8831</ele>
        <time>2013-06-02T10:15:30Z</time>
      </trkpt>
      <trkpt lat="60.0061492" lon="17.8586055">
        <ele>18.8831</ele>
        <time>2013-06-02T10:15:31Z</time>
      </trkpt>
      <trkpt lat="60.0062267" lon="17.8585826">
        <ele>17.9218</ele>
        <time>2013-06-02T10:15:32Z</time>
      </trkpt>
      <trkpt lat="60.0063032" lon="17.8585568">
        <ele>17.4412</ele>
        <time>2013-06-02T10:15:33Z</time>
      </trkpt>
      <trkpt lat="60.006377" lon="17.8585237">
        <ele>15.999</ele>
        <time>2013-06-02T10:15:34Z</time>
      </trkpt>
      <trkpt lat="60.0064513" lon="17.8585008">
        <ele>15.999</ele>
        <time>2013-06-02T10:15:35Z</time>
      </trkpt>
      <trkpt lat="60.0065263" lon="17.8584721">
        <ele>15.999</ele>
        <time>2013-06-02T10:15:36Z</time>
      </trkpt>
      <trkpt lat="60.0065999" lon="17.8584444">
        <ele>15.5184</ele>
        <time>2013-06-02T10:15:37Z</time>
      </trkpt>
      <trkpt lat="60.0066785" lon="17.858427">
        <ele>16.9604</ele>
        <time>2013-06-02T10:15:38Z</time>
      </trkpt>
      <trkpt lat="60.0067577" lon="17.8584109">
        <ele>17.9218</ele>
        <time>2013-06-02T10:15:39Z</time>
      </trkpt>
      <trkpt lat="60.0068339" lon="17.858394">
        <ele>18.4023</ele>
        <time>2013-06-02T10:15:40Z</time>
      </trkpt>
      <trkpt lat="60.0069092" lon="17.8583781">
        <ele>18.4023</ele>
        <time>2013-06-02T10:15:41Z</time>
      </trkpt>
      <trkpt lat="60.0069851" lon="17.8583614">
        <ele>18.8831</ele>
        <time>2013-06-02T10:15:42Z</time>
      </trkpt>
      <trkpt lat="60.0070609" lon="17.8583453">
        <ele>19.3638</ele>
        <time>2013-06-02T10:15:43Z</time>
      </trkpt>
      <trkpt lat="60.0071365" lon="17.8583323">
        <ele>19.3638</ele>
        <time>2013-06-02T10:15:44Z</time>
      </trkpt>
      <trkpt lat="60.0072146" lon="17.8583262">
        <ele>19.8444</ele>
        <time>2013-06-02T10:15:45Z</time>
      </trkpt>
      <trkpt lat="60.0072929" lon="17.8583216">
        <ele>20.325</ele>
        <time>2013-06-02T10:15:46Z</time>
      </trkpt>
      <trkpt lat="60.0073712" lon="17.8583187">
        <ele>20.325</ele>
        <time>2013-06-02T10:15:47Z</time>
      </trkpt>
      <trkpt lat="60.0074499" lon="17.8583142">
        <ele>20.325</ele>
        <time>2013-06-02T10:15:48Z</time>
      </trkpt>
      <trkpt lat="60.0075298" lon="17.8583059">
        <ele>20.8057</ele>
        <time>2013-06-02T10:15:49Z</time>
      </trkpt>
      <trkpt lat="60.0076099" lon="17.8582923">
        <ele>20.8057</ele>
        <time>2013-06-02T10:15:50Z</time>
      </trkpt>
      <trkpt lat="60.0076887" lon="17.858278">
        <ele>20.8057</ele>
        <time>2013-06-02T10:15:51Z</time>
      </trkpt>
      <trkpt lat="60.0077678" lon="17.8582625">
        <ele>20.8057</ele>
        <time>2013-06-02T10:15:52Z</time>
      </trkpt>
      <trkpt lat="60.0078465" lon="17.8582465">
        <ele>20.8057</ele>
        <time>2013-06-02T10:15:53Z</time>
      </trkpt>
      <trkpt lat="60.0079265" lon="17.8582288">
        <ele>21.2864</ele>
        <time>2013-06-02T10:15:54Z</time>
      </trkpt>
      <trkpt lat="60.0080043" lon="17.8582084">
        <ele>21.767</ele>
        <time>2013-06-02T10:15:55Z</time>
      </trkpt>
      <trkpt lat="60.0080818" lon="17.8581869">
        <ele>21.767</ele>
        <time>2013-06-02T10:15:56Z</time>
      </trkpt>
      <trkpt lat="60.0081584" lon="17.8581659">
        <ele>22.2476</ele>
        <time>2013-06-02T10:15:57Z</time>
      </trkpt>
      <trkpt lat="60.0082342" lon="17.8581426">
        <ele>22.7283</ele>
        <time>2013-06-02T10:15:58Z</time>
      </trkpt>
      <trkpt lat="60.0083083" lon="17.8581198">
        <ele>22.7283</ele>
        <time>2013-06-02T10:15:59Z</time>
      </trkpt>
      <trkpt lat="60.0083817" lon="17.8580979">
        <ele>22.7283</ele>
        <time>2013-06-02T10:16:00Z</time>
      </trkpt>
      <trkpt lat="60.0084553" lon="17.858077">
        <ele>22.7283</ele>
        <time>2013-06-02T10:16:01Z</time>
      </trkpt>
      <trkpt lat="60.0085277" lon="17.8580567">
        <ele>22.7283</ele>
        <time>2013-06-02T10:16:02Z</time>
      </trkpt>
      <trkpt lat="60.0085984" lon="17.8580354">
        <ele>22.2476</ele>
        <time>2013-06-02T10:16:03Z</time>
      </trkpt>
      <trkpt lat="60.0086703" lon="17.8580098">
        <ele>22.2476</ele>
        <time>2013-06-02T10:16:04Z</time>
      </trkpt>
      <trkpt lat="60.0087434" lon="17.8579832">
        <ele>22.7283</ele>
        <time>2013-06-02T10:16:05Z</time>
      </trkpt>
      <trkpt lat="60.0088134" lon="17.8579618">
        <ele>22.2476</ele>
        <time>2013-06-02T10:16:06Z</time>
      </trkpt>
      <trkpt lat="60.0088838" lon="17.8579392">
        <ele>22.2476</ele>
        <time>2013-06-02T10:16:07Z</time>
      </trkpt>
      <trkpt lat="60.0089537" lon="17.8579134">
        <ele>22.2476</ele>
        <time>2013-06-02T10:16:08Z</time>
      </trkpt>
      <trkpt lat="60.0090234" lon="17.8578869">
        <ele>22.2476</ele>
        <time>2013-06-02T10:16:09Z</time>
      </trkpt>
      <trkpt lat="60.0090936" lon="17.8578609">
        <ele>22.2476</ele>
        <time>2013-06-02T10:16:10Z</time>
      </trkpt>
      <trkpt lat="60.0091639" lon="17.857833">
        <ele>22.2476</ele>
        <time>2013-06-02T10:16:11Z</time>
      </trkpt>
      <trkpt lat="60.0092353" lon="17.8578044">
        <ele>22.2476</ele>
        <time>2013-06-02T10:16:12Z</time>
      </trkpt>
      <trkpt lat="60.009308" lon="17.8577734">
        <ele>22.2476</ele>
        <time>2013-06-02T10:16:13Z</time>
      </trkpt>
      <trkpt lat="60.0093812" lon="17.8577424">
        <ele>22.7283</ele>
        <time>2013-06-02T10:16:14Z</time>
      </trkpt>
      <trkpt lat="60.0094545" lon="17.8577117">
        <ele>23.209</ele>
        <time>2013-06-02T10:16:15Z</time>
      </trkpt>
      <trkpt lat="60.0095271" lon="17.8576811">
        <ele>23.6896</ele>
        <time>2013-06-02T10:16:16Z</time>
      </trkpt>
      <trkpt lat="60.0095998" lon="17.8576522">
        <ele>24.1703</ele>
        <time>2013-06-02T10:16:17Z</time>
      </trkpt>
      <trkpt lat="60.0096695" lon="17.8576336">
        <ele>24.1703</ele>
        <time>2013-06-02T10:16:18Z</time>
      </trkpt>
      <trkpt lat="60.0097396" lon="17.8576187">
        <ele>24.1703</ele>
        <time>2013-06-02T10:16:19Z</time>
      </trkpt>
      <trkpt lat="60.0098104" lon="17.8576077">
        <ele>24.651</ele>
        <time>2013-06-02T10:16:20Z</time>
      </trkpt>
      <trkpt lat="60.009881" lon="17.8576015">
        <ele>24.651</ele>
        <time>2013-06-02T10:16:21Z</time>
      </trkpt>
      <trkpt lat="60.0099536" lon="17.8575975">
        <ele>25.1317</ele>
        <time>2013-06-02T10:16:22Z</time>
      </trkpt>
      <trkpt lat="60.0100261" lon="17.8575945">
        <ele>25.6123</ele>
        <time>2013-06-02T10:16:23Z</time>
      </trkpt>
      <trkpt lat="60.0100981" lon="17.8575998">
        <ele>26.5736</ele>
        <time>2013-06-02T10:16:24Z</time>
      </trkpt>
      <trkpt lat="60.0101691" lon="17.8576075">
        <ele>27.0543</ele>
        <time>2013-06-02T10:16:25Z</time>
      </trkpt>
      <trkpt lat="60.0102384" lon="17.8576182">
        <ele>27.5349</ele>
        <time>2013-06-02T10:16:26Z</time>
      </trkpt>
      <trkpt lat="60.0103056" lon="17.8576239">
        <ele>27.0543</ele>
        <time>2013-06-02T10:16:27Z</time>
      </trkpt>
      <trkpt lat="60.0103796" lon="17.8576327">
        <ele>28.4962</ele>
        <time>2013-06-02T10:16:28Z</time>
      </trkpt>
      <trkpt lat="60.0104482" lon="17.8576482">
        <ele>28.9769</ele>
        <time>2013-06-02T10:16:29Z</time>
      </trkpt>
      <trkpt lat="60.0105189" lon="17.8576688">
        <ele>29.4575</ele>
        <time>2013-06-02T10:16:30Z</time>
      </trkpt>
      <trkpt lat="60.0105891" lon="17.8576937">
        <ele>29.4575</ele>
        <time>2013-06-02T10:16:31Z</time>
      </trkpt>
      <trkpt lat="60.0106581" lon="17.8577101">
        <ele>28.4962</ele>
        <time>2013-06-02T10:16:32Z</time>
      </trkpt>
      <trkpt lat="60.0107273" lon="17.8577377">
        <ele>28.0155</ele>
        <time>2013-06-02T10:16:33Z</time>
      </trkpt>
      <trkpt lat="60.0107983" lon="17.8577641">
        <ele>28.9769</ele>
        <time>2013-06-02T10:16:34Z</time>
      </trkpt>
      <trkpt lat="60.0108662" lon="17.857786">
        <ele>28.9769</ele>
        <time>2013-06-02T10:16:35Z</time>
      </trkpt>
      <trkpt lat="60.0109318" lon="17.8578087">
        <ele>29.4575</ele>
        <time>2013-06-02T10:16:36Z</time>
      </trkpt>
      <trkpt lat="60.0109978" lon="17.8578284">
        <ele>30.4188</ele>
        <time>2013-06-02T10:16:37Z</time>
      </trkpt>
      <trkpt lat="60.0110603" lon="17.8578439">
        <ele>30.4188</ele>
        <time>2013-06-02T10:16:38Z</time>
      </trkpt>
      <trkpt lat="60.0111217" lon="17.8578398">
        <ele>29.4575</ele>
        <time>2013-06-02T10:16:39Z</time>
      </trkpt>
      <trkpt lat="60.0111791" lon="17.8578356">
        <ele>29.9381</ele>
        <time>2013-06-02T10:16:40Z</time>
      </trkpt>
      <trkpt lat="60.0112475" lon="17.8578225">
        <ele>29.9381</ele>
        <time>2013-06-02T10:16:41Z</time>
      </trkpt>
      <trkpt lat="60.0113169" lon="17.8578158">
        <ele>28.0155</ele>
        <time>2013-06-02T10:16:42Z</time>
      </trkpt>
      <trkpt lat="60.011379" lon="17.8578061">
        <ele>27.0543</ele>
        <time>2013-06-02T10:16:43Z</time>
      </trkpt>
      <trkpt lat="60.0114389" lon="17.8577981">
        <ele>26.0929</ele>
        <time>2013-06-02T10:16:44Z</time>
      </trkpt>
      <trkpt lat="60.0114967" lon="17.8577967">
        <ele>24.651</ele>
        <time>2013-06-02T10:16:45Z</time>
      </trkpt>
      <trkpt lat="60.0115586" lon="17.8577886">
        <ele>25.1317</ele>
        <time>2013-06-02T10:16:46Z</time>
      </trkpt>
      <trkpt lat="60.0116192" lon="17.8577657">
        <ele>23.6896</ele>
        <time>2013-06-02T10:16:47Z</time>
      </trkpt>
      <trkpt lat="60.0116779" lon="17.8577386">
        <ele>22.2476</ele>
        <time>2013-06-02T10:16:48Z</time>
      </trkpt>
      <trkpt lat="60.0117421" lon="17.8577104">
        <ele>22.7283</ele>
        <time>2013-06-02T10:16:49Z</time>
      </trkpt>
      <trkpt lat="60.0118043" lon="17.8576828">
        <ele>23.209</ele>
        <time>2013-06-02T10:16:50Z</time>
      </trkpt>
      <trkpt lat="60.0118655" lon="17.8576577">
        <ele>23.209</ele>
        <time>2013-06-02T10:16:51Z</time>
      </trkpt>
      <trkpt lat="60.0119271" lon="17.8576344">
        <ele>23.6896</ele>
        <time>2013-06-02T10:16:52Z</time>
      </trkpt>
      <trkpt lat="60.0119877" lon="17.8576156">
        <ele>24.1703</ele>
        <time>2013-06-02T10:16:53Z</time>
      </trkpt>
      <trkpt lat="60.01205" lon="17.8576024">
        <ele>24.1703</ele>
        <time>2013-06-02T10:16:54Z</time>
      </trkpt>
      <trkpt lat="60.0121137" lon="17.8575926">
        <ele>24.651</ele>
        <time>2013-06-02T10:16:55Z</time>
      </trkpt>
      <trkpt lat="60.0121789" lon="17.8575891">
        <ele>25.1317</ele>
        <time>2013-06-02T10:16:56Z</time>
      </trkpt>
      <trkpt lat="60.0122445" lon="17.8576005">
        <ele>27.5349</ele>
        <time>2013-06-02T10:16:57Z</time>
      </trkpt>
      <trkpt lat="60.0123089" lon="17.8576119">
        <ele>29.4575</ele>
        <time>2013-06-02T10:16:58Z</time>
      </trkpt>
      <trkpt lat="60.0123731" lon="17.8576265">
        <ele>30.8995</ele>
        <time>2013-06-02T10:16:59Z</time>
      </trkpt>
      <trkpt lat="60.0124379" lon="17.8576401">
        <ele>31.8607</ele>
        <time>2013-06-02T10:17:00Z</time>
      </trkpt>
      <trkpt lat="60.0125034" lon="17.857659">
        <ele>32.3416</ele>
        <time>2013-06-02T10:17:01Z</time>
      </trkpt>
      <trkpt lat="60.0125694" lon="17.8576787">
        <ele>32.8223</ele>
        <time>2013-06-02T10:17:02Z</time>
      </trkpt>
      <trkpt lat="60.0126332" lon="17.8577004">
        <ele>33.3029</ele>
        <time>2013-06-02T10:17:03Z</time>
      </trkpt>
      <trkpt lat="60.0126984" lon="17.8577186">
        <ele>32.8223</ele>
        <time>2013-06-02T10:17:04Z</time>
      </trkpt>
      <trkpt lat="60.0127633" lon="17.8577284">
        <ele>31.8607</ele>
        <time>2013-06-02T10:17:05Z</time>
      </trkpt>
      <trkpt lat="60.0128315" lon="17.857731">
        <ele>31.3801</ele>
        <time>2013-06-02T10:17:06Z</time>
      </trkpt>
      <trkpt lat="60.0129028" lon="17.8577285">
        <ele>30.4188</ele>
        <time>2013-06-02T10:17:07Z</time>
      </trkpt>
      <trkpt lat="60.0129755" lon="17.8577236">
        <ele>29.4575</ele>
        <time>2013-06-02T10:17:08Z</time>
      </trkpt>
      <trkpt lat="60.0130504" lon="17.8577123">
        <ele>28.9769</ele>
        <time>2013-06-02T10:17:09Z</time>
      </trkpt>
      <trkpt lat="60.0131257" lon="17.8576948">
        <ele>28.4962</ele>
        <time>2013-06-02T10:17:10Z</time>
      </trkpt>
      <trkpt lat="60.0132019" lon="17.8576713">
        <ele>28.0155</ele>
        <time>2013-06-02T10:17:11Z</time>
      </trkpt>
      <trkpt lat="60.013278" lon="17.857642">
        <ele>27.5349</ele>
        <time>2013-06-02T10:17:12Z</time>
      </trkpt>
      <trkpt lat="60.0133542" lon="17.8576076">
        <ele>27.5349</ele>
        <time>2013-06-02T10:17:13Z</time>
      </trkpt>
      <trkpt lat="60.0134303" lon="17.8575621">
        <ele>27.5349</ele>
        <time>2013-06-02T10:17:14Z</time>
      </trkpt>
      <trkpt lat="60.0135044" lon="17.8575118">
        <ele>27.5349</ele>
        <time>2013-06-02T10:17:15Z</time>
      </trkpt>
      <trkpt lat="60.0135765" lon="17.8574544">
        <ele>28.0155</ele>
        <time>2013-06-02T10:17:16Z</time>
      </trkpt>
      <trkpt lat="60.0136474" lon="17.8573932">
        <ele>28.0155</ele>
        <time>2013-06-02T10:17:17Z</time>
      </trkpt>
      <trkpt lat="60.0137197" lon="17.8573278">
        <ele>28.0155</ele>
        <time>2013-06-02T10:17:18Z</time>
      </trkpt>
      <trkpt lat="60.0137918" lon="17.8572643">
        <ele>28.4962</ele>
        <time>2013-06-02T10:17:19Z</time>
      </trkpt>
      <trkpt lat="60.0138618" lon="17.8572067">
        <ele>28.4962</ele>
        <time>2013-06-02T10:17:20Z</time>
      </trkpt>
      <trkpt lat="60.0139287" lon="17.8571625">
        <ele>28.9769</ele>
        <time>2013-06-02T10:17:21Z</time>
      </trkpt>
      <trkpt lat="60.0139982" lon="17.8571222">
        <ele>29.4575</ele>
        <time>2013-06-02T10:17:22Z</time>
      </trkpt>
      <trkpt lat="60.0140678" lon="17.8570835">
        <ele>29.4575</ele>
        <time>2013-06-02T10:17:23Z</time>
      </trkpt>
      <trkpt lat="60.0141338" lon="17.8570395">
        <ele>28.9769</ele>
        <time>2013-06-02T10:17:24Z</time>
      </trkpt>
      <trkpt lat="60.0141996" lon="17.857">
        <ele>28.4962</ele>
        <time>2013-06-02T10:17:25Z</time>
      </trkpt>
      <trkpt lat="60.0142669" lon="17.8569649">
        <ele>28.4962</ele>
        <time>2013-06-02T10:17:26Z</time>
      </trkpt>
      <trkpt lat="60.0143359" lon="17.8569325">
        <ele>28.4962</ele>
        <time>2013-06-02T10:17:27Z</time>
      </trkpt>
      <trkpt lat="60.0144084" lon="17.8568995">
        <ele>28.9769</ele>
        <time>2013-06-02T10:17:28Z</time>
      </trkpt>
      <trkpt lat="60.0144819" lon="17.856871">
        <ele>29.4575</ele>
        <time>2013-06-02T10:17:29Z</time>
      </trkpt>
      <trkpt lat="60.014556" lon="17.8568465">
        <ele>29.9381</ele>
        <time>2013-06-02T10:17:30Z</time>
      </trkpt>
      <trkpt lat="60.0146305" lon="17.8568245">
        <ele>30.8995</ele>
        <time>2013-06-02T10:17:31Z</time>
      </trkpt>
      <trkpt lat="60.0147052" lon="17.8568007">
        <ele>31.3801</ele>
        <time>2013-06-02T10:17:32Z</time>
      </trkpt>
      <trkpt lat="60.0147798" lon="17.8567736">
        <ele>32.3416</ele>
        <time>2013-06-02T10:17:33Z</time>
      </trkpt>
      <trkpt lat="60.014854" lon="17.8567473">
        <ele>33.3029</ele>
        <time>2013-06-02T10:17:34Z</time>
      </trkpt>
      <trkpt lat="60.0149268" lon="17.8567146">
        <ele>34.2642</ele>
        <time>2013-06-02T10:17:35Z</time>
      </trkpt>
      <trkpt lat="60.0149956" lon="17.8566737">
        <ele>34.7449</ele>
        <time>2013-06-02T10:17:36Z</time>
      </trkpt>
      <trkpt lat="60.0150612" lon="17.856622">
        <ele>34.2642</ele>
        <time>2013-06-02T10:17:37Z</time>
      </trkpt>
      <trkpt lat="60.0151256" lon="17.8565666">
        <ele>34.7449</ele>
        <time>2013-06-02T10:17:38Z</time>
      </trkpt>
      <trkpt lat="60.0151874" lon="17.8565047">
        <ele>35.2255</ele>
        <time>2013-06-02T10:17:39Z</time>
      </trkpt>
      <trkpt lat="60.015251" lon="17.8564349">
        <ele>35.2255</ele>
        <time>2013-06-02T10:17:40Z</time>
      </trkpt>
      <trkpt lat="60.0153138" lon="17.8563591">
        <ele>35.7061</ele>
        <time>2013-06-02T10:17:41Z</time>
      </trkpt>
      <trkpt lat="60.0153681" lon="17.85627">
        <ele>36.1868</ele>
        <time>2013-06-02T10:17:42Z</time>
      </trkpt>
      <trkpt lat="60.0154173" lon="17.856166">
        <ele>35.7061</ele>
        <time>2013-06-02T10:17:43Z</time>
      </trkpt>
      <trkpt lat="60.0154678" lon="17.8560608">
        <ele>34.2642</ele>
        <time>2013-06-02T10:17:44Z</time>
      </trkpt>
      <trkpt lat="60.0155195" lon="17.8559599">
        <ele>32.8223</ele>
        <time>2013-06-02T10:17:45Z</time>
      </trkpt>
      <trkpt lat="60.0155728" lon="17.8558599">
        <ele>31.3801</ele>
        <time>2013-06-02T10:17:46Z</time>
      </trkpt>
      <trkpt lat="60.0156265" lon="17.8557624">
        <ele>29.9381</ele>
        <time>2013-06-02T10:17:47Z</time>
      </trkpt>
      <trkpt lat="60.0156806" lon="17.8556658">
        <ele>28.0155</ele>
        <time>2013-06-02T10:17:48Z</time>
      </trkpt>
      <trkpt lat="60.0157349" lon="17.8555743">
        <ele>27.0543</ele>
        <time>2013-06-02T10:17:49Z</time>
      </trkpt>
      <trkpt lat="60.0157904" lon="17.8554946">
        <ele>27.0543</ele>
        <time>2013-06-02T10:17:50Z</time>
      </trkpt>
      <trkpt lat="60.015842" lon="17.8554191">
        <ele>26.5736</ele>
        <time>2013-06-02T10:17:51Z</time>
      </trkpt>
      <trkpt lat="60.0158905" lon="17.8553461">
        <ele>26.5736</ele>
        <time>2013-06-02T10:17:52Z</time>
      </trkpt>
      <trkpt lat="60.0159348" lon="17.8552739">
        <ele>24.1703</ele>
        <time>2013-06-02T10:17:53Z</time>
      </trkpt>
      <trkpt lat="60.0159909" lon="17.8551958">
        <ele>24.1703</ele>
        <time>2013-06-02T10:17:54Z</time>
      </trkpt>
      <trkpt lat="60.0160515" lon="17.8551161">
        <ele>25.1317</ele>
        <time>2013-06-02T10:17:55Z</time>
      </trkpt>
      <trkpt lat="60.0161162" lon="17.8550244">
        <ele>26.5736</ele>
        <time>2013-06-02T10:17:56Z</time>
      </trkpt>
      <trkpt lat="60.0161795" lon="17.8549291">
        <ele>28.0155</ele>
        <time>2013-06-02T10:17:57Z</time>
      </trkpt>
      <trkpt lat="60.0162368" lon="17.854816">
        <ele>28.9769</ele>
        <time>2013-06-02T10:17:58Z</time>
      </trkpt>
      <trkpt lat="60.0162862" lon="17.8546726">
        <ele>29.4575</ele>
        <time>2013-06-02T10:17:59Z</time>
      </trkpt>
      <trkpt lat="60.0163266" lon="17.8545111">
        <ele>29.9381</ele>
        <time>2013-06-02T10:18:00Z</time>
      </trkpt>
      <trkpt lat="60.0163607" lon="17.8543291">
        <ele>28.4962</ele>
        <time>2013-06-02T10:18:01Z</time>
      </trkpt>
      <trkpt lat="60.0163921" lon="17.8541447">
        <ele>27.5349</ele>
        <time>2013-06-02T10:18:02Z</time>
      </trkpt>
      <trkpt lat="60.0164235" lon="17.8539614">
        <ele>26.0929</ele>
        <time>2013-06-02T10:18:03Z</time>
      </trkpt>
      <trkpt lat="60.016458" lon="17.8537852">
        <ele>26.5736</ele>
        <time>2013-06-02T10:18:04Z</time>
      </trkpt>
      <trkpt lat="60.0164919" lon="17.8536111">
        <ele>26.5736</ele>
        <time>2013-06-02T10:18:05Z</time>
      </trkpt>
      <trkpt lat="60.0165247" lon="17.8534354">
        <ele>25.6123</ele>
        <time>2013-06-02T10:18:06Z</time>
      </trkpt>
      <trkpt lat="60.0165587" lon="17.8532651">
        <ele>24.651</ele>
        <time>2013-06-02T10:18:07Z</time>
      </trkpt>
      <trkpt lat="60.0165943" lon="17.8530984">
        <ele>24.1703</ele>
        <time>2013-06-02T10:18:08Z</time>
      </trkpt>
      <trkpt lat="60.0166301" lon="17.8529357">
        <ele>23.6896</ele>
        <time>2013-06-02T10:18:09Z</time>
      </trkpt>
      <trkpt lat="60.0166669" lon="17.8527756">
        <ele>23.209</ele>
        <time>2013-06-02T10:18:10Z</time>
      </trkpt>
      <trkpt lat="60.0167041" lon="17.8526162">
        <ele>22.7283</ele>
        <time>2013-06-02T10:18:11Z</time>
      </trkpt>
      <trkpt lat="60.0167416" lon="17.85246">
        <ele>22.2476</ele>
        <time>2013-06-02T10:18:12Z</time>
      </trkpt>
      <trkpt lat="60.0167793" lon="17.8523055">
        <ele>21.767</ele>
        <time>2013-06-02T10:18:13Z</time>
      </trkpt>
      <trkpt lat="60.0168159" lon="17.8521521">
        <ele>21.2864</ele>
        <time>2013-06-02T10:18:14Z</time>
      </trkpt>
      <trkpt lat="60.0168487" lon="17.8519993">
        <ele>20.8057</ele>
        <time>2013-06-02T10:18:15Z</time>
      </trkpt>
      <trkpt lat="60.016875" lon="17.8518463">
        <ele>21.2864</ele>
        <time>2013-06-02T10:18:16Z</time>
      </trkpt>
      <trkpt lat="60.0168967" lon="17.8516952">
        <ele>21.2864</ele>
        <time>2013-06-02T10:18:17Z</time>
      </trkpt>
      <trkpt lat="60.0169171" lon="17.8515495">
        <ele>21.767</ele>
        <time>2013-06-02T10:18:18Z</time>
      </trkpt>
      <trkpt lat="60.0169353" lon="17.8514082">
        <ele>21.767</ele>
        <time>2013-06-02T10:18:19Z</time>
      </trkpt>
      <trkpt lat="60.0169508" lon="17.8512636">
        <ele>22.2476</ele>
        <time>2013-06-02T10:18:20Z</time>
      </trkpt>
      <trkpt lat="60.0169642" lon="17.851117">
        <ele>22.7283</ele>
        <time>2013-06-02T10:18:21Z</time>
      </trkpt>
      <trkpt lat="60.0169756" lon="17.8509678">
        <ele>23.6896</ele>
        <time>2013-06-02T10:18:22Z</time>
      </trkpt>
      <trkpt lat="60.0169866" lon="17.8508165">
        <ele>24.1703</ele>
        <time>2013-06-02T10:18:23Z</time>
      </trkpt>
      <trkpt lat="60.0169995" lon="17.8506664">
        <ele>24.651</ele>
        <time>2013-06-02T10:18:24Z</time>
      </trkpt>
      <trkpt lat="60.0170123" lon="17.8505168">
        <ele>25.1317</ele>
        <time>2013-06-02T10:18:25Z</time>
      </trkpt>
      <trkpt lat="60.0170247" lon="17.8503666">
        <ele>25.6123</ele>
        <time>2013-06-02T10:18:26Z</time>
      </trkpt>
      <trkpt lat="60.0170372" lon="17.8502146">
        <ele>26.5736</ele>
        <time>2013-06-02T10:18:27Z</time>
      </trkpt>
      <trkpt lat="60.0170495" lon="17.8500588">
        <ele>27.0543</ele>
        <time>2013-06-02T10:18:28Z</time>
      </trkpt>
      <trkpt lat="60.0170632" lon="17.8499013">
        <ele>27.5349</ele>
        <time>2013-06-02T10:18:29Z</time>
      </trkpt>
      <trkpt lat="60.017079" lon="17.8497431">
        <ele>28.9769</ele>
        <time>2013-06-02T10:18:30Z</time>
      </trkpt>
      <trkpt lat="60.0170958" lon="17.8495794">
        <ele>29.9381</ele>
        <time>2013-06-02T10:18:31Z</time>
      </trkpt>
      <trkpt lat="60.0171128" lon="17.8494176">
        <ele>30.8995</ele>
        <time>2013-06-02T10:18:32Z</time>
      </trkpt>
      <trkpt lat="60.0171268" lon="17.8492567">
        <ele>31.8607</ele>
        <time>2013-06-02T10:18:33Z</time>
      </trkpt>
      <trkpt lat="60.0171358" lon="17.8490968">
        <ele>32.3416</ele>
        <time>2013-06-02T10:18:34Z</time>
      </trkpt>
      <trkpt lat="60.0171397" lon="17.8489469">
        <ele>33.7834</ele>
        <time>2013-06-02T10:18:35Z</time>
      </trkpt>
      <trkpt lat="60.0171407" lon="17.848804">
        <ele>34.7449</ele>
        <time>2013-06-02T10:18:36Z</time>
      </trkpt>
      <trkpt lat="60.0171436" lon="17.8486652">
        <ele>35.2255</ele>
        <time>2013-06-02T10:18:37Z</time>
      </trkpt>
      <trkpt lat="60.0171517" lon="17.8485363">
        <ele>35.7061</ele>
        <time>2013-06-02T10:18:38Z</time>
      </trkpt>
      <trkpt lat="60.017163" lon="17.8484053">
        <ele>35.2255</ele>
        <time>2013-06-02T10:18:39Z</time>
      </trkpt>
      <trkpt lat="60.0171782" lon="17.8482829">
        <ele>35.7061</ele>
        <time>2013-06-02T10:18:40Z</time>
      </trkpt>
      <trkpt lat="60.0171953" lon="17.8481643">
        <ele>36.1868</ele>
        <time>2013-06-02T10:18:41Z</time>
      </trkpt>
      <trkpt lat="60.0172125" lon="17.8480347">
        <ele>35.2255</ele>
        <time>2013-06-02T10:18:42Z</time>
      </trkpt>
      <trkpt lat="60.0172305" lon="17.8479043">
        <ele>34.7449</ele>
        <time>2013-06-02T10:18:43Z</time>
      </trkpt>
      <trkpt lat="60.017249" lon="17.8477727">
        <ele>33.7834</ele>
        <time>2013-06-02T10:18:44Z</time>
      </trkpt>
      <trkpt lat="60.0172688" lon="17.8476422">
        <ele>33.3029</ele>
        <time>2013-06-02T10:18:45Z</time>
      </trkpt>
      <trkpt lat="60.017289" lon="17.8475144">
        <ele>32.8223</ele>
        <time>2013-06-02T10:18:46Z</time>
      </trkpt>
      <trkpt lat="60.0173093" lon="17.8473861">
        <ele>32.3416</ele>
        <time>2013-06-02T10:18:47Z</time>
      </trkpt>
      <trkpt lat="60.017331" lon="17.8472587">
        <ele>31.3801</ele>
        <time>2013-06-02T10:18:48Z</time>
      </trkpt>
      <trkpt lat="60.0173573" lon="17.8471372">
        <ele>31.3801</ele>
        <time>2013-06-02T10:18:49Z</time>
      </trkpt>
      <trkpt lat="60.017388" lon="17.847018">
        <ele>31.3801</ele>
        <time>2013-06-02T10:18:50Z</time>
      </trkpt>
      <trkpt lat="60.0174227" lon="17.8469015">
        <ele>31.3801</ele>
        <time>2013-06-02T10:18:51Z</time>
      </trkpt>
      <trkpt lat="60.0174627" lon="17.8467921">
        <ele>31.3801</ele>
        <time>2013-06-02T10:18:52Z</time>
      </trkpt>
      <trkpt lat="60.0175071" lon="17.8466886">
        <ele>31.3801</ele>
        <time>2013-06-02T10:18:53Z</time>
      </trkpt>
      <trkpt lat="60.0175542" lon="17.8465902">
        <ele>31.3801</ele>
        <time>2013-06-02T10:18:54Z</time>
      </trkpt>
      <trkpt lat="60.017604" lon="17.8464986">
        <ele>31.8607</ele>
        <time>2013-06-02T10:18:55Z</time>
      </trkpt>
      <trkpt lat="60.0176537" lon="17.8464057">
        <ele>31.3801</ele>
        <time>2013-06-02T10:18:56Z</time>
      </trkpt>
      <trkpt lat="60.0177024" lon="17.8463133">
        <ele>30.8995</ele>
        <time>2013-06-02T10:18:57Z</time>
      </trkpt>
      <trkpt lat="60.01775" lon="17.8462223">
        <ele>30.4188</ele>
        <time>2013-06-02T10:18:58Z</time>
      </trkpt>
      <trkpt lat="60.0177949" lon="17.8461271">
        <ele>30.4188</ele>
        <time>2013-06-02T10:18:59Z</time>
      </trkpt>
      <trkpt lat="60.0178371" lon="17.8460274">
        <ele>30.8995</ele>
        <time>2013-06-02T10:19:00Z</time>
      </trkpt>
      <trkpt lat="60.0178778" lon="17.8459235">
        <ele>30.8995</ele>
        <time>2013-06-02T10:19:01Z</time>
      </trkpt>
      <trkpt lat="60.0179168" lon="17.8458158">
        <ele>31.3801</ele>
        <time>2013-06-02T10:19:02Z</time>
      </trkpt>
      <trkpt lat="60.0179516" lon="17.845697">
        <ele>29.9381</ele>
        <time>2013-06-02T10:19:03Z</time>
      </trkpt>
      <trkpt lat="60.0179825" lon="17.8455752">
        <ele>28.4962</ele>
        <time>2013-06-02T10:19:04Z</time>
      </trkpt>
      <trkpt lat="60.0180095" lon="17.845449">
        <ele>27.5349</ele>
        <time>2013-06-02T10:19:05Z</time>
      </trkpt>
      <trkpt lat="60.0180359" lon="17.8453253">
        <ele>27.5349</ele>
        <time>2013-06-02T10:19:06Z</time>
      </trkpt>
      <trkpt lat="60.0180617" lon="17.8452032">
        <ele>27.5349</ele>
        <time>2013-06-02T10:19:07Z</time>
      </trkpt>
      <trkpt lat="60.0180873" lon="17.8450801">
        <ele>27.5349</ele>
        <time>2013-06-02T10:19:08Z</time>
      </trkpt>
      <trkpt lat="60.018113" lon="17.8449552">
        <ele>27.5349</ele>
        <time>2013-06-02T10:19:09Z</time>
      </trkpt>
      <trkpt lat="60.0181387" lon="17.84483">
        <ele>28.0155</ele>
        <time>2013-06-02T10:19:10Z</time>
      </trkpt>
      <trkpt lat="60.0181645" lon="17.844706">
        <ele>28.0155</ele>
        <time>2013-06-02T10:19:11Z</time>
      </trkpt>
      <trkpt lat="60.0181882" lon="17.844575">
        <ele>27.0543</ele>
        <time>2013-06-02T10:19:12Z</time>
      </trkpt>
      <trkpt lat="60.0182124" lon="17.8444457">
        <ele>26.5736</ele>
        <time>2013-06-02T10:19:13Z</time>
      </trkpt>
      <trkpt lat="60.0182371" lon="17.8443176">
        <ele>26.5736</ele>
        <time>2013-06-02T10:19:14Z</time>
      </trkpt>
      <trkpt lat="60.0182619" lon="17.8441892">
        <ele>26.0929</ele>
        <time>2013-06-02T10:19:15Z</time>
      </trkpt>
      <trkpt lat="60.018288" lon="17.8440611">
        <ele>25.6123</ele>
        <time>2013-06-02T10:19:16Z</time>
      </trkpt>
      <trkpt lat="60.0183152" lon="17.8439327">
        <ele>25.6123</ele>
        <time>2013-06-02T10:19:17Z</time>
      </trkpt>
      <trkpt lat="60.0183432" lon="17.8438047">
        <ele>25.1317</ele>
        <time>2013-06-02T10:19:18Z</time>
      </trkpt>
      <trkpt lat="60.0183716" lon="17.8436773">
        <ele>25.1317</ele>
        <time>2013-06-02T10:19:19Z</time>
      </trkpt>
      <trkpt lat="60.0184003" lon="17.8435493">
        <ele>25.1317</ele>
        <time>2013-06-02T10:19:20Z</time>
      </trkpt>
      <trkpt lat="60.01843" lon="17.8434208">
        <ele>24.651</ele>
        <time>2013-06-02T10:19:21Z</time>
      </trkpt>
      <trkpt lat="60.0184607" lon="17.8432931">
        <ele>25.1317</ele>
        <time>2013-06-02T10:19:22Z</time>
      </trkpt>
      <trkpt lat="60.0184921" lon="17.8431655">
        <ele>25.1317</ele>
        <time>2013-06-02T10:19:23Z</time>
      </trkpt>
      <trkpt lat="60.0185248" lon="17.8430382">
        <ele>25.1317</ele>
        <time>2013-06-02T10:19:24Z</time>
      </trkpt>
      <trkpt lat="60.0185571" lon="17.842909">
        <ele>25.1317</ele>
        <time>2013-06-02T10:19:25Z</time>
      </trkpt>
      <trkpt lat="60.0185885" lon="17.8427776">
        <ele>25.1317</ele>
        <time>2013-06-02T10:19:26Z</time>
      </trkpt>
      <trkpt lat="60.0186213" lon="17.8426477">
        <ele>25.6123</ele>
        <time>2013-06-02T10:19:27Z</time>
      </trkpt>
      <trkpt lat="60.018656" lon="17.8425201">
        <ele>25.6123</ele>
        <time>2013-06-02T10:19:28Z</time>
      </trkpt>
      <trkpt lat="60.0186892" lon="17.8423899">
        <ele>25.6123</ele>
        <time>2013-06-02T10:19:29Z</time>
      </trkpt>
      <trkpt lat="60.0187214" lon="17.8422581">
        <ele>25.6123</ele>
        <time>2013-06-02T10:19:30Z</time>
      </trkpt>
      <trkpt lat="60.0187544" lon="17.8421268">
        <ele>25.6123</ele>
        <time>2013-06-02T10:19:31Z</time>
      </trkpt>
      <trkpt lat="60.018788" lon="17.8419952">
        <ele>26.0929</ele>
        <time>2013-06-02T10:19:32Z</time>
      </trkpt>
      <trkpt lat="60.0188219" lon="17.8418629">
        <ele>26.0929</ele>
        <time>2013-06-02T10:19:33Z</time>
      </trkpt>
      <trkpt lat="60.0188558" lon="17.8417297">
        <ele>26.0929</ele>
        <time>2013-06-02T10:19:34Z</time>
      </trkpt>
      <trkpt lat="60.0188889" lon="17.8415948">
        <ele>26.0929</ele>
        <time>2013-06-02T10:19:35Z</time>
      </trkpt>
      <trkpt lat="60.0189209" lon="17.8414581">
        <ele>26.0929</ele>
        <time>2013-06-02T10:19:36Z</time>
      </trkpt>
      <trkpt lat="60.0189517" lon="17.8413192">
        <ele>26.0929</ele>
        <time>2013-06-02T10:19:37Z</time>
      </trkpt>
      <trkpt lat="60.0189858" lon="17.8411841">
        <ele>26.0929</ele>
        <time>2013-06-02T10:19:38Z</time>
      </trkpt>
      <trkpt lat="60.0190218" lon="17.8410472">
        <ele>25.6123</ele>
        <time>2013-06-02T10:19:39Z</time>
      </trkpt>
      <trkpt lat="60.0190554" lon="17.8409094">
        <ele>25.1317</ele>
        <time>2013-06-02T10:19:40Z</time>
      </trkpt>
      <trkpt lat="60.019086" lon="17.8407672">
        <ele>24.651</ele>
        <time>2013-06-02T10:19:41Z</time>
      </trkpt>
      <trkpt lat="60.0191171" lon="17.840632">
        <ele>24.1703</ele>
        <time>2013-06-02T10:19:42Z</time>
      </trkpt>
      <trkpt lat="60.0191445" lon="17.8404989">
        <ele>24.1703</ele>
        <time>2013-06-02T10:19:43Z</time>
      </trkpt>
      <trkpt lat="60.0191741" lon="17.8403681">
        <ele>24.1703</ele>
        <time>2013-06-02T10:19:44Z</time>
      </trkpt>
      <trkpt lat="60.0192045" lon="17.8402352">
        <ele>24.651</ele>
        <time>2013-06-02T10:19:45Z</time>
      </trkpt>
      <trkpt lat="60.0192366" lon="17.8401048">
        <ele>24.1703</ele>
        <time>2013-06-02T10:19:46Z</time>
      </trkpt>
      <trkpt lat="60.0192682" lon="17.8399772">
        <ele>24.1703</ele>
        <time>2013-06-02T10:19:47Z</time>
      </trkpt>
      <trkpt lat="60.0192963" lon="17.8398524">
        <ele>23.6896</ele>
        <time>2013-06-02T10:19:48Z</time>
      </trkpt>
      <trkpt lat="60.0193243" lon="17.8397261">
        <ele>23.209</ele>
        <time>2013-06-02T10:19:49Z</time>
      </trkpt>
      <trkpt lat="60.0193529" lon="17.8396052">
        <ele>22.7283</ele>
        <time>2013-06-02T10:19:50Z</time>
      </trkpt>
      <trkpt lat="60.0193823" lon="17.8394795">
        <ele>22.2476</ele>
        <time>2013-06-02T10:19:51Z</time>
      </trkpt>
      <trkpt lat="60.0194116" lon="17.8393542">
        <ele>22.2476</ele>
        <time>2013-06-02T10:19:52Z</time>
      </trkpt>
      <trkpt lat="60.0194349" lon="17.8392209">
        <ele>22.2476</ele>
        <time>2013-06-02T10:19:53Z</time>
      </trkpt>
      <trkpt lat="60.0194574" lon="17.839086">
        <ele>22.7283</ele>
        <time>2013-06-02T10:19:54Z</time>
      </trkpt>
      <trkpt lat="60.0194795" lon="17.8389508">
        <ele>23.6896</ele>
        <time>2013-06-02T10:19:55Z</time>
      </trkpt>
      <trkpt lat="60.0194953" lon="17.8388121">
        <ele>24.651</ele>
        <time>2013-06-02T10:19:56Z</time>
      </trkpt>
      <trkpt lat="60.0195067" lon="17.8386701">
        <ele>25.6123</ele>
        <time>2013-06-02T10:19:57Z</time>
      </trkpt>
      <trkpt lat="60.0195148" lon="17.8385223">
        <ele>26.5736</ele>
        <time>2013-06-02T10:19:58Z</time>
      </trkpt>
      <trkpt lat="60.0195215" lon="17.838374">
        <ele>28.0155</ele>
        <time>2013-06-02T10:19:59Z</time>
      </trkpt>
      <trkpt lat="60.0195241" lon="17.838222">
        <ele>28.4962</ele>
        <time>2013-06-02T10:20:00Z</time>
      </trkpt>
      <trkpt lat="60.0195279" lon="17.838074">
        <ele>29.9381</ele>
        <time>2013-06-02T10:20:01Z</time>
      </trkpt>
      <trkpt lat="60.0195315" lon="17.8379275">
        <ele>31.3801</ele>
        <time>2013-06-02T10:20:02Z</time>
      </trkpt>
      <trkpt lat="60.0195357" lon="17.8377839">
        <ele>32.8223</ele>
        <time>2013-06-02T10:20:03Z</time>
      </trkpt>
      <trkpt lat="60.0195399" lon="17.8376415">
        <ele>33.7834</ele>
        <time>2013-06-02T10:20:04Z</time>
      </trkpt>
      <trkpt lat="60.0195432" lon="17.8374903">
        <ele>33.7834</ele>
        <time>2013-06-02T10:20:05Z</time>
      </trkpt>
      <trkpt lat="60.0195447" lon="17.8373427">
        <ele>33.7834</ele>
        <time>2013-06-02T10:20:06Z</time>
      </trkpt>
      <trkpt lat="60.019545" lon="17.8371944">
        <ele>33.3029</ele>
        <time>2013-06-02T10:20:07Z</time>
      </trkpt>
      <trkpt lat="60.019548" lon="17.8370513">
        <ele>33.3029</ele>
        <time>2013-06-02T10:20:08Z</time>
      </trkpt>
      <trkpt lat="60.0195497" lon="17.8369133">
        <ele>33.3029</ele>
        <time>2013-06-02T10:20:09Z</time>
      </trkpt>
      <trkpt lat="60.019553" lon="17.836776">
        <ele>33.7834</ele>
        <time>2013-06-02T10:20:10Z</time>
      </trkpt>
      <trkpt lat="60.0195585" lon="17.8366457">
        <ele>34.2642</ele>
        <time>2013-06-02T10:20:11Z</time>
      </trkpt>
      <trkpt lat="60.0195626" lon="17.8365138">
        <ele>32.8223</ele>
        <time>2013-06-02T10:20:12Z</time>
      </trkpt>
      <trkpt lat="60.0195641" lon="17.8363789">
        <ele>30.8995</ele>
        <time>2013-06-02T10:20:13Z</time>
      </trkpt>
      <trkpt lat="60.0195606" lon="17.83623">
        <ele>29.9381</ele>
        <time>2013-06-02T10:20:14Z</time>
      </trkpt>
      <trkpt lat="60.0195613" lon="17.8360839">
        <ele>30.8995</ele>
        <time>2013-06-02T10:20:15Z</time>
      </trkpt>
      <trkpt lat="60.0195598" lon="17.83593">
        <ele>31.8607</ele>
        <time>2013-06-02T10:20:16Z</time>
      </trkpt>
      <trkpt lat="60.0195563" lon="17.8357642">
        <ele>32.8223</ele>
        <time>2013-06-02T10:20:17Z</time>
      </trkpt>
      <trkpt lat="60.0195501" lon="17.8355819">
        <ele>31.8607</ele>
        <time>2013-06-02T10:20:18Z</time>
      </trkpt>
      <trkpt lat="60.0195448" lon="17.8353981">
        <ele>30.8995</ele>
        <time>2013-06-02T10:20:19Z</time>
      </trkpt>
      <trkpt lat="60.0195406" lon="17.8352187">
        <ele>30.4188</ele>
        <time>2013-06-02T10:20:20Z</time>
      </trkpt>
      <trkpt lat="60.0195351" lon="17.8350401">
        <ele>30.4188</ele>
        <time>2013-06-02T10:20:21Z</time>
      </trkpt>
      <trkpt lat="60.0195295" lon="17.8348645">
        <ele>29.9381</ele>
        <time>2013-06-02T10:20:22Z</time>
      </trkpt>
      <trkpt lat="60.019524" lon="17.8346934">
        <ele>29.9381</ele>
        <time>2013-06-02T10:20:23Z</time>
      </trkpt>
      <trkpt lat="60.019518" lon="17.8345266">
        <ele>29.9381</ele>
        <time>2013-06-02T10:20:24Z</time>
      </trkpt>
      <trkpt lat="60.0195119" lon="17.8343654">
        <ele>29.9381</ele>
        <time>2013-06-02T10:20:25Z</time>
      </trkpt>
      <trkpt lat="60.019505" lon="17.8342087">
        <ele>29.9381</ele>
        <time>2013-06-02T10:20:26Z</time>
      </trkpt>
      <trkpt lat="60.0194956" lon="17.8340555">
        <ele>30.4188</ele>
        <time>2013-06-02T10:20:27Z</time>
      </trkpt>
      <trkpt lat="60.0194874" lon="17.8339055">
        <ele>30.4188</ele>
        <time>2013-06-02T10:20:28Z</time>
      </trkpt>
      <trkpt lat="60.0194527" lon="17.8337294">
        <ele>30.4188</ele>
        <time>2013-06-02T10:20:29Z</time>
      </trkpt>
      <trkpt lat="60.0194331" lon="17.8335744">
        <ele>29.9381</ele>
        <time>2013-06-02T10:20:30Z</time>
      </trkpt>
      <trkpt lat="60.0194212" lon="17.8334317">
        <ele>29.9381</ele>
        <time>2013-06-02T10:20:31Z</time>
      </trkpt>
      <trkpt lat="60.0193963" lon="17.8333049">
        <ele>29.9381</ele>
        <time>2013-06-02T10:20:32Z</time>
      </trkpt>
      <trkpt lat="60.0193702" lon="17.8331624">
        <ele>29.4575</ele>
        <time>2013-06-02T10:20:33Z</time>
      </trkpt>
      <trkpt lat="60.0193486" lon="17.8330204">
        <ele>28.9769</ele>
        <time>2013-06-02T10:20:34Z</time>
      </trkpt>
      <trkpt lat="60.0193419" lon="17.8328741">
        <ele>29.4575</ele>
        <time>2013-06-02T10:20:35Z</time>
      </trkpt>
      <trkpt lat="60.0193262" lon="17.8327551">
        <ele>29.9381</ele>
        <time>2013-06-02T10:20:36Z</time>
      </trkpt>
      <trkpt lat="60.0193264" lon="17.8326016">
        <ele>30.4188</ele>
        <time>2013-06-02T10:20:37Z</time>
      </trkpt>
      <trkpt lat="60.0193204" lon="17.8324572">
        <ele>30.4188</ele>
        <time>2013-06-02T10:20:38Z</time>
      </trkpt>
      <trkpt lat="60.0193311" lon="17.8323094">
        <ele>32.3416</ele>
        <time>2013-06-02T10:20:39Z</time>
      </trkpt>
      <trkpt lat="60.0193408" lon="17.8321639">
        <ele>33.3029</ele>
        <time>2013-06-02T10:20:40Z</time>
      </trkpt>
      <trkpt lat="60.0193479" lon="17.8320235">
        <ele>33.7834</ele>
        <time>2013-06-02T10:20:41Z</time>
      </trkpt>
      <trkpt lat="60.0193575" lon="17.8318782">
        <ele>34.7449</ele>
        <time>2013-06-02T10:20:42Z</time>
      </trkpt>
      <trkpt lat="60.0193635" lon="17.8317388">
        <ele>34.2642</ele>
        <time>2013-06-02T10:20:43Z</time>
      </trkpt>
      <trkpt lat="60.0193657" lon="17.831606">
        <ele>33.7834</ele>
        <time>2013-06-02T10:20:44Z</time>
      </trkpt>
      <trkpt lat="60.0193661" lon="17.8314713">
        <ele>33.3029</ele>
        <time>2013-06-02T10:20:45Z</time>
      </trkpt>
      <trkpt lat="60.019364" lon="17.8313331">
        <ele>33.3029</ele>
        <time>2013-06-02T10:20:46Z</time>
      </trkpt>
      <trkpt lat="60.0193616" lon="17.8311958">
        <ele>32.8223</ele>
        <time>2013-06-02T10:20:47Z</time>
      </trkpt>
      <trkpt lat="60.0193564" lon="17.8310571">
        <ele>32.8223</ele>
        <time>2013-06-02T10:20:48Z</time>
      </trkpt>
      <trkpt lat="60.0193491" lon="17.8309168">
        <ele>32.8223</ele>
        <time>2013-06-02T10:20:49Z</time>
      </trkpt>
      <trkpt lat="60.0193435" lon="17.8307769">
        <ele>32.8223</ele>
        <time>2013-06-02T10:20:50Z</time>
      </trkpt>
      <trkpt lat="60.0193409" lon="17.8306376">
        <ele>32.8223</ele>
        <time>2013-06-02T10:20:51Z</time>
      </trkpt>
      <trkpt lat="60.0193396" lon="17.8304959">
        <ele>32.8223</ele>
        <time>2013-06-02T10:20:52Z</time>
      </trkpt>
      <trkpt lat="60.0193413" lon="17.8303525">
        <ele>32.8223</ele>
        <time>2013-06-02T10:20:53Z</time>
      </trkpt>
      <trkpt lat="60.0193491" lon="17.8302108">
        <ele>32.8223</ele>
        <time>2013-06-02T10:20:54Z</time>
      </trkpt>
      <trkpt lat="60.0193662" lon="17.8300725">
        <ele>33.3029</ele>
        <time>2013-06-02T10:20:55Z</time>
      </trkpt>
      <trkpt lat="60.0193904" lon="17.8299407">
        <ele>33.3029</ele>
        <time>2013-06-02T10:20:56Z</time>
      </trkpt>
      <trkpt lat="60.0194218" lon="17.8298144">
        <ele>33.3029</ele>
        <time>2013-06-02T10:20:57Z</time>
      </trkpt>
      <trkpt lat="60.0194588" lon="17.8296971">
        <ele>31.8607</ele>
        <time>2013-06-02T10:20:58Z</time>
      </trkpt>
      <trkpt lat="60.0195102" lon="17.8296077">
        <ele>31.3801</ele>
        <time>2013-06-02T10:20:59Z</time>
      </trkpt>
      <trkpt lat="60.0195579" lon="17.8295081">
        <ele>30.4188</ele>
        <time>2013-06-02T10:21:00Z</time>
      </trkpt>
      <trkpt lat="60.0196051" lon="17.8294074">
        <ele>28.9769</ele>
        <time>2013-06-02T10:21:01Z</time>
      </trkpt>
      <trkpt lat="60.0196516" lon="17.8292993">
        <ele>27.5349</ele>
        <time>2013-06-02T10:21:02Z</time>
      </trkpt>
      <trkpt lat="60.0196997" lon="17.8291938">
        <ele>26.0929</ele>
        <time>2013-06-02T10:21:03Z</time>
      </trkpt>
      <trkpt lat="60.0197471" lon="17.8290876">
        <ele>25.6123</ele>
        <time>2013-06-02T10:21:04Z</time>
      </trkpt>
      <trkpt lat="60.0197925" lon="17.8289781">
        <ele>25.1317</ele>
        <time>2013-06-02T10:21:05Z</time>
      </trkpt>
      <trkpt lat="60.019834" lon="17.8288633">
        <ele>24.651</ele>
        <time>2013-06-02T10:21:06Z</time>
      </trkpt>
      <trkpt lat="60.0198783" lon="17.82875">
        <ele>23.6896</ele>
        <time>2013-06-02T10:21:07Z</time>
      </trkpt>
      <trkpt lat="60.0199265" lon="17.8286353">
        <ele>23.209</ele>
        <time>2013-06-02T10:21:08Z</time>
      </trkpt>
      <trkpt lat="60.019977" lon="17.8285212">
        <ele>23.209</ele>
        <time>2013-06-02T10:21:09Z</time>
      </trkpt>
      <trkpt lat="60.0200293" lon="17.8284007">
        <ele>23.6896</ele>
        <time>2013-06-02T10:21:10Z</time>
      </trkpt>
      <trkpt lat="60.0200789" lon="17.8282781">
        <ele>23.6896</ele>
        <time>2013-06-02T10:21:11Z</time>
      </trkpt>
      <trkpt lat="60.0201283" lon="17.8281515">
        <ele>24.1703</ele>
        <time>2013-06-02T10:21:12Z</time>
      </trkpt>
      <trkpt lat="60.0201701" lon="17.8280157">
        <ele>24.1703</ele>
        <time>2013-06-02T10:21:13Z</time>
      </trkpt>
      <trkpt lat="60.0202043" lon="17.8278654">
        <ele>24.651</ele>
        <time>2013-06-02T10:21:14Z</time>
      </trkpt>
      <trkpt lat="60.0202327" lon="17.8277083">
        <ele>25.1317</ele>
        <time>2013-06-02T10:21:15Z</time>
      </trkpt>
      <trkpt lat="60.0202588" lon="17.827551">
        <ele>25.1317</ele>
        <time>2013-06-02T10:21:16Z</time>
      </trkpt>
      <trkpt lat="60.0202848" lon="17.8273946">
        <ele>25.1317</ele>
        <time>2013-06-02T10:21:17Z</time>
      </trkpt>
      <trkpt lat="60.0203178" lon="17.8272445">
        <ele>24.651</ele>
        <time>2013-06-02T10:21:18Z</time>
      </trkpt>
      <trkpt lat="60.0203537" lon="17.8270968">
        <ele>24.651</ele>
        <time>2013-06-02T10:21:19Z</time>
      </trkpt>
      <trkpt lat="60.0203932" lon="17.8269558">
        <ele>24.1703</ele>
        <time>2013-06-02T10:21:20Z</time>
      </trkpt>
      <trkpt lat="60.0204324" lon="17.8268198">
        <ele>24.651</ele>
        <time>2013-06-02T10:21:21Z</time>
      </trkpt>
      <trkpt lat="60.0204706" lon="17.8266842">
        <ele>25.1317</ele>
        <time>2013-06-02T10:21:22Z</time>
      </trkpt>
      <trkpt lat="60.0205039" lon="17.826552">
        <ele>24.651</ele>
        <time>2013-06-02T10:21:23Z</time>
      </trkpt>
      <trkpt lat="60.0205332" lon="17.8264157">
        <ele>24.1703</ele>
        <time>2013-06-02T10:21:24Z</time>
      </trkpt>
      <trkpt lat="60.0205576" lon="17.8262743">
        <ele>23.6896</ele>
        <time>2013-06-02T10:21:25Z</time>
      </trkpt>
      <trkpt lat="60.0205808" lon="17.8261365">
        <ele>22.7283</ele>
        <time>2013-06-02T10:21:26Z</time>
      </trkpt>
      <trkpt lat="60.0206016" lon="17.8259902">
        <ele>21.2864</ele>
        <time>2013-06-02T10:21:27Z</time>
      </trkpt>
      <trkpt lat="60.0206163" lon="17.8258318">
        <ele>20.325</ele>
        <time>2013-06-02T10:21:28Z</time>
      </trkpt>
      <trkpt lat="60.020628" lon="17.8256682">
        <ele>18.8831</ele>
        <time>2013-06-02T10:21:29Z</time>
      </trkpt>
      <trkpt lat="60.0206421" lon="17.8255031">
        <ele>18.8831</ele>
        <time>2013-06-02T10:21:30Z</time>
      </trkpt>
      <trkpt lat="60.0206556" lon="17.8253399">
        <ele>18.8831</ele>
        <time>2013-06-02T10:21:31Z</time>
      </trkpt>
      <trkpt lat="60.0206667" lon="17.8251808">
        <ele>18.8831</ele>
        <time>2013-06-02T10:21:32Z</time>
      </trkpt>
      <trkpt lat="60.0206754" lon="17.825025">
        <ele>18.8831</ele>
        <time>2013-06-02T10:21:33Z</time>
      </trkpt>
      <trkpt lat="60.0206895" lon="17.8248724">
        <ele>18.4023</ele>
        <time>2013-06-02T10:21:34Z</time>
      </trkpt>
      <trkpt lat="60.0207037" lon="17.8247318">
        <ele>19.8444</ele>
        <time>2013-06-02T10:21:35Z</time>
      </trkpt>
      <trkpt lat="60.0207135" lon="17.8245913">
        <ele>18.8831</ele>
        <time>2013-06-02T10:21:36Z</time>
      </trkpt>
      <trkpt lat="60.0207244" lon="17.8244509">
        <ele>17.9218</ele>
        <time>2013-06-02T10:21:37Z</time>
      </trkpt>
      <trkpt lat="60.0207339" lon="17.8243132">
        <ele>18.4023</ele>
        <time>2013-06-02T10:21:38Z</time>
      </trkpt>
      <trkpt lat="60.0207405" lon="17.8241805">
        <ele>17.9218</ele>
        <time>2013-06-02T10:21:39Z</time>
      </trkpt>
      <trkpt lat="60.0207471" lon="17.8240598">
        <ele>18.4023</ele>
        <time>2013-06-02T10:21:40Z</time>
      </trkpt>
      <trkpt lat="60.020765" lon="17.8239245">
        <ele>21.767</ele>
        <time>2013-06-02T10:21:41Z</time>
      </trkpt>
      <trkpt lat="60.0207639" lon="17.8237998">
        <ele>22.7283</ele>
        <time>2013-06-02T10:21:42Z</time>
      </trkpt>
      <trkpt lat="60.0207603" lon="17.8236666">
        <ele>23.6896</ele>
        <time>2013-06-02T10:21:43Z</time>
      </trkpt>
      <trkpt lat="60.0207675" lon="17.8235366">
        <ele>26.5736</ele>
        <time>2013-06-02T10:21:44Z</time>
      </trkpt>
      <trkpt lat="60.0207704" lon="17.8234078">
        <ele>27.5349</ele>
        <time>2013-06-02T10:21:45Z</time>
      </trkpt>
      <trkpt lat="60.0207753" lon="17.8232879">
        <ele>28.0155</ele>
        <time>2013-06-02T10:21:46Z</time>
      </trkpt>
      <trkpt lat="60.0207705" lon="17.8231559">
        <ele>27.0543</ele>
        <time>2013-06-02T10:21:47Z</time>
      </trkpt>
      <trkpt lat="60.0207652" lon="17.8230039">
        <ele>26.5736</ele>
        <time>2013-06-02T10:21:48Z</time>
      </trkpt>
      <trkpt lat="60.0207474" lon="17.8227657">
        <ele>26.5736</ele>
        <time>2013-06-02T10:21:49Z</time>
      </trkpt>
      <trkpt lat="60.0207237" lon="17.8225927">
        <ele>25.6123</ele>
        <time>2013-06-02T10:21:50Z</time>
      </trkpt>
      <trkpt lat="60.0207047" lon="17.8224131">
        <ele>25.6123</ele>
        <time>2013-06-02T10:21:51Z</time>
      </trkpt>
      <trkpt lat="60.0206842" lon="17.8222468">
        <ele>25.6123</ele>
        <time>2013-06-02T10:21:52Z</time>
      </trkpt>
      <trkpt lat="60.0206642" lon="17.8220777">
        <ele>25.6123</ele>
        <time>2013-06-02T10:21:53Z</time>
      </trkpt>
      <trkpt lat="60.0206556" lon="17.8219153">
        <ele>26.5736</ele>
        <time>2013-06-02T10:21:54Z</time>
      </trkpt>
      <trkpt lat="60.0206507" lon="17.8217552">
        <ele>27.0543</ele>
        <time>2013-06-02T10:21:55Z</time>
      </trkpt>
      <trkpt lat="60.0206556" lon="17.8215822">
        <ele>27.5349</ele>
        <time>2013-06-02T10:21:56Z</time>
      </trkpt>
      <trkpt lat="60.0206654" lon="17.8214273">
        <ele>27.5349</ele>
        <time>2013-06-02T10:21:57Z</time>
      </trkpt>
      <trkpt lat="60.0206794" lon="17.8212746">
        <ele>27.5349</ele>
        <time>2013-06-02T10:21:58Z</time>
      </trkpt>
      <trkpt lat="60.020697" lon="17.8211235">
        <ele>27.0543</ele>
        <time>2013-06-02T10:21:59Z</time>
      </trkpt>
      <trkpt lat="60.0207157" lon="17.8209761">
        <ele>27.5349</ele>
        <time>2013-06-02T10:22:00Z</time>
      </trkpt>
      <trkpt lat="60.0207346" lon="17.8208381">
        <ele>28.0155</ele>
        <time>2013-06-02T10:22:01Z</time>
      </trkpt>
      <trkpt lat="60.0207472" lon="17.8207156">
        <ele>28.4962</ele>
        <time>2013-06-02T10:22:02Z</time>
      </trkpt>
      <trkpt lat="60.020751" lon="17.8205919">
        <ele>27.5349</ele>
        <time>2013-06-02T10:22:03Z</time>
      </trkpt>
      <trkpt lat="60.020754" lon="17.8204648">
        <ele>27.5349</ele>
        <time>2013-06-02T10:22:04Z</time>
      </trkpt>
      <trkpt lat="60.0207561" lon="17.8203249">
        <ele>28.0155</ele>
        <time>2013-06-02T10:22:05Z</time>
      </trkpt>
      <trkpt lat="60.0207643" lon="17.8201898">
        <ele>27.0543</ele>
        <time>2013-06-02T10:22:06Z</time>
      </trkpt>
      <trkpt lat="60.0207788" lon="17.820052">
        <ele>25.6123</ele>
        <time>2013-06-02T10:22:07Z</time>
      </trkpt>
      <trkpt lat="60.0207978" lon="17.8199182">
        <ele>24.1703</ele>
        <time>2013-06-02T10:22:08Z</time>
      </trkpt>
      <trkpt lat="60.020822" lon="17.8197982">
        <ele>24.1703</ele>
        <time>2013-06-02T10:22:09Z</time>
      </trkpt>
      <trkpt lat="60.0208514" lon="17.8196857">
        <ele>23.6896</ele>
        <time>2013-06-02T10:22:10Z</time>
      </trkpt>
      <trkpt lat="60.0208786" lon="17.8195644">
        <ele>24.1703</ele>
        <time>2013-06-02T10:22:11Z</time>
      </trkpt>
      <trkpt lat="60.0209047" lon="17.8194421">
        <ele>24.651</ele>
        <time>2013-06-02T10:22:12Z</time>
      </trkpt>
      <trkpt lat="60.0209431" lon="17.8193533">
        <ele>25.1317</ele>
        <time>2013-06-02T10:22:13Z</time>
      </trkpt>
      <trkpt lat="60.0209668" lon="17.8192396">
        <ele>25.1317</ele>
        <time>2013-06-02T10:22:14Z</time>
      </trkpt>
      <trkpt lat="60.0209897" lon="17.8191259">
        <ele>24.651</ele>
        <time>2013-06-02T10:22:15Z</time>
      </trkpt>
      <trkpt lat="60.0210164" lon="17.819017">
        <ele>24.1703</ele>
        <time>2013-06-02T10:22:16Z</time>
      </trkpt>
      <trkpt lat="60.0210447" lon="17.8189006">
        <ele>22.7283</ele>
        <time>2013-06-02T10:22:17Z</time>
      </trkpt>
      <trkpt lat="60.0210694" lon="17.8187733">
        <ele>22.2476</ele>
        <time>2013-06-02T10:22:18Z</time>
      </trkpt>
      <trkpt lat="60.0210886" lon="17.818646">
        <ele>24.1703</ele>
        <time>2013-06-02T10:22:19Z</time>
      </trkpt>
      <trkpt lat="60.0211134" lon="17.818527">
        <ele>25.6123</ele>
        <time>2013-06-02T10:22:20Z</time>
      </trkpt>
      <trkpt lat="60.021131" lon="17.818409">
        <ele>26.0929</ele>
        <time>2013-06-02T10:22:21Z</time>
      </trkpt>
      <trkpt lat="60.0211435" lon="17.8183031">
        <ele>26.5736</ele>
        <time>2013-06-02T10:22:22Z</time>
      </trkpt>
      <trkpt lat="60.0211509" lon="17.8181963">
        <ele>27.0543</ele>
        <time>2013-06-02T10:22:23Z</time>
      </trkpt>
      <trkpt lat="60.0211547" lon="17.8180846">
        <ele>27.0543</ele>
        <time>2013-06-02T10:22:24Z</time>
      </trkpt>
      <trkpt lat="60.0211579" lon="17.817982">
        <ele>27.5349</ele>
        <time>2013-06-02T10:22:25Z</time>
      </trkpt>
      <trkpt lat="60.0211564" lon="17.8178743">
        <ele>28.0155</ele>
        <time>2013-06-02T10:22:26Z</time>
      </trkpt>
      <trkpt lat="60.0211462" lon="17.8177604">
        <ele>28.4962</ele>
        <time>2013-06-02T10:22:27Z</time>
      </trkpt>
      <trkpt lat="60.0211359" lon="17.8176457">
        <ele>28.4962</ele>
        <time>2013-06-02T10:22:28Z</time>
      </trkpt>
      <trkpt lat="60.0211197" lon="17.8175315">
        <ele>28.9769</ele>
        <time>2013-06-02T10:22:29Z</time>
      </trkpt>
      <trkpt lat="60.0210995" lon="17.817418">
        <ele>28.9769</ele>
        <time>2013-06-02T10:22:30Z</time>
      </trkpt>
      <trkpt lat="60.0210803" lon="17.8173027">
        <ele>29.4575</ele>
        <time>2013-06-02T10:22:31Z</time>
      </trkpt>
      <trkpt lat="60.0210632" lon="17.8171914">
        <ele>29.4575</ele>
        <time>2013-06-02T10:22:32Z</time>
      </trkpt>
      <trkpt lat="60.0210446" lon="17.8170714">
        <ele>28.9769</ele>
        <time>2013-06-02T10:22:33Z</time>
      </trkpt>
      <trkpt lat="60.0210259" lon="17.8169473">
        <ele>29.4575</ele>
        <time>2013-06-02T10:22:34Z</time>
      </trkpt>
      <trkpt lat="60.0210104" lon="17.8168191">
        <ele>29.4575</ele>
        <time>2013-06-02T10:22:35Z</time>
      </trkpt>
      <trkpt lat="60.0210022" lon="17.8166866">
        <ele>30.4188</ele>
        <time>2013-06-02T10:22:36Z</time>
      </trkpt>
      <trkpt lat="60.0209933" lon="17.8165311">
        <ele>28.9769</ele>
        <time>2013-06-02T10:22:37Z</time>
      </trkpt>
      <trkpt lat="60.0209902" lon="17.8163706">
        <ele>28.0155</ele>
        <time>2013-06-02T10:22:38Z</time>
      </trkpt>
      <trkpt lat="60.0209877" lon="17.8161978">
        <ele>26.5736</ele>
        <time>2013-06-02T10:22:39Z</time>
      </trkpt>
      <trkpt lat="60.0209858" lon="17.8160232">
        <ele>26.0929</ele>
        <time>2013-06-02T10:22:40Z</time>
      </trkpt>
      <trkpt lat="60.0209954" lon="17.8158645">
        <ele>26.0929</ele>
        <time>2013-06-02T10:22:41Z</time>
      </trkpt>
      <trkpt lat="60.0210058" lon="17.8157089">
        <ele>26.5736</ele>
        <time>2013-06-02T10:22:42Z</time>
      </trkpt>
      <trkpt lat="60.0210166" lon="17.8155675">
        <ele>26.5736</ele>
        <time>2013-06-02T10:22:43Z</time>
      </trkpt>
      <trkpt lat="60.021027" lon="17.8154312">
        <ele>27.5349</ele>
        <time>2013-06-02T10:22:44Z</time>
      </trkpt>
      <trkpt lat="60.0210348" lon="17.8152935">
        <ele>28.0155</ele>
        <time>2013-06-02T10:22:45Z</time>
      </trkpt>
      <trkpt lat="60.0210476" lon="17.8151789">
        <ele>28.9769</ele>
        <time>2013-06-02T10:22:46Z</time>
      </trkpt>
      <trkpt lat="60.0210578" lon="17.8150701">
        <ele>29.9381</ele>
        <time>2013-06-02T10:22:47Z</time>
      </trkpt>
      <trkpt lat="60.0210636" lon="17.8149649">
        <ele>30.4188</ele>
        <time>2013-06-02T10:22:48Z</time>
      </trkpt>
      <trkpt lat="60.0210632" lon="17.8148506">
        <ele>31.8607</ele>
        <time>2013-06-02T10:22:49Z</time>
      </trkpt>
      <trkpt lat="60.0210574" lon="17.8147372">
        <ele>32.3416</ele>
        <time>2013-06-02T10:22:50Z</time>
      </trkpt>
      <trkpt lat="60.0210535" lon="17.814646">
        <ele>33.3029</ele>
        <time>2013-06-02T10:22:51Z</time>
      </trkpt>
      <trkpt lat="60.0210465" lon="17.8145387">
        <ele>33.7834</ele>
        <time>2013-06-02T10:22:52Z</time>
      </trkpt>
      <trkpt lat="60.0210434" lon="17.8144207">
        <ele>33.7834</ele>
        <time>2013-06-02T10:22:53Z</time>
      </trkpt>
      <trkpt lat="60.0210389" lon="17.8143096">
        <ele>34.2642</ele>
        <time>2013-06-02T10:22:54Z</time>
      </trkpt>
      <trkpt lat="60.021032" lon="17.8141726">
        <ele>34.2642</ele>
        <time>2013-06-02T10:22:55Z</time>
      </trkpt>
      <trkpt lat="60.0210252" lon="17.814039">
        <ele>33.7834</ele>
        <time>2013-06-02T10:22:56Z</time>
      </trkpt>
      <trkpt lat="60.0210097" lon="17.8139018">
        <ele>32.8223</ele>
        <time>2013-06-02T10:22:57Z</time>
      </trkpt>
      <trkpt lat="60.0209958" lon="17.8137897">
        <ele>31.8607</ele>
        <time>2013-06-02T10:22:58Z</time>
      </trkpt>
      <trkpt lat="60.0209786" lon="17.8136845">
        <ele>30.4188</ele>
        <time>2013-06-02T10:22:59Z</time>
      </trkpt>
      <trkpt lat="60.0209558" lon="17.813569">
        <ele>29.9381</ele>
        <time>2013-06-02T10:23:00Z</time>
      </trkpt>
      <trkpt lat="60.0209259" lon="17.8134536">
        <ele>28.9769</ele>
        <time>2013-06-02T10:23:01Z</time>
      </trkpt>
      <trkpt lat="60.0208828" lon="17.8133257">
        <ele>28.4962</ele>
        <time>2013-06-02T10:23:02Z</time>
      </trkpt>
      <trkpt lat="60.0208325" lon="17.8131879">
        <ele>27.0543</ele>
        <time>2013-06-02T10:23:03Z</time>
      </trkpt>
      <trkpt lat="60.0207891" lon="17.8130695">
        <ele>26.5736</ele>
        <time>2013-06-02T10:23:04Z</time>
      </trkpt>
      <trkpt lat="60.020745" lon="17.8129566">
        <ele>25.6123</ele>
        <time>2013-06-02T10:23:05Z</time>
      </trkpt>
      <trkpt lat="60.0206969" lon="17.8128475">
        <ele>25.1317</ele>
        <time>2013-06-02T10:23:06Z</time>
      </trkpt>
      <trkpt lat="60.0206484" lon="17.812739">
        <ele>24.651</ele>
        <time>2013-06-02T10:23:07Z</time>
      </trkpt>
      <trkpt lat="60.0206005" lon="17.812632">
        <ele>24.651</ele>
        <time>2013-06-02T10:23:08Z</time>
      </trkpt>
      <trkpt lat="60.0205509" lon="17.8125217">
        <ele>24.651</ele>
        <time>2013-06-02T10:23:09Z</time>
      </trkpt>
      <trkpt lat="60.0205041" lon="17.8124071">
        <ele>24.651</ele>
        <time>2013-06-02T10:23:10Z</time>
      </trkpt>
      <trkpt lat="60.0204603" lon="17.812292">
        <ele>25.1317</ele>
        <time>2013-06-02T10:23:11Z</time>
      </trkpt>
      <trkpt lat="60.0204174" lon="17.8121786">
        <ele>25.6123</ele>
        <time>2013-06-02T10:23:12Z</time>
      </trkpt>
      <trkpt lat="60.0203722" lon="17.8120731">
        <ele>26.0929</ele>
        <time>2013-06-02T10:23:13Z</time>
      </trkpt>
      <trkpt lat="60.0203135" lon="17.8119529">
        <ele>26.5736</ele>
        <time>2013-06-02T10:23:14Z</time>
      </trkpt>
      <trkpt lat="60.0202554" lon="17.8118559">
        <ele>27.0543</ele>
        <time>2013-06-02T10:23:15Z</time>
      </trkpt>
      <trkpt lat="60.0201996" lon="17.8117587">
        <ele>27.5349</ele>
        <time>2013-06-02T10:23:16Z</time>
      </trkpt>
      <trkpt lat="60.0201459" lon="17.811666">
        <ele>28.0155</ele>
        <time>2013-06-02T10:23:17Z</time>
      </trkpt>
      <trkpt lat="60.0200898" lon="17.8115728">
        <ele>28.4962</ele>
        <time>2013-06-02T10:23:18Z</time>
      </trkpt>
      <trkpt lat="60.0200289" lon="17.8114929">
        <ele>28.4962</ele>
        <time>2013-06-02T10:23:19Z</time>
      </trkpt>
      <trkpt lat="60.0199711" lon="17.8114049">
        <ele>28.9769</ele>
        <time>2013-06-02T10:23:20Z</time>
      </trkpt>
      <trkpt lat="60.0199179" lon="17.811305">
        <ele>28.9769</ele>
        <time>2013-06-02T10:23:21Z</time>
      </trkpt>
      <trkpt lat="60.0198727" lon="17.8111925">
        <ele>29.4575</ele>
        <time>2013-06-02T10:23:22Z</time>
      </trkpt>
      <trkpt lat="60.019833" lon="17.8110764">
        <ele>29.4575</ele>
        <time>2013-06-02T10:23:23Z</time>
      </trkpt>
      <trkpt lat="60.0197983" lon="17.8109514">
        <ele>29.4575</ele>
        <time>2013-06-02T10:23:24Z</time>
      </trkpt>
      <trkpt lat="60.01978" lon="17.8108193">
        <ele>29.9381</ele>
        <time>2013-06-02T10:23:25Z</time>
      </trkpt>
      <trkpt lat="60.0197711" lon="17.8106678">
        <ele>30.8995</ele>
        <time>2013-06-02T10:23:26Z</time>
      </trkpt>
      <trkpt lat="60.0197572" lon="17.8105176">
        <ele>31.8607</ele>
        <time>2013-06-02T10:23:27Z</time>
      </trkpt>
      <trkpt lat="60.0197418" lon="17.8103686">
        <ele>32.8223</ele>
        <time>2013-06-02T10:23:28Z</time>
      </trkpt>
      <trkpt lat="60.0197351" lon="17.8102284">
        <ele>33.3029</ele>
        <time>2013-06-02T10:23:29Z</time>
      </trkpt>
      <trkpt lat="60.0197273" lon="17.8100886">
        <ele>33.7834</ele>
        <time>2013-06-02T10:23:30Z</time>
      </trkpt>
      <trkpt lat="60.0197173" lon="17.8099487">
        <ele>33.7834</ele>
        <time>2013-06-02T10:23:31Z</time>
      </trkpt>
      <trkpt lat="60.0197081" lon="17.8098097">
        <ele>33.7834</ele>
        <time>2013-06-02T10:23:32Z</time>
      </trkpt>
      <trkpt lat="60.0196991" lon="17.8096724">
        <ele>33.7834</ele>
        <time>2013-06-02T10:23:33Z</time>
      </trkpt>
      <trkpt lat="60.0196882" lon="17.8095269">
        <ele>34.2642</ele>
        <time>2013-06-02T10:23:34Z</time>
      </trkpt>
      <trkpt lat="60.0196746" lon="17.8093762">
        <ele>34.2642</ele>
        <time>2013-06-02T10:23:35Z</time>
      </trkpt>
      <trkpt lat="60.019662" lon="17.8092228">
        <ele>34.2642</ele>
        <time>2013-06-02T10:23:36Z</time>
      </trkpt>
      <trkpt lat="60.0196563" lon="17.8090731">
        <ele>34.2642</ele>
        <time>2013-06-02T10:23:37Z</time>
      </trkpt>
      <trkpt lat="60.0196577" lon="17.8089265">
        <ele>34.2642</ele>
        <time>2013-06-02T10:23:38Z</time>
      </trkpt>
      <trkpt lat="60.019664" lon="17.8087963">
        <ele>35.2255</ele>
        <time>2013-06-02T10:23:39Z</time>
      </trkpt>
      <trkpt lat="60.0196807" lon="17.8086595">
        <ele>35.7061</ele>
        <time>2013-06-02T10:23:40Z</time>
      </trkpt>
      <trkpt lat="60.019702" lon="17.8085314">
        <ele>36.6675</ele>
        <time>2013-06-02T10:23:41Z</time>
      </trkpt>
      <trkpt lat="60.0197247" lon="17.8083974">
        <ele>36.6675</ele>
        <time>2013-06-02T10:23:42Z</time>
      </trkpt>
      <trkpt lat="60.0197444" lon="17.8082785">
        <ele>37.1481</ele>
        <time>2013-06-02T10:23:43Z</time>
      </trkpt>
      <trkpt lat="60.0197655" lon="17.8081664">
        <ele>38.1094</ele>
        <time>2013-06-02T10:23:44Z</time>
      </trkpt>
      <trkpt lat="60.0197926" lon="17.8080663">
        <ele>38.5901</ele>
        <time>2013-06-02T10:23:45Z</time>
      </trkpt>
      <trkpt lat="60.0198199" lon="17.8079699">
        <ele>39.0707</ele>
        <time>2013-06-02T10:23:46Z</time>
      </trkpt>
      <trkpt lat="60.0198509" lon="17.807861">
        <ele>40.0321</ele>
        <time>2013-06-02T10:23:47Z</time>
      </trkpt>
      <trkpt lat="60.019883" lon="17.8077351">
        <ele>39.5513</ele>
        <time>2013-06-02T10:23:48Z</time>
      </trkpt>
      <trkpt lat="60.0199174" lon="17.8076151">
        <ele>40.0321</ele>
        <time>2013-06-02T10:23:49Z</time>
      </trkpt>
      <trkpt lat="60.0199546" lon="17.807499">
        <ele>40.5128</ele>
        <time>2013-06-02T10:23:50Z</time>
      </trkpt>
      <trkpt lat="60.0199942" lon="17.8073812">
        <ele>41.474</ele>
        <time>2013-06-02T10:23:51Z</time>
      </trkpt>
      <trkpt lat="60.0200298" lon="17.8072723">
        <ele>41.474</ele>
        <time>2013-06-02T10:23:52Z</time>
      </trkpt>
      <trkpt lat="60.0200638" lon="17.8071596">
        <ele>41.474</ele>
        <time>2013-06-02T10:23:53Z</time>
      </trkpt>
      <trkpt lat="60.020093" lon="17.8070379">
        <ele>41.474</ele>
        <time>2013-06-02T10:23:54Z</time>
      </trkpt>
      <trkpt lat="60.0201184" lon="17.8069127">
        <ele>41.9547</ele>
        <time>2013-06-02T10:23:55Z</time>
      </trkpt>
      <trkpt lat="60.0201408" lon="17.8067851">
        <ele>41.9547</ele>
        <time>2013-06-02T10:23:56Z</time>
      </trkpt>
      <trkpt lat="60.0201609" lon="17.806656">
        <ele>41.9547</ele>
        <time>2013-06-02T10:23:57Z</time>
      </trkpt>
      <trkpt lat="60.0201795" lon="17.80652">
        <ele>42.4354</ele>
        <time>2013-06-02T10:23:58Z</time>
      </trkpt>
      <trkpt lat="60.0201971" lon="17.8063776">
        <ele>42.4354</ele>
        <time>2013-06-02T10:23:59Z</time>
      </trkpt>
      <trkpt lat="60.0202138" lon="17.8062335">
        <ele>42.916</ele>
        <time>2013-06-02T10:24:00Z</time>
      </trkpt>
      <trkpt lat="60.0202281" lon="17.8060874">
        <ele>43.3966</ele>
        <time>2013-06-02T10:24:01Z</time>
      </trkpt>
      <trkpt lat="60.0202406" lon="17.8059393">
        <ele>43.3966</ele>
        <time>2013-06-02T10:24:02Z</time>
      </trkpt>
      <trkpt lat="60.0202503" lon="17.8057897">
        <ele>43.8773</ele>
        <time>2013-06-02T10:24:03Z</time>
      </trkpt>
      <trkpt lat="60.0202582" lon="17.8056411">
        <ele>43.8773</ele>
        <time>2013-06-02T10:24:04Z</time>
      </trkpt>
      <trkpt lat="60.020266" lon="17.8054943">
        <ele>44.358</ele>
        <time>2013-06-02T10:24:05Z</time>
      </trkpt>
      <trkpt lat="60.020277" lon="17.8053477">
        <ele>44.358</ele>
        <time>2013-06-02T10:24:06Z</time>
      </trkpt>
      <trkpt lat="60.0202908" lon="17.8052027">
        <ele>44.8386</ele>
        <time>2013-06-02T10:24:07Z</time>
      </trkpt>
      <trkpt lat="60.0203055" lon="17.8050586">
        <ele>44.8386</ele>
        <time>2013-06-02T10:24:08Z</time>
      </trkpt>
      <trkpt lat="60.0203207" lon="17.8049158">
        <ele>44.8386</ele>
        <time>2013-06-02T10:24:09Z</time>
      </trkpt>
      <trkpt lat="60.0203374" lon="17.8047749">
        <ele>44.8386</ele>
        <time>2013-06-02T10:24:10Z</time>
      </trkpt>
      <trkpt lat="60.0203551" lon="17.8046306">
        <ele>44.358</ele>
        <time>2013-06-02T10:24:11Z</time>
      </trkpt>
      <trkpt lat="60.0203725" lon="17.8044804">
        <ele>44.358</ele>
        <time>2013-06-02T10:24:12Z</time>
      </trkpt>
      <trkpt lat="60.0203915" lon="17.8043257">
        <ele>43.8773</ele>
        <time>2013-06-02T10:24:13Z</time>
      </trkpt>
      <trkpt lat="60.020411" lon="17.8041634">
        <ele>43.3966</ele>
        <time>2013-06-02T10:24:14Z</time>
      </trkpt>
      <trkpt lat="60.02043" lon="17.8039942">
        <ele>43.3966</ele>
        <time>2013-06-02T10:24:15Z</time>
      </trkpt>
      <trkpt lat="60.0204499" lon="17.8038241">
        <ele>42.916</ele>
        <time>2013-06-02T10:24:16Z</time>
      </trkpt>
      <trkpt lat="60.0204705" lon="17.8036583">
        <ele>42.916</ele>
        <time>2013-06-02T10:24:17Z</time>
      </trkpt>
      <trkpt lat="60.0204934" lon="17.8034988">
        <ele>42.916</ele>
        <time>2013-06-02T10:24:18Z</time>
      </trkpt>
      <trkpt lat="60.0205219" lon="17.8033478">
        <ele>42.916</ele>
        <time>2013-06-02T10:24:19Z</time>
      </trkpt>
      <trkpt lat="60.0205539" lon="17.8032041">
        <ele>42.916</ele>
        <time>2013-06-02T10:24:20Z</time>
      </trkpt>
      <trkpt lat="60.0205883" lon="17.8030638">
        <ele>42.916</ele>
        <time>2013-06-02T10:24:21Z</time>
      </trkpt>
      <trkpt lat="60.020624" lon="17.802925">
        <ele>42.916</ele>
        <time>2013-06-02T10:24:22Z</time>
      </trkpt>
      <trkpt lat="60.020659" lon="17.8027836">
        <ele>42.916</ele>
        <time>2013-06-02T10:24:23Z</time>
      </trkpt>
      <trkpt lat="60.0206899" lon="17.802635">
        <ele>42.4354</ele>
        <time>2013-06-02T10:24:24Z</time>
      </trkpt>
      <trkpt lat="60.0207147" lon="17.8024829">
        <ele>42.4354</ele>
        <time>2013-06-02T10:24:25Z</time>
      </trkpt>
      <trkpt lat="60.0207369" lon="17.8023323">
        <ele>42.4354</ele>
        <time>2013-06-02T10:24:26Z</time>
      </trkpt>
      <trkpt lat="60.0207601" lon="17.8021804">
        <ele>41.9547</ele>
        <time>2013-06-02T10:24:27Z</time>
      </trkpt>
      <trkpt lat="60.0207819" lon="17.8020289">
        <ele>41.9547</ele>
        <time>2013-06-02T10:24:28Z</time>
      </trkpt>
      <trkpt lat="60.0208058" lon="17.801876">
        <ele>41.9547</ele>
        <time>2013-06-02T10:24:29Z</time>
      </trkpt>
      <trkpt lat="60.0208317" lon="17.8017166">
        <ele>41.474</ele>
        <time>2013-06-02T10:24:30Z</time>
      </trkpt>
      <trkpt lat="60.020855" lon="17.8015474">
        <ele>40.9934</ele>
        <time>2013-06-02T10:24:31Z</time>
      </trkpt>
      <trkpt lat="60.0208695" lon="17.801362">
        <ele>40.5128</ele>
        <time>2013-06-02T10:24:32Z</time>
      </trkpt>
      <trkpt lat="60.0208763" lon="17.8011703">
        <ele>40.5128</ele>
        <time>2013-06-02T10:24:33Z</time>
      </trkpt>
      <trkpt lat="60.0208711" lon="17.8009686">
        <ele>40.5128</ele>
        <time>2013-06-02T10:24:34Z</time>
      </trkpt>
      <trkpt lat="60.0208502" lon="17.8007696">
        <ele>40.0321</ele>
        <time>2013-06-02T10:24:35Z</time>
      </trkpt>
      <trkpt lat="60.0208177" lon="17.8005744">
        <ele>40.0321</ele>
        <time>2013-06-02T10:24:36Z</time>
      </trkpt>
      <trkpt lat="60.0207804" lon="17.8003858">
        <ele>39.0707</ele>
        <time>2013-06-02T10:24:37Z</time>
      </trkpt>
      <trkpt lat="60.0207448" lon="17.8002048">
        <ele>38.5901</ele>
        <time>2013-06-02T10:24:38Z</time>
      </trkpt>
      <trkpt lat="60.0207105" lon="17.8000298">
        <ele>37.6287</ele>
        <time>2013-06-02T10:24:39Z</time>
      </trkpt>
      <trkpt lat="60.0206784" lon="17.7998613">
        <ele>37.1481</ele>
        <time>2013-06-02T10:24:40Z</time>
      </trkpt>
      <trkpt lat="60.0206483" lon="17.7996961">
        <ele>36.6675</ele>
        <time>2013-06-02T10:24:41Z</time>
      </trkpt>
      <trkpt lat="60.02063" lon="17.7995304">
        <ele>35.7061</ele>
        <time>2013-06-02T10:24:42Z</time>
      </trkpt>
      <trkpt lat="60.0206261" lon="17.7993653">
        <ele>36.1868</ele>
        <time>2013-06-02T10:24:43Z</time>
      </trkpt>
      <trkpt lat="60.0206385" lon="17.7992092">
        <ele>36.1868</ele>
        <time>2013-06-02T10:24:44Z</time>
      </trkpt>
      <trkpt lat="60.020669" lon="17.7990659">
        <ele>37.1481</ele>
        <time>2013-06-02T10:24:45Z</time>
      </trkpt>
      <trkpt lat="60.0207213" lon="17.7989427">
        <ele>37.1481</ele>
        <time>2013-06-02T10:24:46Z</time>
      </trkpt>
      <trkpt lat="60.0207831" lon="17.7988307">
        <ele>35.7061</ele>
        <time>2013-06-02T10:24:47Z</time>
      </trkpt>
      <trkpt lat="60.0208556" lon="17.7987334">
        <ele>35.2255</ele>
        <time>2013-06-02T10:24:48Z</time>
      </trkpt>
      <trkpt lat="60.0209306" lon="17.7986419">
        <ele>34.2642</ele>
        <time>2013-06-02T10:24:49Z</time>
      </trkpt>
      <trkpt lat="60.0210108" lon="17.7985608">
        <ele>32.8223</ele>
        <time>2013-06-02T10:24:50Z</time>
      </trkpt>
      <trkpt lat="60.0210916" lon="17.7984862">
        <ele>31.8607</ele>
        <time>2013-06-02T10:24:51Z</time>
      </trkpt>
      <trkpt lat="60.0211692" lon="17.7984044">
        <ele>30.8995</ele>
        <time>2013-06-02T10:24:52Z</time>
      </trkpt>
      <trkpt lat="60.0212456" lon="17.7983162">
        <ele>30.4188</ele>
        <time>2013-06-02T10:24:53Z</time>
      </trkpt>
      <trkpt lat="60.0213179" lon="17.7982153">
        <ele>30.8995</ele>
        <time>2013-06-02T10:24:54Z</time>
      </trkpt>
      <trkpt lat="60.0213989" lon="17.798092">
        <ele>32.3416</ele>
        <time>2013-06-02T10:24:55Z</time>
      </trkpt>
      <trkpt lat="60.0214795" lon="17.7979553">
        <ele>34.2642</ele>
        <time>2013-06-02T10:24:56Z</time>
      </trkpt>
      <trkpt lat="60.0215533" lon="17.7978025">
        <ele>36.1868</ele>
        <time>2013-06-02T10:24:57Z</time>
      </trkpt>
      <trkpt lat="60.0216091" lon="17.7976475">
        <ele>37.6287</ele>
        <time>2013-06-02T10:24:58Z</time>
      </trkpt>
      <trkpt lat="60.0216599" lon="17.797492">
        <ele>39.0707</ele>
        <time>2013-06-02T10:24:59Z</time>
      </trkpt>
      <trkpt lat="60.0217029" lon="17.7973486">
        <ele>40.9934</ele>
        <time>2013-06-02T10:25:00Z</time>
      </trkpt>
      <trkpt lat="60.0217328" lon="17.7972153">
        <ele>40.9934</ele>
        <time>2013-06-02T10:25:01Z</time>
      </trkpt>
      <trkpt lat="60.0217572" lon="17.7970863">
        <ele>41.9547</ele>
        <time>2013-06-02T10:25:02Z</time>
      </trkpt>
      <trkpt lat="60.0217704" lon="17.79694">
        <ele>43.3966</ele>
        <time>2013-06-02T10:25:03Z</time>
      </trkpt>
      <trkpt lat="60.0217594" lon="17.7967773">
        <ele>42.4354</ele>
        <time>2013-06-02T10:25:04Z</time>
      </trkpt>
      <trkpt lat="60.0217307" lon="17.7966023">
        <ele>41.9547</ele>
        <time>2013-06-02T10:25:05Z</time>
      </trkpt>
      <trkpt lat="60.0216815" lon="17.796417">
        <ele>40.9934</ele>
        <time>2013-06-02T10:25:06Z</time>
      </trkpt>
      <trkpt lat="60.0216287" lon="17.7962417">
        <ele>40.5128</ele>
        <time>2013-06-02T10:25:07Z</time>
      </trkpt>
      <trkpt lat="60.0215823" lon="17.7960635">
        <ele>39.5513</ele>
        <time>2013-06-02T10:25:08Z</time>
      </trkpt>
      <trkpt lat="60.0215445" lon="17.7958842">
        <ele>39.0707</ele>
        <time>2013-06-02T10:25:09Z</time>
      </trkpt>
      <trkpt lat="60.0215127" lon="17.7957113">
        <ele>38.5901</ele>
        <time>2013-06-02T10:25:10Z</time>
      </trkpt>
      <trkpt lat="60.0214818" lon="17.7955458">
        <ele>38.5901</ele>
        <time>2013-06-02T10:25:11Z</time>
      </trkpt>
      <trkpt lat="60.0214476" lon="17.795389">
        <ele>38.5901</ele>
        <time>2013-06-02T10:25:12Z</time>
      </trkpt>
      <trkpt lat="60.0214082" lon="17.7952434">
        <ele>39.0707</ele>
        <time>2013-06-02T10:25:13Z</time>
      </trkpt>
      <trkpt lat="60.0213636" lon="17.7951137">
        <ele>39.0707</ele>
        <time>2013-06-02T10:25:14Z</time>
      </trkpt>
      <trkpt lat="60.021314" lon="17.7950013">
        <ele>39.0707</ele>
        <time>2013-06-02T10:25:15Z</time>
      </trkpt>
      <trkpt lat="60.0212616" lon="17.7948993">
        <ele>39.0707</ele>
        <time>2013-06-02T10:25:16Z</time>
      </trkpt>
      <trkpt lat="60.0212084" lon="17.7948021">
        <ele>39.0707</ele>
        <time>2013-06-02T10:25:17Z</time>
      </trkpt>
      <trkpt lat="60.0211414" lon="17.7946916">
        <ele>39.5513</ele>
        <time>2013-06-02T10:25:18Z</time>
      </trkpt>
      <trkpt lat="60.0210917" lon="17.7946152">
        <ele>40.5128</ele>
        <time>2013-06-02T10:25:19Z</time>
      </trkpt>
      <trkpt lat="60.0210376" lon="17.794533">
        <ele>40.5128</ele>
        <time>2013-06-02T10:25:20Z</time>
      </trkpt>
      <trkpt lat="60.0209848" lon="17.794455">
        <ele>40.5128</ele>
        <time>2013-06-02T10:25:21Z</time>
      </trkpt>
      <trkpt lat="60.0209316" lon="17.7943773">
        <ele>40.9934</ele>
        <time>2013-06-02T10:25:22Z</time>
      </trkpt>
      <trkpt lat="60.0208834" lon="17.794294">
        <ele>40.9934</ele>
        <time>2013-06-02T10:25:23Z</time>
      </trkpt>
      <trkpt lat="60.0208394" lon="17.7942147">
        <ele>40.9934</ele>
        <time>2013-06-02T10:25:24Z</time>
      </trkpt>
      <trkpt lat="60.0207992" lon="17.7941316">
        <ele>40.9934</ele>
        <time>2013-06-02T10:25:25Z</time>
      </trkpt>
      <trkpt lat="60.0207607" lon="17.7940477">
        <ele>40.9934</ele>
        <time>2013-06-02T10:25:26Z</time>
      </trkpt>
      <trkpt lat="60.0207162" lon="17.7939513">
        <ele>40.5128</ele>
        <time>2013-06-02T10:25:27Z</time>
      </trkpt>
      <trkpt lat="60.0206721" lon="17.79385">
        <ele>40.5128</ele>
        <time>2013-06-02T10:25:28Z</time>
      </trkpt>
      <trkpt lat="60.0206323" lon="17.7937407">
        <ele>41.474</ele>
        <time>2013-06-02T10:25:29Z</time>
      </trkpt>
      <trkpt lat="60.020596" lon="17.7936283">
        <ele>42.4354</ele>
        <time>2013-06-02T10:25:30Z</time>
      </trkpt>
      <trkpt lat="60.0205597" lon="17.7935139">
        <ele>43.3966</ele>
        <time>2013-06-02T10:25:31Z</time>
      </trkpt>
      <trkpt lat="60.020517" lon="17.7934065">
        <ele>43.3966</ele>
        <time>2013-06-02T10:25:32Z</time>
      </trkpt>
      <trkpt lat="60.0204726" lon="17.7933012">
        <ele>43.8773</ele>
        <time>2013-06-02T10:25:33Z</time>
      </trkpt>
      <trkpt lat="60.0204292" lon="17.7931985">
        <ele>44.358</ele>
        <time>2013-06-02T10:25:34Z</time>
      </trkpt>
      <trkpt lat="60.0203855" lon="17.7931011">
        <ele>44.8386</ele>
        <time>2013-06-02T10:25:35Z</time>
      </trkpt>
      <trkpt lat="60.0203436" lon="17.793004">
        <ele>45.3192</ele>
        <time>2013-06-02T10:25:36Z</time>
      </trkpt>
      <trkpt lat="60.0202997" lon="17.7929041">
        <ele>45.3192</ele>
        <time>2013-06-02T10:25:37Z</time>
      </trkpt>
      <trkpt lat="60.0202525" lon="17.7928041">
        <ele>45.7999</ele>
        <time>2013-06-02T10:25:38Z</time>
      </trkpt>
      <trkpt lat="60.0202052" lon="17.7927047">
        <ele>45.3192</ele>
        <time>2013-06-02T10:25:39Z</time>
      </trkpt>
      <trkpt lat="60.0201575" lon="17.7926046">
        <ele>45.3192</ele>
        <time>2013-06-02T10:25:40Z</time>
      </trkpt>
      <trkpt lat="60.0201085" lon="17.7925046">
        <ele>44.8386</ele>
        <time>2013-06-02T10:25:41Z</time>
      </trkpt>
      <trkpt lat="60.0200592" lon="17.7924048">
        <ele>44.8386</ele>
        <time>2013-06-02T10:25:42Z</time>
      </trkpt>
      <trkpt lat="60.0200123" lon="17.7923005">
        <ele>44.358</ele>
        <time>2013-06-02T10:25:43Z</time>
      </trkpt>
      <trkpt lat="60.0199681" lon="17.7921914">
        <ele>44.358</ele>
        <time>2013-06-02T10:25:44Z</time>
      </trkpt>
      <trkpt lat="60.0199247" lon="17.7920769">
        <ele>43.8773</ele>
        <time>2013-06-02T10:25:45Z</time>
      </trkpt>
      <trkpt lat="60.0198828" lon="17.7919573">
        <ele>43.8773</ele>
        <time>2013-06-02T10:25:46Z</time>
      </trkpt>
      <trkpt lat="60.0198458" lon="17.7918299">
        <ele>43.8773</ele>
        <time>2013-06-02T10:25:47Z</time>
      </trkpt>
      <trkpt lat="60.0198136" lon="17.7916973">
        <ele>43.8773</ele>
        <time>2013-06-02T10:25:48Z</time>
      </trkpt>
      <trkpt lat="60.0197836" lon="17.7915624">
        <ele>43.3966</ele>
        <time>2013-06-02T10:25:49Z</time>
      </trkpt>
      <trkpt lat="60.0197496" lon="17.7914107">
        <ele>42.4354</ele>
        <time>2013-06-02T10:25:50Z</time>
      </trkpt>
      <trkpt lat="60.0197128" lon="17.7912568">
        <ele>41.474</ele>
        <time>2013-06-02T10:25:51Z</time>
      </trkpt>
      <trkpt lat="60.0196688" lon="17.7910981">
        <ele>40.9934</ele>
        <time>2013-06-02T10:25:52Z</time>
      </trkpt>
      <trkpt lat="60.019622" lon="17.7909376">
        <ele>40.9934</ele>
        <time>2013-06-02T10:25:53Z</time>
      </trkpt>
      <trkpt lat="60.0195734" lon="17.7907834">
        <ele>40.5128</ele>
        <time>2013-06-02T10:25:54Z</time>
      </trkpt>
      <trkpt lat="60.0195153" lon="17.7906321">
        <ele>40.0321</ele>
        <time>2013-06-02T10:25:55Z</time>
      </trkpt>
      <trkpt lat="60.019461" lon="17.7904881">
        <ele>40.0321</ele>
        <time>2013-06-02T10:25:56Z</time>
      </trkpt>
      <trkpt lat="60.0194014" lon="17.7903581">
        <ele>40.0321</ele>
        <time>2013-06-02T10:25:57Z</time>
      </trkpt>
      <trkpt lat="60.0193316" lon="17.7902411">
        <ele>40.0321</ele>
        <time>2013-06-02T10:25:58Z</time>
      </trkpt>
      <trkpt lat="60.0192524" lon="17.7901404">
        <ele>40.0321</ele>
        <time>2013-06-02T10:25:59Z</time>
      </trkpt>
      <trkpt lat="60.0191756" lon="17.79005">
        <ele>40.0321</ele>
        <time>2013-06-02T10:26:00Z</time>
      </trkpt>
      <trkpt lat="60.0191019" lon="17.789966">
        <ele>40.0321</ele>
        <time>2013-06-02T10:26:01Z</time>
      </trkpt>
      <trkpt lat="60.0190337" lon="17.7898906">
        <ele>40.0321</ele>
        <time>2013-06-02T10:26:02Z</time>
      </trkpt>
      <trkpt lat="60.0189674" lon="17.7898199">
        <ele>40.0321</ele>
        <time>2013-06-02T10:26:03Z</time>
      </trkpt>
      <trkpt lat="60.0189011" lon="17.789749">
        <ele>39.5513</ele>
        <time>2013-06-02T10:26:04Z</time>
      </trkpt>
      <trkpt lat="60.0188348" lon="17.7896764">
        <ele>39.0707</ele>
        <time>2013-06-02T10:26:05Z</time>
      </trkpt>
      <trkpt lat="60.01877" lon="17.7895902">
        <ele>38.5901</ele>
        <time>2013-06-02T10:26:06Z</time>
      </trkpt>
      <trkpt lat="60.0187" lon="17.7894864">
        <ele>38.1094</ele>
        <time>2013-06-02T10:26:07Z</time>
      </trkpt>
      <trkpt lat="60.0186331" lon="17.7893717">
        <ele>37.6287</ele>
        <time>2013-06-02T10:26:08Z</time>
      </trkpt>
      <trkpt lat="60.0185761" lon="17.7892382">
        <ele>37.6287</ele>
        <time>2013-06-02T10:26:09Z</time>
      </trkpt>
      <trkpt lat="60.0185266" lon="17.7890891">
        <ele>38.1094</ele>
        <time>2013-06-02T10:26:10Z</time>
      </trkpt>
      <trkpt lat="60.0184743" lon="17.7889308">
        <ele>37.6287</ele>
        <time>2013-06-02T10:26:11Z</time>
      </trkpt>
      <trkpt lat="60.0184308" lon="17.78876">
        <ele>37.6287</ele>
        <time>2013-06-02T10:26:12Z</time>
      </trkpt>
      <trkpt lat="60.0184018" lon="17.7885822">
        <ele>37.1481</ele>
        <time>2013-06-02T10:26:13Z</time>
      </trkpt>
      <trkpt lat="60.0183841" lon="17.7883922">
        <ele>36.6675</ele>
        <time>2013-06-02T10:26:14Z</time>
      </trkpt>
      <trkpt lat="60.0183793" lon="17.7881886">
        <ele>36.6675</ele>
        <time>2013-06-02T10:26:15Z</time>
      </trkpt>
      <trkpt lat="60.0183782" lon="17.7879819">
        <ele>37.1481</ele>
        <time>2013-06-02T10:26:16Z</time>
      </trkpt>
      <trkpt lat="60.018381" lon="17.7877726">
        <ele>39.0707</ele>
        <time>2013-06-02T10:26:17Z</time>
      </trkpt>
      <trkpt lat="60.0183746" lon="17.7875639">
        <ele>39.0707</ele>
        <time>2013-06-02T10:26:18Z</time>
      </trkpt>
      <trkpt lat="60.0183702" lon="17.7873661">
        <ele>38.1094</ele>
        <time>2013-06-02T10:26:19Z</time>
      </trkpt>
      <trkpt lat="60.018364" lon="17.7871822">
        <ele>37.1481</ele>
        <time>2013-06-02T10:26:20Z</time>
      </trkpt>
      <trkpt lat="60.0183613" lon="17.787011">
        <ele>37.6287</ele>
        <time>2013-06-02T10:26:21Z</time>
      </trkpt>
      <trkpt lat="60.0183514" lon="17.78685">
        <ele>38.1094</ele>
        <time>2013-06-02T10:26:22Z</time>
      </trkpt>
      <trkpt lat="60.018336" lon="17.7866795">
        <ele>39.0707</ele>
        <time>2013-06-02T10:26:23Z</time>
      </trkpt>
      <trkpt lat="60.0183235" lon="17.7865103">
        <ele>40.0321</ele>
        <time>2013-06-02T10:26:24Z</time>
      </trkpt>
      <trkpt lat="60.0182912" lon="17.7863445">
        <ele>41.474</ele>
        <time>2013-06-02T10:26:25Z</time>
      </trkpt>
      <trkpt lat="60.0182747" lon="17.7861789">
        <ele>40.9934</ele>
        <time>2013-06-02T10:26:26Z</time>
      </trkpt>
      <trkpt lat="60.0182658" lon="17.7860266">
        <ele>40.9934</ele>
        <time>2013-06-02T10:26:27Z</time>
      </trkpt>
      <trkpt lat="60.0182559" lon="17.7858701">
        <ele>41.474</ele>
        <time>2013-06-02T10:26:28Z</time>
      </trkpt>
      <trkpt lat="60.018256" lon="17.7857075">
        <ele>42.4354</ele>
        <time>2013-06-02T10:26:29Z</time>
      </trkpt>
      <trkpt lat="60.0182535" lon="17.7855502">
        <ele>41.9547</ele>
        <time>2013-06-02T10:26:30Z</time>
      </trkpt>
      <trkpt lat="60.0182572" lon="17.7853907">
        <ele>40.9934</ele>
        <time>2013-06-02T10:26:31Z</time>
      </trkpt>
      <trkpt lat="60.0182618" lon="17.7852185">
        <ele>40.5128</ele>
        <time>2013-06-02T10:26:32Z</time>
      </trkpt>
      <trkpt lat="60.0182716" lon="17.7850464">
        <ele>40.5128</ele>
        <time>2013-06-02T10:26:33Z</time>
      </trkpt>
      <trkpt lat="60.018282" lon="17.7848711">
        <ele>40.5128</ele>
        <time>2013-06-02T10:26:34Z</time>
      </trkpt>
      <trkpt lat="60.0182948" lon="17.7846931">
        <ele>40.9934</ele>
        <time>2013-06-02T10:26:35Z</time>
      </trkpt>
      <trkpt lat="60.0183059" lon="17.784529">
        <ele>40.5128</ele>
        <time>2013-06-02T10:26:36Z</time>
      </trkpt>
      <trkpt lat="60.018309" lon="17.7843564">
        <ele>40.0321</ele>
        <time>2013-06-02T10:26:37Z</time>
      </trkpt>
      <trkpt lat="60.0183058" lon="17.7841787">
        <ele>39.5513</ele>
        <time>2013-06-02T10:26:38Z</time>
      </trkpt>
      <trkpt lat="60.0182965" lon="17.7840042">
        <ele>39.0707</ele>
        <time>2013-06-02T10:26:39Z</time>
      </trkpt>
      <trkpt lat="60.0182815" lon="17.7838368">
        <ele>38.5901</ele>
        <time>2013-06-02T10:26:40Z</time>
      </trkpt>
      <trkpt lat="60.0182681" lon="17.783673">
        <ele>38.1094</ele>
        <time>2013-06-02T10:26:41Z</time>
      </trkpt>
      <trkpt lat="60.0182609" lon="17.7835084">
        <ele>38.5901</ele>
        <time>2013-06-02T10:26:42Z</time>
      </trkpt>
      <trkpt lat="60.0182606" lon="17.7833443">
        <ele>39.0707</ele>
        <time>2013-06-02T10:26:43Z</time>
      </trkpt>
      <trkpt lat="60.0182655" lon="17.7831815">
        <ele>39.5513</ele>
        <time>2013-06-02T10:26:44Z</time>
      </trkpt>
      <trkpt lat="60.0182774" lon="17.7830184">
        <ele>40.0321</ele>
        <time>2013-06-02T10:26:45Z</time>
      </trkpt>
      <trkpt lat="60.0182955" lon="17.7828568">
        <ele>40.9934</ele>
        <time>2013-06-02T10:26:46Z</time>
      </trkpt>
      <trkpt lat="60.0183186" lon="17.7826941">
        <ele>41.474</ele>
        <time>2013-06-02T10:26:47Z</time>
      </trkpt>
      <trkpt lat="60.0183414" lon="17.7825345">
        <ele>41.9547</ele>
        <time>2013-06-02T10:26:48Z</time>
      </trkpt>
      <trkpt lat="60.0183628" lon="17.7823765">
        <ele>41.9547</ele>
        <time>2013-06-02T10:26:49Z</time>
      </trkpt>
      <trkpt lat="60.0183844" lon="17.7822166">
        <ele>41.9547</ele>
        <time>2013-06-02T10:26:50Z</time>
      </trkpt>
      <trkpt lat="60.0184049" lon="17.7820606">
        <ele>41.9547</ele>
        <time>2013-06-02T10:26:51Z</time>
      </trkpt>
      <trkpt lat="60.0184272" lon="17.7819109">
        <ele>41.9547</ele>
        <time>2013-06-02T10:26:52Z</time>
      </trkpt>
      <trkpt lat="60.0184543" lon="17.7817665">
        <ele>41.9547</ele>
        <time>2013-06-02T10:26:53Z</time>
      </trkpt>
      <trkpt lat="60.0184877" lon="17.7816301">
        <ele>41.9547</ele>
        <time>2013-06-02T10:26:54Z</time>
      </trkpt>
      <trkpt lat="60.0185269" lon="17.7815011">
        <ele>42.4354</ele>
        <time>2013-06-02T10:26:55Z</time>
      </trkpt>
      <trkpt lat="60.018574" lon="17.7813899">
        <ele>42.4354</ele>
        <time>2013-06-02T10:26:56Z</time>
      </trkpt>
      <trkpt lat="60.0186269" lon="17.7813022">
        <ele>42.4354</ele>
        <time>2013-06-02T10:26:57Z</time>
      </trkpt>
      <trkpt lat="60.0186825" lon="17.781224">
        <ele>41.9547</ele>
        <time>2013-06-02T10:26:58Z</time>
      </trkpt>
      <trkpt lat="60.0187395" lon="17.7811464">
        <ele>41.474</ele>
        <time>2013-06-02T10:26:59Z</time>
      </trkpt>
      <trkpt lat="60.0187995" lon="17.7810707">
        <ele>41.474</ele>
        <time>2013-06-02T10:27:00Z</time>
      </trkpt>
      <trkpt lat="60.0188581" lon="17.7809924">
        <ele>40.9934</ele>
        <time>2013-06-02T10:27:01Z</time>
      </trkpt>
      <trkpt lat="60.0189125" lon="17.7809111">
        <ele>40.9934</ele>
        <time>2013-06-02T10:27:02Z</time>
      </trkpt>
      <trkpt lat="60.018962" lon="17.7808244">
        <ele>40.9934</ele>
        <time>2013-06-02T10:27:03Z</time>
      </trkpt>
      <trkpt lat="60.0190125" lon="17.7807278">
        <ele>41.474</ele>
        <time>2013-06-02T10:27:04Z</time>
      </trkpt>
      <trkpt lat="60.0190591" lon="17.7806257">
        <ele>41.9547</ele>
        <time>2013-06-02T10:27:05Z</time>
      </trkpt>
      <trkpt lat="60.0191061" lon="17.7805145">
        <ele>42.4354</ele>
        <time>2013-06-02T10:27:06Z</time>
      </trkpt>
      <trkpt lat="60.0191528" lon="17.7804072">
        <ele>41.474</ele>
        <time>2013-06-02T10:27:07Z</time>
      </trkpt>
      <trkpt lat="60.0192091" lon="17.7803163">
        <ele>41.9547</ele>
        <time>2013-06-02T10:27:08Z</time>
      </trkpt>
      <trkpt lat="60.0192659" lon="17.780246">
        <ele>41.9547</ele>
        <time>2013-06-02T10:27:09Z</time>
      </trkpt>
      <trkpt lat="60.0193294" lon="17.7802073">
        <ele>41.9547</ele>
        <time>2013-06-02T10:27:10Z</time>
      </trkpt>
      <trkpt lat="60.0193945" lon="17.7801813">
        <ele>42.4354</ele>
        <time>2013-06-02T10:27:11Z</time>
      </trkpt>
      <trkpt lat="60.0194593" lon="17.7801672">
        <ele>42.916</ele>
        <time>2013-06-02T10:27:12Z</time>
      </trkpt>
      <trkpt lat="60.0195241" lon="17.7801455">
        <ele>42.916</ele>
        <time>2013-06-02T10:27:13Z</time>
      </trkpt>
      <trkpt lat="60.019589" lon="17.7801144">
        <ele>43.3966</ele>
        <time>2013-06-02T10:27:14Z</time>
      </trkpt>
      <trkpt lat="60.0196504" lon="17.7800709">
        <ele>43.3966</ele>
        <time>2013-06-02T10:27:15Z</time>
      </trkpt>
      <trkpt lat="60.0197071" lon="17.7800024">
        <ele>42.916</ele>
        <time>2013-06-02T10:27:16Z</time>
      </trkpt>
      <trkpt lat="60.0197635" lon="17.7799177">
        <ele>43.3966</ele>
        <time>2013-06-02T10:27:17Z</time>
      </trkpt>
      <trkpt lat="60.019816" lon="17.7798183">
        <ele>43.8773</ele>
        <time>2013-06-02T10:27:18Z</time>
      </trkpt>
      <trkpt lat="60.0198635" lon="17.7797063">
        <ele>44.358</ele>
        <time>2013-06-02T10:27:19Z</time>
      </trkpt>
      <trkpt lat="60.019906" lon="17.7795828">
        <ele>44.358</ele>
        <time>2013-06-02T10:27:20Z</time>
      </trkpt>
      <trkpt lat="60.0199459" lon="17.7794522">
        <ele>44.8386</ele>
        <time>2013-06-02T10:27:21Z</time>
      </trkpt>
      <trkpt lat="60.0199908" lon="17.7793167">
        <ele>45.7999</ele>
        <time>2013-06-02T10:27:22Z</time>
      </trkpt>
      <trkpt lat="60.020035" lon="17.7791808">
        <ele>46.2806</ele>
        <time>2013-06-02T10:27:23Z</time>
      </trkpt>
      <trkpt lat="60.0200789" lon="17.7790447">
        <ele>46.7612</ele>
        <time>2013-06-02T10:27:24Z</time>
      </trkpt>
      <trkpt lat="60.0201241" lon="17.7789053">
        <ele>47.7225</ele>
        <time>2013-06-02T10:27:25Z</time>
      </trkpt>
      <trkpt lat="60.0201671" lon="17.7787675">
        <ele>48.2034</ele>
        <time>2013-06-02T10:27:26Z</time>
      </trkpt>
      <trkpt lat="60.0202075" lon="17.7786301">
        <ele>48.684</ele>
        <time>2013-06-02T10:27:27Z</time>
      </trkpt>
      <trkpt lat="60.0202442" lon="17.7784895">
        <ele>49.1646</ele>
        <time>2013-06-02T10:27:28Z</time>
      </trkpt>
      <trkpt lat="60.0202795" lon="17.7783523">
        <ele>50.126</ele>
        <time>2013-06-02T10:27:29Z</time>
      </trkpt>
      <trkpt lat="60.0203127" lon="17.7782196">
        <ele>50.126</ele>
        <time>2013-06-02T10:27:30Z</time>
      </trkpt>
      <trkpt lat="60.0203447" lon="17.7780885">
        <ele>50.6066</ele>
        <time>2013-06-02T10:27:31Z</time>
      </trkpt>
      <trkpt lat="60.0203759" lon="17.7779553">
        <ele>50.6066</ele>
        <time>2013-06-02T10:27:32Z</time>
      </trkpt>
      <trkpt lat="60.0204079" lon="17.7778119">
        <ele>51.0872</ele>
        <time>2013-06-02T10:27:33Z</time>
      </trkpt>
      <trkpt lat="60.0204369" lon="17.7776532">
        <ele>51.0872</ele>
        <time>2013-06-02T10:27:34Z</time>
      </trkpt>
      <trkpt lat="60.0204577" lon="17.7774773">
        <ele>51.5679</ele>
        <time>2013-06-02T10:27:35Z</time>
      </trkpt>
      <trkpt lat="60.020465" lon="17.7772885">
        <ele>51.5679</ele>
        <time>2013-06-02T10:27:36Z</time>
      </trkpt>
      <trkpt lat="60.0204577" lon="17.777094">
        <ele>51.5679</ele>
        <time>2013-06-02T10:27:37Z</time>
      </trkpt>
      <trkpt lat="60.0204385" lon="17.7769053">
        <ele>51.5679</ele>
        <time>2013-06-02T10:27:38Z</time>
      </trkpt>
      <trkpt lat="60.0204192" lon="17.7767442">
        <ele>54.4518</ele>
        <time>2013-06-02T10:27:39Z</time>
      </trkpt>
      <trkpt lat="60.020395" lon="17.7765755">
        <ele>55.4131</ele>
        <time>2013-06-02T10:27:40Z</time>
      </trkpt>
      <trkpt lat="60.0203655" lon="17.7764156">
        <ele>54.9324</ele>
        <time>2013-06-02T10:27:41Z</time>
      </trkpt>
      <trkpt lat="60.0203326" lon="17.7762522">
        <ele>53.9712</ele>
        <time>2013-06-02T10:27:42Z</time>
      </trkpt>
      <trkpt lat="60.0202961" lon="17.7760657">
        <ele>50.6066</ele>
        <time>2013-06-02T10:27:43Z</time>
      </trkpt>
      <trkpt lat="60.0202617" lon="17.7758756">
        <ele>48.2034</ele>
        <time>2013-06-02T10:27:44Z</time>
      </trkpt>
      <trkpt lat="60.0202312" lon="17.7757015">
        <ele>48.2034</ele>
        <time>2013-06-02T10:27:45Z</time>
      </trkpt>
      <trkpt lat="60.020192" lon="17.7755279">
        <ele>48.2034</ele>
        <time>2013-06-02T10:27:46Z</time>
      </trkpt>
      <trkpt lat="60.020162" lon="17.7753587">
        <ele>48.684</ele>
        <time>2013-06-02T10:27:47Z</time>
      </trkpt>
      <trkpt lat="60.0201344" lon="17.7752095">
        <ele>48.2034</ele>
        <time>2013-06-02T10:27:48Z</time>
      </trkpt>
      <trkpt lat="60.0201268" lon="17.7749552">
        <ele>47.7225</ele>
        <time>2013-06-02T10:27:49Z</time>
      </trkpt>
      <trkpt lat="60.0201503" lon="17.7748203">
        <ele>47.7225</ele>
        <time>2013-06-02T10:27:50Z</time>
      </trkpt>
      <trkpt lat="60.0202209" lon="17.7747177">
        <ele>48.2034</ele>
        <time>2013-06-02T10:27:51Z</time>
      </trkpt>
      <trkpt lat="60.0203003" lon="17.7746629">
        <ele>49.1646</ele>
        <time>2013-06-02T10:27:52Z</time>
      </trkpt>
      <trkpt lat="60.0203903" lon="17.7746194">
        <ele>50.6066</ele>
        <time>2013-06-02T10:27:53Z</time>
      </trkpt>
      <trkpt lat="60.0204842" lon="17.7745907">
        <ele>53.0098</ele>
        <time>2013-06-02T10:27:54Z</time>
      </trkpt>
      <trkpt lat="60.0205691" lon="17.7745754">
        <ele>54.9324</ele>
        <time>2013-06-02T10:27:55Z</time>
      </trkpt>
      <trkpt lat="60.020653" lon="17.7745402">
        <ele>55.4131</ele>
        <time>2013-06-02T10:27:56Z</time>
      </trkpt>
      <trkpt lat="60.0207312" lon="17.7744962">
        <ele>55.4131</ele>
        <time>2013-06-02T10:27:57Z</time>
      </trkpt>
      <trkpt lat="60.0208035" lon="17.7744179">
        <ele>54.9324</ele>
        <time>2013-06-02T10:27:58Z</time>
      </trkpt>
      <trkpt lat="60.0208689" lon="17.7743178">
        <ele>54.9324</ele>
        <time>2013-06-02T10:27:59Z</time>
      </trkpt>
      <trkpt lat="60.020928" lon="17.7742028">
        <ele>55.4131</ele>
        <time>2013-06-02T10:28:00Z</time>
      </trkpt>
      <trkpt lat="60.0209824" lon="17.7740733">
        <ele>55.8938</ele>
        <time>2013-06-02T10:28:01Z</time>
      </trkpt>
      <trkpt lat="60.0210346" lon="17.7739342">
        <ele>55.4131</ele>
        <time>2013-06-02T10:28:02Z</time>
      </trkpt>
      <trkpt lat="60.0210854" lon="17.7737995">
        <ele>55.8938</ele>
        <time>2013-06-02T10:28:03Z</time>
      </trkpt>
      <trkpt lat="60.0211345" lon="17.773658">
        <ele>55.8938</ele>
        <time>2013-06-02T10:28:04Z</time>
      </trkpt>
      <trkpt lat="60.0211785" lon="17.7735092">
        <ele>56.3745</ele>
        <time>2013-06-02T10:28:05Z</time>
      </trkpt>
      <trkpt lat="60.0212213" lon="17.7733538">
        <ele>56.8551</ele>
        <time>2013-06-02T10:28:06Z</time>
      </trkpt>
      <trkpt lat="60.0212671" lon="17.7732027">
        <ele>56.8551</ele>
        <time>2013-06-02T10:28:07Z</time>
      </trkpt>
      <trkpt lat="60.0213232" lon="17.7730637">
        <ele>56.8551</ele>
        <time>2013-06-02T10:28:08Z</time>
      </trkpt>
      <trkpt lat="60.0213834" lon="17.7729276">
        <ele>56.8551</ele>
        <time>2013-06-02T10:28:09Z</time>
      </trkpt>
      <trkpt lat="60.0214451" lon="17.7728053">
        <ele>56.8551</ele>
        <time>2013-06-02T10:28:10Z</time>
      </trkpt>
      <trkpt lat="60.0215107" lon="17.7726948">
        <ele>57.3358</ele>
        <time>2013-06-02T10:28:11Z</time>
      </trkpt>
      <trkpt lat="60.0215777" lon="17.7725927">
        <ele>57.3358</ele>
        <time>2013-06-02T10:28:12Z</time>
      </trkpt>
      <trkpt lat="60.0216401" lon="17.772477">
        <ele>56.3745</ele>
        <time>2013-06-02T10:28:13Z</time>
      </trkpt>
      <trkpt lat="60.0216977" lon="17.7723454">
        <ele>56.8551</ele>
        <time>2013-06-02T10:28:14Z</time>
      </trkpt>
      <trkpt lat="60.0217497" lon="17.7722063">
        <ele>56.3745</ele>
        <time>2013-06-02T10:28:15Z</time>
      </trkpt>
      <trkpt lat="60.0217961" lon="17.7720636">
        <ele>55.4131</ele>
        <time>2013-06-02T10:28:16Z</time>
      </trkpt>
      <trkpt lat="60.0218372" lon="17.7719163">
        <ele>54.9324</ele>
        <time>2013-06-02T10:28:17Z</time>
      </trkpt>
      <trkpt lat="60.021872" lon="17.7717734">
        <ele>53.9712</ele>
        <time>2013-06-02T10:28:18Z</time>
      </trkpt>
      <trkpt lat="60.0219077" lon="17.7716331">
        <ele>53.4905</ele>
        <time>2013-06-02T10:28:19Z</time>
      </trkpt>
      <trkpt lat="60.0219416" lon="17.7714942">
        <ele>53.0098</ele>
        <time>2013-06-02T10:28:20Z</time>
      </trkpt>
      <trkpt lat="60.0219732" lon="17.7713636">
        <ele>53.4905</ele>
        <time>2013-06-02T10:28:21Z</time>
      </trkpt>
      <trkpt lat="60.0220058" lon="17.771242">
        <ele>53.0098</ele>
        <time>2013-06-02T10:28:22Z</time>
      </trkpt>
      <trkpt lat="60.0220355" lon="17.7711143">
        <ele>53.0098</ele>
        <time>2013-06-02T10:28:23Z</time>
      </trkpt>
      <trkpt lat="60.0220635" lon="17.770984">
        <ele>51.0872</ele>
        <time>2013-06-02T10:28:24Z</time>
      </trkpt>
      <trkpt lat="60.0220899" lon="17.7708528">
        <ele>49.1646</ele>
        <time>2013-06-02T10:28:25Z</time>
      </trkpt>
      <trkpt lat="60.0221161" lon="17.7707282">
        <ele>48.684</ele>
        <time>2013-06-02T10:28:26Z</time>
      </trkpt>
      <trkpt lat="60.0221391" lon="17.7705982">
        <ele>47.7225</ele>
        <time>2013-06-02T10:28:27Z</time>
      </trkpt>
      <trkpt lat="60.0221537" lon="17.7704514">
        <ele>46.7612</ele>
        <time>2013-06-02T10:28:28Z</time>
      </trkpt>
      <trkpt lat="60.0221645" lon="17.7703038">
        <ele>45.7999</ele>
        <time>2013-06-02T10:28:29Z</time>
      </trkpt>
      <trkpt lat="60.0221685" lon="17.7701515">
        <ele>44.358</ele>
        <time>2013-06-02T10:28:30Z</time>
      </trkpt>
      <trkpt lat="60.0221676" lon="17.7700024">
        <ele>43.8773</ele>
        <time>2013-06-02T10:28:31Z</time>
      </trkpt>
      <trkpt lat="60.0221589" lon="17.7698418">
        <ele>42.916</ele>
        <time>2013-06-02T10:28:32Z</time>
      </trkpt>
      <trkpt lat="60.0221512" lon="17.7696879">
        <ele>41.9547</ele>
        <time>2013-06-02T10:28:33Z</time>
      </trkpt>
      <trkpt lat="60.022149" lon="17.7695481">
        <ele>41.9547</ele>
        <time>2013-06-02T10:28:34Z</time>
      </trkpt>
      <trkpt lat="60.0221447" lon="17.7694123">
        <ele>41.474</ele>
        <time>2013-06-02T10:28:35Z</time>
      </trkpt>
      <trkpt lat="60.0221385" lon="17.7692729">
        <ele>40.0321</ele>
        <time>2013-06-02T10:28:36Z</time>
      </trkpt>
      <trkpt lat="60.0221381" lon="17.7691286">
        <ele>40.0321</ele>
        <time>2013-06-02T10:28:37Z</time>
      </trkpt>
      <trkpt lat="60.0221413" lon="17.7690014">
        <ele>39.5513</ele>
        <time>2013-06-02T10:28:38Z</time>
      </trkpt>
      <trkpt lat="60.0221495" lon="17.7688725">
        <ele>39.0707</ele>
        <time>2013-06-02T10:28:39Z</time>
      </trkpt>
      <trkpt lat="60.0221666" lon="17.7687419">
        <ele>39.0707</ele>
        <time>2013-06-02T10:28:40Z</time>
      </trkpt>
      <trkpt lat="60.0221879" lon="17.7686129">
        <ele>38.5901</ele>
        <time>2013-06-02T10:28:41Z</time>
      </trkpt>
      <trkpt lat="60.022214" lon="17.7684836">
        <ele>39.0707</ele>
        <time>2013-06-02T10:28:42Z</time>
      </trkpt>
      <trkpt lat="60.022242" lon="17.7683494">
        <ele>39.0707</ele>
        <time>2013-06-02T10:28:43Z</time>
      </trkpt>
      <trkpt lat="60.0222752" lon="17.7682235">
        <ele>39.0707</ele>
        <time>2013-06-02T10:28:44Z</time>
      </trkpt>
      <trkpt lat="60.0223096" lon="17.7681028">
        <ele>38.5901</ele>
        <time>2013-06-02T10:28:45Z</time>
      </trkpt>
      <trkpt lat="60.0223427" lon="17.7679828">
        <ele>37.6287</ele>
        <time>2013-06-02T10:28:46Z</time>
      </trkpt>
      <trkpt lat="60.0223779" lon="17.7678644">
        <ele>37.1481</ele>
        <time>2013-06-02T10:28:47Z</time>
      </trkpt>
      <trkpt lat="60.0224188" lon="17.7677474">
        <ele>38.1094</ele>
        <time>2013-06-02T10:28:48Z</time>
      </trkpt>
      <trkpt lat="60.0224547" lon="17.7676222">
        <ele>38.5901</ele>
        <time>2013-06-02T10:28:49Z</time>
      </trkpt>
      <trkpt lat="60.0224919" lon="17.7674992">
        <ele>39.5513</ele>
        <time>2013-06-02T10:28:50Z</time>
      </trkpt>
      <trkpt lat="60.0225317" lon="17.7673823">
        <ele>40.0321</ele>
        <time>2013-06-02T10:28:51Z</time>
      </trkpt>
      <trkpt lat="60.0225681" lon="17.7672508">
        <ele>40.5128</ele>
        <time>2013-06-02T10:28:52Z</time>
      </trkpt>
      <trkpt lat="60.0226038" lon="17.7671198">
        <ele>41.9547</ele>
        <time>2013-06-02T10:28:53Z</time>
      </trkpt>
      <trkpt lat="60.0226389" lon="17.7669812">
        <ele>42.916</ele>
        <time>2013-06-02T10:28:54Z</time>
      </trkpt>
      <trkpt lat="60.0226697" lon="17.7668461">
        <ele>43.8773</ele>
        <time>2013-06-02T10:28:55Z</time>
      </trkpt>
      <trkpt lat="60.022697" lon="17.7667146">
        <ele>43.8773</ele>
        <time>2013-06-02T10:28:56Z</time>
      </trkpt>
      <trkpt lat="60.0227204" lon="17.766571">
        <ele>43.8773</ele>
        <time>2013-06-02T10:28:57Z</time>
      </trkpt>
      <trkpt lat="60.0227442" lon="17.7664364">
        <ele>43.3966</ele>
        <time>2013-06-02T10:28:58Z</time>
      </trkpt>
      <trkpt lat="60.0227753" lon="17.7663155">
        <ele>43.8773</ele>
        <time>2013-06-02T10:28:59Z</time>
      </trkpt>
      <trkpt lat="60.0228017" lon="17.7661773">
        <ele>44.358</ele>
        <time>2013-06-02T10:29:00Z</time>
      </trkpt>
      <trkpt lat="60.0228296" lon="17.7660407">
        <ele>44.358</ele>
        <time>2013-06-02T10:29:01Z</time>
      </trkpt>
      <trkpt lat="60.0228509" lon="17.7658841">
        <ele>43.8773</ele>
        <time>2013-06-02T10:29:02Z</time>
      </trkpt>
      <trkpt lat="60.0228681" lon="17.7657231">
        <ele>43.8773</ele>
        <time>2013-06-02T10:29:03Z</time>
      </trkpt>
      <trkpt lat="60.0228954" lon="17.765577">
        <ele>44.8386</ele>
        <time>2013-06-02T10:29:04Z</time>
      </trkpt>
      <trkpt lat="60.0229301" lon="17.7654432">
        <ele>46.2806</ele>
        <time>2013-06-02T10:29:05Z</time>
      </trkpt>
      <trkpt lat="60.0229615" lon="17.765318">
        <ele>45.3192</ele>
        <time>2013-06-02T10:29:06Z</time>
      </trkpt>
      <trkpt lat="60.0229896" lon="17.7651848">
        <ele>45.3192</ele>
        <time>2013-06-02T10:29:07Z</time>
      </trkpt>
      <trkpt lat="60.0230221" lon="17.7650584">
        <ele>44.358</ele>
        <time>2013-06-02T10:29:08Z</time>
      </trkpt>
      <trkpt lat="60.0230538" lon="17.7649301">
        <ele>43.3966</ele>
        <time>2013-06-02T10:29:09Z</time>
      </trkpt>
      <trkpt lat="60.0230933" lon="17.764801">
        <ele>42.916</ele>
        <time>2013-06-02T10:29:10Z</time>
      </trkpt>
      <trkpt lat="60.0231335" lon="17.7646675">
        <ele>42.916</ele>
        <time>2013-06-02T10:29:11Z</time>
      </trkpt>
      <trkpt lat="60.0231741" lon="17.7645327">
        <ele>41.9547</ele>
        <time>2013-06-02T10:29:12Z</time>
      </trkpt>
      <trkpt lat="60.023211" lon="17.7643949">
        <ele>41.474</ele>
        <time>2013-06-02T10:29:13Z</time>
      </trkpt>
      <trkpt lat="60.0232431" lon="17.7642559">
        <ele>40.9934</ele>
        <time>2013-06-02T10:29:14Z</time>
      </trkpt>
      <trkpt lat="60.0232725" lon="17.7641085">
        <ele>40.5128</ele>
        <time>2013-06-02T10:29:15Z</time>
      </trkpt>
      <trkpt lat="60.0232965" lon="17.7639637">
        <ele>40.5128</ele>
        <time>2013-06-02T10:29:16Z</time>
      </trkpt>
      <trkpt lat="60.0233197" lon="17.7638177">
        <ele>40.5128</ele>
        <time>2013-06-02T10:29:17Z</time>
      </trkpt>
      <trkpt lat="60.0233372" lon="17.7636764">
        <ele>40.9934</ele>
        <time>2013-06-02T10:29:18Z</time>
      </trkpt>
      <trkpt lat="60.0233605" lon="17.7635353">
        <ele>40.5128</ele>
        <time>2013-06-02T10:29:19Z</time>
      </trkpt>
      <trkpt lat="60.0233787" lon="17.7633936">
        <ele>40.9934</ele>
        <time>2013-06-02T10:29:20Z</time>
      </trkpt>
      <trkpt lat="60.0233892" lon="17.7632468">
        <ele>40.9934</ele>
        <time>2013-06-02T10:29:21Z</time>
      </trkpt>
      <trkpt lat="60.0234015" lon="17.7631002">
        <ele>40.9934</ele>
        <time>2013-06-02T10:29:22Z</time>
      </trkpt>
      <trkpt lat="60.0234176" lon="17.7629544">
        <ele>40.9934</ele>
        <time>2013-06-02T10:29:23Z</time>
      </trkpt>
      <trkpt lat="60.0234351" lon="17.7628138">
        <ele>40.5128</ele>
        <time>2013-06-02T10:29:24Z</time>
      </trkpt>
      <trkpt lat="60.0234471" lon="17.7626747">
        <ele>39.5513</ele>
        <time>2013-06-02T10:29:25Z</time>
      </trkpt>
      <trkpt lat="60.0234543" lon="17.7625307">
        <ele>39.0707</ele>
        <time>2013-06-02T10:29:26Z</time>
      </trkpt>
      <trkpt lat="60.0234497" lon="17.7623686">
        <ele>38.1094</ele>
        <time>2013-06-02T10:29:27Z</time>
      </trkpt>
      <trkpt lat="60.0234451" lon="17.7622058">
        <ele>37.6287</ele>
        <time>2013-06-02T10:29:28Z</time>
      </trkpt>
      <trkpt lat="60.0234444" lon="17.762046">
        <ele>37.1481</ele>
        <time>2013-06-02T10:29:29Z</time>
      </trkpt>
      <trkpt lat="60.0234445" lon="17.7618894">
        <ele>36.6675</ele>
        <time>2013-06-02T10:29:30Z</time>
      </trkpt>
      <trkpt lat="60.0234408" lon="17.761736">
        <ele>36.6675</ele>
        <time>2013-06-02T10:29:31Z</time>
      </trkpt>
      <trkpt lat="60.0234201" lon="17.7615535">
        <ele>36.6675</ele>
        <time>2013-06-02T10:29:32Z</time>
      </trkpt>
      <trkpt lat="60.0234132" lon="17.7613993">
        <ele>37.1481</ele>
        <time>2013-06-02T10:29:33Z</time>
      </trkpt>
      <trkpt lat="60.0234062" lon="17.7612485">
        <ele>36.6675</ele>
        <time>2013-06-02T10:29:34Z</time>
      </trkpt>
      <trkpt lat="60.0234001" lon="17.7610896">
        <ele>35.7061</ele>
        <time>2013-06-02T10:29:35Z</time>
      </trkpt>
      <trkpt lat="60.0233895" lon="17.7609331">
        <ele>35.2255</ele>
        <time>2013-06-02T10:29:36Z</time>
      </trkpt>
      <trkpt lat="60.0233777" lon="17.7607761">
        <ele>35.7061</ele>
        <time>2013-06-02T10:29:37Z</time>
      </trkpt>
      <trkpt lat="60.0233693" lon="17.760635">
        <ele>35.2255</ele>
        <time>2013-06-02T10:29:38Z</time>
      </trkpt>
      <trkpt lat="60.0233606" lon="17.7604949">
        <ele>35.7061</ele>
        <time>2013-06-02T10:29:39Z</time>
      </trkpt>
      <trkpt lat="60.0233521" lon="17.7603449">
        <ele>34.7449</ele>
        <time>2013-06-02T10:29:40Z</time>
      </trkpt>
      <trkpt lat="60.0233332" lon="17.7601851">
        <ele>34.7449</ele>
        <time>2013-06-02T10:29:41Z</time>
      </trkpt>
      <trkpt lat="60.0233192" lon="17.7600189">
        <ele>34.7449</ele>
        <time>2013-06-02T10:29:42Z</time>
      </trkpt>
      <trkpt lat="60.0233164" lon="17.7598474">
        <ele>34.7449</ele>
        <time>2013-06-02T10:29:43Z</time>
      </trkpt>
      <trkpt lat="60.0233162" lon="17.7596649">
        <ele>35.7061</ele>
        <time>2013-06-02T10:29:44Z</time>
      </trkpt>
      <trkpt lat="60.0233347" lon="17.7594843">
        <ele>35.7061</ele>
        <time>2013-06-02T10:29:45Z</time>
      </trkpt>
      <trkpt lat="60.023361" lon="17.7593087">
        <ele>35.7061</ele>
        <time>2013-06-02T10:29:46Z</time>
      </trkpt>
      <trkpt lat="60.0233915" lon="17.7591375">
        <ele>35.7061</ele>
        <time>2013-06-02T10:29:47Z</time>
      </trkpt>
      <trkpt lat="60.0234212" lon="17.7589713">
        <ele>35.7061</ele>
        <time>2013-06-02T10:29:48Z</time>
      </trkpt>
      <trkpt lat="60.0234487" lon="17.7588039">
        <ele>35.7061</ele>
        <time>2013-06-02T10:29:49Z</time>
      </trkpt>
      <trkpt lat="60.0234803" lon="17.7586284">
        <ele>36.1868</ele>
        <time>2013-06-02T10:29:50Z</time>
      </trkpt>
      <trkpt lat="60.0234997" lon="17.7584321">
        <ele>36.1868</ele>
        <time>2013-06-02T10:29:51Z</time>
      </trkpt>
      <trkpt lat="60.0235402" lon="17.7582642">
        <ele>36.6675</ele>
        <time>2013-06-02T10:29:52Z</time>
      </trkpt>
      <trkpt lat="60.0235847" lon="17.7581024">
        <ele>36.6675</ele>
        <time>2013-06-02T10:29:53Z</time>
      </trkpt>
      <trkpt lat="60.0236337" lon="17.757932">
        <ele>37.6287</ele>
        <time>2013-06-02T10:29:54Z</time>
      </trkpt>
      <trkpt lat="60.0236771" lon="17.7577539">
        <ele>38.5901</ele>
        <time>2013-06-02T10:29:55Z</time>
      </trkpt>
      <trkpt lat="60.0237225" lon="17.7575809">
        <ele>39.5513</ele>
        <time>2013-06-02T10:29:56Z</time>
      </trkpt>
      <trkpt lat="60.0237714" lon="17.7574127">
        <ele>40.0321</ele>
        <time>2013-06-02T10:29:57Z</time>
      </trkpt>
      <trkpt lat="60.023817" lon="17.757227">
        <ele>38.1094</ele>
        <time>2013-06-02T10:29:58Z</time>
      </trkpt>
      <trkpt lat="60.0238584" lon="17.7570374">
        <ele>37.6287</ele>
        <time>2013-06-02T10:29:59Z</time>
      </trkpt>
      <trkpt lat="60.0238978" lon="17.7568454">
        <ele>36.6675</ele>
        <time>2013-06-02T10:30:00Z</time>
      </trkpt>
      <trkpt lat="60.0239381" lon="17.7566613">
        <ele>36.1868</ele>
        <time>2013-06-02T10:30:01Z</time>
      </trkpt>
      <trkpt lat="60.0239724" lon="17.7564802">
        <ele>37.1481</ele>
        <time>2013-06-02T10:30:02Z</time>
      </trkpt>
      <trkpt lat="60.0239875" lon="17.7563072">
        <ele>40.5128</ele>
        <time>2013-06-02T10:30:03Z</time>
      </trkpt>
      <trkpt lat="60.0240122" lon="17.7561407">
        <ele>41.9547</ele>
        <time>2013-06-02T10:30:04Z</time>
      </trkpt>
      <trkpt lat="60.0240387" lon="17.7559667">
        <ele>42.4354</ele>
        <time>2013-06-02T10:30:05Z</time>
      </trkpt>
      <trkpt lat="60.0240547" lon="17.7557737">
        <ele>42.916</ele>
        <time>2013-06-02T10:30:06Z</time>
      </trkpt>
      <trkpt lat="60.0240768" lon="17.7555925">
        <ele>42.916</ele>
        <time>2013-06-02T10:30:07Z</time>
      </trkpt>
      <trkpt lat="60.0241009" lon="17.7554099">
        <ele>42.916</ele>
        <time>2013-06-02T10:30:08Z</time>
      </trkpt>
      <trkpt lat="60.0241256" lon="17.7552236">
        <ele>43.3966</ele>
        <time>2013-06-02T10:30:09Z</time>
      </trkpt>
      <trkpt lat="60.0241469" lon="17.7550386">
        <ele>43.3966</ele>
        <time>2013-06-02T10:30:10Z</time>
      </trkpt>
      <trkpt lat="60.0241687" lon="17.754855">
        <ele>43.3966</ele>
        <time>2013-06-02T10:30:11Z</time>
      </trkpt>
      <trkpt lat="60.0241929" lon="17.7546714">
        <ele>43.3966</ele>
        <time>2013-06-02T10:30:12Z</time>
      </trkpt>
      <trkpt lat="60.0242185" lon="17.7544883">
        <ele>42.916</ele>
        <time>2013-06-02T10:30:13Z</time>
      </trkpt>
      <trkpt lat="60.0242417" lon="17.7543089">
        <ele>43.3966</ele>
        <time>2013-06-02T10:30:14Z</time>
      </trkpt>
      <trkpt lat="60.0242698" lon="17.7541347">
        <ele>43.3966</ele>
        <time>2013-06-02T10:30:15Z</time>
      </trkpt>
      <trkpt lat="60.024298" lon="17.7539622">
        <ele>42.916</ele>
        <time>2013-06-02T10:30:16Z</time>
      </trkpt>
      <trkpt lat="60.0243252" lon="17.75379">
        <ele>42.4354</ele>
        <time>2013-06-02T10:30:17Z</time>
      </trkpt>
      <trkpt lat="60.0243516" lon="17.7536157">
        <ele>42.4354</ele>
        <time>2013-06-02T10:30:18Z</time>
      </trkpt>
      <trkpt lat="60.0243774" lon="17.7534391">
        <ele>41.9547</ele>
        <time>2013-06-02T10:30:19Z</time>
      </trkpt>
      <trkpt lat="60.0244013" lon="17.7532618">
        <ele>41.9547</ele>
        <time>2013-06-02T10:30:20Z</time>
      </trkpt>
      <trkpt lat="60.0244216" lon="17.7530804">
        <ele>41.9547</ele>
        <time>2013-06-02T10:30:21Z</time>
      </trkpt>
      <trkpt lat="60.0244428" lon="17.7529061">
        <ele>41.9547</ele>
        <time>2013-06-02T10:30:22Z</time>
      </trkpt>
      <trkpt lat="60.0244604" lon="17.7527292">
        <ele>41.9547</ele>
        <time>2013-06-02T10:30:23Z</time>
      </trkpt>
      <trkpt lat="60.0244737" lon="17.7525501">
        <ele>41.9547</ele>
        <time>2013-06-02T10:30:24Z</time>
      </trkpt>
      <trkpt lat="60.0244811" lon="17.7523613">
        <ele>40.9934</ele>
        <time>2013-06-02T10:30:25Z</time>
      </trkpt>
      <trkpt lat="60.0244877" lon="17.7521802">
        <ele>40.5128</ele>
        <time>2013-06-02T10:30:26Z</time>
      </trkpt>
      <trkpt lat="60.0244904" lon="17.7519964">
        <ele>40.0321</ele>
        <time>2013-06-02T10:30:27Z</time>
      </trkpt>
      <trkpt lat="60.02449" lon="17.751812">
        <ele>39.5513</ele>
        <time>2013-06-02T10:30:28Z</time>
      </trkpt>
      <trkpt lat="60.0244871" lon="17.7516269">
        <ele>39.0707</ele>
        <time>2013-06-02T10:30:29Z</time>
      </trkpt>
      <trkpt lat="60.0244824" lon="17.7514425">
        <ele>38.5901</ele>
        <time>2013-06-02T10:30:30Z</time>
      </trkpt>
      <trkpt lat="60.0244757" lon="17.7512561">
        <ele>38.1094</ele>
        <time>2013-06-02T10:30:31Z</time>
      </trkpt>
      <trkpt lat="60.0244692" lon="17.7510765">
        <ele>38.1094</ele>
        <time>2013-06-02T10:30:32Z</time>
      </trkpt>
      <trkpt lat="60.0244645" lon="17.7508986">
        <ele>37.6287</ele>
        <time>2013-06-02T10:30:33Z</time>
      </trkpt>
      <trkpt lat="60.0244591" lon="17.7507174">
        <ele>37.1481</ele>
        <time>2013-06-02T10:30:34Z</time>
      </trkpt>
      <trkpt lat="60.0244547" lon="17.7505366">
        <ele>37.1481</ele>
        <time>2013-06-02T10:30:35Z</time>
      </trkpt>
      <trkpt lat="60.0244546" lon="17.7503614">
        <ele>37.1481</ele>
        <time>2013-06-02T10:30:36Z</time>
      </trkpt>
      <trkpt lat="60.0244584" lon="17.7501894">
        <ele>37.1481</ele>
        <time>2013-06-02T10:30:37Z</time>
      </trkpt>
      <trkpt lat="60.02447" lon="17.7500239">
        <ele>37.1481</ele>
        <time>2013-06-02T10:30:38Z</time>
      </trkpt>
      <trkpt lat="60.0244869" lon="17.7498663">
        <ele>36.6675</ele>
        <time>2013-06-02T10:30:39Z</time>
      </trkpt>
      <trkpt lat="60.024507" lon="17.7497009">
        <ele>37.1481</ele>
        <time>2013-06-02T10:30:40Z</time>
      </trkpt>
      <trkpt lat="60.0245272" lon="17.7495432">
        <ele>36.6675</ele>
        <time>2013-06-02T10:30:41Z</time>
      </trkpt>
      <trkpt lat="60.0245501" lon="17.7493834">
        <ele>37.6287</ele>
        <time>2013-06-02T10:30:42Z</time>
      </trkpt>
      <trkpt lat="60.0245738" lon="17.7492251">
        <ele>38.1094</ele>
        <time>2013-06-02T10:30:43Z</time>
      </trkpt>
      <trkpt lat="60.0245962" lon="17.749074">
        <ele>38.1094</ele>
        <time>2013-06-02T10:30:44Z</time>
      </trkpt>
      <trkpt lat="60.0246116" lon="17.7489287">
        <ele>38.5901</ele>
        <time>2013-06-02T10:30:45Z</time>
      </trkpt>
      <trkpt lat="60.0246224" lon="17.7487899">
        <ele>38.5901</ele>
        <time>2013-06-02T10:30:46Z</time>
      </trkpt>
      <trkpt lat="60.0246353" lon="17.7486598">
        <ele>39.0707</ele>
        <time>2013-06-02T10:30:47Z</time>
      </trkpt>
      <trkpt lat="60.0246529" lon="17.74854">
        <ele>39.0707</ele>
        <time>2013-06-02T10:30:48Z</time>
      </trkpt>
      <trkpt lat="60.0246695" lon="17.7484297">
        <ele>39.0707</ele>
        <time>2013-06-02T10:30:49Z</time>
      </trkpt>
      <trkpt lat="60.024678" lon="17.7483286">
        <ele>39.5513</ele>
        <time>2013-06-02T10:30:50Z</time>
      </trkpt>
      <trkpt lat="60.0246789" lon="17.7482469">
        <ele>40.0321</ele>
        <time>2013-06-02T10:30:51Z</time>
      </trkpt>
      <trkpt lat="60.0246625" lon="17.7481718">
        <ele>40.5128</ele>
        <time>2013-06-02T10:30:52Z</time>
      </trkpt>
      <trkpt lat="60.0246333" lon="17.7480947">
        <ele>40.5128</ele>
        <time>2013-06-02T10:30:53Z</time>
      </trkpt>
      <trkpt lat="60.0245995" lon="17.7480129">
        <ele>40.9934</ele>
        <time>2013-06-02T10:30:54Z</time>
      </trkpt>
      <trkpt lat="60.0245581" lon="17.7479372">
        <ele>41.474</ele>
        <time>2013-06-02T10:30:55Z</time>
      </trkpt>
      <trkpt lat="60.0245057" lon="17.7478766">
        <ele>41.9547</ele>
        <time>2013-06-02T10:30:56Z</time>
      </trkpt>
      <trkpt lat="60.0244463" lon="17.7478256">
        <ele>41.474</ele>
        <time>2013-06-02T10:30:57Z</time>
      </trkpt>
      <trkpt lat="60.0243825" lon="17.7477803">
        <ele>40.9934</ele>
        <time>2013-06-02T10:30:58Z</time>
      </trkpt>
      <trkpt lat="60.0243116" lon="17.7477369">
        <ele>40.5128</ele>
        <time>2013-06-02T10:30:59Z</time>
      </trkpt>
      <trkpt lat="60.0242412" lon="17.74769">
        <ele>40.9934</ele>
        <time>2013-06-02T10:31:00Z</time>
      </trkpt>
      <trkpt lat="60.0241661" lon="17.7476447">
        <ele>40.5128</ele>
        <time>2013-06-02T10:31:01Z</time>
      </trkpt>
      <trkpt lat="60.0240874" lon="17.7476003">
        <ele>39.5513</ele>
        <time>2013-06-02T10:31:02Z</time>
      </trkpt>
      <trkpt lat="60.0240106" lon="17.7475475">
        <ele>38.5901</ele>
        <time>2013-06-02T10:31:03Z</time>
      </trkpt>
      <trkpt lat="60.0239294" lon="17.747488">
        <ele>37.6287</ele>
        <time>2013-06-02T10:31:04Z</time>
      </trkpt>
      <trkpt lat="60.0238473" lon="17.7474271">
        <ele>36.1868</ele>
        <time>2013-06-02T10:31:05Z</time>
      </trkpt>
      <trkpt lat="60.0237647" lon="17.7473629">
        <ele>34.7449</ele>
        <time>2013-06-02T10:31:06Z</time>
      </trkpt>
      <trkpt lat="60.0236795" lon="17.7473032">
        <ele>33.7834</ele>
        <time>2013-06-02T10:31:07Z</time>
      </trkpt>
      <trkpt lat="60.0235953" lon="17.7472456">
        <ele>33.3029</ele>
        <time>2013-06-02T10:31:08Z</time>
      </trkpt>
      <trkpt lat="60.0235129" lon="17.7472">
        <ele>33.3029</ele>
        <time>2013-06-02T10:31:09Z</time>
      </trkpt>
      <trkpt lat="60.0234366" lon="17.7471468">
        <ele>33.3029</ele>
        <time>2013-06-02T10:31:10Z</time>
      </trkpt>
      <trkpt lat="60.0233626" lon="17.7470944">
        <ele>33.3029</ele>
        <time>2013-06-02T10:31:11Z</time>
      </trkpt>
      <trkpt lat="60.0232874" lon="17.7470452">
        <ele>33.3029</ele>
        <time>2013-06-02T10:31:12Z</time>
      </trkpt>
      <trkpt lat="60.0232156" lon="17.7469928">
        <ele>33.3029</ele>
        <time>2013-06-02T10:31:13Z</time>
      </trkpt>
      <trkpt lat="60.0231451" lon="17.7469448">
        <ele>33.3029</ele>
        <time>2013-06-02T10:31:14Z</time>
      </trkpt>
      <trkpt lat="60.0230748" lon="17.7469012">
        <ele>33.7834</ele>
        <time>2013-06-02T10:31:15Z</time>
      </trkpt>
      <trkpt lat="60.0230064" lon="17.7468559">
        <ele>33.7834</ele>
        <time>2013-06-02T10:31:16Z</time>
      </trkpt>
      <trkpt lat="60.0229418" lon="17.7468084">
        <ele>34.2642</ele>
        <time>2013-06-02T10:31:17Z</time>
      </trkpt>
      <trkpt lat="60.022882" lon="17.7467425">
        <ele>35.2255</ele>
        <time>2013-06-02T10:31:18Z</time>
      </trkpt>
      <trkpt lat="60.0228245" lon="17.7466338">
        <ele>35.2255</ele>
        <time>2013-06-02T10:31:19Z</time>
      </trkpt>
      <trkpt lat="60.0227949" lon="17.7465008">
        <ele>35.7061</ele>
        <time>2013-06-02T10:31:20Z</time>
      </trkpt>
      <trkpt lat="60.0228057" lon="17.7463837">
        <ele>35.7061</ele>
        <time>2013-06-02T10:31:21Z</time>
      </trkpt>
      <trkpt lat="60.0228265" lon="17.7462666">
        <ele>35.7061</ele>
        <time>2013-06-02T10:31:22Z</time>
      </trkpt>
      <trkpt lat="60.0228466" lon="17.7461458">
        <ele>35.7061</ele>
        <time>2013-06-02T10:31:23Z</time>
      </trkpt>
      <trkpt lat="60.022867" lon="17.7460271">
        <ele>35.7061</ele>
        <time>2013-06-02T10:31:24Z</time>
      </trkpt>
      <trkpt lat="60.0228799" lon="17.745901">
        <ele>35.7061</ele>
        <time>2013-06-02T10:31:25Z</time>
      </trkpt>
      <trkpt lat="60.0228851" lon="17.7457719">
        <ele>35.7061</ele>
        <time>2013-06-02T10:31:26Z</time>
      </trkpt>
      <trkpt lat="60.0228873" lon="17.7456379">
        <ele>35.7061</ele>
        <time>2013-06-02T10:31:27Z</time>
      </trkpt>
      <trkpt lat="60.0228898" lon="17.7455005">
        <ele>35.7061</ele>
        <time>2013-06-02T10:31:28Z</time>
      </trkpt>
      <trkpt lat="60.0228912" lon="17.7453604">
        <ele>35.7061</ele>
        <time>2013-06-02T10:31:29Z</time>
      </trkpt>
      <trkpt lat="60.0228913" lon="17.7452208">
        <ele>35.7061</ele>
        <time>2013-06-02T10:31:30Z</time>
      </trkpt>
      <trkpt lat="60.0228896" lon="17.7450794">
        <ele>35.7061</ele>
        <time>2013-06-02T10:31:31Z</time>
      </trkpt>
      <trkpt lat="60.0228876" lon="17.7449363">
        <ele>35.7061</ele>
        <time>2013-06-02T10:31:32Z</time>
      </trkpt>
      <trkpt lat="60.0228846" lon="17.7447919">
        <ele>35.7061</ele>
        <time>2013-06-02T10:31:33Z</time>
      </trkpt>
      <trkpt lat="60.0228825" lon="17.7446445">
        <ele>35.7061</ele>
        <time>2013-06-02T10:31:34Z</time>
      </trkpt>
      <trkpt lat="60.0228779" lon="17.7444892">
        <ele>36.6675</ele>
        <time>2013-06-02T10:31:35Z</time>
      </trkpt>
      <trkpt lat="60.0228675" lon="17.7443325">
        <ele>37.1481</ele>
        <time>2013-06-02T10:31:36Z</time>
      </trkpt>
      <trkpt lat="60.0228587" lon="17.7441796">
        <ele>37.6287</ele>
        <time>2013-06-02T10:31:37Z</time>
      </trkpt>
      <trkpt lat="60.0228483" lon="17.7440276">
        <ele>38.1094</ele>
        <time>2013-06-02T10:31:38Z</time>
      </trkpt>
      <trkpt lat="60.0228412" lon="17.7438768">
        <ele>38.1094</ele>
        <time>2013-06-02T10:31:39Z</time>
      </trkpt>
      <trkpt lat="60.0228374" lon="17.7437211">
        <ele>37.6287</ele>
        <time>2013-06-02T10:31:40Z</time>
      </trkpt>
      <trkpt lat="60.0228348" lon="17.7435645">
        <ele>37.6287</ele>
        <time>2013-06-02T10:31:41Z</time>
      </trkpt>
      <trkpt lat="60.0228337" lon="17.7434078">
        <ele>37.6287</ele>
        <time>2013-06-02T10:31:42Z</time>
      </trkpt>
      <trkpt lat="60.0228382" lon="17.7432565">
        <ele>37.6287</ele>
        <time>2013-06-02T10:31:43Z</time>
      </trkpt>
      <trkpt lat="60.0228439" lon="17.7431037">
        <ele>37.6287</ele>
        <time>2013-06-02T10:31:44Z</time>
      </trkpt>
      <trkpt lat="60.0228513" lon="17.7429487">
        <ele>38.5901</ele>
        <time>2013-06-02T10:31:45Z</time>
      </trkpt>
      <trkpt lat="60.0228504" lon="17.7427956">
        <ele>38.5901</ele>
        <time>2013-06-02T10:31:46Z</time>
      </trkpt>
      <trkpt lat="60.0228469" lon="17.7426514">
        <ele>38.1094</ele>
        <time>2013-06-02T10:31:47Z</time>
      </trkpt>
      <trkpt lat="60.0228415" lon="17.7425069">
        <ele>37.6287</ele>
        <time>2013-06-02T10:31:48Z</time>
      </trkpt>
      <trkpt lat="60.0228318" lon="17.7423627">
        <ele>37.1481</ele>
        <time>2013-06-02T10:31:49Z</time>
      </trkpt>
      <trkpt lat="60.0228188" lon="17.7422091">
        <ele>37.6287</ele>
        <time>2013-06-02T10:31:50Z</time>
      </trkpt>
      <trkpt lat="60.0228013" lon="17.742048">
        <ele>37.6287</ele>
        <time>2013-06-02T10:31:51Z</time>
      </trkpt>
      <trkpt lat="60.0227825" lon="17.7419013">
        <ele>38.1094</ele>
        <time>2013-06-02T10:31:52Z</time>
      </trkpt>
      <trkpt lat="60.0227574" lon="17.7417463">
        <ele>38.1094</ele>
        <time>2013-06-02T10:31:53Z</time>
      </trkpt>
      <trkpt lat="60.0227235" lon="17.7415952">
        <ele>36.6675</ele>
        <time>2013-06-02T10:31:54Z</time>
      </trkpt>
      <trkpt lat="60.0226902" lon="17.741459">
        <ele>36.1868</ele>
        <time>2013-06-02T10:31:55Z</time>
      </trkpt>
      <trkpt lat="60.0226494" lon="17.7413313">
        <ele>35.7061</ele>
        <time>2013-06-02T10:31:56Z</time>
      </trkpt>
      <trkpt lat="60.022599" lon="17.741206">
        <ele>36.1868</ele>
        <time>2013-06-02T10:31:57Z</time>
      </trkpt>
      <trkpt lat="60.0225474" lon="17.7410916">
        <ele>36.6675</ele>
        <time>2013-06-02T10:31:58Z</time>
      </trkpt>
      <trkpt lat="60.0224935" lon="17.7409861">
        <ele>36.6675</ele>
        <time>2013-06-02T10:31:59Z</time>
      </trkpt>
      <trkpt lat="60.0224293" lon="17.7408845">
        <ele>36.1868</ele>
        <time>2013-06-02T10:32:00Z</time>
      </trkpt>
      <trkpt lat="60.0223738" lon="17.7407757">
        <ele>37.6287</ele>
        <time>2013-06-02T10:32:01Z</time>
      </trkpt>
      <trkpt lat="60.0223137" lon="17.7406715">
        <ele>37.6287</ele>
        <time>2013-06-02T10:32:02Z</time>
      </trkpt>
      <trkpt lat="60.0222562" lon="17.7405865">
        <ele>37.6287</ele>
        <time>2013-06-02T10:32:03Z</time>
      </trkpt>
      <trkpt lat="60.022196" lon="17.740508">
        <ele>37.6287</ele>
        <time>2013-06-02T10:32:04Z</time>
      </trkpt>
      <trkpt lat="60.0221365" lon="17.7404399">
        <ele>37.1481</ele>
        <time>2013-06-02T10:32:05Z</time>
      </trkpt>
      <trkpt lat="60.0220695" lon="17.7403782">
        <ele>35.7061</ele>
        <time>2013-06-02T10:32:06Z</time>
      </trkpt>
      <trkpt lat="60.0220008" lon="17.7403197">
        <ele>34.2642</ele>
        <time>2013-06-02T10:32:07Z</time>
      </trkpt>
      <trkpt lat="60.021935" lon="17.7402563">
        <ele>33.7834</ele>
        <time>2013-06-02T10:32:08Z</time>
      </trkpt>
      <trkpt lat="60.0218696" lon="17.7401887">
        <ele>33.3029</ele>
        <time>2013-06-02T10:32:09Z</time>
      </trkpt>
      <trkpt lat="60.0218004" lon="17.7401194">
        <ele>33.3029</ele>
        <time>2013-06-02T10:32:10Z</time>
      </trkpt>
      <trkpt lat="60.0217292" lon="17.7400557">
        <ele>32.8223</ele>
        <time>2013-06-02T10:32:11Z</time>
      </trkpt>
      <trkpt lat="60.0216552" lon="17.739993">
        <ele>31.8607</ele>
        <time>2013-06-02T10:32:12Z</time>
      </trkpt>
      <trkpt lat="60.0215833" lon="17.7399258">
        <ele>31.3801</ele>
        <time>2013-06-02T10:32:13Z</time>
      </trkpt>
      <trkpt lat="60.0215128" lon="17.7398547">
        <ele>30.8995</ele>
        <time>2013-06-02T10:32:14Z</time>
      </trkpt>
      <trkpt lat="60.021445" lon="17.7397797">
        <ele>31.3801</ele>
        <time>2013-06-02T10:32:15Z</time>
      </trkpt>
      <trkpt lat="60.0213782" lon="17.7397019">
        <ele>31.8607</ele>
        <time>2013-06-02T10:32:16Z</time>
      </trkpt>
      <trkpt lat="60.0213099" lon="17.7396277">
        <ele>31.8607</ele>
        <time>2013-06-02T10:32:17Z</time>
      </trkpt>
      <trkpt lat="60.021243" lon="17.7395543">
        <ele>32.3416</ele>
        <time>2013-06-02T10:32:18Z</time>
      </trkpt>
      <trkpt lat="60.0211772" lon="17.7394795">
        <ele>32.3416</ele>
        <time>2013-06-02T10:32:19Z</time>
      </trkpt>
      <trkpt lat="60.0211114" lon="17.739402">
        <ele>32.3416</ele>
        <time>2013-06-02T10:32:20Z</time>
      </trkpt>
      <trkpt lat="60.0210447" lon="17.7393215">
        <ele>32.3416</ele>
        <time>2013-06-02T10:32:21Z</time>
      </trkpt>
      <trkpt lat="60.0209784" lon="17.7392412">
        <ele>32.3416</ele>
        <time>2013-06-02T10:32:22Z</time>
      </trkpt>
      <trkpt lat="60.0209133" lon="17.7391658">
        <ele>32.3416</ele>
        <time>2013-06-02T10:32:23Z</time>
      </trkpt>
      <trkpt lat="60.0208493" lon="17.7390824">
        <ele>32.3416</ele>
        <time>2013-06-02T10:32:24Z</time>
      </trkpt>
      <trkpt lat="60.0207918" lon="17.7389964">
        <ele>32.3416</ele>
        <time>2013-06-02T10:32:25Z</time>
      </trkpt>
      <trkpt lat="60.0207367" lon="17.738911">
        <ele>32.8223</ele>
        <time>2013-06-02T10:32:26Z</time>
      </trkpt>
      <trkpt lat="60.0206826" lon="17.7388239">
        <ele>33.3029</ele>
        <time>2013-06-02T10:32:27Z</time>
      </trkpt>
      <trkpt lat="60.0206287" lon="17.738728">
        <ele>33.3029</ele>
        <time>2013-06-02T10:32:28Z</time>
      </trkpt>
      <trkpt lat="60.0205742" lon="17.7386312">
        <ele>32.8223</ele>
        <time>2013-06-02T10:32:29Z</time>
      </trkpt>
      <trkpt lat="60.0205217" lon="17.7385286">
        <ele>32.8223</ele>
        <time>2013-06-02T10:32:30Z</time>
      </trkpt>
      <trkpt lat="60.0204721" lon="17.7384266">
        <ele>32.8223</ele>
        <time>2013-06-02T10:32:31Z</time>
      </trkpt>
      <trkpt lat="60.0204243" lon="17.7383183">
        <ele>33.3029</ele>
        <time>2013-06-02T10:32:32Z</time>
      </trkpt>
      <trkpt lat="60.0203794" lon="17.7382017">
        <ele>33.3029</ele>
        <time>2013-06-02T10:32:33Z</time>
      </trkpt>
      <trkpt lat="60.0203406" lon="17.7380762">
        <ele>34.2642</ele>
        <time>2013-06-02T10:32:34Z</time>
      </trkpt>
      <trkpt lat="60.0203033" lon="17.7379457">
        <ele>34.2642</ele>
        <time>2013-06-02T10:32:35Z</time>
      </trkpt>
      <trkpt lat="60.020266" lon="17.7378146">
        <ele>34.2642</ele>
        <time>2013-06-02T10:32:36Z</time>
      </trkpt>
      <trkpt lat="60.0202318" lon="17.7376916">
        <ele>34.2642</ele>
        <time>2013-06-02T10:32:37Z</time>
      </trkpt>
      <trkpt lat="60.0201988" lon="17.7375675">
        <ele>34.7449</ele>
        <time>2013-06-02T10:32:38Z</time>
      </trkpt>
      <trkpt lat="60.020165" lon="17.7374496">
        <ele>34.2642</ele>
        <time>2013-06-02T10:32:39Z</time>
      </trkpt>
      <trkpt lat="60.0201312" lon="17.7373269">
        <ele>33.7834</ele>
        <time>2013-06-02T10:32:40Z</time>
      </trkpt>
      <trkpt lat="60.0200956" lon="17.737203">
        <ele>34.2642</ele>
        <time>2013-06-02T10:32:41Z</time>
      </trkpt>
      <trkpt lat="60.0200556" lon="17.7370858">
        <ele>33.7834</ele>
        <time>2013-06-02T10:32:42Z</time>
      </trkpt>
      <trkpt lat="60.0200132" lon="17.7369674">
        <ele>33.7834</ele>
        <time>2013-06-02T10:32:43Z</time>
      </trkpt>
      <trkpt lat="60.0199671" lon="17.7368597">
        <ele>33.3029</ele>
        <time>2013-06-02T10:32:44Z</time>
      </trkpt>
      <trkpt lat="60.0199138" lon="17.7367558">
        <ele>33.3029</ele>
        <time>2013-06-02T10:32:45Z</time>
      </trkpt>
      <trkpt lat="60.0198572" lon="17.7366582">
        <ele>32.8223</ele>
        <time>2013-06-02T10:32:46Z</time>
      </trkpt>
      <trkpt lat="60.0197977" lon="17.7365717">
        <ele>33.3029</ele>
        <time>2013-06-02T10:32:47Z</time>
      </trkpt>
      <trkpt lat="60.0197366" lon="17.7364881">
        <ele>33.3029</ele>
        <time>2013-06-02T10:32:48Z</time>
      </trkpt>
      <trkpt lat="60.0196753" lon="17.7364037">
        <ele>33.3029</ele>
        <time>2013-06-02T10:32:49Z</time>
      </trkpt>
      <trkpt lat="60.0196128" lon="17.7363213">
        <ele>33.3029</ele>
        <time>2013-06-02T10:32:50Z</time>
      </trkpt>
      <trkpt lat="60.0195508" lon="17.7362323">
        <ele>32.8223</ele>
        <time>2013-06-02T10:32:51Z</time>
      </trkpt>
      <trkpt lat="60.0194922" lon="17.7361592">
        <ele>34.2642</ele>
        <time>2013-06-02T10:32:52Z</time>
      </trkpt>
      <trkpt lat="60.0194351" lon="17.7360679">
        <ele>34.2642</ele>
        <time>2013-06-02T10:32:53Z</time>
      </trkpt>
      <trkpt lat="60.0193813" lon="17.7359857">
        <ele>35.2255</ele>
        <time>2013-06-02T10:32:54Z</time>
      </trkpt>
      <trkpt lat="60.0193257" lon="17.7359024">
        <ele>35.7061</ele>
        <time>2013-06-02T10:32:55Z</time>
      </trkpt>
      <trkpt lat="60.0192731" lon="17.7358204">
        <ele>37.1481</ele>
        <time>2013-06-02T10:32:56Z</time>
      </trkpt>
      <trkpt lat="60.0192169" lon="17.7357403">
        <ele>37.1481</ele>
        <time>2013-06-02T10:32:57Z</time>
      </trkpt>
      <trkpt lat="60.0191601" lon="17.7356574">
        <ele>37.6287</ele>
        <time>2013-06-02T10:32:58Z</time>
      </trkpt>
      <trkpt lat="60.0191026" lon="17.7355728">
        <ele>38.1094</ele>
        <time>2013-06-02T10:32:59Z</time>
      </trkpt>
      <trkpt lat="60.0190436" lon="17.7354853">
        <ele>38.5901</ele>
        <time>2013-06-02T10:33:00Z</time>
      </trkpt>
      <trkpt lat="60.018984" lon="17.7353948">
        <ele>38.5901</ele>
        <time>2013-06-02T10:33:01Z</time>
      </trkpt>
      <trkpt lat="60.0189237" lon="17.7353053">
        <ele>39.0707</ele>
        <time>2013-06-02T10:33:02Z</time>
      </trkpt>
      <trkpt lat="60.0188612" lon="17.7352175">
        <ele>39.0707</ele>
        <time>2013-06-02T10:33:03Z</time>
      </trkpt>
      <trkpt lat="60.0187947" lon="17.7351323">
        <ele>38.5901</ele>
        <time>2013-06-02T10:33:04Z</time>
      </trkpt>
      <trkpt lat="60.0187258" lon="17.7350511">
        <ele>37.6287</ele>
        <time>2013-06-02T10:33:05Z</time>
      </trkpt>
      <trkpt lat="60.0186574" lon="17.7349713">
        <ele>37.6287</ele>
        <time>2013-06-02T10:33:06Z</time>
      </trkpt>
      <trkpt lat="60.0185861" lon="17.7348984">
        <ele>37.1481</ele>
        <time>2013-06-02T10:33:07Z</time>
      </trkpt>
      <trkpt lat="60.0185136" lon="17.7348352">
        <ele>37.1481</ele>
        <time>2013-06-02T10:33:08Z</time>
      </trkpt>
      <trkpt lat="60.0184441" lon="17.734771">
        <ele>37.1481</ele>
        <time>2013-06-02T10:33:09Z</time>
      </trkpt>
      <trkpt lat="60.0183749" lon="17.7347087">
        <ele>35.7061</ele>
        <time>2013-06-02T10:33:10Z</time>
      </trkpt>
      <trkpt lat="60.0183083" lon="17.7346456">
        <ele>35.2255</ele>
        <time>2013-06-02T10:33:11Z</time>
      </trkpt>
      <trkpt lat="60.0182441" lon="17.7345771">
        <ele>34.2642</ele>
        <time>2013-06-02T10:33:12Z</time>
      </trkpt>
      <trkpt lat="60.0181795" lon="17.7345079">
        <ele>32.8223</ele>
        <time>2013-06-02T10:33:13Z</time>
      </trkpt>
      <trkpt lat="60.0181153" lon="17.7344328">
        <ele>31.3801</ele>
        <time>2013-06-02T10:33:14Z</time>
      </trkpt>
      <trkpt lat="60.0180495" lon="17.7343585">
        <ele>29.9381</ele>
        <time>2013-06-02T10:33:15Z</time>
      </trkpt>
      <trkpt lat="60.0179816" lon="17.7342883">
        <ele>29.4575</ele>
        <time>2013-06-02T10:33:16Z</time>
      </trkpt>
      <trkpt lat="60.0179087" lon="17.7342056">
        <ele>27.5349</ele>
        <time>2013-06-02T10:33:17Z</time>
      </trkpt>
      <trkpt lat="60.0178344" lon="17.7341359">
        <ele>27.5349</ele>
        <time>2013-06-02T10:33:18Z</time>
      </trkpt>
      <trkpt lat="60.0177581" lon="17.7340732">
        <ele>27.5349</ele>
        <time>2013-06-02T10:33:19Z</time>
      </trkpt>
      <trkpt lat="60.0176789" lon="17.7340108">
        <ele>26.5736</ele>
        <time>2013-06-02T10:33:20Z</time>
      </trkpt>
      <trkpt lat="60.0175992" lon="17.7339604">
        <ele>26.5736</ele>
        <time>2013-06-02T10:33:21Z</time>
      </trkpt>
      <trkpt lat="60.0175185" lon="17.7339121">
        <ele>26.0929</ele>
        <time>2013-06-02T10:33:22Z</time>
      </trkpt>
      <trkpt lat="60.0174373" lon="17.7338673">
        <ele>25.6123</ele>
        <time>2013-06-02T10:33:23Z</time>
      </trkpt>
      <trkpt lat="60.0173568" lon="17.7338264">
        <ele>25.1317</ele>
        <time>2013-06-02T10:33:24Z</time>
      </trkpt>
      <trkpt lat="60.0172779" lon="17.7337936">
        <ele>24.651</ele>
        <time>2013-06-02T10:33:25Z</time>
      </trkpt>
      <trkpt lat="60.0172015" lon="17.7337658">
        <ele>25.1317</ele>
        <time>2013-06-02T10:33:26Z</time>
      </trkpt>
      <trkpt lat="60.0171222" lon="17.7337446">
        <ele>25.6123</ele>
        <time>2013-06-02T10:33:27Z</time>
      </trkpt>
      <trkpt lat="60.0170415" lon="17.733725">
        <ele>26.0929</ele>
        <time>2013-06-02T10:33:28Z</time>
      </trkpt>
      <trkpt lat="60.0169605" lon="17.7337023">
        <ele>26.5736</ele>
        <time>2013-06-02T10:33:29Z</time>
      </trkpt>
      <trkpt lat="60.0168789" lon="17.7336811">
        <ele>27.0543</ele>
        <time>2013-06-02T10:33:30Z</time>
      </trkpt>
      <trkpt lat="60.0167995" lon="17.7336563">
        <ele>27.0543</ele>
        <time>2013-06-02T10:33:31Z</time>
      </trkpt>
      <trkpt lat="60.0167187" lon="17.7336291">
        <ele>27.5349</ele>
        <time>2013-06-02T10:33:32Z</time>
      </trkpt>
      <trkpt lat="60.0166361" lon="17.7335993">
        <ele>27.5349</ele>
        <time>2013-06-02T10:33:33Z</time>
      </trkpt>
      <trkpt lat="60.0165502" lon="17.7335742">
        <ele>28.0155</ele>
        <time>2013-06-02T10:33:34Z</time>
      </trkpt>
      <trkpt lat="60.0164664" lon="17.733547">
        <ele>28.0155</ele>
        <time>2013-06-02T10:33:35Z</time>
      </trkpt>
      <trkpt lat="60.0163842" lon="17.7335116">
        <ele>27.0543</ele>
        <time>2013-06-02T10:33:36Z</time>
      </trkpt>
      <trkpt lat="60.0163028" lon="17.733477">
        <ele>26.5736</ele>
        <time>2013-06-02T10:33:37Z</time>
      </trkpt>
      <trkpt lat="60.0162222" lon="17.7334512">
        <ele>27.0543</ele>
        <time>2013-06-02T10:33:38Z</time>
      </trkpt>
      <trkpt lat="60.0161411" lon="17.7334267">
        <ele>27.0543</ele>
        <time>2013-06-02T10:33:39Z</time>
      </trkpt>
      <trkpt lat="60.0160627" lon="17.7334053">
        <ele>27.0543</ele>
        <time>2013-06-02T10:33:40Z</time>
      </trkpt>
      <trkpt lat="60.0159835" lon="17.7333818">
        <ele>27.0543</ele>
        <time>2013-06-02T10:33:41Z</time>
      </trkpt>
      <trkpt lat="60.0159028" lon="17.7333618">
        <ele>27.0543</ele>
        <time>2013-06-02T10:33:42Z</time>
      </trkpt>
      <trkpt lat="60.0158219" lon="17.7333447">
        <ele>26.5736</ele>
        <time>2013-06-02T10:33:43Z</time>
      </trkpt>
      <trkpt lat="60.0157422" lon="17.7333276">
        <ele>26.5736</ele>
        <time>2013-06-02T10:33:44Z</time>
      </trkpt>
      <trkpt lat="60.0156619" lon="17.7333102">
        <ele>26.5736</ele>
        <time>2013-06-02T10:33:45Z</time>
      </trkpt>
      <trkpt lat="60.0155811" lon="17.7332893">
        <ele>26.5736</ele>
        <time>2013-06-02T10:33:46Z</time>
      </trkpt>
      <trkpt lat="60.0154989" lon="17.7332703">
        <ele>26.5736</ele>
        <time>2013-06-02T10:33:47Z</time>
      </trkpt>
      <trkpt lat="60.0154155" lon="17.733254">
        <ele>26.5736</ele>
        <time>2013-06-02T10:33:48Z</time>
      </trkpt>
      <trkpt lat="60.015332" lon="17.7332331">
        <ele>26.5736</ele>
        <time>2013-06-02T10:33:49Z</time>
      </trkpt>
      <trkpt lat="60.0152482" lon="17.7332071">
        <ele>26.5736</ele>
        <time>2013-06-02T10:33:50Z</time>
      </trkpt>
      <trkpt lat="60.0151647" lon="17.733179">
        <ele>26.5736</ele>
        <time>2013-06-02T10:33:51Z</time>
      </trkpt>
      <trkpt lat="60.0150812" lon="17.7331434">
        <ele>26.5736</ele>
        <time>2013-06-02T10:33:52Z</time>
      </trkpt>
      <trkpt lat="60.0149979" lon="17.7330966">
        <ele>26.5736</ele>
        <time>2013-06-02T10:33:53Z</time>
      </trkpt>
      <trkpt lat="60.0149134" lon="17.7330427">
        <ele>26.5736</ele>
        <time>2013-06-02T10:33:54Z</time>
      </trkpt>
      <trkpt lat="60.0148295" lon="17.7329782">
        <ele>26.5736</ele>
        <time>2013-06-02T10:33:55Z</time>
      </trkpt>
      <trkpt lat="60.0147472" lon="17.7329098">
        <ele>26.5736</ele>
        <time>2013-06-02T10:33:56Z</time>
      </trkpt>
      <trkpt lat="60.0146659" lon="17.732843">
        <ele>27.0543</ele>
        <time>2013-06-02T10:33:57Z</time>
      </trkpt>
      <trkpt lat="60.0145839" lon="17.7327802">
        <ele>26.5736</ele>
        <time>2013-06-02T10:33:58Z</time>
      </trkpt>
      <trkpt lat="60.0145024" lon="17.7327274">
        <ele>26.0929</ele>
        <time>2013-06-02T10:33:59Z</time>
      </trkpt>
      <trkpt lat="60.0144214" lon="17.7326838">
        <ele>25.6123</ele>
        <time>2013-06-02T10:34:00Z</time>
      </trkpt>
      <trkpt lat="60.0143425" lon="17.7326482">
        <ele>26.0929</ele>
        <time>2013-06-02T10:34:01Z</time>
      </trkpt>
      <trkpt lat="60.0142623" lon="17.7326082">
        <ele>25.6123</ele>
        <time>2013-06-02T10:34:02Z</time>
      </trkpt>
      <trkpt lat="60.0141834" lon="17.7325658">
        <ele>25.1317</ele>
        <time>2013-06-02T10:34:03Z</time>
      </trkpt>
      <trkpt lat="60.0141053" lon="17.7325236">
        <ele>25.1317</ele>
        <time>2013-06-02T10:34:04Z</time>
      </trkpt>
      <trkpt lat="60.0140266" lon="17.732483">
        <ele>24.651</ele>
        <time>2013-06-02T10:34:05Z</time>
      </trkpt>
      <trkpt lat="60.0139472" lon="17.7324462">
        <ele>24.1703</ele>
        <time>2013-06-02T10:34:06Z</time>
      </trkpt>
      <trkpt lat="60.0138665" lon="17.7324135">
        <ele>23.6896</ele>
        <time>2013-06-02T10:34:07Z</time>
      </trkpt>
      <trkpt lat="60.0137853" lon="17.7323838">
        <ele>23.6896</ele>
        <time>2013-06-02T10:34:08Z</time>
      </trkpt>
      <trkpt lat="60.0137028" lon="17.7323602">
        <ele>24.1703</ele>
        <time>2013-06-02T10:34:09Z</time>
      </trkpt>
      <trkpt lat="60.0136215" lon="17.7323331">
        <ele>24.1703</ele>
        <time>2013-06-02T10:34:10Z</time>
      </trkpt>
      <trkpt lat="60.0135402" lon="17.732312">
        <ele>24.1703</ele>
        <time>2013-06-02T10:34:11Z</time>
      </trkpt>
      <trkpt lat="60.0134586" lon="17.732301">
        <ele>24.1703</ele>
        <time>2013-06-02T10:34:12Z</time>
      </trkpt>
      <trkpt lat="60.0133747" lon="17.7322928">
        <ele>24.1703</ele>
        <time>2013-06-02T10:34:13Z</time>
      </trkpt>
      <trkpt lat="60.0132908" lon="17.732285">
        <ele>24.1703</ele>
        <time>2013-06-02T10:34:14Z</time>
      </trkpt>
      <trkpt lat="60.0132067" lon="17.7322819">
        <ele>24.1703</ele>
        <time>2013-06-02T10:34:15Z</time>
      </trkpt>
      <trkpt lat="60.0131211" lon="17.732284">
        <ele>24.651</ele>
        <time>2013-06-02T10:34:16Z</time>
      </trkpt>
      <trkpt lat="60.0130347" lon="17.7322964">
        <ele>24.651</ele>
        <time>2013-06-02T10:34:17Z</time>
      </trkpt>
      <trkpt lat="60.0129476" lon="17.7323099">
        <ele>24.651</ele>
        <time>2013-06-02T10:34:18Z</time>
      </trkpt>
      <trkpt lat="60.0128605" lon="17.7323207">
        <ele>24.651</ele>
        <time>2013-06-02T10:34:19Z</time>
      </trkpt>
      <trkpt lat="60.0127743" lon="17.7323321">
        <ele>24.1703</ele>
        <time>2013-06-02T10:34:20Z</time>
      </trkpt>
      <trkpt lat="60.0126879" lon="17.7323465">
        <ele>22.7283</ele>
        <time>2013-06-02T10:34:21Z</time>
      </trkpt>
      <trkpt lat="60.0126031" lon="17.7323789">
        <ele>22.2476</ele>
        <time>2013-06-02T10:34:22Z</time>
      </trkpt>
      <trkpt lat="60.0125207" lon="17.7324055">
        <ele>21.2864</ele>
        <time>2013-06-02T10:34:23Z</time>
      </trkpt>
      <trkpt lat="60.0124411" lon="17.7324358">
        <ele>21.2864</ele>
        <time>2013-06-02T10:34:24Z</time>
      </trkpt>
      <trkpt lat="60.0123639" lon="17.7324617">
        <ele>20.8057</ele>
        <time>2013-06-02T10:34:25Z</time>
      </trkpt>
      <trkpt lat="60.0122891" lon="17.732483">
        <ele>20.325</ele>
        <time>2013-06-02T10:34:26Z</time>
      </trkpt>
      <trkpt lat="60.0122161" lon="17.7325067">
        <ele>19.8444</ele>
        <time>2013-06-02T10:34:27Z</time>
      </trkpt>
      <trkpt lat="60.012145" lon="17.7325343">
        <ele>19.3638</ele>
        <time>2013-06-02T10:34:28Z</time>
      </trkpt>
      <trkpt lat="60.0120758" lon="17.7325583">
        <ele>18.8831</ele>
        <time>2013-06-02T10:34:29Z</time>
      </trkpt>
      <trkpt lat="60.0120067" lon="17.7325798">
        <ele>18.8831</ele>
        <time>2013-06-02T10:34:30Z</time>
      </trkpt>
      <trkpt lat="60.011939" lon="17.7326021">
        <ele>18.4023</ele>
        <time>2013-06-02T10:34:31Z</time>
      </trkpt>
      <trkpt lat="60.0118716" lon="17.7326186">
        <ele>18.4023</ele>
        <time>2013-06-02T10:34:32Z</time>
      </trkpt>
      <trkpt lat="60.0118036" lon="17.7326208">
        <ele>17.9218</ele>
        <time>2013-06-02T10:34:33Z</time>
      </trkpt>
      <trkpt lat="60.0117345" lon="17.732621">
        <ele>17.9218</ele>
        <time>2013-06-02T10:34:34Z</time>
      </trkpt>
      <trkpt lat="60.0116675" lon="17.7326167">
        <ele>18.4023</ele>
        <time>2013-06-02T10:34:35Z</time>
      </trkpt>
      <trkpt lat="60.0116009" lon="17.7326068">
        <ele>18.4023</ele>
        <time>2013-06-02T10:34:36Z</time>
      </trkpt>
      <trkpt lat="60.0115355" lon="17.7325926">
        <ele>18.8831</ele>
        <time>2013-06-02T10:34:37Z</time>
      </trkpt>
      <trkpt lat="60.0114702" lon="17.7325759">
        <ele>18.8831</ele>
        <time>2013-06-02T10:34:38Z</time>
      </trkpt>
      <trkpt lat="60.0114027" lon="17.7325594">
        <ele>18.8831</ele>
        <time>2013-06-02T10:34:39Z</time>
      </trkpt>
      <trkpt lat="60.0113349" lon="17.7325404">
        <ele>19.3638</ele>
        <time>2013-06-02T10:34:40Z</time>
      </trkpt>
      <trkpt lat="60.0112662" lon="17.7325223">
        <ele>19.8444</ele>
        <time>2013-06-02T10:34:41Z</time>
      </trkpt>
      <trkpt lat="60.0111962" lon="17.7325042">
        <ele>19.8444</ele>
        <time>2013-06-02T10:34:42Z</time>
      </trkpt>
      <trkpt lat="60.0111258" lon="17.732482">
        <ele>20.325</ele>
        <time>2013-06-02T10:34:43Z</time>
      </trkpt>
      <trkpt lat="60.0110562" lon="17.7324528">
        <ele>20.8057</ele>
        <time>2013-06-02T10:34:44Z</time>
      </trkpt>
      <trkpt lat="60.0109869" lon="17.7324124">
        <ele>20.8057</ele>
        <time>2013-06-02T10:34:45Z</time>
      </trkpt>
      <trkpt lat="60.0109183" lon="17.7323612">
        <ele>20.8057</ele>
        <time>2013-06-02T10:34:46Z</time>
      </trkpt>
      <trkpt lat="60.0108494" lon="17.7323052">
        <ele>20.325</ele>
        <time>2013-06-02T10:34:47Z</time>
      </trkpt>
      <trkpt lat="60.0107802" lon="17.7322416">
        <ele>18.8831</ele>
        <time>2013-06-02T10:34:48Z</time>
      </trkpt>
      <trkpt lat="60.0107124" lon="17.7321862">
        <ele>19.3638</ele>
        <time>2013-06-02T10:34:49Z</time>
      </trkpt>
      <trkpt lat="60.010645" lon="17.7321246">
        <ele>19.8444</ele>
        <time>2013-06-02T10:34:50Z</time>
      </trkpt>
      <trkpt lat="60.0105791" lon="17.7320572">
        <ele>20.325</ele>
        <time>2013-06-02T10:34:51Z</time>
      </trkpt>
      <trkpt lat="60.0105207" lon="17.7319706">
        <ele>21.2864</ele>
        <time>2013-06-02T10:34:52Z</time>
      </trkpt>
      <trkpt lat="60.0104656" lon="17.7318728">
        <ele>21.767</ele>
        <time>2013-06-02T10:34:53Z</time>
      </trkpt>
      <trkpt lat="60.0104131" lon="17.7317741">
        <ele>22.7283</ele>
        <time>2013-06-02T10:34:54Z</time>
      </trkpt>
      <trkpt lat="60.0103646" lon="17.7316707">
        <ele>23.6896</ele>
        <time>2013-06-02T10:34:55Z</time>
      </trkpt>
      <trkpt lat="60.010313" lon="17.7315628">
        <ele>23.6896</ele>
        <time>2013-06-02T10:34:56Z</time>
      </trkpt>
      <trkpt lat="60.010257" lon="17.7314732">
        <ele>24.1703</ele>
        <time>2013-06-02T10:34:57Z</time>
      </trkpt>
      <trkpt lat="60.0101968" lon="17.7313934">
        <ele>24.651</ele>
        <time>2013-06-02T10:34:58Z</time>
      </trkpt>
      <trkpt lat="60.0101358" lon="17.7313149">
        <ele>25.1317</ele>
        <time>2013-06-02T10:34:59Z</time>
      </trkpt>
      <trkpt lat="60.0100738" lon="17.7312208">
        <ele>23.6896</ele>
        <time>2013-06-02T10:35:00Z</time>
      </trkpt>
      <trkpt lat="60.0100136" lon="17.7311282">
        <ele>22.7283</ele>
        <time>2013-06-02T10:35:01Z</time>
      </trkpt>
      <trkpt lat="60.0099565" lon="17.731037">
        <ele>22.2476</ele>
        <time>2013-06-02T10:35:02Z</time>
      </trkpt>
      <trkpt lat="60.0098987" lon="17.7309429">
        <ele>21.767</ele>
        <time>2013-06-02T10:35:03Z</time>
      </trkpt>
      <trkpt lat="60.0098504" lon="17.730833">
        <ele>22.2476</ele>
        <time>2013-06-02T10:35:04Z</time>
      </trkpt>
      <trkpt lat="60.0098089" lon="17.7307191">
        <ele>23.209</ele>
        <time>2013-06-02T10:35:05Z</time>
      </trkpt>
      <trkpt lat="60.0097654" lon="17.7306182">
        <ele>23.209</ele>
        <time>2013-06-02T10:35:06Z</time>
      </trkpt>
      <trkpt lat="60.0097275" lon="17.7305062">
        <ele>23.6896</ele>
        <time>2013-06-02T10:35:07Z</time>
      </trkpt>
      <trkpt lat="60.0096894" lon="17.7303921">
        <ele>24.1703</ele>
        <time>2013-06-02T10:35:08Z</time>
      </trkpt>
      <trkpt lat="60.0096495" lon="17.7302722">
        <ele>24.651</ele>
        <time>2013-06-02T10:35:09Z</time>
      </trkpt>
      <trkpt lat="60.0096041" lon="17.7301487">
        <ele>24.651</ele>
        <time>2013-06-02T10:35:10Z</time>
      </trkpt>
      <trkpt lat="60.0095576" lon="17.7300332">
        <ele>24.1703</ele>
        <time>2013-06-02T10:35:11Z</time>
      </trkpt>
      <trkpt lat="60.0095088" lon="17.7299134">
        <ele>23.6896</ele>
        <time>2013-06-02T10:35:12Z</time>
      </trkpt>
      <trkpt lat="60.0094608" lon="17.7297937">
        <ele>23.6896</ele>
        <time>2013-06-02T10:35:13Z</time>
      </trkpt>
      <trkpt lat="60.0094154" lon="17.7296468">
        <ele>24.651</ele>
        <time>2013-06-02T10:35:14Z</time>
      </trkpt>
      <trkpt lat="60.0093674" lon="17.729493">
        <ele>26.0929</ele>
        <time>2013-06-02T10:35:15Z</time>
      </trkpt>
      <trkpt lat="60.0093163" lon="17.7293446">
        <ele>26.5736</ele>
        <time>2013-06-02T10:35:16Z</time>
      </trkpt>
      <trkpt lat="60.0092656" lon="17.7291934">
        <ele>27.5349</ele>
        <time>2013-06-02T10:35:17Z</time>
      </trkpt>
      <trkpt lat="60.0092157" lon="17.729039">
        <ele>28.4962</ele>
        <time>2013-06-02T10:35:18Z</time>
      </trkpt>
      <trkpt lat="60.009166" lon="17.7288826">
        <ele>29.4575</ele>
        <time>2013-06-02T10:35:19Z</time>
      </trkpt>
      <trkpt lat="60.0091174" lon="17.7287273">
        <ele>29.9381</ele>
        <time>2013-06-02T10:35:20Z</time>
      </trkpt>
      <trkpt lat="60.0090693" lon="17.7285725">
        <ele>30.8995</ele>
        <time>2013-06-02T10:35:21Z</time>
      </trkpt>
      <trkpt lat="60.0090194" lon="17.728417">
        <ele>31.8607</ele>
        <time>2013-06-02T10:35:22Z</time>
      </trkpt>
      <trkpt lat="60.0089623" lon="17.7282579">
        <ele>30.8995</ele>
        <time>2013-06-02T10:35:23Z</time>
      </trkpt>
      <trkpt lat="60.008907" lon="17.7281135">
        <ele>31.8607</ele>
        <time>2013-06-02T10:35:24Z</time>
      </trkpt>
      <trkpt lat="60.0088382" lon="17.727973">
        <ele>30.4188</ele>
        <time>2013-06-02T10:35:25Z</time>
      </trkpt>
      <trkpt lat="60.0087653" lon="17.7278673">
        <ele>29.9381</ele>
        <time>2013-06-02T10:35:26Z</time>
      </trkpt>
      <trkpt lat="60.0086849" lon="17.7277746">
        <ele>29.4575</ele>
        <time>2013-06-02T10:35:27Z</time>
      </trkpt>
      <trkpt lat="60.0086023" lon="17.7276883">
        <ele>28.9769</ele>
        <time>2013-06-02T10:35:28Z</time>
      </trkpt>
      <trkpt lat="60.008522" lon="17.7276027">
        <ele>28.9769</ele>
        <time>2013-06-02T10:35:29Z</time>
      </trkpt>
      <trkpt lat="60.0084424" lon="17.727507">
        <ele>28.4962</ele>
        <time>2013-06-02T10:35:30Z</time>
      </trkpt>
      <trkpt lat="60.0083658" lon="17.7273936">
        <ele>28.4962</ele>
        <time>2013-06-02T10:35:31Z</time>
      </trkpt>
      <trkpt lat="60.0082922" lon="17.727271">
        <ele>28.4962</ele>
        <time>2013-06-02T10:35:32Z</time>
      </trkpt>
      <trkpt lat="60.0082187" lon="17.727148">
        <ele>28.4962</ele>
        <time>2013-06-02T10:35:33Z</time>
      </trkpt>
      <trkpt lat="60.0081419" lon="17.7270361">
        <ele>28.4962</ele>
        <time>2013-06-02T10:35:34Z</time>
      </trkpt>
      <trkpt lat="60.0080607" lon="17.7269288">
        <ele>28.0155</ele>
        <time>2013-06-02T10:35:35Z</time>
      </trkpt>
      <trkpt lat="60.0079762" lon="17.7268371">
        <ele>28.0155</ele>
        <time>2013-06-02T10:35:36Z</time>
      </trkpt>
      <trkpt lat="60.0078887" lon="17.7267552">
        <ele>28.0155</ele>
        <time>2013-06-02T10:35:37Z</time>
      </trkpt>
      <trkpt lat="60.0077997" lon="17.7266781">
        <ele>28.4962</ele>
        <time>2013-06-02T10:35:38Z</time>
      </trkpt>
      <trkpt lat="60.007711" lon="17.7266137">
        <ele>28.0155</ele>
        <time>2013-06-02T10:35:39Z</time>
      </trkpt>
      <trkpt lat="60.0076244" lon="17.7265724">
        <ele>28.0155</ele>
        <time>2013-06-02T10:35:40Z</time>
      </trkpt>
      <trkpt lat="60.0075367" lon="17.7265615">
        <ele>27.5349</ele>
        <time>2013-06-02T10:35:41Z</time>
      </trkpt>
      <trkpt lat="60.0074598" lon="17.7265936">
        <ele>28.0155</ele>
        <time>2013-06-02T10:35:42Z</time>
      </trkpt>
      <trkpt lat="60.0073898" lon="17.7266489">
        <ele>28.9769</ele>
        <time>2013-06-02T10:35:43Z</time>
      </trkpt>
      <trkpt lat="60.007321" lon="17.7266974">
        <ele>30.4188</ele>
        <time>2013-06-02T10:35:44Z</time>
      </trkpt>
      <trkpt lat="60.0072556" lon="17.7267452">
        <ele>32.3416</ele>
        <time>2013-06-02T10:35:45Z</time>
      </trkpt>
      <trkpt lat="60.0071919" lon="17.7268005">
        <ele>31.8607</ele>
        <time>2013-06-02T10:35:46Z</time>
      </trkpt>
      <trkpt lat="60.007125" lon="17.7268469">
        <ele>30.4188</ele>
        <time>2013-06-02T10:35:47Z</time>
      </trkpt>
      <trkpt lat="60.0070609" lon="17.7268973">
        <ele>29.9381</ele>
        <time>2013-06-02T10:35:48Z</time>
      </trkpt>
      <trkpt lat="60.0069952" lon="17.7269427">
        <ele>29.9381</ele>
        <time>2013-06-02T10:35:49Z</time>
      </trkpt>
      <trkpt lat="60.006923" lon="17.7269645">
        <ele>28.4962</ele>
        <time>2013-06-02T10:35:50Z</time>
      </trkpt>
      <trkpt lat="60.0068506" lon="17.7269945">
        <ele>28.0155</ele>
        <time>2013-06-02T10:35:51Z</time>
      </trkpt>
      <trkpt lat="60.0067698" lon="17.7270429">
        <ele>28.0155</ele>
        <time>2013-06-02T10:35:52Z</time>
      </trkpt>
      <trkpt lat="60.0066932" lon="17.7270775">
        <ele>27.0543</ele>
        <time>2013-06-02T10:35:53Z</time>
      </trkpt>
      <trkpt lat="60.0066191" lon="17.7271073">
        <ele>25.6123</ele>
        <time>2013-06-02T10:35:54Z</time>
      </trkpt>
      <trkpt lat="60.0065461" lon="17.7271412">
        <ele>24.1703</ele>
        <time>2013-06-02T10:35:55Z</time>
      </trkpt>
      <trkpt lat="60.006476" lon="17.7271851">
        <ele>24.1703</ele>
        <time>2013-06-02T10:35:56Z</time>
      </trkpt>
      <trkpt lat="60.0064061" lon="17.7272385">
        <ele>24.651</ele>
        <time>2013-06-02T10:35:57Z</time>
      </trkpt>
      <trkpt lat="60.0063372" lon="17.7273044">
        <ele>25.6123</ele>
        <time>2013-06-02T10:35:58Z</time>
      </trkpt>
      <trkpt lat="60.0062746" lon="17.7273613">
        <ele>25.1317</ele>
        <time>2013-06-02T10:35:59Z</time>
      </trkpt>
      <trkpt lat="60.0062158" lon="17.7274157">
        <ele>23.6896</ele>
        <time>2013-06-02T10:36:00Z</time>
      </trkpt>
      <trkpt lat="60.0061625" lon="17.7274707">
        <ele>23.209</ele>
        <time>2013-06-02T10:36:01Z</time>
      </trkpt>
      <trkpt lat="60.006114" lon="17.7275251">
        <ele>22.7283</ele>
        <time>2013-06-02T10:36:02Z</time>
      </trkpt>
      <trkpt lat="60.0060684" lon="17.7275979">
        <ele>22.7283</ele>
        <time>2013-06-02T10:36:03Z</time>
      </trkpt>
      <trkpt lat="60.0060244" lon="17.7276647">
        <ele>23.6896</ele>
        <time>2013-06-02T10:36:04Z</time>
      </trkpt>
      <trkpt lat="60.0059798" lon="17.7277209">
        <ele>22.7283</ele>
        <time>2013-06-02T10:36:05Z</time>
      </trkpt>
      <trkpt lat="60.0059346" lon="17.7277649">
        <ele>22.2476</ele>
        <time>2013-06-02T10:36:06Z</time>
      </trkpt>
      <trkpt lat="60.0058905" lon="17.7278015">
        <ele>21.2864</ele>
        <time>2013-06-02T10:36:07Z</time>
      </trkpt>
      <trkpt lat="60.0058475" lon="17.7278321">
        <ele>20.325</ele>
        <time>2013-06-02T10:36:08Z</time>
      </trkpt>
      <trkpt lat="60.0058022" lon="17.7278514">
        <ele>20.325</ele>
        <time>2013-06-02T10:36:09Z</time>
      </trkpt>
      <trkpt lat="60.005756" lon="17.7278663">
        <ele>20.325</ele>
        <time>2013-06-02T10:36:10Z</time>
      </trkpt>
      <trkpt lat="60.0057105" lon="17.7278576">
        <ele>19.8444</ele>
        <time>2013-06-02T10:36:11Z</time>
      </trkpt>
      <trkpt lat="60.0056685" lon="17.7278242">
        <ele>18.8831</ele>
        <time>2013-06-02T10:36:12Z</time>
      </trkpt>
      <trkpt lat="60.0056263" lon="17.7278007">
        <ele>18.8831</ele>
        <time>2013-06-02T10:36:13Z</time>
      </trkpt>
      <trkpt lat="60.0055836" lon="17.7277732">
        <ele>19.3638</ele>
        <time>2013-06-02T10:36:14Z</time>
      </trkpt>
      <trkpt lat="60.0055338" lon="17.7277548">
        <ele>17.9218</ele>
        <time>2013-06-02T10:36:15Z</time>
      </trkpt>
      <trkpt lat="60.0054872" lon="17.7277405">
        <ele>18.4023</ele>
        <time>2013-06-02T10:36:16Z</time>
      </trkpt>
      <trkpt lat="60.005439" lon="17.7277274">
        <ele>18.4023</ele>
        <time>2013-06-02T10:36:17Z</time>
      </trkpt>
      <trkpt lat="60.0053846" lon="17.7277369">
        <ele>19.3638</ele>
        <time>2013-06-02T10:36:18Z</time>
      </trkpt>
      <trkpt lat="60.0053335" lon="17.7277456">
        <ele>20.325</ele>
        <time>2013-06-02T10:36:19Z</time>
      </trkpt>
      <trkpt lat="60.0052806" lon="17.7277421">
        <ele>20.8057</ele>
        <time>2013-06-02T10:36:20Z</time>
      </trkpt>
      <trkpt lat="60.0052281" lon="17.7277476">
        <ele>20.8057</ele>
        <time>2013-06-02T10:36:21Z</time>
      </trkpt>
      <trkpt lat="60.0051755" lon="17.7277583">
        <ele>21.2864</ele>
        <time>2013-06-02T10:36:22Z</time>
      </trkpt>
      <trkpt lat="60.005123" lon="17.7277728">
        <ele>21.767</ele>
        <time>2013-06-02T10:36:23Z</time>
      </trkpt>
      <trkpt lat="60.0050729" lon="17.7277882">
        <ele>22.7283</ele>
        <time>2013-06-02T10:36:24Z</time>
      </trkpt>
      <trkpt lat="60.0050239" lon="17.7277944">
        <ele>21.767</ele>
        <time>2013-06-02T10:36:25Z</time>
      </trkpt>
      <trkpt lat="60.0049765" lon="17.7278182">
        <ele>21.767</ele>
        <time>2013-06-02T10:36:26Z</time>
      </trkpt>
      <trkpt lat="60.0049225" lon="17.7278587">
        <ele>21.767</ele>
        <time>2013-06-02T10:36:27Z</time>
      </trkpt>
      <trkpt lat="60.0048711" lon="17.7278929">
        <ele>22.2476</ele>
        <time>2013-06-02T10:36:28Z</time>
      </trkpt>
      <trkpt lat="60.0048236" lon="17.727912">
        <ele>22.2476</ele>
        <time>2013-06-02T10:36:29Z</time>
      </trkpt>
      <trkpt lat="60.0047756" lon="17.727948">
        <ele>23.209</ele>
        <time>2013-06-02T10:36:30Z</time>
      </trkpt>
      <trkpt lat="60.0047246" lon="17.7279963">
        <ele>24.651</ele>
        <time>2013-06-02T10:36:31Z</time>
      </trkpt>
      <trkpt lat="60.0046781" lon="17.7280419">
        <ele>26.0929</ele>
        <time>2013-06-02T10:36:32Z</time>
      </trkpt>
      <trkpt lat="60.004633" lon="17.7280725">
        <ele>26.5736</ele>
        <time>2013-06-02T10:36:33Z</time>
      </trkpt>
      <trkpt lat="60.0045869" lon="17.7281062">
        <ele>27.0543</ele>
        <time>2013-06-02T10:36:34Z</time>
      </trkpt>
      <trkpt lat="60.004543" lon="17.7281389">
        <ele>27.0543</ele>
        <time>2013-06-02T10:36:35Z</time>
      </trkpt>
      <trkpt lat="60.0045013" lon="17.7281654">
        <ele>26.5736</ele>
        <time>2013-06-02T10:36:36Z</time>
      </trkpt>
      <trkpt lat="60.0044563" lon="17.7282034">
        <ele>26.5736</ele>
        <time>2013-06-02T10:36:37Z</time>
      </trkpt>
      <trkpt lat="60.0044163" lon="17.7282244">
        <ele>26.0929</ele>
        <time>2013-06-02T10:36:38Z</time>
      </trkpt>
      <trkpt lat="60.0043844" lon="17.7282596">
        <ele>25.1317</ele>
        <time>2013-06-02T10:36:39Z</time>
      </trkpt>
      <trkpt lat="60.0043468" lon="17.7282829">
        <ele>23.6896</ele>
        <time>2013-06-02T10:36:40Z</time>
      </trkpt>
      <trkpt lat="60.0043033" lon="17.728312">
        <ele>22.7283</ele>
        <time>2013-06-02T10:36:41Z</time>
      </trkpt>
      <trkpt lat="60.0042606" lon="17.7283166">
        <ele>21.767</ele>
        <time>2013-06-02T10:36:42Z</time>
      </trkpt>
      <trkpt lat="60.0042285" lon="17.7283114">
        <ele>20.8057</ele>
        <time>2013-06-02T10:36:43Z</time>
      </trkpt>
      <trkpt lat="60.004202" lon="17.7282938">
        <ele>20.325</ele>
        <time>2013-06-02T10:36:44Z</time>
      </trkpt>
      <trkpt lat="60.0041809" lon="17.7282658">
        <ele>20.325</ele>
        <time>2013-06-02T10:36:45Z</time>
      </trkpt>
      <trkpt lat="60.0041677" lon="17.7282347">
        <ele>19.8444</ele>
        <time>2013-06-02T10:36:46Z</time>
      </trkpt>
      <trkpt lat="60.0041563" lon="17.7282187">
        <ele>19.3638</ele>
        <time>2013-06-02T10:36:47Z</time>
      </trkpt>
      <trkpt lat="60.0041439" lon="17.7282131">
        <ele>19.3638</ele>
        <time>2013-06-02T10:36:48Z</time>
      </trkpt>
      <trkpt lat="60.0041295" lon="17.7282063">
        <ele>18.8831</ele>
        <time>2013-06-02T10:36:49Z</time>
      </trkpt>
      <trkpt lat="60.0041092" lon="17.7282149">
        <ele>18.8831</ele>
        <time>2013-06-02T10:36:50Z</time>
      </trkpt>
      <trkpt lat="60.0040844" lon="17.7282477">
        <ele>19.3638</ele>
        <time>2013-06-02T10:36:51Z</time>
      </trkpt>
      <trkpt lat="60.0040676" lon="17.7283159">
        <ele>20.325</ele>
        <time>2013-06-02T10:36:52Z</time>
      </trkpt>
      <trkpt lat="60.0040564" lon="17.7283957">
        <ele>20.8057</ele>
        <time>2013-06-02T10:36:53Z</time>
      </trkpt>
      <trkpt lat="60.0040438" lon="17.7284802">
        <ele>21.2864</ele>
        <time>2013-06-02T10:36:54Z</time>
      </trkpt>
      <trkpt lat="60.0040192" lon="17.728565">
        <ele>22.7283</ele>
        <time>2013-06-02T10:36:55Z</time>
      </trkpt>
      <trkpt lat="60.0039921" lon="17.7286407">
        <ele>24.1703</ele>
        <time>2013-06-02T10:36:56Z</time>
      </trkpt>
      <trkpt lat="60.0039625" lon="17.728704">
        <ele>25.6123</ele>
        <time>2013-06-02T10:36:57Z</time>
      </trkpt>
      <trkpt lat="60.003932" lon="17.728774">
        <ele>28.4962</ele>
        <time>2013-06-02T10:36:58Z</time>
      </trkpt>
      <trkpt lat="60.0038996" lon="17.7288357">
        <ele>30.4188</ele>
        <time>2013-06-02T10:36:59Z</time>
      </trkpt>
      <trkpt lat="60.0038673" lon="17.7288984">
        <ele>31.3801</ele>
        <time>2013-06-02T10:37:00Z</time>
      </trkpt>
      <trkpt lat="60.0038333" lon="17.7289631">
        <ele>32.8223</ele>
        <time>2013-06-02T10:37:01Z</time>
      </trkpt>
      <trkpt lat="60.003799" lon="17.7290305">
        <ele>33.7834</ele>
        <time>2013-06-02T10:37:02Z</time>
      </trkpt>
      <trkpt lat="60.0037633" lon="17.7290986">
        <ele>34.7449</ele>
        <time>2013-06-02T10:37:03Z</time>
      </trkpt>
      <trkpt lat="60.0037248" lon="17.7291634">
        <ele>35.2255</ele>
        <time>2013-06-02T10:37:04Z</time>
      </trkpt>
      <trkpt lat="60.0036845" lon="17.7292317">
        <ele>35.7061</ele>
        <time>2013-06-02T10:37:05Z</time>
      </trkpt>
      <trkpt lat="60.0036452" lon="17.7293012">
        <ele>36.6675</ele>
        <time>2013-06-02T10:37:06Z</time>
      </trkpt>
      <trkpt lat="60.003608" lon="17.7293671">
        <ele>36.1868</ele>
        <time>2013-06-02T10:37:07Z</time>
      </trkpt>
      <trkpt lat="60.0035711" lon="17.7294327">
        <ele>34.7449</ele>
        <time>2013-06-02T10:37:08Z</time>
      </trkpt>
      <trkpt lat="60.0035362" lon="17.7294971">
        <ele>34.2642</ele>
        <time>2013-06-02T10:37:09Z</time>
      </trkpt>
      <trkpt lat="60.0035033" lon="17.729562">
        <ele>33.3029</ele>
        <time>2013-06-02T10:37:10Z</time>
      </trkpt>
      <trkpt lat="60.0034742" lon="17.7296209">
        <ele>32.8223</ele>
        <time>2013-06-02T10:37:11Z</time>
      </trkpt>
      <trkpt lat="60.0034442" lon="17.7296829">
        <ele>31.8607</ele>
        <time>2013-06-02T10:37:12Z</time>
      </trkpt>
      <trkpt lat="60.0034113" lon="17.7297514">
        <ele>30.8995</ele>
        <time>2013-06-02T10:37:13Z</time>
      </trkpt>
      <trkpt lat="60.0033758" lon="17.7298089">
        <ele>30.4188</ele>
        <time>2013-06-02T10:37:14Z</time>
      </trkpt>
      <trkpt lat="60.003343" lon="17.7298803">
        <ele>30.4188</ele>
        <time>2013-06-02T10:37:15Z</time>
      </trkpt>
      <trkpt lat="60.0033113" lon="17.7299457">
        <ele>29.9381</ele>
        <time>2013-06-02T10:37:16Z</time>
      </trkpt>
      <trkpt lat="60.0032772" lon="17.730002">
        <ele>29.4575</ele>
        <time>2013-06-02T10:37:17Z</time>
      </trkpt>
      <trkpt lat="60.0032427" lon="17.7300608">
        <ele>28.4962</ele>
        <time>2013-06-02T10:37:18Z</time>
      </trkpt>
      <trkpt lat="60.0032086" lon="17.7301252">
        <ele>27.5349</ele>
        <time>2013-06-02T10:37:19Z</time>
      </trkpt>
      <trkpt lat="60.0031744" lon="17.7301928">
        <ele>26.5736</ele>
        <time>2013-06-02T10:37:20Z</time>
      </trkpt>
      <trkpt lat="60.0031414" lon="17.7302653">
        <ele>25.6123</ele>
        <time>2013-06-02T10:37:21Z</time>
      </trkpt>
      <trkpt lat="60.0031012" lon="17.7303326">
        <ele>26.0929</ele>
        <time>2013-06-02T10:37:22Z</time>
      </trkpt>
      <trkpt lat="60.0030597" lon="17.7303958">
        <ele>26.5736</ele>
        <time>2013-06-02T10:37:23Z</time>
      </trkpt>
      <trkpt lat="60.0030198" lon="17.7304563">
        <ele>27.0543</ele>
        <time>2013-06-02T10:37:24Z</time>
      </trkpt>
      <trkpt lat="60.0029805" lon="17.7305208">
        <ele>27.5349</ele>
        <time>2013-06-02T10:37:25Z</time>
      </trkpt>
      <trkpt lat="60.0029448" lon="17.7305927">
        <ele>27.0543</ele>
        <time>2013-06-02T10:37:26Z</time>
      </trkpt>
      <trkpt lat="60.0029092" lon="17.7306714">
        <ele>27.0543</ele>
        <time>2013-06-02T10:37:27Z</time>
      </trkpt>
      <trkpt lat="60.0028744" lon="17.730745">
        <ele>26.5736</ele>
        <time>2013-06-02T10:37:28Z</time>
      </trkpt>
      <trkpt lat="60.0028418" lon="17.7308191">
        <ele>26.5736</ele>
        <time>2013-06-02T10:37:29Z</time>
      </trkpt>
      <trkpt lat="60.0028078" lon="17.7309071">
        <ele>27.0543</ele>
        <time>2013-06-02T10:37:30Z</time>
      </trkpt>
      <trkpt lat="60.0027755" lon="17.7310009">
        <ele>27.5349</ele>
        <time>2013-06-02T10:37:31Z</time>
      </trkpt>
      <trkpt lat="60.0027443" lon="17.7310885">
        <ele>28.0155</ele>
        <time>2013-06-02T10:37:32Z</time>
      </trkpt>
      <trkpt lat="60.0027174" lon="17.7311735">
        <ele>28.0155</ele>
        <time>2013-06-02T10:37:33Z</time>
      </trkpt>
      <trkpt lat="60.0026911" lon="17.7312651">
        <ele>28.0155</ele>
        <time>2013-06-02T10:37:34Z</time>
      </trkpt>
      <trkpt lat="60.0026654" lon="17.7313619">
        <ele>28.4962</ele>
        <time>2013-06-02T10:37:35Z</time>
      </trkpt>
      <trkpt lat="60.0026411" lon="17.7314516">
        <ele>28.0155</ele>
        <time>2013-06-02T10:37:36Z</time>
      </trkpt>
      <trkpt lat="60.0026173" lon="17.7315436">
        <ele>28.0155</ele>
        <time>2013-06-02T10:37:37Z</time>
      </trkpt>
      <trkpt lat="60.0025988" lon="17.7316441">
        <ele>27.5349</ele>
        <time>2013-06-02T10:37:38Z</time>
      </trkpt>
      <trkpt lat="60.0025756" lon="17.7317479">
        <ele>27.5349</ele>
        <time>2013-06-02T10:37:39Z</time>
      </trkpt>
      <trkpt lat="60.0025511" lon="17.7318525">
        <ele>27.5349</ele>
        <time>2013-06-02T10:37:40Z</time>
      </trkpt>
      <trkpt lat="60.0025282" lon="17.7319393">
        <ele>27.0543</ele>
        <time>2013-06-02T10:37:41Z</time>
      </trkpt>
      <trkpt lat="60.0025029" lon="17.7320406">
        <ele>27.5349</ele>
        <time>2013-06-02T10:37:42Z</time>
      </trkpt>
      <trkpt lat="60.0024784" lon="17.732141">
        <ele>27.5349</ele>
        <time>2013-06-02T10:37:43Z</time>
      </trkpt>
      <trkpt lat="60.0024571" lon="17.7322295">
        <ele>27.5349</ele>
        <time>2013-06-02T10:37:44Z</time>
      </trkpt>
      <trkpt lat="60.0024371" lon="17.7323217">
        <ele>27.0543</ele>
        <time>2013-06-02T10:37:45Z</time>
      </trkpt>
      <trkpt lat="60.0024199" lon="17.7324148">
        <ele>26.0929</ele>
        <time>2013-06-02T10:37:46Z</time>
      </trkpt>
      <trkpt lat="60.0024017" lon="17.7325041">
        <ele>26.0929</ele>
        <time>2013-06-02T10:37:47Z</time>
      </trkpt>
      <trkpt lat="60.0023864" lon="17.7325946">
        <ele>26.0929</ele>
        <time>2013-06-02T10:37:48Z</time>
      </trkpt>
      <trkpt lat="60.0023724" lon="17.7326798">
        <ele>26.5736</ele>
        <time>2013-06-02T10:37:49Z</time>
      </trkpt>
      <trkpt lat="60.0023635" lon="17.7327588">
        <ele>26.0929</ele>
        <time>2013-06-02T10:37:50Z</time>
      </trkpt>
      <trkpt lat="60.0023577" lon="17.7328329">
        <ele>25.6123</ele>
        <time>2013-06-02T10:37:51Z</time>
      </trkpt>
      <trkpt lat="60.0023538" lon="17.7328978">
        <ele>26.0929</ele>
        <time>2013-06-02T10:37:52Z</time>
      </trkpt>
      <trkpt lat="60.0023528" lon="17.7329668">
        <ele>27.0543</ele>
        <time>2013-06-02T10:37:53Z</time>
      </trkpt>
      <trkpt lat="60.0023584" lon="17.7330382">
        <ele>27.0543</ele>
        <time>2013-06-02T10:37:54Z</time>
      </trkpt>
      <trkpt lat="60.0023667" lon="17.7331171">
        <ele>27.5349</ele>
        <time>2013-06-02T10:37:55Z</time>
      </trkpt>
      <trkpt lat="60.0023715" lon="17.7332107">
        <ele>27.0543</ele>
        <time>2013-06-02T10:37:56Z</time>
      </trkpt>
      <trkpt lat="60.0023745" lon="17.7333022">
        <ele>27.0543</ele>
        <time>2013-06-02T10:37:57Z</time>
      </trkpt>
      <trkpt lat="60.0023723" lon="17.7333956">
        <ele>27.0543</ele>
        <time>2013-06-02T10:37:58Z</time>
      </trkpt>
      <trkpt lat="60.0023712" lon="17.7334826">
        <ele>26.0929</ele>
        <time>2013-06-02T10:37:59Z</time>
      </trkpt>
      <trkpt lat="60.0023693" lon="17.733578">
        <ele>26.0929</ele>
        <time>2013-06-02T10:38:00Z</time>
      </trkpt>
      <trkpt lat="60.0023653" lon="17.7336713">
        <ele>25.6123</ele>
        <time>2013-06-02T10:38:01Z</time>
      </trkpt>
      <trkpt lat="60.0023569" lon="17.7337581">
        <ele>25.6123</ele>
        <time>2013-06-02T10:38:02Z</time>
      </trkpt>
      <trkpt lat="60.0023447" lon="17.7338401">
        <ele>25.6123</ele>
        <time>2013-06-02T10:38:03Z</time>
      </trkpt>
      <trkpt lat="60.0023307" lon="17.7339195">
        <ele>26.0929</ele>
        <time>2013-06-02T10:38:04Z</time>
      </trkpt>
      <trkpt lat="60.0023176" lon="17.7340077">
        <ele>26.0929</ele>
        <time>2013-06-02T10:38:05Z</time>
      </trkpt>
      <trkpt lat="60.0023085" lon="17.7340779">
        <ele>26.5736</ele>
        <time>2013-06-02T10:38:06Z</time>
      </trkpt>
      <trkpt lat="60.0022995" lon="17.7341539">
        <ele>26.0929</ele>
        <time>2013-06-02T10:38:07Z</time>
      </trkpt>
      <trkpt lat="60.0022909" lon="17.7342327">
        <ele>25.1317</ele>
        <time>2013-06-02T10:38:08Z</time>
      </trkpt>
      <trkpt lat="60.0022807" lon="17.7343115">
        <ele>25.6123</ele>
        <time>2013-06-02T10:38:09Z</time>
      </trkpt>
      <trkpt lat="60.0022689" lon="17.7343828">
        <ele>24.651</ele>
        <time>2013-06-02T10:38:10Z</time>
      </trkpt>
      <trkpt lat="60.0022554" lon="17.73447">
        <ele>24.651</ele>
        <time>2013-06-02T10:38:11Z</time>
      </trkpt>
      <trkpt lat="60.0022387" lon="17.7345587">
        <ele>24.651</ele>
        <time>2013-06-02T10:38:12Z</time>
      </trkpt>
      <trkpt lat="60.0022144" lon="17.7346421">
        <ele>26.5736</ele>
        <time>2013-06-02T10:38:13Z</time>
      </trkpt>
      <trkpt lat="60.002187" lon="17.7347309">
        <ele>27.0543</ele>
        <time>2013-06-02T10:38:14Z</time>
      </trkpt>
      <trkpt lat="60.0021629" lon="17.7348119">
        <ele>28.0155</ele>
        <time>2013-06-02T10:38:15Z</time>
      </trkpt>
      <trkpt lat="60.0021377" lon="17.7348983">
        <ele>27.0543</ele>
        <time>2013-06-02T10:38:16Z</time>
      </trkpt>
      <trkpt lat="60.0021087" lon="17.7349692">
        <ele>27.0543</ele>
        <time>2013-06-02T10:38:17Z</time>
      </trkpt>
      <trkpt lat="60.0020801" lon="17.7350398">
        <ele>26.5736</ele>
        <time>2013-06-02T10:38:18Z</time>
      </trkpt>
      <trkpt lat="60.0020523" lon="17.7351191">
        <ele>27.5349</ele>
        <time>2013-06-02T10:38:19Z</time>
      </trkpt>
      <trkpt lat="60.0020264" lon="17.7351857">
        <ele>28.4962</ele>
        <time>2013-06-02T10:38:20Z</time>
      </trkpt>
      <trkpt lat="60.0019935" lon="17.735253">
        <ele>28.4962</ele>
        <time>2013-06-02T10:38:21Z</time>
      </trkpt>
      <trkpt lat="60.001956" lon="17.7353221">
        <ele>30.8995</ele>
        <time>2013-06-02T10:38:22Z</time>
      </trkpt>
      <trkpt lat="60.0019171" lon="17.735379">
        <ele>31.8607</ele>
        <time>2013-06-02T10:38:23Z</time>
      </trkpt>
      <trkpt lat="60.0018766" lon="17.7354317">
        <ele>33.3029</ele>
        <time>2013-06-02T10:38:24Z</time>
      </trkpt>
      <trkpt lat="60.0018366" lon="17.7354854">
        <ele>34.2642</ele>
        <time>2013-06-02T10:38:25Z</time>
      </trkpt>
      <trkpt lat="60.0018008" lon="17.735535">
        <ele>35.2255</ele>
        <time>2013-06-02T10:38:26Z</time>
      </trkpt>
      <trkpt lat="60.0017649" lon="17.7355837">
        <ele>36.6675</ele>
        <time>2013-06-02T10:38:27Z</time>
      </trkpt>
      <trkpt lat="60.0017279" lon="17.7356256">
        <ele>37.6287</ele>
        <time>2013-06-02T10:38:28Z</time>
      </trkpt>
      <trkpt lat="60.0016933" lon="17.7356614">
        <ele>38.1094</ele>
        <time>2013-06-02T10:38:29Z</time>
      </trkpt>
      <trkpt lat="60.0016584" lon="17.7357065">
        <ele>39.0707</ele>
        <time>2013-06-02T10:38:30Z</time>
      </trkpt>
      <trkpt lat="60.0016187" lon="17.7357514">
        <ele>39.5513</ele>
        <time>2013-06-02T10:38:31Z</time>
      </trkpt>
      <trkpt lat="60.0015783" lon="17.7358026">
        <ele>40.0321</ele>
        <time>2013-06-02T10:38:32Z</time>
      </trkpt>
      <trkpt lat="60.0015378" lon="17.7358467">
        <ele>40.5128</ele>
        <time>2013-06-02T10:38:33Z</time>
      </trkpt>
      <trkpt lat="60.0014964" lon="17.7358858">
        <ele>40.9934</ele>
        <time>2013-06-02T10:38:34Z</time>
      </trkpt>
      <trkpt lat="60.0014527" lon="17.7359318">
        <ele>40.9934</ele>
        <time>2013-06-02T10:38:35Z</time>
      </trkpt>
      <trkpt lat="60.0014061" lon="17.735977">
        <ele>40.9934</ele>
        <time>2013-06-02T10:38:36Z</time>
      </trkpt>
      <trkpt lat="60.0013561" lon="17.7360163">
        <ele>40.9934</ele>
        <time>2013-06-02T10:38:37Z</time>
      </trkpt>
      <trkpt lat="60.0013023" lon="17.7360523">
        <ele>40.9934</ele>
        <time>2013-06-02T10:38:38Z</time>
      </trkpt>
      <trkpt lat="60.0012461" lon="17.7360891">
        <ele>40.5128</ele>
        <time>2013-06-02T10:38:39Z</time>
      </trkpt>
      <trkpt lat="60.0011886" lon="17.7361147">
        <ele>40.0321</ele>
        <time>2013-06-02T10:38:40Z</time>
      </trkpt>
      <trkpt lat="60.0011306" lon="17.7361323">
        <ele>40.0321</ele>
        <time>2013-06-02T10:38:41Z</time>
      </trkpt>
      <trkpt lat="60.0010722" lon="17.7361535">
        <ele>39.5513</ele>
        <time>2013-06-02T10:38:42Z</time>
      </trkpt>
      <trkpt lat="60.0010127" lon="17.7361783">
        <ele>39.5513</ele>
        <time>2013-06-02T10:38:43Z</time>
      </trkpt>
      <trkpt lat="60.0009519" lon="17.7362094">
        <ele>39.0707</ele>
        <time>2013-06-02T10:38:44Z</time>
      </trkpt>
      <trkpt lat="60.0008899" lon="17.7362457">
        <ele>39.0707</ele>
        <time>2013-06-02T10:38:45Z</time>
      </trkpt>
      <trkpt lat="60.0008293" lon="17.7362949">
        <ele>39.5513</ele>
        <time>2013-06-02T10:38:46Z</time>
      </trkpt>
      <trkpt lat="60.0007666" lon="17.7363467">
        <ele>39.5513</ele>
        <time>2013-06-02T10:38:47Z</time>
      </trkpt>
      <trkpt lat="60.0007034" lon="17.7364001">
        <ele>39.5513</ele>
        <time>2013-06-02T10:38:48Z</time>
      </trkpt>
      <trkpt lat="60.0006391" lon="17.7364497">
        <ele>39.0707</ele>
        <time>2013-06-02T10:38:49Z</time>
      </trkpt>
      <trkpt lat="60.0005749" lon="17.736504">
        <ele>38.5901</ele>
        <time>2013-06-02T10:38:50Z</time>
      </trkpt>
      <trkpt lat="60.0005122" lon="17.7365563">
        <ele>38.5901</ele>
        <time>2013-06-02T10:38:51Z</time>
      </trkpt>
      <trkpt lat="60.0004486" lon="17.7365994">
        <ele>38.1094</ele>
        <time>2013-06-02T10:38:52Z</time>
      </trkpt>
      <trkpt lat="60.0003874" lon="17.7366325">
        <ele>38.1094</ele>
        <time>2013-06-02T10:38:53Z</time>
      </trkpt>
      <trkpt lat="60.0003261" lon="17.7366674">
        <ele>37.6287</ele>
        <time>2013-06-02T10:38:54Z</time>
      </trkpt>
      <trkpt lat="60.0002675" lon="17.7366943">
        <ele>37.6287</ele>
        <time>2013-06-02T10:38:55Z</time>
      </trkpt>
      <trkpt lat="60.0002103" lon="17.7367109">
        <ele>37.6287</ele>
        <time>2013-06-02T10:38:56Z</time>
      </trkpt>
      <trkpt lat="60.0001543" lon="17.7367264">
        <ele>37.6287</ele>
        <time>2013-06-02T10:38:57Z</time>
      </trkpt>
      <trkpt lat="60.0001005" lon="17.7367403">
        <ele>37.6287</ele>
        <time>2013-06-02T10:38:58Z</time>
      </trkpt>
      <trkpt lat="60.0000507" lon="17.7367485">
        <ele>38.5901</ele>
        <time>2013-06-02T10:38:59Z</time>
      </trkpt>
      <trkpt lat="60.0000034" lon="17.7367511">
        <ele>39.0707</ele>
        <time>2013-06-02T10:39:00Z</time>
      </trkpt>
      <trkpt lat="59.9999588" lon="17.7367513">
        <ele>39.5513</ele>
        <time>2013-06-02T10:39:01Z</time>
      </trkpt>
      <trkpt lat="59.9999149" lon="17.7367507">
        <ele>40.0321</ele>
        <time>2013-06-02T10:39:02Z</time>
      </trkpt>
      <trkpt lat="59.9998673" lon="17.7367566">
        <ele>40.5128</ele>
        <time>2013-06-02T10:39:03Z</time>
      </trkpt>
      <trkpt lat="59.99982" lon="17.7367497">
        <ele>40.5128</ele>
        <time>2013-06-02T10:39:04Z</time>
      </trkpt>
      <trkpt lat="59.999771" lon="17.7367444">
        <ele>40.0321</ele>
        <time>2013-06-02T10:39:05Z</time>
      </trkpt>
      <trkpt lat="59.9997197" lon="17.7367403">
        <ele>40.0321</ele>
        <time>2013-06-02T10:39:06Z</time>
      </trkpt>
      <trkpt lat="59.9996675" lon="17.7367346">
        <ele>39.5513</ele>
        <time>2013-06-02T10:39:07Z</time>
      </trkpt>
      <trkpt lat="59.9996133" lon="17.736725">
        <ele>39.0707</ele>
        <time>2013-06-02T10:39:08Z</time>
      </trkpt>
      <trkpt lat="59.9995559" lon="17.7367131">
        <ele>38.5901</ele>
        <time>2013-06-02T10:39:09Z</time>
      </trkpt>
      <trkpt lat="59.999499" lon="17.7367012">
        <ele>37.6287</ele>
        <time>2013-06-02T10:39:10Z</time>
      </trkpt>
      <trkpt lat="59.9994399" lon="17.7366911">
        <ele>37.1481</ele>
        <time>2013-06-02T10:39:11Z</time>
      </trkpt>
      <trkpt lat="59.9993778" lon="17.7366761">
        <ele>36.1868</ele>
        <time>2013-06-02T10:39:12Z</time>
      </trkpt>
      <trkpt lat="59.999315" lon="17.736655">
        <ele>34.2642</ele>
        <time>2013-06-02T10:39:13Z</time>
      </trkpt>
      <trkpt lat="59.9992501" lon="17.7366186">
        <ele>32.8223</ele>
        <time>2013-06-02T10:39:14Z</time>
      </trkpt>
      <trkpt lat="59.9991939" lon="17.7365965">
        <ele>31.3801</ele>
        <time>2013-06-02T10:39:15Z</time>
      </trkpt>
      <trkpt lat="59.9991326" lon="17.7365804">
        <ele>29.9381</ele>
        <time>2013-06-02T10:39:16Z</time>
      </trkpt>
      <trkpt lat="59.9990701" lon="17.7365565">
        <ele>28.4962</ele>
        <time>2013-06-02T10:39:17Z</time>
      </trkpt>
      <trkpt lat="59.9990043" lon="17.7365363">
        <ele>26.0929</ele>
        <time>2013-06-02T10:39:18Z</time>
      </trkpt>
      <trkpt lat="59.9989298" lon="17.7364926">
        <ele>24.651</ele>
        <time>2013-06-02T10:39:19Z</time>
      </trkpt>
      <trkpt lat="59.9988571" lon="17.7364748">
        <ele>23.6896</ele>
        <time>2013-06-02T10:39:20Z</time>
      </trkpt>
      <trkpt lat="59.9987836" lon="17.7364554">
        <ele>22.7283</ele>
        <time>2013-06-02T10:39:21Z</time>
      </trkpt>
      <trkpt lat="59.9987163" lon="17.7364479">
        <ele>21.767</ele>
        <time>2013-06-02T10:39:22Z</time>
      </trkpt>
      <trkpt lat="59.9986513" lon="17.7364394">
        <ele>20.8057</ele>
        <time>2013-06-02T10:39:23Z</time>
      </trkpt>
      <trkpt lat="59.9985883" lon="17.7364344">
        <ele>20.325</ele>
        <time>2013-06-02T10:39:24Z</time>
      </trkpt>
      <trkpt lat="59.9985268" lon="17.7364219">
        <ele>19.3638</ele>
        <time>2013-06-02T10:39:25Z</time>
      </trkpt>
      <trkpt lat="59.9984665" lon="17.7364114">
        <ele>18.8831</ele>
        <time>2013-06-02T10:39:26Z</time>
      </trkpt>
      <trkpt lat="59.9984096" lon="17.7363937">
        <ele>17.9218</ele>
        <time>2013-06-02T10:39:27Z</time>
      </trkpt>
      <trkpt lat="59.9983282" lon="17.7363939">
        <ele>21.2864</ele>
        <time>2013-06-02T10:39:28Z</time>
      </trkpt>
      <trkpt lat="59.9982454" lon="17.7364">
        <ele>25.1317</ele>
        <time>2013-06-02T10:39:29Z</time>
      </trkpt>
      <trkpt lat="59.9981682" lon="17.7364036">
        <ele>27.5349</ele>
        <time>2013-06-02T10:39:30Z</time>
      </trkpt>
      <trkpt lat="59.998111" lon="17.7364017">
        <ele>27.5349</ele>
        <time>2013-06-02T10:39:31Z</time>
      </trkpt>
      <trkpt lat="59.9980563" lon="17.7364005">
        <ele>27.0543</ele>
        <time>2013-06-02T10:39:32Z</time>
      </trkpt>
      <trkpt lat="59.9980035" lon="17.7364031">
        <ele>26.5736</ele>
        <time>2013-06-02T10:39:33Z</time>
      </trkpt>
      <trkpt lat="59.9979484" lon="17.736401">
        <ele>25.6123</ele>
        <time>2013-06-02T10:39:34Z</time>
      </trkpt>
      <trkpt lat="59.9978933" lon="17.7363948">
        <ele>25.1317</ele>
        <time>2013-06-02T10:39:35Z</time>
      </trkpt>
      <trkpt lat="59.997837" lon="17.7363852">
        <ele>24.651</ele>
        <time>2013-06-02T10:39:36Z</time>
      </trkpt>
      <trkpt lat="59.9977702" lon="17.7363856">
        <ele>26.0929</ele>
        <time>2013-06-02T10:39:37Z</time>
      </trkpt>
      <trkpt lat="59.9977023" lon="17.7363835">
        <ele>27.0543</ele>
        <time>2013-06-02T10:39:38Z</time>
      </trkpt>
      <trkpt lat="59.9976352" lon="17.7363774">
        <ele>28.0155</ele>
        <time>2013-06-02T10:39:39Z</time>
      </trkpt>
      <trkpt lat="59.9975658" lon="17.7363724">
        <ele>28.4962</ele>
        <time>2013-06-02T10:39:40Z</time>
      </trkpt>
      <trkpt lat="59.9975001" lon="17.7363629">
        <ele>28.0155</ele>
        <time>2013-06-02T10:39:41Z</time>
      </trkpt>
      <trkpt lat="59.9974316" lon="17.7363553">
        <ele>28.0155</ele>
        <time>2013-06-02T10:39:42Z</time>
      </trkpt>
      <trkpt lat="59.9973551" lon="17.7363548">
        <ele>28.4962</ele>
        <time>2013-06-02T10:39:43Z</time>
      </trkpt>
      <trkpt lat="59.9972819" lon="17.7363357">
        <ele>28.0155</ele>
        <time>2013-06-02T10:39:44Z</time>
      </trkpt>
      <trkpt lat="59.9972108" lon="17.736311">
        <ele>28.0155</ele>
        <time>2013-06-02T10:39:45Z</time>
      </trkpt>
      <trkpt lat="59.997141" lon="17.7362899">
        <ele>28.0155</ele>
        <time>2013-06-02T10:39:46Z</time>
      </trkpt>
      <trkpt lat="59.9970675" lon="17.7362665">
        <ele>28.4962</ele>
        <time>2013-06-02T10:39:47Z</time>
      </trkpt>
      <trkpt lat="59.996994" lon="17.7362271">
        <ele>28.0155</ele>
        <time>2013-06-02T10:39:48Z</time>
      </trkpt>
      <trkpt lat="59.996922" lon="17.7362007">
        <ele>28.0155</ele>
        <time>2013-06-02T10:39:49Z</time>
      </trkpt>
      <trkpt lat="59.9968402" lon="17.7361733">
        <ele>27.0543</ele>
        <time>2013-06-02T10:39:50Z</time>
      </trkpt>
      <trkpt lat="59.9967648" lon="17.736128">
        <ele>26.5736</ele>
        <time>2013-06-02T10:39:51Z</time>
      </trkpt>
      <trkpt lat="59.9966945" lon="17.7360809">
        <ele>25.6123</ele>
        <time>2013-06-02T10:39:52Z</time>
      </trkpt>
      <trkpt lat="59.9966214" lon="17.7360399">
        <ele>25.6123</ele>
        <time>2013-06-02T10:39:53Z</time>
      </trkpt>
      <trkpt lat="59.9965451" lon="17.7360013">
        <ele>26.0929</ele>
        <time>2013-06-02T10:39:54Z</time>
      </trkpt>
      <trkpt lat="59.9964619" lon="17.735968">
        <ele>26.5736</ele>
        <time>2013-06-02T10:39:55Z</time>
      </trkpt>
      <trkpt lat="59.9963864" lon="17.7359254">
        <ele>26.0929</ele>
        <time>2013-06-02T10:39:56Z</time>
      </trkpt>
      <trkpt lat="59.9962994" lon="17.7359163">
        <ele>26.0929</ele>
        <time>2013-06-02T10:39:57Z</time>
      </trkpt>
      <trkpt lat="59.9962199" lon="17.7358988">
        <ele>27.0543</ele>
        <time>2013-06-02T10:39:58Z</time>
      </trkpt>
      <trkpt lat="59.9961454" lon="17.7358918">
        <ele>27.0543</ele>
        <time>2013-06-02T10:39:59Z</time>
      </trkpt>
      <trkpt lat="59.996069" lon="17.7358928">
        <ele>27.5349</ele>
        <time>2013-06-02T10:40:00Z</time>
      </trkpt>
      <trkpt lat="59.995997" lon="17.735898">
        <ele>26.0929</ele>
        <time>2013-06-02T10:40:01Z</time>
      </trkpt>
      <trkpt lat="59.9959206" lon="17.7359078">
        <ele>26.0929</ele>
        <time>2013-06-02T10:40:02Z</time>
      </trkpt>
      <trkpt lat="59.9958527" lon="17.7359073">
        <ele>24.651</ele>
        <time>2013-06-02T10:40:03Z</time>
      </trkpt>
      <trkpt lat="59.9957797" lon="17.7359078">
        <ele>22.7283</ele>
        <time>2013-06-02T10:40:04Z</time>
      </trkpt>
      <trkpt lat="59.9957026" lon="17.7359036">
        <ele>20.8057</ele>
        <time>2013-06-02T10:40:05Z</time>
      </trkpt>
      <trkpt lat="59.9956267" lon="17.7358962">
        <ele>18.4023</ele>
        <time>2013-06-02T10:40:06Z</time>
      </trkpt>
      <trkpt lat="59.9955484" lon="17.7358848">
        <ele>16.4797</ele>
        <time>2013-06-02T10:40:07Z</time>
      </trkpt>
      <trkpt lat="59.995469" lon="17.7358738">
        <ele>15.0377</ele>
        <time>2013-06-02T10:40:08Z</time>
      </trkpt>
      <trkpt lat="59.9953869" lon="17.7358509">
        <ele>14.0764</ele>
        <time>2013-06-02T10:40:09Z</time>
      </trkpt>
      <trkpt lat="59.9953077" lon="17.7358275">
        <ele>12.6344</ele>
        <time>2013-06-02T10:40:10Z</time>
      </trkpt>
      <trkpt lat="59.9952284" lon="17.7358102">
        <ele>11.1925</ele>
        <time>2013-06-02T10:40:11Z</time>
      </trkpt>
      <trkpt lat="59.9951559" lon="17.7357765">
        <ele>10.2312</ele>
        <time>2013-06-02T10:40:12Z</time>
      </trkpt>
      <trkpt lat="59.9950783" lon="17.7357314">
        <ele>9.75061</ele>
        <time>2013-06-02T10:40:13Z</time>
      </trkpt>
      <trkpt lat="59.9950089" lon="17.7356727">
        <ele>7.82788</ele>
        <time>2013-06-02T10:40:14Z</time>
      </trkpt>
      <trkpt lat="59.9949331" lon="17.7356365">
        <ele>8.78918</ele>
        <time>2013-06-02T10:40:15Z</time>
      </trkpt>
      <trkpt lat="59.9948623" lon="17.73558">
        <ele>8.78918</ele>
        <time>2013-06-02T10:40:16Z</time>
      </trkpt>
      <trkpt lat="59.9947861" lon="17.7355271">
        <ele>7.34717</ele>
        <time>2013-06-02T10:40:17Z</time>
      </trkpt>
      <trkpt lat="59.9947082" lon="17.7354817">
        <ele>6.38586</ele>
        <time>2013-06-02T10:40:18Z</time>
      </trkpt>
      <trkpt lat="59.9946267" lon="17.7354445">
        <ele>7.34717</ele>
        <time>2013-06-02T10:40:19Z</time>
      </trkpt>
      <trkpt lat="59.9945489" lon="17.7354183">
        <ele>8.30859</ele>
        <time>2013-06-02T10:40:20Z</time>
      </trkpt>
      <trkpt lat="59.9944732" lon="17.7353976">
        <ele>8.78918</ele>
        <time>2013-06-02T10:40:21Z</time>
      </trkpt>
      <trkpt lat="59.9943909" lon="17.7353744">
        <ele>9.2699</ele>
        <time>2013-06-02T10:40:22Z</time>
      </trkpt>
      <trkpt lat="59.9943163" lon="17.7353459">
        <ele>9.2699</ele>
        <time>2013-06-02T10:40:23Z</time>
      </trkpt>
      <trkpt lat="59.9942394" lon="17.7353222">
        <ele>9.2699</ele>
        <time>2013-06-02T10:40:24Z</time>
      </trkpt>
      <trkpt lat="59.9941636" lon="17.7353072">
        <ele>8.78918</ele>
        <time>2013-06-02T10:40:25Z</time>
      </trkpt>
      <trkpt lat="59.9940864" lon="17.7352883">
        <ele>9.2699</ele>
        <time>2013-06-02T10:40:26Z</time>
      </trkpt>
      <trkpt lat="59.9940096" lon="17.7352699">
        <ele>9.75061</ele>
        <time>2013-06-02T10:40:27Z</time>
      </trkpt>
      <trkpt lat="59.9939346" lon="17.7352609">
        <ele>10.7118</ele>
        <time>2013-06-02T10:40:28Z</time>
      </trkpt>
      <trkpt lat="59.9938615" lon="17.7352619">
        <ele>11.1925</ele>
        <time>2013-06-02T10:40:29Z</time>
      </trkpt>
      <trkpt lat="59.9937853" lon="17.7352817">
        <ele>13.1151</ele>
        <time>2013-06-02T10:40:30Z</time>
      </trkpt>
      <trkpt lat="59.993719" lon="17.7353077">
        <ele>13.5958</ele>
        <time>2013-06-02T10:40:31Z</time>
      </trkpt>
      <trkpt lat="59.9936464" lon="17.7353598">
        <ele>15.0377</ele>
        <time>2013-06-02T10:40:32Z</time>
      </trkpt>
      <trkpt lat="59.9935869" lon="17.7354071">
        <ele>15.5184</ele>
        <time>2013-06-02T10:40:33Z</time>
      </trkpt>
      <trkpt lat="59.993534" lon="17.7354675">
        <ele>15.0377</ele>
        <time>2013-06-02T10:40:34Z</time>
      </trkpt>
      <trkpt lat="59.9934699" lon="17.7355483">
        <ele>18.4023</ele>
        <time>2013-06-02T10:40:35Z</time>
      </trkpt>
      <trkpt lat="59.9934097" lon="17.7356161">
        <ele>20.325</ele>
        <time>2013-06-02T10:40:36Z</time>
      </trkpt>
      <trkpt lat="59.9933552" lon="17.7357179">
        <ele>21.767</ele>
        <time>2013-06-02T10:40:37Z</time>
      </trkpt>
      <trkpt lat="59.9932948" lon="17.7358118">
        <ele>26.5736</ele>
        <time>2013-06-02T10:40:38Z</time>
      </trkpt>
      <trkpt lat="59.9932504" lon="17.7359183">
        <ele>29.4575</ele>
        <time>2013-06-02T10:40:39Z</time>
      </trkpt>
      <trkpt lat="59.993202" lon="17.7360116">
        <ele>30.4188</ele>
        <time>2013-06-02T10:40:40Z</time>
      </trkpt>
      <trkpt lat="59.9931511" lon="17.7361136">
        <ele>30.8995</ele>
        <time>2013-06-02T10:40:41Z</time>
      </trkpt>
      <trkpt lat="59.993101" lon="17.7362015">
        <ele>31.8607</ele>
        <time>2013-06-02T10:40:42Z</time>
      </trkpt>
      <trkpt lat="59.9930544" lon="17.7362951">
        <ele>33.3029</ele>
        <time>2013-06-02T10:40:43Z</time>
      </trkpt>
      <trkpt lat="59.9930138" lon="17.7363866">
        <ele>35.2255</ele>
        <time>2013-06-02T10:40:44Z</time>
      </trkpt>
      <trkpt lat="59.9929693" lon="17.7364701">
        <ele>35.2255</ele>
        <time>2013-06-02T10:40:45Z</time>
      </trkpt>
      <trkpt lat="59.9929256" lon="17.7365426">
        <ele>36.1868</ele>
        <time>2013-06-02T10:40:46Z</time>
      </trkpt>
      <trkpt lat="59.9928822" lon="17.7366143">
        <ele>37.1481</ele>
        <time>2013-06-02T10:40:47Z</time>
      </trkpt>
      <trkpt lat="59.9928403" lon="17.7366799">
        <ele>39.0707</ele>
        <time>2013-06-02T10:40:48Z</time>
      </trkpt>
      <trkpt lat="59.9927965" lon="17.7367467">
        <ele>39.0707</ele>
        <time>2013-06-02T10:40:49Z</time>
      </trkpt>
      <trkpt lat="59.9927502" lon="17.7368022">
        <ele>38.5901</ele>
        <time>2013-06-02T10:40:50Z</time>
      </trkpt>
      <trkpt lat="59.9927044" lon="17.7368675">
        <ele>38.1094</ele>
        <time>2013-06-02T10:40:51Z</time>
      </trkpt>
      <trkpt lat="59.9926607" lon="17.7368895">
        <ele>37.1481</ele>
        <time>2013-06-02T10:40:52Z</time>
      </trkpt>
      <trkpt lat="59.9926199" lon="17.7369045">
        <ele>37.1481</ele>
        <time>2013-06-02T10:40:53Z</time>
      </trkpt>
      <trkpt lat="59.9925813" lon="17.736962">
        <ele>37.6287</ele>
        <time>2013-06-02T10:40:54Z</time>
      </trkpt>
      <trkpt lat="59.9925375" lon="17.7370032">
        <ele>37.1481</ele>
        <time>2013-06-02T10:40:55Z</time>
      </trkpt>
      <trkpt lat="59.9924923" lon="17.7370589">
        <ele>36.6675</ele>
        <time>2013-06-02T10:40:56Z</time>
      </trkpt>
      <trkpt lat="59.9924498" lon="17.7371161">
        <ele>36.1868</ele>
        <time>2013-06-02T10:40:57Z</time>
      </trkpt>
      <trkpt lat="59.9924057" lon="17.7371518">
        <ele>35.7061</ele>
        <time>2013-06-02T10:40:58Z</time>
      </trkpt>
      <trkpt lat="59.9923624" lon="17.737179">
        <ele>35.2255</ele>
        <time>2013-06-02T10:40:59Z</time>
      </trkpt>
      <trkpt lat="59.9923183" lon="17.7372086">
        <ele>35.2255</ele>
        <time>2013-06-02T10:41:00Z</time>
      </trkpt>
      <trkpt lat="59.9922707" lon="17.7372424">
        <ele>34.2642</ele>
        <time>2013-06-02T10:41:01Z</time>
      </trkpt>
      <trkpt lat="59.9922116" lon="17.7372735">
        <ele>35.7061</ele>
        <time>2013-06-02T10:41:02Z</time>
      </trkpt>
      <trkpt lat="59.9921464" lon="17.7373157">
        <ele>36.1868</ele>
        <time>2013-06-02T10:41:03Z</time>
      </trkpt>
      <trkpt lat="59.9920879" lon="17.7373349">
        <ele>36.6675</ele>
        <time>2013-06-02T10:41:04Z</time>
      </trkpt>
      <trkpt lat="59.9920284" lon="17.737344">
        <ele>36.6675</ele>
        <time>2013-06-02T10:41:05Z</time>
      </trkpt>
      <trkpt lat="59.9919718" lon="17.7373641">
        <ele>38.5901</ele>
        <time>2013-06-02T10:41:06Z</time>
      </trkpt>
      <trkpt lat="59.9919185" lon="17.7373708">
        <ele>39.5513</ele>
        <time>2013-06-02T10:41:07Z</time>
      </trkpt>
      <trkpt lat="59.9918538" lon="17.737406">
        <ele>40.9934</ele>
        <time>2013-06-02T10:41:08Z</time>
      </trkpt>
      <trkpt lat="59.991792" lon="17.7374315">
        <ele>41.9547</ele>
        <time>2013-06-02T10:41:09Z</time>
      </trkpt>
      <trkpt lat="59.9917371" lon="17.7374672">
        <ele>43.3966</ele>
        <time>2013-06-02T10:41:10Z</time>
      </trkpt>
      <trkpt lat="59.9916862" lon="17.7374724">
        <ele>43.8773</ele>
        <time>2013-06-02T10:41:11Z</time>
      </trkpt>
      <trkpt lat="59.9916319" lon="17.7374917">
        <ele>43.3966</ele>
        <time>2013-06-02T10:41:12Z</time>
      </trkpt>
      <trkpt lat="59.9915745" lon="17.737521">
        <ele>43.3966</ele>
        <time>2013-06-02T10:41:13Z</time>
      </trkpt>
      <trkpt lat="59.9915117" lon="17.7375499">
        <ele>42.916</ele>
        <time>2013-06-02T10:41:14Z</time>
      </trkpt>
      <trkpt lat="59.9914466" lon="17.7375727">
        <ele>42.4354</ele>
        <time>2013-06-02T10:41:15Z</time>
      </trkpt>
      <trkpt lat="59.9913831" lon="17.7375898">
        <ele>41.474</ele>
        <time>2013-06-02T10:41:16Z</time>
      </trkpt>
      <trkpt lat="59.991317" lon="17.7375857">
        <ele>40.5128</ele>
        <time>2013-06-02T10:41:17Z</time>
      </trkpt>
      <trkpt lat="59.9912512" lon="17.7375806">
        <ele>39.0707</ele>
        <time>2013-06-02T10:41:18Z</time>
      </trkpt>
      <trkpt lat="59.9911906" lon="17.7375842">
        <ele>38.1094</ele>
        <time>2013-06-02T10:41:19Z</time>
      </trkpt>
      <trkpt lat="59.9911362" lon="17.7375889">
        <ele>37.1481</ele>
        <time>2013-06-02T10:41:20Z</time>
      </trkpt>
      <trkpt lat="59.9910829" lon="17.7376151">
        <ele>35.7061</ele>
        <time>2013-06-02T10:41:21Z</time>
      </trkpt>
      <trkpt lat="59.9910294" lon="17.7376481">
        <ele>34.7449</ele>
        <time>2013-06-02T10:41:22Z</time>
      </trkpt>
      <trkpt lat="59.9909648" lon="17.7377454">
        <ele>34.7449</ele>
        <time>2013-06-02T10:41:23Z</time>
      </trkpt>
      <trkpt lat="59.9909081" lon="17.7378333">
        <ele>33.7834</ele>
        <time>2013-06-02T10:41:24Z</time>
      </trkpt>
      <trkpt lat="59.9908414" lon="17.7379225">
        <ele>33.7834</ele>
        <time>2013-06-02T10:41:25Z</time>
      </trkpt>
      <trkpt lat="59.9907783" lon="17.7379581">
        <ele>32.8223</ele>
        <time>2013-06-02T10:41:26Z</time>
      </trkpt>
      <trkpt lat="59.990711" lon="17.7379851">
        <ele>31.3801</ele>
        <time>2013-06-02T10:41:27Z</time>
      </trkpt>
      <trkpt lat="59.9906474" lon="17.7379948">
        <ele>29.9381</ele>
        <time>2013-06-02T10:41:28Z</time>
      </trkpt>
      <trkpt lat="59.9905638" lon="17.7380075">
        <ele>30.8995</ele>
        <time>2013-06-02T10:41:29Z</time>
      </trkpt>
      <trkpt lat="59.9904856" lon="17.7380107">
        <ele>32.3416</ele>
        <time>2013-06-02T10:41:30Z</time>
      </trkpt>
      <trkpt lat="59.990412" lon="17.7380138">
        <ele>32.8223</ele>
        <time>2013-06-02T10:41:31Z</time>
      </trkpt>
      <trkpt lat="59.9903367" lon="17.7380368">
        <ele>34.2642</ele>
        <time>2013-06-02T10:41:32Z</time>
      </trkpt>
      <trkpt lat="59.9902692" lon="17.7380769">
        <ele>35.2255</ele>
        <time>2013-06-02T10:41:33Z</time>
      </trkpt>
      <trkpt lat="59.9902081" lon="17.7380955">
        <ele>34.7449</ele>
        <time>2013-06-02T10:41:34Z</time>
      </trkpt>
      <trkpt lat="59.9901432" lon="17.7381416">
        <ele>34.7449</ele>
        <time>2013-06-02T10:41:35Z</time>
      </trkpt>
      <trkpt lat="59.9900862" lon="17.7381789">
        <ele>34.7449</ele>
        <time>2013-06-02T10:41:36Z</time>
      </trkpt>
      <trkpt lat="59.990037" lon="17.7381935">
        <ele>33.3029</ele>
        <time>2013-06-02T10:41:37Z</time>
      </trkpt>
      <trkpt lat="59.9899826" lon="17.7381901">
        <ele>31.8607</ele>
        <time>2013-06-02T10:41:38Z</time>
      </trkpt>
      <trkpt lat="59.9899268" lon="17.7381851">
        <ele>30.8995</ele>
        <time>2013-06-02T10:41:39Z</time>
      </trkpt>
      <trkpt lat="59.9898661" lon="17.7382016">
        <ele>30.8995</ele>
        <time>2013-06-02T10:41:40Z</time>
      </trkpt>
      <trkpt lat="59.9898044" lon="17.7382135">
        <ele>31.8607</ele>
        <time>2013-06-02T10:41:41Z</time>
      </trkpt>
      <trkpt lat="59.989753" lon="17.738239">
        <ele>30.8995</ele>
        <time>2013-06-02T10:41:42Z</time>
      </trkpt>
      <trkpt lat="59.9897024" lon="17.7382593">
        <ele>29.4575</ele>
        <time>2013-06-02T10:41:43Z</time>
      </trkpt>
      <trkpt lat="59.9896502" lon="17.7382743">
        <ele>29.4575</ele>
        <time>2013-06-02T10:41:44Z</time>
      </trkpt>
      <trkpt lat="59.9895993" lon="17.7382898">
        <ele>28.0155</ele>
        <time>2013-06-02T10:41:45Z</time>
      </trkpt>
      <trkpt lat="59.9895522" lon="17.7383069">
        <ele>27.0543</ele>
        <time>2013-06-02T10:41:46Z</time>
      </trkpt>
      <trkpt lat="59.9894973" lon="17.7383297">
        <ele>27.0543</ele>
        <time>2013-06-02T10:41:47Z</time>
      </trkpt>
      <trkpt lat="59.9894445" lon="17.7383474">
        <ele>26.5736</ele>
        <time>2013-06-02T10:41:48Z</time>
      </trkpt>
      <trkpt lat="59.9893868" lon="17.7383775">
        <ele>27.0543</ele>
        <time>2013-06-02T10:41:49Z</time>
      </trkpt>
      <trkpt lat="59.9893118" lon="17.7384265">
        <ele>31.3801</ele>
        <time>2013-06-02T10:41:50Z</time>
      </trkpt>
      <trkpt lat="59.9892456" lon="17.7384654">
        <ele>33.3029</ele>
        <time>2013-06-02T10:41:51Z</time>
      </trkpt>
      <trkpt lat="59.9891879" lon="17.7385175">
        <ele>33.3029</ele>
        <time>2013-06-02T10:41:52Z</time>
      </trkpt>
      <trkpt lat="59.9891241" lon="17.7385545">
        <ele>34.2642</ele>
        <time>2013-06-02T10:41:53Z</time>
      </trkpt>
      <trkpt lat="59.989063" lon="17.7386087">
        <ele>33.7834</ele>
        <time>2013-06-02T10:41:54Z</time>
      </trkpt>
      <trkpt lat="59.9890089" lon="17.7386534">
        <ele>33.3029</ele>
        <time>2013-06-02T10:41:55Z</time>
      </trkpt>
      <trkpt lat="59.9889575" lon="17.7386913">
        <ele>31.3801</ele>
        <time>2013-06-02T10:41:56Z</time>
      </trkpt>
      <trkpt lat="59.9889086" lon="17.7387378">
        <ele>29.9381</ele>
        <time>2013-06-02T10:41:57Z</time>
      </trkpt>
      <trkpt lat="59.9888526" lon="17.7387861">
        <ele>28.4962</ele>
        <time>2013-06-02T10:41:58Z</time>
      </trkpt>
      <trkpt lat="59.9888003" lon="17.7388275">
        <ele>28.0155</ele>
        <time>2013-06-02T10:41:59Z</time>
      </trkpt>
      <trkpt lat="59.9887416" lon="17.7388633">
        <ele>27.0543</ele>
        <time>2013-06-02T10:42:00Z</time>
      </trkpt>
      <trkpt lat="59.988682" lon="17.7388937">
        <ele>27.5349</ele>
        <time>2013-06-02T10:42:01Z</time>
      </trkpt>
      <trkpt lat="59.9886097" lon="17.7389301">
        <ele>27.0543</ele>
        <time>2013-06-02T10:42:02Z</time>
      </trkpt>
      <trkpt lat="59.9885343" lon="17.7389687">
        <ele>27.5349</ele>
        <time>2013-06-02T10:42:03Z</time>
      </trkpt>
      <trkpt lat="59.9884545" lon="17.7390061">
        <ele>28.0155</ele>
        <time>2013-06-02T10:42:04Z</time>
      </trkpt>
      <trkpt lat="59.988383" lon="17.7390324">
        <ele>27.5349</ele>
        <time>2013-06-02T10:42:05Z</time>
      </trkpt>
      <trkpt lat="59.98831" lon="17.739055">
        <ele>27.0543</ele>
        <time>2013-06-02T10:42:06Z</time>
      </trkpt>
      <trkpt lat="59.9882369" lon="17.7390658">
        <ele>25.1317</ele>
        <time>2013-06-02T10:42:07Z</time>
      </trkpt>
      <trkpt lat="59.988163" lon="17.7390782">
        <ele>24.651</ele>
        <time>2013-06-02T10:42:08Z</time>
      </trkpt>
      <trkpt lat="59.9880898" lon="17.7390868">
        <ele>24.651</ele>
        <time>2013-06-02T10:42:09Z</time>
      </trkpt>
      <trkpt lat="59.9880125" lon="17.7390863">
        <ele>23.6896</ele>
        <time>2013-06-02T10:42:10Z</time>
      </trkpt>
      <trkpt lat="59.9879396" lon="17.7390896">
        <ele>22.2476</ele>
        <time>2013-06-02T10:42:11Z</time>
      </trkpt>
      <trkpt lat="59.9878664" lon="17.7390823">
        <ele>21.2864</ele>
        <time>2013-06-02T10:42:12Z</time>
      </trkpt>
      <trkpt lat="59.9877899" lon="17.7390754">
        <ele>20.325</ele>
        <time>2013-06-02T10:42:13Z</time>
      </trkpt>
      <trkpt lat="59.9877144" lon="17.7390742">
        <ele>18.8831</ele>
        <time>2013-06-02T10:42:14Z</time>
      </trkpt>
      <trkpt lat="59.9876386" lon="17.7390733">
        <ele>17.4412</ele>
        <time>2013-06-02T10:42:15Z</time>
      </trkpt>
      <trkpt lat="59.9875662" lon="17.7390827">
        <ele>16.4797</ele>
        <time>2013-06-02T10:42:16Z</time>
      </trkpt>
      <trkpt lat="59.9874935" lon="17.7391008">
        <ele>15.999</ele>
        <time>2013-06-02T10:42:17Z</time>
      </trkpt>
      <trkpt lat="59.9874221" lon="17.7391165">
        <ele>15.5184</ele>
        <time>2013-06-02T10:42:18Z</time>
      </trkpt>
      <trkpt lat="59.9873516" lon="17.7391207">
        <ele>15.0377</ele>
        <time>2013-06-02T10:42:19Z</time>
      </trkpt>
      <trkpt lat="59.9872818" lon="17.7391155">
        <ele>15.999</ele>
        <time>2013-06-02T10:42:20Z</time>
      </trkpt>
      <trkpt lat="59.9872139" lon="17.7390866">
        <ele>15.999</ele>
        <time>2013-06-02T10:42:21Z</time>
      </trkpt>
      <trkpt lat="59.98715" lon="17.7390311">
        <ele>15.0377</ele>
        <time>2013-06-02T10:42:22Z</time>
      </trkpt>
      <trkpt lat="59.9870609" lon="17.7390077">
        <ele>19.3638</ele>
        <time>2013-06-02T10:42:23Z</time>
      </trkpt>
      <trkpt lat="59.9869923" lon="17.7389389">
        <ele>20.325</ele>
        <time>2013-06-02T10:42:24Z</time>
      </trkpt>
      <trkpt lat="59.9869067" lon="17.7388737">
        <ele>23.209</ele>
        <time>2013-06-02T10:42:25Z</time>
      </trkpt>
      <trkpt lat="59.9868285" lon="17.7387968">
        <ele>26.0929</ele>
        <time>2013-06-02T10:42:26Z</time>
      </trkpt>
      <trkpt lat="59.9867508" lon="17.7387161">
        <ele>28.4962</ele>
        <time>2013-06-02T10:42:27Z</time>
      </trkpt>
      <trkpt lat="59.9866731" lon="17.7386404">
        <ele>29.9381</ele>
        <time>2013-06-02T10:42:28Z</time>
      </trkpt>
      <trkpt lat="59.9865886" lon="17.7385776">
        <ele>32.3416</ele>
        <time>2013-06-02T10:42:29Z</time>
      </trkpt>
      <trkpt lat="59.9865081" lon="17.7385075">
        <ele>32.8223</ele>
        <time>2013-06-02T10:42:30Z</time>
      </trkpt>
      <trkpt lat="59.9864299" lon="17.7384607">
        <ele>33.7834</ele>
        <time>2013-06-02T10:42:31Z</time>
      </trkpt>
      <trkpt lat="59.986353" lon="17.7384245">
        <ele>34.7449</ele>
        <time>2013-06-02T10:42:32Z</time>
      </trkpt>
      <trkpt lat="59.9862766" lon="17.7383814">
        <ele>35.2255</ele>
        <time>2013-06-02T10:42:33Z</time>
      </trkpt>
      <trkpt lat="59.9861815" lon="17.7383435">
        <ele>33.3029</ele>
        <time>2013-06-02T10:42:34Z</time>
      </trkpt>
      <trkpt lat="59.9860912" lon="17.7383156">
        <ele>32.8223</ele>
        <time>2013-06-02T10:42:35Z</time>
      </trkpt>
      <trkpt lat="59.9860074" lon="17.738265">
        <ele>32.3416</ele>
        <time>2013-06-02T10:42:36Z</time>
      </trkpt>
      <trkpt lat="59.9859198" lon="17.7382313">
        <ele>32.8223</ele>
        <time>2013-06-02T10:42:37Z</time>
      </trkpt>
      <trkpt lat="59.9858291" lon="17.7381891">
        <ele>33.3029</ele>
        <time>2013-06-02T10:42:38Z</time>
      </trkpt>
      <trkpt lat="59.9857422" lon="17.7381493">
        <ele>33.7834</ele>
        <time>2013-06-02T10:42:39Z</time>
      </trkpt>
      <trkpt lat="59.9856598" lon="17.7381132">
        <ele>32.3416</ele>
        <time>2013-06-02T10:42:40Z</time>
      </trkpt>
      <trkpt lat="59.9855707" lon="17.7380836">
        <ele>30.8995</ele>
        <time>2013-06-02T10:42:41Z</time>
      </trkpt>
      <trkpt lat="59.9854857" lon="17.7380584">
        <ele>29.9381</ele>
        <time>2013-06-02T10:42:42Z</time>
      </trkpt>
      <trkpt lat="59.9854045" lon="17.7380324">
        <ele>28.9769</ele>
        <time>2013-06-02T10:42:43Z</time>
      </trkpt>
      <trkpt lat="59.9853277" lon="17.7380137">
        <ele>28.0155</ele>
        <time>2013-06-02T10:42:44Z</time>
      </trkpt>
      <trkpt lat="59.9852491" lon="17.7380031">
        <ele>27.0543</ele>
        <time>2013-06-02T10:42:45Z</time>
      </trkpt>
      <trkpt lat="59.9851623" lon="17.7380017">
        <ele>26.5736</ele>
        <time>2013-06-02T10:42:46Z</time>
      </trkpt>
      <trkpt lat="59.9850772" lon="17.7380062">
        <ele>26.5736</ele>
        <time>2013-06-02T10:42:47Z</time>
      </trkpt>
      <trkpt lat="59.9849894" lon="17.7379855">
        <ele>27.5349</ele>
        <time>2013-06-02T10:42:48Z</time>
      </trkpt>
      <trkpt lat="59.9849004" lon="17.7379659">
        <ele>27.0543</ele>
        <time>2013-06-02T10:42:49Z</time>
      </trkpt>
      <trkpt lat="59.9848125" lon="17.7379379">
        <ele>27.0543</ele>
        <time>2013-06-02T10:42:50Z</time>
      </trkpt>
      <trkpt lat="59.9847187" lon="17.7379252">
        <ele>26.5736</ele>
        <time>2013-06-02T10:42:51Z</time>
      </trkpt>
      <trkpt lat="59.9846285" lon="17.7379137">
        <ele>26.0929</ele>
        <time>2013-06-02T10:42:52Z</time>
      </trkpt>
      <trkpt lat="59.9845452" lon="17.7378997">
        <ele>25.6123</ele>
        <time>2013-06-02T10:42:53Z</time>
      </trkpt>
      <trkpt lat="59.9844661" lon="17.7378645">
        <ele>24.651</ele>
        <time>2013-06-02T10:42:54Z</time>
      </trkpt>
      <trkpt lat="59.9843941" lon="17.7378333">
        <ele>22.7283</ele>
        <time>2013-06-02T10:42:55Z</time>
      </trkpt>
      <trkpt lat="59.9843274" lon="17.7378011">
        <ele>20.325</ele>
        <time>2013-06-02T10:42:56Z</time>
      </trkpt>
      <trkpt lat="59.9842607" lon="17.7377773">
        <ele>17.9218</ele>
        <time>2013-06-02T10:42:57Z</time>
      </trkpt>
      <trkpt lat="59.9841917" lon="17.7377733">
        <ele>15.999</ele>
        <time>2013-06-02T10:42:58Z</time>
      </trkpt>
      <trkpt lat="59.9841208" lon="17.7377792">
        <ele>14.557</ele>
        <time>2013-06-02T10:42:59Z</time>
      </trkpt>
      <trkpt lat="59.9840497" lon="17.7377965">
        <ele>14.0764</ele>
        <time>2013-06-02T10:43:00Z</time>
      </trkpt>
      <trkpt lat="59.983972" lon="17.7378087">
        <ele>12.6344</ele>
        <time>2013-06-02T10:43:01Z</time>
      </trkpt>
      <trkpt lat="59.9838799" lon="17.7378371">
        <ele>12.6344</ele>
        <time>2013-06-02T10:43:02Z</time>
      </trkpt>
      <trkpt lat="59.9837905" lon="17.7378669">
        <ele>12.1538</ele>
        <time>2013-06-02T10:43:03Z</time>
      </trkpt>
      <trkpt lat="59.9837057" lon="17.7378771">
        <ele>11.1925</ele>
        <time>2013-06-02T10:43:04Z</time>
      </trkpt>
      <trkpt lat="59.9836251" lon="17.7378879">
        <ele>9.2699</ele>
        <time>2013-06-02T10:43:05Z</time>
      </trkpt>
      <trkpt lat="59.9835402" lon="17.7378933">
        <ele>7.82788</ele>
        <time>2013-06-02T10:43:06Z</time>
      </trkpt>
      <trkpt lat="59.9834524" lon="17.737895">
        <ele>6.86646</ele>
        <time>2013-06-02T10:43:07Z</time>
      </trkpt>
      <trkpt lat="59.9833692" lon="17.7379003">
        <ele>5.42456</ele>
        <time>2013-06-02T10:43:08Z</time>
      </trkpt>
      <trkpt lat="59.9832853" lon="17.7378878">
        <ele>4.46326</ele>
        <time>2013-06-02T10:43:09Z</time>
      </trkpt>
      <trkpt lat="59.9831991" lon="17.7378688">
        <ele>4.46326</ele>
        <time>2013-06-02T10:43:10Z</time>
      </trkpt>
      <trkpt lat="59.9831098" lon="17.7378675">
        <ele>4.94385</ele>
        <time>2013-06-02T10:43:11Z</time>
      </trkpt>
      <trkpt lat="59.9830163" lon="17.7378408">
        <ele>4.94385</ele>
        <time>2013-06-02T10:43:12Z</time>
      </trkpt>
      <trkpt lat="59.9829252" lon="17.7378294">
        <ele>5.90527</ele>
        <time>2013-06-02T10:43:13Z</time>
      </trkpt>
      <trkpt lat="59.9828357" lon="17.7378136">
        <ele>6.38586</ele>
        <time>2013-06-02T10:43:14Z</time>
      </trkpt>
      <trkpt lat="59.9827466" lon="17.7378096">
        <ele>5.90527</ele>
        <time>2013-06-02T10:43:15Z</time>
      </trkpt>
      <trkpt lat="59.9826488" lon="17.7378034">
        <ele>8.30859</ele>
        <time>2013-06-02T10:43:16Z</time>
      </trkpt>
      <trkpt lat="59.9825565" lon="17.7378141">
        <ele>8.78918</ele>
        <time>2013-06-02T10:43:17Z</time>
      </trkpt>
      <trkpt lat="59.9824703" lon="17.7378277">
        <ele>9.2699</ele>
        <time>2013-06-02T10:43:18Z</time>
      </trkpt>
      <trkpt lat="59.9823929" lon="17.7378775">
        <ele>8.78918</ele>
        <time>2013-06-02T10:43:19Z</time>
      </trkpt>
      <trkpt lat="59.9823027" lon="17.7379168">
        <ele>10.7118</ele>
        <time>2013-06-02T10:43:20Z</time>
      </trkpt>
      <trkpt lat="59.9822138" lon="17.7379639">
        <ele>10.7118</ele>
        <time>2013-06-02T10:43:21Z</time>
      </trkpt>
      <trkpt lat="59.9821191" lon="17.7380249">
        <ele>11.1925</ele>
        <time>2013-06-02T10:43:22Z</time>
      </trkpt>
      <trkpt lat="59.9820246" lon="17.7380634">
        <ele>11.6732</ele>
        <time>2013-06-02T10:43:23Z</time>
      </trkpt>
      <trkpt lat="59.9819318" lon="17.738099">
        <ele>11.6732</ele>
        <time>2013-06-02T10:43:24Z</time>
      </trkpt>
      <trkpt lat="59.9818348" lon="17.7381484">
        <ele>13.5958</ele>
        <time>2013-06-02T10:43:25Z</time>
      </trkpt>
      <trkpt lat="59.9817176" lon="17.7381912">
        <ele>17.4412</ele>
        <time>2013-06-02T10:43:26Z</time>
      </trkpt>
      <trkpt lat="59.9816008" lon="17.7382319">
        <ele>20.325</ele>
        <time>2013-06-02T10:43:27Z</time>
      </trkpt>
      <trkpt lat="59.981483" lon="17.7382505">
        <ele>22.2476</ele>
        <time>2013-06-02T10:43:28Z</time>
      </trkpt>
      <trkpt lat="59.9813692" lon="17.7382721">
        <ele>24.1703</ele>
        <time>2013-06-02T10:43:29Z</time>
      </trkpt>
      <trkpt lat="59.9812594" lon="17.7383115">
        <ele>24.1703</ele>
        <time>2013-06-02T10:43:30Z</time>
      </trkpt>
      <trkpt lat="59.9811485" lon="17.7383582">
        <ele>25.6123</ele>
        <time>2013-06-02T10:43:31Z</time>
      </trkpt>
      <trkpt lat="59.9810408" lon="17.7383939">
        <ele>25.6123</ele>
        <time>2013-06-02T10:43:32Z</time>
      </trkpt>
      <trkpt lat="59.9809387" lon="17.738426">
        <ele>24.651</ele>
        <time>2013-06-02T10:43:33Z</time>
      </trkpt>
      <trkpt lat="59.9808397" lon="17.7384561">
        <ele>24.1703</ele>
        <time>2013-06-02T10:43:34Z</time>
      </trkpt>
      <trkpt lat="59.9807377" lon="17.738486">
        <ele>22.7283</ele>
        <time>2013-06-02T10:43:35Z</time>
      </trkpt>
      <trkpt lat="59.9806424" lon="17.7385072">
        <ele>21.767</ele>
        <time>2013-06-02T10:43:36Z</time>
      </trkpt>
      <trkpt lat="59.9805513" lon="17.7385224">
        <ele>22.2476</ele>
        <time>2013-06-02T10:43:37Z</time>
      </trkpt>
      <trkpt lat="59.9804583" lon="17.7385467">
        <ele>23.209</ele>
        <time>2013-06-02T10:43:38Z</time>
      </trkpt>
      <trkpt lat="59.9803611" lon="17.7385653">
        <ele>24.1703</ele>
        <time>2013-06-02T10:43:39Z</time>
      </trkpt>
      <trkpt lat="59.9802692" lon="17.7385467">
        <ele>24.1703</ele>
        <time>2013-06-02T10:43:40Z</time>
      </trkpt>
      <trkpt lat="59.9801761" lon="17.7385274">
        <ele>24.1703</ele>
        <time>2013-06-02T10:43:41Z</time>
      </trkpt>
      <trkpt lat="59.9800861" lon="17.7385204">
        <ele>24.1703</ele>
        <time>2013-06-02T10:43:42Z</time>
      </trkpt>
      <trkpt lat="59.979995" lon="17.7385266">
        <ele>23.209</ele>
        <time>2013-06-02T10:43:43Z</time>
      </trkpt>
      <trkpt lat="59.979903" lon="17.7385524">
        <ele>22.2476</ele>
        <time>2013-06-02T10:43:44Z</time>
      </trkpt>
      <trkpt lat="59.9798165" lon="17.7385883">
        <ele>21.2864</ele>
        <time>2013-06-02T10:43:45Z</time>
      </trkpt>
      <trkpt lat="59.9797225" lon="17.7386491">
        <ele>22.7283</ele>
        <time>2013-06-02T10:43:46Z</time>
      </trkpt>
      <trkpt lat="59.979636" lon="17.7387291">
        <ele>24.651</ele>
        <time>2013-06-02T10:43:47Z</time>
      </trkpt>
      <trkpt lat="59.9795591" lon="17.7387782">
        <ele>26.0929</ele>
        <time>2013-06-02T10:43:48Z</time>
      </trkpt>
      <trkpt lat="59.9794902" lon="17.738815">
        <ele>27.0543</ele>
        <time>2013-06-02T10:43:49Z</time>
      </trkpt>
      <trkpt lat="59.9794181" lon="17.7388565">
        <ele>28.0155</ele>
        <time>2013-06-02T10:43:50Z</time>
      </trkpt>
      <trkpt lat="59.979355" lon="17.7388922">
        <ele>28.0155</ele>
        <time>2013-06-02T10:43:51Z</time>
      </trkpt>
      <trkpt lat="59.9792913" lon="17.7389378">
        <ele>28.4962</ele>
        <time>2013-06-02T10:43:52Z</time>
      </trkpt>
      <trkpt lat="59.9792291" lon="17.7390114">
        <ele>32.3416</ele>
        <time>2013-06-02T10:43:53Z</time>
      </trkpt>
    </trkseg>
  </trk>
</gpx>